<?xml version='1.0' encoding='UTF-8'?><gpx version="1.1" creator="JPX - https://github.com/jenetics/jpx" xmlns="http://www.topografix.com/GPX/1/1"><trk><trkseg><trkpt lat="42.660005" lon="11.9816067"><ele>458.59999999999997</ele><time>2026-04-17T11:40:09.618Z</time></trkpt><trkpt lat="42.66001" lon="11.9817017"><ele>459.19999999999993</ele><time>2026-04-17T11:47:56.617Z</time></trkpt><trkpt lat="42.6599867" lon="11.9818183"><ele>459.8</ele><time>2026-04-17T11:47:58.616Z</time></trkpt><trkpt lat="42.6599483" lon="11.9819567"><ele>460.4</ele><time>2026-04-17T11:48:00.616Z</time></trkpt><trkpt lat="42.659915" lon="11.9820967"><ele>461.0</ele><time>2026-04-17T11:48:02.617Z</time></trkpt><trkpt lat="42.6598717" lon="11.982255"><ele>460.99999999999994</ele><time>2026-04-17T11:48:04.616Z</time></trkpt><trkpt lat="42.65984" lon="11.9823867"><ele>461.0</ele><time>2026-04-17T11:48:06.617Z</time></trkpt><trkpt lat="42.6598117" lon="11.982495"><ele>461.0</ele><time>2026-04-17T11:48:08.617Z</time></trkpt><trkpt lat="42.6597767" lon="11.98258"><ele>461.0</ele><time>2026-04-17T11:48:10.617Z</time></trkpt><trkpt lat="42.6597133" lon="11.98263"><ele>460.99999999999994</ele><time>2026-04-17T11:48:12.616Z</time></trkpt><trkpt lat="42.6596133" lon="11.9826383"><ele>461.0</ele><time>2026-04-17T11:48:14.616Z</time></trkpt><trkpt lat="42.659495" lon="11.98261"><ele>459.99999999999994</ele><time>2026-04-17T11:48:16.616Z</time></trkpt><trkpt lat="42.65943" lon="11.982585"><ele>459.0</ele><time>2026-04-17T11:48:17.616Z</time></trkpt><trkpt lat="42.6593667" lon="11.9825633"><ele>458.0</ele><time>2026-04-17T11:48:18.615Z</time></trkpt><trkpt lat="42.6593033" lon="11.98254"><ele>457.0</ele><time>2026-04-17T11:48:19.616Z</time></trkpt><trkpt lat="42.65924" lon="11.9825267"><ele>455.99999999999994</ele><time>2026-04-17T11:48:20.615Z</time></trkpt><trkpt lat="42.6591117" lon="11.9824867"><ele>455.0</ele><time>2026-04-17T11:48:22.616Z</time></trkpt><trkpt lat="42.6590433" lon="11.98246"><ele>454.99999999999994</ele><time>2026-04-17T11:48:23.616Z</time></trkpt><trkpt lat="42.6589733" lon="11.9824367"><ele>455.0</ele><time>2026-04-17T11:48:24.615Z</time></trkpt><trkpt lat="42.6588917" lon="11.9824267"><ele>455.0</ele><time>2026-04-17T11:48:25.616Z</time></trkpt><trkpt lat="42.6588067" lon="11.9824367"><ele>455.0</ele><time>2026-04-17T11:48:26.615Z</time></trkpt><trkpt lat="42.65872" lon="11.9824683"><ele>454.99999999999994</ele><time>2026-04-17T11:48:27.616Z</time></trkpt><trkpt lat="42.658635" lon="11.9825"><ele>455.0</ele><time>2026-04-17T11:48:28.615Z</time></trkpt><trkpt lat="42.6585417" lon="11.9825383"><ele>453.3333333333333</ele><time>2026-04-17T11:48:29.616Z</time></trkpt><trkpt lat="42.6584567" lon="11.9825717"><ele>451.66666666666663</ele><time>2026-04-17T11:48:30.616Z</time></trkpt><trkpt lat="42.6583767" lon="11.9825967"><ele>450.0</ele><time>2026-04-17T11:48:31.615Z</time></trkpt><trkpt lat="42.6582883" lon="11.98261"><ele>448.33333333333337</ele><time>2026-04-17T11:48:32.616Z</time></trkpt><trkpt lat="42.6581967" lon="11.9826133"><ele>446.6666666666667</ele><time>2026-04-17T11:48:33.615Z</time></trkpt><trkpt lat="42.6581" lon="11.9826183"><ele>445.0</ele><time>2026-04-17T11:48:34.615Z</time></trkpt><trkpt lat="42.658005" lon="11.9826117"><ele>445.00000000000006</ele><time>2026-04-17T11:48:35.616Z</time></trkpt><trkpt lat="42.6579167" lon="11.9826017"><ele>445.0</ele><time>2026-04-17T11:48:36.616Z</time></trkpt><trkpt lat="42.65783" lon="11.9826083"><ele>445.0</ele><time>2026-04-17T11:48:37.615Z</time></trkpt><trkpt lat="42.657745" lon="11.982645"><ele>445.0</ele><time>2026-04-17T11:48:38.616Z</time></trkpt><trkpt lat="42.6576633" lon="11.9826967"><ele>445.00000000000006</ele><time>2026-04-17T11:48:39.616Z</time></trkpt><trkpt lat="42.657585" lon="11.9827667"><ele>445.0</ele><time>2026-04-17T11:48:40.616Z</time></trkpt><trkpt lat="42.6575133" lon="11.98285"><ele>446.2</ele><time>2026-04-17T11:48:41.615Z</time></trkpt><trkpt lat="42.65744" lon="11.9829333"><ele>447.4</ele><time>2026-04-17T11:48:42.616Z</time></trkpt><trkpt lat="42.657365" lon="11.9830183"><ele>448.6</ele><time>2026-04-17T11:48:43.615Z</time></trkpt><trkpt lat="42.65728" lon="11.9830967"><ele>449.8</ele><time>2026-04-17T11:48:44.616Z</time></trkpt><trkpt lat="42.6572" lon="11.9831683"><ele>451.0</ele><time>2026-04-17T11:48:45.615Z</time></trkpt><trkpt lat="42.6571133" lon="11.983245"><ele>451.0</ele><time>2026-04-17T11:48:46.616Z</time></trkpt><trkpt lat="42.6570217" lon="11.9833167"><ele>451.0</ele><time>2026-04-17T11:48:47.616Z</time></trkpt><trkpt lat="42.6569333" lon="11.9833717"><ele>451.0</ele><time>2026-04-17T11:48:48.616Z</time></trkpt><trkpt lat="42.6568483" lon="11.9834233"><ele>451.0</ele><time>2026-04-17T11:48:49.616Z</time></trkpt><trkpt lat="42.6567717" lon="11.9834733"><ele>451.0</ele><time>2026-04-17T11:48:50.615Z</time></trkpt><trkpt lat="42.6567033" lon="11.9835217"><ele>450.00000000000006</ele><time>2026-04-17T11:48:51.616Z</time></trkpt><trkpt lat="42.656635" lon="11.9835667"><ele>449.0</ele><time>2026-04-17T11:48:52.616Z</time></trkpt><trkpt lat="42.65653" lon="11.9836533"><ele>448.0</ele><time>2026-04-17T11:48:54.615Z</time></trkpt><trkpt lat="42.6564633" lon="11.9837017"><ele>447.0</ele><time>2026-04-17T11:48:55.616Z</time></trkpt><trkpt lat="42.6563917" lon="11.9837433"><ele>446.00000000000006</ele><time>2026-04-17T11:48:56.616Z</time></trkpt><trkpt lat="42.65631" lon="11.983785"><ele>445.0</ele><time>2026-04-17T11:48:57.616Z</time></trkpt><trkpt lat="42.6562283" lon="11.983825"><ele>445.00000000000006</ele><time>2026-04-17T11:48:58.616Z</time></trkpt><trkpt lat="42.656145" lon="11.9838633"><ele>445.0</ele><time>2026-04-17T11:48:59.616Z</time></trkpt><trkpt lat="42.6560717" lon="11.98391"><ele>445.0</ele><time>2026-04-17T11:49:00.616Z</time></trkpt><trkpt lat="42.6559933" lon="11.9839717"><ele>445.0</ele><time>2026-04-17T11:49:01.616Z</time></trkpt><trkpt lat="42.6559283" lon="11.984035"><ele>445.00000000000006</ele><time>2026-04-17T11:49:02.616Z</time></trkpt><trkpt lat="42.6558617" lon="11.984105"><ele>445.0</ele><time>2026-04-17T11:49:03.616Z</time></trkpt><trkpt lat="42.655795" lon="11.9841733"><ele>443.4</ele><time>2026-04-17T11:49:04.615Z</time></trkpt><trkpt lat="42.6557117" lon="11.9842417"><ele>441.8</ele><time>2026-04-17T11:49:05.616Z</time></trkpt><trkpt lat="42.6556317" lon="11.9843033"><ele>440.20000000000005</ele><time>2026-04-17T11:49:06.615Z</time></trkpt><trkpt lat="42.6555533" lon="11.9843317"><ele>438.6</ele><time>2026-04-17T11:49:07.616Z</time></trkpt><trkpt lat="42.6554633" lon="11.98435"><ele>437.0</ele><time>2026-04-17T11:49:08.616Z</time></trkpt><trkpt lat="42.6553533" lon="11.9843483"><ele>435.0</ele><time>2026-04-17T11:49:09.615Z</time></trkpt><trkpt lat="42.6552367" lon="11.9843417"><ele>433.00000000000006</ele><time>2026-04-17T11:49:10.616Z</time></trkpt><trkpt lat="42.6551167" lon="11.9843317"><ele>431.00000000000006</ele><time>2026-04-17T11:49:11.615Z</time></trkpt><trkpt lat="42.6550133" lon="11.9843217"><ele>429.0</ele><time>2026-04-17T11:49:12.616Z</time></trkpt><trkpt lat="42.654925" lon="11.984315"><ele>427.0</ele><time>2026-04-17T11:49:13.615Z</time></trkpt><trkpt lat="42.6548417" lon="11.984305"><ele>427.00000000000006</ele><time>2026-04-17T11:49:14.616Z</time></trkpt><trkpt lat="42.6547617" lon="11.98431"><ele>427.0</ele><time>2026-04-17T11:49:15.615Z</time></trkpt><trkpt lat="42.6546917" lon="11.9843417"><ele>427.0</ele><time>2026-04-17T11:49:16.615Z</time></trkpt><trkpt lat="42.65464" lon="11.9843933"><ele>427.0</ele><time>2026-04-17T11:49:17.615Z</time></trkpt><trkpt lat="42.6545883" lon="11.9844767"><ele>427.00000000000006</ele><time>2026-04-17T11:49:18.616Z</time></trkpt><trkpt lat="42.6545317" lon="11.9845683"><ele>427.0</ele><time>2026-04-17T11:49:19.616Z</time></trkpt><trkpt lat="42.654455" lon="11.9846533"><ele>423.75</ele><time>2026-04-17T11:49:20.616Z</time></trkpt><trkpt lat="42.6543717" lon="11.984715"><ele>420.5</ele><time>2026-04-17T11:49:21.615Z</time></trkpt><trkpt lat="42.6542683" lon="11.984775"><ele>417.25</ele><time>2026-04-17T11:49:22.615Z</time></trkpt><trkpt lat="42.6541517" lon="11.98484"><ele>414.0</ele><time>2026-04-17T11:49:23.616Z</time></trkpt><trkpt lat="42.6540367" lon="11.9849083"><ele>414.0</ele><time>2026-04-17T11:49:24.616Z</time></trkpt><trkpt lat="42.6539217" lon="11.9849833"><ele>414.0</ele><time>2026-04-17T11:49:25.616Z</time></trkpt><trkpt lat="42.653805" lon="11.9850517"><ele>414.0</ele><time>2026-04-17T11:49:26.616Z</time></trkpt><trkpt lat="42.6536833" lon="11.9851067"><ele>414.0</ele><time>2026-04-17T11:49:27.616Z</time></trkpt><trkpt lat="42.6535633" lon="11.9851533"><ele>410.79999999999995</ele><time>2026-04-17T11:49:28.616Z</time></trkpt><trkpt lat="42.6534483" lon="11.9851917"><ele>407.59999999999997</ele><time>2026-04-17T11:49:29.616Z</time></trkpt><trkpt lat="42.6533433" lon="11.9852383"><ele>404.4</ele><time>2026-04-17T11:49:30.616Z</time></trkpt><trkpt lat="42.653245" lon="11.98529"><ele>401.2</ele><time>2026-04-17T11:49:31.615Z</time></trkpt><trkpt lat="42.6531467" lon="11.98536"><ele>398.0</ele><time>2026-04-17T11:49:32.616Z</time></trkpt><trkpt lat="42.653055" lon="11.9854267"><ele>397.99999999999994</ele><time>2026-04-17T11:49:33.616Z</time></trkpt><trkpt lat="42.6529683" lon="11.9854733"><ele>398.0</ele><time>2026-04-17T11:49:34.615Z</time></trkpt><trkpt lat="42.652875" lon="11.9855"><ele>398.0</ele><time>2026-04-17T11:49:35.616Z</time></trkpt><trkpt lat="42.6527933" lon="11.98552"><ele>398.0</ele><time>2026-04-17T11:49:36.615Z</time></trkpt><trkpt lat="42.6527217" lon="11.9855183"><ele>397.99999999999994</ele><time>2026-04-17T11:49:37.615Z</time></trkpt><trkpt lat="42.6526583" lon="11.9855017"><ele>398.0</ele><time>2026-04-17T11:49:38.616Z</time></trkpt><trkpt lat="42.6526" lon="11.9854467"><ele>397.4</ele><time>2026-04-17T11:49:39.616Z</time></trkpt><trkpt lat="42.6525417" lon="11.9853633"><ele>396.79999999999995</ele><time>2026-04-17T11:49:40.616Z</time></trkpt><trkpt lat="42.65248" lon="11.985245"><ele>396.2</ele><time>2026-04-17T11:49:41.616Z</time></trkpt><trkpt lat="42.6524317" lon="11.985125"><ele>395.6</ele><time>2026-04-17T11:49:42.616Z</time></trkpt><trkpt lat="42.652385" lon="11.985025"><ele>395.0</ele><time>2026-04-17T11:49:43.616Z</time></trkpt><trkpt lat="42.6523283" lon="11.9849267"><ele>396.16666666666663</ele><time>2026-04-17T11:49:44.616Z</time></trkpt><trkpt lat="42.6522717" lon="11.9848333"><ele>397.3333333333333</ele><time>2026-04-17T11:49:45.616Z</time></trkpt><trkpt lat="42.6522183" lon="11.9847317"><ele>398.5</ele><time>2026-04-17T11:49:46.616Z</time></trkpt><trkpt lat="42.652185" lon="11.984625"><ele>399.66666666666663</ele><time>2026-04-17T11:49:47.615Z</time></trkpt><trkpt lat="42.6521567" lon="11.984515"><ele>400.8333333333333</ele><time>2026-04-17T11:49:48.615Z</time></trkpt><trkpt lat="42.65213" lon="11.9844183"><ele>402.0</ele><time>2026-04-17T11:49:49.615Z</time></trkpt><trkpt lat="42.6521" lon="11.9843217"><ele>402.0</ele><time>2026-04-17T11:49:50.615Z</time></trkpt><trkpt lat="42.652035" lon="11.984215"><ele>402.0</ele><time>2026-04-17T11:49:52.615Z</time></trkpt><trkpt lat="42.6519367" lon="11.984185"><ele>402.0</ele><time>2026-04-17T11:49:54.616Z</time></trkpt><trkpt lat="42.65186" lon="11.9842083"><ele>402.0</ele><time>2026-04-17T11:49:56.616Z</time></trkpt><trkpt lat="42.6518067" lon="11.9842867"><ele>402.0</ele><time>2026-04-17T11:49:58.616Z</time></trkpt><trkpt lat="42.6517867" lon="11.984445"><ele>398.6</ele><time>2026-04-17T11:50:00.616Z</time></trkpt><trkpt lat="42.6517817" lon="11.9846067"><ele>395.20000000000005</ele><time>2026-04-17T11:50:02.616Z</time></trkpt><trkpt lat="42.651755" lon="11.9847183"><ele>391.8</ele><time>2026-04-17T11:50:04.616Z</time></trkpt><trkpt lat="42.6516733" lon="11.9847633"><ele>388.4</ele><time>2026-04-17T11:50:06.616Z</time></trkpt><trkpt lat="42.65156" lon="11.98469"><ele>385.0</ele><time>2026-04-17T11:50:08.616Z</time></trkpt><trkpt lat="42.6514933" lon="11.9846083"><ele>385.0</ele><time>2026-04-17T11:50:09.615Z</time></trkpt><trkpt lat="42.6514233" lon="11.9845217"><ele>385.0</ele><time>2026-04-17T11:50:10.616Z</time></trkpt><trkpt lat="42.6513483" lon="11.9844217"><ele>385.0</ele><time>2026-04-17T11:50:11.616Z</time></trkpt><trkpt lat="42.6512683" lon="11.9843267"><ele>385.0</ele><time>2026-04-17T11:50:12.616Z</time></trkpt><trkpt lat="42.651185" lon="11.9842533"><ele>385.0</ele><time>2026-04-17T11:50:13.615Z</time></trkpt><trkpt lat="42.651115" lon="11.9841767"><ele>383.00000000000006</ele><time>2026-04-17T11:50:14.616Z</time></trkpt><trkpt lat="42.6510533" lon="11.9841133"><ele>381.0</ele><time>2026-04-17T11:50:15.616Z</time></trkpt><trkpt lat="42.6509867" lon="11.9840733"><ele>379.0</ele><time>2026-04-17T11:50:16.616Z</time></trkpt><trkpt lat="42.6509167" lon="11.9840567"><ele>377.0</ele><time>2026-04-17T11:50:17.616Z</time></trkpt><trkpt lat="42.650835" lon="11.9840633"><ele>375.0</ele><time>2026-04-17T11:50:18.616Z</time></trkpt><trkpt lat="42.65075" lon="11.9841"><ele>373.0</ele><time>2026-04-17T11:50:19.616Z</time></trkpt><trkpt lat="42.65066" lon="11.98415"><ele>375.4</ele><time>2026-04-17T11:50:20.615Z</time></trkpt><trkpt lat="42.65058" lon="11.984215"><ele>377.79999999999995</ele><time>2026-04-17T11:50:21.616Z</time></trkpt><trkpt lat="42.6504983" lon="11.98429"><ele>380.2</ele><time>2026-04-17T11:50:22.616Z</time></trkpt><trkpt lat="42.6504283" lon="11.9843783"><ele>382.6</ele><time>2026-04-17T11:50:23.616Z</time></trkpt><trkpt lat="42.6503583" lon="11.984475"><ele>385.0</ele><time>2026-04-17T11:50:24.616Z</time></trkpt><trkpt lat="42.6502933" lon="11.9845617"><ele>385.00000000000006</ele><time>2026-04-17T11:50:25.615Z</time></trkpt><trkpt lat="42.6502383" lon="11.98463"><ele>385.0</ele><time>2026-04-17T11:50:26.616Z</time></trkpt><trkpt lat="42.6501783" lon="11.9847067"><ele>385.0</ele><time>2026-04-17T11:50:28.615Z</time></trkpt><trkpt lat="42.65014" lon="11.984775"><ele>385.0</ele><time>2026-04-17T11:50:31.615Z</time></trkpt><trkpt lat="42.650175" lon="11.9848583"><ele>385.00000000000006</ele><time>2026-04-17T11:50:36.616Z</time></trkpt><trkpt lat="42.6502517" lon="11.984805"><ele>385.0</ele><time>2026-04-17T11:50:38.616Z</time></trkpt><trkpt lat="42.6503083" lon="11.9847417"><ele>385.0</ele><time>2026-04-17T11:50:39.616Z</time></trkpt><trkpt lat="42.6503867" lon="11.984645"><ele>385.0</ele><time>2026-04-17T11:50:40.616Z</time></trkpt><trkpt lat="42.6504767" lon="11.9845317"><ele>385.0</ele><time>2026-04-17T11:50:41.616Z</time></trkpt><trkpt lat="42.65056" lon="11.9844333"><ele>385.0</ele><time>2026-04-17T11:50:42.616Z</time></trkpt><trkpt lat="42.6506367" lon="11.9843717"><ele>385.0</ele><time>2026-04-17T11:50:43.615Z</time></trkpt><trkpt lat="42.6507133" lon="11.9843333"><ele>385.00000000000006</ele><time>2026-04-17T11:50:44.616Z</time></trkpt><trkpt lat="42.6507967" lon="11.9843333"><ele>385.0</ele><time>2026-04-17T11:50:45.615Z</time></trkpt><trkpt lat="42.650885" lon="11.984365"><ele>385.0</ele><time>2026-04-17T11:50:46.615Z</time></trkpt><trkpt lat="42.650955" lon="11.9844267"><ele>385.0</ele><time>2026-04-17T11:50:47.616Z</time></trkpt><trkpt lat="42.6509983" lon="11.9845083"><ele>385.00000000000006</ele><time>2026-04-17T11:50:48.616Z</time></trkpt><trkpt lat="42.6510167" lon="11.9846067"><ele>385.0</ele><time>2026-04-17T11:50:49.616Z</time></trkpt><trkpt lat="42.6510067" lon="11.984715"><ele>385.0</ele><time>2026-04-17T11:50:50.616Z</time></trkpt><trkpt lat="42.650975" lon="11.9848333"><ele>385.0</ele><time>2026-04-17T11:50:51.616Z</time></trkpt><trkpt lat="42.6509133" lon="11.9849567"><ele>385.0</ele><time>2026-04-17T11:50:52.616Z</time></trkpt><trkpt lat="42.65083" lon="11.985075"><ele>385.0</ele><time>2026-04-17T11:50:53.616Z</time></trkpt><trkpt lat="42.650735" lon="11.9852"><ele>386.75</ele><time>2026-04-17T11:50:54.616Z</time></trkpt><trkpt lat="42.6506417" lon="11.9853317"><ele>388.5</ele><time>2026-04-17T11:50:55.616Z</time></trkpt><trkpt lat="42.6505517" lon="11.98545"><ele>390.25</ele><time>2026-04-17T11:50:56.616Z</time></trkpt><trkpt lat="42.6504617" lon="11.9855717"><ele>392.0</ele><time>2026-04-17T11:50:57.616Z</time></trkpt><trkpt lat="42.6503717" lon="11.9857033"><ele>391.5</ele><time>2026-04-17T11:50:58.616Z</time></trkpt><trkpt lat="42.65028" lon="11.9858283"><ele>391.0</ele><time>2026-04-17T11:50:59.616Z</time></trkpt><trkpt lat="42.650195" lon="11.9859417"><ele>390.5</ele><time>2026-04-17T11:51:00.616Z</time></trkpt><trkpt lat="42.650125" lon="11.9860533"><ele>390.0</ele><time>2026-04-17T11:51:01.616Z</time></trkpt><trkpt lat="42.6500733" lon="11.9861767"><ele>390.0</ele><time>2026-04-17T11:51:02.616Z</time></trkpt><trkpt lat="42.65005" lon="11.9862967"><ele>390.0</ele><time>2026-04-17T11:51:03.616Z</time></trkpt><trkpt lat="42.65005" lon="11.9864183"><ele>390.0</ele><time>2026-04-17T11:51:04.616Z</time></trkpt><trkpt lat="42.6500733" lon="11.9865433"><ele>390.0</ele><time>2026-04-17T11:51:05.615Z</time></trkpt><trkpt lat="42.65011" lon="11.986685"><ele>390.0</ele><time>2026-04-17T11:51:06.616Z</time></trkpt><trkpt lat="42.65016" lon="11.9868483"><ele>390.25</ele><time>2026-04-17T11:51:07.616Z</time></trkpt><trkpt lat="42.6502167" lon="11.98703"><ele>390.5</ele><time>2026-04-17T11:51:08.616Z</time></trkpt><trkpt lat="42.650275" lon="11.9872"><ele>390.75</ele><time>2026-04-17T11:51:09.616Z</time></trkpt><trkpt lat="42.650325" lon="11.987345"><ele>391.0</ele><time>2026-04-17T11:51:10.615Z</time></trkpt><trkpt lat="42.6503633" lon="11.98747"><ele>392.6</ele><time>2026-04-17T11:51:11.616Z</time></trkpt><trkpt lat="42.65038" lon="11.9875933"><ele>394.20000000000005</ele><time>2026-04-17T11:51:12.616Z</time></trkpt><trkpt lat="42.65037" lon="11.9877233"><ele>395.79999999999995</ele><time>2026-04-17T11:51:13.616Z</time></trkpt><trkpt lat="42.6503317" lon="11.98785"><ele>397.4</ele><time>2026-04-17T11:51:14.616Z</time></trkpt><trkpt lat="42.6502767" lon="11.987975"><ele>399.0</ele><time>2026-04-17T11:51:15.615Z</time></trkpt><trkpt lat="42.6502033" lon="11.9880967"><ele>399.0</ele><time>2026-04-17T11:51:16.616Z</time></trkpt><trkpt lat="42.650095" lon="11.9882333"><ele>399.0</ele><time>2026-04-17T11:51:17.615Z</time></trkpt><trkpt lat="42.6499867" lon="11.98837"><ele>399.0</ele><time>2026-04-17T11:51:18.616Z</time></trkpt><trkpt lat="42.6498833" lon="11.9885033"><ele>399.0</ele><time>2026-04-17T11:51:19.616Z</time></trkpt><trkpt lat="42.6497933" lon="11.9886333"><ele>398.5</ele><time>2026-04-17T11:51:20.616Z</time></trkpt><trkpt lat="42.6496917" lon="11.98877"><ele>398.0</ele><time>2026-04-17T11:51:21.616Z</time></trkpt><trkpt lat="42.6495933" lon="11.9889"><ele>397.5</ele><time>2026-04-17T11:51:22.616Z</time></trkpt><trkpt lat="42.6494883" lon="11.9890383"><ele>397.0</ele><time>2026-04-17T11:51:23.616Z</time></trkpt><trkpt lat="42.64939" lon="11.989175"><ele>399.75</ele><time>2026-04-17T11:51:24.616Z</time></trkpt><trkpt lat="42.64929" lon="11.9893133"><ele>402.5</ele><time>2026-04-17T11:51:25.615Z</time></trkpt><trkpt lat="42.6492017" lon="11.989445"><ele>405.25</ele><time>2026-04-17T11:51:26.616Z</time></trkpt><trkpt lat="42.6491167" lon="11.989575"><ele>408.0</ele><time>2026-04-17T11:51:27.616Z</time></trkpt><trkpt lat="42.6490517" lon="11.9897233"><ele>408.0</ele><time>2026-04-17T11:51:28.616Z</time></trkpt><trkpt lat="42.64899" lon="11.989875"><ele>408.0</ele><time>2026-04-17T11:51:29.616Z</time></trkpt><trkpt lat="42.6489383" lon="11.99002"><ele>408.0</ele><time>2026-04-17T11:51:30.616Z</time></trkpt><trkpt lat="42.6488917" lon="11.9901533"><ele>408.0</ele><time>2026-04-17T11:51:31.616Z</time></trkpt><trkpt lat="42.6488667" lon="11.990275"><ele>408.0</ele><time>2026-04-17T11:51:32.616Z</time></trkpt><trkpt lat="42.64886" lon="11.99039"><ele>407.59999999999997</ele><time>2026-04-17T11:51:33.616Z</time></trkpt><trkpt lat="42.6488767" lon="11.9905033"><ele>407.2</ele><time>2026-04-17T11:51:34.616Z</time></trkpt><trkpt lat="42.64892" lon="11.9906067"><ele>406.8</ele><time>2026-04-17T11:51:35.616Z</time></trkpt><trkpt lat="42.6489883" lon="11.9907"><ele>406.4</ele><time>2026-04-17T11:51:36.616Z</time></trkpt><trkpt lat="42.6490667" lon="11.99078"><ele>406.0</ele><time>2026-04-17T11:51:37.615Z</time></trkpt><trkpt lat="42.6491417" lon="11.9908783"><ele>405.75</ele><time>2026-04-17T11:51:38.616Z</time></trkpt><trkpt lat="42.6492117" lon="11.991"><ele>405.5</ele><time>2026-04-17T11:51:39.615Z</time></trkpt><trkpt lat="42.6492733" lon="11.9911467"><ele>405.25</ele><time>2026-04-17T11:51:40.616Z</time></trkpt><trkpt lat="42.64933" lon="11.9913033"><ele>405.0</ele><time>2026-04-17T11:51:41.616Z</time></trkpt><trkpt lat="42.6494" lon="11.9914483"><ele>408.5</ele><time>2026-04-17T11:51:42.616Z</time></trkpt><trkpt lat="42.6494967" lon="11.9915767"><ele>412.0</ele><time>2026-04-17T11:51:43.616Z</time></trkpt><trkpt lat="42.6496167" lon="11.9916967"><ele>415.5</ele><time>2026-04-17T11:51:44.616Z</time></trkpt><trkpt lat="42.6497383" lon="11.9918133"><ele>419.0</ele><time>2026-04-17T11:51:45.616Z</time></trkpt><trkpt lat="42.64985" lon="11.991915"><ele>419.2</ele><time>2026-04-17T11:51:46.616Z</time></trkpt><trkpt lat="42.64995" lon="11.9919933"><ele>419.4</ele><time>2026-04-17T11:51:47.616Z</time></trkpt><trkpt lat="42.6500483" lon="11.992055"><ele>419.6</ele><time>2026-04-17T11:51:48.616Z</time></trkpt><trkpt lat="42.65015" lon="11.9920883"><ele>419.8</ele><time>2026-04-17T11:51:49.616Z</time></trkpt><trkpt lat="42.6502517" lon="11.992095"><ele>420.0</ele><time>2026-04-17T11:51:50.615Z</time></trkpt><trkpt lat="42.65034" lon="11.9920783"><ele>421.0</ele><time>2026-04-17T11:51:51.616Z</time></trkpt><trkpt lat="42.6504333" lon="11.99206"><ele>422.0</ele><time>2026-04-17T11:51:52.615Z</time></trkpt><trkpt lat="42.650515" lon="11.992075"><ele>423.0</ele><time>2026-04-17T11:51:53.615Z</time></trkpt><trkpt lat="42.6505967" lon="11.992115"><ele>424.0</ele><time>2026-04-17T11:51:54.615Z</time></trkpt><trkpt lat="42.6506683" lon="11.9921833"><ele>425.0</ele><time>2026-04-17T11:51:55.616Z</time></trkpt><trkpt lat="42.650715" lon="11.992285"><ele>426.0</ele><time>2026-04-17T11:51:56.616Z</time></trkpt><trkpt lat="42.6507333" lon="11.9924"><ele>428.20000000000005</ele><time>2026-04-17T11:51:57.616Z</time></trkpt><trkpt lat="42.6507167" lon="11.9925217"><ele>430.40000000000003</ele><time>2026-04-17T11:51:58.616Z</time></trkpt><trkpt lat="42.650675" lon="11.99263"><ele>432.6</ele><time>2026-04-17T11:51:59.616Z</time></trkpt><trkpt lat="42.650605" lon="11.9927233"><ele>434.8</ele><time>2026-04-17T11:52:00.615Z</time></trkpt><trkpt lat="42.6505" lon="11.992785"><ele>437.0</ele><time>2026-04-17T11:52:01.615Z</time></trkpt><trkpt lat="42.65038" lon="11.9928083"><ele>435.75</ele><time>2026-04-17T11:52:02.616Z</time></trkpt><trkpt lat="42.6502367" lon="11.9928"><ele>434.5</ele><time>2026-04-17T11:52:03.616Z</time></trkpt><trkpt lat="42.6501033" lon="11.9927833"><ele>433.25</ele><time>2026-04-17T11:52:04.616Z</time></trkpt><trkpt lat="42.6499683" lon="11.9927683"><ele>432.0</ele><time>2026-04-17T11:52:05.616Z</time></trkpt><trkpt lat="42.64985" lon="11.9927733"><ele>432.0</ele><time>2026-04-17T11:52:06.616Z</time></trkpt><trkpt lat="42.649745" lon="11.9927817"><ele>432.00000000000006</ele><time>2026-04-17T11:52:07.615Z</time></trkpt><trkpt lat="42.6496483" lon="11.992815"><ele>432.00000000000006</ele><time>2026-04-17T11:52:08.616Z</time></trkpt><trkpt lat="42.6495617" lon="11.992875"><ele>432.0</ele><time>2026-04-17T11:52:09.616Z</time></trkpt><trkpt lat="42.64949" lon="11.992975"><ele>432.0</ele><time>2026-04-17T11:52:10.615Z</time></trkpt><trkpt lat="42.6494383" lon="11.9931017"><ele>431.25</ele><time>2026-04-17T11:52:11.616Z</time></trkpt><trkpt lat="42.6494033" lon="11.99325"><ele>430.5</ele><time>2026-04-17T11:52:12.615Z</time></trkpt><trkpt lat="42.64937" lon="11.993425"><ele>429.75</ele><time>2026-04-17T11:52:13.616Z</time></trkpt><trkpt lat="42.649335" lon="11.99363"><ele>429.0</ele><time>2026-04-17T11:52:14.616Z</time></trkpt><trkpt lat="42.6492933" lon="11.99382"><ele>429.0</ele><time>2026-04-17T11:52:15.615Z</time></trkpt><trkpt lat="42.6492483" lon="11.9939983"><ele>429.0</ele><time>2026-04-17T11:52:16.616Z</time></trkpt><trkpt lat="42.64921" lon="11.9941783"><ele>429.0</ele><time>2026-04-17T11:52:17.616Z</time></trkpt><trkpt lat="42.649165" lon="11.994355"><ele>429.0</ele><time>2026-04-17T11:52:18.616Z</time></trkpt><trkpt lat="42.649135" lon="11.9945267"><ele>430.0</ele><time>2026-04-17T11:52:19.616Z</time></trkpt><trkpt lat="42.649095" lon="11.9947033"><ele>431.0</ele><time>2026-04-17T11:52:20.616Z</time></trkpt><trkpt lat="42.6490483" lon="11.9948817"><ele>432.0</ele><time>2026-04-17T11:52:21.616Z</time></trkpt><trkpt lat="42.6490067" lon="11.9950567"><ele>433.0</ele><time>2026-04-17T11:52:22.616Z</time></trkpt><trkpt lat="42.648975" lon="11.99523"><ele>434.75</ele><time>2026-04-17T11:52:23.615Z</time></trkpt><trkpt lat="42.6489317" lon="11.99541"><ele>436.5</ele><time>2026-04-17T11:52:24.616Z</time></trkpt><trkpt lat="42.6488883" lon="11.995585"><ele>438.25</ele><time>2026-04-17T11:52:25.616Z</time></trkpt><trkpt lat="42.6488567" lon="11.9957383"><ele>440.0</ele><time>2026-04-17T11:52:26.616Z</time></trkpt><trkpt lat="42.6488367" lon="11.9958833"><ele>440.4</ele><time>2026-04-17T11:52:27.616Z</time></trkpt><trkpt lat="42.6488317" lon="11.99603"><ele>440.8</ele><time>2026-04-17T11:52:28.616Z</time></trkpt><trkpt lat="42.6488483" lon="11.99618"><ele>441.20000000000005</ele><time>2026-04-17T11:52:29.616Z</time></trkpt><trkpt lat="42.6488867" lon="11.99632"><ele>441.6</ele><time>2026-04-17T11:52:30.616Z</time></trkpt><trkpt lat="42.6489533" lon="11.9964517"><ele>442.0</ele><time>2026-04-17T11:52:31.616Z</time></trkpt><trkpt lat="42.6490317" lon="11.996585"><ele>443.0</ele><time>2026-04-17T11:52:32.615Z</time></trkpt><trkpt lat="42.6490933" lon="11.9967333"><ele>444.0</ele><time>2026-04-17T11:52:33.616Z</time></trkpt><trkpt lat="42.6491533" lon="11.9968783"><ele>445.0</ele><time>2026-04-17T11:52:34.616Z</time></trkpt><trkpt lat="42.6491867" lon="11.99703"><ele>446.0</ele><time>2026-04-17T11:52:35.616Z</time></trkpt><trkpt lat="42.6492167" lon="11.99718"><ele>446.0</ele><time>2026-04-17T11:52:36.616Z</time></trkpt><trkpt lat="42.6492433" lon="11.9973317"><ele>446.0</ele><time>2026-04-17T11:52:37.616Z</time></trkpt><trkpt lat="42.649265" lon="11.997485"><ele>446.0</ele><time>2026-04-17T11:52:38.616Z</time></trkpt><trkpt lat="42.649275" lon="11.9976317"><ele>446.0</ele><time>2026-04-17T11:52:39.615Z</time></trkpt><trkpt lat="42.6492767" lon="11.9977667"><ele>446.0</ele><time>2026-04-17T11:52:40.615Z</time></trkpt><trkpt lat="42.6492583" lon="11.9979"><ele>448.20000000000005</ele><time>2026-04-17T11:52:41.616Z</time></trkpt><trkpt lat="42.6492133" lon="11.9980283"><ele>450.40000000000003</ele><time>2026-04-17T11:52:42.616Z</time></trkpt><trkpt lat="42.64915" lon="11.9981367"><ele>452.6</ele><time>2026-04-17T11:52:43.615Z</time></trkpt><trkpt lat="42.6490633" lon="11.9982283"><ele>454.8</ele><time>2026-04-17T11:52:44.615Z</time></trkpt><trkpt lat="42.64897" lon="11.998275"><ele>457.0</ele><time>2026-04-17T11:52:45.615Z</time></trkpt><trkpt lat="42.648855" lon="11.9982783"><ele>457.0</ele><time>2026-04-17T11:52:46.616Z</time></trkpt><trkpt lat="42.6487233" lon="11.99825"><ele>457.0</ele><time>2026-04-17T11:52:47.616Z</time></trkpt><trkpt lat="42.648575" lon="11.9982"><ele>457.0</ele><time>2026-04-17T11:52:48.615Z</time></trkpt><trkpt lat="42.64842" lon="11.99813"><ele>457.0</ele><time>2026-04-17T11:52:49.616Z</time></trkpt><trkpt lat="42.6482617" lon="11.9980617"><ele>457.0</ele><time>2026-04-17T11:52:50.615Z</time></trkpt><trkpt lat="42.6481133" lon="11.9980067"><ele>457.0</ele><time>2026-04-17T11:52:51.616Z</time></trkpt><trkpt lat="42.6479817" lon="11.9979633"><ele>457.0</ele><time>2026-04-17T11:52:52.615Z</time></trkpt><trkpt lat="42.6478583" lon="11.997935"><ele>457.0</ele><time>2026-04-17T11:52:53.616Z</time></trkpt><trkpt lat="42.6477367" lon="11.9979417"><ele>456.75</ele><time>2026-04-17T11:52:54.616Z</time></trkpt><trkpt lat="42.64762" lon="11.9979783"><ele>456.5</ele><time>2026-04-17T11:52:55.616Z</time></trkpt><trkpt lat="42.6475183" lon="11.9980317"><ele>456.25</ele><time>2026-04-17T11:52:56.616Z</time></trkpt><trkpt lat="42.6474217" lon="11.9981017"><ele>456.0</ele><time>2026-04-17T11:52:57.616Z</time></trkpt><trkpt lat="42.6473267" lon="11.9982067"><ele>457.0</ele><time>2026-04-17T11:52:58.616Z</time></trkpt><trkpt lat="42.6472333" lon="11.9983383"><ele>458.0</ele><time>2026-04-17T11:52:59.616Z</time></trkpt><trkpt lat="42.6471233" lon="11.9984767"><ele>459.0</ele><time>2026-04-17T11:53:00.616Z</time></trkpt><trkpt lat="42.6470183" lon="11.998625"><ele>460.0</ele><time>2026-04-17T11:53:01.616Z</time></trkpt><trkpt lat="42.6468967" lon="11.9987783"><ele>460.0</ele><time>2026-04-17T11:53:02.615Z</time></trkpt><trkpt lat="42.6467867" lon="11.9989167"><ele>460.0</ele><time>2026-04-17T11:53:03.615Z</time></trkpt><trkpt lat="42.6466867" lon="11.9990383"><ele>460.0</ele><time>2026-04-17T11:53:04.616Z</time></trkpt><trkpt lat="42.6466" lon="11.99915"><ele>460.0</ele><time>2026-04-17T11:53:05.615Z</time></trkpt><trkpt lat="42.6465333" lon="11.9992667"><ele>460.2</ele><time>2026-04-17T11:53:06.615Z</time></trkpt><trkpt lat="42.6464917" lon="11.999395"><ele>460.4</ele><time>2026-04-17T11:53:07.615Z</time></trkpt><trkpt lat="42.646475" lon="11.999535"><ele>460.6</ele><time>2026-04-17T11:53:08.616Z</time></trkpt><trkpt lat="42.6464783" lon="11.999675"><ele>460.8</ele><time>2026-04-17T11:53:09.616Z</time></trkpt><trkpt lat="42.646515" lon="11.99981"><ele>461.0</ele><time>2026-04-17T11:53:10.616Z</time></trkpt><trkpt lat="42.646585" lon="11.9999283"><ele>461.0</ele><time>2026-04-17T11:53:11.616Z</time></trkpt><trkpt lat="42.6466817" lon="12.0000283"><ele>461.0</ele><time>2026-04-17T11:53:12.616Z</time></trkpt><trkpt lat="42.6467917" lon="12.000105"><ele>461.0</ele><time>2026-04-17T11:53:13.616Z</time></trkpt><trkpt lat="42.6469083" lon="12.0001767"><ele>461.0</ele><time>2026-04-17T11:53:14.616Z</time></trkpt><trkpt lat="42.6470133" lon="12.0002567"><ele>463.4</ele><time>2026-04-17T11:53:15.616Z</time></trkpt><trkpt lat="42.6471" lon="12.000335"><ele>465.8</ele><time>2026-04-17T11:53:16.616Z</time></trkpt><trkpt lat="42.6471717" lon="12.00043"><ele>468.19999999999993</ele><time>2026-04-17T11:53:17.616Z</time></trkpt><trkpt lat="42.647225" lon="12.0005433"><ele>470.59999999999997</ele><time>2026-04-17T11:53:18.616Z</time></trkpt><trkpt lat="42.64725" lon="12.0006783"><ele>473.0</ele><time>2026-04-17T11:53:19.615Z</time></trkpt><trkpt lat="42.6472367" lon="12.00083"><ele>473.25</ele><time>2026-04-17T11:53:20.616Z</time></trkpt><trkpt lat="42.6471833" lon="12.0009867"><ele>473.5</ele><time>2026-04-17T11:53:21.616Z</time></trkpt><trkpt lat="42.647115" lon="12.0011483"><ele>473.75</ele><time>2026-04-17T11:53:22.616Z</time></trkpt><trkpt lat="42.6470333" lon="12.001335"><ele>474.0</ele><time>2026-04-17T11:53:23.616Z</time></trkpt><trkpt lat="42.6469533" lon="12.001525"><ele>471.25</ele><time>2026-04-17T11:53:24.616Z</time></trkpt><trkpt lat="42.64688" lon="12.0017"><ele>468.5</ele><time>2026-04-17T11:53:25.616Z</time></trkpt><trkpt lat="42.6468183" lon="12.0018617"><ele>465.75</ele><time>2026-04-17T11:53:26.616Z</time></trkpt><trkpt lat="42.6467683" lon="12.00201"><ele>463.0</ele><time>2026-04-17T11:53:27.616Z</time></trkpt><trkpt lat="42.646725" lon="12.0021617"><ele>463.0</ele><time>2026-04-17T11:53:28.616Z</time></trkpt><trkpt lat="42.6466917" lon="12.0023267"><ele>463.0</ele><time>2026-04-17T11:53:29.616Z</time></trkpt><trkpt lat="42.6466633" lon="12.0025033"><ele>463.0</ele><time>2026-04-17T11:53:30.616Z</time></trkpt><trkpt lat="42.64663" lon="12.00269"><ele>463.0</ele><time>2026-04-17T11:53:31.616Z</time></trkpt><trkpt lat="42.6466083" lon="12.0028867"><ele>465.25</ele><time>2026-04-17T11:53:32.616Z</time></trkpt><trkpt lat="42.6465983" lon="12.0030817"><ele>467.5</ele><time>2026-04-17T11:53:33.615Z</time></trkpt><trkpt lat="42.6465917" lon="12.0032817"><ele>469.75</ele><time>2026-04-17T11:53:34.616Z</time></trkpt><trkpt lat="42.646585" lon="12.0034867"><ele>472.0</ele><time>2026-04-17T11:53:35.616Z</time></trkpt><trkpt lat="42.6465883" lon="12.0036717"><ele>473.40000000000003</ele><time>2026-04-17T11:53:36.616Z</time></trkpt><trkpt lat="42.6465917" lon="12.0038383"><ele>474.80000000000007</ele><time>2026-04-17T11:53:37.616Z</time></trkpt><trkpt lat="42.6465833" lon="12.003995"><ele>476.2</ele><time>2026-04-17T11:53:38.616Z</time></trkpt><trkpt lat="42.6465717" lon="12.0041417"><ele>477.6</ele><time>2026-04-17T11:53:39.616Z</time></trkpt><trkpt lat="42.6465567" lon="12.00428"><ele>479.0</ele><time>2026-04-17T11:53:40.616Z</time></trkpt><trkpt lat="42.6465233" lon="12.0044167"><ele>481.0</ele><time>2026-04-17T11:53:41.616Z</time></trkpt><trkpt lat="42.64647" lon="12.00452"><ele>483.0</ele><time>2026-04-17T11:53:42.615Z</time></trkpt><trkpt lat="42.6463817" lon="12.0046033"><ele>485.0</ele><time>2026-04-17T11:53:43.616Z</time></trkpt><trkpt lat="42.6462767" lon="12.00468"><ele>487.0</ele><time>2026-04-17T11:53:44.616Z</time></trkpt><trkpt lat="42.6461567" lon="12.004765"><ele>483.6666666666667</ele><time>2026-04-17T11:53:45.615Z</time></trkpt><trkpt lat="42.6460317" lon="12.0048617"><ele>480.33333333333337</ele><time>2026-04-17T11:53:46.616Z</time></trkpt><trkpt lat="42.6459017" lon="12.0049667"><ele>477.0</ele><time>2026-04-17T11:53:47.616Z</time></trkpt><trkpt lat="42.6457633" lon="12.0050817"><ele>477.0</ele><time>2026-04-17T11:53:48.616Z</time></trkpt><trkpt lat="42.6456267" lon="12.0052067"><ele>477.0</ele><time>2026-04-17T11:53:49.616Z</time></trkpt><trkpt lat="42.6454983" lon="12.0053233"><ele>477.0</ele><time>2026-04-17T11:53:50.615Z</time></trkpt><trkpt lat="42.645365" lon="12.005445"><ele>478.0</ele><time>2026-04-17T11:53:51.615Z</time></trkpt><trkpt lat="42.6452467" lon="12.0055617"><ele>479.0</ele><time>2026-04-17T11:53:52.614Z</time></trkpt><trkpt lat="42.6451383" lon="12.0056567"><ele>480.0</ele><time>2026-04-17T11:53:53.614Z</time></trkpt><trkpt lat="42.6450383" lon="12.0057533"><ele>481.0</ele><time>2026-04-17T11:53:54.615Z</time></trkpt><trkpt lat="42.6449383" lon="12.0058467"><ele>481.0</ele><time>2026-04-17T11:53:55.614Z</time></trkpt><trkpt lat="42.644855" lon="12.0059583"><ele>481.0</ele><time>2026-04-17T11:53:56.615Z</time></trkpt><trkpt lat="42.6447767" lon="12.0060883"><ele>481.0</ele><time>2026-04-17T11:53:57.614Z</time></trkpt><trkpt lat="42.644705" lon="12.00623"><ele>481.0</ele><time>2026-04-17T11:53:58.614Z</time></trkpt><trkpt lat="42.6446483" lon="12.0063917"><ele>481.0</ele><time>2026-04-17T11:53:59.614Z</time></trkpt><trkpt lat="42.6445967" lon="12.0065533"><ele>481.0</ele><time>2026-04-17T11:54:00.614Z</time></trkpt><trkpt lat="42.6445633" lon="12.0067333"><ele>481.0</ele><time>2026-04-17T11:54:01.614Z</time></trkpt><trkpt lat="42.6445433" lon="12.0069183"><ele>481.0</ele><time>2026-04-17T11:54:02.614Z</time></trkpt><trkpt lat="42.6445183" lon="12.0071067"><ele>481.75</ele><time>2026-04-17T11:54:03.615Z</time></trkpt><trkpt lat="42.6444917" lon="12.0072883"><ele>482.5</ele><time>2026-04-17T11:54:04.615Z</time></trkpt><trkpt lat="42.6444717" lon="12.0074667"><ele>483.25</ele><time>2026-04-17T11:54:05.614Z</time></trkpt><trkpt lat="42.6444467" lon="12.007645"><ele>484.0</ele><time>2026-04-17T11:54:06.615Z</time></trkpt><trkpt lat="42.6444233" lon="12.0078217"><ele>484.0</ele><time>2026-04-17T11:54:07.615Z</time></trkpt><trkpt lat="42.64439" lon="12.0080033"><ele>484.0</ele><time>2026-04-17T11:54:08.614Z</time></trkpt><trkpt lat="42.6443617" lon="12.008185"><ele>484.0</ele><time>2026-04-17T11:54:09.615Z</time></trkpt><trkpt lat="42.6443367" lon="12.008365"><ele>484.0</ele><time>2026-04-17T11:54:10.615Z</time></trkpt><trkpt lat="42.644305" lon="12.0085467"><ele>484.5</ele><time>2026-04-17T11:54:11.615Z</time></trkpt><trkpt lat="42.6442817" lon="12.0087383"><ele>485.0</ele><time>2026-04-17T11:54:12.615Z</time></trkpt><trkpt lat="42.6442517" lon="12.008915"><ele>485.5</ele><time>2026-04-17T11:54:13.615Z</time></trkpt><trkpt lat="42.64423" lon="12.0090917"><ele>486.0</ele><time>2026-04-17T11:54:14.615Z</time></trkpt><trkpt lat="42.6442133" lon="12.0092683"><ele>487.25</ele><time>2026-04-17T11:54:15.615Z</time></trkpt><trkpt lat="42.6442067" lon="12.0094383"><ele>488.5</ele><time>2026-04-17T11:54:16.615Z</time></trkpt><trkpt lat="42.644205" lon="12.00961"><ele>489.75</ele><time>2026-04-17T11:54:17.614Z</time></trkpt><trkpt lat="42.6442283" lon="12.0097817"><ele>491.0</ele><time>2026-04-17T11:54:18.614Z</time></trkpt><trkpt lat="42.6442717" lon="12.00995"><ele>491.5</ele><time>2026-04-17T11:54:19.615Z</time></trkpt><trkpt lat="42.644335" lon="12.01011"><ele>492.0</ele><time>2026-04-17T11:54:20.615Z</time></trkpt><trkpt lat="42.644415" lon="12.01027"><ele>492.5</ele><time>2026-04-17T11:54:21.615Z</time></trkpt><trkpt lat="42.64451" lon="12.0104217"><ele>493.0</ele><time>2026-04-17T11:54:22.615Z</time></trkpt><trkpt lat="42.644615" lon="12.0105583"><ele>495.25</ele><time>2026-04-17T11:54:23.615Z</time></trkpt><trkpt lat="42.6447233" lon="12.0106917"><ele>497.5</ele><time>2026-04-17T11:54:24.615Z</time></trkpt><trkpt lat="42.644835" lon="12.0108083"><ele>499.75</ele><time>2026-04-17T11:54:25.615Z</time></trkpt><trkpt lat="42.6449317" lon="12.01092"><ele>502.0</ele><time>2026-04-17T11:54:26.615Z</time></trkpt><trkpt lat="42.6450167" lon="12.011035"><ele>502.0</ele><time>2026-04-17T11:54:27.615Z</time></trkpt><trkpt lat="42.6451083" lon="12.0111283"><ele>502.0</ele><time>2026-04-17T11:54:28.615Z</time></trkpt><trkpt lat="42.64521" lon="12.0112067"><ele>502.0</ele><time>2026-04-17T11:54:29.615Z</time></trkpt><trkpt lat="42.6453267" lon="12.01126"><ele>502.0</ele><time>2026-04-17T11:54:30.615Z</time></trkpt><trkpt lat="42.6454517" lon="12.0112833"><ele>504.25</ele><time>2026-04-17T11:54:31.615Z</time></trkpt><trkpt lat="42.645595" lon="12.0112883"><ele>506.5</ele><time>2026-04-17T11:54:32.615Z</time></trkpt><trkpt lat="42.6457333" lon="12.0112917"><ele>508.75</ele><time>2026-04-17T11:54:33.614Z</time></trkpt><trkpt lat="42.6458617" lon="12.0112833"><ele>511.0</ele><time>2026-04-17T11:54:34.615Z</time></trkpt><trkpt lat="42.6459867" lon="12.01128"><ele>511.0</ele><time>2026-04-17T11:54:35.615Z</time></trkpt><trkpt lat="42.6461083" lon="12.0113"><ele>511.0</ele><time>2026-04-17T11:54:36.614Z</time></trkpt><trkpt lat="42.646235" lon="12.01135"><ele>511.0</ele><time>2026-04-17T11:54:37.615Z</time></trkpt><trkpt lat="42.646345" lon="12.01143"><ele>511.0</ele><time>2026-04-17T11:54:38.615Z</time></trkpt><trkpt lat="42.6464483" lon="12.011545"><ele>509.75</ele><time>2026-04-17T11:54:39.615Z</time></trkpt><trkpt lat="42.64654" lon="12.0116717"><ele>508.5</ele><time>2026-04-17T11:54:40.615Z</time></trkpt><trkpt lat="42.6466167" lon="12.0118"><ele>507.25</ele><time>2026-04-17T11:54:41.615Z</time></trkpt><trkpt lat="42.64667" lon="12.0119267"><ele>506.0</ele><time>2026-04-17T11:54:42.614Z</time></trkpt><trkpt lat="42.6467233" lon="12.0120567"><ele>506.0</ele><time>2026-04-17T11:54:43.615Z</time></trkpt><trkpt lat="42.6467583" lon="12.0122117"><ele>506.0</ele><time>2026-04-17T11:54:44.614Z</time></trkpt><trkpt lat="42.6467883" lon="12.0123833"><ele>506.0</ele><time>2026-04-17T11:54:45.614Z</time></trkpt><trkpt lat="42.6468117" lon="12.0125783"><ele>506.0</ele><time>2026-04-17T11:54:46.614Z</time></trkpt><trkpt lat="42.6468283" lon="12.0127867"><ele>507.25</ele><time>2026-04-17T11:54:47.615Z</time></trkpt><trkpt lat="42.6468533" lon="12.012995"><ele>508.5</ele><time>2026-04-17T11:54:48.615Z</time></trkpt><trkpt lat="42.6468783" lon="12.0131967"><ele>509.75</ele><time>2026-04-17T11:54:49.614Z</time></trkpt><trkpt lat="42.6469033" lon="12.0133833"><ele>511.0</ele><time>2026-04-17T11:54:50.615Z</time></trkpt><trkpt lat="42.6469283" lon="12.01356"><ele>513.5</ele><time>2026-04-17T11:54:51.615Z</time></trkpt><trkpt lat="42.6469633" lon="12.013735"><ele>516.0</ele><time>2026-04-17T11:54:52.614Z</time></trkpt><trkpt lat="42.646995" lon="12.01391"><ele>518.5</ele><time>2026-04-17T11:54:53.615Z</time></trkpt><trkpt lat="42.64702" lon="12.014095"><ele>521.0</ele><time>2026-04-17T11:54:54.614Z</time></trkpt><trkpt lat="42.6470267" lon="12.014285"><ele>524.0</ele><time>2026-04-17T11:54:55.615Z</time></trkpt><trkpt lat="42.64702" lon="12.014485"><ele>527.0</ele><time>2026-04-17T11:54:56.614Z</time></trkpt><trkpt lat="42.6469983" lon="12.01469"><ele>530.0</ele><time>2026-04-17T11:54:57.615Z</time></trkpt><trkpt lat="42.6469683" lon="12.0148983"><ele>528.0</ele><time>2026-04-17T11:54:58.615Z</time></trkpt><trkpt lat="42.6469283" lon="12.0151033"><ele>526.0</ele><time>2026-04-17T11:54:59.615Z</time></trkpt><trkpt lat="42.6468783" lon="12.015295"><ele>524.0</ele><time>2026-04-17T11:55:00.615Z</time></trkpt><trkpt lat="42.6468033" lon="12.015485"><ele>524.0</ele><time>2026-04-17T11:55:01.615Z</time></trkpt><trkpt lat="42.64673" lon="12.01567"><ele>524.0</ele><time>2026-04-17T11:55:02.615Z</time></trkpt><trkpt lat="42.6466483" lon="12.0158517"><ele>524.0</ele><time>2026-04-17T11:55:03.614Z</time></trkpt><trkpt lat="42.646565" lon="12.01603"><ele>525.25</ele><time>2026-04-17T11:55:04.615Z</time></trkpt><trkpt lat="42.6464733" lon="12.0161867"><ele>526.5</ele><time>2026-04-17T11:55:05.614Z</time></trkpt><trkpt lat="42.6463717" lon="12.016315"><ele>527.75</ele><time>2026-04-17T11:55:06.615Z</time></trkpt><trkpt lat="42.6462567" lon="12.0164417"><ele>529.0</ele><time>2026-04-17T11:55:07.615Z</time></trkpt><trkpt lat="42.64613" lon="12.0165483"><ele>529.75</ele><time>2026-04-17T11:55:08.614Z</time></trkpt><trkpt lat="42.6460067" lon="12.0166417"><ele>530.5</ele><time>2026-04-17T11:55:09.615Z</time></trkpt><trkpt lat="42.6458867" lon="12.0167167"><ele>531.25</ele><time>2026-04-17T11:55:10.614Z</time></trkpt><trkpt lat="42.6457667" lon="12.0168033"><ele>532.0</ele><time>2026-04-17T11:55:11.615Z</time></trkpt><trkpt lat="42.6456517" lon="12.016895"><ele>532.0</ele><time>2026-04-17T11:55:12.614Z</time></trkpt><trkpt lat="42.645545" lon="12.0170067"><ele>532.0</ele><time>2026-04-17T11:55:13.615Z</time></trkpt><trkpt lat="42.6454533" lon="12.0171333"><ele>532.0</ele><time>2026-04-17T11:55:14.615Z</time></trkpt><trkpt lat="42.6453767" lon="12.0172817"><ele>532.0</ele><time>2026-04-17T11:55:15.615Z</time></trkpt><trkpt lat="42.64532" lon="12.01745"><ele>531.25</ele><time>2026-04-17T11:55:16.615Z</time></trkpt><trkpt lat="42.6452917" lon="12.01763"><ele>530.5</ele><time>2026-04-17T11:55:17.614Z</time></trkpt><trkpt lat="42.6452783" lon="12.0178217"><ele>529.75</ele><time>2026-04-17T11:55:18.614Z</time></trkpt><trkpt lat="42.64528" lon="12.0180267"><ele>529.0</ele><time>2026-04-17T11:55:19.614Z</time></trkpt><trkpt lat="42.64528" lon="12.0182333"><ele>530.5</ele><time>2026-04-17T11:55:20.614Z</time></trkpt><trkpt lat="42.6452833" lon="12.018435"><ele>532.0</ele><time>2026-04-17T11:55:21.614Z</time></trkpt><trkpt lat="42.6452867" lon="12.0186367"><ele>533.5</ele><time>2026-04-17T11:55:22.615Z</time></trkpt><trkpt lat="42.64529" lon="12.0188317"><ele>535.0</ele><time>2026-04-17T11:55:23.615Z</time></trkpt><trkpt lat="42.645285" lon="12.0190317"><ele>536.25</ele><time>2026-04-17T11:55:24.615Z</time></trkpt><trkpt lat="42.6452817" lon="12.01923"><ele>537.5</ele><time>2026-04-17T11:55:25.615Z</time></trkpt><trkpt lat="42.645285" lon="12.01943"><ele>538.75</ele><time>2026-04-17T11:55:26.614Z</time></trkpt><trkpt lat="42.64528" lon="12.0196283"><ele>540.0</ele><time>2026-04-17T11:55:27.614Z</time></trkpt><trkpt lat="42.64527" lon="12.01981"><ele>540.0</ele><time>2026-04-17T11:55:28.614Z</time></trkpt><trkpt lat="42.645255" lon="12.0199833"><ele>540.0</ele><time>2026-04-17T11:55:29.615Z</time></trkpt><trkpt lat="42.645225" lon="12.0201433"><ele>540.0</ele><time>2026-04-17T11:55:30.615Z</time></trkpt><trkpt lat="42.6451817" lon="12.0202917"><ele>540.0</ele><time>2026-04-17T11:55:31.615Z</time></trkpt><trkpt lat="42.6451217" lon="12.0204417"><ele>541.75</ele><time>2026-04-17T11:55:32.615Z</time></trkpt><trkpt lat="42.6450267" lon="12.020575"><ele>543.5</ele><time>2026-04-17T11:55:33.615Z</time></trkpt><trkpt lat="42.6449117" lon="12.0206933"><ele>545.25</ele><time>2026-04-17T11:55:34.615Z</time></trkpt><trkpt lat="42.6447833" lon="12.0207967"><ele>547.0</ele><time>2026-04-17T11:55:35.615Z</time></trkpt><trkpt lat="42.64466" lon="12.020885"><ele>548.0</ele><time>2026-04-17T11:55:36.614Z</time></trkpt><trkpt lat="42.644545" lon="12.0209783"><ele>549.0</ele><time>2026-04-17T11:55:37.615Z</time></trkpt><trkpt lat="42.6444383" lon="12.0210867"><ele>550.0</ele><time>2026-04-17T11:55:38.615Z</time></trkpt><trkpt lat="42.644335" lon="12.02122"><ele>551.0</ele><time>2026-04-17T11:55:39.615Z</time></trkpt><trkpt lat="42.6442383" lon="12.0213633"><ele>553.5</ele><time>2026-04-17T11:55:40.614Z</time></trkpt><trkpt lat="42.6441533" lon="12.0215183"><ele>556.0</ele><time>2026-04-17T11:55:41.614Z</time></trkpt><trkpt lat="42.64409" lon="12.021685"><ele>558.5</ele><time>2026-04-17T11:55:42.615Z</time></trkpt><trkpt lat="42.644035" lon="12.021865"><ele>561.0</ele><time>2026-04-17T11:55:43.615Z</time></trkpt><trkpt lat="42.644" lon="12.0220533"><ele>562.0</ele><time>2026-04-17T11:55:44.615Z</time></trkpt><trkpt lat="42.6439717" lon="12.0222517"><ele>563.0</ele><time>2026-04-17T11:55:45.614Z</time></trkpt><trkpt lat="42.64395" lon="12.0224633"><ele>564.0</ele><time>2026-04-17T11:55:46.614Z</time></trkpt><trkpt lat="42.643925" lon="12.0226817"><ele>565.0</ele><time>2026-04-17T11:55:47.614Z</time></trkpt><trkpt lat="42.643905" lon="12.0228983"><ele>566.0</ele><time>2026-04-17T11:55:48.615Z</time></trkpt><trkpt lat="42.6438883" lon="12.0231217"><ele>567.0</ele><time>2026-04-17T11:55:49.615Z</time></trkpt><trkpt lat="42.6438683" lon="12.02334"><ele>568.3333333333334</ele><time>2026-04-17T11:55:50.615Z</time></trkpt><trkpt lat="42.6438467" lon="12.0235583"><ele>569.6666666666667</ele><time>2026-04-17T11:55:51.614Z</time></trkpt><trkpt lat="42.64384" lon="12.0237717"><ele>571.0</ele><time>2026-04-17T11:55:52.615Z</time></trkpt><trkpt lat="42.6438233" lon="12.0239783"><ele>572.0</ele><time>2026-04-17T11:55:53.615Z</time></trkpt><trkpt lat="42.6438083" lon="12.024185"><ele>573.0</ele><time>2026-04-17T11:55:54.615Z</time></trkpt><trkpt lat="42.6437967" lon="12.02438"><ele>574.0</ele><time>2026-04-17T11:55:55.614Z</time></trkpt><trkpt lat="42.6437833" lon="12.0245817"><ele>575.0</ele><time>2026-04-17T11:55:56.615Z</time></trkpt><trkpt lat="42.6437683" lon="12.0247817"><ele>577.0</ele><time>2026-04-17T11:55:57.614Z</time></trkpt><trkpt lat="42.643755" lon="12.024985"><ele>579.0</ele><time>2026-04-17T11:55:58.614Z</time></trkpt><trkpt lat="42.643735" lon="12.0251867"><ele>581.0</ele><time>2026-04-17T11:55:59.615Z</time></trkpt><trkpt lat="42.6437167" lon="12.0253933"><ele>581.0</ele><time>2026-04-17T11:56:00.615Z</time></trkpt><trkpt lat="42.643695" lon="12.0255983"><ele>581.0</ele><time>2026-04-17T11:56:01.615Z</time></trkpt><trkpt lat="42.6436867" lon="12.0258067"><ele>581.0</ele><time>2026-04-17T11:56:02.614Z</time></trkpt><trkpt lat="42.6436767" lon="12.0260117"><ele>581.0</ele><time>2026-04-17T11:56:03.615Z</time></trkpt><trkpt lat="42.64366" lon="12.0262067"><ele>581.0</ele><time>2026-04-17T11:56:04.615Z</time></trkpt><trkpt lat="42.64364" lon="12.0264033"><ele>581.0</ele><time>2026-04-17T11:56:05.615Z</time></trkpt><trkpt lat="42.6436167" lon="12.0265967"><ele>581.0</ele><time>2026-04-17T11:56:06.615Z</time></trkpt><trkpt lat="42.643595" lon="12.0267867"><ele>581.75</ele><time>2026-04-17T11:56:07.615Z</time></trkpt><trkpt lat="42.64357" lon="12.02697"><ele>582.5</ele><time>2026-04-17T11:56:08.614Z</time></trkpt><trkpt lat="42.6435317" lon="12.0271633"><ele>583.25</ele><time>2026-04-17T11:56:09.615Z</time></trkpt><trkpt lat="42.6434967" lon="12.0273533"><ele>584.0</ele><time>2026-04-17T11:56:10.615Z</time></trkpt><trkpt lat="42.6434567" lon="12.027545"><ele>585.5</ele><time>2026-04-17T11:56:11.615Z</time></trkpt><trkpt lat="42.6434067" lon="12.0277333"><ele>587.0</ele><time>2026-04-17T11:56:12.615Z</time></trkpt><trkpt lat="42.6433517" lon="12.02792"><ele>588.5</ele><time>2026-04-17T11:56:13.615Z</time></trkpt><trkpt lat="42.6432917" lon="12.0281017"><ele>590.0</ele><time>2026-04-17T11:56:14.615Z</time></trkpt><trkpt lat="42.6432317" lon="12.028275"><ele>590.25</ele><time>2026-04-17T11:56:15.614Z</time></trkpt><trkpt lat="42.643175" lon="12.02845"><ele>590.5</ele><time>2026-04-17T11:56:16.615Z</time></trkpt><trkpt lat="42.6431183" lon="12.028635"><ele>590.75</ele><time>2026-04-17T11:56:17.615Z</time></trkpt><trkpt lat="42.6430583" lon="12.0288283"><ele>591.0</ele><time>2026-04-17T11:56:18.614Z</time></trkpt><trkpt lat="42.643" lon="12.0290183"><ele>590.25</ele><time>2026-04-17T11:56:19.615Z</time></trkpt><trkpt lat="42.6429433" lon="12.0292117"><ele>589.5</ele><time>2026-04-17T11:56:20.615Z</time></trkpt><trkpt lat="42.6428917" lon="12.029395"><ele>588.75</ele><time>2026-04-17T11:56:21.615Z</time></trkpt><trkpt lat="42.642845" lon="12.02957"><ele>588.0</ele><time>2026-04-17T11:56:22.614Z</time></trkpt><trkpt lat="42.642805" lon="12.0297483"><ele>588.5</ele><time>2026-04-17T11:56:23.614Z</time></trkpt><trkpt lat="42.6427817" lon="12.029915"><ele>589.0</ele><time>2026-04-17T11:56:24.614Z</time></trkpt><trkpt lat="42.6427667" lon="12.0300883"><ele>589.5</ele><time>2026-04-17T11:56:25.615Z</time></trkpt><trkpt lat="42.642775" lon="12.0302533"><ele>590.0</ele><time>2026-04-17T11:56:26.615Z</time></trkpt><trkpt lat="42.642815" lon="12.0304117"><ele>588.5</ele><time>2026-04-17T11:56:27.615Z</time></trkpt><trkpt lat="42.64287" lon="12.03058"><ele>587.0</ele><time>2026-04-17T11:56:28.615Z</time></trkpt><trkpt lat="42.6429417" lon="12.0307417"><ele>585.5</ele><time>2026-04-17T11:56:29.614Z</time></trkpt><trkpt lat="42.6430083" lon="12.0309117"><ele>584.0</ele><time>2026-04-17T11:56:30.615Z</time></trkpt><trkpt lat="42.64306" lon="12.031085"><ele>583.5</ele><time>2026-04-17T11:56:31.615Z</time></trkpt><trkpt lat="42.6431117" lon="12.0312617"><ele>583.0</ele><time>2026-04-17T11:56:32.615Z</time></trkpt><trkpt lat="42.6431617" lon="12.0314433"><ele>582.5</ele><time>2026-04-17T11:56:33.614Z</time></trkpt><trkpt lat="42.6432" lon="12.0316417"><ele>582.0</ele><time>2026-04-17T11:56:34.614Z</time></trkpt><trkpt lat="42.6432317" lon="12.0318317"><ele>581.75</ele><time>2026-04-17T11:56:35.614Z</time></trkpt><trkpt lat="42.6432583" lon="12.0320183"><ele>581.5</ele><time>2026-04-17T11:56:36.615Z</time></trkpt><trkpt lat="42.6432867" lon="12.0321967"><ele>581.25</ele><time>2026-04-17T11:56:37.614Z</time></trkpt><trkpt lat="42.6433033" lon="12.03237"><ele>581.0</ele><time>2026-04-17T11:56:38.615Z</time></trkpt><trkpt lat="42.6433283" lon="12.0325317"><ele>580.6</ele><time>2026-04-17T11:56:39.615Z</time></trkpt><trkpt lat="42.6433567" lon="12.032695"><ele>580.2</ele><time>2026-04-17T11:56:40.615Z</time></trkpt><trkpt lat="42.64338" lon="12.032845"><ele>579.8</ele><time>2026-04-17T11:56:41.615Z</time></trkpt><trkpt lat="42.6433967" lon="12.0329883"><ele>579.4</ele><time>2026-04-17T11:56:42.614Z</time></trkpt><trkpt lat="42.643415" lon="12.0331117"><ele>579.0</ele><time>2026-04-17T11:56:43.615Z</time></trkpt><trkpt lat="42.6434233" lon="12.033235"><ele>578.3333333333334</ele><time>2026-04-17T11:56:44.615Z</time></trkpt><trkpt lat="42.6434333" lon="12.03335"><ele>577.6666666666666</ele><time>2026-04-17T11:56:45.615Z</time></trkpt><trkpt lat="42.6434417" lon="12.0334617"><ele>577.0</ele><time>2026-04-17T11:56:46.615Z</time></trkpt><trkpt lat="42.6434483" lon="12.0335667"><ele>576.3333333333333</ele><time>2026-04-17T11:56:47.615Z</time></trkpt><trkpt lat="42.6434483" lon="12.0336583"><ele>575.6666666666666</ele><time>2026-04-17T11:56:48.615Z</time></trkpt><trkpt lat="42.6434683" lon="12.0338083"><ele>575.0</ele><time>2026-04-17T11:56:50.615Z</time></trkpt><trkpt lat="42.6434733" lon="12.033925"><ele>575.0</ele><time>2026-04-17T11:56:52.615Z</time></trkpt><trkpt lat="42.6434833" lon="12.034015"><ele>575.0</ele><time>2026-04-17T11:56:54.615Z</time></trkpt><trkpt lat="42.643505" lon="12.0341233"><ele>575.0</ele><time>2026-04-17T11:56:56.614Z</time></trkpt><trkpt lat="42.6435183" lon="12.034215"><ele>575.0</ele><time>2026-04-17T11:56:57.614Z</time></trkpt><trkpt lat="42.6435383" lon="12.0343267"><ele>575.0</ele><time>2026-04-17T11:56:58.615Z</time></trkpt><trkpt lat="42.643565" lon="12.034455"><ele>575.0</ele><time>2026-04-17T11:56:59.615Z</time></trkpt><trkpt lat="42.6435983" lon="12.0345983"><ele>574.25</ele><time>2026-04-17T11:57:00.614Z</time></trkpt><trkpt lat="42.6436167" lon="12.0347433"><ele>573.5</ele><time>2026-04-17T11:57:01.615Z</time></trkpt><trkpt lat="42.643635" lon="12.0348933"><ele>572.75</ele><time>2026-04-17T11:57:02.615Z</time></trkpt><trkpt lat="42.64364" lon="12.03506"><ele>572.0</ele><time>2026-04-17T11:57:03.615Z</time></trkpt><trkpt lat="42.643635" lon="12.0352333"><ele>571.75</ele><time>2026-04-17T11:57:04.615Z</time></trkpt><trkpt lat="42.643615" lon="12.035405"><ele>571.5</ele><time>2026-04-17T11:57:05.615Z</time></trkpt><trkpt lat="42.6435883" lon="12.0355733"><ele>571.25</ele><time>2026-04-17T11:57:06.615Z</time></trkpt><trkpt lat="42.6435517" lon="12.0357433"><ele>571.0</ele><time>2026-04-17T11:57:07.615Z</time></trkpt><trkpt lat="42.6435033" lon="12.0359217"><ele>571.0</ele><time>2026-04-17T11:57:08.615Z</time></trkpt><trkpt lat="42.6434583" lon="12.03611"><ele>571.0</ele><time>2026-04-17T11:57:09.614Z</time></trkpt><trkpt lat="42.6434067" lon="12.0363033"><ele>571.0</ele><time>2026-04-17T11:57:10.614Z</time></trkpt><trkpt lat="42.64335" lon="12.0364983"><ele>572.0</ele><time>2026-04-17T11:57:11.614Z</time></trkpt><trkpt lat="42.643295" lon="12.0366983"><ele>573.0</ele><time>2026-04-17T11:57:12.615Z</time></trkpt><trkpt lat="42.6432433" lon="12.0368967"><ele>574.0</ele><time>2026-04-17T11:57:13.615Z</time></trkpt><trkpt lat="42.6431983" lon="12.0370817"><ele>574.0</ele><time>2026-04-17T11:57:14.615Z</time></trkpt><trkpt lat="42.6431567" lon="12.0372717"><ele>574.0</ele><time>2026-04-17T11:57:15.615Z</time></trkpt><trkpt lat="42.643105" lon="12.0374583"><ele>574.0</ele><time>2026-04-17T11:57:16.614Z</time></trkpt><trkpt lat="42.6430467" lon="12.0376433"><ele>574.0</ele><time>2026-04-17T11:57:17.615Z</time></trkpt><trkpt lat="42.642975" lon="12.0378283"><ele>575.0</ele><time>2026-04-17T11:57:18.615Z</time></trkpt><trkpt lat="42.6429017" lon="12.0380067"><ele>576.0</ele><time>2026-04-17T11:57:19.614Z</time></trkpt><trkpt lat="42.64283" lon="12.0381933"><ele>577.0</ele><time>2026-04-17T11:57:20.614Z</time></trkpt><trkpt lat="42.642755" lon="12.03838"><ele>575.5</ele><time>2026-04-17T11:57:21.615Z</time></trkpt><trkpt lat="42.6426783" lon="12.0385583"><ele>574.0</ele><time>2026-04-17T11:57:22.615Z</time></trkpt><trkpt lat="42.6426033" lon="12.038735"><ele>572.5</ele><time>2026-04-17T11:57:23.614Z</time></trkpt><trkpt lat="42.6425367" lon="12.0389117"><ele>571.0</ele><time>2026-04-17T11:57:24.615Z</time></trkpt><trkpt lat="42.6424783" lon="12.0390983"><ele>570.6666666666667</ele><time>2026-04-17T11:57:25.615Z</time></trkpt><trkpt lat="42.6424283" lon="12.0392883"><ele>570.3333333333334</ele><time>2026-04-17T11:57:26.615Z</time></trkpt><trkpt lat="42.642385" lon="12.0394867"><ele>570.0</ele><time>2026-04-17T11:57:27.614Z</time></trkpt><trkpt lat="42.6423517" lon="12.039685"><ele>570.0</ele><time>2026-04-17T11:57:28.614Z</time></trkpt><trkpt lat="42.6423317" lon="12.0398817"><ele>570.0</ele><time>2026-04-17T11:57:29.614Z</time></trkpt><trkpt lat="42.6423183" lon="12.0400817"><ele>570.0</ele><time>2026-04-17T11:57:30.615Z</time></trkpt><trkpt lat="42.6423117" lon="12.0402833"><ele>570.0</ele><time>2026-04-17T11:57:31.615Z</time></trkpt><trkpt lat="42.6423083" lon="12.04049"><ele>570.0</ele><time>2026-04-17T11:57:32.615Z</time></trkpt><trkpt lat="42.6423067" lon="12.0407"><ele>570.0</ele><time>2026-04-17T11:57:33.615Z</time></trkpt><trkpt lat="42.64231" lon="12.040915"><ele>570.0</ele><time>2026-04-17T11:57:34.614Z</time></trkpt><trkpt lat="42.6423117" lon="12.0411183"><ele>570.3333333333334</ele><time>2026-04-17T11:57:35.615Z</time></trkpt><trkpt lat="42.6423133" lon="12.0413283"><ele>570.6666666666667</ele><time>2026-04-17T11:57:36.615Z</time></trkpt><trkpt lat="42.6423083" lon="12.041545"><ele>571.0</ele><time>2026-04-17T11:57:37.615Z</time></trkpt><trkpt lat="42.64231" lon="12.0417717"><ele>570.0</ele><time>2026-04-17T11:57:38.615Z</time></trkpt><trkpt lat="42.6423117" lon="12.0420033"><ele>569.0</ele><time>2026-04-17T11:57:39.614Z</time></trkpt><trkpt lat="42.6423117" lon="12.042235"><ele>568.0</ele><time>2026-04-17T11:57:40.615Z</time></trkpt><trkpt lat="42.6423117" lon="12.0424567"><ele>567.0</ele><time>2026-04-17T11:57:41.614Z</time></trkpt><trkpt lat="42.6423133" lon="12.0426783"><ele>566.0</ele><time>2026-04-17T11:57:42.614Z</time></trkpt><trkpt lat="42.6423117" lon="12.0428983"><ele>565.0</ele><time>2026-04-17T11:57:43.614Z</time></trkpt><trkpt lat="42.6423117" lon="12.0431117"><ele>564.0</ele><time>2026-04-17T11:57:44.615Z</time></trkpt><trkpt lat="42.6423117" lon="12.0433183"><ele>563.0</ele><time>2026-04-17T11:57:45.614Z</time></trkpt><trkpt lat="42.6423067" lon="12.043525"><ele>562.0</ele><time>2026-04-17T11:57:46.615Z</time></trkpt><trkpt lat="42.6423067" lon="12.0437233"><ele>562.0</ele><time>2026-04-17T11:57:47.615Z</time></trkpt><trkpt lat="42.6423067" lon="12.04392"><ele>562.0</ele><time>2026-04-17T11:57:48.615Z</time></trkpt><trkpt lat="42.6423017" lon="12.04412"><ele>562.0</ele><time>2026-04-17T11:57:49.615Z</time></trkpt><trkpt lat="42.6422983" lon="12.0443217"><ele>562.0</ele><time>2026-04-17T11:57:50.614Z</time></trkpt><trkpt lat="42.6422967" lon="12.0445167"><ele>561.0</ele><time>2026-04-17T11:57:51.615Z</time></trkpt><trkpt lat="42.642295" lon="12.044715"><ele>560.0</ele><time>2026-04-17T11:57:52.615Z</time></trkpt><trkpt lat="42.6422933" lon="12.0449167"><ele>559.0</ele><time>2026-04-17T11:57:53.615Z</time></trkpt><trkpt lat="42.6422967" lon="12.0451233"><ele>558.0</ele><time>2026-04-17T11:57:54.615Z</time></trkpt><trkpt lat="42.6422967" lon="12.0453317"><ele>556.6666666666666</ele><time>2026-04-17T11:57:55.614Z</time></trkpt><trkpt lat="42.6422983" lon="12.04554"><ele>555.3333333333333</ele><time>2026-04-17T11:57:56.615Z</time></trkpt><trkpt lat="42.6422917" lon="12.0457467"><ele>554.0</ele><time>2026-04-17T11:57:57.614Z</time></trkpt><trkpt lat="42.6422917" lon="12.0459583"><ele>553.0</ele><time>2026-04-17T11:57:58.614Z</time></trkpt><trkpt lat="42.642295" lon="12.0461717"><ele>552.0</ele><time>2026-04-17T11:57:59.614Z</time></trkpt><trkpt lat="42.6423033" lon="12.0463867"><ele>551.0</ele><time>2026-04-17T11:58:00.614Z</time></trkpt><trkpt lat="42.642315" lon="12.0465983"><ele>550.0</ele><time>2026-04-17T11:58:01.615Z</time></trkpt><trkpt lat="42.6423317" lon="12.04681"><ele>549.0</ele><time>2026-04-17T11:58:02.615Z</time></trkpt><trkpt lat="42.6423533" lon="12.047015"><ele>548.0</ele><time>2026-04-17T11:58:03.615Z</time></trkpt><trkpt lat="42.64237" lon="12.0472183"><ele>548.0</ele><time>2026-04-17T11:58:04.615Z</time></trkpt><trkpt lat="42.6423767" lon="12.0474083"><ele>548.0</ele><time>2026-04-17T11:58:05.615Z</time></trkpt><trkpt lat="42.6423867" lon="12.0476033"><ele>548.0</ele><time>2026-04-17T11:58:06.614Z</time></trkpt><trkpt lat="42.6423983" lon="12.047805"><ele>548.0</ele><time>2026-04-17T11:58:07.615Z</time></trkpt><trkpt lat="42.6424133" lon="12.0480067"><ele>547.6666666666666</ele><time>2026-04-17T11:58:08.615Z</time></trkpt><trkpt lat="42.64242" lon="12.0482133"><ele>547.3333333333334</ele><time>2026-04-17T11:58:09.615Z</time></trkpt><trkpt lat="42.6424217" lon="12.0484267"><ele>547.0</ele><time>2026-04-17T11:58:10.614Z</time></trkpt><trkpt lat="42.6424283" lon="12.0486533"><ele>544.6666666666667</ele><time>2026-04-17T11:58:11.615Z</time></trkpt><trkpt lat="42.642435" lon="12.0488833"><ele>542.3333333333334</ele><time>2026-04-17T11:58:12.615Z</time></trkpt><trkpt lat="42.6424383" lon="12.04912"><ele>540.0</ele><time>2026-04-17T11:58:13.615Z</time></trkpt><trkpt lat="42.6424467" lon="12.0493567"><ele>538.3333333333334</ele><time>2026-04-17T11:58:14.615Z</time></trkpt><trkpt lat="42.64245" lon="12.0495917"><ele>536.6666666666667</ele><time>2026-04-17T11:58:15.614Z</time></trkpt><trkpt lat="42.6424533" lon="12.0498233"><ele>535.0</ele><time>2026-04-17T11:58:16.615Z</time></trkpt><trkpt lat="42.6424533" lon="12.050055"><ele>533.6666666666667</ele><time>2026-04-17T11:58:17.615Z</time></trkpt><trkpt lat="42.6424567" lon="12.0502833"><ele>532.3333333333334</ele><time>2026-04-17T11:58:18.615Z</time></trkpt><trkpt lat="42.6424633" lon="12.0505067"><ele>531.0</ele><time>2026-04-17T11:58:19.615Z</time></trkpt><trkpt lat="42.6424733" lon="12.0507367"><ele>530.6666666666666</ele><time>2026-04-17T11:58:20.615Z</time></trkpt><trkpt lat="42.6424817" lon="12.050965"><ele>530.3333333333333</ele><time>2026-04-17T11:58:21.615Z</time></trkpt><trkpt lat="42.642485" lon="12.0511933"><ele>530.0</ele><time>2026-04-17T11:58:22.615Z</time></trkpt><trkpt lat="42.64249" lon="12.0514133"><ele>530.0</ele><time>2026-04-17T11:58:23.614Z</time></trkpt><trkpt lat="42.6424933" lon="12.05164"><ele>530.0</ele><time>2026-04-17T11:58:24.615Z</time></trkpt><trkpt lat="42.6424933" lon="12.051855"><ele>530.0</ele><time>2026-04-17T11:58:25.615Z</time></trkpt><trkpt lat="42.6424933" lon="12.0520717"><ele>530.0</ele><time>2026-04-17T11:58:26.615Z</time></trkpt><trkpt lat="42.6425" lon="12.052285"><ele>530.0</ele><time>2026-04-17T11:58:27.615Z</time></trkpt><trkpt lat="42.6424983" lon="12.0525017"><ele>530.0</ele><time>2026-04-17T11:58:28.614Z</time></trkpt><trkpt lat="42.6425017" lon="12.0527133"><ele>530.0</ele><time>2026-04-17T11:58:29.614Z</time></trkpt><trkpt lat="42.64251" lon="12.0529283"><ele>530.0</ele><time>2026-04-17T11:58:30.614Z</time></trkpt><trkpt lat="42.6425167" lon="12.0531483"><ele>530.0</ele><time>2026-04-17T11:58:31.614Z</time></trkpt><trkpt lat="42.6425217" lon="12.0533867"><ele>530.0</ele><time>2026-04-17T11:58:32.615Z</time></trkpt><trkpt lat="42.642535" lon="12.0536283"><ele>530.0</ele><time>2026-04-17T11:58:33.615Z</time></trkpt><trkpt lat="42.6425467" lon="12.0538617"><ele>530.0</ele><time>2026-04-17T11:58:34.614Z</time></trkpt><trkpt lat="42.6425583" lon="12.0540867"><ele>529.6666666666666</ele><time>2026-04-17T11:58:35.615Z</time></trkpt><trkpt lat="42.642585" lon="12.054315"><ele>529.3333333333334</ele><time>2026-04-17T11:58:36.615Z</time></trkpt><trkpt lat="42.6426083" lon="12.0545367"><ele>529.0</ele><time>2026-04-17T11:58:37.615Z</time></trkpt><trkpt lat="42.6426367" lon="12.0547617"><ele>529.0</ele><time>2026-04-17T11:58:38.614Z</time></trkpt><trkpt lat="42.6426733" lon="12.0549783"><ele>529.0</ele><time>2026-04-17T11:58:39.615Z</time></trkpt><trkpt lat="42.6427133" lon="12.0552017"><ele>529.0</ele><time>2026-04-17T11:58:40.615Z</time></trkpt><trkpt lat="42.6427417" lon="12.0554267"><ele>529.0</ele><time>2026-04-17T11:58:41.615Z</time></trkpt><trkpt lat="42.6427783" lon="12.05565"><ele>529.0</ele><time>2026-04-17T11:58:42.615Z</time></trkpt><trkpt lat="42.6428067" lon="12.0558667"><ele>529.0</ele><time>2026-04-17T11:58:43.615Z</time></trkpt><trkpt lat="42.6428333" lon="12.0560767"><ele>528.3333333333334</ele><time>2026-04-17T11:58:44.615Z</time></trkpt><trkpt lat="42.6428583" lon="12.0562817"><ele>527.6666666666666</ele><time>2026-04-17T11:58:45.614Z</time></trkpt><trkpt lat="42.6428883" lon="12.0564883"><ele>527.0</ele><time>2026-04-17T11:58:46.615Z</time></trkpt><trkpt lat="42.6429233" lon="12.0567"><ele>527.0</ele><time>2026-04-17T11:58:47.614Z</time></trkpt><trkpt lat="42.6429533" lon="12.0569133"><ele>527.0</ele><time>2026-04-17T11:58:48.614Z</time></trkpt><trkpt lat="42.6429767" lon="12.0571283"><ele>527.0</ele><time>2026-04-17T11:58:49.615Z</time></trkpt><trkpt lat="42.6429983" lon="12.0573483"><ele>527.6666666666666</ele><time>2026-04-17T11:58:50.614Z</time></trkpt><trkpt lat="42.6430267" lon="12.0575683"><ele>528.3333333333334</ele><time>2026-04-17T11:58:51.615Z</time></trkpt><trkpt lat="42.6430567" lon="12.057795"><ele>529.0</ele><time>2026-04-17T11:58:52.615Z</time></trkpt><trkpt lat="42.643085" lon="12.058025"><ele>529.0</ele><time>2026-04-17T11:58:53.615Z</time></trkpt><trkpt lat="42.6431167" lon="12.0582417"><ele>529.0</ele><time>2026-04-17T11:58:54.615Z</time></trkpt><trkpt lat="42.6431483" lon="12.058465"><ele>529.0</ele><time>2026-04-17T11:58:55.615Z</time></trkpt><trkpt lat="42.643185" lon="12.05868"><ele>530.3333333333334</ele><time>2026-04-17T11:58:56.614Z</time></trkpt><trkpt lat="42.6432183" lon="12.0589017"><ele>531.6666666666666</ele><time>2026-04-17T11:58:57.615Z</time></trkpt><trkpt lat="42.643245" lon="12.0591267"><ele>533.0</ele><time>2026-04-17T11:58:58.614Z</time></trkpt><trkpt lat="42.6432767" lon="12.0593517"><ele>533.6666666666666</ele><time>2026-04-17T11:58:59.615Z</time></trkpt><trkpt lat="42.6433117" lon="12.0595717"><ele>534.3333333333334</ele><time>2026-04-17T11:59:00.615Z</time></trkpt><trkpt lat="42.6433367" lon="12.0597867"><ele>535.0</ele><time>2026-04-17T11:59:01.615Z</time></trkpt><trkpt lat="42.643365" lon="12.0600083"><ele>535.0</ele><time>2026-04-17T11:59:02.615Z</time></trkpt><trkpt lat="42.6433967" lon="12.0602367"><ele>535.0</ele><time>2026-04-17T11:59:03.615Z</time></trkpt><trkpt lat="42.6434283" lon="12.0604533"><ele>535.0</ele><time>2026-04-17T11:59:04.615Z</time></trkpt><trkpt lat="42.6434533" lon="12.06067"><ele>534.3333333333334</ele><time>2026-04-17T11:59:05.614Z</time></trkpt><trkpt lat="42.643465" lon="12.0608917"><ele>533.6666666666666</ele><time>2026-04-17T11:59:06.615Z</time></trkpt><trkpt lat="42.643475" lon="12.061115"><ele>533.0</ele><time>2026-04-17T11:59:07.615Z</time></trkpt><trkpt lat="42.6434717" lon="12.0613367"><ele>533.0</ele><time>2026-04-17T11:59:08.614Z</time></trkpt><trkpt lat="42.643465" lon="12.06155"><ele>533.0</ele><time>2026-04-17T11:59:09.615Z</time></trkpt><trkpt lat="42.6434633" lon="12.06178"><ele>533.0</ele><time>2026-04-17T11:59:10.614Z</time></trkpt><trkpt lat="42.643445" lon="12.0620133"><ele>531.6666666666666</ele><time>2026-04-17T11:59:11.615Z</time></trkpt><trkpt lat="42.6434283" lon="12.0622367"><ele>530.3333333333334</ele><time>2026-04-17T11:59:12.615Z</time></trkpt><trkpt lat="42.643415" lon="12.06245"><ele>529.0</ele><time>2026-04-17T11:59:13.615Z</time></trkpt><trkpt lat="42.6434017" lon="12.062665"><ele>528.3333333333334</ele><time>2026-04-17T11:59:14.614Z</time></trkpt><trkpt lat="42.6433917" lon="12.0628783"><ele>527.6666666666666</ele><time>2026-04-17T11:59:15.615Z</time></trkpt><trkpt lat="42.6433933" lon="12.0630867"><ele>527.0</ele><time>2026-04-17T11:59:16.614Z</time></trkpt><trkpt lat="42.6434083" lon="12.0633"><ele>526.3333333333333</ele><time>2026-04-17T11:59:17.615Z</time></trkpt><trkpt lat="42.6434333" lon="12.063515"><ele>525.6666666666666</ele><time>2026-04-17T11:59:18.615Z</time></trkpt><trkpt lat="42.64347" lon="12.06373"><ele>525.0</ele><time>2026-04-17T11:59:19.614Z</time></trkpt><trkpt lat="42.6435067" lon="12.06395"><ele>525.0</ele><time>2026-04-17T11:59:20.615Z</time></trkpt><trkpt lat="42.6435433" lon="12.06418"><ele>525.0</ele><time>2026-04-17T11:59:21.614Z</time></trkpt><trkpt lat="42.64358" lon="12.0644083"><ele>525.0</ele><time>2026-04-17T11:59:22.615Z</time></trkpt><trkpt lat="42.6436183" lon="12.0646433"><ele>524.0</ele><time>2026-04-17T11:59:23.615Z</time></trkpt><trkpt lat="42.64365" lon="12.064885"><ele>523.0</ele><time>2026-04-17T11:59:24.615Z</time></trkpt><trkpt lat="42.6436783" lon="12.0651133"><ele>522.0</ele><time>2026-04-17T11:59:25.615Z</time></trkpt><trkpt lat="42.6437133" lon="12.065345"><ele>521.3333333333334</ele><time>2026-04-17T11:59:26.614Z</time></trkpt><trkpt lat="42.6437567" lon="12.0655683"><ele>520.6666666666667</ele><time>2026-04-17T11:59:27.615Z</time></trkpt><trkpt lat="42.64379" lon="12.0657883"><ele>520.0</ele><time>2026-04-17T11:59:28.614Z</time></trkpt><trkpt lat="42.6438233" lon="12.0660067"><ele>520.0</ele><time>2026-04-17T11:59:29.615Z</time></trkpt><trkpt lat="42.643855" lon="12.066215"><ele>520.0</ele><time>2026-04-17T11:59:30.614Z</time></trkpt><trkpt lat="42.643885" lon="12.06642"><ele>520.0</ele><time>2026-04-17T11:59:31.615Z</time></trkpt><trkpt lat="42.6439117" lon="12.0666233"><ele>519.75</ele><time>2026-04-17T11:59:32.615Z</time></trkpt><trkpt lat="42.6439433" lon="12.0668283"><ele>519.5</ele><time>2026-04-17T11:59:33.615Z</time></trkpt><trkpt lat="42.6439767" lon="12.0670317"><ele>519.25</ele><time>2026-04-17T11:59:34.615Z</time></trkpt><trkpt lat="42.6440033" lon="12.0672167"><ele>519.0</ele><time>2026-04-17T11:59:35.615Z</time></trkpt><trkpt lat="42.6440367" lon="12.06741"><ele>518.3333333333334</ele><time>2026-04-17T11:59:36.614Z</time></trkpt><trkpt lat="42.64407" lon="12.0676217"><ele>517.6666666666667</ele><time>2026-04-17T11:59:37.615Z</time></trkpt><trkpt lat="42.6440917" lon="12.0678583"><ele>517.0</ele><time>2026-04-17T11:59:38.615Z</time></trkpt><trkpt lat="42.6441133" lon="12.068115"><ele>516.6666666666667</ele><time>2026-04-17T11:59:39.614Z</time></trkpt><trkpt lat="42.6441267" lon="12.068385"><ele>516.3333333333334</ele><time>2026-04-17T11:59:40.615Z</time></trkpt><trkpt lat="42.644135" lon="12.0686333"><ele>516.0</ele><time>2026-04-17T11:59:41.615Z</time></trkpt><trkpt lat="42.6441367" lon="12.0688567"><ele>516.0</ele><time>2026-04-17T11:59:42.615Z</time></trkpt><trkpt lat="42.6441367" lon="12.0690583"><ele>516.0</ele><time>2026-04-17T11:59:43.615Z</time></trkpt><trkpt lat="42.6441133" lon="12.0692533"><ele>516.0</ele><time>2026-04-17T11:59:44.614Z</time></trkpt><trkpt lat="42.6440867" lon="12.069435"><ele>516.0</ele><time>2026-04-17T11:59:45.615Z</time></trkpt><trkpt lat="42.6440433" lon="12.0696067"><ele>516.0</ele><time>2026-04-17T11:59:46.614Z</time></trkpt><trkpt lat="42.6439933" lon="12.0697733"><ele>516.0</ele><time>2026-04-17T11:59:47.615Z</time></trkpt><trkpt lat="42.6439283" lon="12.0699383"><ele>516.0</ele><time>2026-04-17T11:59:48.615Z</time></trkpt><trkpt lat="42.6438567" lon="12.0701"><ele>516.0</ele><time>2026-04-17T11:59:49.615Z</time></trkpt><trkpt lat="42.6437933" lon="12.07027"><ele>515.25</ele><time>2026-04-17T11:59:50.614Z</time></trkpt><trkpt lat="42.6437433" lon="12.07044"><ele>514.5</ele><time>2026-04-17T11:59:51.615Z</time></trkpt><trkpt lat="42.6437083" lon="12.070605"><ele>513.75</ele><time>2026-04-17T11:59:52.615Z</time></trkpt><trkpt lat="42.6436917" lon="12.0707767"><ele>513.0</ele><time>2026-04-17T11:59:53.615Z</time></trkpt><trkpt lat="42.6437" lon="12.0709667"><ele>512.0</ele><time>2026-04-17T11:59:54.614Z</time></trkpt><trkpt lat="42.64372" lon="12.0711633"><ele>511.0</ele><time>2026-04-17T11:59:55.615Z</time></trkpt><trkpt lat="42.6437483" lon="12.07137"><ele>510.0</ele><time>2026-04-17T11:59:56.614Z</time></trkpt><trkpt lat="42.64379" lon="12.07159"><ele>510.0</ele><time>2026-04-17T11:59:57.614Z</time></trkpt><trkpt lat="42.6438217" lon="12.0718017"><ele>510.0</ele><time>2026-04-17T11:59:58.614Z</time></trkpt><trkpt lat="42.643855" lon="12.0720083"><ele>510.0</ele><time>2026-04-17T11:59:59.615Z</time></trkpt><trkpt lat="42.64389" lon="12.0722"><ele>510.0</ele><time>2026-04-17T12:00:00.615Z</time></trkpt><trkpt lat="42.643925" lon="12.0723783"><ele>510.0</ele><time>2026-04-17T12:00:01.614Z</time></trkpt><trkpt lat="42.6439733" lon="12.0725633"><ele>510.0</ele><time>2026-04-17T12:00:02.615Z</time></trkpt><trkpt lat="42.6440267" lon="12.0727483"><ele>510.0</ele><time>2026-04-17T12:00:03.614Z</time></trkpt><trkpt lat="42.6440733" lon="12.072925"><ele>510.0</ele><time>2026-04-17T12:00:04.615Z</time></trkpt><trkpt lat="42.644125" lon="12.073095"><ele>510.0</ele><time>2026-04-17T12:00:05.615Z</time></trkpt><trkpt lat="42.6441667" lon="12.0732517"><ele>510.0</ele><time>2026-04-17T12:00:06.615Z</time></trkpt><trkpt lat="42.6441883" lon="12.0734217"><ele>510.0</ele><time>2026-04-17T12:00:07.615Z</time></trkpt><trkpt lat="42.6441917" lon="12.0735867"><ele>510.5</ele><time>2026-04-17T12:00:08.615Z</time></trkpt><trkpt lat="42.644185" lon="12.0737567"><ele>511.0</ele><time>2026-04-17T12:00:09.615Z</time></trkpt><trkpt lat="42.644155" lon="12.0739133"><ele>511.5</ele><time>2026-04-17T12:00:10.615Z</time></trkpt><trkpt lat="42.6441217" lon="12.074055"><ele>512.0</ele><time>2026-04-17T12:00:11.615Z</time></trkpt><trkpt lat="42.6440683" lon="12.074195"><ele>512.0</ele><time>2026-04-17T12:00:12.615Z</time></trkpt><trkpt lat="42.6439817" lon="12.0743283"><ele>512.0</ele><time>2026-04-17T12:00:13.615Z</time></trkpt><trkpt lat="42.6438733" lon="12.074455"><ele>512.0</ele><time>2026-04-17T12:00:14.615Z</time></trkpt><trkpt lat="42.6437583" lon="12.0745833"><ele>512.0</ele><time>2026-04-17T12:00:15.615Z</time></trkpt><trkpt lat="42.6436267" lon="12.07471"><ele>510.66666666666663</ele><time>2026-04-17T12:00:16.615Z</time></trkpt><trkpt lat="42.6434867" lon="12.0748467"><ele>509.33333333333337</ele><time>2026-04-17T12:00:17.615Z</time></trkpt><trkpt lat="42.6433483" lon="12.0749767"><ele>508.0</ele><time>2026-04-17T12:00:18.615Z</time></trkpt><trkpt lat="42.6432167" lon="12.0751"><ele>508.0</ele><time>2026-04-17T12:00:19.615Z</time></trkpt><trkpt lat="42.6430867" lon="12.0752217"><ele>508.0</ele><time>2026-04-17T12:00:20.614Z</time></trkpt><trkpt lat="42.6429617" lon="12.0753383"><ele>508.0</ele><time>2026-04-17T12:00:21.614Z</time></trkpt><trkpt lat="42.6428517" lon="12.0754567"><ele>508.25</ele><time>2026-04-17T12:00:22.614Z</time></trkpt><trkpt lat="42.64275" lon="12.075585"><ele>508.5</ele><time>2026-04-17T12:00:23.615Z</time></trkpt><trkpt lat="42.6426533" lon="12.0757333"><ele>508.75</ele><time>2026-04-17T12:00:24.615Z</time></trkpt><trkpt lat="42.64256" lon="12.075895"><ele>509.0</ele><time>2026-04-17T12:00:25.615Z</time></trkpt><trkpt lat="42.642475" lon="12.07606"><ele>509.0</ele><time>2026-04-17T12:00:26.615Z</time></trkpt><trkpt lat="42.6423933" lon="12.0762317"><ele>509.0</ele><time>2026-04-17T12:00:27.614Z</time></trkpt><trkpt lat="42.64232" lon="12.0764017"><ele>509.0</ele><time>2026-04-17T12:00:28.615Z</time></trkpt><trkpt lat="42.6422517" lon="12.076565"><ele>509.0</ele><time>2026-04-17T12:00:29.614Z</time></trkpt><trkpt lat="42.64218" lon="12.07673"><ele>509.25</ele><time>2026-04-17T12:00:30.615Z</time></trkpt><trkpt lat="42.6420983" lon="12.07689"><ele>509.5</ele><time>2026-04-17T12:00:31.615Z</time></trkpt><trkpt lat="42.642015" lon="12.0770533"><ele>509.75</ele><time>2026-04-17T12:00:32.614Z</time></trkpt><trkpt lat="42.6419383" lon="12.077215"><ele>510.0</ele><time>2026-04-17T12:00:33.615Z</time></trkpt><trkpt lat="42.6418717" lon="12.0773683"><ele>510.75</ele><time>2026-04-17T12:00:34.615Z</time></trkpt><trkpt lat="42.64181" lon="12.0775117"><ele>511.5</ele><time>2026-04-17T12:00:35.615Z</time></trkpt><trkpt lat="42.641745" lon="12.077665"><ele>512.25</ele><time>2026-04-17T12:00:36.615Z</time></trkpt><trkpt lat="42.6416783" lon="12.0778283"><ele>513.0</ele><time>2026-04-17T12:00:37.615Z</time></trkpt><trkpt lat="42.6416283" lon="12.0779983"><ele>513.0</ele><time>2026-04-17T12:00:38.615Z</time></trkpt><trkpt lat="42.6415717" lon="12.0781767"><ele>513.0</ele><time>2026-04-17T12:00:39.614Z</time></trkpt><trkpt lat="42.6415117" lon="12.078365"><ele>513.0</ele><time>2026-04-17T12:00:40.614Z</time></trkpt><trkpt lat="42.6414567" lon="12.0785583"><ele>513.0</ele><time>2026-04-17T12:00:41.615Z</time></trkpt><trkpt lat="42.6413967" lon="12.0787733"><ele>512.3333333333334</ele><time>2026-04-17T12:00:42.614Z</time></trkpt><trkpt lat="42.6413367" lon="12.0789917"><ele>511.6666666666667</ele><time>2026-04-17T12:00:43.615Z</time></trkpt><trkpt lat="42.6412767" lon="12.079215"><ele>511.0</ele><time>2026-04-17T12:00:44.615Z</time></trkpt><trkpt lat="42.6412267" lon="12.07942"><ele>509.33333333333337</ele><time>2026-04-17T12:00:45.615Z</time></trkpt><trkpt lat="42.6411933" lon="12.0796183"><ele>507.66666666666663</ele><time>2026-04-17T12:00:46.615Z</time></trkpt><trkpt lat="42.64116" lon="12.079825"><ele>506.0</ele><time>2026-04-17T12:00:47.615Z</time></trkpt><trkpt lat="42.6411417" lon="12.0800333"><ele>507.3333333333333</ele><time>2026-04-17T12:00:48.615Z</time></trkpt><trkpt lat="42.6411167" lon="12.0802483"><ele>508.66666666666663</ele><time>2026-04-17T12:00:49.614Z</time></trkpt><trkpt lat="42.641115" lon="12.0804717"><ele>510.0</ele><time>2026-04-17T12:00:50.615Z</time></trkpt><trkpt lat="42.6411083" lon="12.0806933"><ele>510.0</ele><time>2026-04-17T12:00:51.615Z</time></trkpt><trkpt lat="42.6411017" lon="12.0809133"><ele>510.0</ele><time>2026-04-17T12:00:52.615Z</time></trkpt><trkpt lat="42.64109" lon="12.081135"><ele>510.0</ele><time>2026-04-17T12:00:53.615Z</time></trkpt><trkpt lat="42.6410833" lon="12.08135"><ele>510.0</ele><time>2026-04-17T12:00:54.615Z</time></trkpt><trkpt lat="42.641075" lon="12.0815617"><ele>510.0</ele><time>2026-04-17T12:00:55.614Z</time></trkpt><trkpt lat="42.6410667" lon="12.0817733"><ele>510.0</ele><time>2026-04-17T12:00:56.614Z</time></trkpt><trkpt lat="42.64105" lon="12.0819883"><ele>510.0</ele><time>2026-04-17T12:00:57.615Z</time></trkpt><trkpt lat="42.6410333" lon="12.0822017"><ele>510.0</ele><time>2026-04-17T12:00:58.615Z</time></trkpt><trkpt lat="42.6410117" lon="12.0824117"><ele>510.0</ele><time>2026-04-17T12:00:59.614Z</time></trkpt><trkpt lat="42.6409817" lon="12.0826233"><ele>510.0</ele><time>2026-04-17T12:01:00.615Z</time></trkpt><trkpt lat="42.6409467" lon="12.0828333"><ele>510.0</ele><time>2026-04-17T12:01:01.615Z</time></trkpt><trkpt lat="42.6409133" lon="12.08304"><ele>510.0</ele><time>2026-04-17T12:01:02.615Z</time></trkpt><trkpt lat="42.640875" lon="12.0832483"><ele>509.33333333333337</ele><time>2026-04-17T12:01:03.615Z</time></trkpt><trkpt lat="42.6408383" lon="12.0834533"><ele>508.6666666666667</ele><time>2026-04-17T12:01:04.614Z</time></trkpt><trkpt lat="42.6408" lon="12.08365"><ele>508.0</ele><time>2026-04-17T12:01:05.614Z</time></trkpt><trkpt lat="42.64076" lon="12.083845"><ele>508.0</ele><time>2026-04-17T12:01:06.615Z</time></trkpt><trkpt lat="42.640725" lon="12.0840367"><ele>508.0</ele><time>2026-04-17T12:01:07.615Z</time></trkpt><trkpt lat="42.6407017" lon="12.0842217"><ele>508.0</ele><time>2026-04-17T12:01:08.614Z</time></trkpt><trkpt lat="42.6406883" lon="12.0844083"><ele>508.0</ele><time>2026-04-17T12:01:09.614Z</time></trkpt><trkpt lat="42.6406667" lon="12.0846"><ele>509.33333333333337</ele><time>2026-04-17T12:01:10.615Z</time></trkpt><trkpt lat="42.6406517" lon="12.084795"><ele>510.66666666666663</ele><time>2026-04-17T12:01:11.615Z</time></trkpt><trkpt lat="42.640645" lon="12.0850083"><ele>512.0</ele><time>2026-04-17T12:01:12.614Z</time></trkpt><trkpt lat="42.6406383" lon="12.0852133"><ele>513.0</ele><time>2026-04-17T12:01:13.615Z</time></trkpt><trkpt lat="42.64063" lon="12.0854317"><ele>514.0</ele><time>2026-04-17T12:01:14.615Z</time></trkpt><trkpt lat="42.6406133" lon="12.08565"><ele>515.0</ele><time>2026-04-17T12:01:15.615Z</time></trkpt><trkpt lat="42.6405967" lon="12.08587"><ele>515.0</ele><time>2026-04-17T12:01:16.615Z</time></trkpt><trkpt lat="42.6405867" lon="12.0860817"><ele>515.0</ele><time>2026-04-17T12:01:17.615Z</time></trkpt><trkpt lat="42.64058" lon="12.0863"><ele>515.0</ele><time>2026-04-17T12:01:18.615Z</time></trkpt><trkpt lat="42.64057" lon="12.0865167"><ele>513.6666666666666</ele><time>2026-04-17T12:01:19.614Z</time></trkpt><trkpt lat="42.6405533" lon="12.086725"><ele>512.3333333333334</ele><time>2026-04-17T12:01:20.615Z</time></trkpt><trkpt lat="42.6405383" lon="12.0869417"><ele>511.0</ele><time>2026-04-17T12:01:21.615Z</time></trkpt><trkpt lat="42.6405317" lon="12.0871583"><ele>511.0</ele><time>2026-04-17T12:01:22.615Z</time></trkpt><trkpt lat="42.6405233" lon="12.0873767"><ele>511.0</ele><time>2026-04-17T12:01:23.615Z</time></trkpt><trkpt lat="42.6405217" lon="12.0876017"><ele>511.0</ele><time>2026-04-17T12:01:24.615Z</time></trkpt><trkpt lat="42.6404983" lon="12.0878283"><ele>511.0</ele><time>2026-04-17T12:01:25.614Z</time></trkpt><trkpt lat="42.6404883" lon="12.0880467"><ele>511.0</ele><time>2026-04-17T12:01:26.615Z</time></trkpt><trkpt lat="42.6404767" lon="12.088265"><ele>511.0</ele><time>2026-04-17T12:01:27.615Z</time></trkpt><trkpt lat="42.6404717" lon="12.08849"><ele>511.0</ele><time>2026-04-17T12:01:28.615Z</time></trkpt><trkpt lat="42.6404633" lon="12.08871"><ele>511.0</ele><time>2026-04-17T12:01:29.615Z</time></trkpt><trkpt lat="42.64045" lon="12.0889233"><ele>511.0</ele><time>2026-04-17T12:01:30.615Z</time></trkpt><trkpt lat="42.6404383" lon="12.0891267"><ele>511.0</ele><time>2026-04-17T12:01:31.615Z</time></trkpt><trkpt lat="42.64042" lon="12.08932"><ele>511.0</ele><time>2026-04-17T12:01:32.614Z</time></trkpt><trkpt lat="42.6403883" lon="12.0895033"><ele>511.0</ele><time>2026-04-17T12:01:33.615Z</time></trkpt><trkpt lat="42.6403583" lon="12.0896817"><ele>511.0</ele><time>2026-04-17T12:01:34.615Z</time></trkpt><trkpt lat="42.64032" lon="12.0898517"><ele>509.75</ele><time>2026-04-17T12:01:35.615Z</time></trkpt><trkpt lat="42.6402567" lon="12.0900317"><ele>508.5</ele><time>2026-04-17T12:01:36.615Z</time></trkpt><trkpt lat="42.6401883" lon="12.0902017"><ele>507.25</ele><time>2026-04-17T12:01:37.615Z</time></trkpt><trkpt lat="42.6401083" lon="12.0903617"><ele>506.0</ele><time>2026-04-17T12:01:38.614Z</time></trkpt><trkpt lat="42.6400167" lon="12.0905167"><ele>506.0</ele><time>2026-04-17T12:01:39.614Z</time></trkpt><trkpt lat="42.6399083" lon="12.090665"><ele>506.0</ele><time>2026-04-17T12:01:40.614Z</time></trkpt><trkpt lat="42.6397783" lon="12.0907917"><ele>506.0</ele><time>2026-04-17T12:01:41.615Z</time></trkpt><trkpt lat="42.639635" lon="12.0909167"><ele>506.3333333333333</ele><time>2026-04-17T12:01:42.615Z</time></trkpt><trkpt lat="42.63948" lon="12.0910417"><ele>506.66666666666663</ele><time>2026-04-17T12:01:43.614Z</time></trkpt><trkpt lat="42.63933" lon="12.09116"><ele>507.0</ele><time>2026-04-17T12:01:44.615Z</time></trkpt><trkpt lat="42.63918" lon="12.0912667"><ele>507.25</ele><time>2026-04-17T12:01:45.615Z</time></trkpt><trkpt lat="42.6390417" lon="12.0913717"><ele>507.5</ele><time>2026-04-17T12:01:46.615Z</time></trkpt><trkpt lat="42.6389183" lon="12.09147"><ele>507.75</ele><time>2026-04-17T12:01:47.615Z</time></trkpt><trkpt lat="42.6387917" lon="12.09157"><ele>508.0</ele><time>2026-04-17T12:01:48.614Z</time></trkpt><trkpt lat="42.63866" lon="12.0916717"><ele>508.25</ele><time>2026-04-17T12:01:49.614Z</time></trkpt><trkpt lat="42.6385383" lon="12.0917733"><ele>508.5</ele><time>2026-04-17T12:01:50.615Z</time></trkpt><trkpt lat="42.63841" lon="12.0918717"><ele>508.75</ele><time>2026-04-17T12:01:51.615Z</time></trkpt><trkpt lat="42.6382817" lon="12.091965"><ele>509.0</ele><time>2026-04-17T12:01:52.615Z</time></trkpt><trkpt lat="42.638165" lon="12.0920633"><ele>509.0</ele><time>2026-04-17T12:01:53.615Z</time></trkpt><trkpt lat="42.6380383" lon="12.0921783"><ele>509.0</ele><time>2026-04-17T12:01:54.615Z</time></trkpt><trkpt lat="42.6379233" lon="12.0922983"><ele>509.0</ele><time>2026-04-17T12:01:55.615Z</time></trkpt><trkpt lat="42.6378067" lon="12.0924233"><ele>509.0</ele><time>2026-04-17T12:01:56.614Z</time></trkpt><trkpt lat="42.6376883" lon="12.0925467"><ele>508.5</ele><time>2026-04-17T12:01:57.615Z</time></trkpt><trkpt lat="42.63757" lon="12.0926567"><ele>508.0</ele><time>2026-04-17T12:01:58.615Z</time></trkpt><trkpt lat="42.6374617" lon="12.0927733"><ele>507.5</ele><time>2026-04-17T12:01:59.615Z</time></trkpt><trkpt lat="42.6373583" lon="12.0928783"><ele>507.0</ele><time>2026-04-17T12:02:00.614Z</time></trkpt><trkpt lat="42.6372667" lon="12.0929767"><ele>507.0</ele><time>2026-04-17T12:02:01.615Z</time></trkpt><trkpt lat="42.63718" lon="12.0930583"><ele>507.00000000000006</ele><time>2026-04-17T12:02:02.615Z</time></trkpt><trkpt lat="42.637105" lon="12.0931483"><ele>507.00000000000006</ele><time>2026-04-17T12:02:03.615Z</time></trkpt><trkpt lat="42.6370283" lon="12.0932217"><ele>507.0</ele><time>2026-04-17T12:02:04.614Z</time></trkpt><trkpt lat="42.636955" lon="12.09329"><ele>507.0</ele><time>2026-04-17T12:02:05.615Z</time></trkpt><trkpt lat="42.6368833" lon="12.0933517"><ele>506.0</ele><time>2026-04-17T12:02:06.615Z</time></trkpt><trkpt lat="42.63681" lon="12.093405"><ele>505.0</ele><time>2026-04-17T12:02:07.615Z</time></trkpt><trkpt lat="42.6367467" lon="12.0934517"><ele>504.0</ele><time>2026-04-17T12:02:08.614Z</time></trkpt><trkpt lat="42.6366483" lon="12.0935133"><ele>503.0</ele><time>2026-04-17T12:02:10.614Z</time></trkpt><trkpt lat="42.63659" lon="12.093585"><ele>502.0</ele><time>2026-04-17T12:02:12.615Z</time></trkpt><trkpt lat="42.6365633" lon="12.093705"><ele>501.0</ele><time>2026-04-17T12:02:14.614Z</time></trkpt><trkpt lat="42.636605" lon="12.09387"><ele>501.0</ele><time>2026-04-17T12:02:16.614Z</time></trkpt><trkpt lat="42.63666" lon="12.0939683"><ele>501.0</ele><time>2026-04-17T12:02:17.615Z</time></trkpt><trkpt lat="42.6367183" lon="12.094085"><ele>501.0</ele><time>2026-04-17T12:02:18.614Z</time></trkpt><trkpt lat="42.6367833" lon="12.0941933"><ele>501.0</ele><time>2026-04-17T12:02:19.615Z</time></trkpt><trkpt lat="42.6368517" lon="12.0942983"><ele>501.0</ele><time>2026-04-17T12:02:20.615Z</time></trkpt><trkpt lat="42.6369267" lon="12.0944183"><ele>500.75</ele><time>2026-04-17T12:02:21.615Z</time></trkpt><trkpt lat="42.637015" lon="12.0945367"><ele>500.5</ele><time>2026-04-17T12:02:22.615Z</time></trkpt><trkpt lat="42.6371083" lon="12.0946583"><ele>500.25</ele><time>2026-04-17T12:02:23.615Z</time></trkpt><trkpt lat="42.6371983" lon="12.0947783"><ele>500.0</ele><time>2026-04-17T12:02:24.615Z</time></trkpt><trkpt lat="42.6372883" lon="12.0948983"><ele>499.5</ele><time>2026-04-17T12:02:25.615Z</time></trkpt><trkpt lat="42.6373783" lon="12.0950333"><ele>499.0</ele><time>2026-04-17T12:02:26.614Z</time></trkpt><trkpt lat="42.63747" lon="12.0951633"><ele>498.5</ele><time>2026-04-17T12:02:27.615Z</time></trkpt><trkpt lat="42.6375533" lon="12.09528"><ele>498.0</ele><time>2026-04-17T12:02:28.614Z</time></trkpt><trkpt lat="42.63764" lon="12.0953867"><ele>498.0</ele><time>2026-04-17T12:02:29.615Z</time></trkpt><trkpt lat="42.6377367" lon="12.0954883"><ele>498.0</ele><time>2026-04-17T12:02:30.615Z</time></trkpt><trkpt lat="42.63784" lon="12.0955917"><ele>498.0</ele><time>2026-04-17T12:02:31.615Z</time></trkpt><trkpt lat="42.6379467" lon="12.095685"><ele>498.0</ele><time>2026-04-17T12:02:32.614Z</time></trkpt><trkpt lat="42.6380583" lon="12.0957867"><ele>497.75</ele><time>2026-04-17T12:02:33.615Z</time></trkpt><trkpt lat="42.6381733" lon="12.0959"><ele>497.5</ele><time>2026-04-17T12:02:34.615Z</time></trkpt><trkpt lat="42.6383033" lon="12.096015"><ele>497.25</ele><time>2026-04-17T12:02:35.614Z</time></trkpt><trkpt lat="42.63843" lon="12.096125"><ele>497.0</ele><time>2026-04-17T12:02:36.615Z</time></trkpt><trkpt lat="42.6385483" lon="12.096235"><ele>496.0</ele><time>2026-04-17T12:02:37.615Z</time></trkpt><trkpt lat="42.63867" lon="12.0963483"><ele>495.0</ele><time>2026-04-17T12:02:38.615Z</time></trkpt><trkpt lat="42.638795" lon="12.09646"><ele>494.0</ele><time>2026-04-17T12:02:39.615Z</time></trkpt><trkpt lat="42.63892" lon="12.0965817"><ele>493.25</ele><time>2026-04-17T12:02:40.615Z</time></trkpt><trkpt lat="42.6390517" lon="12.0966917"><ele>492.5</ele><time>2026-04-17T12:02:41.614Z</time></trkpt><trkpt lat="42.6391767" lon="12.0967983"><ele>491.75</ele><time>2026-04-17T12:02:42.615Z</time></trkpt><trkpt lat="42.6392967" lon="12.0969067"><ele>491.0</ele><time>2026-04-17T12:02:43.615Z</time></trkpt><trkpt lat="42.6394167" lon="12.0970083"><ele>491.0</ele><time>2026-04-17T12:02:44.615Z</time></trkpt><trkpt lat="42.6395433" lon="12.0971133"><ele>491.0</ele><time>2026-04-17T12:02:45.615Z</time></trkpt><trkpt lat="42.6396567" lon="12.0972167"><ele>491.0</ele><time>2026-04-17T12:02:46.614Z</time></trkpt><trkpt lat="42.6397717" lon="12.0973267"><ele>491.0</ele><time>2026-04-17T12:02:47.614Z</time></trkpt><trkpt lat="42.6398833" lon="12.0974333"><ele>490.25</ele><time>2026-04-17T12:02:48.614Z</time></trkpt><trkpt lat="42.6399983" lon="12.0975383"><ele>489.5</ele><time>2026-04-17T12:02:49.615Z</time></trkpt><trkpt lat="42.6401117" lon="12.09764"><ele>488.75</ele><time>2026-04-17T12:02:50.615Z</time></trkpt><trkpt lat="42.6402167" lon="12.0977383"><ele>488.0</ele><time>2026-04-17T12:02:51.615Z</time></trkpt><trkpt lat="42.64032" lon="12.0978317"><ele>489.2</ele><time>2026-04-17T12:02:52.615Z</time></trkpt><trkpt lat="42.6404217" lon="12.097925"><ele>490.4</ele><time>2026-04-17T12:02:53.615Z</time></trkpt><trkpt lat="42.6405183" lon="12.0980133"><ele>491.59999999999997</ele><time>2026-04-17T12:02:54.615Z</time></trkpt><trkpt lat="42.64061" lon="12.098095"><ele>492.79999999999995</ele><time>2026-04-17T12:02:55.615Z</time></trkpt><trkpt lat="42.6406983" lon="12.098155"><ele>494.0</ele><time>2026-04-17T12:02:56.614Z</time></trkpt><trkpt lat="42.6407717" lon="12.09823"><ele>493.16666666666663</ele><time>2026-04-17T12:02:57.615Z</time></trkpt><trkpt lat="42.6408383" lon="12.0982983"><ele>492.3333333333333</ele><time>2026-04-17T12:02:58.614Z</time></trkpt><trkpt lat="42.6409033" lon="12.0983567"><ele>491.5</ele><time>2026-04-17T12:02:59.614Z</time></trkpt><trkpt lat="42.64096" lon="12.0984117"><ele>490.66666666666663</ele><time>2026-04-17T12:03:00.615Z</time></trkpt><trkpt lat="42.6410167" lon="12.098465"><ele>489.8333333333333</ele><time>2026-04-17T12:03:01.615Z</time></trkpt><trkpt lat="42.6411017" lon="12.0985367"><ele>489.0</ele><time>2026-04-17T12:03:03.614Z</time></trkpt><trkpt lat="42.64117" lon="12.0986067"><ele>489.0</ele><time>2026-04-17T12:03:06.615Z</time></trkpt><trkpt lat="42.6412283" lon="12.098665"><ele>489.0</ele><time>2026-04-17T12:03:09.615Z</time></trkpt><trkpt lat="42.6412" lon="12.0985783"><ele>489.0</ele><time>2026-04-17T12:03:28.613Z</time></trkpt><trkpt lat="42.6411333" lon="12.0985233"><ele>489.0</ele><time>2026-04-17T12:03:29.614Z</time></trkpt><trkpt lat="42.6410633" lon="12.098465"><ele>489.0</ele><time>2026-04-17T12:03:30.614Z</time></trkpt><trkpt lat="42.6409767" lon="12.0983867"><ele>489.0</ele><time>2026-04-17T12:03:31.614Z</time></trkpt><trkpt lat="42.6408933" lon="12.09831"><ele>489.8333333333333</ele><time>2026-04-17T12:03:32.614Z</time></trkpt><trkpt lat="42.6408133" lon="12.0982417"><ele>490.66666666666663</ele><time>2026-04-17T12:03:33.613Z</time></trkpt><trkpt lat="42.64074" lon="12.0981667"><ele>491.5</ele><time>2026-04-17T12:03:34.613Z</time></trkpt><trkpt lat="42.64067" lon="12.0981017"><ele>492.3333333333333</ele><time>2026-04-17T12:03:35.614Z</time></trkpt><trkpt lat="42.6406083" lon="12.098035"><ele>493.16666666666663</ele><time>2026-04-17T12:03:36.613Z</time></trkpt><trkpt lat="42.6405533" lon="12.0979933"><ele>494.0</ele><time>2026-04-17T12:03:37.614Z</time></trkpt><trkpt lat="42.64046" lon="12.0979983"><ele>494.0</ele><time>2026-04-17T12:03:39.614Z</time></trkpt><trkpt lat="42.6403933" lon="12.0981133"><ele>494.0</ele><time>2026-04-17T12:03:41.614Z</time></trkpt><trkpt lat="42.6403533" lon="12.098255"><ele>494.0</ele><time>2026-04-17T12:03:43.614Z</time></trkpt><trkpt lat="42.64032" lon="12.09842"><ele>494.0</ele><time>2026-04-17T12:03:45.613Z</time></trkpt><trkpt lat="42.6403083" lon="12.0985283"><ele>494.0</ele><time>2026-04-17T12:03:46.614Z</time></trkpt><trkpt lat="42.64031" lon="12.0986383"><ele>493.16666666666663</ele><time>2026-04-17T12:03:47.614Z</time></trkpt><trkpt lat="42.6403033" lon="12.09876"><ele>492.3333333333333</ele><time>2026-04-17T12:03:48.614Z</time></trkpt><trkpt lat="42.6403067" lon="12.09887"><ele>491.5</ele><time>2026-04-17T12:03:49.614Z</time></trkpt><trkpt lat="42.6403233" lon="12.0989767"><ele>490.66666666666663</ele><time>2026-04-17T12:03:50.614Z</time></trkpt><trkpt lat="42.6403533" lon="12.0990817"><ele>489.8333333333333</ele><time>2026-04-17T12:03:51.614Z</time></trkpt><trkpt lat="42.6403917" lon="12.0991883"><ele>489.0</ele><time>2026-04-17T12:03:52.614Z</time></trkpt><trkpt lat="42.64044" lon="12.0993133"><ele>488.25</ele><time>2026-04-17T12:03:53.613Z</time></trkpt><trkpt lat="42.6405067" lon="12.0994583"><ele>487.5</ele><time>2026-04-17T12:03:54.614Z</time></trkpt><trkpt lat="42.64059" lon="12.0996183"><ele>486.75</ele><time>2026-04-17T12:03:55.614Z</time></trkpt><trkpt lat="42.6406783" lon="12.0998"><ele>486.0</ele><time>2026-04-17T12:03:56.614Z</time></trkpt><trkpt lat="42.6407567" lon="12.099995"><ele>485.5</ele><time>2026-04-17T12:03:57.614Z</time></trkpt><trkpt lat="42.6408217" lon="12.1001833"><ele>485.0</ele><time>2026-04-17T12:03:58.614Z</time></trkpt><trkpt lat="42.64087" lon="12.1003667"><ele>484.5</ele><time>2026-04-17T12:03:59.614Z</time></trkpt><trkpt lat="42.6409133" lon="12.1005383"><ele>484.0</ele><time>2026-04-17T12:04:00.613Z</time></trkpt><trkpt lat="42.64095" lon="12.1007067"><ele>483.25</ele><time>2026-04-17T12:04:01.614Z</time></trkpt><trkpt lat="42.6409867" lon="12.1008767"><ele>482.5</ele><time>2026-04-17T12:04:02.614Z</time></trkpt><trkpt lat="42.64102" lon="12.1010417"><ele>481.75</ele><time>2026-04-17T12:04:03.614Z</time></trkpt><trkpt lat="42.64106" lon="12.101195"><ele>481.0</ele><time>2026-04-17T12:04:04.614Z</time></trkpt><trkpt lat="42.6410933" lon="12.1013567"><ele>481.0</ele><time>2026-04-17T12:04:05.613Z</time></trkpt><trkpt lat="42.641125" lon="12.1015333"><ele>481.0</ele><time>2026-04-17T12:04:06.614Z</time></trkpt><trkpt lat="42.6411483" lon="12.101725"><ele>481.0</ele><time>2026-04-17T12:04:07.614Z</time></trkpt><trkpt lat="42.64117" lon="12.101915"><ele>481.0</ele><time>2026-04-17T12:04:08.613Z</time></trkpt><trkpt lat="42.6411867" lon="12.102115"><ele>480.0</ele><time>2026-04-17T12:04:09.613Z</time></trkpt><trkpt lat="42.6411983" lon="12.1023083"><ele>479.0</ele><time>2026-04-17T12:04:10.614Z</time></trkpt><trkpt lat="42.6412083" lon="12.1025017"><ele>478.0</ele><time>2026-04-17T12:04:11.614Z</time></trkpt><trkpt lat="42.6412133" lon="12.1027033"><ele>477.0</ele><time>2026-04-17T12:04:12.614Z</time></trkpt><trkpt lat="42.6412083" lon="12.1029017"><ele>476.25</ele><time>2026-04-17T12:04:13.613Z</time></trkpt><trkpt lat="42.6411983" lon="12.1030917"><ele>475.5</ele><time>2026-04-17T12:04:14.614Z</time></trkpt><trkpt lat="42.6411833" lon="12.1032867"><ele>474.75</ele><time>2026-04-17T12:04:15.614Z</time></trkpt><trkpt lat="42.6411717" lon="12.1034867"><ele>474.0</ele><time>2026-04-17T12:04:16.614Z</time></trkpt><trkpt lat="42.6411533" lon="12.1036933"><ele>474.33333333333337</ele><time>2026-04-17T12:04:17.614Z</time></trkpt><trkpt lat="42.64113" lon="12.1039017"><ele>474.6666666666667</ele><time>2026-04-17T12:04:18.614Z</time></trkpt><trkpt lat="42.6411183" lon="12.1041117"><ele>475.0</ele><time>2026-04-17T12:04:19.613Z</time></trkpt><trkpt lat="42.6411033" lon="12.10432"><ele>474.0</ele><time>2026-04-17T12:04:20.613Z</time></trkpt><trkpt lat="42.6410833" lon="12.10453"><ele>473.0</ele><time>2026-04-17T12:04:21.614Z</time></trkpt><trkpt lat="42.64107" lon="12.1047433"><ele>472.0</ele><time>2026-04-17T12:04:22.614Z</time></trkpt><trkpt lat="42.64107" lon="12.10495"><ele>472.0</ele><time>2026-04-17T12:04:23.613Z</time></trkpt><trkpt lat="42.6410617" lon="12.1051617"><ele>472.0</ele><time>2026-04-17T12:04:24.614Z</time></trkpt><trkpt lat="42.64107" lon="12.1053667"><ele>472.0</ele><time>2026-04-17T12:04:25.614Z</time></trkpt><trkpt lat="42.6410817" lon="12.1055683"><ele>472.25</ele><time>2026-04-17T12:04:26.614Z</time></trkpt><trkpt lat="42.6411067" lon="12.1057667"><ele>472.5</ele><time>2026-04-17T12:04:27.614Z</time></trkpt><trkpt lat="42.6411383" lon="12.105965"><ele>472.75</ele><time>2026-04-17T12:04:28.614Z</time></trkpt><trkpt lat="42.64117" lon="12.1061567"><ele>473.0</ele><time>2026-04-17T12:04:29.614Z</time></trkpt><trkpt lat="42.641195" lon="12.1063533"><ele>472.3333333333333</ele><time>2026-04-17T12:04:30.614Z</time></trkpt><trkpt lat="42.641225" lon="12.1065617"><ele>471.66666666666663</ele><time>2026-04-17T12:04:31.614Z</time></trkpt><trkpt lat="42.6412517" lon="12.1067733"><ele>471.0</ele><time>2026-04-17T12:04:32.614Z</time></trkpt><trkpt lat="42.6412717" lon="12.1069933"><ele>470.33333333333337</ele><time>2026-04-17T12:04:33.614Z</time></trkpt><trkpt lat="42.6412967" lon="12.107215"><ele>469.6666666666667</ele><time>2026-04-17T12:04:34.613Z</time></trkpt><trkpt lat="42.6413133" lon="12.107445"><ele>469.0</ele><time>2026-04-17T12:04:35.614Z</time></trkpt><trkpt lat="42.6413317" lon="12.10767"><ele>468.33333333333337</ele><time>2026-04-17T12:04:36.614Z</time></trkpt><trkpt lat="42.6413367" lon="12.1078933"><ele>467.66666666666663</ele><time>2026-04-17T12:04:37.613Z</time></trkpt><trkpt lat="42.6413517" lon="12.1081117"><ele>467.0</ele><time>2026-04-17T12:04:38.614Z</time></trkpt><trkpt lat="42.6413583" lon="12.108335"><ele>466.66666666666663</ele><time>2026-04-17T12:04:39.614Z</time></trkpt><trkpt lat="42.6413717" lon="12.1085517"><ele>466.33333333333337</ele><time>2026-04-17T12:04:40.614Z</time></trkpt><trkpt lat="42.64138" lon="12.1087633"><ele>466.0</ele><time>2026-04-17T12:04:41.613Z</time></trkpt><trkpt lat="42.6413883" lon="12.108975"><ele>465.33333333333337</ele><time>2026-04-17T12:04:42.614Z</time></trkpt><trkpt lat="42.6413983" lon="12.10918"><ele>464.66666666666663</ele><time>2026-04-17T12:04:43.614Z</time></trkpt><trkpt lat="42.6414067" lon="12.109385"><ele>464.0</ele><time>2026-04-17T12:04:44.614Z</time></trkpt><trkpt lat="42.6414117" lon="12.10959"><ele>464.0</ele><time>2026-04-17T12:04:45.613Z</time></trkpt><trkpt lat="42.6414233" lon="12.1097967"><ele>464.0</ele><time>2026-04-17T12:04:46.614Z</time></trkpt><trkpt lat="42.6414367" lon="12.110005"><ele>464.0</ele><time>2026-04-17T12:04:47.614Z</time></trkpt><trkpt lat="42.641445" lon="12.1102133"><ele>464.0</ele><time>2026-04-17T12:04:48.614Z</time></trkpt><trkpt lat="42.641455" lon="12.1104233"><ele>464.0</ele><time>2026-04-17T12:04:49.614Z</time></trkpt><trkpt lat="42.6414683" lon="12.1106267"><ele>464.0</ele><time>2026-04-17T12:04:50.613Z</time></trkpt><trkpt lat="42.641475" lon="12.1108233"><ele>463.0</ele><time>2026-04-17T12:04:51.613Z</time></trkpt><trkpt lat="42.6414783" lon="12.1110133"><ele>462.0</ele><time>2026-04-17T12:04:52.614Z</time></trkpt><trkpt lat="42.641485" lon="12.111205"><ele>461.0</ele><time>2026-04-17T12:04:53.614Z</time></trkpt><trkpt lat="42.64149" lon="12.1113967"><ele>460.0</ele><time>2026-04-17T12:04:54.613Z</time></trkpt><trkpt lat="42.6415017" lon="12.111575"><ele>459.6</ele><time>2026-04-17T12:04:55.613Z</time></trkpt><trkpt lat="42.64151" lon="12.1117483"><ele>459.2</ele><time>2026-04-17T12:04:56.614Z</time></trkpt><trkpt lat="42.6415183" lon="12.1118933"><ele>458.79999999999995</ele><time>2026-04-17T12:04:57.614Z</time></trkpt><trkpt lat="42.641525" lon="12.112025"><ele>458.4</ele><time>2026-04-17T12:04:58.613Z</time></trkpt><trkpt lat="42.64153" lon="12.1121417"><ele>458.0</ele><time>2026-04-17T12:04:59.613Z</time></trkpt><trkpt lat="42.64153" lon="12.1122383"><ele>457.99999999999994</ele><time>2026-04-17T12:05:00.613Z</time></trkpt><trkpt lat="42.641535" lon="12.1123267"><ele>458.0</ele><time>2026-04-17T12:05:01.614Z</time></trkpt><trkpt lat="42.64154" lon="12.1124733"><ele>458.0</ele><time>2026-04-17T12:05:03.613Z</time></trkpt><trkpt lat="42.6415767" lon="12.1125867"><ele>458.0</ele><time>2026-04-17T12:05:05.613Z</time></trkpt><trkpt lat="42.641615" lon="12.112665"><ele>457.99999999999994</ele><time>2026-04-17T12:05:07.613Z</time></trkpt><trkpt lat="42.6416833" lon="12.1126883"><ele>458.0</ele><time>2026-04-17T12:05:09.614Z</time></trkpt><trkpt lat="42.64177" lon="12.11268"><ele>457.8333333333333</ele><time>2026-04-17T12:05:11.614Z</time></trkpt><trkpt lat="42.6418583" lon="12.1126483"><ele>457.66666666666663</ele><time>2026-04-17T12:05:13.614Z</time></trkpt><trkpt lat="42.641975" lon="12.1126383"><ele>457.5</ele><time>2026-04-17T12:05:15.614Z</time></trkpt><trkpt lat="42.6420583" lon="12.1126267"><ele>457.33333333333337</ele><time>2026-04-17T12:05:16.613Z</time></trkpt><trkpt lat="42.6421417" lon="12.1126183"><ele>457.1666666666667</ele><time>2026-04-17T12:05:17.614Z</time></trkpt><trkpt lat="42.6422133" lon="12.11261"><ele>457.0</ele><time>2026-04-17T12:05:18.614Z</time></trkpt><trkpt lat="42.6423167" lon="12.112615"><ele>457.0</ele><time>2026-04-17T12:05:20.614Z</time></trkpt><trkpt lat="42.64242" lon="12.1126283"><ele>457.00000000000006</ele><time>2026-04-17T12:05:22.614Z</time></trkpt><trkpt lat="42.6424867" lon="12.11265"><ele>457.00000000000006</ele><time>2026-04-17T12:05:23.614Z</time></trkpt><trkpt lat="42.6425533" lon="12.1126883"><ele>457.0</ele><time>2026-04-17T12:05:24.614Z</time></trkpt><trkpt lat="42.6426367" lon="12.112745"><ele>457.0</ele><time>2026-04-17T12:05:25.614Z</time></trkpt><trkpt lat="42.642735" lon="12.1128283"><ele>456.5</ele><time>2026-04-17T12:05:26.614Z</time></trkpt><trkpt lat="42.6428433" lon="12.1129133"><ele>456.0</ele><time>2026-04-17T12:05:27.614Z</time></trkpt><trkpt lat="42.6429483" lon="12.1129933"><ele>455.5</ele><time>2026-04-17T12:05:28.614Z</time></trkpt><trkpt lat="42.643055" lon="12.1130883"><ele>455.0</ele><time>2026-04-17T12:05:29.614Z</time></trkpt><trkpt lat="42.64315" lon="12.1132"><ele>455.0</ele><time>2026-04-17T12:05:30.614Z</time></trkpt><trkpt lat="42.6432433" lon="12.1133167"><ele>455.0</ele><time>2026-04-17T12:05:31.614Z</time></trkpt><trkpt lat="42.6433383" lon="12.1134417"><ele>455.0</ele><time>2026-04-17T12:05:32.613Z</time></trkpt><trkpt lat="42.643425" lon="12.1135917"><ele>455.0</ele><time>2026-04-17T12:05:33.613Z</time></trkpt><trkpt lat="42.6435017" lon="12.1137433"><ele>455.0</ele><time>2026-04-17T12:05:34.614Z</time></trkpt><trkpt lat="42.6435817" lon="12.1139033"><ele>455.0</ele><time>2026-04-17T12:05:35.614Z</time></trkpt><trkpt lat="42.6436617" lon="12.1140533"><ele>455.0</ele><time>2026-04-17T12:05:36.614Z</time></trkpt><trkpt lat="42.6437367" lon="12.1141867"><ele>455.0</ele><time>2026-04-17T12:05:37.614Z</time></trkpt><trkpt lat="42.64381" lon="12.114305"><ele>455.2</ele><time>2026-04-17T12:05:38.614Z</time></trkpt><trkpt lat="42.6438733" lon="12.1144117"><ele>455.4</ele><time>2026-04-17T12:05:39.613Z</time></trkpt><trkpt lat="42.64393" lon="12.114505"><ele>455.6</ele><time>2026-04-17T12:05:40.614Z</time></trkpt><trkpt lat="42.6439817" lon="12.1146017"><ele>455.8</ele><time>2026-04-17T12:05:41.613Z</time></trkpt><trkpt lat="42.6440533" lon="12.1146717"><ele>456.0</ele><time>2026-04-17T12:05:42.613Z</time></trkpt><trkpt lat="42.644145" lon="12.1147167"><ele>456.0</ele><time>2026-04-17T12:05:43.614Z</time></trkpt><trkpt lat="42.6442467" lon="12.114735"><ele>456.0</ele><time>2026-04-17T12:05:44.614Z</time></trkpt><trkpt lat="42.6443667" lon="12.1147283"><ele>456.0</ele><time>2026-04-17T12:05:45.613Z</time></trkpt><trkpt lat="42.6444967" lon="12.1147217"><ele>456.0</ele><time>2026-04-17T12:05:46.614Z</time></trkpt><trkpt lat="42.6446383" lon="12.1147033"><ele>456.25</ele><time>2026-04-17T12:05:47.613Z</time></trkpt><trkpt lat="42.6447783" lon="12.1146933"><ele>456.5</ele><time>2026-04-17T12:05:48.614Z</time></trkpt><trkpt lat="42.6449167" lon="12.1146883"><ele>456.75</ele><time>2026-04-17T12:05:49.614Z</time></trkpt><trkpt lat="42.645055" lon="12.1147117"><ele>457.0</ele><time>2026-04-17T12:05:50.613Z</time></trkpt><trkpt lat="42.645205" lon="12.11475"><ele>457.75</ele><time>2026-04-17T12:05:51.614Z</time></trkpt><trkpt lat="42.6453517" lon="12.114815"><ele>458.5</ele><time>2026-04-17T12:05:52.614Z</time></trkpt><trkpt lat="42.6454883" lon="12.1148867"><ele>459.25</ele><time>2026-04-17T12:05:53.613Z</time></trkpt><trkpt lat="42.645625" lon="12.114955"><ele>460.0</ele><time>2026-04-17T12:05:54.614Z</time></trkpt><trkpt lat="42.645755" lon="12.1150317"><ele>458.25</ele><time>2026-04-17T12:05:55.613Z</time></trkpt><trkpt lat="42.6458767" lon="12.1151067"><ele>456.5</ele><time>2026-04-17T12:05:56.614Z</time></trkpt><trkpt lat="42.645995" lon="12.11518"><ele>454.75</ele><time>2026-04-17T12:05:57.614Z</time></trkpt><trkpt lat="42.646115" lon="12.1152367"><ele>453.0</ele><time>2026-04-17T12:05:58.614Z</time></trkpt><trkpt lat="42.6462383" lon="12.1152767"><ele>453.0</ele><time>2026-04-17T12:05:59.614Z</time></trkpt><trkpt lat="42.6463567" lon="12.1153033"><ele>453.0</ele><time>2026-04-17T12:06:00.613Z</time></trkpt><trkpt lat="42.646485" lon="12.1153117"><ele>453.0</ele><time>2026-04-17T12:06:01.613Z</time></trkpt><trkpt lat="42.6466217" lon="12.1153167"><ele>453.0</ele><time>2026-04-17T12:06:02.614Z</time></trkpt><trkpt lat="42.646775" lon="12.1153367"><ele>453.0</ele><time>2026-04-17T12:06:03.614Z</time></trkpt><trkpt lat="42.6469283" lon="12.1153917"><ele>453.0</ele><time>2026-04-17T12:06:04.614Z</time></trkpt><trkpt lat="42.64708" lon="12.1154567"><ele>453.0</ele><time>2026-04-17T12:06:05.613Z</time></trkpt><trkpt lat="42.6472167" lon="12.1155183"><ele>453.2</ele><time>2026-04-17T12:06:06.614Z</time></trkpt><trkpt lat="42.647325" lon="12.1155717"><ele>453.4</ele><time>2026-04-17T12:06:07.614Z</time></trkpt><trkpt lat="42.6474267" lon="12.1156133"><ele>453.59999999999997</ele><time>2026-04-17T12:06:08.613Z</time></trkpt><trkpt lat="42.6475133" lon="12.1156517"><ele>453.79999999999995</ele><time>2026-04-17T12:06:09.614Z</time></trkpt><trkpt lat="42.647605" lon="12.115675"><ele>454.0</ele><time>2026-04-17T12:06:10.613Z</time></trkpt><trkpt lat="42.6477033" lon="12.115675"><ele>454.75</ele><time>2026-04-17T12:06:11.613Z</time></trkpt><trkpt lat="42.6478183" lon="12.1156417"><ele>455.5</ele><time>2026-04-17T12:06:12.613Z</time></trkpt><trkpt lat="42.64794" lon="12.115605"><ele>456.25</ele><time>2026-04-17T12:06:13.614Z</time></trkpt><trkpt lat="42.6480517" lon="12.11557"><ele>457.0</ele><time>2026-04-17T12:06:14.614Z</time></trkpt><trkpt lat="42.648155" lon="12.115555"><ele>457.0</ele><time>2026-04-17T12:06:15.614Z</time></trkpt><trkpt lat="42.6482517" lon="12.1155783"><ele>457.0</ele><time>2026-04-17T12:06:16.613Z</time></trkpt><trkpt lat="42.6483433" lon="12.115635"><ele>457.0</ele><time>2026-04-17T12:06:17.614Z</time></trkpt><trkpt lat="42.648445" lon="12.1157267"><ele>457.0</ele><time>2026-04-17T12:06:18.613Z</time></trkpt><trkpt lat="42.6485567" lon="12.1158467"><ele>454.75</ele><time>2026-04-17T12:06:19.614Z</time></trkpt><trkpt lat="42.6486667" lon="12.115965"><ele>452.5</ele><time>2026-04-17T12:06:20.613Z</time></trkpt><trkpt lat="42.6487717" lon="12.1160717"><ele>450.25</ele><time>2026-04-17T12:06:21.614Z</time></trkpt><trkpt lat="42.6488817" lon="12.11617"><ele>448.0</ele><time>2026-04-17T12:06:22.614Z</time></trkpt><trkpt lat="42.649005" lon="12.1162567"><ele>448.0</ele><time>2026-04-17T12:06:23.613Z</time></trkpt><trkpt lat="42.6491283" lon="12.1163283"><ele>448.0</ele><time>2026-04-17T12:06:24.613Z</time></trkpt><trkpt lat="42.6492683" lon="12.1163917"><ele>448.0</ele><time>2026-04-17T12:06:25.614Z</time></trkpt><trkpt lat="42.6494117" lon="12.1164683"><ele>448.0</ele><time>2026-04-17T12:06:26.614Z</time></trkpt><trkpt lat="42.6495533" lon="12.11655"><ele>443.6666666666667</ele><time>2026-04-17T12:06:27.613Z</time></trkpt><trkpt lat="42.6496983" lon="12.11666"><ele>439.33333333333337</ele><time>2026-04-17T12:06:28.614Z</time></trkpt><trkpt lat="42.6498383" lon="12.1167633"><ele>435.0</ele><time>2026-04-17T12:06:29.613Z</time></trkpt><trkpt lat="42.6499667" lon="12.1168733"><ele>435.0</ele><time>2026-04-17T12:06:30.613Z</time></trkpt><trkpt lat="42.6500967" lon="12.11698"><ele>435.0</ele><time>2026-04-17T12:06:31.613Z</time></trkpt><trkpt lat="42.6502283" lon="12.1170833"><ele>435.0</ele><time>2026-04-17T12:06:32.614Z</time></trkpt><trkpt lat="42.6503667" lon="12.1172067"><ele>434.33333333333337</ele><time>2026-04-17T12:06:33.613Z</time></trkpt><trkpt lat="42.650505" lon="12.1173217"><ele>433.6666666666667</ele><time>2026-04-17T12:06:34.614Z</time></trkpt><trkpt lat="42.6506267" lon="12.1174317"><ele>433.0</ele><time>2026-04-17T12:06:35.614Z</time></trkpt><trkpt lat="42.650745" lon="12.1175417"><ele>433.0</ele><time>2026-04-17T12:06:36.614Z</time></trkpt><trkpt lat="42.6508583" lon="12.1176367"><ele>433.0</ele><time>2026-04-17T12:06:37.614Z</time></trkpt><trkpt lat="42.6509767" lon="12.1177383"><ele>433.0</ele><time>2026-04-17T12:06:38.613Z</time></trkpt><trkpt lat="42.6510883" lon="12.1178417"><ele>433.0</ele><time>2026-04-17T12:06:39.614Z</time></trkpt><trkpt lat="42.6511917" lon="12.1179367"><ele>433.79999999999995</ele><time>2026-04-17T12:06:40.613Z</time></trkpt><trkpt lat="42.65128" lon="12.118015"><ele>434.59999999999997</ele><time>2026-04-17T12:06:41.614Z</time></trkpt><trkpt lat="42.6513567" lon="12.118095"><ele>435.40000000000003</ele><time>2026-04-17T12:06:42.614Z</time></trkpt><trkpt lat="42.6514333" lon="12.1181867"><ele>436.20000000000005</ele><time>2026-04-17T12:06:43.613Z</time></trkpt><trkpt lat="42.651515" lon="12.118285"><ele>437.0</ele><time>2026-04-17T12:06:44.613Z</time></trkpt><trkpt lat="42.6516017" lon="12.1183933"><ele>437.5</ele><time>2026-04-17T12:06:45.613Z</time></trkpt><trkpt lat="42.6516883" lon="12.1185"><ele>438.0</ele><time>2026-04-17T12:06:46.614Z</time></trkpt><trkpt lat="42.6517767" lon="12.1186117"><ele>438.5</ele><time>2026-04-17T12:06:47.613Z</time></trkpt><trkpt lat="42.6518583" lon="12.11872"><ele>439.0</ele><time>2026-04-17T12:06:48.614Z</time></trkpt><trkpt lat="42.65195" lon="12.1188233"><ele>439.75</ele><time>2026-04-17T12:06:49.614Z</time></trkpt><trkpt lat="42.6520383" lon="12.1189167"><ele>440.5</ele><time>2026-04-17T12:06:50.614Z</time></trkpt><trkpt lat="42.6521317" lon="12.1190033"><ele>441.25</ele><time>2026-04-17T12:06:51.613Z</time></trkpt><trkpt lat="42.652235" lon="12.1190783"><ele>442.0</ele><time>2026-04-17T12:06:52.613Z</time></trkpt><trkpt lat="42.6523333" lon="12.1191533"><ele>442.25</ele><time>2026-04-17T12:06:53.614Z</time></trkpt><trkpt lat="42.6524433" lon="12.11922"><ele>442.5</ele><time>2026-04-17T12:06:54.614Z</time></trkpt><trkpt lat="42.652555" lon="12.1192767"><ele>442.75</ele><time>2026-04-17T12:06:55.613Z</time></trkpt><trkpt lat="42.6526667" lon="12.1193333"><ele>443.0</ele><time>2026-04-17T12:06:56.614Z</time></trkpt><trkpt lat="42.6527767" lon="12.119405"><ele>443.5</ele><time>2026-04-17T12:06:57.614Z</time></trkpt><trkpt lat="42.652885" lon="12.1194883"><ele>444.0</ele><time>2026-04-17T12:06:58.614Z</time></trkpt><trkpt lat="42.6529917" lon="12.1195717"><ele>444.5</ele><time>2026-04-17T12:06:59.613Z</time></trkpt><trkpt lat="42.65309" lon="12.119665"><ele>445.0</ele><time>2026-04-17T12:07:00.614Z</time></trkpt><trkpt lat="42.6531833" lon="12.1197783"><ele>445.0</ele><time>2026-04-17T12:07:01.614Z</time></trkpt><trkpt lat="42.653265" lon="12.1199"><ele>445.0</ele><time>2026-04-17T12:07:02.613Z</time></trkpt><trkpt lat="42.6533417" lon="12.1200217"><ele>445.0</ele><time>2026-04-17T12:07:03.614Z</time></trkpt><trkpt lat="42.65341" lon="12.1201517"><ele>445.0</ele><time>2026-04-17T12:07:04.613Z</time></trkpt><trkpt lat="42.653475" lon="12.120285"><ele>445.0</ele><time>2026-04-17T12:07:05.614Z</time></trkpt><trkpt lat="42.6535433" lon="12.1204117"><ele>445.0</ele><time>2026-04-17T12:07:06.613Z</time></trkpt><trkpt lat="42.653615" lon="12.1205333"><ele>445.0</ele><time>2026-04-17T12:07:07.614Z</time></trkpt><trkpt lat="42.65368" lon="12.120645"><ele>445.0</ele><time>2026-04-17T12:07:08.614Z</time></trkpt><trkpt lat="42.6537417" lon="12.1207333"><ele>445.0</ele><time>2026-04-17T12:07:09.614Z</time></trkpt><trkpt lat="42.65381" lon="12.1208033"><ele>444.4</ele><time>2026-04-17T12:07:10.614Z</time></trkpt><trkpt lat="42.6538917" lon="12.12086"><ele>443.8</ele><time>2026-04-17T12:07:11.614Z</time></trkpt><trkpt lat="42.6539733" lon="12.1209183"><ele>443.20000000000005</ele><time>2026-04-17T12:07:12.614Z</time></trkpt><trkpt lat="42.6540683" lon="12.12097"><ele>442.6</ele><time>2026-04-17T12:07:13.613Z</time></trkpt><trkpt lat="42.6541817" lon="12.1210217"><ele>442.0</ele><time>2026-04-17T12:07:14.614Z</time></trkpt><trkpt lat="42.65429" lon="12.12107"><ele>442.0</ele><time>2026-04-17T12:07:15.614Z</time></trkpt><trkpt lat="42.6544067" lon="12.1211"><ele>442.0</ele><time>2026-04-17T12:07:16.614Z</time></trkpt><trkpt lat="42.654525" lon="12.1211267"><ele>442.0</ele><time>2026-04-17T12:07:17.614Z</time></trkpt><trkpt lat="42.6546417" lon="12.1211467"><ele>442.0</ele><time>2026-04-17T12:07:18.614Z</time></trkpt><trkpt lat="42.654765" lon="12.1211533"><ele>441.75</ele><time>2026-04-17T12:07:19.614Z</time></trkpt><trkpt lat="42.6548833" lon="12.1211633"><ele>441.5</ele><time>2026-04-17T12:07:20.614Z</time></trkpt><trkpt lat="42.6550033" lon="12.1211683"><ele>441.25</ele><time>2026-04-17T12:07:21.614Z</time></trkpt><trkpt lat="42.6551217" lon="12.1211667"><ele>441.0</ele><time>2026-04-17T12:07:22.614Z</time></trkpt><trkpt lat="42.65524" lon="12.1211567"><ele>440.6</ele><time>2026-04-17T12:07:23.614Z</time></trkpt><trkpt lat="42.6553333" lon="12.12114"><ele>440.20000000000005</ele><time>2026-04-17T12:07:24.613Z</time></trkpt><trkpt lat="42.655425" lon="12.1211083"><ele>439.79999999999995</ele><time>2026-04-17T12:07:25.614Z</time></trkpt><trkpt lat="42.6555133" lon="12.1210567"><ele>439.4</ele><time>2026-04-17T12:07:26.614Z</time></trkpt><trkpt lat="42.6556" lon="12.1209967"><ele>439.0</ele><time>2026-04-17T12:07:27.614Z</time></trkpt><trkpt lat="42.6556967" lon="12.120945"><ele>439.0</ele><time>2026-04-17T12:07:28.613Z</time></trkpt><trkpt lat="42.65579" lon="12.1209083"><ele>439.0</ele><time>2026-04-17T12:07:29.614Z</time></trkpt><trkpt lat="42.6558833" lon="12.1208967"><ele>439.0</ele><time>2026-04-17T12:07:30.614Z</time></trkpt><trkpt lat="42.655985" lon="12.120915"><ele>439.0</ele><time>2026-04-17T12:07:31.613Z</time></trkpt><trkpt lat="42.6560817" lon="12.12096"><ele>439.0</ele><time>2026-04-17T12:07:32.614Z</time></trkpt><trkpt lat="42.6561883" lon="12.1210283"><ele>440.25</ele><time>2026-04-17T12:07:33.614Z</time></trkpt><trkpt lat="42.656295" lon="12.121125"><ele>441.5</ele><time>2026-04-17T12:07:34.614Z</time></trkpt><trkpt lat="42.6564017" lon="12.1212333"><ele>442.75</ele><time>2026-04-17T12:07:35.613Z</time></trkpt><trkpt lat="42.65651" lon="12.12133"><ele>444.0</ele><time>2026-04-17T12:07:36.614Z</time></trkpt><trkpt lat="42.6566233" lon="12.1214133"><ele>444.0</ele><time>2026-04-17T12:07:37.614Z</time></trkpt><trkpt lat="42.6567483" lon="12.1214817"><ele>444.0</ele><time>2026-04-17T12:07:38.614Z</time></trkpt><trkpt lat="42.6568733" lon="12.1215533"><ele>444.0</ele><time>2026-04-17T12:07:39.613Z</time></trkpt><trkpt lat="42.6569817" lon="12.121625"><ele>444.0</ele><time>2026-04-17T12:07:40.614Z</time></trkpt><trkpt lat="42.657075" lon="12.12169"><ele>444.79999999999995</ele><time>2026-04-17T12:07:41.613Z</time></trkpt><trkpt lat="42.657165" lon="12.1217667"><ele>445.59999999999997</ele><time>2026-04-17T12:07:42.614Z</time></trkpt><trkpt lat="42.657255" lon="12.1218333"><ele>446.4</ele><time>2026-04-17T12:07:43.613Z</time></trkpt><trkpt lat="42.6573517" lon="12.1218967"><ele>447.2</ele><time>2026-04-17T12:07:44.614Z</time></trkpt><trkpt lat="42.65746" lon="12.121955"><ele>448.0</ele><time>2026-04-17T12:07:45.614Z</time></trkpt><trkpt lat="42.6575733" lon="12.1220017"><ele>448.0</ele><time>2026-04-17T12:07:46.614Z</time></trkpt><trkpt lat="42.6576867" lon="12.12203"><ele>448.0</ele><time>2026-04-17T12:07:47.613Z</time></trkpt><trkpt lat="42.6577983" lon="12.1220467"><ele>448.0</ele><time>2026-04-17T12:07:48.614Z</time></trkpt><trkpt lat="42.6579267" lon="12.122045"><ele>448.0</ele><time>2026-04-17T12:07:49.614Z</time></trkpt><trkpt lat="42.658055" lon="12.1220283"><ele>447.25</ele><time>2026-04-17T12:07:50.614Z</time></trkpt><trkpt lat="42.6581983" lon="12.12201"><ele>446.5</ele><time>2026-04-17T12:07:51.614Z</time></trkpt><trkpt lat="42.6583333" lon="12.1219917"><ele>445.75</ele><time>2026-04-17T12:07:52.613Z</time></trkpt><trkpt lat="42.6584767" lon="12.1219567"><ele>445.0</ele><time>2026-04-17T12:07:53.613Z</time></trkpt><trkpt lat="42.6586067" lon="12.12192"><ele>444.4</ele><time>2026-04-17T12:07:54.613Z</time></trkpt><trkpt lat="42.658715" lon="12.12189"><ele>443.8</ele><time>2026-04-17T12:07:55.614Z</time></trkpt><trkpt lat="42.6588283" lon="12.12186"><ele>443.20000000000005</ele><time>2026-04-17T12:07:56.614Z</time></trkpt><trkpt lat="42.65893" lon="12.12185"><ele>442.6</ele><time>2026-04-17T12:07:57.614Z</time></trkpt><trkpt lat="42.6590283" lon="12.1218783"><ele>442.0</ele><time>2026-04-17T12:07:58.614Z</time></trkpt><trkpt lat="42.659135" lon="12.121925"><ele>442.0</ele><time>2026-04-17T12:07:59.614Z</time></trkpt><trkpt lat="42.6592367" lon="12.1219933"><ele>442.0</ele><time>2026-04-17T12:08:00.614Z</time></trkpt><trkpt lat="42.6593433" lon="12.122065"><ele>442.0</ele><time>2026-04-17T12:08:01.614Z</time></trkpt><trkpt lat="42.6594483" lon="12.122135"><ele>442.0</ele><time>2026-04-17T12:08:02.614Z</time></trkpt><trkpt lat="42.6595533" lon="12.1221917"><ele>441.6</ele><time>2026-04-17T12:08:03.614Z</time></trkpt><trkpt lat="42.6596433" lon="12.12225"><ele>441.20000000000005</ele><time>2026-04-17T12:08:04.613Z</time></trkpt><trkpt lat="42.6597367" lon="12.1223167"><ele>440.8</ele><time>2026-04-17T12:08:05.614Z</time></trkpt><trkpt lat="42.6598317" lon="12.12239"><ele>440.4</ele><time>2026-04-17T12:08:06.613Z</time></trkpt><trkpt lat="42.659935" lon="12.122475"><ele>440.0</ele><time>2026-04-17T12:08:07.613Z</time></trkpt><trkpt lat="42.66004" lon="12.1225867"><ele>440.0</ele><time>2026-04-17T12:08:08.614Z</time></trkpt><trkpt lat="42.6601433" lon="12.122715"><ele>440.0</ele><time>2026-04-17T12:08:09.614Z</time></trkpt><trkpt lat="42.6602483" lon="12.1228533"><ele>440.0</ele><time>2026-04-17T12:08:10.613Z</time></trkpt><trkpt lat="42.6603533" lon="12.1229733"><ele>440.0</ele><time>2026-04-17T12:08:11.614Z</time></trkpt><trkpt lat="42.6604433" lon="12.1231067"><ele>438.8</ele><time>2026-04-17T12:08:12.614Z</time></trkpt><trkpt lat="42.660535" lon="12.123215"><ele>437.6</ele><time>2026-04-17T12:08:13.614Z</time></trkpt><trkpt lat="42.6606233" lon="12.1233183"><ele>436.4</ele><time>2026-04-17T12:08:14.614Z</time></trkpt><trkpt lat="42.6607" lon="12.1234133"><ele>435.2</ele><time>2026-04-17T12:08:15.614Z</time></trkpt><trkpt lat="42.6607667" lon="12.123515"><ele>434.0</ele><time>2026-04-17T12:08:16.613Z</time></trkpt><trkpt lat="42.6608267" lon="12.123625"><ele>434.0</ele><time>2026-04-17T12:08:17.614Z</time></trkpt><trkpt lat="42.660875" lon="12.123755"><ele>434.0</ele><time>2026-04-17T12:08:18.614Z</time></trkpt><trkpt lat="42.6609083" lon="12.12389"><ele>434.0</ele><time>2026-04-17T12:08:19.614Z</time></trkpt><trkpt lat="42.6609317" lon="12.1240233"><ele>434.0</ele><time>2026-04-17T12:08:20.614Z</time></trkpt><trkpt lat="42.6609567" lon="12.1241517"><ele>434.0</ele><time>2026-04-17T12:08:21.614Z</time></trkpt><trkpt lat="42.6609833" lon="12.1242717"><ele>433.2</ele><time>2026-04-17T12:08:22.614Z</time></trkpt><trkpt lat="42.6610117" lon="12.12439"><ele>432.4</ele><time>2026-04-17T12:08:23.614Z</time></trkpt><trkpt lat="42.6610317" lon="12.1245133"><ele>431.6</ele><time>2026-04-17T12:08:24.614Z</time></trkpt><trkpt lat="42.6610567" lon="12.1246717"><ele>430.8</ele><time>2026-04-17T12:08:25.614Z</time></trkpt><trkpt lat="42.6610533" lon="12.124825"><ele>430.0</ele><time>2026-04-17T12:08:26.614Z</time></trkpt><trkpt lat="42.6610667" lon="12.1249983"><ele>427.75</ele><time>2026-04-17T12:08:27.614Z</time></trkpt><trkpt lat="42.66108" lon="12.12517"><ele>425.5</ele><time>2026-04-17T12:08:28.614Z</time></trkpt><trkpt lat="42.66109" lon="12.125355"><ele>423.25</ele><time>2026-04-17T12:08:29.614Z</time></trkpt><trkpt lat="42.6611017" lon="12.125545"><ele>421.0</ele><time>2026-04-17T12:08:30.614Z</time></trkpt><trkpt lat="42.6611083" lon="12.125735"><ele>419.75</ele><time>2026-04-17T12:08:31.614Z</time></trkpt><trkpt lat="42.6611133" lon="12.12593"><ele>418.5</ele><time>2026-04-17T12:08:32.614Z</time></trkpt><trkpt lat="42.6611183" lon="12.12611"><ele>417.25</ele><time>2026-04-17T12:08:33.613Z</time></trkpt><trkpt lat="42.6611317" lon="12.1262933"><ele>416.0</ele><time>2026-04-17T12:08:34.614Z</time></trkpt><trkpt lat="42.661145" lon="12.1264717"><ele>415.75</ele><time>2026-04-17T12:08:35.614Z</time></trkpt><trkpt lat="42.6611733" lon="12.126655"><ele>415.5</ele><time>2026-04-17T12:08:36.614Z</time></trkpt><trkpt lat="42.661225" lon="12.1268383"><ele>415.25</ele><time>2026-04-17T12:08:37.614Z</time></trkpt><trkpt lat="42.6612833" lon="12.1270117"><ele>415.0</ele><time>2026-04-17T12:08:38.614Z</time></trkpt><trkpt lat="42.6613567" lon="12.127155"><ele>415.0</ele><time>2026-04-17T12:08:39.614Z</time></trkpt><trkpt lat="42.661445" lon="12.12728"><ele>415.0</ele><time>2026-04-17T12:08:40.614Z</time></trkpt><trkpt lat="42.6615417" lon="12.1274033"><ele>415.0</ele><time>2026-04-17T12:08:41.614Z</time></trkpt><trkpt lat="42.6616517" lon="12.127535"><ele>415.0</ele><time>2026-04-17T12:08:42.613Z</time></trkpt><trkpt lat="42.6617683" lon="12.12767"><ele>415.5</ele><time>2026-04-17T12:08:43.614Z</time></trkpt><trkpt lat="42.661885" lon="12.1278117"><ele>416.0</ele><time>2026-04-17T12:08:44.613Z</time></trkpt><trkpt lat="42.6619933" lon="12.1279417"><ele>416.5</ele><time>2026-04-17T12:08:45.613Z</time></trkpt><trkpt lat="42.6620917" lon="12.1280567"><ele>417.0</ele><time>2026-04-17T12:08:46.614Z</time></trkpt><trkpt lat="42.6621833" lon="12.1281717"><ele>419.0</ele><time>2026-04-17T12:08:47.614Z</time></trkpt><trkpt lat="42.6622567" lon="12.1282917"><ele>421.0</ele><time>2026-04-17T12:08:48.614Z</time></trkpt><trkpt lat="42.6623233" lon="12.1284217"><ele>423.0</ele><time>2026-04-17T12:08:49.614Z</time></trkpt><trkpt lat="42.662385" lon="12.12856"><ele>425.0</ele><time>2026-04-17T12:08:50.614Z</time></trkpt><trkpt lat="42.662455" lon="12.1287133"><ele>425.0</ele><time>2026-04-17T12:08:51.613Z</time></trkpt><trkpt lat="42.6625333" lon="12.128875"><ele>425.0</ele><time>2026-04-17T12:08:52.614Z</time></trkpt><trkpt lat="42.6626117" lon="12.129055"><ele>425.0</ele><time>2026-04-17T12:08:53.614Z</time></trkpt><trkpt lat="42.662695" lon="12.1292333"><ele>425.0</ele><time>2026-04-17T12:08:54.613Z</time></trkpt><trkpt lat="42.6627867" lon="12.1294217"><ele>425.0</ele><time>2026-04-17T12:08:55.613Z</time></trkpt><trkpt lat="42.6628767" lon="12.1295983"><ele>425.0</ele><time>2026-04-17T12:08:56.614Z</time></trkpt><trkpt lat="42.6629633" lon="12.129765"><ele>424.75</ele><time>2026-04-17T12:08:57.614Z</time></trkpt><trkpt lat="42.6630417" lon="12.1299333"><ele>424.5</ele><time>2026-04-17T12:08:58.614Z</time></trkpt><trkpt lat="42.6631267" lon="12.130085"><ele>424.25</ele><time>2026-04-17T12:08:59.614Z</time></trkpt><trkpt lat="42.6632017" lon="12.13023"><ele>424.0</ele><time>2026-04-17T12:09:00.614Z</time></trkpt><trkpt lat="42.6632633" lon="12.1303667"><ele>424.0</ele><time>2026-04-17T12:09:01.614Z</time></trkpt><trkpt lat="42.6633167" lon="12.130495"><ele>424.0</ele><time>2026-04-17T12:09:02.613Z</time></trkpt><trkpt lat="42.6633717" lon="12.1306217"><ele>424.0</ele><time>2026-04-17T12:09:03.614Z</time></trkpt><trkpt lat="42.6634183" lon="12.13073"><ele>424.0</ele><time>2026-04-17T12:09:04.613Z</time></trkpt><trkpt lat="42.6634667" lon="12.13082"><ele>424.0</ele><time>2026-04-17T12:09:05.614Z</time></trkpt><trkpt lat="42.6635167" lon="12.1309033"><ele>423.50000000000006</ele><time>2026-04-17T12:09:06.614Z</time></trkpt><trkpt lat="42.6635683" lon="12.1309717"><ele>423.0</ele><time>2026-04-17T12:09:07.614Z</time></trkpt><trkpt lat="42.6636317" lon="12.131035"><ele>422.5</ele><time>2026-04-17T12:09:08.614Z</time></trkpt><trkpt lat="42.6637" lon="12.13109"><ele>422.0</ele><time>2026-04-17T12:09:09.613Z</time></trkpt><trkpt lat="42.6637717" lon="12.13113"><ele>421.50000000000006</ele><time>2026-04-17T12:09:10.613Z</time></trkpt><trkpt lat="42.66386" lon="12.13115"><ele>421.0</ele><time>2026-04-17T12:09:11.614Z</time></trkpt><trkpt lat="42.6639717" lon="12.131175"><ele>419.0</ele><time>2026-04-17T12:09:12.614Z</time></trkpt><trkpt lat="42.6640933" lon="12.1311933"><ele>417.0</ele><time>2026-04-17T12:09:13.614Z</time></trkpt><trkpt lat="42.6642133" lon="12.1312317"><ele>415.0</ele><time>2026-04-17T12:09:14.614Z</time></trkpt><trkpt lat="42.664345" lon="12.1312767"><ele>413.0</ele><time>2026-04-17T12:09:15.614Z</time></trkpt><trkpt lat="42.6644733" lon="12.1313067"><ele>411.25</ele><time>2026-04-17T12:09:16.614Z</time></trkpt><trkpt lat="42.6646133" lon="12.1313483"><ele>409.5</ele><time>2026-04-17T12:09:17.614Z</time></trkpt><trkpt lat="42.6647517" lon="12.1313933"><ele>407.75</ele><time>2026-04-17T12:09:18.614Z</time></trkpt><trkpt lat="42.664895" lon="12.13143"><ele>406.0</ele><time>2026-04-17T12:09:19.613Z</time></trkpt><trkpt lat="42.66504" lon="12.131455"><ele>406.0</ele><time>2026-04-17T12:09:20.614Z</time></trkpt><trkpt lat="42.665175" lon="12.1314833"><ele>406.0</ele><time>2026-04-17T12:09:21.614Z</time></trkpt><trkpt lat="42.66531" lon="12.1315283"><ele>406.0</ele><time>2026-04-17T12:09:22.614Z</time></trkpt><trkpt lat="42.6654383" lon="12.13157"><ele>406.0</ele><time>2026-04-17T12:09:23.614Z</time></trkpt><trkpt lat="42.6655767" lon="12.1316033"><ele>406.25</ele><time>2026-04-17T12:09:24.614Z</time></trkpt><trkpt lat="42.665705" lon="12.1316433"><ele>406.5</ele><time>2026-04-17T12:09:25.614Z</time></trkpt><trkpt lat="42.66584" lon="12.1316783"><ele>406.75</ele><time>2026-04-17T12:09:26.614Z</time></trkpt><trkpt lat="42.6659667" lon="12.1317067"><ele>407.0</ele><time>2026-04-17T12:09:27.614Z</time></trkpt><trkpt lat="42.66609" lon="12.1317433"><ele>406.5</ele><time>2026-04-17T12:09:28.614Z</time></trkpt><trkpt lat="42.66622" lon="12.131785"><ele>406.0</ele><time>2026-04-17T12:09:29.614Z</time></trkpt><trkpt lat="42.6663333" lon="12.1318217"><ele>405.5</ele><time>2026-04-17T12:09:30.614Z</time></trkpt><trkpt lat="42.6664517" lon="12.1318633"><ele>405.0</ele><time>2026-04-17T12:09:31.614Z</time></trkpt><trkpt lat="42.6665633" lon="12.1319117"><ele>405.0</ele><time>2026-04-17T12:09:32.614Z</time></trkpt><trkpt lat="42.66668" lon="12.1319633"><ele>405.0</ele><time>2026-04-17T12:09:33.614Z</time></trkpt><trkpt lat="42.6668" lon="12.132025"><ele>405.0</ele><time>2026-04-17T12:09:34.614Z</time></trkpt><trkpt lat="42.6669217" lon="12.1320967"><ele>405.0</ele><time>2026-04-17T12:09:35.613Z</time></trkpt><trkpt lat="42.6670433" lon="12.1321783"><ele>405.75</ele><time>2026-04-17T12:09:36.614Z</time></trkpt><trkpt lat="42.6671683" lon="12.1322617"><ele>406.5</ele><time>2026-04-17T12:09:37.613Z</time></trkpt><trkpt lat="42.6673" lon="12.1323433"><ele>407.25</ele><time>2026-04-17T12:09:38.614Z</time></trkpt><trkpt lat="42.6674233" lon="12.1324283"><ele>408.0</ele><time>2026-04-17T12:09:39.613Z</time></trkpt><trkpt lat="42.667535" lon="12.1325083"><ele>406.2</ele><time>2026-04-17T12:09:40.614Z</time></trkpt><trkpt lat="42.66764" lon="12.1325917"><ele>404.4</ele><time>2026-04-17T12:09:41.614Z</time></trkpt><trkpt lat="42.6677367" lon="12.13267"><ele>402.59999999999997</ele><time>2026-04-17T12:09:42.614Z</time></trkpt><trkpt lat="42.6678267" lon="12.1327383"><ele>400.79999999999995</ele><time>2026-04-17T12:09:43.614Z</time></trkpt><trkpt lat="42.667915" lon="12.1327967"><ele>399.0</ele><time>2026-04-17T12:09:44.614Z</time></trkpt><trkpt lat="42.6679933" lon="12.1328583"><ele>399.0</ele><time>2026-04-17T12:09:45.614Z</time></trkpt><trkpt lat="42.6680733" lon="12.1329217"><ele>399.0</ele><time>2026-04-17T12:09:46.614Z</time></trkpt><trkpt lat="42.6681517" lon="12.13298"><ele>399.0</ele><time>2026-04-17T12:09:47.614Z</time></trkpt><trkpt lat="42.6682233" lon="12.13304"><ele>399.0</ele><time>2026-04-17T12:09:48.614Z</time></trkpt><trkpt lat="42.6682883" lon="12.1330967"><ele>399.0</ele><time>2026-04-17T12:09:49.614Z</time></trkpt><trkpt lat="42.668355" lon="12.1331383"><ele>399.0</ele><time>2026-04-17T12:09:50.613Z</time></trkpt><trkpt lat="42.6684317" lon="12.1331617"><ele>399.0</ele><time>2026-04-17T12:09:51.614Z</time></trkpt><trkpt lat="42.66852" lon="12.133165"><ele>399.0</ele><time>2026-04-17T12:09:52.614Z</time></trkpt><trkpt lat="42.6685983" lon="12.133155"><ele>399.0</ele><time>2026-04-17T12:09:53.614Z</time></trkpt><trkpt lat="42.6686833" lon="12.1331383"><ele>399.0</ele><time>2026-04-17T12:09:54.614Z</time></trkpt><trkpt lat="42.6687617" lon="12.1331317"><ele>399.0</ele><time>2026-04-17T12:09:55.614Z</time></trkpt><trkpt lat="42.6688433" lon="12.1331267"><ele>399.0</ele><time>2026-04-17T12:09:56.613Z</time></trkpt><trkpt lat="42.6689233" lon="12.1331283"><ele>397.5</ele><time>2026-04-17T12:09:57.614Z</time></trkpt><trkpt lat="42.669005" lon="12.1331383"><ele>396.0</ele><time>2026-04-17T12:09:58.614Z</time></trkpt><trkpt lat="42.6690817" lon="12.1331767"><ele>394.5</ele><time>2026-04-17T12:09:59.614Z</time></trkpt><trkpt lat="42.6691533" lon="12.1332367"><ele>393.0</ele><time>2026-04-17T12:10:00.613Z</time></trkpt><trkpt lat="42.6692267" lon="12.1333183"><ele>391.5</ele><time>2026-04-17T12:10:01.614Z</time></trkpt><trkpt lat="42.669295" lon="12.1334217"><ele>390.0</ele><time>2026-04-17T12:10:02.613Z</time></trkpt><trkpt lat="42.6693583" lon="12.1335267"><ele>388.5</ele><time>2026-04-17T12:10:03.614Z</time></trkpt><trkpt lat="42.6694233" lon="12.1336533"><ele>387.0</ele><time>2026-04-17T12:10:04.613Z</time></trkpt><trkpt lat="42.6694867" lon="12.1337783"><ele>385.5</ele><time>2026-04-17T12:10:05.614Z</time></trkpt><trkpt lat="42.6695533" lon="12.133925"><ele>384.0</ele><time>2026-04-17T12:10:06.614Z</time></trkpt><trkpt lat="42.6696117" lon="12.13407"><ele>381.5</ele><time>2026-04-17T12:10:07.614Z</time></trkpt><trkpt lat="42.6696683" lon="12.1342183"><ele>379.0</ele><time>2026-04-17T12:10:08.614Z</time></trkpt><trkpt lat="42.66972" lon="12.13437"><ele>376.5</ele><time>2026-04-17T12:10:09.614Z</time></trkpt><trkpt lat="42.6697767" lon="12.1345167"><ele>374.0</ele><time>2026-04-17T12:10:10.614Z</time></trkpt><trkpt lat="42.66983" lon="12.1346617"><ele>374.0</ele><time>2026-04-17T12:10:11.614Z</time></trkpt><trkpt lat="42.6698867" lon="12.1348033"><ele>374.0</ele><time>2026-04-17T12:10:12.614Z</time></trkpt><trkpt lat="42.66994" lon="12.1349333"><ele>374.0</ele><time>2026-04-17T12:10:13.614Z</time></trkpt><trkpt lat="42.6699933" lon="12.1350667"><ele>374.0</ele><time>2026-04-17T12:10:14.614Z</time></trkpt><trkpt lat="42.6700417" lon="12.1351917"><ele>374.0</ele><time>2026-04-17T12:10:15.614Z</time></trkpt><trkpt lat="42.670095" lon="12.135305"><ele>373.2</ele><time>2026-04-17T12:10:16.614Z</time></trkpt><trkpt lat="42.670165" lon="12.1353967"><ele>372.4</ele><time>2026-04-17T12:10:17.614Z</time></trkpt><trkpt lat="42.6702383" lon="12.1354733"><ele>371.6</ele><time>2026-04-17T12:10:18.614Z</time></trkpt><trkpt lat="42.6703117" lon="12.1355517"><ele>370.8</ele><time>2026-04-17T12:10:19.614Z</time></trkpt><trkpt lat="42.670375" lon="12.1356417"><ele>370.0</ele><time>2026-04-17T12:10:20.614Z</time></trkpt><trkpt lat="42.6704383" lon="12.1357583"><ele>368.25</ele><time>2026-04-17T12:10:21.613Z</time></trkpt><trkpt lat="42.670495" lon="12.1358883"><ele>366.5</ele><time>2026-04-17T12:10:22.614Z</time></trkpt><trkpt lat="42.6705583" lon="12.1360383"><ele>364.75</ele><time>2026-04-17T12:10:23.614Z</time></trkpt><trkpt lat="42.6706283" lon="12.136205"><ele>363.0</ele><time>2026-04-17T12:10:24.614Z</time></trkpt><trkpt lat="42.6706983" lon="12.1363833"><ele>363.25</ele><time>2026-04-17T12:10:25.614Z</time></trkpt><trkpt lat="42.6707767" lon="12.1365633"><ele>363.5</ele><time>2026-04-17T12:10:26.613Z</time></trkpt><trkpt lat="42.6708533" lon="12.1367367"><ele>363.75</ele><time>2026-04-17T12:10:27.613Z</time></trkpt><trkpt lat="42.6709233" lon="12.1368933"><ele>364.0</ele><time>2026-04-17T12:10:28.614Z</time></trkpt><trkpt lat="42.670985" lon="12.1370283"><ele>364.0</ele><time>2026-04-17T12:10:29.613Z</time></trkpt><trkpt lat="42.6710433" lon="12.13715"><ele>364.0</ele><time>2026-04-17T12:10:30.614Z</time></trkpt><trkpt lat="42.6711067" lon="12.1372767"><ele>364.0</ele><time>2026-04-17T12:10:31.614Z</time></trkpt><trkpt lat="42.67118" lon="12.1373983"><ele>364.0</ele><time>2026-04-17T12:10:32.614Z</time></trkpt><trkpt lat="42.6712583" lon="12.1375233"><ele>362.5</ele><time>2026-04-17T12:10:33.613Z</time></trkpt><trkpt lat="42.671335" lon="12.137645"><ele>361.0</ele><time>2026-04-17T12:10:34.614Z</time></trkpt><trkpt lat="42.67141" lon="12.1377617"><ele>359.5</ele><time>2026-04-17T12:10:35.614Z</time></trkpt><trkpt lat="42.6714817" lon="12.1378733"><ele>358.0</ele><time>2026-04-17T12:10:36.613Z</time></trkpt><trkpt lat="42.6715583" lon="12.1379883"><ele>358.0</ele><time>2026-04-17T12:10:37.614Z</time></trkpt><trkpt lat="42.6716367" lon="12.1381067"><ele>358.0</ele><time>2026-04-17T12:10:38.614Z</time></trkpt><trkpt lat="42.6717133" lon="12.138225"><ele>358.0</ele><time>2026-04-17T12:10:39.614Z</time></trkpt><trkpt lat="42.6717967" lon="12.1383433"><ele>358.0</ele><time>2026-04-17T12:10:40.614Z</time></trkpt><trkpt lat="42.6718767" lon="12.1384667"><ele>355.5</ele><time>2026-04-17T12:10:41.613Z</time></trkpt><trkpt lat="42.6719567" lon="12.1385817"><ele>353.0</ele><time>2026-04-17T12:10:42.614Z</time></trkpt><trkpt lat="42.6720367" lon="12.1386917"><ele>350.5</ele><time>2026-04-17T12:10:43.613Z</time></trkpt><trkpt lat="42.6721133" lon="12.138805"><ele>348.0</ele><time>2026-04-17T12:10:44.614Z</time></trkpt><trkpt lat="42.672195" lon="12.1389167"><ele>348.0</ele><time>2026-04-17T12:10:45.613Z</time></trkpt><trkpt lat="42.67227" lon="12.1390217"><ele>348.0</ele><time>2026-04-17T12:10:46.614Z</time></trkpt><trkpt lat="42.672335" lon="12.139125"><ele>348.0</ele><time>2026-04-17T12:10:47.614Z</time></trkpt><trkpt lat="42.6723833" lon="12.13923"><ele>348.0</ele><time>2026-04-17T12:10:48.614Z</time></trkpt><trkpt lat="42.67242" lon="12.1393383"><ele>348.0</ele><time>2026-04-17T12:10:49.613Z</time></trkpt><trkpt lat="42.6724383" lon="12.1394783"><ele>348.0</ele><time>2026-04-17T12:10:50.613Z</time></trkpt><trkpt lat="42.67244" lon="12.1396183"><ele>348.0</ele><time>2026-04-17T12:10:51.614Z</time></trkpt><trkpt lat="42.6724333" lon="12.1397583"><ele>348.0</ele><time>2026-04-17T12:10:52.614Z</time></trkpt><trkpt lat="42.6724283" lon="12.1399"><ele>348.0</ele><time>2026-04-17T12:10:53.613Z</time></trkpt><trkpt lat="42.67243" lon="12.14005"><ele>348.0</ele><time>2026-04-17T12:10:54.614Z</time></trkpt><trkpt lat="42.6724483" lon="12.1402"><ele>347.75</ele><time>2026-04-17T12:10:55.614Z</time></trkpt><trkpt lat="42.6724717" lon="12.1403567"><ele>347.5</ele><time>2026-04-17T12:10:56.613Z</time></trkpt><trkpt lat="42.6725083" lon="12.140525"><ele>347.25</ele><time>2026-04-17T12:10:57.614Z</time></trkpt><trkpt lat="42.6725417" lon="12.1406983"><ele>347.0</ele><time>2026-04-17T12:10:58.614Z</time></trkpt><trkpt lat="42.67257" lon="12.140875"><ele>347.0</ele><time>2026-04-17T12:10:59.614Z</time></trkpt><trkpt lat="42.6726" lon="12.1410383"><ele>347.0</ele><time>2026-04-17T12:11:00.614Z</time></trkpt><trkpt lat="42.6726333" lon="12.141205"><ele>347.0</ele><time>2026-04-17T12:11:01.614Z</time></trkpt><trkpt lat="42.672665" lon="12.1413833"><ele>347.0</ele><time>2026-04-17T12:11:02.614Z</time></trkpt><trkpt lat="42.672695" lon="12.14156"><ele>346.25</ele><time>2026-04-17T12:11:03.614Z</time></trkpt><trkpt lat="42.672725" lon="12.1417367"><ele>345.5</ele><time>2026-04-17T12:11:04.614Z</time></trkpt><trkpt lat="42.67276" lon="12.1419133"><ele>344.75</ele><time>2026-04-17T12:11:05.614Z</time></trkpt><trkpt lat="42.6727917" lon="12.142075"><ele>344.0</ele><time>2026-04-17T12:11:06.614Z</time></trkpt><trkpt lat="42.6728333" lon="12.1422367"><ele>343.5</ele><time>2026-04-17T12:11:07.614Z</time></trkpt><trkpt lat="42.67288" lon="12.1424067"><ele>343.0</ele><time>2026-04-17T12:11:08.613Z</time></trkpt><trkpt lat="42.6729267" lon="12.14259"><ele>342.5</ele><time>2026-04-17T12:11:09.613Z</time></trkpt><trkpt lat="42.6729717" lon="12.142795"><ele>342.0</ele><time>2026-04-17T12:11:10.613Z</time></trkpt><trkpt lat="42.673015" lon="12.14299"><ele>342.0</ele><time>2026-04-17T12:11:11.614Z</time></trkpt><trkpt lat="42.67305" lon="12.14317"><ele>342.0</ele><time>2026-04-17T12:11:12.613Z</time></trkpt><trkpt lat="42.6730783" lon="12.14334"><ele>342.0</ele><time>2026-04-17T12:11:13.614Z</time></trkpt><trkpt lat="42.6731067" lon="12.143505"><ele>342.0</ele><time>2026-04-17T12:11:14.614Z</time></trkpt><trkpt lat="42.6731383" lon="12.143675"><ele>342.6666666666667</ele><time>2026-04-17T12:11:15.613Z</time></trkpt><trkpt lat="42.67317" lon="12.1438583"><ele>343.33333333333337</ele><time>2026-04-17T12:11:16.614Z</time></trkpt><trkpt lat="42.6732" lon="12.1440633"><ele>344.0</ele><time>2026-04-17T12:11:17.613Z</time></trkpt><trkpt lat="42.6732283" lon="12.1442767"><ele>344.0</ele><time>2026-04-17T12:11:18.614Z</time></trkpt><trkpt lat="42.6732667" lon="12.1445017"><ele>344.0</ele><time>2026-04-17T12:11:19.614Z</time></trkpt><trkpt lat="42.6733083" lon="12.1447217"><ele>344.0</ele><time>2026-04-17T12:11:20.614Z</time></trkpt><trkpt lat="42.6733483" lon="12.1449417"><ele>344.0</ele><time>2026-04-17T12:11:21.614Z</time></trkpt><trkpt lat="42.6733817" lon="12.1451383"><ele>344.0</ele><time>2026-04-17T12:11:22.613Z</time></trkpt><trkpt lat="42.67341" lon="12.1453083"><ele>344.0</ele><time>2026-04-17T12:11:23.614Z</time></trkpt><trkpt lat="42.6734333" lon="12.1454583"><ele>344.0</ele><time>2026-04-17T12:11:24.614Z</time></trkpt><trkpt lat="42.67346" lon="12.1455933"><ele>344.4</ele><time>2026-04-17T12:11:25.614Z</time></trkpt><trkpt lat="42.6734817" lon="12.1457233"><ele>344.79999999999995</ele><time>2026-04-17T12:11:26.614Z</time></trkpt><trkpt lat="42.6735167" lon="12.14585"><ele>345.20000000000005</ele><time>2026-04-17T12:11:27.614Z</time></trkpt><trkpt lat="42.67357" lon="12.1459617"><ele>345.6</ele><time>2026-04-17T12:11:28.614Z</time></trkpt><trkpt lat="42.673635" lon="12.14607"><ele>346.0</ele><time>2026-04-17T12:11:29.614Z</time></trkpt><trkpt lat="42.67371" lon="12.14617"><ele>345.8</ele><time>2026-04-17T12:11:30.613Z</time></trkpt><trkpt lat="42.67378" lon="12.14627"><ele>345.6</ele><time>2026-04-17T12:11:31.614Z</time></trkpt><trkpt lat="42.6738533" lon="12.146375"><ele>345.4</ele><time>2026-04-17T12:11:32.613Z</time></trkpt><trkpt lat="42.6739267" lon="12.1464717"><ele>345.2</ele><time>2026-04-17T12:11:33.614Z</time></trkpt><trkpt lat="42.674005" lon="12.1465533"><ele>345.0</ele><time>2026-04-17T12:11:34.613Z</time></trkpt><trkpt lat="42.6740983" lon="12.1466133"><ele>345.0</ele><time>2026-04-17T12:11:35.613Z</time></trkpt><trkpt lat="42.6741933" lon="12.1466733"><ele>345.0</ele><time>2026-04-17T12:11:36.614Z</time></trkpt><trkpt lat="42.6742933" lon="12.1467267"><ele>345.0</ele><time>2026-04-17T12:11:37.614Z</time></trkpt><trkpt lat="42.6743767" lon="12.1467833"><ele>345.0</ele><time>2026-04-17T12:11:38.614Z</time></trkpt><trkpt lat="42.6744433" lon="12.1468433"><ele>345.0</ele><time>2026-04-17T12:11:39.614Z</time></trkpt><trkpt lat="42.6744933" lon="12.1469167"><ele>344.6666666666667</ele><time>2026-04-17T12:11:40.613Z</time></trkpt><trkpt lat="42.6745467" lon="12.146985"><ele>344.3333333333333</ele><time>2026-04-17T12:11:41.613Z</time></trkpt><trkpt lat="42.6745983" lon="12.1470433"><ele>344.0</ele><time>2026-04-17T12:11:42.614Z</time></trkpt><trkpt lat="42.6746617" lon="12.147095"><ele>343.66666666666663</ele><time>2026-04-17T12:11:43.614Z</time></trkpt><trkpt lat="42.674745" lon="12.1471183"><ele>343.3333333333333</ele><time>2026-04-17T12:11:44.614Z</time></trkpt><trkpt lat="42.6748417" lon="12.1471383"><ele>343.0</ele><time>2026-04-17T12:11:45.614Z</time></trkpt><trkpt lat="42.6749533" lon="12.1471583"><ele>343.0</ele><time>2026-04-17T12:11:46.614Z</time></trkpt><trkpt lat="42.6750867" lon="12.1471867"><ele>343.0</ele><time>2026-04-17T12:11:47.614Z</time></trkpt><trkpt lat="42.67522" lon="12.1472133"><ele>343.0</ele><time>2026-04-17T12:11:48.613Z</time></trkpt><trkpt lat="42.6753633" lon="12.147245"><ele>343.0</ele><time>2026-04-17T12:11:49.614Z</time></trkpt><trkpt lat="42.6755067" lon="12.1472717"><ele>341.75</ele><time>2026-04-17T12:11:50.613Z</time></trkpt><trkpt lat="42.6756517" lon="12.1472967"><ele>340.5</ele><time>2026-04-17T12:11:51.614Z</time></trkpt><trkpt lat="42.6757967" lon="12.1473267"><ele>339.25</ele><time>2026-04-17T12:11:52.613Z</time></trkpt><trkpt lat="42.6759333" lon="12.1473517"><ele>338.0</ele><time>2026-04-17T12:11:53.613Z</time></trkpt><trkpt lat="42.6760767" lon="12.1473733"><ele>336.75</ele><time>2026-04-17T12:11:54.614Z</time></trkpt><trkpt lat="42.6762183" lon="12.1473933"><ele>335.5</ele><time>2026-04-17T12:11:55.614Z</time></trkpt><trkpt lat="42.6763567" lon="12.147415"><ele>334.25</ele><time>2026-04-17T12:11:56.614Z</time></trkpt><trkpt lat="42.6764967" lon="12.1474333"><ele>333.0</ele><time>2026-04-17T12:11:57.614Z</time></trkpt><trkpt lat="42.6766433" lon="12.1474567"><ele>333.0</ele><time>2026-04-17T12:11:58.614Z</time></trkpt><trkpt lat="42.6767867" lon="12.147485"><ele>333.0</ele><time>2026-04-17T12:11:59.614Z</time></trkpt><trkpt lat="42.676935" lon="12.1475117"><ele>333.0</ele><time>2026-04-17T12:12:00.614Z</time></trkpt><trkpt lat="42.6770833" lon="12.1475367"><ele>333.0</ele><time>2026-04-17T12:12:01.613Z</time></trkpt><trkpt lat="42.67724" lon="12.1475667"><ele>332.0</ele><time>2026-04-17T12:12:02.614Z</time></trkpt><trkpt lat="42.6773883" lon="12.1476"><ele>331.0</ele><time>2026-04-17T12:12:03.614Z</time></trkpt><trkpt lat="42.6775383" lon="12.1476267"><ele>330.0</ele><time>2026-04-17T12:12:04.614Z</time></trkpt><trkpt lat="42.67769" lon="12.14765"><ele>329.3333333333333</ele><time>2026-04-17T12:12:05.614Z</time></trkpt><trkpt lat="42.677845" lon="12.1476817"><ele>328.66666666666663</ele><time>2026-04-17T12:12:06.614Z</time></trkpt><trkpt lat="42.6779983" lon="12.147705"><ele>328.0</ele><time>2026-04-17T12:12:07.613Z</time></trkpt><trkpt lat="42.678155" lon="12.14773"><ele>328.0</ele><time>2026-04-17T12:12:08.614Z</time></trkpt><trkpt lat="42.67831" lon="12.1477617"><ele>328.0</ele><time>2026-04-17T12:12:09.613Z</time></trkpt><trkpt lat="42.6784617" lon="12.1477867"><ele>328.0</ele><time>2026-04-17T12:12:10.614Z</time></trkpt><trkpt lat="42.6786083" lon="12.1478083"><ele>327.5</ele><time>2026-04-17T12:12:11.614Z</time></trkpt><trkpt lat="42.6787433" lon="12.1478317"><ele>327.0</ele><time>2026-04-17T12:12:12.613Z</time></trkpt><trkpt lat="42.6788767" lon="12.1478533"><ele>326.5</ele><time>2026-04-17T12:12:13.614Z</time></trkpt><trkpt lat="42.6790183" lon="12.1478783"><ele>326.0</ele><time>2026-04-17T12:12:14.614Z</time></trkpt><trkpt lat="42.6791583" lon="12.1478983"><ele>326.0</ele><time>2026-04-17T12:12:15.613Z</time></trkpt><trkpt lat="42.679295" lon="12.1479233"><ele>326.0</ele><time>2026-04-17T12:12:16.613Z</time></trkpt><trkpt lat="42.67944" lon="12.14795"><ele>326.0</ele><time>2026-04-17T12:12:17.614Z</time></trkpt><trkpt lat="42.6795817" lon="12.1479783"><ele>326.0</ele><time>2026-04-17T12:12:18.613Z</time></trkpt><trkpt lat="42.6797267" lon="12.1480067"><ele>325.75</ele><time>2026-04-17T12:12:19.614Z</time></trkpt><trkpt lat="42.67987" lon="12.14804"><ele>325.5</ele><time>2026-04-17T12:12:20.613Z</time></trkpt><trkpt lat="42.6800183" lon="12.1480617"><ele>325.25</ele><time>2026-04-17T12:12:21.613Z</time></trkpt><trkpt lat="42.6801683" lon="12.1480867"><ele>325.0</ele><time>2026-04-17T12:12:22.614Z</time></trkpt><trkpt lat="42.68031" lon="12.1481067"><ele>325.0</ele><time>2026-04-17T12:12:23.614Z</time></trkpt><trkpt lat="42.6804567" lon="12.1481317"><ele>325.0</ele><time>2026-04-17T12:12:24.614Z</time></trkpt><trkpt lat="42.6806117" lon="12.14816"><ele>325.0</ele><time>2026-04-17T12:12:25.614Z</time></trkpt><trkpt lat="42.680755" lon="12.1481883"><ele>325.0</ele><time>2026-04-17T12:12:26.614Z</time></trkpt><trkpt lat="42.6808883" lon="12.148215"><ele>325.75</ele><time>2026-04-17T12:12:27.614Z</time></trkpt><trkpt lat="42.68101" lon="12.1482367"><ele>326.5</ele><time>2026-04-17T12:12:28.614Z</time></trkpt><trkpt lat="42.6811233" lon="12.148255"><ele>327.25</ele><time>2026-04-17T12:12:29.614Z</time></trkpt><trkpt lat="42.6812383" lon="12.1482733"><ele>328.0</ele><time>2026-04-17T12:12:30.614Z</time></trkpt><trkpt lat="42.6813783" lon="12.1482983"><ele>328.66666666666663</ele><time>2026-04-17T12:12:31.614Z</time></trkpt><trkpt lat="42.6815317" lon="12.148325"><ele>329.3333333333333</ele><time>2026-04-17T12:12:32.614Z</time></trkpt><trkpt lat="42.6816817" lon="12.14836"><ele>330.0</ele><time>2026-04-17T12:12:33.614Z</time></trkpt><trkpt lat="42.6818233" lon="12.148385"><ele>330.25</ele><time>2026-04-17T12:12:34.614Z</time></trkpt><trkpt lat="42.6819617" lon="12.1484117"><ele>330.5</ele><time>2026-04-17T12:12:35.614Z</time></trkpt><trkpt lat="42.6821017" lon="12.1484333"><ele>330.75</ele><time>2026-04-17T12:12:36.614Z</time></trkpt><trkpt lat="42.682245" lon="12.14845"><ele>331.0</ele><time>2026-04-17T12:12:37.614Z</time></trkpt><trkpt lat="42.6823867" lon="12.1484717"><ele>331.0</ele><time>2026-04-17T12:12:38.614Z</time></trkpt><trkpt lat="42.6825183" lon="12.148495"><ele>331.0</ele><time>2026-04-17T12:12:39.614Z</time></trkpt><trkpt lat="42.6826367" lon="12.148515"><ele>331.0</ele><time>2026-04-17T12:12:40.614Z</time></trkpt><trkpt lat="42.6827533" lon="12.1485367"><ele>331.0</ele><time>2026-04-17T12:12:41.614Z</time></trkpt><trkpt lat="42.682865" lon="12.1485583"><ele>331.20000000000005</ele><time>2026-04-17T12:12:42.614Z</time></trkpt><trkpt lat="42.6829733" lon="12.148595"><ele>331.40000000000003</ele><time>2026-04-17T12:12:43.613Z</time></trkpt><trkpt lat="42.6830733" lon="12.1486483"><ele>331.6</ele><time>2026-04-17T12:12:44.614Z</time></trkpt><trkpt lat="42.6831617" lon="12.1487317"><ele>331.8</ele><time>2026-04-17T12:12:45.614Z</time></trkpt><trkpt lat="42.683235" lon="12.1488483"><ele>332.0</ele><time>2026-04-17T12:12:46.614Z</time></trkpt><trkpt lat="42.6833017" lon="12.148985"><ele>331.75</ele><time>2026-04-17T12:12:47.614Z</time></trkpt><trkpt lat="42.6833717" lon="12.1491267"><ele>331.5</ele><time>2026-04-17T12:12:48.614Z</time></trkpt><trkpt lat="42.6834367" lon="12.149265"><ele>331.25</ele><time>2026-04-17T12:12:49.614Z</time></trkpt><trkpt lat="42.6835017" lon="12.1494"><ele>331.0</ele><time>2026-04-17T12:12:50.614Z</time></trkpt><trkpt lat="42.6835733" lon="12.1495433"><ele>331.0</ele><time>2026-04-17T12:12:51.613Z</time></trkpt><trkpt lat="42.68365" lon="12.149695"><ele>331.0</ele><time>2026-04-17T12:12:52.614Z</time></trkpt><trkpt lat="42.6837317" lon="12.14985"><ele>331.0</ele><time>2026-04-17T12:12:53.614Z</time></trkpt><trkpt lat="42.6838183" lon="12.1499983"><ele>331.0</ele><time>2026-04-17T12:12:54.614Z</time></trkpt><trkpt lat="42.6839167" lon="12.15014"><ele>331.0</ele><time>2026-04-17T12:12:55.614Z</time></trkpt><trkpt lat="42.68402" lon="12.1502717"><ele>331.0</ele><time>2026-04-17T12:12:56.614Z</time></trkpt><trkpt lat="42.6841267" lon="12.1503833"><ele>331.0</ele><time>2026-04-17T12:12:57.614Z</time></trkpt><trkpt lat="42.6842267" lon="12.1505033"><ele>331.0</ele><time>2026-04-17T12:12:58.613Z</time></trkpt><trkpt lat="42.6843333" lon="12.1506167"><ele>330.5</ele><time>2026-04-17T12:12:59.614Z</time></trkpt><trkpt lat="42.6844383" lon="12.15071"><ele>330.0</ele><time>2026-04-17T12:13:00.614Z</time></trkpt><trkpt lat="42.6845617" lon="12.150795"><ele>329.5</ele><time>2026-04-17T12:13:01.614Z</time></trkpt><trkpt lat="42.6846817" lon="12.1508633"><ele>329.0</ele><time>2026-04-17T12:13:02.614Z</time></trkpt><trkpt lat="42.6847933" lon="12.1509333"><ele>329.0</ele><time>2026-04-17T12:13:03.613Z</time></trkpt><trkpt lat="42.6849" lon="12.1509967"><ele>329.0</ele><time>2026-04-17T12:13:04.614Z</time></trkpt><trkpt lat="42.6849967" lon="12.15103"><ele>329.0</ele><time>2026-04-17T12:13:05.613Z</time></trkpt><trkpt lat="42.6850917" lon="12.1510383"><ele>329.0</ele><time>2026-04-17T12:13:06.614Z</time></trkpt><trkpt lat="42.6852033" lon="12.1510217"><ele>329.0</ele><time>2026-04-17T12:13:07.613Z</time></trkpt><trkpt lat="42.6853183" lon="12.1509833"><ele>328.2</ele><time>2026-04-17T12:13:08.614Z</time></trkpt><trkpt lat="42.68543" lon="12.1509283"><ele>327.4</ele><time>2026-04-17T12:13:09.614Z</time></trkpt><trkpt lat="42.68554" lon="12.1508683"><ele>326.6</ele><time>2026-04-17T12:13:10.613Z</time></trkpt><trkpt lat="42.6856467" lon="12.150815"><ele>325.8</ele><time>2026-04-17T12:13:11.614Z</time></trkpt><trkpt lat="42.6857283" lon="12.15078"><ele>325.0</ele><time>2026-04-17T12:13:12.613Z</time></trkpt><trkpt lat="42.6857983" lon="12.15075"><ele>325.0</ele><time>2026-04-17T12:13:13.614Z</time></trkpt><trkpt lat="42.6858633" lon="12.15072"><ele>325.0</ele><time>2026-04-17T12:13:14.614Z</time></trkpt><trkpt lat="42.6859983" lon="12.150665"><ele>325.0</ele><time>2026-04-17T12:13:16.614Z</time></trkpt><trkpt lat="42.686085" lon="12.1506117"><ele>325.0</ele><time>2026-04-17T12:13:17.613Z</time></trkpt><trkpt lat="42.6861817" lon="12.150565"><ele>325.0</ele><time>2026-04-17T12:13:18.614Z</time></trkpt><trkpt lat="42.6862933" lon="12.1505183"><ele>325.25</ele><time>2026-04-17T12:13:19.614Z</time></trkpt><trkpt lat="42.6864167" lon="12.1504583"><ele>325.5</ele><time>2026-04-17T12:13:20.614Z</time></trkpt><trkpt lat="42.686545" lon="12.1504033"><ele>325.75</ele><time>2026-04-17T12:13:21.614Z</time></trkpt><trkpt lat="42.6866783" lon="12.150335"><ele>326.0</ele><time>2026-04-17T12:13:22.613Z</time></trkpt><trkpt lat="42.68681" lon="12.1502717"><ele>326.5</ele><time>2026-04-17T12:13:23.614Z</time></trkpt><trkpt lat="42.6869433" lon="12.150215"><ele>327.0</ele><time>2026-04-17T12:13:24.614Z</time></trkpt><trkpt lat="42.6870833" lon="12.15015"><ele>327.5</ele><time>2026-04-17T12:13:25.614Z</time></trkpt><trkpt lat="42.687225" lon="12.1500817"><ele>328.0</ele><time>2026-04-17T12:13:26.613Z</time></trkpt><trkpt lat="42.68736" lon="12.1500117"><ele>328.0</ele><time>2026-04-17T12:13:27.614Z</time></trkpt><trkpt lat="42.6875" lon="12.149955"><ele>328.0</ele><time>2026-04-17T12:13:28.614Z</time></trkpt><trkpt lat="42.687635" lon="12.14989"><ele>328.0</ele><time>2026-04-17T12:13:29.614Z</time></trkpt><trkpt lat="42.687775" lon="12.1498233"><ele>328.0</ele><time>2026-04-17T12:13:30.614Z</time></trkpt><trkpt lat="42.687915" lon="12.1497633"><ele>329.5</ele><time>2026-04-17T12:13:31.614Z</time></trkpt><trkpt lat="42.688045" lon="12.1497017"><ele>331.0</ele><time>2026-04-17T12:13:32.614Z</time></trkpt><trkpt lat="42.6881783" lon="12.149635"><ele>332.5</ele><time>2026-04-17T12:13:33.614Z</time></trkpt><trkpt lat="42.6883117" lon="12.1495817"><ele>334.0</ele><time>2026-04-17T12:13:34.614Z</time></trkpt><trkpt lat="42.6884417" lon="12.1495083"><ele>334.0</ele><time>2026-04-17T12:13:35.613Z</time></trkpt><trkpt lat="42.688575" lon="12.1494483"><ele>334.0</ele><time>2026-04-17T12:13:36.614Z</time></trkpt><trkpt lat="42.6887117" lon="12.1493917"><ele>334.0</ele><time>2026-04-17T12:13:37.614Z</time></trkpt><trkpt lat="42.6888517" lon="12.14933"><ele>334.0</ele><time>2026-04-17T12:13:38.613Z</time></trkpt><trkpt lat="42.68898" lon="12.149275"><ele>333.25</ele><time>2026-04-17T12:13:39.614Z</time></trkpt><trkpt lat="42.68911" lon="12.1492233"><ele>332.5</ele><time>2026-04-17T12:13:40.614Z</time></trkpt><trkpt lat="42.68924" lon="12.1491667"><ele>331.75</ele><time>2026-04-17T12:13:41.613Z</time></trkpt><trkpt lat="42.689365" lon="12.14911"><ele>331.0</ele><time>2026-04-17T12:13:42.614Z</time></trkpt><trkpt lat="42.6894883" lon="12.1490533"><ele>331.0</ele><time>2026-04-17T12:13:43.614Z</time></trkpt><trkpt lat="42.6896217" lon="12.1489983"><ele>331.0</ele><time>2026-04-17T12:13:44.614Z</time></trkpt><trkpt lat="42.6897583" lon="12.1489517"><ele>331.0</ele><time>2026-04-17T12:13:45.613Z</time></trkpt><trkpt lat="42.6898917" lon="12.1489067"><ele>331.0</ele><time>2026-04-17T12:13:46.614Z</time></trkpt><trkpt lat="42.6900233" lon="12.1488583"><ele>331.0</ele><time>2026-04-17T12:13:47.614Z</time></trkpt><trkpt lat="42.6901617" lon="12.1488067"><ele>331.0</ele><time>2026-04-17T12:13:48.614Z</time></trkpt><trkpt lat="42.6903033" lon="12.1487583"><ele>331.0</ele><time>2026-04-17T12:13:49.614Z</time></trkpt><trkpt lat="42.6904333" lon="12.14871"><ele>331.0</ele><time>2026-04-17T12:13:50.614Z</time></trkpt><trkpt lat="42.690565" lon="12.14866"><ele>331.25</ele><time>2026-04-17T12:13:51.613Z</time></trkpt><trkpt lat="42.6907017" lon="12.148615"><ele>331.5</ele><time>2026-04-17T12:13:52.613Z</time></trkpt><trkpt lat="42.6908417" lon="12.148575"><ele>331.75</ele><time>2026-04-17T12:13:53.614Z</time></trkpt><trkpt lat="42.6909733" lon="12.14853"><ele>332.0</ele><time>2026-04-17T12:13:54.614Z</time></trkpt><trkpt lat="42.69111" lon="12.1484883"><ele>331.25</ele><time>2026-04-17T12:13:55.614Z</time></trkpt><trkpt lat="42.6912383" lon="12.148445"><ele>330.5</ele><time>2026-04-17T12:13:56.614Z</time></trkpt><trkpt lat="42.6913717" lon="12.1484033"><ele>329.75</ele><time>2026-04-17T12:13:57.613Z</time></trkpt><trkpt lat="42.6914983" lon="12.148375"><ele>329.0</ele><time>2026-04-17T12:13:58.613Z</time></trkpt><trkpt lat="42.6916317" lon="12.148355"><ele>329.0</ele><time>2026-04-17T12:13:59.613Z</time></trkpt><trkpt lat="42.691755" lon="12.1483267"><ele>329.0</ele><time>2026-04-17T12:14:00.614Z</time></trkpt><trkpt lat="42.691895" lon="12.1482933"><ele>329.0</ele><time>2026-04-17T12:14:01.614Z</time></trkpt><trkpt lat="42.69202" lon="12.1482567"><ele>329.0</ele><time>2026-04-17T12:14:02.613Z</time></trkpt><trkpt lat="42.692155" lon="12.1482083"><ele>327.25</ele><time>2026-04-17T12:14:03.613Z</time></trkpt><trkpt lat="42.6922817" lon="12.1481617"><ele>325.5</ele><time>2026-04-17T12:14:04.614Z</time></trkpt><trkpt lat="42.6924067" lon="12.1481083"><ele>323.75</ele><time>2026-04-17T12:14:05.613Z</time></trkpt><trkpt lat="42.6925233" lon="12.14804"><ele>322.0</ele><time>2026-04-17T12:14:06.614Z</time></trkpt><trkpt lat="42.6926317" lon="12.147965"><ele>322.0</ele><time>2026-04-17T12:14:07.614Z</time></trkpt><trkpt lat="42.6927317" lon="12.1478683"><ele>322.0</ele><time>2026-04-17T12:14:08.614Z</time></trkpt><trkpt lat="42.6928217" lon="12.147765"><ele>322.0</ele><time>2026-04-17T12:14:09.613Z</time></trkpt><trkpt lat="42.692905" lon="12.1476433"><ele>322.0</ele><time>2026-04-17T12:14:10.614Z</time></trkpt><trkpt lat="42.69298" lon="12.1475133"><ele>319.25</ele><time>2026-04-17T12:14:11.614Z</time></trkpt><trkpt lat="42.6930467" lon="12.1473767"><ele>316.5</ele><time>2026-04-17T12:14:12.614Z</time></trkpt><trkpt lat="42.693115" lon="12.14724"><ele>313.75</ele><time>2026-04-17T12:14:13.614Z</time></trkpt><trkpt lat="42.6932" lon="12.1471133"><ele>311.0</ele><time>2026-04-17T12:14:14.614Z</time></trkpt><trkpt lat="42.6932983" lon="12.1470133"><ele>311.0</ele><time>2026-04-17T12:14:15.614Z</time></trkpt><trkpt lat="42.6934083" lon="12.14692"><ele>311.0</ele><time>2026-04-17T12:14:16.614Z</time></trkpt><trkpt lat="42.69353" lon="12.1468367"><ele>311.0</ele><time>2026-04-17T12:14:17.614Z</time></trkpt><trkpt lat="42.6936617" lon="12.1467467"><ele>311.0</ele><time>2026-04-17T12:14:18.613Z</time></trkpt><trkpt lat="42.6938017" lon="12.1466583"><ele>309.0</ele><time>2026-04-17T12:14:19.614Z</time></trkpt><trkpt lat="42.69395" lon="12.1465517"><ele>307.0</ele><time>2026-04-17T12:14:20.614Z</time></trkpt><trkpt lat="42.6940983" lon="12.14645"><ele>305.0</ele><time>2026-04-17T12:14:21.614Z</time></trkpt><trkpt lat="42.6942467" lon="12.14635"><ele>303.33333333333337</ele><time>2026-04-17T12:14:22.613Z</time></trkpt><trkpt lat="42.6944" lon="12.1462533"><ele>301.6666666666667</ele><time>2026-04-17T12:14:23.614Z</time></trkpt><trkpt lat="42.6945517" lon="12.1461567"><ele>300.0</ele><time>2026-04-17T12:14:24.614Z</time></trkpt><trkpt lat="42.6947017" lon="12.1460533"><ele>299.6666666666667</ele><time>2026-04-17T12:14:25.614Z</time></trkpt><trkpt lat="42.6948533" lon="12.145955"><ele>299.33333333333337</ele><time>2026-04-17T12:14:26.614Z</time></trkpt><trkpt lat="42.694995" lon="12.1458617"><ele>299.0</ele><time>2026-04-17T12:14:27.614Z</time></trkpt><trkpt lat="42.69514" lon="12.1457633"><ele>297.6666666666667</ele><time>2026-04-17T12:14:28.614Z</time></trkpt><trkpt lat="42.6952867" lon="12.1456633"><ele>296.3333333333333</ele><time>2026-04-17T12:14:29.614Z</time></trkpt><trkpt lat="42.695435" lon="12.14556"><ele>295.0</ele><time>2026-04-17T12:14:30.614Z</time></trkpt><trkpt lat="42.6955817" lon="12.145455"><ele>295.0</ele><time>2026-04-17T12:14:31.614Z</time></trkpt><trkpt lat="42.6957233" lon="12.145365"><ele>295.0</ele><time>2026-04-17T12:14:32.613Z</time></trkpt><trkpt lat="42.69586" lon="12.1452733"><ele>295.0</ele><time>2026-04-17T12:14:33.614Z</time></trkpt><trkpt lat="42.6959933" lon="12.1451817"><ele>295.25</ele><time>2026-04-17T12:14:34.614Z</time></trkpt><trkpt lat="42.6961233" lon="12.1450867"><ele>295.5</ele><time>2026-04-17T12:14:35.614Z</time></trkpt><trkpt lat="42.6962517" lon="12.1449817"><ele>295.75</ele><time>2026-04-17T12:14:36.614Z</time></trkpt><trkpt lat="42.6963667" lon="12.14486"><ele>296.0</ele><time>2026-04-17T12:14:37.612Z</time></trkpt><trkpt lat="42.6964683" lon="12.144715"><ele>296.0</ele><time>2026-04-17T12:14:38.613Z</time></trkpt><trkpt lat="42.696555" lon="12.1445617"><ele>296.0</ele><time>2026-04-17T12:14:39.613Z</time></trkpt><trkpt lat="42.6966483" lon="12.1443917"><ele>296.0</ele><time>2026-04-17T12:14:40.612Z</time></trkpt><trkpt lat="42.696745" lon="12.1442067"><ele>296.25</ele><time>2026-04-17T12:14:41.613Z</time></trkpt><trkpt lat="42.6968283" lon="12.1440383"><ele>296.5</ele><time>2026-04-17T12:14:42.613Z</time></trkpt><trkpt lat="42.69691" lon="12.14388"><ele>296.75</ele><time>2026-04-17T12:14:43.613Z</time></trkpt><trkpt lat="42.696995" lon="12.1437183"><ele>297.0</ele><time>2026-04-17T12:14:44.612Z</time></trkpt><trkpt lat="42.697085" lon="12.1435483"><ele>298.0</ele><time>2026-04-17T12:14:45.612Z</time></trkpt><trkpt lat="42.6971783" lon="12.14338"><ele>299.0</ele><time>2026-04-17T12:14:46.613Z</time></trkpt><trkpt lat="42.6972683" lon="12.1432167"><ele>300.0</ele><time>2026-04-17T12:14:47.613Z</time></trkpt><trkpt lat="42.6973533" lon="12.1430533"><ele>301.5</ele><time>2026-04-17T12:14:48.613Z</time></trkpt><trkpt lat="42.6974383" lon="12.1428867"><ele>303.0</ele><time>2026-04-17T12:14:49.613Z</time></trkpt><trkpt lat="42.6975267" lon="12.1427233"><ele>304.5</ele><time>2026-04-17T12:14:50.613Z</time></trkpt><trkpt lat="42.6976133" lon="12.1425683"><ele>306.0</ele><time>2026-04-17T12:14:51.612Z</time></trkpt><trkpt lat="42.6976967" lon="12.142415"><ele>306.0</ele><time>2026-04-17T12:14:52.613Z</time></trkpt><trkpt lat="42.6977733" lon="12.1422667"><ele>306.0</ele><time>2026-04-17T12:14:53.613Z</time></trkpt><trkpt lat="42.6978533" lon="12.1421267"><ele>306.0</ele><time>2026-04-17T12:14:54.612Z</time></trkpt><trkpt lat="42.6979267" lon="12.14199"><ele>306.0</ele><time>2026-04-17T12:14:55.613Z</time></trkpt><trkpt lat="42.6979967" lon="12.14185"><ele>306.0</ele><time>2026-04-17T12:14:56.612Z</time></trkpt><trkpt lat="42.6980533" lon="12.141705"><ele>306.0</ele><time>2026-04-17T12:14:57.613Z</time></trkpt><trkpt lat="42.6981" lon="12.1415583"><ele>306.0</ele><time>2026-04-17T12:14:58.612Z</time></trkpt><trkpt lat="42.6981333" lon="12.1413967"><ele>306.0</ele><time>2026-04-17T12:14:59.613Z</time></trkpt><trkpt lat="42.6981617" lon="12.1412283"><ele>306.75</ele><time>2026-04-17T12:15:00.613Z</time></trkpt><trkpt lat="42.69819" lon="12.1410583"><ele>307.5</ele><time>2026-04-17T12:15:01.613Z</time></trkpt><trkpt lat="42.6982017" lon="12.1408817"><ele>308.25</ele><time>2026-04-17T12:15:02.613Z</time></trkpt><trkpt lat="42.698205" lon="12.140695"><ele>309.0</ele><time>2026-04-17T12:15:03.613Z</time></trkpt><trkpt lat="42.6982" lon="12.140505"><ele>309.75</ele><time>2026-04-17T12:15:04.612Z</time></trkpt><trkpt lat="42.6981883" lon="12.1403117"><ele>310.5</ele><time>2026-04-17T12:15:05.613Z</time></trkpt><trkpt lat="42.6981817" lon="12.1401117"><ele>311.25</ele><time>2026-04-17T12:15:06.613Z</time></trkpt><trkpt lat="42.6981783" lon="12.1399133"><ele>312.0</ele><time>2026-04-17T12:15:07.613Z</time></trkpt><trkpt lat="42.6981717" lon="12.139715"><ele>312.25</ele><time>2026-04-17T12:15:08.613Z</time></trkpt><trkpt lat="42.698165" lon="12.1395283"><ele>312.5</ele><time>2026-04-17T12:15:09.613Z</time></trkpt><trkpt lat="42.6981567" lon="12.13936"><ele>312.75</ele><time>2026-04-17T12:15:10.613Z</time></trkpt><trkpt lat="42.6981617" lon="12.139195"><ele>313.0</ele><time>2026-04-17T12:15:11.613Z</time></trkpt><trkpt lat="42.6981833" lon="12.1390367"><ele>313.5</ele><time>2026-04-17T12:15:12.612Z</time></trkpt><trkpt lat="42.69823" lon="12.1388833"><ele>314.0</ele><time>2026-04-17T12:15:13.613Z</time></trkpt><trkpt lat="42.6982933" lon="12.13874"><ele>314.5</ele><time>2026-04-17T12:15:14.613Z</time></trkpt><trkpt lat="42.698355" lon="12.1385967"><ele>315.0</ele><time>2026-04-17T12:15:15.613Z</time></trkpt><trkpt lat="42.698415" lon="12.1384567"><ele>315.0</ele><time>2026-04-17T12:15:16.613Z</time></trkpt><trkpt lat="42.69848" lon="12.1383083"><ele>315.0</ele><time>2026-04-17T12:15:17.612Z</time></trkpt><trkpt lat="42.6985433" lon="12.1381483"><ele>315.0</ele><time>2026-04-17T12:15:18.613Z</time></trkpt><trkpt lat="42.6986083" lon="12.137985"><ele>315.0</ele><time>2026-04-17T12:15:19.613Z</time></trkpt><trkpt lat="42.698675" lon="12.1378217"><ele>316.0</ele><time>2026-04-17T12:15:20.612Z</time></trkpt><trkpt lat="42.6987433" lon="12.1376533"><ele>317.0</ele><time>2026-04-17T12:15:21.613Z</time></trkpt><trkpt lat="42.6988033" lon="12.1375067"><ele>318.0</ele><time>2026-04-17T12:15:22.613Z</time></trkpt><trkpt lat="42.6988633" lon="12.1373617"><ele>319.0</ele><time>2026-04-17T12:15:23.612Z</time></trkpt><trkpt lat="42.698915" lon="12.1372317"><ele>320.0</ele><time>2026-04-17T12:15:24.613Z</time></trkpt><trkpt lat="42.698965" lon="12.13711"><ele>321.0</ele><time>2026-04-17T12:15:25.613Z</time></trkpt><trkpt lat="42.6990167" lon="12.1370017"><ele>322.0</ele><time>2026-04-17T12:15:26.613Z</time></trkpt><trkpt lat="42.6990633" lon="12.1368983"><ele>323.0</ele><time>2026-04-17T12:15:27.612Z</time></trkpt><trkpt lat="42.6990967" lon="12.136815"><ele>324.0</ele><time>2026-04-17T12:15:28.613Z</time></trkpt><trkpt lat="42.6991467" lon="12.1367033"><ele>324.0</ele><time>2026-04-17T12:15:30.613Z</time></trkpt><trkpt lat="42.699195" lon="12.1365783"><ele>324.0</ele><time>2026-04-17T12:15:47.613Z</time></trkpt><trkpt lat="42.6992667" lon="12.1365067"><ele>324.0</ele><time>2026-04-17T12:15:50.613Z</time></trkpt><trkpt lat="42.699395" lon="12.136505"><ele>324.0</ele><time>2026-04-17T12:15:52.613Z</time></trkpt><trkpt lat="42.6994833" lon="12.1364833"><ele>324.0</ele><time>2026-04-17T12:15:53.612Z</time></trkpt><trkpt lat="42.6995767" lon="12.136455"><ele>323.25</ele><time>2026-04-17T12:15:54.613Z</time></trkpt><trkpt lat="42.6996833" lon="12.1364067"><ele>322.5</ele><time>2026-04-17T12:15:55.613Z</time></trkpt><trkpt lat="42.6997917" lon="12.1363383"><ele>321.75</ele><time>2026-04-17T12:15:56.613Z</time></trkpt><trkpt lat="42.6998867" lon="12.1362383"><ele>321.0</ele><time>2026-04-17T12:15:57.613Z</time></trkpt><trkpt lat="42.699975" lon="12.1361017"><ele>321.0</ele><time>2026-04-17T12:15:58.613Z</time></trkpt><trkpt lat="42.700065" lon="12.1359483"><ele>321.0</ele><time>2026-04-17T12:15:59.612Z</time></trkpt><trkpt lat="42.700155" lon="12.1357917"><ele>321.0</ele><time>2026-04-17T12:16:00.613Z</time></trkpt><trkpt lat="42.7002433" lon="12.1356383"><ele>321.0</ele><time>2026-04-17T12:16:01.612Z</time></trkpt><trkpt lat="42.7003283" lon="12.13549"><ele>322.0</ele><time>2026-04-17T12:16:02.612Z</time></trkpt><trkpt lat="42.70041" lon="12.1353483"><ele>323.0</ele><time>2026-04-17T12:16:03.612Z</time></trkpt><trkpt lat="42.7004917" lon="12.1352067"><ele>324.0</ele><time>2026-04-17T12:16:04.613Z</time></trkpt><trkpt lat="42.7005617" lon="12.1350867"><ele>325.0</ele><time>2026-04-17T12:16:05.613Z</time></trkpt><trkpt lat="42.7006317" lon="12.1349617"><ele>325.8</ele><time>2026-04-17T12:16:06.613Z</time></trkpt><trkpt lat="42.7007017" lon="12.1348367"><ele>326.6</ele><time>2026-04-17T12:16:07.613Z</time></trkpt><trkpt lat="42.7007483" lon="12.1347133"><ele>327.4</ele><time>2026-04-17T12:16:08.613Z</time></trkpt><trkpt lat="42.7007883" lon="12.1345717"><ele>328.2</ele><time>2026-04-17T12:16:09.613Z</time></trkpt><trkpt lat="42.7008183" lon="12.1344233"><ele>329.0</ele><time>2026-04-17T12:16:10.613Z</time></trkpt><trkpt lat="42.7008333" lon="12.134265"><ele>329.0</ele><time>2026-04-17T12:16:11.613Z</time></trkpt><trkpt lat="42.7008417" lon="12.1341033"><ele>329.0</ele><time>2026-04-17T12:16:12.612Z</time></trkpt><trkpt lat="42.7008567" lon="12.1339383"><ele>329.0</ele><time>2026-04-17T12:16:13.613Z</time></trkpt><trkpt lat="42.7008717" lon="12.1337717"><ele>329.0</ele><time>2026-04-17T12:16:14.613Z</time></trkpt><trkpt lat="42.700875" lon="12.1336083"><ele>328.75</ele><time>2026-04-17T12:16:15.613Z</time></trkpt><trkpt lat="42.7008833" lon="12.1334433"><ele>328.5</ele><time>2026-04-17T12:16:16.613Z</time></trkpt><trkpt lat="42.7009033" lon="12.1332817"><ele>328.25</ele><time>2026-04-17T12:16:17.613Z</time></trkpt><trkpt lat="42.7009133" lon="12.133115"><ele>328.0</ele><time>2026-04-17T12:16:18.613Z</time></trkpt><trkpt lat="42.7009167" lon="12.13295"><ele>327.25</ele><time>2026-04-17T12:16:19.613Z</time></trkpt><trkpt lat="42.700925" lon="12.132795"><ele>326.5</ele><time>2026-04-17T12:16:20.613Z</time></trkpt><trkpt lat="42.700935" lon="12.1326367"><ele>325.75</ele><time>2026-04-17T12:16:21.612Z</time></trkpt><trkpt lat="42.7009417" lon="12.1324783"><ele>325.0</ele><time>2026-04-17T12:16:22.613Z</time></trkpt><trkpt lat="42.7009533" lon="12.1323267"><ele>324.0</ele><time>2026-04-17T12:16:23.612Z</time></trkpt><trkpt lat="42.700965" lon="12.1321767"><ele>323.0</ele><time>2026-04-17T12:16:24.613Z</time></trkpt><trkpt lat="42.70098" lon="12.13203"><ele>322.0</ele><time>2026-04-17T12:16:25.613Z</time></trkpt><trkpt lat="42.7009867" lon="12.1318817"><ele>321.0</ele><time>2026-04-17T12:16:26.613Z</time></trkpt><trkpt lat="42.700995" lon="12.1317267"><ele>320.0</ele><time>2026-04-17T12:16:27.612Z</time></trkpt><trkpt lat="42.7010033" lon="12.1315767"><ele>319.2</ele><time>2026-04-17T12:16:28.613Z</time></trkpt><trkpt lat="42.7010083" lon="12.131435"><ele>318.4</ele><time>2026-04-17T12:16:29.613Z</time></trkpt><trkpt lat="42.701015" lon="12.1312917"><ele>317.6</ele><time>2026-04-17T12:16:30.613Z</time></trkpt><trkpt lat="42.7010233" lon="12.13115"><ele>316.8</ele><time>2026-04-17T12:16:31.613Z</time></trkpt><trkpt lat="42.7010333" lon="12.1310183"><ele>316.0</ele><time>2026-04-17T12:16:32.613Z</time></trkpt><trkpt lat="42.7010383" lon="12.13089"><ele>316.0</ele><time>2026-04-17T12:16:33.613Z</time></trkpt><trkpt lat="42.7010433" lon="12.1307667"><ele>316.0</ele><time>2026-04-17T12:16:34.613Z</time></trkpt><trkpt lat="42.70105" lon="12.1306467"><ele>316.0</ele><time>2026-04-17T12:16:35.613Z</time></trkpt><trkpt lat="42.7010617" lon="12.1305383"><ele>316.0</ele><time>2026-04-17T12:16:36.613Z</time></trkpt><trkpt lat="42.7010733" lon="12.1304317"><ele>316.0</ele><time>2026-04-17T12:16:37.613Z</time></trkpt><trkpt lat="42.7010833" lon="12.13032"><ele>316.0</ele><time>2026-04-17T12:16:38.613Z</time></trkpt><trkpt lat="42.7010917" lon="12.130205"><ele>314.8</ele><time>2026-04-17T12:16:39.613Z</time></trkpt><trkpt lat="42.701105" lon="12.13008"><ele>313.6</ele><time>2026-04-17T12:16:40.612Z</time></trkpt><trkpt lat="42.7011117" lon="12.1299517"><ele>312.4</ele><time>2026-04-17T12:16:41.613Z</time></trkpt><trkpt lat="42.70112" lon="12.1298133"><ele>311.2</ele><time>2026-04-17T12:16:42.613Z</time></trkpt><trkpt lat="42.70113" lon="12.1296717"><ele>310.0</ele><time>2026-04-17T12:16:43.613Z</time></trkpt><trkpt lat="42.7011383" lon="12.1295167"><ele>308.8</ele><time>2026-04-17T12:16:44.613Z</time></trkpt><trkpt lat="42.7011483" lon="12.1293583"><ele>307.6</ele><time>2026-04-17T12:16:45.613Z</time></trkpt><trkpt lat="42.70116" lon="12.1292067"><ele>306.4</ele><time>2026-04-17T12:16:46.613Z</time></trkpt><trkpt lat="42.7011683" lon="12.1290733"><ele>305.2</ele><time>2026-04-17T12:16:47.612Z</time></trkpt><trkpt lat="42.7011817" lon="12.1289567"><ele>304.0</ele><time>2026-04-17T12:16:48.613Z</time></trkpt><trkpt lat="42.701205" lon="12.1288467"><ele>302.4</ele><time>2026-04-17T12:16:49.613Z</time></trkpt><trkpt lat="42.7012317" lon="12.12876"><ele>300.79999999999995</ele><time>2026-04-17T12:16:50.613Z</time></trkpt><trkpt lat="42.7013083" lon="12.128635"><ele>299.20000000000005</ele><time>2026-04-17T12:16:52.613Z</time></trkpt><trkpt lat="42.701425" lon="12.1285967"><ele>297.6</ele><time>2026-04-17T12:16:54.613Z</time></trkpt><trkpt lat="42.7015017" lon="12.1286"><ele>296.0</ele><time>2026-04-17T12:16:55.613Z</time></trkpt><trkpt lat="42.7016" lon="12.1286267"><ele>296.0</ele><time>2026-04-17T12:16:56.613Z</time></trkpt><trkpt lat="42.701715" lon="12.128655"><ele>296.0</ele><time>2026-04-17T12:16:57.613Z</time></trkpt><trkpt lat="42.701835" lon="12.128685"><ele>296.0</ele><time>2026-04-17T12:16:58.613Z</time></trkpt><trkpt lat="42.7019483" lon="12.12871"><ele>296.0</ele><time>2026-04-17T12:16:59.613Z</time></trkpt><trkpt lat="42.7020533" lon="12.12873"><ele>296.2</ele><time>2026-04-17T12:17:00.612Z</time></trkpt><trkpt lat="42.702145" lon="12.12873"><ele>296.40000000000003</ele><time>2026-04-17T12:17:01.613Z</time></trkpt><trkpt lat="42.702235" lon="12.1286983"><ele>296.6</ele><time>2026-04-17T12:17:02.612Z</time></trkpt><trkpt lat="42.7023017" lon="12.128635"><ele>296.8</ele><time>2026-04-17T12:17:03.613Z</time></trkpt><trkpt lat="42.7023583" lon="12.128545"><ele>297.0</ele><time>2026-04-17T12:17:04.613Z</time></trkpt><trkpt lat="42.702405" lon="12.1284167"><ele>297.0</ele><time>2026-04-17T12:17:05.613Z</time></trkpt><trkpt lat="42.702415" lon="12.1282767"><ele>297.0</ele><time>2026-04-17T12:17:06.613Z</time></trkpt><trkpt lat="42.702415" lon="12.128145"><ele>297.0</ele><time>2026-04-17T12:17:07.613Z</time></trkpt><trkpt lat="42.7024233" lon="12.1280333"><ele>297.0</ele><time>2026-04-17T12:17:08.612Z</time></trkpt><trkpt lat="42.7024517" lon="12.1279383"><ele>297.0</ele><time>2026-04-17T12:17:09.613Z</time></trkpt><trkpt lat="42.7024983" lon="12.1278717"><ele>297.0</ele><time>2026-04-17T12:17:10.613Z</time></trkpt><trkpt lat="42.70257" lon="12.1278317"><ele>292.5</ele><time>2026-04-17T12:17:11.613Z</time></trkpt><trkpt lat="42.702665" lon="12.1278333"><ele>288.0</ele><time>2026-04-17T12:17:12.613Z</time></trkpt><trkpt lat="42.70278" lon="12.12786"><ele>283.5</ele><time>2026-04-17T12:17:13.613Z</time></trkpt><trkpt lat="42.7029217" lon="12.1279067"><ele>279.0</ele><time>2026-04-17T12:17:14.612Z</time></trkpt><trkpt lat="42.7030617" lon="12.127955"><ele>278.4</ele><time>2026-04-17T12:17:15.613Z</time></trkpt><trkpt lat="42.703185" lon="12.1279917"><ele>277.79999999999995</ele><time>2026-04-17T12:17:16.613Z</time></trkpt><trkpt lat="42.7032933" lon="12.1280233"><ele>277.20000000000005</ele><time>2026-04-17T12:17:17.612Z</time></trkpt><trkpt lat="42.70339" lon="12.1280483"><ele>276.6</ele><time>2026-04-17T12:17:18.612Z</time></trkpt><trkpt lat="42.703485" lon="12.1280717"><ele>276.0</ele><time>2026-04-17T12:17:19.613Z</time></trkpt><trkpt lat="42.7035817" lon="12.1280733"><ele>274.40000000000003</ele><time>2026-04-17T12:17:20.612Z</time></trkpt><trkpt lat="42.703685" lon="12.1280633"><ele>272.8</ele><time>2026-04-17T12:17:21.613Z</time></trkpt><trkpt lat="42.70379" lon="12.12803"><ele>271.20000000000005</ele><time>2026-04-17T12:17:22.613Z</time></trkpt><trkpt lat="42.7038983" lon="12.1279883"><ele>269.6</ele><time>2026-04-17T12:17:23.613Z</time></trkpt><trkpt lat="42.704005" lon="12.1279417"><ele>268.0</ele><time>2026-04-17T12:17:24.613Z</time></trkpt><trkpt lat="42.704105" lon="12.1279067"><ele>268.0</ele><time>2026-04-17T12:17:25.612Z</time></trkpt><trkpt lat="42.7042083" lon="12.1278667"><ele>268.0</ele><time>2026-04-17T12:17:26.613Z</time></trkpt><trkpt lat="42.7043067" lon="12.1278383"><ele>268.0</ele><time>2026-04-17T12:17:27.612Z</time></trkpt><trkpt lat="42.704415" lon="12.1278183"><ele>268.0</ele><time>2026-04-17T12:17:28.612Z</time></trkpt><trkpt lat="42.7045317" lon="12.12781"><ele>268.0</ele><time>2026-04-17T12:17:29.612Z</time></trkpt><trkpt lat="42.7046483" lon="12.12781"><ele>268.75</ele><time>2026-04-17T12:17:30.613Z</time></trkpt><trkpt lat="42.7047767" lon="12.1278183"><ele>269.5</ele><time>2026-04-17T12:17:31.613Z</time></trkpt><trkpt lat="42.7049" lon="12.1278333"><ele>270.25</ele><time>2026-04-17T12:17:32.613Z</time></trkpt><trkpt lat="42.705025" lon="12.1278483"><ele>271.0</ele><time>2026-04-17T12:17:33.613Z</time></trkpt><trkpt lat="42.7051417" lon="12.1278533"><ele>271.0</ele><time>2026-04-17T12:17:34.613Z</time></trkpt><trkpt lat="42.7052417" lon="12.1278433"><ele>271.0</ele><time>2026-04-17T12:17:35.612Z</time></trkpt><trkpt lat="42.7053333" lon="12.1278333"><ele>271.0</ele><time>2026-04-17T12:17:36.612Z</time></trkpt><trkpt lat="42.70542" lon="12.1278017"><ele>271.0</ele><time>2026-04-17T12:17:37.613Z</time></trkpt><trkpt lat="42.70552" lon="12.1277467"><ele>271.0</ele><time>2026-04-17T12:17:38.613Z</time></trkpt><trkpt lat="42.7056383" lon="12.12768"><ele>273.3333333333333</ele><time>2026-04-17T12:17:39.613Z</time></trkpt><trkpt lat="42.70578" lon="12.1276033"><ele>275.6666666666667</ele><time>2026-04-17T12:17:40.613Z</time></trkpt><trkpt lat="42.7059383" lon="12.127545"><ele>278.0</ele><time>2026-04-17T12:17:41.613Z</time></trkpt><trkpt lat="42.7060817" lon="12.127465"><ele>273.0</ele><time>2026-04-17T12:17:42.613Z</time></trkpt><trkpt lat="42.7062167" lon="12.12739"><ele>268.0</ele><time>2026-04-17T12:17:43.613Z</time></trkpt><trkpt lat="42.7063367" lon="12.1273017"><ele>263.0</ele><time>2026-04-17T12:17:44.612Z</time></trkpt><trkpt lat="42.7064517" lon="12.1272167"><ele>258.0</ele><time>2026-04-17T12:17:45.613Z</time></trkpt><trkpt lat="42.706575" lon="12.1271433"><ele>258.0</ele><time>2026-04-17T12:17:46.613Z</time></trkpt><trkpt lat="42.7067" lon="12.127085"><ele>258.0</ele><time>2026-04-17T12:17:47.612Z</time></trkpt><trkpt lat="42.70683" lon="12.1270383"><ele>258.0</ele><time>2026-04-17T12:17:48.613Z</time></trkpt><trkpt lat="42.7069583" lon="12.127005"><ele>258.0</ele><time>2026-04-17T12:17:49.612Z</time></trkpt><trkpt lat="42.70709" lon="12.1269817"><ele>259.0</ele><time>2026-04-17T12:17:50.613Z</time></trkpt><trkpt lat="42.7072367" lon="12.1269633"><ele>260.0</ele><time>2026-04-17T12:17:51.613Z</time></trkpt><trkpt lat="42.707385" lon="12.126945"><ele>261.0</ele><time>2026-04-17T12:17:52.613Z</time></trkpt><trkpt lat="42.70753" lon="12.12691"><ele>262.0</ele><time>2026-04-17T12:17:53.612Z</time></trkpt><trkpt lat="42.7076617" lon="12.1268783"><ele>262.75</ele><time>2026-04-17T12:17:54.613Z</time></trkpt><trkpt lat="42.7077883" lon="12.12685"><ele>263.5</ele><time>2026-04-17T12:17:55.613Z</time></trkpt><trkpt lat="42.7079133" lon="12.1268167"><ele>264.25</ele><time>2026-04-17T12:17:56.612Z</time></trkpt><trkpt lat="42.7080383" lon="12.12679"><ele>265.0</ele><time>2026-04-17T12:17:57.613Z</time></trkpt><trkpt lat="42.7081633" lon="12.12677"><ele>265.0</ele><time>2026-04-17T12:17:58.613Z</time></trkpt><trkpt lat="42.7083" lon="12.1267617"><ele>265.0</ele><time>2026-04-17T12:17:59.613Z</time></trkpt><trkpt lat="42.708435" lon="12.1267517"><ele>265.0</ele><time>2026-04-17T12:18:00.613Z</time></trkpt><trkpt lat="42.7085683" lon="12.1267567"><ele>265.0</ele><time>2026-04-17T12:18:01.613Z</time></trkpt><trkpt lat="42.708695" lon="12.1267767"><ele>263.0</ele><time>2026-04-17T12:18:02.612Z</time></trkpt><trkpt lat="42.708825" lon="12.12682"><ele>261.0</ele><time>2026-04-17T12:18:03.613Z</time></trkpt><trkpt lat="42.708955" lon="12.1268717"><ele>259.0</ele><time>2026-04-17T12:18:04.613Z</time></trkpt><trkpt lat="42.7090767" lon="12.1269167"><ele>257.0</ele><time>2026-04-17T12:18:05.613Z</time></trkpt><trkpt lat="42.7092033" lon="12.1269483"><ele>257.0</ele><time>2026-04-17T12:18:06.613Z</time></trkpt><trkpt lat="42.70933" lon="12.12696"><ele>257.0</ele><time>2026-04-17T12:18:07.613Z</time></trkpt><trkpt lat="42.7094583" lon="12.1269483"><ele>257.0</ele><time>2026-04-17T12:18:08.613Z</time></trkpt><trkpt lat="42.7095967" lon="12.1269183"><ele>257.0</ele><time>2026-04-17T12:18:09.613Z</time></trkpt><trkpt lat="42.7097283" lon="12.1268933"><ele>257.25</ele><time>2026-04-17T12:18:10.613Z</time></trkpt><trkpt lat="42.7098483" lon="12.12687"><ele>257.5</ele><time>2026-04-17T12:18:11.613Z</time></trkpt><trkpt lat="42.7099583" lon="12.1268183"><ele>257.75</ele><time>2026-04-17T12:18:12.613Z</time></trkpt><trkpt lat="42.7100533" lon="12.1267233"><ele>258.0</ele><time>2026-04-17T12:18:13.613Z</time></trkpt><trkpt lat="42.7101383" lon="12.1266083"><ele>255.75</ele><time>2026-04-17T12:18:14.612Z</time></trkpt><trkpt lat="42.7102083" lon="12.1264683"><ele>253.5</ele><time>2026-04-17T12:18:15.612Z</time></trkpt><trkpt lat="42.7102583" lon="12.12633"><ele>251.25</ele><time>2026-04-17T12:18:16.613Z</time></trkpt><trkpt lat="42.710305" lon="12.1261767"><ele>249.0</ele><time>2026-04-17T12:18:17.612Z</time></trkpt><trkpt lat="42.7103533" lon="12.1260333"><ele>249.0</ele><time>2026-04-17T12:18:18.612Z</time></trkpt><trkpt lat="42.71041" lon="12.1259017"><ele>248.99999999999997</ele><time>2026-04-17T12:18:19.612Z</time></trkpt><trkpt lat="42.7104817" lon="12.1258"><ele>248.99999999999997</ele><time>2026-04-17T12:18:20.613Z</time></trkpt><trkpt lat="42.7105783" lon="12.1257"><ele>249.0</ele><time>2026-04-17T12:18:21.613Z</time></trkpt><trkpt lat="42.7106767" lon="12.1256317"><ele>249.0</ele><time>2026-04-17T12:18:22.613Z</time></trkpt><trkpt lat="42.7107917" lon="12.125585"><ele>243.5</ele><time>2026-04-17T12:18:23.612Z</time></trkpt><trkpt lat="42.7109183" lon="12.125575"><ele>238.0</ele><time>2026-04-17T12:18:24.612Z</time></trkpt><trkpt lat="42.7110417" lon="12.125595"><ele>232.5</ele><time>2026-04-17T12:18:25.613Z</time></trkpt><trkpt lat="42.7111633" lon="12.12565"><ele>227.0</ele><time>2026-04-17T12:18:26.613Z</time></trkpt><trkpt lat="42.711295" lon="12.1257283"><ele>230.33333333333334</ele><time>2026-04-17T12:18:27.613Z</time></trkpt><trkpt lat="42.7114317" lon="12.125845"><ele>233.66666666666669</ele><time>2026-04-17T12:18:28.613Z</time></trkpt><trkpt lat="42.7115917" lon="12.125975"><ele>237.0</ele><time>2026-04-17T12:18:29.613Z</time></trkpt><trkpt lat="42.71174" lon="12.1261083"><ele>237.0</ele><time>2026-04-17T12:18:30.613Z</time></trkpt><trkpt lat="42.71189" lon="12.1262283"><ele>237.0</ele><time>2026-04-17T12:18:31.613Z</time></trkpt><trkpt lat="42.71204" lon="12.1263433"><ele>237.0</ele><time>2026-04-17T12:18:32.613Z</time></trkpt><trkpt lat="42.7121783" lon="12.1264517"><ele>235.75</ele><time>2026-04-17T12:18:33.613Z</time></trkpt><trkpt lat="42.7123083" lon="12.12656"><ele>234.5</ele><time>2026-04-17T12:18:34.613Z</time></trkpt><trkpt lat="42.7124183" lon="12.126665"><ele>233.25</ele><time>2026-04-17T12:18:35.613Z</time></trkpt><trkpt lat="42.7125183" lon="12.12676"><ele>232.0</ele><time>2026-04-17T12:18:36.613Z</time></trkpt><trkpt lat="42.71261" lon="12.1268367"><ele>232.0</ele><time>2026-04-17T12:18:37.613Z</time></trkpt><trkpt lat="42.7126967" lon="12.1269117"><ele>232.0</ele><time>2026-04-17T12:18:38.612Z</time></trkpt><trkpt lat="42.7127733" lon="12.1269783"><ele>232.0</ele><time>2026-04-17T12:18:39.613Z</time></trkpt><trkpt lat="42.7128417" lon="12.1270217"><ele>232.0</ele><time>2026-04-17T12:18:40.612Z</time></trkpt><trkpt lat="42.7129133" lon="12.1270333"><ele>232.0</ele><time>2026-04-17T12:18:41.613Z</time></trkpt><trkpt lat="42.713025" lon="12.12696"><ele>230.0</ele><time>2026-04-17T12:18:43.613Z</time></trkpt><trkpt lat="42.713055" lon="12.12687"><ele>228.0</ele><time>2026-04-17T12:18:44.612Z</time></trkpt><trkpt lat="42.7130567" lon="12.126755"><ele>226.0</ele><time>2026-04-17T12:18:45.613Z</time></trkpt><trkpt lat="42.7130333" lon="12.12662"><ele>224.0</ele><time>2026-04-17T12:18:46.612Z</time></trkpt><trkpt lat="42.7129767" lon="12.1264833"><ele>222.0</ele><time>2026-04-17T12:18:47.613Z</time></trkpt><trkpt lat="42.7128817" lon="12.1263667"><ele>221.25</ele><time>2026-04-17T12:18:48.613Z</time></trkpt><trkpt lat="42.712755" lon="12.1262867"><ele>220.5</ele><time>2026-04-17T12:18:49.613Z</time></trkpt><trkpt lat="42.7126333" lon="12.1262317"><ele>219.75</ele><time>2026-04-17T12:18:50.612Z</time></trkpt><trkpt lat="42.712525" lon="12.1261833"><ele>219.0</ele><time>2026-04-17T12:18:51.613Z</time></trkpt><trkpt lat="42.7124333" lon="12.1261267"><ele>219.0</ele><time>2026-04-17T12:18:52.613Z</time></trkpt><trkpt lat="42.7123533" lon="12.1260267"><ele>219.0</ele><time>2026-04-17T12:18:53.613Z</time></trkpt><trkpt lat="42.7122933" lon="12.125905"><ele>219.0</ele><time>2026-04-17T12:18:54.613Z</time></trkpt><trkpt lat="42.7122517" lon="12.1257567"><ele>219.0</ele><time>2026-04-17T12:18:55.613Z</time></trkpt><trkpt lat="42.7122067" lon="12.1255983"><ele>217.0</ele><time>2026-04-17T12:18:56.613Z</time></trkpt><trkpt lat="42.7121633" lon="12.12544"><ele>215.0</ele><time>2026-04-17T12:18:57.613Z</time></trkpt><trkpt lat="42.7121017" lon="12.1252783"><ele>213.0</ele><time>2026-04-17T12:18:58.612Z</time></trkpt><trkpt lat="42.712025" lon="12.1251117"><ele>211.0</ele><time>2026-04-17T12:18:59.612Z</time></trkpt><trkpt lat="42.7119467" lon="12.124955"><ele>209.25</ele><time>2026-04-17T12:19:00.613Z</time></trkpt><trkpt lat="42.7118583" lon="12.1248183"><ele>207.5</ele><time>2026-04-17T12:19:01.612Z</time></trkpt><trkpt lat="42.7117767" lon="12.1246867"><ele>205.75</ele><time>2026-04-17T12:19:02.612Z</time></trkpt><trkpt lat="42.71169" lon="12.1245683"><ele>204.0</ele><time>2026-04-17T12:19:03.613Z</time></trkpt><trkpt lat="42.711605" lon="12.1244817"><ele>204.0</ele><time>2026-04-17T12:19:04.613Z</time></trkpt><trkpt lat="42.7114933" lon="12.124415"><ele>204.0</ele><time>2026-04-17T12:19:05.612Z</time></trkpt><trkpt lat="42.71135" lon="12.12437"><ele>204.0</ele><time>2026-04-17T12:19:06.613Z</time></trkpt><trkpt lat="42.7111917" lon="12.1243233"><ele>204.0</ele><time>2026-04-17T12:19:07.613Z</time></trkpt><trkpt lat="42.71103" lon="12.1242867"><ele>205.0</ele><time>2026-04-17T12:19:08.613Z</time></trkpt><trkpt lat="42.7108633" lon="12.12425"><ele>206.0</ele><time>2026-04-17T12:19:09.612Z</time></trkpt><trkpt lat="42.710705" lon="12.124215"><ele>207.0</ele><time>2026-04-17T12:19:10.613Z</time></trkpt><trkpt lat="42.7105567" lon="12.1241717"><ele>207.0</ele><time>2026-04-17T12:19:11.612Z</time></trkpt><trkpt lat="42.7104033" lon="12.124135"><ele>207.0</ele><time>2026-04-17T12:19:12.612Z</time></trkpt><trkpt lat="42.7102567" lon="12.1240967"><ele>207.0</ele><time>2026-04-17T12:19:13.613Z</time></trkpt><trkpt lat="42.7101117" lon="12.1240617"><ele>204.2</ele><time>2026-04-17T12:19:14.612Z</time></trkpt><trkpt lat="42.7099817" lon="12.12403"><ele>201.39999999999998</ele><time>2026-04-17T12:19:15.613Z</time></trkpt><trkpt lat="42.7098733" lon="12.1239983"><ele>198.60000000000002</ele><time>2026-04-17T12:19:16.613Z</time></trkpt><trkpt lat="42.709785" lon="12.123985"><ele>195.8</ele><time>2026-04-17T12:19:17.613Z</time></trkpt><trkpt lat="42.7097117" lon="12.123975"><ele>193.0</ele><time>2026-04-17T12:19:18.613Z</time></trkpt><trkpt lat="42.7096433" lon="12.123955"><ele>193.0</ele><time>2026-04-17T12:19:19.613Z</time></trkpt><trkpt lat="42.7095633" lon="12.1238533"><ele>193.0</ele><time>2026-04-17T12:19:21.613Z</time></trkpt><trkpt lat="42.7095633" lon="12.1237133"><ele>193.0</ele><time>2026-04-17T12:19:23.613Z</time></trkpt><trkpt lat="42.7096133" lon="12.12366"><ele>193.0</ele><time>2026-04-17T12:19:24.613Z</time></trkpt><trkpt lat="42.70969" lon="12.1236133"><ele>193.0</ele><time>2026-04-17T12:19:25.613Z</time></trkpt><trkpt lat="42.7098067" lon="12.1235667"><ele>193.0</ele><time>2026-04-17T12:19:26.612Z</time></trkpt><trkpt lat="42.7099567" lon="12.1235183"><ele>193.0</ele><time>2026-04-17T12:19:27.612Z</time></trkpt><trkpt lat="42.710105" lon="12.12346"><ele>193.0</ele><time>2026-04-17T12:19:28.613Z</time></trkpt><trkpt lat="42.7102417" lon="12.1234"><ele>192.33333333333331</ele><time>2026-04-17T12:19:29.613Z</time></trkpt><trkpt lat="42.710385" lon="12.1233617"><ele>191.66666666666666</ele><time>2026-04-17T12:19:30.613Z</time></trkpt><trkpt lat="42.7105467" lon="12.1233467"><ele>191.0</ele><time>2026-04-17T12:19:31.613Z</time></trkpt><trkpt lat="42.7107067" lon="12.12336"><ele>191.0</ele><time>2026-04-17T12:19:32.613Z</time></trkpt><trkpt lat="42.7108483" lon="12.1233767"><ele>191.0</ele><time>2026-04-17T12:19:33.613Z</time></trkpt><trkpt lat="42.7109733" lon="12.1233867"><ele>191.0</ele><time>2026-04-17T12:19:34.612Z</time></trkpt><trkpt lat="42.7110883" lon="12.1233833"><ele>191.0</ele><time>2026-04-17T12:19:35.613Z</time></trkpt><trkpt lat="42.7111733" lon="12.1233867"><ele>190.4</ele><time>2026-04-17T12:19:36.612Z</time></trkpt><trkpt lat="42.7112467" lon="12.123385"><ele>189.8</ele><time>2026-04-17T12:19:37.612Z</time></trkpt><trkpt lat="42.71131" lon="12.1233617"><ele>189.20000000000002</ele><time>2026-04-17T12:19:38.613Z</time></trkpt><trkpt lat="42.71137" lon="12.1232433"><ele>188.60000000000002</ele><time>2026-04-17T12:19:40.613Z</time></trkpt><trkpt lat="42.7113333" lon="12.1230917"><ele>188.0</ele><time>2026-04-17T12:19:42.612Z</time></trkpt><trkpt lat="42.7112483" lon="12.1230283"><ele>186.2</ele><time>2026-04-17T12:19:43.613Z</time></trkpt><trkpt lat="42.7111533" lon="12.122965"><ele>184.4</ele><time>2026-04-17T12:19:44.613Z</time></trkpt><trkpt lat="42.71105" lon="12.1229033"><ele>182.6</ele><time>2026-04-17T12:19:45.613Z</time></trkpt><trkpt lat="42.710945" lon="12.122845"><ele>180.79999999999998</ele><time>2026-04-17T12:19:46.612Z</time></trkpt><trkpt lat="42.7108467" lon="12.122785"><ele>179.0</ele><time>2026-04-17T12:19:47.613Z</time></trkpt><trkpt lat="42.710745" lon="12.1227317"><ele>179.0</ele><time>2026-04-17T12:19:48.612Z</time></trkpt><trkpt lat="42.7106617" lon="12.1226833"><ele>179.0</ele><time>2026-04-17T12:19:49.613Z</time></trkpt><trkpt lat="42.71055" lon="12.1226683"><ele>179.0</ele><time>2026-04-17T12:19:50.613Z</time></trkpt><trkpt lat="42.7104267" lon="12.1226917"><ele>179.0</ele><time>2026-04-17T12:19:51.612Z</time></trkpt><trkpt lat="42.7102983" lon="12.12274"><ele>178.79999999999998</ele><time>2026-04-17T12:19:52.613Z</time></trkpt><trkpt lat="42.7101683" lon="12.1227883"><ele>178.6</ele><time>2026-04-17T12:19:53.613Z</time></trkpt><trkpt lat="42.7100433" lon="12.12283"><ele>178.4</ele><time>2026-04-17T12:19:54.613Z</time></trkpt><trkpt lat="42.709945" lon="12.1228417"><ele>178.2</ele><time>2026-04-17T12:19:55.613Z</time></trkpt><trkpt lat="42.7098733" lon="12.1228517"><ele>178.0</ele><time>2026-04-17T12:19:56.613Z</time></trkpt><trkpt lat="42.7098083" lon="12.122825"><ele>178.0</ele><time>2026-04-17T12:19:57.613Z</time></trkpt><trkpt lat="42.70976" lon="12.1227083"><ele>178.0</ele><time>2026-04-17T12:19:59.613Z</time></trkpt><trkpt lat="42.7097817" lon="12.1226133"><ele>178.0</ele><time>2026-04-17T12:20:00.612Z</time></trkpt><trkpt lat="42.7098317" lon="12.12253"><ele>178.0</ele><time>2026-04-17T12:20:01.612Z</time></trkpt><trkpt lat="42.709915" lon="12.1224467"><ele>178.0</ele><time>2026-04-17T12:20:02.613Z</time></trkpt><trkpt lat="42.7100317" lon="12.122355"><ele>173.66666666666669</ele><time>2026-04-17T12:20:03.613Z</time></trkpt><trkpt lat="42.71017" lon="12.1222583"><ele>169.33333333333334</ele><time>2026-04-17T12:20:04.612Z</time></trkpt><trkpt lat="42.7103333" lon="12.12215"><ele>165.0</ele><time>2026-04-17T12:20:05.613Z</time></trkpt><trkpt lat="42.7104833" lon="12.1220433"><ele>164.33333333333334</ele><time>2026-04-17T12:20:06.612Z</time></trkpt><trkpt lat="42.710625" lon="12.12195"><ele>163.66666666666669</ele><time>2026-04-17T12:20:07.613Z</time></trkpt><trkpt lat="42.7107667" lon="12.1218667"><ele>163.0</ele><time>2026-04-17T12:20:08.613Z</time></trkpt><trkpt lat="42.7108967" lon="12.12178"><ele>163.0</ele><time>2026-04-17T12:20:09.613Z</time></trkpt><trkpt lat="42.7110267" lon="12.121705"><ele>163.0</ele><time>2026-04-17T12:20:10.612Z</time></trkpt><trkpt lat="42.71113" lon="12.1216283"><ele>163.0</ele><time>2026-04-17T12:20:11.613Z</time></trkpt><trkpt lat="42.7112183" lon="12.1215583"><ele>163.0</ele><time>2026-04-17T12:20:12.613Z</time></trkpt><trkpt lat="42.7113" lon="12.1214883"><ele>162.0</ele><time>2026-04-17T12:20:13.612Z</time></trkpt><trkpt lat="42.7113817" lon="12.1214"><ele>161.0</ele><time>2026-04-17T12:20:14.613Z</time></trkpt><trkpt lat="42.7114283" lon="12.1213017"><ele>160.0</ele><time>2026-04-17T12:20:15.612Z</time></trkpt><trkpt lat="42.7114433" lon="12.1211833"><ele>159.0</ele><time>2026-04-17T12:20:16.613Z</time></trkpt><trkpt lat="42.7114267" lon="12.12104"><ele>158.0</ele><time>2026-04-17T12:20:17.613Z</time></trkpt><trkpt lat="42.7113883" lon="12.1208967"><ele>158.0</ele><time>2026-04-17T12:20:18.613Z</time></trkpt><trkpt lat="42.71135" lon="12.12077"><ele>158.0</ele><time>2026-04-17T12:20:19.612Z</time></trkpt><trkpt lat="42.7113217" lon="12.12064"><ele>158.0</ele><time>2026-04-17T12:20:20.612Z</time></trkpt><trkpt lat="42.7112967" lon="12.1205067"><ele>158.0</ele><time>2026-04-17T12:20:21.613Z</time></trkpt><trkpt lat="42.7112867" lon="12.1203817"><ele>158.0</ele><time>2026-04-17T12:20:22.612Z</time></trkpt><trkpt lat="42.7113067" lon="12.12028"><ele>157.6</ele><time>2026-04-17T12:20:23.613Z</time></trkpt><trkpt lat="42.7113517" lon="12.1201867"><ele>157.20000000000002</ele><time>2026-04-17T12:20:24.612Z</time></trkpt><trkpt lat="42.7114267" lon="12.1201"><ele>156.8</ele><time>2026-04-17T12:20:25.613Z</time></trkpt><trkpt lat="42.711525" lon="12.1200383"><ele>156.4</ele><time>2026-04-17T12:20:26.613Z</time></trkpt><trkpt lat="42.7116467" lon="12.12001"><ele>156.0</ele><time>2026-04-17T12:20:27.613Z</time></trkpt><trkpt lat="42.711795" lon="12.1199917"><ele>155.33333333333334</ele><time>2026-04-17T12:20:28.613Z</time></trkpt><trkpt lat="42.7119683" lon="12.1199633"><ele>154.66666666666669</ele><time>2026-04-17T12:20:29.613Z</time></trkpt><trkpt lat="42.7121517" lon="12.1199267"><ele>154.0</ele><time>2026-04-17T12:20:30.613Z</time></trkpt><trkpt lat="42.7123283" lon="12.1198933"><ele>154.0</ele><time>2026-04-17T12:20:31.613Z</time></trkpt><trkpt lat="42.7124817" lon="12.1198633"><ele>154.0</ele><time>2026-04-17T12:20:32.612Z</time></trkpt><trkpt lat="42.7126417" lon="12.119835"><ele>154.0</ele><time>2026-04-17T12:20:33.613Z</time></trkpt><trkpt lat="42.71279" lon="12.1197967"><ele>154.25</ele><time>2026-04-17T12:20:34.613Z</time></trkpt><trkpt lat="42.71294" lon="12.1197633"><ele>154.5</ele><time>2026-04-17T12:20:35.613Z</time></trkpt><trkpt lat="42.7130683" lon="12.1197417"><ele>154.75</ele><time>2026-04-17T12:20:36.612Z</time></trkpt><trkpt lat="42.7131867" lon="12.119725"><ele>155.0</ele><time>2026-04-17T12:20:37.613Z</time></trkpt><trkpt lat="42.7133033" lon="12.1197217"><ele>155.0</ele><time>2026-04-17T12:20:38.612Z</time></trkpt><trkpt lat="42.7134083" lon="12.1197417"><ele>155.0</ele><time>2026-04-17T12:20:39.613Z</time></trkpt><trkpt lat="42.7135167" lon="12.1197883"><ele>155.0</ele><time>2026-04-17T12:20:40.612Z</time></trkpt><trkpt lat="42.7136067" lon="12.1198667"><ele>155.0</ele><time>2026-04-17T12:20:41.613Z</time></trkpt><trkpt lat="42.71367" lon="12.1199467"><ele>155.0</ele><time>2026-04-17T12:20:42.612Z</time></trkpt><trkpt lat="42.7137233" lon="12.1200133"><ele>155.83333333333331</ele><time>2026-04-17T12:20:43.613Z</time></trkpt><trkpt lat="42.713795" lon="12.1201467"><ele>156.66666666666666</ele><time>2026-04-17T12:20:45.613Z</time></trkpt><trkpt lat="42.7138417" lon="12.1202183"><ele>157.5</ele><time>2026-04-17T12:20:46.612Z</time></trkpt><trkpt lat="42.7138917" lon="12.120305"><ele>158.33333333333334</ele><time>2026-04-17T12:20:47.612Z</time></trkpt><trkpt lat="42.7139383" lon="12.1204033"><ele>159.16666666666669</ele><time>2026-04-17T12:20:48.613Z</time></trkpt><trkpt lat="42.7139917" lon="12.120495"><ele>160.0</ele><time>2026-04-17T12:20:49.613Z</time></trkpt><trkpt lat="42.714045" lon="12.120595"><ele>160.0</ele><time>2026-04-17T12:20:50.613Z</time></trkpt><trkpt lat="42.7141083" lon="12.1206917"><ele>160.0</ele><time>2026-04-17T12:20:51.613Z</time></trkpt><trkpt lat="42.7141833" lon="12.1208067"><ele>160.0</ele><time>2026-04-17T12:20:52.613Z</time></trkpt><trkpt lat="42.7142733" lon="12.12094"><ele>160.0</ele><time>2026-04-17T12:20:53.613Z</time></trkpt><trkpt lat="42.7143683" lon="12.1211"><ele>160.5</ele><time>2026-04-17T12:20:54.613Z</time></trkpt><trkpt lat="42.7144617" lon="12.1212483"><ele>161.0</ele><time>2026-04-17T12:20:55.613Z</time></trkpt><trkpt lat="42.7145583" lon="12.121395"><ele>161.5</ele><time>2026-04-17T12:20:56.613Z</time></trkpt><trkpt lat="42.7146567" lon="12.12152"><ele>162.0</ele><time>2026-04-17T12:20:57.613Z</time></trkpt><trkpt lat="42.7147517" lon="12.1216417"><ele>159.5</ele><time>2026-04-17T12:20:58.613Z</time></trkpt><trkpt lat="42.7148517" lon="12.1217633"><ele>157.0</ele><time>2026-04-17T12:20:59.613Z</time></trkpt><trkpt lat="42.7149483" lon="12.1218867"><ele>154.5</ele><time>2026-04-17T12:21:00.613Z</time></trkpt><trkpt lat="42.71505" lon="12.12202"><ele>152.0</ele><time>2026-04-17T12:21:01.613Z</time></trkpt><trkpt lat="42.7151417" lon="12.1221433"><ele>151.75</ele><time>2026-04-17T12:21:02.613Z</time></trkpt><trkpt lat="42.7152383" lon="12.1222617"><ele>151.5</ele><time>2026-04-17T12:21:03.613Z</time></trkpt><trkpt lat="42.71533" lon="12.1223783"><ele>151.25</ele><time>2026-04-17T12:21:04.612Z</time></trkpt><trkpt lat="42.7154167" lon="12.122495"><ele>151.0</ele><time>2026-04-17T12:21:05.613Z</time></trkpt><trkpt lat="42.7155033" lon="12.1226067"><ele>151.0</ele><time>2026-04-17T12:21:06.613Z</time></trkpt><trkpt lat="42.7155833" lon="12.12272"><ele>151.0</ele><time>2026-04-17T12:21:07.612Z</time></trkpt><trkpt lat="42.715665" lon="12.12283"><ele>151.0</ele><time>2026-04-17T12:21:08.613Z</time></trkpt><trkpt lat="42.7157483" lon="12.1229483"><ele>151.0</ele><time>2026-04-17T12:21:09.613Z</time></trkpt><trkpt lat="42.7158283" lon="12.1230767"><ele>151.0</ele><time>2026-04-17T12:21:10.613Z</time></trkpt><trkpt lat="42.7159017" lon="12.123225"><ele>151.0</ele><time>2026-04-17T12:21:11.613Z</time></trkpt><trkpt lat="42.71597" lon="12.12338"><ele>151.0</ele><time>2026-04-17T12:21:12.613Z</time></trkpt><trkpt lat="42.7160233" lon="12.1235283"><ele>151.0</ele><time>2026-04-17T12:21:13.613Z</time></trkpt><trkpt lat="42.7160917" lon="12.1236667"><ele>148.5</ele><time>2026-04-17T12:21:14.613Z</time></trkpt><trkpt lat="42.7161583" lon="12.1237933"><ele>146.0</ele><time>2026-04-17T12:21:15.613Z</time></trkpt><trkpt lat="42.7162333" lon="12.1239067"><ele>143.5</ele><time>2026-04-17T12:21:16.613Z</time></trkpt><trkpt lat="42.7163217" lon="12.1240267"><ele>141.0</ele><time>2026-04-17T12:21:17.613Z</time></trkpt><trkpt lat="42.716415" lon="12.124135"><ele>140.25</ele><time>2026-04-17T12:21:18.613Z</time></trkpt><trkpt lat="42.7165167" lon="12.12424"><ele>139.5</ele><time>2026-04-17T12:21:19.613Z</time></trkpt><trkpt lat="42.7166283" lon="12.12435"><ele>138.75</ele><time>2026-04-17T12:21:20.613Z</time></trkpt><trkpt lat="42.7167367" lon="12.1244567"><ele>138.0</ele><time>2026-04-17T12:21:21.613Z</time></trkpt><trkpt lat="42.7168483" lon="12.12456"><ele>138.25</ele><time>2026-04-17T12:21:22.613Z</time></trkpt><trkpt lat="42.7169617" lon="12.1246583"><ele>138.5</ele><time>2026-04-17T12:21:23.612Z</time></trkpt><trkpt lat="42.7170783" lon="12.1247583"><ele>138.75</ele><time>2026-04-17T12:21:24.612Z</time></trkpt><trkpt lat="42.7171917" lon="12.1248633"><ele>139.0</ele><time>2026-04-17T12:21:25.613Z</time></trkpt><trkpt lat="42.7173" lon="12.12497"><ele>139.0</ele><time>2026-04-17T12:21:26.613Z</time></trkpt><trkpt lat="42.7174167" lon="12.125085"><ele>139.0</ele><time>2026-04-17T12:21:27.613Z</time></trkpt><trkpt lat="42.71754" lon="12.1251983"><ele>139.0</ele><time>2026-04-17T12:21:28.612Z</time></trkpt><trkpt lat="42.71766" lon="12.1253083"><ele>139.0</ele><time>2026-04-17T12:21:29.613Z</time></trkpt><trkpt lat="42.71776" lon="12.125415"><ele>139.0</ele><time>2026-04-17T12:21:30.613Z</time></trkpt><trkpt lat="42.7178617" lon="12.1255133"><ele>139.0</ele><time>2026-04-17T12:21:31.613Z</time></trkpt><trkpt lat="42.7179617" lon="12.125625"><ele>139.0</ele><time>2026-04-17T12:21:32.613Z</time></trkpt><trkpt lat="42.7180667" lon="12.1257383"><ele>139.0</ele><time>2026-04-17T12:21:33.612Z</time></trkpt><trkpt lat="42.7181717" lon="12.12585"><ele>139.0</ele><time>2026-04-17T12:21:34.613Z</time></trkpt><trkpt lat="42.7182783" lon="12.1259667"><ele>139.0</ele><time>2026-04-17T12:21:35.613Z</time></trkpt><trkpt lat="42.7183833" lon="12.1260833"><ele>139.0</ele><time>2026-04-17T12:21:36.612Z</time></trkpt><trkpt lat="42.7184983" lon="12.126205"><ele>139.0</ele><time>2026-04-17T12:21:37.612Z</time></trkpt><trkpt lat="42.7186067" lon="12.1263267"><ele>138.0</ele><time>2026-04-17T12:21:38.613Z</time></trkpt><trkpt lat="42.7187233" lon="12.126445"><ele>137.0</ele><time>2026-04-17T12:21:39.613Z</time></trkpt><trkpt lat="42.7188283" lon="12.12656"><ele>136.0</ele><time>2026-04-17T12:21:40.613Z</time></trkpt><trkpt lat="42.71892" lon="12.1266633"><ele>135.0</ele><time>2026-04-17T12:21:41.612Z</time></trkpt><trkpt lat="42.719015" lon="12.1267717"><ele>134.5</ele><time>2026-04-17T12:21:42.613Z</time></trkpt><trkpt lat="42.719105" lon="12.1268817"><ele>134.0</ele><time>2026-04-17T12:21:43.613Z</time></trkpt><trkpt lat="42.7191917" lon="12.1269967"><ele>133.5</ele><time>2026-04-17T12:21:44.613Z</time></trkpt><trkpt lat="42.7192717" lon="12.12711"><ele>133.0</ele><time>2026-04-17T12:21:45.613Z</time></trkpt><trkpt lat="42.7193567" lon="12.1272417"><ele>132.75</ele><time>2026-04-17T12:21:46.613Z</time></trkpt><trkpt lat="42.71943" lon="12.1273867"><ele>132.5</ele><time>2026-04-17T12:21:47.613Z</time></trkpt><trkpt lat="42.7195067" lon="12.127545"><ele>132.25</ele><time>2026-04-17T12:21:48.613Z</time></trkpt><trkpt lat="42.7195767" lon="12.127715"><ele>132.0</ele><time>2026-04-17T12:21:49.613Z</time></trkpt><trkpt lat="42.7196367" lon="12.127895"><ele>131.66666666666666</ele><time>2026-04-17T12:21:50.613Z</time></trkpt><trkpt lat="42.7197017" lon="12.1280833"><ele>131.33333333333331</ele><time>2026-04-17T12:21:51.613Z</time></trkpt><trkpt lat="42.719735" lon="12.1282983"><ele>131.0</ele><time>2026-04-17T12:21:52.613Z</time></trkpt><trkpt lat="42.71976" lon="12.1285133"><ele>131.0</ele><time>2026-04-17T12:21:53.613Z</time></trkpt><trkpt lat="42.719775" lon="12.1287133"><ele>131.0</ele><time>2026-04-17T12:21:54.613Z</time></trkpt><trkpt lat="42.719785" lon="12.128915"><ele>131.0</ele><time>2026-04-17T12:21:55.613Z</time></trkpt><trkpt lat="42.719785" lon="12.1291183"><ele>131.0</ele><time>2026-04-17T12:21:56.613Z</time></trkpt><trkpt lat="42.7197817" lon="12.12933"><ele>130.33333333333331</ele><time>2026-04-17T12:21:57.613Z</time></trkpt><trkpt lat="42.7197833" lon="12.129545"><ele>129.66666666666666</ele><time>2026-04-17T12:21:58.613Z</time></trkpt><trkpt lat="42.719785" lon="12.1297583"><ele>129.0</ele><time>2026-04-17T12:21:59.613Z</time></trkpt><trkpt lat="42.7197733" lon="12.129955"><ele>128.0</ele><time>2026-04-17T12:22:00.612Z</time></trkpt><trkpt lat="42.7197633" lon="12.13014"><ele>127.0</ele><time>2026-04-17T12:22:01.613Z</time></trkpt><trkpt lat="42.7197567" lon="12.1303267"><ele>126.0</ele><time>2026-04-17T12:22:02.613Z</time></trkpt><trkpt lat="42.71976" lon="12.130525"><ele>125.0</ele><time>2026-04-17T12:22:03.613Z</time></trkpt><trkpt lat="42.719765" lon="12.1307167"><ele>125.0</ele><time>2026-04-17T12:22:04.613Z</time></trkpt><trkpt lat="42.7197617" lon="12.1309"><ele>125.0</ele><time>2026-04-17T12:22:05.613Z</time></trkpt><trkpt lat="42.7197583" lon="12.1310783"><ele>125.0</ele><time>2026-04-17T12:22:06.613Z</time></trkpt><trkpt lat="42.71975" lon="12.131255"><ele>125.0</ele><time>2026-04-17T12:22:07.612Z</time></trkpt><trkpt lat="42.7197433" lon="12.13143"><ele>124.5</ele><time>2026-04-17T12:22:08.613Z</time></trkpt><trkpt lat="42.7197383" lon="12.1315983"><ele>124.0</ele><time>2026-04-17T12:22:09.612Z</time></trkpt><trkpt lat="42.7197533" lon="12.13176"><ele>123.5</ele><time>2026-04-17T12:22:10.613Z</time></trkpt><trkpt lat="42.71977" lon="12.1319167"><ele>123.0</ele><time>2026-04-17T12:22:11.613Z</time></trkpt><trkpt lat="42.7197983" lon="12.13207"><ele>123.0</ele><time>2026-04-17T12:22:12.613Z</time></trkpt><trkpt lat="42.719825" lon="12.13223"><ele>123.0</ele><time>2026-04-17T12:22:13.613Z</time></trkpt><trkpt lat="42.71987" lon="12.13239"><ele>123.0</ele><time>2026-04-17T12:22:14.613Z</time></trkpt><trkpt lat="42.7199167" lon="12.1325433"><ele>123.0</ele><time>2026-04-17T12:22:15.612Z</time></trkpt><trkpt lat="42.7199583" lon="12.1326733"><ele>123.4</ele><time>2026-04-17T12:22:16.613Z</time></trkpt><trkpt lat="42.7200033" lon="12.1328117"><ele>123.80000000000001</ele><time>2026-04-17T12:22:17.613Z</time></trkpt><trkpt lat="42.72006" lon="12.1329517"><ele>124.2</ele><time>2026-04-17T12:22:18.612Z</time></trkpt><trkpt lat="42.7201183" lon="12.1330717"><ele>124.6</ele><time>2026-04-17T12:22:19.613Z</time></trkpt><trkpt lat="42.7201833" lon="12.1331833"><ele>125.0</ele><time>2026-04-17T12:22:20.612Z</time></trkpt><trkpt lat="42.720255" lon="12.1332867"><ele>123.6</ele><time>2026-04-17T12:22:21.613Z</time></trkpt><trkpt lat="42.7203267" lon="12.133385"><ele>122.2</ele><time>2026-04-17T12:22:22.613Z</time></trkpt><trkpt lat="42.7203933" lon="12.13347"><ele>120.80000000000001</ele><time>2026-04-17T12:22:23.613Z</time></trkpt><trkpt lat="42.7204617" lon="12.1335533"><ele>119.4</ele><time>2026-04-17T12:22:24.612Z</time></trkpt><trkpt lat="42.72053" lon="12.1336283"><ele>118.0</ele><time>2026-04-17T12:22:25.613Z</time></trkpt><trkpt lat="42.7206" lon="12.1336883"><ele>118.00000000000001</ele><time>2026-04-17T12:22:26.612Z</time></trkpt><trkpt lat="42.720665" lon="12.1337533"><ele>118.0</ele><time>2026-04-17T12:22:27.613Z</time></trkpt><trkpt lat="42.7207433" lon="12.133805"><ele>118.0</ele><time>2026-04-17T12:22:28.613Z</time></trkpt><trkpt lat="42.720815" lon="12.13387"><ele>118.0</ele><time>2026-04-17T12:22:29.613Z</time></trkpt><trkpt lat="42.7208983" lon="12.1339217"><ele>118.00000000000001</ele><time>2026-04-17T12:22:30.612Z</time></trkpt><trkpt lat="42.720955" lon="12.1339867"><ele>118.0</ele><time>2026-04-17T12:22:31.613Z</time></trkpt><trkpt lat="42.7210367" lon="12.13408"><ele>117.66666666666667</ele><time>2026-04-17T12:22:33.613Z</time></trkpt><trkpt lat="42.72109" lon="12.1341467"><ele>117.33333333333334</ele><time>2026-04-17T12:22:35.613Z</time></trkpt><trkpt lat="42.7211633" lon="12.1342283"><ele>117.0</ele><time>2026-04-17T12:22:38.613Z</time></trkpt><trkpt lat="42.7212167" lon="12.1343017"><ele>116.66666666666666</ele><time>2026-04-17T12:22:41.612Z</time></trkpt><trkpt lat="42.7212533" lon="12.1343767"><ele>116.33333333333333</ele><time>2026-04-17T12:22:44.613Z</time></trkpt><trkpt lat="42.7213" lon="12.13449"><ele>116.0</ele><time>2026-04-17T12:22:47.612Z</time></trkpt><trkpt lat="42.7213467" lon="12.134645"><ele>115.99999999999999</ele><time>2026-04-17T12:22:49.613Z</time></trkpt><trkpt lat="42.7213967" lon="12.1347133"><ele>116.0</ele><time>2026-04-17T12:22:50.613Z</time></trkpt><trkpt lat="42.7214483" lon="12.1347733"><ele>116.0</ele><time>2026-04-17T12:22:51.612Z</time></trkpt><trkpt lat="42.7215183" lon="12.1348267"><ele>116.0</ele><time>2026-04-17T12:22:52.612Z</time></trkpt><trkpt lat="42.7216017" lon="12.1348617"><ele>115.99999999999999</ele><time>2026-04-17T12:22:53.613Z</time></trkpt><trkpt lat="42.7216967" lon="12.13489"><ele>116.0</ele><time>2026-04-17T12:22:54.613Z</time></trkpt><trkpt lat="42.7217883" lon="12.13494"><ele>116.0</ele><time>2026-04-17T12:22:55.613Z</time></trkpt><trkpt lat="42.7218783" lon="12.1350083"><ele>116.0</ele><time>2026-04-17T12:22:56.613Z</time></trkpt><trkpt lat="42.72197" lon="12.1350733"><ele>116.0</ele><time>2026-04-17T12:22:57.613Z</time></trkpt><trkpt lat="42.7220633" lon="12.1351417"><ele>116.0</ele><time>2026-04-17T12:22:58.612Z</time></trkpt><trkpt lat="42.7221533" lon="12.1352083"><ele>116.0</ele><time>2026-04-17T12:22:59.613Z</time></trkpt><trkpt lat="42.7222467" lon="12.1352733"><ele>116.16666666666666</ele><time>2026-04-17T12:23:00.613Z</time></trkpt><trkpt lat="42.722335" lon="12.135325"><ele>116.33333333333333</ele><time>2026-04-17T12:23:01.613Z</time></trkpt><trkpt lat="42.7224167" lon="12.1353767"><ele>116.5</ele><time>2026-04-17T12:23:02.613Z</time></trkpt><trkpt lat="42.7225" lon="12.13542"><ele>116.66666666666666</ele><time>2026-04-17T12:23:03.613Z</time></trkpt><trkpt lat="42.72258" lon="12.1354633"><ele>116.83333333333333</ele><time>2026-04-17T12:23:04.613Z</time></trkpt><trkpt lat="42.7226567" lon="12.1355033"><ele>117.0</ele><time>2026-04-17T12:23:05.613Z</time></trkpt><trkpt lat="42.7227367" lon="12.135545"><ele>117.0</ele><time>2026-04-17T12:23:06.613Z</time></trkpt><trkpt lat="42.7228233" lon="12.1355783"><ele>117.00000000000001</ele><time>2026-04-17T12:23:07.612Z</time></trkpt><trkpt lat="42.7228967" lon="12.1356017"><ele>117.0</ele><time>2026-04-17T12:23:08.612Z</time></trkpt><trkpt lat="42.7229717" lon="12.13562"><ele>117.0</ele><time>2026-04-17T12:23:09.612Z</time></trkpt><trkpt lat="42.7230367" lon="12.1356333"><ele>117.00000000000001</ele><time>2026-04-17T12:23:10.612Z</time></trkpt><trkpt lat="42.7231083" lon="12.1356467"><ele>117.0</ele><time>2026-04-17T12:23:11.613Z</time></trkpt><trkpt lat="42.723165" lon="12.135695"><ele>117.0</ele><time>2026-04-17T12:23:12.613Z</time></trkpt><trkpt lat="42.7232333" lon="12.13574"><ele>116.39999999999999</ele><time>2026-04-17T12:23:14.613Z</time></trkpt><trkpt lat="42.7232917" lon="12.135805"><ele>115.79999999999998</ele><time>2026-04-17T12:23:16.613Z</time></trkpt><trkpt lat="42.7233583" lon="12.1359417"><ele>115.2</ele><time>2026-04-17T12:23:18.613Z</time></trkpt><trkpt lat="42.7234417" lon="12.13605"><ele>114.6</ele><time>2026-04-17T12:23:20.613Z</time></trkpt><trkpt lat="42.723565" lon="12.13607"><ele>114.0</ele><time>2026-04-17T12:23:22.613Z</time></trkpt><trkpt lat="42.723685" lon="12.13599"><ele>113.5</ele><time>2026-04-17T12:23:24.613Z</time></trkpt><trkpt lat="42.7237417" lon="12.135915"><ele>113.0</ele><time>2026-04-17T12:23:25.613Z</time></trkpt><trkpt lat="42.7238033" lon="12.135855"><ele>112.5</ele><time>2026-04-17T12:23:26.613Z</time></trkpt><trkpt lat="42.7238683" lon="12.1358317"><ele>112.0</ele><time>2026-04-17T12:23:27.613Z</time></trkpt><trkpt lat="42.723955" lon="12.135825"><ele>111.5</ele><time>2026-04-17T12:23:28.613Z</time></trkpt><trkpt lat="42.7240583" lon="12.13583"><ele>111.0</ele><time>2026-04-17T12:23:29.613Z</time></trkpt><trkpt lat="42.7241733" lon="12.1358517"><ele>111.0</ele><time>2026-04-17T12:23:30.612Z</time></trkpt><trkpt lat="42.7242867" lon="12.1358667"><ele>111.0</ele><time>2026-04-17T12:23:31.612Z</time></trkpt><trkpt lat="42.7243917" lon="12.1358817"><ele>111.0</ele><time>2026-04-17T12:23:32.613Z</time></trkpt><trkpt lat="42.724495" lon="12.135895"><ele>111.0</ele><time>2026-04-17T12:23:33.613Z</time></trkpt><trkpt lat="42.7245833" lon="12.135905"><ele>111.0</ele><time>2026-04-17T12:23:34.612Z</time></trkpt><trkpt lat="42.724675" lon="12.1359233"><ele>110.8</ele><time>2026-04-17T12:23:35.613Z</time></trkpt><trkpt lat="42.7247683" lon="12.1359417"><ele>110.6</ele><time>2026-04-17T12:23:36.612Z</time></trkpt><trkpt lat="42.72487" lon="12.13596"><ele>110.4</ele><time>2026-04-17T12:23:37.613Z</time></trkpt><trkpt lat="42.7249667" lon="12.135975"><ele>110.2</ele><time>2026-04-17T12:23:38.613Z</time></trkpt><trkpt lat="42.7250617" lon="12.1359917"><ele>110.0</ele><time>2026-04-17T12:23:39.613Z</time></trkpt><trkpt lat="42.72516" lon="12.1360067"><ele>110.4</ele><time>2026-04-17T12:23:40.613Z</time></trkpt><trkpt lat="42.7252583" lon="12.1360233"><ele>110.8</ele><time>2026-04-17T12:23:41.613Z</time></trkpt><trkpt lat="42.7253583" lon="12.1360383"><ele>111.19999999999999</ele><time>2026-04-17T12:23:42.613Z</time></trkpt><trkpt lat="42.72546" lon="12.136055"><ele>111.6</ele><time>2026-04-17T12:23:43.613Z</time></trkpt><trkpt lat="42.7255667" lon="12.1360767"><ele>112.0</ele><time>2026-04-17T12:23:44.613Z</time></trkpt><trkpt lat="42.7256683" lon="12.1360883"><ele>112.0</ele><time>2026-04-17T12:23:45.613Z</time></trkpt><trkpt lat="42.7257733" lon="12.1361"><ele>111.99999999999999</ele><time>2026-04-17T12:23:46.613Z</time></trkpt><trkpt lat="42.7258767" lon="12.136115"><ele>111.99999999999999</ele><time>2026-04-17T12:23:47.613Z</time></trkpt><trkpt lat="42.72598" lon="12.1361333"><ele>112.0</ele><time>2026-04-17T12:23:48.613Z</time></trkpt><trkpt lat="42.7260817" lon="12.1361433"><ele>112.0</ele><time>2026-04-17T12:23:49.613Z</time></trkpt><trkpt lat="42.726175" lon="12.1361583"><ele>112.83333333333334</ele><time>2026-04-17T12:23:50.613Z</time></trkpt><trkpt lat="42.7262633" lon="12.1361767"><ele>113.66666666666667</ele><time>2026-04-17T12:23:51.613Z</time></trkpt><trkpt lat="42.7263383" lon="12.1362083"><ele>114.5</ele><time>2026-04-17T12:23:52.612Z</time></trkpt><trkpt lat="42.726415" lon="12.1362333"><ele>115.33333333333334</ele><time>2026-04-17T12:23:53.613Z</time></trkpt><trkpt lat="42.7264917" lon="12.136265"><ele>116.16666666666667</ele><time>2026-04-17T12:23:54.613Z</time></trkpt><trkpt lat="42.7265633" lon="12.1363167"><ele>117.0</ele><time>2026-04-17T12:23:55.613Z</time></trkpt><trkpt lat="42.7266333" lon="12.136375"><ele>117.0</ele><time>2026-04-17T12:23:56.612Z</time></trkpt><trkpt lat="42.7266967" lon="12.1364483"><ele>116.99999999999999</ele><time>2026-04-17T12:23:57.613Z</time></trkpt><trkpt lat="42.7267667" lon="12.1365417"><ele>116.99999999999999</ele><time>2026-04-17T12:23:58.613Z</time></trkpt><trkpt lat="42.7268583" lon="12.1366217"><ele>117.0</ele><time>2026-04-17T12:23:59.613Z</time></trkpt><trkpt lat="42.7269617" lon="12.1366917"><ele>117.0</ele><time>2026-04-17T12:24:00.613Z</time></trkpt><trkpt lat="42.72707" lon="12.136775"><ele>117.5</ele><time>2026-04-17T12:24:01.613Z</time></trkpt><trkpt lat="42.7271883" lon="12.1368533"><ele>118.0</ele><time>2026-04-17T12:24:02.611Z</time></trkpt><trkpt lat="42.7272967" lon="12.1369267"><ele>118.5</ele><time>2026-04-17T12:24:03.612Z</time></trkpt><trkpt lat="42.7273983" lon="12.1369967"><ele>119.0</ele><time>2026-04-17T12:24:04.612Z</time></trkpt><trkpt lat="42.7275033" lon="12.1370683"><ele>119.0</ele><time>2026-04-17T12:24:05.612Z</time></trkpt><trkpt lat="42.7276167" lon="12.1371367"><ele>119.0</ele><time>2026-04-17T12:24:06.612Z</time></trkpt><trkpt lat="42.72773" lon="12.1372117"><ele>119.0</ele><time>2026-04-17T12:24:07.612Z</time></trkpt><trkpt lat="42.727845" lon="12.137285"><ele>119.0</ele><time>2026-04-17T12:24:08.612Z</time></trkpt><trkpt lat="42.7279717" lon="12.1373567"><ele>119.5</ele><time>2026-04-17T12:24:09.612Z</time></trkpt><trkpt lat="42.7280833" lon="12.1374367"><ele>120.0</ele><time>2026-04-17T12:24:10.612Z</time></trkpt><trkpt lat="42.72819" lon="12.1375067"><ele>120.5</ele><time>2026-04-17T12:24:11.612Z</time></trkpt><trkpt lat="42.7282833" lon="12.1375717"><ele>121.0</ele><time>2026-04-17T12:24:12.612Z</time></trkpt><trkpt lat="42.7283783" lon="12.137635"><ele>121.0</ele><time>2026-04-17T12:24:13.611Z</time></trkpt><trkpt lat="42.7284717" lon="12.137705"><ele>121.0</ele><time>2026-04-17T12:24:14.612Z</time></trkpt><trkpt lat="42.7285667" lon="12.1377617"><ele>121.0</ele><time>2026-04-17T12:24:15.612Z</time></trkpt><trkpt lat="42.72865" lon="12.1378317"><ele>121.0</ele><time>2026-04-17T12:24:16.612Z</time></trkpt><trkpt lat="42.728735" lon="12.1378883"><ele>121.0</ele><time>2026-04-17T12:24:17.612Z</time></trkpt><trkpt lat="42.728815" lon="12.1379517"><ele>121.6</ele><time>2026-04-17T12:24:18.611Z</time></trkpt><trkpt lat="42.7289017" lon="12.13802"><ele>122.19999999999999</ele><time>2026-04-17T12:24:19.612Z</time></trkpt><trkpt lat="42.7289867" lon="12.1380867"><ele>122.80000000000001</ele><time>2026-04-17T12:24:20.612Z</time></trkpt><trkpt lat="42.7290733" lon="12.1381667"><ele>123.4</ele><time>2026-04-17T12:24:21.612Z</time></trkpt><trkpt lat="42.7291633" lon="12.1382283"><ele>124.0</ele><time>2026-04-17T12:24:22.612Z</time></trkpt><trkpt lat="42.72924" lon="12.1382883"><ele>124.33333333333334</ele><time>2026-04-17T12:24:23.611Z</time></trkpt><trkpt lat="42.7293067" lon="12.1383433"><ele>124.66666666666667</ele><time>2026-04-17T12:24:24.612Z</time></trkpt><trkpt lat="42.7293633" lon="12.138395"><ele>125.0</ele><time>2026-04-17T12:24:25.612Z</time></trkpt><trkpt lat="42.7294283" lon="12.138515"><ele>125.33333333333334</ele><time>2026-04-17T12:24:27.612Z</time></trkpt><trkpt lat="42.729435" lon="12.1386667"><ele>125.66666666666667</ele><time>2026-04-17T12:24:29.612Z</time></trkpt><trkpt lat="42.729395" lon="12.1387633"><ele>126.0</ele><time>2026-04-17T12:24:30.612Z</time></trkpt><trkpt lat="42.72934" lon="12.1388583"><ele>126.0</ele><time>2026-04-17T12:24:31.611Z</time></trkpt><trkpt lat="42.7292667" lon="12.138975"><ele>126.0</ele><time>2026-04-17T12:24:32.612Z</time></trkpt><trkpt lat="42.7291933" lon="12.13909"><ele>126.0</ele><time>2026-04-17T12:24:33.612Z</time></trkpt><trkpt lat="42.7291283" lon="12.1391983"><ele>126.0</ele><time>2026-04-17T12:24:34.612Z</time></trkpt><trkpt lat="42.729065" lon="12.13932"><ele>126.0</ele><time>2026-04-17T12:24:35.612Z</time></trkpt><trkpt lat="42.72901" lon="12.139455"><ele>126.0</ele><time>2026-04-17T12:24:36.612Z</time></trkpt><trkpt lat="42.7289583" lon="12.1395967"><ele>126.0</ele><time>2026-04-17T12:24:37.612Z</time></trkpt><trkpt lat="42.72891" lon="12.13976"><ele>126.0</ele><time>2026-04-17T12:24:38.612Z</time></trkpt><trkpt lat="42.7288717" lon="12.1399333"><ele>126.0</ele><time>2026-04-17T12:24:39.612Z</time></trkpt><trkpt lat="42.7288383" lon="12.1400883"><ele>126.0</ele><time>2026-04-17T12:24:40.612Z</time></trkpt><trkpt lat="42.7287967" lon="12.1402367"><ele>126.0</ele><time>2026-04-17T12:24:41.612Z</time></trkpt><trkpt lat="42.7287567" lon="12.140385"><ele>126.0</ele><time>2026-04-17T12:24:42.611Z</time></trkpt><trkpt lat="42.728715" lon="12.1405367"><ele>126.0</ele><time>2026-04-17T12:24:43.611Z</time></trkpt><trkpt lat="42.72867" lon="12.1406883"><ele>126.25</ele><time>2026-04-17T12:24:44.612Z</time></trkpt><trkpt lat="42.7286167" lon="12.1408433"><ele>126.5</ele><time>2026-04-17T12:24:45.612Z</time></trkpt><trkpt lat="42.72855" lon="12.1409933"><ele>126.75</ele><time>2026-04-17T12:24:46.611Z</time></trkpt><trkpt lat="42.72846" lon="12.1411667"><ele>127.0</ele><time>2026-04-17T12:24:47.611Z</time></trkpt><trkpt lat="42.7283533" lon="12.141345"><ele>126.0</ele><time>2026-04-17T12:24:48.612Z</time></trkpt><trkpt lat="42.7282483" lon="12.1415283"><ele>125.0</ele><time>2026-04-17T12:24:49.612Z</time></trkpt><trkpt lat="42.7281367" lon="12.1417083"><ele>124.0</ele><time>2026-04-17T12:24:50.611Z</time></trkpt><trkpt lat="42.728035" lon="12.1418817"><ele>124.0</ele><time>2026-04-17T12:24:51.611Z</time></trkpt><trkpt lat="42.72794" lon="12.1420417"><ele>124.0</ele><time>2026-04-17T12:24:52.612Z</time></trkpt><trkpt lat="42.727845" lon="12.1422017"><ele>124.0</ele><time>2026-04-17T12:24:53.612Z</time></trkpt><trkpt lat="42.7277467" lon="12.1423667"><ele>122.33333333333334</ele><time>2026-04-17T12:24:54.612Z</time></trkpt><trkpt lat="42.7276583" lon="12.14253"><ele>120.66666666666666</ele><time>2026-04-17T12:24:55.612Z</time></trkpt><trkpt lat="42.7275683" lon="12.1426983"><ele>119.0</ele><time>2026-04-17T12:24:56.612Z</time></trkpt><trkpt lat="42.7274867" lon="12.14287"><ele>119.0</ele><time>2026-04-17T12:24:57.612Z</time></trkpt><trkpt lat="42.727405" lon="12.1430483"><ele>119.0</ele><time>2026-04-17T12:24:58.611Z</time></trkpt><trkpt lat="42.727335" lon="12.14323"><ele>119.0</ele><time>2026-04-17T12:24:59.611Z</time></trkpt><trkpt lat="42.7272517" lon="12.1434167"><ele>120.0</ele><time>2026-04-17T12:25:00.612Z</time></trkpt><trkpt lat="42.7271733" lon="12.1436017"><ele>121.0</ele><time>2026-04-17T12:25:01.612Z</time></trkpt><trkpt lat="42.7270967" lon="12.1437833"><ele>122.0</ele><time>2026-04-17T12:25:02.611Z</time></trkpt><trkpt lat="42.727015" lon="12.1439533"><ele>121.66666666666666</ele><time>2026-04-17T12:25:03.611Z</time></trkpt><trkpt lat="42.72693" lon="12.1441283"><ele>121.33333333333334</ele><time>2026-04-17T12:25:04.611Z</time></trkpt><trkpt lat="42.7268483" lon="12.1443083"><ele>121.0</ele><time>2026-04-17T12:25:05.611Z</time></trkpt><trkpt lat="42.7267733" lon="12.14449"><ele>121.0</ele><time>2026-04-17T12:25:06.612Z</time></trkpt><trkpt lat="42.7266883" lon="12.1446717"><ele>121.0</ele><time>2026-04-17T12:25:07.612Z</time></trkpt><trkpt lat="42.72661" lon="12.1448567"><ele>121.0</ele><time>2026-04-17T12:25:08.612Z</time></trkpt><trkpt lat="42.7265283" lon="12.1450417"><ele>121.33333333333334</ele><time>2026-04-17T12:25:09.611Z</time></trkpt><trkpt lat="42.726445" lon="12.1452267"><ele>121.66666666666666</ele><time>2026-04-17T12:25:10.612Z</time></trkpt><trkpt lat="42.7263583" lon="12.145415"><ele>122.0</ele><time>2026-04-17T12:25:11.612Z</time></trkpt><trkpt lat="42.7262733" lon="12.1456033"><ele>122.0</ele><time>2026-04-17T12:25:12.611Z</time></trkpt><trkpt lat="42.7261883" lon="12.1457917"><ele>122.0</ele><time>2026-04-17T12:25:13.612Z</time></trkpt><trkpt lat="42.726105" lon="12.1459817"><ele>122.0</ele><time>2026-04-17T12:25:14.612Z</time></trkpt><trkpt lat="42.7260167" lon="12.1461667"><ele>121.33333333333333</ele><time>2026-04-17T12:25:15.612Z</time></trkpt><trkpt lat="42.7259317" lon="12.1463617"><ele>120.66666666666666</ele><time>2026-04-17T12:25:16.612Z</time></trkpt><trkpt lat="42.72585" lon="12.146555"><ele>120.0</ele><time>2026-04-17T12:25:17.612Z</time></trkpt><trkpt lat="42.7257633" lon="12.1467467"><ele>120.0</ele><time>2026-04-17T12:25:18.612Z</time></trkpt><trkpt lat="42.7256733" lon="12.1469483"><ele>120.0</ele><time>2026-04-17T12:25:19.611Z</time></trkpt><trkpt lat="42.7255867" lon="12.1471483"><ele>120.0</ele><time>2026-04-17T12:25:20.611Z</time></trkpt><trkpt lat="42.7255" lon="12.147345"><ele>120.33333333333334</ele><time>2026-04-17T12:25:21.611Z</time></trkpt><trkpt lat="42.7254133" lon="12.1475383"><ele>120.66666666666667</ele><time>2026-04-17T12:25:22.612Z</time></trkpt><trkpt lat="42.7253267" lon="12.147725"><ele>121.0</ele><time>2026-04-17T12:25:23.612Z</time></trkpt><trkpt lat="42.72524" lon="12.1479117"><ele>120.66666666666667</ele><time>2026-04-17T12:25:24.611Z</time></trkpt><trkpt lat="42.72515" lon="12.14811"><ele>120.33333333333334</ele><time>2026-04-17T12:25:25.612Z</time></trkpt><trkpt lat="42.7250633" lon="12.148315"><ele>120.0</ele><time>2026-04-17T12:25:26.612Z</time></trkpt><trkpt lat="42.7249683" lon="12.1485267"><ele>120.0</ele><time>2026-04-17T12:25:27.612Z</time></trkpt><trkpt lat="42.7248733" lon="12.14874"><ele>120.0</ele><time>2026-04-17T12:25:28.612Z</time></trkpt><trkpt lat="42.724785" lon="12.1489433"><ele>120.0</ele><time>2026-04-17T12:25:29.612Z</time></trkpt><trkpt lat="42.7246967" lon="12.1491383"><ele>120.0</ele><time>2026-04-17T12:25:30.612Z</time></trkpt><trkpt lat="42.724605" lon="12.1493267"><ele>120.0</ele><time>2026-04-17T12:25:31.611Z</time></trkpt><trkpt lat="42.7245067" lon="12.1495117"><ele>120.0</ele><time>2026-04-17T12:25:32.612Z</time></trkpt><trkpt lat="42.7244033" lon="12.1496917"><ele>120.33333333333334</ele><time>2026-04-17T12:25:33.611Z</time></trkpt><trkpt lat="42.7242983" lon="12.14987"><ele>120.66666666666667</ele><time>2026-04-17T12:25:34.612Z</time></trkpt><trkpt lat="42.7241917" lon="12.1500533"><ele>121.0</ele><time>2026-04-17T12:25:35.612Z</time></trkpt><trkpt lat="42.7240833" lon="12.1502333"><ele>121.66666666666667</ele><time>2026-04-17T12:25:36.612Z</time></trkpt><trkpt lat="42.7239717" lon="12.1504183"><ele>122.33333333333334</ele><time>2026-04-17T12:25:37.612Z</time></trkpt><trkpt lat="42.7238617" lon="12.1506067"><ele>123.0</ele><time>2026-04-17T12:25:38.612Z</time></trkpt><trkpt lat="42.7237517" lon="12.1508"><ele>123.0</ele><time>2026-04-17T12:25:39.612Z</time></trkpt><trkpt lat="42.7236367" lon="12.1509967"><ele>123.0</ele><time>2026-04-17T12:25:40.611Z</time></trkpt><trkpt lat="42.7235183" lon="12.1511967"><ele>123.0</ele><time>2026-04-17T12:25:41.612Z</time></trkpt><trkpt lat="42.7233967" lon="12.1514017"><ele>124.0</ele><time>2026-04-17T12:25:42.611Z</time></trkpt><trkpt lat="42.72328" lon="12.1516033"><ele>125.0</ele><time>2026-04-17T12:25:43.612Z</time></trkpt><trkpt lat="42.7231617" lon="12.1518"><ele>126.0</ele><time>2026-04-17T12:25:44.612Z</time></trkpt><trkpt lat="42.723045" lon="12.15199"><ele>126.0</ele><time>2026-04-17T12:25:45.612Z</time></trkpt><trkpt lat="42.72294" lon="12.1521817"><ele>126.0</ele><time>2026-04-17T12:25:46.612Z</time></trkpt><trkpt lat="42.7228367" lon="12.15236"><ele>126.0</ele><time>2026-04-17T12:25:47.611Z</time></trkpt><trkpt lat="42.7227317" lon="12.1525283"><ele>125.33333333333334</ele><time>2026-04-17T12:25:48.612Z</time></trkpt><trkpt lat="42.7226317" lon="12.1526967"><ele>124.66666666666667</ele><time>2026-04-17T12:25:49.612Z</time></trkpt><trkpt lat="42.7225267" lon="12.1528683"><ele>124.0</ele><time>2026-04-17T12:25:50.611Z</time></trkpt><trkpt lat="42.7224333" lon="12.1530367"><ele>124.0</ele><time>2026-04-17T12:25:51.612Z</time></trkpt><trkpt lat="42.72234" lon="12.1531933"><ele>124.0</ele><time>2026-04-17T12:25:52.612Z</time></trkpt><trkpt lat="42.72226" lon="12.153335"><ele>124.0</ele><time>2026-04-17T12:25:53.612Z</time></trkpt><trkpt lat="42.7221833" lon="12.1534617"><ele>124.0</ele><time>2026-04-17T12:25:54.612Z</time></trkpt><trkpt lat="42.722115" lon="12.1535917"><ele>124.2</ele><time>2026-04-17T12:25:55.612Z</time></trkpt><trkpt lat="42.722045" lon="12.15369"><ele>124.4</ele><time>2026-04-17T12:25:56.612Z</time></trkpt><trkpt lat="42.7219567" lon="12.1537617"><ele>124.6</ele><time>2026-04-17T12:25:57.612Z</time></trkpt><trkpt lat="42.721855" lon="12.1538033"><ele>124.8</ele><time>2026-04-17T12:25:58.612Z</time></trkpt><trkpt lat="42.72174" lon="12.1538133"><ele>125.0</ele><time>2026-04-17T12:25:59.611Z</time></trkpt><trkpt lat="42.7216133" lon="12.1537883"><ele>125.0</ele><time>2026-04-17T12:26:00.612Z</time></trkpt><trkpt lat="42.7214783" lon="12.15375"><ele>125.0</ele><time>2026-04-17T12:26:01.612Z</time></trkpt><trkpt lat="42.7213433" lon="12.1537267"><ele>125.0</ele><time>2026-04-17T12:26:02.612Z</time></trkpt><trkpt lat="42.721215" lon="12.153725"><ele>125.0</ele><time>2026-04-17T12:26:03.612Z</time></trkpt><trkpt lat="42.7210833" lon="12.153735"><ele>124.6</ele><time>2026-04-17T12:26:04.612Z</time></trkpt><trkpt lat="42.7209683" lon="12.153755"><ele>124.2</ele><time>2026-04-17T12:26:05.611Z</time></trkpt><trkpt lat="42.72087" lon="12.1537983"><ele>123.80000000000001</ele><time>2026-04-17T12:26:06.611Z</time></trkpt><trkpt lat="42.7207767" lon="12.1538683"><ele>123.4</ele><time>2026-04-17T12:26:07.612Z</time></trkpt><trkpt lat="42.7206917" lon="12.1539667"><ele>123.0</ele><time>2026-04-17T12:26:08.612Z</time></trkpt><trkpt lat="42.7206017" lon="12.1540983"><ele>124.66666666666666</ele><time>2026-04-17T12:26:09.611Z</time></trkpt><trkpt lat="42.7205" lon="12.1542367"><ele>126.33333333333333</ele><time>2026-04-17T12:26:10.612Z</time></trkpt><trkpt lat="42.7203967" lon="12.1543917"><ele>128.0</ele><time>2026-04-17T12:26:11.612Z</time></trkpt><trkpt lat="42.7202867" lon="12.1545483"><ele>127.0</ele><time>2026-04-17T12:26:12.612Z</time></trkpt><trkpt lat="42.7201817" lon="12.1547017"><ele>126.0</ele><time>2026-04-17T12:26:13.611Z</time></trkpt><trkpt lat="42.7200733" lon="12.15486"><ele>125.0</ele><time>2026-04-17T12:26:14.612Z</time></trkpt><trkpt lat="42.719965" lon="12.1550183"><ele>125.0</ele><time>2026-04-17T12:26:15.612Z</time></trkpt><trkpt lat="42.71986" lon="12.155175"><ele>125.0</ele><time>2026-04-17T12:26:16.611Z</time></trkpt><trkpt lat="42.7197583" lon="12.1553383"><ele>125.0</ele><time>2026-04-17T12:26:17.612Z</time></trkpt><trkpt lat="42.719655" lon="12.1555133"><ele>125.0</ele><time>2026-04-17T12:26:18.611Z</time></trkpt><trkpt lat="42.71955" lon="12.1556983"><ele>125.0</ele><time>2026-04-17T12:26:19.612Z</time></trkpt><trkpt lat="42.719445" lon="12.1558867"><ele>125.0</ele><time>2026-04-17T12:26:20.612Z</time></trkpt><trkpt lat="42.7193417" lon="12.1560867"><ele>124.0</ele><time>2026-04-17T12:26:21.611Z</time></trkpt><trkpt lat="42.71924" lon="12.15629"><ele>123.0</ele><time>2026-04-17T12:26:22.611Z</time></trkpt><trkpt lat="42.71914" lon="12.1564883"><ele>122.0</ele><time>2026-04-17T12:26:23.611Z</time></trkpt><trkpt lat="42.7190367" lon="12.1566717"><ele>122.0</ele><time>2026-04-17T12:26:24.612Z</time></trkpt><trkpt lat="42.718935" lon="12.1568617"><ele>122.0</ele><time>2026-04-17T12:26:25.612Z</time></trkpt><trkpt lat="42.718835" lon="12.15704"><ele>122.0</ele><time>2026-04-17T12:26:26.612Z</time></trkpt><trkpt lat="42.7187317" lon="12.1572183"><ele>121.66666666666666</ele><time>2026-04-17T12:26:27.611Z</time></trkpt><trkpt lat="42.7186333" lon="12.1574"><ele>121.33333333333334</ele><time>2026-04-17T12:26:28.612Z</time></trkpt><trkpt lat="42.7185433" lon="12.1575783"><ele>121.0</ele><time>2026-04-17T12:26:29.611Z</time></trkpt><trkpt lat="42.7184467" lon="12.1577683"><ele>121.0</ele><time>2026-04-17T12:26:30.612Z</time></trkpt><trkpt lat="42.718345" lon="12.1579483"><ele>121.0</ele><time>2026-04-17T12:26:31.611Z</time></trkpt><trkpt lat="42.71825" lon="12.1581267"><ele>121.0</ele><time>2026-04-17T12:26:32.612Z</time></trkpt><trkpt lat="42.7181467" lon="12.158315"><ele>122.66666666666667</ele><time>2026-04-17T12:26:33.612Z</time></trkpt><trkpt lat="42.7180467" lon="12.1585"><ele>124.33333333333334</ele><time>2026-04-17T12:26:34.611Z</time></trkpt><trkpt lat="42.7179467" lon="12.158685"><ele>126.0</ele><time>2026-04-17T12:26:35.612Z</time></trkpt><trkpt lat="42.71784" lon="12.1588767"><ele>125.0</ele><time>2026-04-17T12:26:36.612Z</time></trkpt><trkpt lat="42.7177417" lon="12.15907"><ele>124.0</ele><time>2026-04-17T12:26:37.612Z</time></trkpt><trkpt lat="42.7176367" lon="12.1592633"><ele>123.0</ele><time>2026-04-17T12:26:38.612Z</time></trkpt><trkpt lat="42.717525" lon="12.1594617"><ele>123.0</ele><time>2026-04-17T12:26:39.611Z</time></trkpt><trkpt lat="42.7174233" lon="12.15966"><ele>123.0</ele><time>2026-04-17T12:26:40.612Z</time></trkpt><trkpt lat="42.7173133" lon="12.159865"><ele>123.0</ele><time>2026-04-17T12:26:41.612Z</time></trkpt><trkpt lat="42.7172133" lon="12.160065"><ele>126.0</ele><time>2026-04-17T12:26:42.612Z</time></trkpt><trkpt lat="42.71712" lon="12.1602467"><ele>129.0</ele><time>2026-04-17T12:26:43.612Z</time></trkpt><trkpt lat="42.7170233" lon="12.1604217"><ele>132.0</ele><time>2026-04-17T12:26:44.612Z</time></trkpt><trkpt lat="42.716925" lon="12.1605983"><ele>130.0</ele><time>2026-04-17T12:26:45.612Z</time></trkpt><trkpt lat="42.716835" lon="12.1607733"><ele>128.0</ele><time>2026-04-17T12:26:46.611Z</time></trkpt><trkpt lat="42.7167417" lon="12.1609433"><ele>126.0</ele><time>2026-04-17T12:26:47.612Z</time></trkpt><trkpt lat="42.7166483" lon="12.1611067"><ele>126.0</ele><time>2026-04-17T12:26:48.612Z</time></trkpt><trkpt lat="42.71656" lon="12.1612617"><ele>126.0</ele><time>2026-04-17T12:26:49.612Z</time></trkpt><trkpt lat="42.7164617" lon="12.1614017"><ele>126.0</ele><time>2026-04-17T12:26:50.612Z</time></trkpt><trkpt lat="42.71635" lon="12.1615133"><ele>126.0</ele><time>2026-04-17T12:26:51.611Z</time></trkpt><trkpt lat="42.7162183" lon="12.1616167"><ele>126.0</ele><time>2026-04-17T12:26:52.612Z</time></trkpt><trkpt lat="42.7160917" lon="12.1617133"><ele>126.0</ele><time>2026-04-17T12:26:53.611Z</time></trkpt><trkpt lat="42.7159767" lon="12.16182"><ele>126.0</ele><time>2026-04-17T12:26:54.612Z</time></trkpt><trkpt lat="42.7158717" lon="12.16195"><ele>126.0</ele><time>2026-04-17T12:26:55.612Z</time></trkpt><trkpt lat="42.71577" lon="12.162115"><ele>126.0</ele><time>2026-04-17T12:26:56.612Z</time></trkpt><trkpt lat="42.7156567" lon="12.1622783"><ele>126.0</ele><time>2026-04-17T12:26:57.612Z</time></trkpt><trkpt lat="42.7155567" lon="12.1624533"><ele>126.0</ele><time>2026-04-17T12:26:58.612Z</time></trkpt><trkpt lat="42.7154683" lon="12.1626267"><ele>125.0</ele><time>2026-04-17T12:26:59.612Z</time></trkpt><trkpt lat="42.7153833" lon="12.1627983"><ele>124.0</ele><time>2026-04-17T12:27:00.611Z</time></trkpt><trkpt lat="42.7153" lon="12.162985"><ele>123.0</ele><time>2026-04-17T12:27:01.611Z</time></trkpt><trkpt lat="42.7152317" lon="12.1631767"><ele>125.0</ele><time>2026-04-17T12:27:02.612Z</time></trkpt><trkpt lat="42.7151717" lon="12.1633617"><ele>127.0</ele><time>2026-04-17T12:27:03.612Z</time></trkpt><trkpt lat="42.715125" lon="12.1635467"><ele>129.0</ele><time>2026-04-17T12:27:04.612Z</time></trkpt><trkpt lat="42.7150767" lon="12.1637267"><ele>131.0</ele><time>2026-04-17T12:27:05.612Z</time></trkpt><trkpt lat="42.715055" lon="12.1639117"><ele>132.0</ele><time>2026-04-17T12:27:06.612Z</time></trkpt><trkpt lat="42.7150533" lon="12.1641017"><ele>133.0</ele><time>2026-04-17T12:27:07.611Z</time></trkpt><trkpt lat="42.7150467" lon="12.1643033"><ele>134.0</ele><time>2026-04-17T12:27:08.612Z</time></trkpt><trkpt lat="42.71504" lon="12.16452"><ele>135.0</ele><time>2026-04-17T12:27:09.612Z</time></trkpt><trkpt lat="42.7150317" lon="12.1647383"><ele>135.0</ele><time>2026-04-17T12:27:10.612Z</time></trkpt><trkpt lat="42.7150183" lon="12.164955"><ele>135.0</ele><time>2026-04-17T12:27:11.612Z</time></trkpt><trkpt lat="42.71501" lon="12.1651667"><ele>135.0</ele><time>2026-04-17T12:27:12.612Z</time></trkpt><trkpt lat="42.714995" lon="12.1653633"><ele>135.0</ele><time>2026-04-17T12:27:13.612Z</time></trkpt><trkpt lat="42.714995" lon="12.1655533"><ele>135.0</ele><time>2026-04-17T12:27:14.612Z</time></trkpt><trkpt lat="42.71501" lon="12.16575"><ele>135.0</ele><time>2026-04-17T12:27:15.611Z</time></trkpt><trkpt lat="42.7150233" lon="12.1659317"><ele>135.0</ele><time>2026-04-17T12:27:16.612Z</time></trkpt><trkpt lat="42.7150283" lon="12.1660933"><ele>135.0</ele><time>2026-04-17T12:27:17.612Z</time></trkpt><trkpt lat="42.7150317" lon="12.1662483"><ele>135.0</ele><time>2026-04-17T12:27:18.612Z</time></trkpt><trkpt lat="42.71503" lon="12.16638"><ele>135.0</ele><time>2026-04-17T12:27:19.612Z</time></trkpt><trkpt lat="42.7150217" lon="12.166495"><ele>135.0</ele><time>2026-04-17T12:27:20.612Z</time></trkpt><trkpt lat="42.7149983" lon="12.1665933"><ele>135.0</ele><time>2026-04-17T12:27:21.612Z</time></trkpt><trkpt lat="42.714965" lon="12.1666817"><ele>135.0</ele><time>2026-04-17T12:27:22.612Z</time></trkpt><trkpt lat="42.7149317" lon="12.16676"><ele>135.0</ele><time>2026-04-17T12:27:23.612Z</time></trkpt><trkpt lat="42.7148683" lon="12.1668083"><ele>135.0</ele><time>2026-04-17T12:27:24.612Z</time></trkpt><trkpt lat="42.71477" lon="12.16683"><ele>135.0</ele><time>2026-04-17T12:27:25.612Z</time></trkpt><trkpt lat="42.7146817" lon="12.1668367"><ele>135.0</ele><time>2026-04-17T12:27:26.611Z</time></trkpt><trkpt lat="42.7145867" lon="12.1668183"><ele>135.0</ele><time>2026-04-17T12:27:27.612Z</time></trkpt><trkpt lat="42.7144967" lon="12.1667717"><ele>135.0</ele><time>2026-04-17T12:27:28.611Z</time></trkpt><trkpt lat="42.7144233" lon="12.1667067"><ele>135.0</ele><time>2026-04-17T12:27:29.611Z</time></trkpt><trkpt lat="42.7143517" lon="12.1666033"><ele>135.0</ele><time>2026-04-17T12:27:30.611Z</time></trkpt><trkpt lat="42.7142917" lon="12.1664583"><ele>135.0</ele><time>2026-04-17T12:27:31.612Z</time></trkpt><trkpt lat="42.71424" lon="12.166285"><ele>134.0</ele><time>2026-04-17T12:27:32.612Z</time></trkpt><trkpt lat="42.7141717" lon="12.1661"><ele>133.0</ele><time>2026-04-17T12:27:33.611Z</time></trkpt><trkpt lat="42.7141" lon="12.165915"><ele>132.0</ele><time>2026-04-17T12:27:34.612Z</time></trkpt><trkpt lat="42.7140033" lon="12.1657267"><ele>130.0</ele><time>2026-04-17T12:27:35.611Z</time></trkpt><trkpt lat="42.7139017" lon="12.165555"><ele>128.0</ele><time>2026-04-17T12:27:36.611Z</time></trkpt><trkpt lat="42.713795" lon="12.1654017"><ele>126.0</ele><time>2026-04-17T12:27:37.612Z</time></trkpt><trkpt lat="42.7137033" lon="12.1652683"><ele>126.0</ele><time>2026-04-17T12:27:38.612Z</time></trkpt><trkpt lat="42.7136267" lon="12.16513"><ele>126.0</ele><time>2026-04-17T12:27:39.611Z</time></trkpt><trkpt lat="42.7135867" lon="12.1649967"><ele>126.0</ele><time>2026-04-17T12:27:40.612Z</time></trkpt><trkpt lat="42.7135633" lon="12.1648633"><ele>126.0</ele><time>2026-04-17T12:27:41.612Z</time></trkpt><trkpt lat="42.7135333" lon="12.164735"><ele>126.0</ele><time>2026-04-17T12:27:42.611Z</time></trkpt><trkpt lat="42.7134817" lon="12.164615"><ele>128.75</ele><time>2026-04-17T12:27:43.612Z</time></trkpt><trkpt lat="42.7134067" lon="12.1644983"><ele>131.5</ele><time>2026-04-17T12:27:44.612Z</time></trkpt><trkpt lat="42.7133233" lon="12.164385"><ele>134.25</ele><time>2026-04-17T12:27:45.612Z</time></trkpt><trkpt lat="42.713215" lon="12.1642633"><ele>137.0</ele><time>2026-04-17T12:27:46.611Z</time></trkpt><trkpt lat="42.713085" lon="12.16414"><ele>136.5</ele><time>2026-04-17T12:27:47.612Z</time></trkpt><trkpt lat="42.71296" lon="12.1640267"><ele>136.0</ele><time>2026-04-17T12:27:48.612Z</time></trkpt><trkpt lat="42.7128483" lon="12.1639267"><ele>135.5</ele><time>2026-04-17T12:27:49.611Z</time></trkpt><trkpt lat="42.7127467" lon="12.1638467"><ele>135.0</ele><time>2026-04-17T12:27:50.611Z</time></trkpt><trkpt lat="42.7126483" lon="12.1637917"><ele>135.0</ele><time>2026-04-17T12:27:51.612Z</time></trkpt><trkpt lat="42.71255" lon="12.1637533"><ele>135.0</ele><time>2026-04-17T12:27:52.611Z</time></trkpt><trkpt lat="42.71246" lon="12.1637433"><ele>135.0</ele><time>2026-04-17T12:27:53.611Z</time></trkpt><trkpt lat="42.7123817" lon="12.16375"><ele>135.0</ele><time>2026-04-17T12:27:54.611Z</time></trkpt><trkpt lat="42.7123117" lon="12.163785"><ele>135.0</ele><time>2026-04-17T12:27:55.612Z</time></trkpt><trkpt lat="42.712255" lon="12.1638433"><ele>135.0</ele><time>2026-04-17T12:27:56.611Z</time></trkpt><trkpt lat="42.7122133" lon="12.1639233"><ele>135.0</ele><time>2026-04-17T12:27:57.612Z</time></trkpt><trkpt lat="42.7121917" lon="12.1640267"><ele>135.0</ele><time>2026-04-17T12:27:58.611Z</time></trkpt><trkpt lat="42.7122017" lon="12.1641433"><ele>135.0</ele><time>2026-04-17T12:27:59.612Z</time></trkpt><trkpt lat="42.7122383" lon="12.1642717"><ele>135.0</ele><time>2026-04-17T12:28:00.612Z</time></trkpt><trkpt lat="42.71229" lon="12.1644183"><ele>135.0</ele><time>2026-04-17T12:28:01.611Z</time></trkpt><trkpt lat="42.7123383" lon="12.1645683"><ele>138.75</ele><time>2026-04-17T12:28:02.612Z</time></trkpt><trkpt lat="42.712385" lon="12.1647217"><ele>142.5</ele><time>2026-04-17T12:28:03.611Z</time></trkpt><trkpt lat="42.7124133" lon="12.164895"><ele>146.25</ele><time>2026-04-17T12:28:04.611Z</time></trkpt><trkpt lat="42.712415" lon="12.16506"><ele>150.0</ele><time>2026-04-17T12:28:05.612Z</time></trkpt><trkpt lat="42.712405" lon="12.1652183"><ele>151.0</ele><time>2026-04-17T12:28:06.611Z</time></trkpt><trkpt lat="42.7123883" lon="12.1653533"><ele>152.0</ele><time>2026-04-17T12:28:07.612Z</time></trkpt><trkpt lat="42.7123667" lon="12.1654633"><ele>153.0</ele><time>2026-04-17T12:28:08.612Z</time></trkpt><trkpt lat="42.712325" lon="12.1655617"><ele>154.0</ele><time>2026-04-17T12:28:09.612Z</time></trkpt><trkpt lat="42.7122617" lon="12.1656533"><ele>155.0</ele><time>2026-04-17T12:28:10.612Z</time></trkpt><trkpt lat="42.712195" lon="12.1656967"><ele>156.0</ele><time>2026-04-17T12:28:11.612Z</time></trkpt><trkpt lat="42.71212" lon="12.1657183"><ele>156.0</ele><time>2026-04-17T12:28:12.612Z</time></trkpt><trkpt lat="42.7120317" lon="12.16569"><ele>156.0</ele><time>2026-04-17T12:28:13.611Z</time></trkpt><trkpt lat="42.7119567" lon="12.1656017"><ele>156.0</ele><time>2026-04-17T12:28:14.611Z</time></trkpt><trkpt lat="42.7118983" lon="12.1654833"><ele>156.0</ele><time>2026-04-17T12:28:15.611Z</time></trkpt><trkpt lat="42.7118233" lon="12.165345"><ele>156.0</ele><time>2026-04-17T12:28:16.612Z</time></trkpt><trkpt lat="42.711755" lon="12.1652283"><ele>156.4</ele><time>2026-04-17T12:28:17.612Z</time></trkpt><trkpt lat="42.7116733" lon="12.1651317"><ele>156.8</ele><time>2026-04-17T12:28:18.611Z</time></trkpt><trkpt lat="42.711575" lon="12.1650767"><ele>157.20000000000002</ele><time>2026-04-17T12:28:19.612Z</time></trkpt><trkpt lat="42.7114717" lon="12.1650433"><ele>157.6</ele><time>2026-04-17T12:28:20.612Z</time></trkpt><trkpt lat="42.71136" lon="12.1650217"><ele>158.0</ele><time>2026-04-17T12:28:21.612Z</time></trkpt><trkpt lat="42.7112433" lon="12.165"><ele>158.0</ele><time>2026-04-17T12:28:22.612Z</time></trkpt><trkpt lat="42.7111283" lon="12.1649517"><ele>158.0</ele><time>2026-04-17T12:28:23.612Z</time></trkpt><trkpt lat="42.7110233" lon="12.1648583"><ele>158.0</ele><time>2026-04-17T12:28:24.612Z</time></trkpt><trkpt lat="42.7109267" lon="12.1647383"><ele>158.0</ele><time>2026-04-17T12:28:25.612Z</time></trkpt><trkpt lat="42.71082" lon="12.1645983"><ele>158.25</ele><time>2026-04-17T12:28:26.612Z</time></trkpt><trkpt lat="42.7107117" lon="12.1644567"><ele>158.5</ele><time>2026-04-17T12:28:27.612Z</time></trkpt><trkpt lat="42.7106" lon="12.1643067"><ele>158.75</ele><time>2026-04-17T12:28:28.611Z</time></trkpt><trkpt lat="42.7105067" lon="12.1641767"><ele>159.0</ele><time>2026-04-17T12:28:29.611Z</time></trkpt><trkpt lat="42.7104183" lon="12.1640733"><ele>157.0</ele><time>2026-04-17T12:28:30.612Z</time></trkpt><trkpt lat="42.7103283" lon="12.1639767"><ele>155.0</ele><time>2026-04-17T12:28:31.612Z</time></trkpt><trkpt lat="42.71023" lon="12.1639033"><ele>153.0</ele><time>2026-04-17T12:28:32.611Z</time></trkpt><trkpt lat="42.710145" lon="12.1638483"><ele>151.0</ele><time>2026-04-17T12:28:33.611Z</time></trkpt><trkpt lat="42.7100583" lon="12.163805"><ele>149.0</ele><time>2026-04-17T12:28:34.611Z</time></trkpt><trkpt lat="42.70999" lon="12.1637817"><ele>149.0</ele><time>2026-04-17T12:28:35.611Z</time></trkpt><trkpt lat="42.709915" lon="12.16377"><ele>149.0</ele><time>2026-04-17T12:28:36.612Z</time></trkpt><trkpt lat="42.70984" lon="12.1637817"><ele>149.0</ele><time>2026-04-17T12:28:37.612Z</time></trkpt><trkpt lat="42.70978" lon="12.1638133"><ele>149.0</ele><time>2026-04-17T12:28:38.611Z</time></trkpt><trkpt lat="42.7097167" lon="12.1639733"><ele>149.0</ele><time>2026-04-17T12:28:40.612Z</time></trkpt><trkpt lat="42.709705" lon="12.1641067"><ele>149.0</ele><time>2026-04-17T12:28:41.612Z</time></trkpt><trkpt lat="42.709695" lon="12.164265"><ele>155.25</ele><time>2026-04-17T12:28:42.612Z</time></trkpt><trkpt lat="42.7096783" lon="12.1644383"><ele>161.5</ele><time>2026-04-17T12:28:43.612Z</time></trkpt><trkpt lat="42.7096617" lon="12.1646317"><ele>167.75</ele><time>2026-04-17T12:28:44.612Z</time></trkpt><trkpt lat="42.7096367" lon="12.16481"><ele>174.0</ele><time>2026-04-17T12:28:45.612Z</time></trkpt><trkpt lat="42.709615" lon="12.16497"><ele>176.39999999999998</ele><time>2026-04-17T12:28:46.612Z</time></trkpt><trkpt lat="42.7096033" lon="12.165115"><ele>178.8</ele><time>2026-04-17T12:28:47.612Z</time></trkpt><trkpt lat="42.7095783" lon="12.16526"><ele>181.2</ele><time>2026-04-17T12:28:48.612Z</time></trkpt><trkpt lat="42.709555" lon="12.1653933"><ele>183.60000000000002</ele><time>2026-04-17T12:28:49.612Z</time></trkpt><trkpt lat="42.70953" lon="12.1655267"><ele>186.0</ele><time>2026-04-17T12:28:50.612Z</time></trkpt><trkpt lat="42.7095217" lon="12.165645"><ele>186.66666666666666</ele><time>2026-04-17T12:28:51.611Z</time></trkpt><trkpt lat="42.7095133" lon="12.165755"><ele>187.33333333333334</ele><time>2026-04-17T12:28:52.612Z</time></trkpt><trkpt lat="42.7095233" lon="12.1658733"><ele>188.0</ele><time>2026-04-17T12:28:53.612Z</time></trkpt><trkpt lat="42.709555" lon="12.165995"><ele>188.66666666666669</ele><time>2026-04-17T12:28:54.612Z</time></trkpt><trkpt lat="42.70959" lon="12.16611"><ele>189.33333333333334</ele><time>2026-04-17T12:28:55.611Z</time></trkpt><trkpt lat="42.7095883" lon="12.1662167"><ele>190.0</ele><time>2026-04-17T12:28:56.612Z</time></trkpt><trkpt lat="42.7095767" lon="12.1663117"><ele>190.0</ele><time>2026-04-17T12:28:57.612Z</time></trkpt><trkpt lat="42.709545" lon="12.166395"><ele>190.0</ele><time>2026-04-17T12:28:58.612Z</time></trkpt><trkpt lat="42.7094917" lon="12.166455"><ele>190.0</ele><time>2026-04-17T12:28:59.612Z</time></trkpt><trkpt lat="42.709415" lon="12.166505"><ele>190.0</ele><time>2026-04-17T12:29:00.612Z</time></trkpt><trkpt lat="42.7093167" lon="12.1665567"><ele>190.0</ele><time>2026-04-17T12:29:01.611Z</time></trkpt><trkpt lat="42.7092033" lon="12.1666133"><ele>190.0</ele><time>2026-04-17T12:29:02.612Z</time></trkpt><trkpt lat="42.7090917" lon="12.1666683"><ele>190.75</ele><time>2026-04-17T12:29:03.612Z</time></trkpt><trkpt lat="42.7089783" lon="12.1667333"><ele>191.5</ele><time>2026-04-17T12:29:04.612Z</time></trkpt><trkpt lat="42.708865" lon="12.1667883"><ele>192.25</ele><time>2026-04-17T12:29:05.612Z</time></trkpt><trkpt lat="42.7087533" lon="12.1668483"><ele>193.0</ele><time>2026-04-17T12:29:06.612Z</time></trkpt><trkpt lat="42.7086417" lon="12.16691"><ele>193.2</ele><time>2026-04-17T12:29:07.612Z</time></trkpt><trkpt lat="42.708545" lon="12.16696"><ele>193.4</ele><time>2026-04-17T12:29:08.611Z</time></trkpt><trkpt lat="42.7084583" lon="12.1670083"><ele>193.6</ele><time>2026-04-17T12:29:09.612Z</time></trkpt><trkpt lat="42.7083733" lon="12.1670633"><ele>193.79999999999998</ele><time>2026-04-17T12:29:10.611Z</time></trkpt><trkpt lat="42.7083" lon="12.1671267"><ele>194.0</ele><time>2026-04-17T12:29:11.611Z</time></trkpt><trkpt lat="42.7082383" lon="12.167195"><ele>194.0</ele><time>2026-04-17T12:29:12.612Z</time></trkpt><trkpt lat="42.7081917" lon="12.1672683"><ele>194.0</ele><time>2026-04-17T12:29:13.612Z</time></trkpt><trkpt lat="42.70815" lon="12.1673433"><ele>194.0</ele><time>2026-04-17T12:29:14.612Z</time></trkpt><trkpt lat="42.7081133" lon="12.1674133"><ele>194.0</ele><time>2026-04-17T12:29:15.612Z</time></trkpt><trkpt lat="42.7080567" lon="12.1675267"><ele>194.0</ele><time>2026-04-17T12:29:17.612Z</time></trkpt><trkpt lat="42.7080367" lon="12.1676117"><ele>194.0</ele><time>2026-04-17T12:29:19.612Z</time></trkpt><trkpt lat="42.70807" lon="12.1677083"><ele>194.0</ele><time>2026-04-17T12:29:22.611Z</time></trkpt><trkpt lat="42.708145" lon="12.16777"><ele>194.2</ele><time>2026-04-17T12:29:24.612Z</time></trkpt><trkpt lat="42.7082467" lon="12.1678783"><ele>194.39999999999998</ele><time>2026-04-17T12:29:26.612Z</time></trkpt><trkpt lat="42.7083" lon="12.1679517"><ele>194.6</ele><time>2026-04-17T12:29:27.611Z</time></trkpt><trkpt lat="42.708365" lon="12.1680217"><ele>194.8</ele><time>2026-04-17T12:29:28.612Z</time></trkpt><trkpt lat="42.7084383" lon="12.1680933"><ele>195.0</ele><time>2026-04-17T12:29:29.612Z</time></trkpt><trkpt lat="42.7085117" lon="12.168175"><ele>196.6</ele><time>2026-04-17T12:29:30.612Z</time></trkpt><trkpt lat="42.7085833" lon="12.1682617"><ele>198.2</ele><time>2026-04-17T12:29:31.612Z</time></trkpt><trkpt lat="42.7086567" lon="12.1683467"><ele>199.8</ele><time>2026-04-17T12:29:32.612Z</time></trkpt><trkpt lat="42.7087333" lon="12.1684283"><ele>201.4</ele><time>2026-04-17T12:29:33.612Z</time></trkpt><trkpt lat="42.7088117" lon="12.1685133"><ele>203.0</ele><time>2026-04-17T12:29:34.612Z</time></trkpt><trkpt lat="42.7088933" lon="12.1686"><ele>203.0</ele><time>2026-04-17T12:29:35.612Z</time></trkpt><trkpt lat="42.70897" lon="12.1686933"><ele>203.0</ele><time>2026-04-17T12:29:36.612Z</time></trkpt><trkpt lat="42.70905" lon="12.1687867"><ele>203.0</ele><time>2026-04-17T12:29:37.612Z</time></trkpt><trkpt lat="42.7091317" lon="12.168875"><ele>203.0</ele><time>2026-04-17T12:29:38.612Z</time></trkpt><trkpt lat="42.7092083" lon="12.16897"><ele>203.0</ele><time>2026-04-17T12:29:39.611Z</time></trkpt><trkpt lat="42.7092917" lon="12.1690683"><ele>204.25</ele><time>2026-04-17T12:29:40.612Z</time></trkpt><trkpt lat="42.7093817" lon="12.1691667"><ele>205.5</ele><time>2026-04-17T12:29:41.612Z</time></trkpt><trkpt lat="42.7094733" lon="12.1692667"><ele>206.75</ele><time>2026-04-17T12:29:42.612Z</time></trkpt><trkpt lat="42.709555" lon="12.1693717"><ele>208.0</ele><time>2026-04-17T12:29:43.611Z</time></trkpt><trkpt lat="42.7096417" lon="12.1694783"><ele>208.2</ele><time>2026-04-17T12:29:44.612Z</time></trkpt><trkpt lat="42.7097267" lon="12.1695783"><ele>208.4</ele><time>2026-04-17T12:29:45.612Z</time></trkpt><trkpt lat="42.7098133" lon="12.1696567"><ele>208.6</ele><time>2026-04-17T12:29:46.612Z</time></trkpt><trkpt lat="42.7098933" lon="12.1697267"><ele>208.79999999999998</ele><time>2026-04-17T12:29:47.612Z</time></trkpt><trkpt lat="42.709975" lon="12.16979"><ele>209.0</ele><time>2026-04-17T12:29:48.612Z</time></trkpt><trkpt lat="42.7100517" lon="12.1698533"><ele>210.33333333333334</ele><time>2026-04-17T12:29:49.612Z</time></trkpt><trkpt lat="42.7101167" lon="12.1699167"><ele>211.66666666666669</ele><time>2026-04-17T12:29:50.612Z</time></trkpt><trkpt lat="42.7101817" lon="12.16997"><ele>213.0</ele><time>2026-04-17T12:29:51.612Z</time></trkpt><trkpt lat="42.7102433" lon="12.1700183"><ele>214.33333333333331</ele><time>2026-04-17T12:29:52.612Z</time></trkpt><trkpt lat="42.710305" lon="12.1700633"><ele>215.66666666666666</ele><time>2026-04-17T12:29:53.611Z</time></trkpt><trkpt lat="42.7104017" lon="12.17015"><ele>217.0</ele><time>2026-04-17T12:29:55.612Z</time></trkpt><trkpt lat="42.7104683" lon="12.17025"><ele>218.25</ele><time>2026-04-17T12:29:57.611Z</time></trkpt><trkpt lat="42.7104933" lon="12.1703983"><ele>219.5</ele><time>2026-04-17T12:29:59.612Z</time></trkpt><trkpt lat="42.7105283" lon="12.1705417"><ele>220.75</ele><time>2026-04-17T12:30:01.612Z</time></trkpt><trkpt lat="42.7105967" lon="12.1706717"><ele>222.0</ele><time>2026-04-17T12:30:03.611Z</time></trkpt><trkpt lat="42.7106833" lon="12.1707883"><ele>222.16666666666666</ele><time>2026-04-17T12:30:05.611Z</time></trkpt><trkpt lat="42.7107283" lon="12.1708583"><ele>222.33333333333331</ele><time>2026-04-17T12:30:06.612Z</time></trkpt><trkpt lat="42.71076" lon="12.1709417"><ele>222.5</ele><time>2026-04-17T12:30:07.612Z</time></trkpt><trkpt lat="42.7107933" lon="12.171015"><ele>222.66666666666666</ele><time>2026-04-17T12:30:08.612Z</time></trkpt><trkpt lat="42.71087" lon="12.1711117"><ele>222.83333333333331</ele><time>2026-04-17T12:30:10.612Z</time></trkpt><trkpt lat="42.7109317" lon="12.1711583"><ele>223.0</ele><time>2026-04-17T12:30:11.612Z</time></trkpt><trkpt lat="42.7110017" lon="12.1712133"><ele>223.0</ele><time>2026-04-17T12:30:12.611Z</time></trkpt><trkpt lat="42.7110717" lon="12.17126"><ele>223.0</ele><time>2026-04-17T12:30:13.612Z</time></trkpt><trkpt lat="42.7111517" lon="12.1713167"><ele>223.0</ele><time>2026-04-17T12:30:14.612Z</time></trkpt><trkpt lat="42.7112417" lon="12.1713883"><ele>223.0</ele><time>2026-04-17T12:30:15.612Z</time></trkpt><trkpt lat="42.71133" lon="12.1714583"><ele>223.0</ele><time>2026-04-17T12:30:16.611Z</time></trkpt><trkpt lat="42.7114217" lon="12.171525"><ele>222.8</ele><time>2026-04-17T12:30:17.612Z</time></trkpt><trkpt lat="42.71152" lon="12.1715917"><ele>222.60000000000002</ele><time>2026-04-17T12:30:18.611Z</time></trkpt><trkpt lat="42.7116233" lon="12.1716517"><ele>222.39999999999998</ele><time>2026-04-17T12:30:19.612Z</time></trkpt><trkpt lat="42.7117217" lon="12.1717083"><ele>222.2</ele><time>2026-04-17T12:30:20.612Z</time></trkpt><trkpt lat="42.7118283" lon="12.1717633"><ele>222.0</ele><time>2026-04-17T12:30:21.612Z</time></trkpt><trkpt lat="42.7119317" lon="12.1718183"><ele>221.6</ele><time>2026-04-17T12:30:22.611Z</time></trkpt><trkpt lat="42.7120283" lon="12.1718617"><ele>221.2</ele><time>2026-04-17T12:30:23.612Z</time></trkpt><trkpt lat="42.71212" lon="12.1719"><ele>220.8</ele><time>2026-04-17T12:30:24.612Z</time></trkpt><trkpt lat="42.712215" lon="12.1719383"><ele>220.4</ele><time>2026-04-17T12:30:25.612Z</time></trkpt><trkpt lat="42.7123117" lon="12.1719783"><ele>220.0</ele><time>2026-04-17T12:30:26.611Z</time></trkpt><trkpt lat="42.7124017" lon="12.17202"><ele>219.99999999999997</ele><time>2026-04-17T12:30:27.612Z</time></trkpt><trkpt lat="42.7124817" lon="12.172055"><ele>220.0</ele><time>2026-04-17T12:30:28.611Z</time></trkpt><trkpt lat="42.712565" lon="12.1720933"><ele>220.0</ele><time>2026-04-17T12:30:29.611Z</time></trkpt><trkpt lat="42.7126417" lon="12.1721317"><ele>220.0</ele><time>2026-04-17T12:30:30.612Z</time></trkpt><trkpt lat="42.7127133" lon="12.1721667"><ele>219.99999999999997</ele><time>2026-04-17T12:30:31.612Z</time></trkpt><trkpt lat="42.712785" lon="12.172195"><ele>220.0</ele><time>2026-04-17T12:30:32.611Z</time></trkpt><trkpt lat="42.7128567" lon="12.1722317"><ele>218.16666666666666</ele><time>2026-04-17T12:30:33.612Z</time></trkpt><trkpt lat="42.7129317" lon="12.1722683"><ele>216.33333333333331</ele><time>2026-04-17T12:30:34.612Z</time></trkpt><trkpt lat="42.7130117" lon="12.1723083"><ele>214.5</ele><time>2026-04-17T12:30:35.612Z</time></trkpt><trkpt lat="42.713095" lon="12.17235"><ele>212.66666666666669</ele><time>2026-04-17T12:30:36.612Z</time></trkpt><trkpt lat="42.71318" lon="12.1723933"><ele>210.83333333333334</ele><time>2026-04-17T12:30:37.612Z</time></trkpt><trkpt lat="42.713265" lon="12.1724417"><ele>209.0</ele><time>2026-04-17T12:30:38.612Z</time></trkpt><trkpt lat="42.7133567" lon="12.1724817"><ele>209.00000000000003</ele><time>2026-04-17T12:30:39.612Z</time></trkpt><trkpt lat="42.7134383" lon="12.172525"><ele>209.0</ele><time>2026-04-17T12:30:40.611Z</time></trkpt><trkpt lat="42.7135217" lon="12.1725633"><ele>209.0</ele><time>2026-04-17T12:30:41.612Z</time></trkpt><trkpt lat="42.7136033" lon="12.1726067"><ele>209.0</ele><time>2026-04-17T12:30:42.612Z</time></trkpt><trkpt lat="42.7136867" lon="12.1726383"><ele>209.00000000000003</ele><time>2026-04-17T12:30:43.611Z</time></trkpt><trkpt lat="42.713755" lon="12.1726633"><ele>209.0</ele><time>2026-04-17T12:30:44.611Z</time></trkpt><trkpt lat="42.7138283" lon="12.1726733"><ele>208.50000000000003</ele><time>2026-04-17T12:30:45.611Z</time></trkpt><trkpt lat="42.7139117" lon="12.1726633"><ele>208.0</ele><time>2026-04-17T12:30:46.612Z</time></trkpt><trkpt lat="42.7140033" lon="12.1726367"><ele>207.5</ele><time>2026-04-17T12:30:47.612Z</time></trkpt><trkpt lat="42.7141067" lon="12.1726117"><ele>207.0</ele><time>2026-04-17T12:30:48.612Z</time></trkpt><trkpt lat="42.7141933" lon="12.172585"><ele>206.50000000000003</ele><time>2026-04-17T12:30:49.612Z</time></trkpt><trkpt lat="42.7142667" lon="12.172575"><ele>206.0</ele><time>2026-04-17T12:30:50.612Z</time></trkpt><trkpt lat="42.7143833" lon="12.1725833"><ele>206.66666666666669</ele><time>2026-04-17T12:30:52.612Z</time></trkpt><trkpt lat="42.7144817" lon="12.1726483"><ele>207.33333333333334</ele><time>2026-04-17T12:30:54.612Z</time></trkpt><trkpt lat="42.7145317" lon="12.1727017"><ele>208.0</ele><time>2026-04-17T12:30:55.612Z</time></trkpt><trkpt lat="42.714585" lon="12.172775"><ele>208.66666666666669</ele><time>2026-04-17T12:30:56.611Z</time></trkpt><trkpt lat="42.7146417" lon="12.17287"><ele>209.33333333333334</ele><time>2026-04-17T12:30:57.612Z</time></trkpt><trkpt lat="42.7146983" lon="12.1729617"><ele>210.0</ele><time>2026-04-17T12:30:58.612Z</time></trkpt><trkpt lat="42.71475" lon="12.1730417"><ele>210.0</ele><time>2026-04-17T12:30:59.611Z</time></trkpt><trkpt lat="42.714815" lon="12.1731033"><ele>210.0</ele><time>2026-04-17T12:31:00.611Z</time></trkpt><trkpt lat="42.714885" lon="12.17315"><ele>210.0</ele><time>2026-04-17T12:31:01.612Z</time></trkpt><trkpt lat="42.714965" lon="12.17318"><ele>210.0</ele><time>2026-04-17T12:31:02.612Z</time></trkpt><trkpt lat="42.7150567" lon="12.173205"><ele>210.0</ele><time>2026-04-17T12:31:03.612Z</time></trkpt><trkpt lat="42.71516" lon="12.1732167"><ele>210.0</ele><time>2026-04-17T12:31:04.612Z</time></trkpt><trkpt lat="42.7152667" lon="12.1732333"><ele>212.0</ele><time>2026-04-17T12:31:05.611Z</time></trkpt><trkpt lat="42.7153617" lon="12.1732483"><ele>214.0</ele><time>2026-04-17T12:31:06.611Z</time></trkpt><trkpt lat="42.71545" lon="12.1732667"><ele>216.0</ele><time>2026-04-17T12:31:07.611Z</time></trkpt><trkpt lat="42.7155317" lon="12.1732917"><ele>218.0</ele><time>2026-04-17T12:31:08.612Z</time></trkpt><trkpt lat="42.7156083" lon="12.1733433"><ele>220.0</ele><time>2026-04-17T12:31:09.611Z</time></trkpt><trkpt lat="42.715685" lon="12.1734117"><ele>222.0</ele><time>2026-04-17T12:31:10.612Z</time></trkpt><trkpt lat="42.7157633" lon="12.17349"><ele>222.0</ele><time>2026-04-17T12:31:11.611Z</time></trkpt><trkpt lat="42.71584" lon="12.1735583"><ele>222.0</ele><time>2026-04-17T12:31:12.611Z</time></trkpt><trkpt lat="42.7159083" lon="12.1736167"><ele>222.0</ele><time>2026-04-17T12:31:13.612Z</time></trkpt><trkpt lat="42.71598" lon="12.1736683"><ele>222.0</ele><time>2026-04-17T12:31:14.612Z</time></trkpt><trkpt lat="42.7160383" lon="12.1737217"><ele>222.0</ele><time>2026-04-17T12:31:15.612Z</time></trkpt><trkpt lat="42.7161267" lon="12.173835"><ele>222.0</ele><time>2026-04-17T12:31:17.612Z</time></trkpt><trkpt lat="42.716155" lon="12.173915"><ele>222.66666666666666</ele><time>2026-04-17T12:31:18.612Z</time></trkpt><trkpt lat="42.7161517" lon="12.1740783"><ele>223.33333333333331</ele><time>2026-04-17T12:31:20.612Z</time></trkpt><trkpt lat="42.7161267" lon="12.174165"><ele>224.0</ele><time>2026-04-17T12:31:21.611Z</time></trkpt><trkpt lat="42.7160933" lon="12.1742667"><ele>224.66666666666666</ele><time>2026-04-17T12:31:22.611Z</time></trkpt><trkpt lat="42.716065" lon="12.1743767"><ele>225.33333333333331</ele><time>2026-04-17T12:31:23.612Z</time></trkpt><trkpt lat="42.71606" lon="12.174495"><ele>226.0</ele><time>2026-04-17T12:31:24.612Z</time></trkpt><trkpt lat="42.7160683" lon="12.1746067"><ele>226.60000000000002</ele><time>2026-04-17T12:31:25.611Z</time></trkpt><trkpt lat="42.7160933" lon="12.174715"><ele>227.20000000000002</ele><time>2026-04-17T12:31:26.611Z</time></trkpt><trkpt lat="42.71612" lon="12.174845"><ele>227.79999999999998</ele><time>2026-04-17T12:31:27.611Z</time></trkpt><trkpt lat="42.7161517" lon="12.1749933"><ele>228.39999999999998</ele><time>2026-04-17T12:31:28.612Z</time></trkpt><trkpt lat="42.7161817" lon="12.175145"><ele>229.0</ele><time>2026-04-17T12:31:29.612Z</time></trkpt><trkpt lat="42.7162033" lon="12.1752767"><ele>229.99999999999997</ele><time>2026-04-17T12:31:30.611Z</time></trkpt><trkpt lat="42.7162283" lon="12.17538"><ele>231.0</ele><time>2026-04-17T12:31:31.612Z</time></trkpt><trkpt lat="42.71626" lon="12.175475"><ele>232.0</ele><time>2026-04-17T12:31:32.612Z</time></trkpt><trkpt lat="42.716305" lon="12.1755633"><ele>233.0</ele><time>2026-04-17T12:31:33.612Z</time></trkpt><trkpt lat="42.71636" lon="12.1756317"><ele>233.99999999999997</ele><time>2026-04-17T12:31:34.611Z</time></trkpt><trkpt lat="42.7164183" lon="12.175695"><ele>235.0</ele><time>2026-04-17T12:31:35.612Z</time></trkpt><trkpt lat="42.7164767" lon="12.175765"><ele>234.99999999999997</ele><time>2026-04-17T12:31:36.611Z</time></trkpt><trkpt lat="42.7165317" lon="12.1758217"><ele>235.0</ele><time>2026-04-17T12:31:37.612Z</time></trkpt><trkpt lat="42.71659" lon="12.1758617"><ele>235.0</ele><time>2026-04-17T12:31:38.612Z</time></trkpt><trkpt lat="42.71666" lon="12.1758983"><ele>235.0</ele><time>2026-04-17T12:31:39.612Z</time></trkpt><trkpt lat="42.716745" lon="12.1759367"><ele>234.99999999999997</ele><time>2026-04-17T12:31:40.612Z</time></trkpt><trkpt lat="42.71683" lon="12.1759733"><ele>235.0</ele><time>2026-04-17T12:31:41.611Z</time></trkpt><trkpt lat="42.7169283" lon="12.176005"><ele>233.6</ele><time>2026-04-17T12:31:42.612Z</time></trkpt><trkpt lat="42.7170267" lon="12.1760417"><ele>232.2</ele><time>2026-04-17T12:31:43.611Z</time></trkpt><trkpt lat="42.7171267" lon="12.176075"><ele>230.8</ele><time>2026-04-17T12:31:44.612Z</time></trkpt><trkpt lat="42.7172267" lon="12.17611"><ele>229.4</ele><time>2026-04-17T12:31:45.612Z</time></trkpt><trkpt lat="42.7173283" lon="12.176145"><ele>228.0</ele><time>2026-04-17T12:31:46.612Z</time></trkpt><trkpt lat="42.7174233" lon="12.17619"><ele>228.0</ele><time>2026-04-17T12:31:47.612Z</time></trkpt><trkpt lat="42.7175167" lon="12.176245"><ele>228.0</ele><time>2026-04-17T12:31:48.612Z</time></trkpt><trkpt lat="42.717605" lon="12.1762933"><ele>228.0</ele><time>2026-04-17T12:31:49.612Z</time></trkpt><trkpt lat="42.7176833" lon="12.17634"><ele>228.0</ele><time>2026-04-17T12:31:50.612Z</time></trkpt><trkpt lat="42.717765" lon="12.17639"><ele>228.0</ele><time>2026-04-17T12:31:51.611Z</time></trkpt><trkpt lat="42.7178567" lon="12.1764483"><ele>228.8</ele><time>2026-04-17T12:31:52.612Z</time></trkpt><trkpt lat="42.7179533" lon="12.1765167"><ele>229.60000000000002</ele><time>2026-04-17T12:31:53.612Z</time></trkpt><trkpt lat="42.7180433" lon="12.1765867"><ele>230.39999999999998</ele><time>2026-04-17T12:31:54.612Z</time></trkpt><trkpt lat="42.7181333" lon="12.17665"><ele>231.2</ele><time>2026-04-17T12:31:55.612Z</time></trkpt><trkpt lat="42.7182183" lon="12.1767067"><ele>232.0</ele><time>2026-04-17T12:31:56.612Z</time></trkpt><trkpt lat="42.7183033" lon="12.17676"><ele>232.0</ele><time>2026-04-17T12:31:57.612Z</time></trkpt><trkpt lat="42.7183717" lon="12.1767883"><ele>232.0</ele><time>2026-04-17T12:31:58.611Z</time></trkpt><trkpt lat="42.718485" lon="12.1767967"><ele>232.0</ele><time>2026-04-17T12:32:00.612Z</time></trkpt><trkpt lat="42.7186117" lon="12.1767667"><ele>232.0</ele><time>2026-04-17T12:32:02.612Z</time></trkpt><trkpt lat="42.7186967" lon="12.1767367"><ele>232.0</ele><time>2026-04-17T12:32:03.612Z</time></trkpt><trkpt lat="42.7187933" lon="12.1767067"><ele>232.5</ele><time>2026-04-17T12:32:04.612Z</time></trkpt><trkpt lat="42.7189033" lon="12.17667"><ele>233.0</ele><time>2026-04-17T12:32:05.611Z</time></trkpt><trkpt lat="42.7190267" lon="12.1766417"><ele>233.5</ele><time>2026-04-17T12:32:06.611Z</time></trkpt><trkpt lat="42.7191467" lon="12.176625"><ele>234.0</ele><time>2026-04-17T12:32:07.611Z</time></trkpt><trkpt lat="42.7192567" lon="12.1766217"><ele>234.0</ele><time>2026-04-17T12:32:08.61Z</time></trkpt><trkpt lat="42.71936" lon="12.1766167"><ele>233.99999999999997</ele><time>2026-04-17T12:32:09.611Z</time></trkpt><trkpt lat="42.71946" lon="12.1766067"><ele>233.99999999999997</ele><time>2026-04-17T12:32:10.611Z</time></trkpt><trkpt lat="42.71956" lon="12.1765917"><ele>234.0</ele><time>2026-04-17T12:32:11.61Z</time></trkpt><trkpt lat="42.7196533" lon="12.1765867"><ele>234.0</ele><time>2026-04-17T12:32:12.611Z</time></trkpt><trkpt lat="42.7197367" lon="12.1765817"><ele>235.16666666666666</ele><time>2026-04-17T12:32:13.61Z</time></trkpt><trkpt lat="42.7198083" lon="12.1765833"><ele>236.33333333333331</ele><time>2026-04-17T12:32:14.611Z</time></trkpt><trkpt lat="42.7198783" lon="12.1765817"><ele>237.5</ele><time>2026-04-17T12:32:15.611Z</time></trkpt><trkpt lat="42.7199483" lon="12.1765833"><ele>238.66666666666666</ele><time>2026-04-17T12:32:16.611Z</time></trkpt><trkpt lat="42.72002" lon="12.17658"><ele>239.83333333333331</ele><time>2026-04-17T12:32:17.611Z</time></trkpt><trkpt lat="42.7201017" lon="12.176565"><ele>241.0</ele><time>2026-04-17T12:32:18.611Z</time></trkpt><trkpt lat="42.720205" lon="12.1765467"><ele>242.0</ele><time>2026-04-17T12:32:19.611Z</time></trkpt><trkpt lat="42.72031" lon="12.1765317"><ele>243.00000000000003</ele><time>2026-04-17T12:32:20.611Z</time></trkpt><trkpt lat="42.7204167" lon="12.1765267"><ele>244.00000000000003</ele><time>2026-04-17T12:32:21.61Z</time></trkpt><trkpt lat="42.7205267" lon="12.176535"><ele>245.0</ele><time>2026-04-17T12:32:22.611Z</time></trkpt><trkpt lat="42.7206383" lon="12.1765483"><ele>246.0</ele><time>2026-04-17T12:32:23.61Z</time></trkpt><trkpt lat="42.72074" lon="12.1765633"><ele>246.0</ele><time>2026-04-17T12:32:24.61Z</time></trkpt><trkpt lat="42.720835" lon="12.1765833"><ele>246.00000000000003</ele><time>2026-04-17T12:32:25.611Z</time></trkpt><trkpt lat="42.7209317" lon="12.1766"><ele>246.00000000000003</ele><time>2026-04-17T12:32:26.61Z</time></trkpt><trkpt lat="42.721025" lon="12.1766067"><ele>246.0</ele><time>2026-04-17T12:32:27.61Z</time></trkpt><trkpt lat="42.7211083" lon="12.1766183"><ele>246.0</ele><time>2026-04-17T12:32:28.61Z</time></trkpt><trkpt lat="42.72119" lon="12.1766383"><ele>246.33333333333334</ele><time>2026-04-17T12:32:29.611Z</time></trkpt><trkpt lat="42.721275" lon="12.176665"><ele>246.66666666666669</ele><time>2026-04-17T12:32:30.611Z</time></trkpt><trkpt lat="42.721355" lon="12.1767"><ele>247.0</ele><time>2026-04-17T12:32:31.611Z</time></trkpt><trkpt lat="42.72143" lon="12.176715"><ele>247.33333333333334</ele><time>2026-04-17T12:32:32.611Z</time></trkpt><trkpt lat="42.721515" lon="12.1767133"><ele>247.66666666666669</ele><time>2026-04-17T12:32:33.611Z</time></trkpt><trkpt lat="42.7216117" lon="12.1767067"><ele>248.0</ele><time>2026-04-17T12:32:34.61Z</time></trkpt><trkpt lat="42.7217333" lon="12.176695"><ele>248.0</ele><time>2026-04-17T12:32:35.611Z</time></trkpt><trkpt lat="42.7218683" lon="12.1766967"><ele>248.0</ele><time>2026-04-17T12:32:36.611Z</time></trkpt><trkpt lat="42.72199" lon="12.1766967"><ele>248.0</ele><time>2026-04-17T12:32:37.611Z</time></trkpt><trkpt lat="42.7220883" lon="12.176695"><ele>248.0</ele><time>2026-04-17T12:32:38.611Z</time></trkpt><trkpt lat="42.722185" lon="12.17671"><ele>248.2</ele><time>2026-04-17T12:32:39.611Z</time></trkpt><trkpt lat="42.7223" lon="12.1767333"><ele>248.4</ele><time>2026-04-17T12:32:40.61Z</time></trkpt><trkpt lat="42.7224133" lon="12.17677"><ele>248.59999999999997</ele><time>2026-04-17T12:32:41.611Z</time></trkpt><trkpt lat="42.7225167" lon="12.176815"><ele>248.79999999999998</ele><time>2026-04-17T12:32:42.61Z</time></trkpt><trkpt lat="42.7226067" lon="12.176855"><ele>249.0</ele><time>2026-04-17T12:32:43.611Z</time></trkpt><trkpt lat="42.7226717" lon="12.1768883"><ele>248.79999999999998</ele><time>2026-04-17T12:32:44.611Z</time></trkpt><trkpt lat="42.72276" lon="12.17699"><ele>248.59999999999997</ele><time>2026-04-17T12:32:46.611Z</time></trkpt><trkpt lat="42.72279" lon="12.1770717"><ele>248.4</ele><time>2026-04-17T12:32:47.61Z</time></trkpt><trkpt lat="42.7228133" lon="12.1771833"><ele>248.2</ele><time>2026-04-17T12:32:48.611Z</time></trkpt><trkpt lat="42.7228333" lon="12.17732"><ele>248.0</ele><time>2026-04-17T12:32:49.61Z</time></trkpt><trkpt lat="42.7228433" lon="12.177445"><ele>249.8</ele><time>2026-04-17T12:32:50.611Z</time></trkpt><trkpt lat="42.722875" lon="12.1775783"><ele>251.60000000000002</ele><time>2026-04-17T12:32:51.611Z</time></trkpt><trkpt lat="42.7229083" lon="12.1777083"><ele>253.39999999999998</ele><time>2026-04-17T12:32:52.61Z</time></trkpt><trkpt lat="42.7229283" lon="12.1778183"><ele>255.2</ele><time>2026-04-17T12:32:53.611Z</time></trkpt><trkpt lat="42.7229533" lon="12.1779267"><ele>257.0</ele><time>2026-04-17T12:32:54.611Z</time></trkpt><trkpt lat="42.7229767" lon="12.178035"><ele>257.0</ele><time>2026-04-17T12:32:55.61Z</time></trkpt><trkpt lat="42.7230083" lon="12.1781517"><ele>257.0</ele><time>2026-04-17T12:32:56.611Z</time></trkpt><trkpt lat="42.72304" lon="12.1782617"><ele>257.0</ele><time>2026-04-17T12:32:57.611Z</time></trkpt><trkpt lat="42.7230833" lon="12.1783633"><ele>257.0</ele><time>2026-04-17T12:32:58.61Z</time></trkpt><trkpt lat="42.723135" lon="12.1784583"><ele>257.0</ele><time>2026-04-17T12:32:59.611Z</time></trkpt><trkpt lat="42.7231867" lon="12.1785617"><ele>257.0</ele><time>2026-04-17T12:33:00.61Z</time></trkpt><trkpt lat="42.7232467" lon="12.1786533"><ele>256.0</ele><time>2026-04-17T12:33:01.611Z</time></trkpt><trkpt lat="42.7232933" lon="12.178755"><ele>255.0</ele><time>2026-04-17T12:33:02.61Z</time></trkpt><trkpt lat="42.7233333" lon="12.1788567"><ele>254.0</ele><time>2026-04-17T12:33:03.61Z</time></trkpt><trkpt lat="42.7233617" lon="12.1789533"><ele>253.0</ele><time>2026-04-17T12:33:04.61Z</time></trkpt><trkpt lat="42.7233883" lon="12.17906"><ele>252.00000000000003</ele><time>2026-04-17T12:33:05.611Z</time></trkpt><trkpt lat="42.7234067" lon="12.1791883"><ele>251.0</ele><time>2026-04-17T12:33:06.611Z</time></trkpt><trkpt lat="42.723405" lon="12.1793417"><ele>249.0</ele><time>2026-04-17T12:33:07.611Z</time></trkpt><trkpt lat="42.723405" lon="12.1795033"><ele>247.0</ele><time>2026-04-17T12:33:08.611Z</time></trkpt><trkpt lat="42.7234" lon="12.1796683"><ele>245.0</ele><time>2026-04-17T12:33:09.61Z</time></trkpt><trkpt lat="42.723405" lon="12.1798233"><ele>243.0</ele><time>2026-04-17T12:33:10.611Z</time></trkpt><trkpt lat="42.7234133" lon="12.1799617"><ele>242.16666666666666</ele><time>2026-04-17T12:33:11.611Z</time></trkpt><trkpt lat="42.7234233" lon="12.1800917"><ele>241.33333333333331</ele><time>2026-04-17T12:33:12.611Z</time></trkpt><trkpt lat="42.7234417" lon="12.1802033"><ele>240.5</ele><time>2026-04-17T12:33:13.611Z</time></trkpt><trkpt lat="42.7234633" lon="12.1803"><ele>239.66666666666666</ele><time>2026-04-17T12:33:14.611Z</time></trkpt><trkpt lat="42.7234867" lon="12.180385"><ele>238.83333333333331</ele><time>2026-04-17T12:33:15.611Z</time></trkpt><trkpt lat="42.7235133" lon="12.1804683"><ele>238.0</ele><time>2026-04-17T12:33:16.61Z</time></trkpt><trkpt lat="42.7235433" lon="12.1805583"><ele>240.4</ele><time>2026-04-17T12:33:17.61Z</time></trkpt><trkpt lat="42.72357" lon="12.1806417"><ele>242.8</ele><time>2026-04-17T12:33:18.61Z</time></trkpt><trkpt lat="42.7236033" lon="12.1807183"><ele>245.2</ele><time>2026-04-17T12:33:19.611Z</time></trkpt><trkpt lat="42.7236767" lon="12.18085"><ele>247.6</ele><time>2026-04-17T12:33:21.61Z</time></trkpt><trkpt lat="42.723765" lon="12.18096"><ele>250.0</ele><time>2026-04-17T12:33:23.611Z</time></trkpt><trkpt lat="42.7238733" lon="12.18103"><ele>250.0</ele><time>2026-04-17T12:33:25.611Z</time></trkpt><trkpt lat="42.7239567" lon="12.181065"><ele>250.0</ele><time>2026-04-17T12:33:27.611Z</time></trkpt><trkpt lat="42.7240167" lon="12.1811067"><ele>250.0</ele><time>2026-04-17T12:33:29.611Z</time></trkpt><trkpt lat="42.724055" lon="12.1812167"><ele>250.0</ele><time>2026-04-17T12:33:31.611Z</time></trkpt><trkpt lat="42.7240817" lon="12.18137"><ele>250.0</ele><time>2026-04-17T12:33:33.611Z</time></trkpt><trkpt lat="42.7241517" lon="12.1814883"><ele>251.8</ele><time>2026-04-17T12:33:35.611Z</time></trkpt><trkpt lat="42.7242667" lon="12.1815467"><ele>253.6</ele><time>2026-04-17T12:33:37.611Z</time></trkpt><trkpt lat="42.7243733" lon="12.18155"><ele>255.39999999999998</ele><time>2026-04-17T12:33:39.61Z</time></trkpt><trkpt lat="42.72446" lon="12.18151"><ele>257.2</ele><time>2026-04-17T12:33:41.611Z</time></trkpt><trkpt lat="42.7245217" lon="12.18155"><ele>259.0</ele><time>2026-04-17T12:33:44.611Z</time></trkpt><trkpt lat="42.7245283" lon="12.1816517"><ele>259.0</ele><time>2026-04-17T12:33:46.61Z</time></trkpt><trkpt lat="42.7245483" lon="12.1818317"><ele>259.0</ele><time>2026-04-17T12:33:48.611Z</time></trkpt><trkpt lat="42.7245517" lon="12.18193"><ele>259.0</ele><time>2026-04-17T12:33:49.611Z</time></trkpt><trkpt lat="42.7245467" lon="12.1820183"><ele>259.0</ele><time>2026-04-17T12:33:50.61Z</time></trkpt><trkpt lat="42.7245233" lon="12.1821417"><ele>259.0</ele><time>2026-04-17T12:33:52.611Z</time></trkpt><trkpt lat="42.7244433" lon="12.182235"><ele>257.2</ele><time>2026-04-17T12:33:54.611Z</time></trkpt><trkpt lat="42.7243833" lon="12.1822883"><ele>255.39999999999998</ele><time>2026-04-17T12:33:55.611Z</time></trkpt><trkpt lat="42.7242983" lon="12.182345"><ele>253.6</ele><time>2026-04-17T12:33:56.61Z</time></trkpt><trkpt lat="42.7242033" lon="12.1823933"><ele>251.8</ele><time>2026-04-17T12:33:57.611Z</time></trkpt><trkpt lat="42.72411" lon="12.1824183"><ele>250.0</ele><time>2026-04-17T12:33:58.611Z</time></trkpt><trkpt lat="42.72402" lon="12.182435"><ele>249.99999999999997</ele><time>2026-04-17T12:33:59.611Z</time></trkpt><trkpt lat="42.723935" lon="12.1824583"><ele>250.0</ele><time>2026-04-17T12:34:00.611Z</time></trkpt><trkpt lat="42.7238483" lon="12.1824967"><ele>250.0</ele><time>2026-04-17T12:34:01.61Z</time></trkpt><trkpt lat="42.7237683" lon="12.1825367"><ele>250.0</ele><time>2026-04-17T12:34:02.611Z</time></trkpt><trkpt lat="42.723705" lon="12.1825667"><ele>249.99999999999997</ele><time>2026-04-17T12:34:03.61Z</time></trkpt><trkpt lat="42.7235867" lon="12.18257"><ele>250.0</ele><time>2026-04-17T12:34:05.61Z</time></trkpt><trkpt lat="42.7235217" lon="12.182545"><ele>249.83333333333331</ele><time>2026-04-17T12:34:06.61Z</time></trkpt><trkpt lat="42.7234583" lon="12.182515"><ele>249.66666666666666</ele><time>2026-04-17T12:34:07.61Z</time></trkpt><trkpt lat="42.723385" lon="12.1824917"><ele>249.5</ele><time>2026-04-17T12:34:08.611Z</time></trkpt><trkpt lat="42.72331" lon="12.18248"><ele>249.33333333333331</ele><time>2026-04-17T12:34:09.611Z</time></trkpt><trkpt lat="42.7232467" lon="12.1824733"><ele>249.16666666666666</ele><time>2026-04-17T12:34:10.611Z</time></trkpt><trkpt lat="42.7231783" lon="12.1824767"><ele>249.0</ele><time>2026-04-17T12:34:11.611Z</time></trkpt><trkpt lat="42.723055" lon="12.182525"><ele>249.0</ele><time>2026-04-17T12:34:13.611Z</time></trkpt><trkpt lat="42.722995" lon="12.1825533"><ele>248.99999999999997</ele><time>2026-04-17T12:34:14.611Z</time></trkpt><trkpt lat="42.7228733" lon="12.182585"><ele>248.99999999999997</ele><time>2026-04-17T12:34:16.611Z</time></trkpt><trkpt lat="42.7227917" lon="12.1825867"><ele>249.0</ele><time>2026-04-17T12:34:17.611Z</time></trkpt><trkpt lat="42.7226967" lon="12.1825733"><ele>249.0</ele><time>2026-04-17T12:34:18.611Z</time></trkpt><trkpt lat="42.7226" lon="12.1825433"><ele>249.39999999999998</ele><time>2026-04-17T12:34:19.611Z</time></trkpt><trkpt lat="42.72249" lon="12.1825067"><ele>249.79999999999998</ele><time>2026-04-17T12:34:20.611Z</time></trkpt><trkpt lat="42.7224067" lon="12.18248"><ele>250.20000000000002</ele><time>2026-04-17T12:34:21.611Z</time></trkpt><trkpt lat="42.7223283" lon="12.1824467"><ele>250.60000000000002</ele><time>2026-04-17T12:34:22.61Z</time></trkpt><trkpt lat="42.722225" lon="12.1824233"><ele>251.0</ele><time>2026-04-17T12:34:24.61Z</time></trkpt><trkpt lat="42.7221483" lon="12.18245"><ele>251.00000000000003</ele><time>2026-04-17T12:34:27.611Z</time></trkpt><trkpt lat="42.7221767" lon="12.1825533"><ele>251.0</ele><time>2026-04-17T12:34:31.611Z</time></trkpt><trkpt lat="42.7222633" lon="12.1825967"><ele>251.0</ele><time>2026-04-17T12:34:33.611Z</time></trkpt><trkpt lat="42.7223667" lon="12.1826717"><ele>251.0</ele><time>2026-04-17T12:34:35.611Z</time></trkpt><trkpt lat="42.7224183" lon="12.18273"><ele>251.00000000000003</ele><time>2026-04-17T12:34:36.611Z</time></trkpt><trkpt lat="42.7224633" lon="12.1828"><ele>251.0</ele><time>2026-04-17T12:34:37.611Z</time></trkpt><trkpt lat="42.7225033" lon="12.1828683"><ele>251.00000000000003</ele><time>2026-04-17T12:34:38.611Z</time></trkpt><trkpt lat="42.7225417" lon="12.1829383"><ele>251.0</ele><time>2026-04-17T12:34:39.611Z</time></trkpt><trkpt lat="42.7225833" lon="12.1830033"><ele>251.0</ele><time>2026-04-17T12:34:40.611Z</time></trkpt><trkpt lat="42.7226483" lon="12.1831433"><ele>251.0</ele><time>2026-04-17T12:34:42.611Z</time></trkpt><trkpt lat="42.7226867" lon="12.1832267"><ele>251.00000000000003</ele><time>2026-04-17T12:34:43.611Z</time></trkpt><trkpt lat="42.7227333" lon="12.1833217"><ele>251.0</ele><time>2026-04-17T12:34:44.611Z</time></trkpt><trkpt lat="42.7227883" lon="12.1834317"><ele>253.50000000000003</ele><time>2026-04-17T12:34:45.611Z</time></trkpt><trkpt lat="42.722845" lon="12.1835267"><ele>256.0</ele><time>2026-04-17T12:34:46.611Z</time></trkpt><trkpt lat="42.7228983" lon="12.1836167"><ele>258.5</ele><time>2026-04-17T12:34:47.611Z</time></trkpt><trkpt lat="42.7229483" lon="12.1837017"><ele>261.0</ele><time>2026-04-17T12:34:48.611Z</time></trkpt><trkpt lat="42.72301" lon="12.1837767"><ele>263.5</ele><time>2026-04-17T12:34:49.611Z</time></trkpt><trkpt lat="42.7230733" lon="12.1838317"><ele>266.0</ele><time>2026-04-17T12:34:50.61Z</time></trkpt><trkpt lat="42.723135" lon="12.1838867"><ele>266.0</ele><time>2026-04-17T12:34:51.611Z</time></trkpt><trkpt lat="42.7231867" lon="12.1839433"><ele>266.0</ele><time>2026-04-17T12:34:52.611Z</time></trkpt><trkpt lat="42.7232417" lon="12.1840117"><ele>266.0</ele><time>2026-04-17T12:34:53.611Z</time></trkpt><trkpt lat="42.7233033" lon="12.1840933"><ele>266.0</ele><time>2026-04-17T12:34:54.61Z</time></trkpt><trkpt lat="42.7233567" lon="12.1841867"><ele>266.0</ele><time>2026-04-17T12:34:55.61Z</time></trkpt><trkpt lat="42.7234133" lon="12.18428"><ele>266.0</ele><time>2026-04-17T12:34:56.611Z</time></trkpt><trkpt lat="42.7234717" lon="12.1843783"><ele>266.83333333333337</ele><time>2026-04-17T12:34:57.611Z</time></trkpt><trkpt lat="42.7235267" lon="12.1844933"><ele>267.6666666666667</ele><time>2026-04-17T12:34:58.611Z</time></trkpt><trkpt lat="42.7235783" lon="12.184605"><ele>268.5</ele><time>2026-04-17T12:34:59.611Z</time></trkpt><trkpt lat="42.723615" lon="12.1847133"><ele>269.3333333333333</ele><time>2026-04-17T12:35:00.611Z</time></trkpt><trkpt lat="42.7236483" lon="12.18481"><ele>270.16666666666663</ele><time>2026-04-17T12:35:01.61Z</time></trkpt><trkpt lat="42.7236683" lon="12.1849117"><ele>271.0</ele><time>2026-04-17T12:35:02.611Z</time></trkpt><trkpt lat="42.7236817" lon="12.1850283"><ele>272.66666666666663</ele><time>2026-04-17T12:35:03.611Z</time></trkpt><trkpt lat="42.7236833" lon="12.1851517"><ele>274.3333333333333</ele><time>2026-04-17T12:35:04.611Z</time></trkpt><trkpt lat="42.723675" lon="12.1852667"><ele>276.0</ele><time>2026-04-17T12:35:05.611Z</time></trkpt><trkpt lat="42.72367" lon="12.1853717"><ele>277.6666666666667</ele><time>2026-04-17T12:35:06.61Z</time></trkpt><trkpt lat="42.7236783" lon="12.1854617"><ele>279.33333333333337</ele><time>2026-04-17T12:35:07.611Z</time></trkpt><trkpt lat="42.72371" lon="12.18562"><ele>281.0</ele><time>2026-04-17T12:35:09.61Z</time></trkpt><trkpt lat="42.723775" lon="12.1857633"><ele>281.40000000000003</ele><time>2026-04-17T12:35:11.611Z</time></trkpt><trkpt lat="42.72382" lon="12.18583"><ele>281.8</ele><time>2026-04-17T12:35:12.61Z</time></trkpt><trkpt lat="42.7239067" lon="12.1859383"><ele>282.20000000000005</ele><time>2026-04-17T12:35:14.611Z</time></trkpt><trkpt lat="42.7240033" lon="12.18601"><ele>282.6</ele><time>2026-04-17T12:35:16.611Z</time></trkpt><trkpt lat="42.72411" lon="12.1860217"><ele>283.0</ele><time>2026-04-17T12:35:18.611Z</time></trkpt><trkpt lat="42.7241783" lon="12.1860267"><ele>283.0</ele><time>2026-04-17T12:35:19.611Z</time></trkpt><trkpt lat="42.72427" lon="12.1860417"><ele>283.0</ele><time>2026-04-17T12:35:20.61Z</time></trkpt><trkpt lat="42.7243733" lon="12.1860583"><ele>283.0</ele><time>2026-04-17T12:35:21.611Z</time></trkpt><trkpt lat="42.7244717" lon="12.1860767"><ele>283.0</ele><time>2026-04-17T12:35:22.611Z</time></trkpt><trkpt lat="42.7245717" lon="12.186095"><ele>283.0</ele><time>2026-04-17T12:35:23.611Z</time></trkpt><trkpt lat="42.724665" lon="12.1861083"><ele>285.0</ele><time>2026-04-17T12:35:24.611Z</time></trkpt><trkpt lat="42.7247583" lon="12.1861233"><ele>287.0</ele><time>2026-04-17T12:35:25.611Z</time></trkpt><trkpt lat="42.724855" lon="12.186135"><ele>289.0</ele><time>2026-04-17T12:35:26.61Z</time></trkpt><trkpt lat="42.7249517" lon="12.1861517"><ele>291.0</ele><time>2026-04-17T12:35:27.611Z</time></trkpt><trkpt lat="42.7250567" lon="12.18616"><ele>293.0</ele><time>2026-04-17T12:35:28.611Z</time></trkpt><trkpt lat="42.725165" lon="12.1861733"><ele>294.4</ele><time>2026-04-17T12:35:29.611Z</time></trkpt><trkpt lat="42.72527" lon="12.18619"><ele>295.8</ele><time>2026-04-17T12:35:30.611Z</time></trkpt><trkpt lat="42.7253717" lon="12.1862083"><ele>297.2</ele><time>2026-04-17T12:35:31.61Z</time></trkpt><trkpt lat="42.72547" lon="12.1862167"><ele>298.6</ele><time>2026-04-17T12:35:32.611Z</time></trkpt><trkpt lat="42.72556" lon="12.1862233"><ele>300.0</ele><time>2026-04-17T12:35:33.611Z</time></trkpt><trkpt lat="42.725645" lon="12.1862383"><ele>299.99999999999994</ele><time>2026-04-17T12:35:34.611Z</time></trkpt><trkpt lat="42.7257133" lon="12.1862517"><ele>300.0</ele><time>2026-04-17T12:35:35.611Z</time></trkpt><trkpt lat="42.7257717" lon="12.1862917"><ele>300.0</ele><time>2026-04-17T12:35:36.61Z</time></trkpt><trkpt lat="42.7258317" lon="12.1863467"><ele>300.0</ele><time>2026-04-17T12:35:37.611Z</time></trkpt><trkpt lat="42.72588" lon="12.1864167"><ele>300.0</ele><time>2026-04-17T12:35:38.611Z</time></trkpt><trkpt lat="42.7259033" lon="12.1864967"><ele>299.99999999999994</ele><time>2026-04-17T12:35:39.611Z</time></trkpt><trkpt lat="42.7259033" lon="12.1866033"><ele>300.0</ele><time>2026-04-17T12:35:40.611Z</time></trkpt><trkpt lat="42.725905" lon="12.1867167"><ele>300.0</ele><time>2026-04-17T12:35:41.611Z</time></trkpt><trkpt lat="42.7259133" lon="12.1868217"><ele>300.0</ele><time>2026-04-17T12:35:42.61Z</time></trkpt><trkpt lat="42.7259417" lon="12.18691"><ele>300.0</ele><time>2026-04-17T12:35:43.611Z</time></trkpt><trkpt lat="42.725995" lon="12.1869967"><ele>300.0</ele><time>2026-04-17T12:35:44.611Z</time></trkpt><trkpt lat="42.7260617" lon="12.187085"><ele>300.0</ele><time>2026-04-17T12:35:45.61Z</time></trkpt><trkpt lat="42.7261367" lon="12.1871933"><ele>300.0</ele><time>2026-04-17T12:35:46.611Z</time></trkpt><trkpt lat="42.7262217" lon="12.18732"><ele>299.0</ele><time>2026-04-17T12:35:47.611Z</time></trkpt><trkpt lat="42.7263083" lon="12.1874517"><ele>298.0</ele><time>2026-04-17T12:35:48.611Z</time></trkpt><trkpt lat="42.72639" lon="12.187575"><ele>297.0</ele><time>2026-04-17T12:35:49.61Z</time></trkpt><trkpt lat="42.7264733" lon="12.1876983"><ele>296.0</ele><time>2026-04-17T12:35:50.611Z</time></trkpt><trkpt lat="42.726555" lon="12.1878317"><ele>296.0</ele><time>2026-04-17T12:35:51.611Z</time></trkpt><trkpt lat="42.7266383" lon="12.1879633"><ele>296.0</ele><time>2026-04-17T12:35:52.61Z</time></trkpt><trkpt lat="42.726725" lon="12.1880967"><ele>296.0</ele><time>2026-04-17T12:35:53.611Z</time></trkpt><trkpt lat="42.7268133" lon="12.1882183"><ele>296.0</ele><time>2026-04-17T12:35:54.61Z</time></trkpt><trkpt lat="42.7268933" lon="12.1883383"><ele>296.40000000000003</ele><time>2026-04-17T12:35:55.611Z</time></trkpt><trkpt lat="42.726965" lon="12.18845"><ele>296.8</ele><time>2026-04-17T12:35:56.611Z</time></trkpt><trkpt lat="42.72704" lon="12.1885633"><ele>297.20000000000005</ele><time>2026-04-17T12:35:57.611Z</time></trkpt><trkpt lat="42.7271167" lon="12.1886617"><ele>297.6</ele><time>2026-04-17T12:35:58.611Z</time></trkpt><trkpt lat="42.72719" lon="12.1887567"><ele>298.0</ele><time>2026-04-17T12:35:59.611Z</time></trkpt><trkpt lat="42.7272683" lon="12.1888517"><ele>298.0</ele><time>2026-04-17T12:36:00.61Z</time></trkpt><trkpt lat="42.7273483" lon="12.1889617"><ele>298.0</ele><time>2026-04-17T12:36:01.61Z</time></trkpt><trkpt lat="42.7274283" lon="12.1890683"><ele>298.0</ele><time>2026-04-17T12:36:02.61Z</time></trkpt><trkpt lat="42.7275083" lon="12.1891567"><ele>298.0</ele><time>2026-04-17T12:36:03.611Z</time></trkpt><trkpt lat="42.7275967" lon="12.1892417"><ele>298.0</ele><time>2026-04-17T12:36:04.611Z</time></trkpt><trkpt lat="42.7276933" lon="12.1893217"><ele>300.25</ele><time>2026-04-17T12:36:05.61Z</time></trkpt><trkpt lat="42.7277983" lon="12.1894067"><ele>302.5</ele><time>2026-04-17T12:36:06.611Z</time></trkpt><trkpt lat="42.7279083" lon="12.1894883"><ele>304.75</ele><time>2026-04-17T12:36:07.61Z</time></trkpt><trkpt lat="42.7280217" lon="12.18956"><ele>307.0</ele><time>2026-04-17T12:36:08.611Z</time></trkpt><trkpt lat="42.7281317" lon="12.1896317"><ele>307.0</ele><time>2026-04-17T12:36:09.61Z</time></trkpt><trkpt lat="42.7282367" lon="12.1897033"><ele>307.0</ele><time>2026-04-17T12:36:10.611Z</time></trkpt><trkpt lat="42.7283483" lon="12.18976"><ele>307.0</ele><time>2026-04-17T12:36:11.611Z</time></trkpt><trkpt lat="42.7284567" lon="12.1898267"><ele>307.0</ele><time>2026-04-17T12:36:12.611Z</time></trkpt><trkpt lat="42.7285617" lon="12.1898817"><ele>310.6</ele><time>2026-04-17T12:36:13.611Z</time></trkpt><trkpt lat="42.72866" lon="12.1899383"><ele>314.2</ele><time>2026-04-17T12:36:14.61Z</time></trkpt><trkpt lat="42.7287433" lon="12.1899833"><ele>317.8</ele><time>2026-04-17T12:36:15.611Z</time></trkpt><trkpt lat="42.7288133" lon="12.1900183"><ele>321.4</ele><time>2026-04-17T12:36:16.61Z</time></trkpt><trkpt lat="42.7289083" lon="12.1900867"><ele>325.0</ele><time>2026-04-17T12:36:18.611Z</time></trkpt><trkpt lat="42.7289417" lon="12.1901817"><ele>325.0</ele><time>2026-04-17T12:36:20.61Z</time></trkpt><trkpt lat="42.7289167" lon="12.190325"><ele>325.0</ele><time>2026-04-17T12:36:22.61Z</time></trkpt><trkpt lat="42.728895" lon="12.19043"><ele>325.0</ele><time>2026-04-17T12:36:23.611Z</time></trkpt><trkpt lat="42.7288817" lon="12.1905367"><ele>325.0</ele><time>2026-04-17T12:36:24.61Z</time></trkpt><trkpt lat="42.7288783" lon="12.1906617"><ele>325.0</ele><time>2026-04-17T12:36:25.611Z</time></trkpt><trkpt lat="42.72887" lon="12.1907917"><ele>324.8333333333333</ele><time>2026-04-17T12:36:26.61Z</time></trkpt><trkpt lat="42.7288667" lon="12.19093"><ele>324.66666666666663</ele><time>2026-04-17T12:36:27.611Z</time></trkpt><trkpt lat="42.7288583" lon="12.19106"><ele>324.5</ele><time>2026-04-17T12:36:28.61Z</time></trkpt><trkpt lat="42.7288483" lon="12.1911717"><ele>324.3333333333333</ele><time>2026-04-17T12:36:29.611Z</time></trkpt><trkpt lat="42.728835" lon="12.19128"><ele>324.1666666666667</ele><time>2026-04-17T12:36:30.611Z</time></trkpt><trkpt lat="42.7288133" lon="12.1913767"><ele>324.0</ele><time>2026-04-17T12:36:31.611Z</time></trkpt><trkpt lat="42.7287817" lon="12.1914667"><ele>323.6</ele><time>2026-04-17T12:36:32.611Z</time></trkpt><trkpt lat="42.7287417" lon="12.1915467"><ele>323.2</ele><time>2026-04-17T12:36:33.61Z</time></trkpt><trkpt lat="42.7286733" lon="12.1916167"><ele>322.8</ele><time>2026-04-17T12:36:34.611Z</time></trkpt><trkpt lat="42.7285883" lon="12.1916783"><ele>322.40000000000003</ele><time>2026-04-17T12:36:35.61Z</time></trkpt><trkpt lat="42.7284867" lon="12.19173"><ele>322.0</ele><time>2026-04-17T12:36:36.611Z</time></trkpt><trkpt lat="42.7283717" lon="12.191775"><ele>319.25</ele><time>2026-04-17T12:36:37.61Z</time></trkpt><trkpt lat="42.728265" lon="12.1918133"><ele>316.5</ele><time>2026-04-17T12:36:38.611Z</time></trkpt><trkpt lat="42.7281533" lon="12.1918583"><ele>313.75</ele><time>2026-04-17T12:36:39.611Z</time></trkpt><trkpt lat="42.728035" lon="12.1919033"><ele>311.0</ele><time>2026-04-17T12:36:40.61Z</time></trkpt><trkpt lat="42.7279133" lon="12.1919567"><ele>311.0</ele><time>2026-04-17T12:36:41.611Z</time></trkpt><trkpt lat="42.7277883" lon="12.1920117"><ele>311.0</ele><time>2026-04-17T12:36:42.611Z</time></trkpt><trkpt lat="42.7276683" lon="12.1920683"><ele>311.0</ele><time>2026-04-17T12:36:43.611Z</time></trkpt><trkpt lat="42.7275517" lon="12.1921183"><ele>311.0</ele><time>2026-04-17T12:36:44.611Z</time></trkpt><trkpt lat="42.7274317" lon="12.192165"><ele>309.75</ele><time>2026-04-17T12:36:45.61Z</time></trkpt><trkpt lat="42.7273067" lon="12.192205"><ele>308.5</ele><time>2026-04-17T12:36:46.611Z</time></trkpt><trkpt lat="42.727185" lon="12.1922317"><ele>307.25</ele><time>2026-04-17T12:36:47.61Z</time></trkpt><trkpt lat="42.7270733" lon="12.1922467"><ele>306.0</ele><time>2026-04-17T12:36:48.611Z</time></trkpt><trkpt lat="42.72697" lon="12.192255"><ele>305.2</ele><time>2026-04-17T12:36:49.611Z</time></trkpt><trkpt lat="42.7268683" lon="12.1922567"><ele>304.40000000000003</ele><time>2026-04-17T12:36:50.611Z</time></trkpt><trkpt lat="42.7267733" lon="12.1922517"><ele>303.6</ele><time>2026-04-17T12:36:51.611Z</time></trkpt><trkpt lat="42.726685" lon="12.1922467"><ele>302.8</ele><time>2026-04-17T12:36:52.611Z</time></trkpt><trkpt lat="42.7266" lon="12.192235"><ele>302.0</ele><time>2026-04-17T12:36:53.61Z</time></trkpt><trkpt lat="42.7265217" lon="12.19221"><ele>302.0</ele><time>2026-04-17T12:36:54.611Z</time></trkpt><trkpt lat="42.7264533" lon="12.1921917"><ele>302.0</ele><time>2026-04-17T12:36:55.611Z</time></trkpt><trkpt lat="42.7263883" lon="12.1921633"><ele>302.0</ele><time>2026-04-17T12:36:56.611Z</time></trkpt><trkpt lat="42.7262883" lon="12.1920733"><ele>302.0</ele><time>2026-04-17T12:36:58.611Z</time></trkpt><trkpt lat="42.7262383" lon="12.1920183"><ele>302.0</ele><time>2026-04-17T12:36:59.611Z</time></trkpt><trkpt lat="42.7261983" lon="12.19195"><ele>302.0</ele><time>2026-04-17T12:37:00.611Z</time></trkpt><trkpt lat="42.726155" lon="12.1918717"><ele>302.0</ele><time>2026-04-17T12:37:01.611Z</time></trkpt><trkpt lat="42.72612" lon="12.1917883"><ele>302.0</ele><time>2026-04-17T12:37:02.611Z</time></trkpt><trkpt lat="42.7260767" lon="12.1917"><ele>302.0</ele><time>2026-04-17T12:37:03.611Z</time></trkpt><trkpt lat="42.72603" lon="12.1916083"><ele>302.0</ele><time>2026-04-17T12:37:04.611Z</time></trkpt><trkpt lat="42.7259833" lon="12.1915117"><ele>302.0</ele><time>2026-04-17T12:37:05.611Z</time></trkpt><trkpt lat="42.7259283" lon="12.191415"><ele>302.0</ele><time>2026-04-17T12:37:06.61Z</time></trkpt><trkpt lat="42.7258667" lon="12.19131"><ele>300.2</ele><time>2026-04-17T12:37:07.611Z</time></trkpt><trkpt lat="42.725795" lon="12.19121"><ele>298.4</ele><time>2026-04-17T12:37:08.611Z</time></trkpt><trkpt lat="42.7257167" lon="12.1911133"><ele>296.6</ele><time>2026-04-17T12:37:09.611Z</time></trkpt><trkpt lat="42.725625" lon="12.1910133"><ele>294.8</ele><time>2026-04-17T12:37:10.611Z</time></trkpt><trkpt lat="42.72553" lon="12.1909217"><ele>293.0</ele><time>2026-04-17T12:37:11.611Z</time></trkpt><trkpt lat="42.7254267" lon="12.1908283"><ele>293.0</ele><time>2026-04-17T12:37:12.61Z</time></trkpt><trkpt lat="42.7253217" lon="12.19074"><ele>293.0</ele><time>2026-04-17T12:37:13.611Z</time></trkpt><trkpt lat="42.72522" lon="12.19065"><ele>293.0</ele><time>2026-04-17T12:37:14.611Z</time></trkpt><trkpt lat="42.7251217" lon="12.1905717"><ele>293.0</ele><time>2026-04-17T12:37:15.611Z</time></trkpt><trkpt lat="42.72503" lon="12.1904967"><ele>291.2</ele><time>2026-04-17T12:37:16.611Z</time></trkpt><trkpt lat="42.7249317" lon="12.19043"><ele>289.4</ele><time>2026-04-17T12:37:17.611Z</time></trkpt><trkpt lat="42.724835" lon="12.1903867"><ele>287.59999999999997</ele><time>2026-04-17T12:37:18.61Z</time></trkpt><trkpt lat="42.72474" lon="12.1903583"><ele>285.8</ele><time>2026-04-17T12:37:19.611Z</time></trkpt><trkpt lat="42.7246383" lon="12.19034"><ele>284.0</ele><time>2026-04-17T12:37:20.61Z</time></trkpt><trkpt lat="42.7245333" lon="12.19034"><ele>284.0</ele><time>2026-04-17T12:37:21.61Z</time></trkpt><trkpt lat="42.72442" lon="12.19036"><ele>284.0</ele><time>2026-04-17T12:37:22.611Z</time></trkpt><trkpt lat="42.7243067" lon="12.1903933"><ele>284.0</ele><time>2026-04-17T12:37:23.611Z</time></trkpt><trkpt lat="42.7241983" lon="12.1904383"><ele>284.0</ele><time>2026-04-17T12:37:24.611Z</time></trkpt><trkpt lat="42.72409" lon="12.1904883"><ele>284.25</ele><time>2026-04-17T12:37:25.611Z</time></trkpt><trkpt lat="42.723975" lon="12.19054"><ele>284.5</ele><time>2026-04-17T12:37:26.61Z</time></trkpt><trkpt lat="42.7238517" lon="12.1905967"><ele>284.75</ele><time>2026-04-17T12:37:27.611Z</time></trkpt><trkpt lat="42.7237283" lon="12.1906567"><ele>285.0</ele><time>2026-04-17T12:37:28.61Z</time></trkpt><trkpt lat="42.72361" lon="12.190715"><ele>284.5</ele><time>2026-04-17T12:37:29.611Z</time></trkpt><trkpt lat="42.7234933" lon="12.1907683"><ele>284.0</ele><time>2026-04-17T12:37:30.611Z</time></trkpt><trkpt lat="42.7233767" lon="12.1908183"><ele>283.5</ele><time>2026-04-17T12:37:31.611Z</time></trkpt><trkpt lat="42.7232583" lon="12.1908683"><ele>283.0</ele><time>2026-04-17T12:37:32.61Z</time></trkpt><trkpt lat="42.723135" lon="12.1909283"><ele>283.0</ele><time>2026-04-17T12:37:33.611Z</time></trkpt><trkpt lat="42.7230067" lon="12.1909867"><ele>283.0</ele><time>2026-04-17T12:37:34.61Z</time></trkpt><trkpt lat="42.72288" lon="12.1910417"><ele>283.0</ele><time>2026-04-17T12:37:35.611Z</time></trkpt><trkpt lat="42.7227567" lon="12.1911083"><ele>283.0</ele><time>2026-04-17T12:37:36.611Z</time></trkpt><trkpt lat="42.7226333" lon="12.19118"><ele>280.75</ele><time>2026-04-17T12:37:37.611Z</time></trkpt><trkpt lat="42.7225133" lon="12.1912467"><ele>278.5</ele><time>2026-04-17T12:37:38.611Z</time></trkpt><trkpt lat="42.722395" lon="12.19131"><ele>276.25</ele><time>2026-04-17T12:37:39.611Z</time></trkpt><trkpt lat="42.722275" lon="12.1913667"><ele>274.0</ele><time>2026-04-17T12:37:40.611Z</time></trkpt><trkpt lat="42.72215" lon="12.191435"><ele>274.0</ele><time>2026-04-17T12:37:41.611Z</time></trkpt><trkpt lat="42.72202" lon="12.1915"><ele>274.0</ele><time>2026-04-17T12:37:42.611Z</time></trkpt><trkpt lat="42.72189" lon="12.191565"><ele>274.0</ele><time>2026-04-17T12:37:43.611Z</time></trkpt><trkpt lat="42.7217667" lon="12.1916233"><ele>274.0</ele><time>2026-04-17T12:37:44.611Z</time></trkpt><trkpt lat="42.7216483" lon="12.1916833"><ele>272.8</ele><time>2026-04-17T12:37:45.61Z</time></trkpt><trkpt lat="42.721535" lon="12.1917417"><ele>271.59999999999997</ele><time>2026-04-17T12:37:46.611Z</time></trkpt><trkpt lat="42.72143" lon="12.1917983"><ele>270.4</ele><time>2026-04-17T12:37:47.61Z</time></trkpt><trkpt lat="42.7213267" lon="12.1918517"><ele>269.2</ele><time>2026-04-17T12:37:48.611Z</time></trkpt><trkpt lat="42.7212317" lon="12.191905"><ele>268.0</ele><time>2026-04-17T12:37:49.611Z</time></trkpt><trkpt lat="42.721135" lon="12.1919483"><ele>267.2</ele><time>2026-04-17T12:37:50.61Z</time></trkpt><trkpt lat="42.7210467" lon="12.1919883"><ele>266.4</ele><time>2026-04-17T12:37:51.611Z</time></trkpt><trkpt lat="42.7209583" lon="12.1920267"><ele>265.59999999999997</ele><time>2026-04-17T12:37:52.61Z</time></trkpt><trkpt lat="42.7208733" lon="12.1920567"><ele>264.8</ele><time>2026-04-17T12:37:53.611Z</time></trkpt><trkpt lat="42.7207917" lon="12.1920933"><ele>264.0</ele><time>2026-04-17T12:37:54.611Z</time></trkpt><trkpt lat="42.72071" lon="12.192155"><ele>264.0</ele><time>2026-04-17T12:37:55.611Z</time></trkpt><trkpt lat="42.7206317" lon="12.1922283"><ele>264.0</ele><time>2026-04-17T12:37:56.611Z</time></trkpt><trkpt lat="42.720545" lon="12.1923083"><ele>264.0</ele><time>2026-04-17T12:37:57.611Z</time></trkpt><trkpt lat="42.7204483" lon="12.1924067"><ele>264.0</ele><time>2026-04-17T12:37:58.611Z</time></trkpt><trkpt lat="42.7203433" lon="12.1925083"><ele>264.0</ele><time>2026-04-17T12:37:59.611Z</time></trkpt><trkpt lat="42.72023" lon="12.1926133"><ele>262.75</ele><time>2026-04-17T12:38:00.61Z</time></trkpt><trkpt lat="42.72012" lon="12.192715"><ele>261.5</ele><time>2026-04-17T12:38:01.61Z</time></trkpt><trkpt lat="42.7200133" lon="12.1928167"><ele>260.25</ele><time>2026-04-17T12:38:02.611Z</time></trkpt><trkpt lat="42.7199083" lon="12.19292"><ele>259.0</ele><time>2026-04-17T12:38:03.611Z</time></trkpt><trkpt lat="42.7198067" lon="12.19302"><ele>259.0</ele><time>2026-04-17T12:38:04.611Z</time></trkpt><trkpt lat="42.7197067" lon="12.1931133"><ele>259.0</ele><time>2026-04-17T12:38:05.61Z</time></trkpt><trkpt lat="42.7196083" lon="12.193205"><ele>259.0</ele><time>2026-04-17T12:38:06.61Z</time></trkpt><trkpt lat="42.71951" lon="12.1932917"><ele>259.0</ele><time>2026-04-17T12:38:07.61Z</time></trkpt><trkpt lat="42.71941" lon="12.1933717"><ele>258.0</ele><time>2026-04-17T12:38:08.611Z</time></trkpt><trkpt lat="42.7193267" lon="12.1934467"><ele>257.0</ele><time>2026-04-17T12:38:09.61Z</time></trkpt><trkpt lat="42.71925" lon="12.1935067"><ele>256.0</ele><time>2026-04-17T12:38:10.611Z</time></trkpt><trkpt lat="42.71918" lon="12.1935717"><ele>255.0</ele><time>2026-04-17T12:38:11.611Z</time></trkpt><trkpt lat="42.719115" lon="12.1936483"><ele>253.99999999999997</ele><time>2026-04-17T12:38:12.611Z</time></trkpt><trkpt lat="42.7190533" lon="12.1937317"><ele>253.0</ele><time>2026-04-17T12:38:13.611Z</time></trkpt><trkpt lat="42.719005" lon="12.1938283"><ele>253.0</ele><time>2026-04-17T12:38:14.611Z</time></trkpt><trkpt lat="42.7189633" lon="12.1939417"><ele>253.0</ele><time>2026-04-17T12:38:15.611Z</time></trkpt><trkpt lat="42.718925" lon="12.194075"><ele>253.0</ele><time>2026-04-17T12:38:16.611Z</time></trkpt><trkpt lat="42.71889" lon="12.194215"><ele>253.0</ele><time>2026-04-17T12:38:17.611Z</time></trkpt><trkpt lat="42.7188583" lon="12.194355"><ele>253.0</ele><time>2026-04-17T12:38:18.611Z</time></trkpt><trkpt lat="42.7188217" lon="12.1944983"><ele>252.8</ele><time>2026-04-17T12:38:19.611Z</time></trkpt><trkpt lat="42.7187883" lon="12.194645"><ele>252.60000000000002</ele><time>2026-04-17T12:38:20.611Z</time></trkpt><trkpt lat="42.718755" lon="12.1947867"><ele>252.39999999999998</ele><time>2026-04-17T12:38:21.611Z</time></trkpt><trkpt lat="42.718725" lon="12.1949217"><ele>252.2</ele><time>2026-04-17T12:38:22.611Z</time></trkpt><trkpt lat="42.71869" lon="12.1950517"><ele>252.0</ele><time>2026-04-17T12:38:23.611Z</time></trkpt><trkpt lat="42.7186417" lon="12.1951783"><ele>250.39999999999998</ele><time>2026-04-17T12:38:24.61Z</time></trkpt><trkpt lat="42.71858" lon="12.1952917"><ele>248.79999999999998</ele><time>2026-04-17T12:38:25.611Z</time></trkpt><trkpt lat="42.7185067" lon="12.1953933"><ele>247.2</ele><time>2026-04-17T12:38:26.61Z</time></trkpt><trkpt lat="42.7184233" lon="12.1954817"><ele>245.6</ele><time>2026-04-17T12:38:27.61Z</time></trkpt><trkpt lat="42.71835" lon="12.195565"><ele>244.0</ele><time>2026-04-17T12:38:28.611Z</time></trkpt><trkpt lat="42.7182767" lon="12.1956283"><ele>243.33333333333331</ele><time>2026-04-17T12:38:29.611Z</time></trkpt><trkpt lat="42.71821" lon="12.1956833"><ele>242.66666666666666</ele><time>2026-04-17T12:38:30.61Z</time></trkpt><trkpt lat="42.7181417" lon="12.1957133"><ele>242.0</ele><time>2026-04-17T12:38:31.611Z</time></trkpt><trkpt lat="42.71807" lon="12.1957233"><ele>241.33333333333331</ele><time>2026-04-17T12:38:32.611Z</time></trkpt><trkpt lat="42.7179817" lon="12.1957267"><ele>240.66666666666666</ele><time>2026-04-17T12:38:33.611Z</time></trkpt><trkpt lat="42.7178817" lon="12.195725"><ele>240.0</ele><time>2026-04-17T12:38:34.611Z</time></trkpt><trkpt lat="42.7177733" lon="12.1957217"><ele>238.75</ele><time>2026-04-17T12:38:35.611Z</time></trkpt><trkpt lat="42.717655" lon="12.1957283"><ele>237.5</ele><time>2026-04-17T12:38:36.61Z</time></trkpt><trkpt lat="42.7175333" lon="12.195735"><ele>236.25</ele><time>2026-04-17T12:38:37.61Z</time></trkpt><trkpt lat="42.7174067" lon="12.19574"><ele>235.0</ele><time>2026-04-17T12:38:38.611Z</time></trkpt><trkpt lat="42.71728" lon="12.195755"><ele>235.0</ele><time>2026-04-17T12:38:39.611Z</time></trkpt><trkpt lat="42.7171467" lon="12.195755"><ele>235.0</ele><time>2026-04-17T12:38:40.611Z</time></trkpt><trkpt lat="42.7170183" lon="12.1957567"><ele>235.0</ele><time>2026-04-17T12:38:41.611Z</time></trkpt><trkpt lat="42.7168917" lon="12.19576"><ele>235.0</ele><time>2026-04-17T12:38:42.611Z</time></trkpt><trkpt lat="42.7167633" lon="12.1957717"><ele>234.5</ele><time>2026-04-17T12:38:43.611Z</time></trkpt><trkpt lat="42.716635" lon="12.1957817"><ele>234.0</ele><time>2026-04-17T12:38:44.611Z</time></trkpt><trkpt lat="42.7165017" lon="12.1957833"><ele>233.5</ele><time>2026-04-17T12:38:45.611Z</time></trkpt><trkpt lat="42.7163617" lon="12.195785"><ele>233.0</ele><time>2026-04-17T12:38:46.611Z</time></trkpt><trkpt lat="42.716225" lon="12.1957883"><ele>233.0</ele><time>2026-04-17T12:38:47.611Z</time></trkpt><trkpt lat="42.7160917" lon="12.1957983"><ele>233.0</ele><time>2026-04-17T12:38:48.611Z</time></trkpt><trkpt lat="42.71596" lon="12.1958017"><ele>233.0</ele><time>2026-04-17T12:38:49.611Z</time></trkpt><trkpt lat="42.715835" lon="12.1958033"><ele>233.0</ele><time>2026-04-17T12:38:50.611Z</time></trkpt><trkpt lat="42.7157133" lon="12.1958083"><ele>232.0</ele><time>2026-04-17T12:38:51.61Z</time></trkpt><trkpt lat="42.7156083" lon="12.195805"><ele>231.0</ele><time>2026-04-17T12:38:52.611Z</time></trkpt><trkpt lat="42.7155117" lon="12.1958067"><ele>230.0</ele><time>2026-04-17T12:38:53.61Z</time></trkpt><trkpt lat="42.71542" lon="12.1958083"><ele>229.0</ele><time>2026-04-17T12:38:54.61Z</time></trkpt><trkpt lat="42.715335" lon="12.1958067"><ele>228.0</ele><time>2026-04-17T12:38:55.611Z</time></trkpt><trkpt lat="42.7152633" lon="12.195795"><ele>227.16666666666666</ele><time>2026-04-17T12:38:56.61Z</time></trkpt><trkpt lat="42.7151967" lon="12.19578"><ele>226.33333333333331</ele><time>2026-04-17T12:38:57.611Z</time></trkpt><trkpt lat="42.7151283" lon="12.195745"><ele>225.5</ele><time>2026-04-17T12:38:58.61Z</time></trkpt><trkpt lat="42.7150667" lon="12.195705"><ele>224.66666666666666</ele><time>2026-04-17T12:38:59.611Z</time></trkpt><trkpt lat="42.715005" lon="12.195645"><ele>223.83333333333331</ele><time>2026-04-17T12:39:00.611Z</time></trkpt><trkpt lat="42.7149367" lon="12.1955733"><ele>223.0</ele><time>2026-04-17T12:39:01.61Z</time></trkpt><trkpt lat="42.7148517" lon="12.1954917"><ele>222.25</ele><time>2026-04-17T12:39:02.61Z</time></trkpt><trkpt lat="42.714755" lon="12.1954067"><ele>221.5</ele><time>2026-04-17T12:39:03.61Z</time></trkpt><trkpt lat="42.7146483" lon="12.1953233"><ele>220.75</ele><time>2026-04-17T12:39:04.611Z</time></trkpt><trkpt lat="42.71453" lon="12.195255"><ele>220.0</ele><time>2026-04-17T12:39:05.611Z</time></trkpt><trkpt lat="42.714415" lon="12.1952033"><ele>219.25</ele><time>2026-04-17T12:39:06.611Z</time></trkpt><trkpt lat="42.7142983" lon="12.1951667"><ele>218.5</ele><time>2026-04-17T12:39:07.611Z</time></trkpt><trkpt lat="42.714175" lon="12.1951533"><ele>217.75</ele><time>2026-04-17T12:39:08.61Z</time></trkpt><trkpt lat="42.7140617" lon="12.1951567"><ele>217.0</ele><time>2026-04-17T12:39:09.61Z</time></trkpt><trkpt lat="42.7139583" lon="12.1951633"><ele>216.99999999999997</ele><time>2026-04-17T12:39:10.61Z</time></trkpt><trkpt lat="42.7138683" lon="12.195165"><ele>217.0</ele><time>2026-04-17T12:39:11.611Z</time></trkpt><trkpt lat="42.7137867" lon="12.19517"><ele>217.0</ele><time>2026-04-17T12:39:12.611Z</time></trkpt><trkpt lat="42.713715" lon="12.1951833"><ele>217.0</ele><time>2026-04-17T12:39:13.611Z</time></trkpt><trkpt lat="42.713645" lon="12.1951917"><ele>216.99999999999997</ele><time>2026-04-17T12:39:14.611Z</time></trkpt><trkpt lat="42.71358" lon="12.195205"><ele>217.0</ele><time>2026-04-17T12:39:15.61Z</time></trkpt><trkpt lat="42.7135083" lon="12.19522"><ele>216.49999999999997</ele><time>2026-04-17T12:39:16.61Z</time></trkpt><trkpt lat="42.7134333" lon="12.19522"><ele>216.0</ele><time>2026-04-17T12:39:17.61Z</time></trkpt><trkpt lat="42.713355" lon="12.1952217"><ele>215.5</ele><time>2026-04-17T12:39:18.611Z</time></trkpt><trkpt lat="42.7132717" lon="12.1952167"><ele>215.0</ele><time>2026-04-17T12:39:19.611Z</time></trkpt><trkpt lat="42.7131783" lon="12.195195"><ele>214.49999999999997</ele><time>2026-04-17T12:39:20.611Z</time></trkpt><trkpt lat="42.713085" lon="12.19517"><ele>214.0</ele><time>2026-04-17T12:39:21.611Z</time></trkpt><trkpt lat="42.712995" lon="12.1951417"><ele>214.0</ele><time>2026-04-17T12:39:22.611Z</time></trkpt><trkpt lat="42.712915" lon="12.1951133"><ele>213.99999999999997</ele><time>2026-04-17T12:39:23.611Z</time></trkpt><trkpt lat="42.71284" lon="12.1950883"><ele>213.99999999999997</ele><time>2026-04-17T12:39:24.611Z</time></trkpt><trkpt lat="42.712725" lon="12.1950533"><ele>214.0</ele><time>2026-04-17T12:39:26.611Z</time></trkpt><trkpt lat="42.712625" lon="12.1950233"><ele>214.0</ele><time>2026-04-17T12:39:28.611Z</time></trkpt><trkpt lat="42.7125067" lon="12.195015"><ele>213.6</ele><time>2026-04-17T12:39:30.611Z</time></trkpt><trkpt lat="42.7124083" lon="12.1950367"><ele>213.2</ele><time>2026-04-17T12:39:32.611Z</time></trkpt><trkpt lat="42.712305" lon="12.1950183"><ele>212.79999999999998</ele><time>2026-04-17T12:39:34.611Z</time></trkpt><trkpt lat="42.7122017" lon="12.194935"><ele>212.39999999999998</ele><time>2026-04-17T12:39:36.611Z</time></trkpt><trkpt lat="42.7121417" lon="12.1948967"><ele>212.0</ele><time>2026-04-17T12:39:37.61Z</time></trkpt><trkpt lat="42.7120667" lon="12.1948767"><ele>212.00000000000003</ele><time>2026-04-17T12:39:38.61Z</time></trkpt><trkpt lat="42.7119883" lon="12.19487"><ele>212.0</ele><time>2026-04-17T12:39:39.61Z</time></trkpt><trkpt lat="42.7119017" lon="12.1948817"><ele>212.0</ele><time>2026-04-17T12:39:40.61Z</time></trkpt><trkpt lat="42.71182" lon="12.19491"><ele>212.0</ele><time>2026-04-17T12:39:41.611Z</time></trkpt><trkpt lat="42.7117317" lon="12.1949483"><ele>212.00000000000003</ele><time>2026-04-17T12:39:42.611Z</time></trkpt><trkpt lat="42.7116367" lon="12.1949833"><ele>212.0</ele><time>2026-04-17T12:39:43.611Z</time></trkpt><trkpt lat="42.71154" lon="12.19502"><ele>211.75</ele><time>2026-04-17T12:39:44.611Z</time></trkpt><trkpt lat="42.7114333" lon="12.195065"><ele>211.5</ele><time>2026-04-17T12:39:45.61Z</time></trkpt><trkpt lat="42.71132" lon="12.19512"><ele>211.25</ele><time>2026-04-17T12:39:46.611Z</time></trkpt><trkpt lat="42.7112133" lon="12.1951833"><ele>211.0</ele><time>2026-04-17T12:39:47.611Z</time></trkpt><trkpt lat="42.71109" lon="12.1952417"><ele>209.25</ele><time>2026-04-17T12:39:48.611Z</time></trkpt><trkpt lat="42.7109633" lon="12.19529"><ele>207.5</ele><time>2026-04-17T12:39:49.61Z</time></trkpt><trkpt lat="42.7108417" lon="12.1953283"><ele>205.75</ele><time>2026-04-17T12:39:50.611Z</time></trkpt><trkpt lat="42.710725" lon="12.1953817"><ele>204.0</ele><time>2026-04-17T12:39:51.61Z</time></trkpt><trkpt lat="42.7106083" lon="12.1954367"><ele>204.0</ele><time>2026-04-17T12:39:52.611Z</time></trkpt><trkpt lat="42.7104917" lon="12.19549"><ele>204.0</ele><time>2026-04-17T12:39:53.611Z</time></trkpt><trkpt lat="42.71038" lon="12.1955433"><ele>204.0</ele><time>2026-04-17T12:39:54.61Z</time></trkpt><trkpt lat="42.7102833" lon="12.195595"><ele>204.0</ele><time>2026-04-17T12:39:55.611Z</time></trkpt><trkpt lat="42.7101883" lon="12.1956433"><ele>204.0</ele><time>2026-04-17T12:39:56.611Z</time></trkpt><trkpt lat="42.7100967" lon="12.195695"><ele>202.0</ele><time>2026-04-17T12:39:57.611Z</time></trkpt><trkpt lat="42.71" lon="12.195765"><ele>200.0</ele><time>2026-04-17T12:39:58.611Z</time></trkpt><trkpt lat="42.7099" lon="12.1958317"><ele>198.0</ele><time>2026-04-17T12:39:59.611Z</time></trkpt><trkpt lat="42.7097983" lon="12.1959"><ele>196.0</ele><time>2026-04-17T12:40:00.611Z</time></trkpt><trkpt lat="42.70969" lon="12.1959717"><ele>196.0</ele><time>2026-04-17T12:40:01.61Z</time></trkpt><trkpt lat="42.70958" lon="12.19605"><ele>196.0</ele><time>2026-04-17T12:40:02.61Z</time></trkpt><trkpt lat="42.7094767" lon="12.19612"><ele>196.0</ele><time>2026-04-17T12:40:03.611Z</time></trkpt><trkpt lat="42.7093817" lon="12.19618"><ele>196.0</ele><time>2026-04-17T12:40:04.611Z</time></trkpt><trkpt lat="42.7092917" lon="12.1962483"><ele>196.0</ele><time>2026-04-17T12:40:05.611Z</time></trkpt><trkpt lat="42.709215" lon="12.196325"><ele>196.4</ele><time>2026-04-17T12:40:06.611Z</time></trkpt><trkpt lat="42.7091467" lon="12.1964217"><ele>196.8</ele><time>2026-04-17T12:40:07.611Z</time></trkpt><trkpt lat="42.7090733" lon="12.1965317"><ele>197.20000000000002</ele><time>2026-04-17T12:40:08.611Z</time></trkpt><trkpt lat="42.708995" lon="12.1966367"><ele>197.60000000000002</ele><time>2026-04-17T12:40:09.61Z</time></trkpt><trkpt lat="42.7089117" lon="12.19673"><ele>198.0</ele><time>2026-04-17T12:40:10.611Z</time></trkpt><trkpt lat="42.708825" lon="12.1968"><ele>197.2</ele><time>2026-04-17T12:40:11.611Z</time></trkpt><trkpt lat="42.7087317" lon="12.196845"><ele>196.4</ele><time>2026-04-17T12:40:12.611Z</time></trkpt><trkpt lat="42.7086167" lon="12.19688"><ele>195.6</ele><time>2026-04-17T12:40:13.61Z</time></trkpt><trkpt lat="42.7085" lon="12.1969067"><ele>194.79999999999998</ele><time>2026-04-17T12:40:14.611Z</time></trkpt><trkpt lat="42.7083867" lon="12.1969233"><ele>194.0</ele><time>2026-04-17T12:40:15.611Z</time></trkpt><trkpt lat="42.7082867" lon="12.1969467"><ele>196.0</ele><time>2026-04-17T12:40:16.611Z</time></trkpt><trkpt lat="42.7081933" lon="12.196985"><ele>198.0</ele><time>2026-04-17T12:40:17.611Z</time></trkpt><trkpt lat="42.7081133" lon="12.1970317"><ele>200.0</ele><time>2026-04-17T12:40:18.611Z</time></trkpt><trkpt lat="42.7080317" lon="12.19711"><ele>202.0</ele><time>2026-04-17T12:40:19.611Z</time></trkpt><trkpt lat="42.7079483" lon="12.1972033"><ele>204.0</ele><time>2026-04-17T12:40:20.611Z</time></trkpt><trkpt lat="42.7078717" lon="12.1973067"><ele>203.0</ele><time>2026-04-17T12:40:21.611Z</time></trkpt><trkpt lat="42.7078033" lon="12.1974033"><ele>202.0</ele><time>2026-04-17T12:40:22.611Z</time></trkpt><trkpt lat="42.7077433" lon="12.1974883"><ele>201.0</ele><time>2026-04-17T12:40:23.611Z</time></trkpt><trkpt lat="42.707685" lon="12.197565"><ele>200.0</ele><time>2026-04-17T12:40:24.61Z</time></trkpt><trkpt lat="42.7076233" lon="12.197635"><ele>199.0</ele><time>2026-04-17T12:40:25.611Z</time></trkpt><trkpt lat="42.7075517" lon="12.1977083"><ele>198.0</ele><time>2026-04-17T12:40:26.611Z</time></trkpt><trkpt lat="42.7074567" lon="12.1977783"><ele>198.0</ele><time>2026-04-17T12:40:27.611Z</time></trkpt><trkpt lat="42.7073483" lon="12.1978367"><ele>198.0</ele><time>2026-04-17T12:40:28.611Z</time></trkpt><trkpt lat="42.7072317" lon="12.1978667"><ele>198.0</ele><time>2026-04-17T12:40:29.61Z</time></trkpt><trkpt lat="42.7071183" lon="12.1978683"><ele>198.0</ele><time>2026-04-17T12:40:30.611Z</time></trkpt><trkpt lat="42.7070283" lon="12.1978583"><ele>198.0</ele><time>2026-04-17T12:40:31.61Z</time></trkpt><trkpt lat="42.7069433" lon="12.1978233"><ele>196.2</ele><time>2026-04-17T12:40:32.611Z</time></trkpt><trkpt lat="42.7068717" lon="12.1977767"><ele>194.4</ele><time>2026-04-17T12:40:33.611Z</time></trkpt><trkpt lat="42.7067933" lon="12.1977067"><ele>192.6</ele><time>2026-04-17T12:40:34.611Z</time></trkpt><trkpt lat="42.7067233" lon="12.1976117"><ele>190.79999999999998</ele><time>2026-04-17T12:40:35.61Z</time></trkpt><trkpt lat="42.7066467" lon="12.1975033"><ele>189.0</ele><time>2026-04-17T12:40:36.611Z</time></trkpt><trkpt lat="42.706565" lon="12.197385"><ele>190.79999999999998</ele><time>2026-04-17T12:40:37.611Z</time></trkpt><trkpt lat="42.7064967" lon="12.1972767"><ele>192.6</ele><time>2026-04-17T12:40:38.61Z</time></trkpt><trkpt lat="42.7064383" lon="12.1971683"><ele>194.4</ele><time>2026-04-17T12:40:39.611Z</time></trkpt><trkpt lat="42.7063833" lon="12.1970667"><ele>196.2</ele><time>2026-04-17T12:40:40.61Z</time></trkpt><trkpt lat="42.706325" lon="12.1969917"><ele>198.0</ele><time>2026-04-17T12:40:41.611Z</time></trkpt><trkpt lat="42.7062567" lon="12.1969367"><ele>198.0</ele><time>2026-04-17T12:40:42.61Z</time></trkpt><trkpt lat="42.7061717" lon="12.1969067"><ele>198.0</ele><time>2026-04-17T12:40:43.611Z</time></trkpt><trkpt lat="42.7060783" lon="12.1969033"><ele>198.0</ele><time>2026-04-17T12:40:44.61Z</time></trkpt><trkpt lat="42.70598" lon="12.1969167"><ele>198.0</ele><time>2026-04-17T12:40:45.611Z</time></trkpt><trkpt lat="42.7058817" lon="12.1969583"><ele>198.0</ele><time>2026-04-17T12:40:46.611Z</time></trkpt><trkpt lat="42.7058" lon="12.197015"><ele>195.2</ele><time>2026-04-17T12:40:47.611Z</time></trkpt><trkpt lat="42.70573" lon="12.19704"><ele>192.4</ele><time>2026-04-17T12:40:48.611Z</time></trkpt><trkpt lat="42.7056533" lon="12.1970317"><ele>189.6</ele><time>2026-04-17T12:40:49.61Z</time></trkpt><trkpt lat="42.7055617" lon="12.1970033"><ele>186.79999999999998</ele><time>2026-04-17T12:40:50.611Z</time></trkpt><trkpt lat="42.7054483" lon="12.19696"><ele>184.0</ele><time>2026-04-17T12:40:51.611Z</time></trkpt><trkpt lat="42.7053233" lon="12.1969133"><ele>181.25</ele><time>2026-04-17T12:40:52.611Z</time></trkpt><trkpt lat="42.7051933" lon="12.196865"><ele>178.5</ele><time>2026-04-17T12:40:53.61Z</time></trkpt><trkpt lat="42.705065" lon="12.1968217"><ele>175.75</ele><time>2026-04-17T12:40:54.611Z</time></trkpt><trkpt lat="42.7049417" lon="12.19678"><ele>173.0</ele><time>2026-04-17T12:40:55.611Z</time></trkpt><trkpt lat="42.70482" lon="12.1967467"><ele>173.0</ele><time>2026-04-17T12:40:56.611Z</time></trkpt><trkpt lat="42.7047017" lon="12.19672"><ele>173.0</ele><time>2026-04-17T12:40:57.61Z</time></trkpt><trkpt lat="42.7045867" lon="12.1967017"><ele>173.0</ele><time>2026-04-17T12:40:58.61Z</time></trkpt><trkpt lat="42.7044667" lon="12.1966883"><ele>173.0</ele><time>2026-04-17T12:40:59.61Z</time></trkpt><trkpt lat="42.704345" lon="12.196675"><ele>171.2</ele><time>2026-04-17T12:41:00.609Z</time></trkpt><trkpt lat="42.7042233" lon="12.19669"><ele>169.4</ele><time>2026-04-17T12:41:01.61Z</time></trkpt><trkpt lat="42.7041117" lon="12.1967133"><ele>167.6</ele><time>2026-04-17T12:41:02.61Z</time></trkpt><trkpt lat="42.70401" lon="12.196735"><ele>165.79999999999998</ele><time>2026-04-17T12:41:03.61Z</time></trkpt><trkpt lat="42.7039117" lon="12.1967567"><ele>164.0</ele><time>2026-04-17T12:41:04.61Z</time></trkpt><trkpt lat="42.70381" lon="12.1967917"><ele>164.0</ele><time>2026-04-17T12:41:05.61Z</time></trkpt><trkpt lat="42.7037067" lon="12.19684"><ele>164.0</ele><time>2026-04-17T12:41:06.609Z</time></trkpt><trkpt lat="42.703605" lon="12.1969017"><ele>164.0</ele><time>2026-04-17T12:41:07.61Z</time></trkpt><trkpt lat="42.7035083" lon="12.1969867"><ele>164.0</ele><time>2026-04-17T12:41:08.61Z</time></trkpt><trkpt lat="42.7034117" lon="12.197095"><ele>162.25</ele><time>2026-04-17T12:41:09.61Z</time></trkpt><trkpt lat="42.703315" lon="12.1972117"><ele>160.5</ele><time>2026-04-17T12:41:10.61Z</time></trkpt><trkpt lat="42.7032283" lon="12.1973333"><ele>158.75</ele><time>2026-04-17T12:41:11.61Z</time></trkpt><trkpt lat="42.703145" lon="12.1974617"><ele>157.0</ele><time>2026-04-17T12:41:12.61Z</time></trkpt><trkpt lat="42.7030717" lon="12.197585"><ele>155.25</ele><time>2026-04-17T12:41:13.61Z</time></trkpt><trkpt lat="42.7029983" lon="12.1977033"><ele>153.5</ele><time>2026-04-17T12:41:14.61Z</time></trkpt><trkpt lat="42.7029133" lon="12.197815"><ele>151.75</ele><time>2026-04-17T12:41:15.61Z</time></trkpt><trkpt lat="42.70283" lon="12.19792"><ele>150.0</ele><time>2026-04-17T12:41:16.609Z</time></trkpt><trkpt lat="42.7027417" lon="12.1980133"><ele>150.0</ele><time>2026-04-17T12:41:17.61Z</time></trkpt><trkpt lat="42.702655" lon="12.1981"><ele>150.0</ele><time>2026-04-17T12:41:18.609Z</time></trkpt><trkpt lat="42.7025617" lon="12.1981783"><ele>150.0</ele><time>2026-04-17T12:41:19.61Z</time></trkpt><trkpt lat="42.7024767" lon="12.198245"><ele>150.0</ele><time>2026-04-17T12:41:20.61Z</time></trkpt><trkpt lat="42.7023817" lon="12.1983067"><ele>150.0</ele><time>2026-04-17T12:41:21.61Z</time></trkpt><trkpt lat="42.7022833" lon="12.1983667"><ele>148.2</ele><time>2026-04-17T12:41:22.61Z</time></trkpt><trkpt lat="42.7021817" lon="12.1984233"><ele>146.4</ele><time>2026-04-17T12:41:23.61Z</time></trkpt><trkpt lat="42.702075" lon="12.1984833"><ele>144.6</ele><time>2026-04-17T12:41:24.61Z</time></trkpt><trkpt lat="42.7019683" lon="12.1985283"><ele>142.8</ele><time>2026-04-17T12:41:25.61Z</time></trkpt><trkpt lat="42.701865" lon="12.1985883"><ele>141.0</ele><time>2026-04-17T12:41:26.609Z</time></trkpt><trkpt lat="42.701755" lon="12.19865"><ele>140.0</ele><time>2026-04-17T12:41:27.609Z</time></trkpt><trkpt lat="42.70164" lon="12.1987067"><ele>139.0</ele><time>2026-04-17T12:41:28.61Z</time></trkpt><trkpt lat="42.7015283" lon="12.19876"><ele>138.0</ele><time>2026-04-17T12:41:29.61Z</time></trkpt><trkpt lat="42.7014233" lon="12.19881"><ele>137.0</ele><time>2026-04-17T12:41:30.609Z</time></trkpt><trkpt lat="42.7013267" lon="12.1988633"><ele>137.0</ele><time>2026-04-17T12:41:31.61Z</time></trkpt><trkpt lat="42.70124" lon="12.1989217"><ele>137.0</ele><time>2026-04-17T12:41:32.61Z</time></trkpt><trkpt lat="42.7011733" lon="12.19899"><ele>137.0</ele><time>2026-04-17T12:41:33.61Z</time></trkpt><trkpt lat="42.7011133" lon="12.1990883"><ele>137.0</ele><time>2026-04-17T12:41:34.61Z</time></trkpt><trkpt lat="42.70106" lon="12.199205"><ele>137.0</ele><time>2026-04-17T12:41:35.61Z</time></trkpt><trkpt lat="42.700995" lon="12.1993367"><ele>134.0</ele><time>2026-04-17T12:41:36.61Z</time></trkpt><trkpt lat="42.7009267" lon="12.1994667"><ele>131.0</ele><time>2026-04-17T12:41:37.61Z</time></trkpt><trkpt lat="42.700855" lon="12.1995683"><ele>128.0</ele><time>2026-04-17T12:41:38.61Z</time></trkpt><trkpt lat="42.7007683" lon="12.1996667"><ele>125.0</ele><time>2026-04-17T12:41:39.61Z</time></trkpt><trkpt lat="42.7006617" lon="12.1997583"><ele>124.0</ele><time>2026-04-17T12:41:40.609Z</time></trkpt><trkpt lat="42.7005617" lon="12.19985"><ele>123.0</ele><time>2026-04-17T12:41:41.61Z</time></trkpt><trkpt lat="42.7004733" lon="12.1999267"><ele>122.0</ele><time>2026-04-17T12:41:42.61Z</time></trkpt><trkpt lat="42.7003983" lon="12.199995"><ele>121.0</ele><time>2026-04-17T12:41:43.61Z</time></trkpt><trkpt lat="42.7003333" lon="12.2000417"><ele>120.0</ele><time>2026-04-17T12:41:44.61Z</time></trkpt><trkpt lat="42.7002617" lon="12.2000433"><ele>119.33333333333333</ele><time>2026-04-17T12:41:45.609Z</time></trkpt><trkpt lat="42.700195" lon="12.2000217"><ele>118.66666666666666</ele><time>2026-04-17T12:41:46.61Z</time></trkpt><trkpt lat="42.7001317" lon="12.1999783"><ele>118.0</ele><time>2026-04-17T12:41:47.609Z</time></trkpt><trkpt lat="42.7000733" lon="12.1999333"><ele>117.33333333333333</ele><time>2026-04-17T12:41:48.61Z</time></trkpt><trkpt lat="42.7000017" lon="12.1998383"><ele>116.66666666666666</ele><time>2026-04-17T12:41:50.61Z</time></trkpt><trkpt lat="42.6999283" lon="12.199795"><ele>116.0</ele><time>2026-04-17T12:41:53.609Z</time></trkpt><trkpt lat="42.6998933" lon="12.1998967"><ele>113.8</ele><time>2026-04-17T12:41:56.61Z</time></trkpt><trkpt lat="42.6999433" lon="12.200025"><ele>111.6</ele><time>2026-04-17T12:41:58.61Z</time></trkpt><trkpt lat="42.6999967" lon="12.20012"><ele>109.4</ele><time>2026-04-17T12:41:59.61Z</time></trkpt><trkpt lat="42.7000533" lon="12.2002433"><ele>107.2</ele><time>2026-04-17T12:42:00.61Z</time></trkpt><trkpt lat="42.7000967" lon="12.2003817"><ele>105.0</ele><time>2026-04-17T12:42:01.61Z</time></trkpt><trkpt lat="42.7001317" lon="12.2005567"><ele>104.0</ele><time>2026-04-17T12:42:02.61Z</time></trkpt><trkpt lat="42.7001517" lon="12.20075"><ele>103.0</ele><time>2026-04-17T12:42:03.61Z</time></trkpt><trkpt lat="42.7001717" lon="12.2009433"><ele>102.0</ele><time>2026-04-17T12:42:04.61Z</time></trkpt><trkpt lat="42.7001917" lon="12.201135"><ele>101.0</ele><time>2026-04-17T12:42:05.61Z</time></trkpt><trkpt lat="42.7002067" lon="12.201315"><ele>100.0</ele><time>2026-04-17T12:42:06.609Z</time></trkpt><trkpt lat="42.7002267" lon="12.2015067"><ele>99.0</ele><time>2026-04-17T12:42:07.61Z</time></trkpt><trkpt lat="42.7002483" lon="12.2017117"><ele>98.0</ele><time>2026-04-17T12:42:08.609Z</time></trkpt><trkpt lat="42.7002717" lon="12.2019217"><ele>103.0</ele><time>2026-04-17T12:42:09.61Z</time></trkpt><trkpt lat="42.7002867" lon="12.2021317"><ele>108.0</ele><time>2026-04-17T12:42:10.61Z</time></trkpt><trkpt lat="42.7003067" lon="12.2023433"><ele>113.0</ele><time>2026-04-17T12:42:11.61Z</time></trkpt><trkpt lat="42.7003283" lon="12.2025367"><ele>113.0</ele><time>2026-04-17T12:42:12.61Z</time></trkpt><trkpt lat="42.70035" lon="12.20272"><ele>113.0</ele><time>2026-04-17T12:42:13.61Z</time></trkpt><trkpt lat="42.7003717" lon="12.2029017"><ele>113.0</ele><time>2026-04-17T12:42:14.61Z</time></trkpt><trkpt lat="42.70039" lon="12.2030917"><ele>113.0</ele><time>2026-04-17T12:42:15.61Z</time></trkpt><trkpt lat="42.70041" lon="12.20327"><ele>111.25</ele><time>2026-04-17T12:42:16.609Z</time></trkpt><trkpt lat="42.70043" lon="12.20344"><ele>109.5</ele><time>2026-04-17T12:42:17.609Z</time></trkpt><trkpt lat="42.7004483" lon="12.2036017"><ele>107.75</ele><time>2026-04-17T12:42:18.61Z</time></trkpt><trkpt lat="42.7004633" lon="12.2037667"><ele>106.0</ele><time>2026-04-17T12:42:19.609Z</time></trkpt><trkpt lat="42.7004833" lon="12.2039367"><ele>105.0</ele><time>2026-04-17T12:42:20.609Z</time></trkpt><trkpt lat="42.7005033" lon="12.2041133"><ele>104.0</ele><time>2026-04-17T12:42:21.61Z</time></trkpt><trkpt lat="42.7005267" lon="12.204295"><ele>103.0</ele><time>2026-04-17T12:42:22.609Z</time></trkpt><trkpt lat="42.700545" lon="12.20448"><ele>102.0</ele><time>2026-04-17T12:42:23.61Z</time></trkpt><trkpt lat="42.7005683" lon="12.2046667"><ele>102.25</ele><time>2026-04-17T12:42:24.61Z</time></trkpt><trkpt lat="42.70059" lon="12.2048483"><ele>102.5</ele><time>2026-04-17T12:42:25.61Z</time></trkpt><trkpt lat="42.7006117" lon="12.20504"><ele>102.75</ele><time>2026-04-17T12:42:26.609Z</time></trkpt><trkpt lat="42.7006283" lon="12.205225"><ele>103.0</ele><time>2026-04-17T12:42:27.609Z</time></trkpt><trkpt lat="42.7006517" lon="12.2054083"><ele>103.0</ele><time>2026-04-17T12:42:28.61Z</time></trkpt><trkpt lat="42.700685" lon="12.20559"><ele>103.0</ele><time>2026-04-17T12:42:29.61Z</time></trkpt><trkpt lat="42.7007217" lon="12.2057683"><ele>103.0</ele><time>2026-04-17T12:42:30.609Z</time></trkpt><trkpt lat="42.7007533" lon="12.2059433"><ele>103.0</ele><time>2026-04-17T12:42:31.61Z</time></trkpt><trkpt lat="42.70078" lon="12.2061133"><ele>103.0</ele><time>2026-04-17T12:42:32.609Z</time></trkpt><trkpt lat="42.7008167" lon="12.206265"><ele>103.0</ele><time>2026-04-17T12:42:33.609Z</time></trkpt><trkpt lat="42.7008517" lon="12.2064133"><ele>103.0</ele><time>2026-04-17T12:42:34.61Z</time></trkpt><trkpt lat="42.7008833" lon="12.2065483"><ele>103.0</ele><time>2026-04-17T12:42:35.61Z</time></trkpt><trkpt lat="42.70091" lon="12.2066767"><ele>103.0</ele><time>2026-04-17T12:42:36.61Z</time></trkpt><trkpt lat="42.70092" lon="12.2067917"><ele>103.4</ele><time>2026-04-17T12:42:37.61Z</time></trkpt><trkpt lat="42.7009117" lon="12.20692"><ele>103.80000000000001</ele><time>2026-04-17T12:42:38.609Z</time></trkpt><trkpt lat="42.7008817" lon="12.2070617"><ele>104.2</ele><time>2026-04-17T12:42:39.61Z</time></trkpt><trkpt lat="42.7008433" lon="12.20721"><ele>104.6</ele><time>2026-04-17T12:42:40.61Z</time></trkpt><trkpt lat="42.700805" lon="12.2073667"><ele>105.0</ele><time>2026-04-17T12:42:41.61Z</time></trkpt><trkpt lat="42.7007767" lon="12.207535"><ele>105.25</ele><time>2026-04-17T12:42:42.61Z</time></trkpt><trkpt lat="42.7007617" lon="12.2077217"><ele>105.5</ele><time>2026-04-17T12:42:43.609Z</time></trkpt><trkpt lat="42.700755" lon="12.2079"><ele>105.75</ele><time>2026-04-17T12:42:44.609Z</time></trkpt><trkpt lat="42.7007517" lon="12.208075"><ele>106.0</ele><time>2026-04-17T12:42:45.61Z</time></trkpt><trkpt lat="42.70075" lon="12.2082533"><ele>106.0</ele><time>2026-04-17T12:42:46.61Z</time></trkpt><trkpt lat="42.700745" lon="12.20843"><ele>106.0</ele><time>2026-04-17T12:42:47.61Z</time></trkpt><trkpt lat="42.7007367" lon="12.2086017"><ele>106.0</ele><time>2026-04-17T12:42:48.61Z</time></trkpt><trkpt lat="42.700725" lon="12.2087717"><ele>106.0</ele><time>2026-04-17T12:42:49.61Z</time></trkpt><trkpt lat="42.70072" lon="12.2089283"><ele>106.25</ele><time>2026-04-17T12:42:50.61Z</time></trkpt><trkpt lat="42.7007317" lon="12.2090883"><ele>106.5</ele><time>2026-04-17T12:42:51.61Z</time></trkpt><trkpt lat="42.7007633" lon="12.2092517"><ele>106.75</ele><time>2026-04-17T12:42:52.61Z</time></trkpt><trkpt lat="42.7007983" lon="12.209405"><ele>107.0</ele><time>2026-04-17T12:42:53.609Z</time></trkpt><trkpt lat="42.7008417" lon="12.2095583"><ele>107.0</ele><time>2026-04-17T12:42:54.61Z</time></trkpt><trkpt lat="42.7008917" lon="12.2097183"><ele>107.0</ele><time>2026-04-17T12:42:55.609Z</time></trkpt><trkpt lat="42.7009383" lon="12.2098867"><ele>107.0</ele><time>2026-04-17T12:42:56.609Z</time></trkpt><trkpt lat="42.7009867" lon="12.2100567"><ele>107.0</ele><time>2026-04-17T12:42:57.61Z</time></trkpt><trkpt lat="42.7010333" lon="12.2102317"><ele>107.0</ele><time>2026-04-17T12:42:58.609Z</time></trkpt><trkpt lat="42.7010767" lon="12.2103967"><ele>107.0</ele><time>2026-04-17T12:42:59.61Z</time></trkpt><trkpt lat="42.7011217" lon="12.21056"><ele>107.0</ele><time>2026-04-17T12:43:00.61Z</time></trkpt><trkpt lat="42.701165" lon="12.2107117"><ele>107.0</ele><time>2026-04-17T12:43:01.61Z</time></trkpt><trkpt lat="42.7012" lon="12.210855"><ele>107.25</ele><time>2026-04-17T12:43:02.61Z</time></trkpt><trkpt lat="42.701235" lon="12.2110017"><ele>107.5</ele><time>2026-04-17T12:43:03.61Z</time></trkpt><trkpt lat="42.701265" lon="12.2111633"><ele>107.75</ele><time>2026-04-17T12:43:04.61Z</time></trkpt><trkpt lat="42.70129" lon="12.21133"><ele>108.0</ele><time>2026-04-17T12:43:05.61Z</time></trkpt><trkpt lat="42.7013067" lon="12.2115133"><ele>109.0</ele><time>2026-04-17T12:43:06.609Z</time></trkpt><trkpt lat="42.70133" lon="12.21171"><ele>110.0</ele><time>2026-04-17T12:43:07.61Z</time></trkpt><trkpt lat="42.70135" lon="12.211905"><ele>111.0</ele><time>2026-04-17T12:43:08.609Z</time></trkpt><trkpt lat="42.70137" lon="12.2121083"><ele>112.0</ele><time>2026-04-17T12:43:09.61Z</time></trkpt><trkpt lat="42.7013917" lon="12.212315"><ele>112.0</ele><time>2026-04-17T12:43:10.61Z</time></trkpt><trkpt lat="42.7014083" lon="12.2125267"><ele>112.0</ele><time>2026-04-17T12:43:11.61Z</time></trkpt><trkpt lat="42.701425" lon="12.21274"><ele>112.0</ele><time>2026-04-17T12:43:12.61Z</time></trkpt><trkpt lat="42.7014467" lon="12.212955"><ele>111.66666666666667</ele><time>2026-04-17T12:43:13.61Z</time></trkpt><trkpt lat="42.70147" lon="12.2131683"><ele>111.33333333333334</ele><time>2026-04-17T12:43:14.61Z</time></trkpt><trkpt lat="42.70149" lon="12.21338"><ele>111.0</ele><time>2026-04-17T12:43:15.61Z</time></trkpt><trkpt lat="42.7015083" lon="12.2135817"><ele>111.0</ele><time>2026-04-17T12:43:16.61Z</time></trkpt><trkpt lat="42.701525" lon="12.2137867"><ele>111.0</ele><time>2026-04-17T12:43:17.609Z</time></trkpt><trkpt lat="42.7015433" lon="12.21398"><ele>111.0</ele><time>2026-04-17T12:43:18.61Z</time></trkpt><trkpt lat="42.7015633" lon="12.2141617"><ele>111.0</ele><time>2026-04-17T12:43:19.61Z</time></trkpt><trkpt lat="42.7015817" lon="12.2143383"><ele>111.0</ele><time>2026-04-17T12:43:20.61Z</time></trkpt><trkpt lat="42.7016017" lon="12.214515"><ele>111.0</ele><time>2026-04-17T12:43:21.61Z</time></trkpt><trkpt lat="42.7016183" lon="12.2146933"><ele>111.0</ele><time>2026-04-17T12:43:22.609Z</time></trkpt><trkpt lat="42.701635" lon="12.2148717"><ele>111.0</ele><time>2026-04-17T12:43:23.61Z</time></trkpt><trkpt lat="42.70165" lon="12.2150533"><ele>111.0</ele><time>2026-04-17T12:43:24.609Z</time></trkpt><trkpt lat="42.7016667" lon="12.2152467"><ele>111.0</ele><time>2026-04-17T12:43:25.61Z</time></trkpt><trkpt lat="42.70168" lon="12.21544"><ele>111.0</ele><time>2026-04-17T12:43:26.609Z</time></trkpt><trkpt lat="42.701695" lon="12.21563"><ele>111.0</ele><time>2026-04-17T12:43:27.61Z</time></trkpt><trkpt lat="42.7017183" lon="12.2158217"><ele>110.5</ele><time>2026-04-17T12:43:28.61Z</time></trkpt><trkpt lat="42.7017417" lon="12.21602"><ele>110.0</ele><time>2026-04-17T12:43:29.61Z</time></trkpt><trkpt lat="42.7017617" lon="12.2162267"><ele>109.5</ele><time>2026-04-17T12:43:30.609Z</time></trkpt><trkpt lat="42.7017783" lon="12.2164267"><ele>109.0</ele><time>2026-04-17T12:43:31.609Z</time></trkpt><trkpt lat="42.7018" lon="12.216635"><ele>108.66666666666667</ele><time>2026-04-17T12:43:32.609Z</time></trkpt><trkpt lat="42.701815" lon="12.2168517"><ele>108.33333333333334</ele><time>2026-04-17T12:43:33.609Z</time></trkpt><trkpt lat="42.7018317" lon="12.217065"><ele>108.0</ele><time>2026-04-17T12:43:34.609Z</time></trkpt><trkpt lat="42.7018517" lon="12.2172767"><ele>107.75</ele><time>2026-04-17T12:43:35.61Z</time></trkpt><trkpt lat="42.7018717" lon="12.2174833"><ele>107.5</ele><time>2026-04-17T12:43:36.61Z</time></trkpt><trkpt lat="42.7018883" lon="12.217685"><ele>107.25</ele><time>2026-04-17T12:43:37.609Z</time></trkpt><trkpt lat="42.7019033" lon="12.217875"><ele>107.0</ele><time>2026-04-17T12:43:38.609Z</time></trkpt><trkpt lat="42.70192" lon="12.2180583"><ele>108.25</ele><time>2026-04-17T12:43:39.61Z</time></trkpt><trkpt lat="42.7019383" lon="12.2182433"><ele>109.5</ele><time>2026-04-17T12:43:40.609Z</time></trkpt><trkpt lat="42.7019517" lon="12.218415"><ele>110.75</ele><time>2026-04-17T12:43:41.61Z</time></trkpt><trkpt lat="42.7019683" lon="12.2185933"><ele>112.0</ele><time>2026-04-17T12:43:42.61Z</time></trkpt><trkpt lat="42.7019817" lon="12.2187667"><ele>112.0</ele><time>2026-04-17T12:43:43.61Z</time></trkpt><trkpt lat="42.7020017" lon="12.2189483"><ele>112.0</ele><time>2026-04-17T12:43:44.61Z</time></trkpt><trkpt lat="42.7020217" lon="12.2191317"><ele>112.0</ele><time>2026-04-17T12:43:45.609Z</time></trkpt><trkpt lat="42.7020383" lon="12.2193233"><ele>112.0</ele><time>2026-04-17T12:43:46.61Z</time></trkpt><trkpt lat="42.7020583" lon="12.2195167"><ele>112.66666666666667</ele><time>2026-04-17T12:43:47.61Z</time></trkpt><trkpt lat="42.7020733" lon="12.21972"><ele>113.33333333333334</ele><time>2026-04-17T12:43:48.609Z</time></trkpt><trkpt lat="42.7020933" lon="12.2199483"><ele>114.0</ele><time>2026-04-17T12:43:49.61Z</time></trkpt><trkpt lat="42.7021167" lon="12.2201933"><ele>114.0</ele><time>2026-04-17T12:43:50.61Z</time></trkpt><trkpt lat="42.702135" lon="12.22045"><ele>114.0</ele><time>2026-04-17T12:43:51.61Z</time></trkpt><trkpt lat="42.7021567" lon="12.2207"><ele>114.0</ele><time>2026-04-17T12:43:52.61Z</time></trkpt><trkpt lat="42.70218" lon="12.2209283"><ele>114.25</ele><time>2026-04-17T12:43:53.609Z</time></trkpt><trkpt lat="42.7022017" lon="12.2211433"><ele>114.5</ele><time>2026-04-17T12:43:54.61Z</time></trkpt><trkpt lat="42.7022183" lon="12.221345"><ele>114.75</ele><time>2026-04-17T12:43:55.61Z</time></trkpt><trkpt lat="42.702235" lon="12.2215283"><ele>115.0</ele><time>2026-04-17T12:43:56.61Z</time></trkpt><trkpt lat="42.7022583" lon="12.2216967"><ele>114.5</ele><time>2026-04-17T12:43:57.609Z</time></trkpt><trkpt lat="42.702305" lon="12.2218683"><ele>114.0</ele><time>2026-04-17T12:43:58.61Z</time></trkpt><trkpt lat="42.7023583" lon="12.2220167"><ele>113.5</ele><time>2026-04-17T12:43:59.61Z</time></trkpt><trkpt lat="42.7024117" lon="12.2221583"><ele>113.0</ele><time>2026-04-17T12:44:00.61Z</time></trkpt><trkpt lat="42.70247" lon="12.2222983"><ele>112.60000000000001</ele><time>2026-04-17T12:44:01.61Z</time></trkpt><trkpt lat="42.7025233" lon="12.2224283"><ele>112.20000000000002</ele><time>2026-04-17T12:44:02.61Z</time></trkpt><trkpt lat="42.7025817" lon="12.2225633"><ele>111.8</ele><time>2026-04-17T12:44:03.61Z</time></trkpt><trkpt lat="42.7026367" lon="12.2226867"><ele>111.4</ele><time>2026-04-17T12:44:04.61Z</time></trkpt><trkpt lat="42.702695" lon="12.2228133"><ele>111.0</ele><time>2026-04-17T12:44:05.609Z</time></trkpt><trkpt lat="42.70275" lon="12.2229417"><ele>112.8</ele><time>2026-04-17T12:44:06.61Z</time></trkpt><trkpt lat="42.7028" lon="12.22307"><ele>114.6</ele><time>2026-04-17T12:44:07.61Z</time></trkpt><trkpt lat="42.7028283" lon="12.2232033"><ele>116.4</ele><time>2026-04-17T12:44:08.61Z</time></trkpt><trkpt lat="42.7028367" lon="12.2233333"><ele>118.2</ele><time>2026-04-17T12:44:09.609Z</time></trkpt><trkpt lat="42.702825" lon="12.2234767"><ele>120.0</ele><time>2026-04-17T12:44:10.61Z</time></trkpt><trkpt lat="42.7027967" lon="12.2236417"><ele>120.0</ele><time>2026-04-17T12:44:11.61Z</time></trkpt><trkpt lat="42.7027667" lon="12.2238167"><ele>120.0</ele><time>2026-04-17T12:44:12.61Z</time></trkpt><trkpt lat="42.7027267" lon="12.2239733"><ele>120.0</ele><time>2026-04-17T12:44:13.61Z</time></trkpt><trkpt lat="42.7027083" lon="12.2241017"><ele>120.0</ele><time>2026-04-17T12:44:14.61Z</time></trkpt><trkpt lat="42.7026967" lon="12.22423"><ele>120.0</ele><time>2026-04-17T12:44:15.61Z</time></trkpt><trkpt lat="42.702705" lon="12.2243567"><ele>118.66666666666667</ele><time>2026-04-17T12:44:16.609Z</time></trkpt><trkpt lat="42.7027217" lon="12.2244733"><ele>117.33333333333334</ele><time>2026-04-17T12:44:17.61Z</time></trkpt><trkpt lat="42.7027367" lon="12.224565"><ele>116.0</ele><time>2026-04-17T12:44:18.61Z</time></trkpt><trkpt lat="42.702745" lon="12.2247017"><ele>114.66666666666667</ele><time>2026-04-17T12:44:20.609Z</time></trkpt><trkpt lat="42.702705" lon="12.2248417"><ele>113.33333333333334</ele><time>2026-04-17T12:44:22.61Z</time></trkpt><trkpt lat="42.702685" lon="12.2249317"><ele>112.0</ele><time>2026-04-17T12:44:23.61Z</time></trkpt><trkpt lat="42.702685" lon="12.2250233"><ele>111.6</ele><time>2026-04-17T12:44:24.61Z</time></trkpt><trkpt lat="42.7027133" lon="12.2251283"><ele>111.19999999999999</ele><time>2026-04-17T12:44:25.609Z</time></trkpt><trkpt lat="42.7027567" lon="12.2252433"><ele>110.8</ele><time>2026-04-17T12:44:26.609Z</time></trkpt><trkpt lat="42.7028133" lon="12.2253733"><ele>110.4</ele><time>2026-04-17T12:44:27.61Z</time></trkpt><trkpt lat="42.70288" lon="12.2255133"><ele>110.0</ele><time>2026-04-17T12:44:28.61Z</time></trkpt><trkpt lat="42.7029483" lon="12.22564"><ele>110.83333333333333</ele><time>2026-04-17T12:44:29.61Z</time></trkpt><trkpt lat="42.70301" lon="12.2257533"><ele>111.66666666666666</ele><time>2026-04-17T12:44:30.61Z</time></trkpt><trkpt lat="42.7030683" lon="12.2258533"><ele>112.5</ele><time>2026-04-17T12:44:31.609Z</time></trkpt><trkpt lat="42.7031217" lon="12.2259467"><ele>113.33333333333334</ele><time>2026-04-17T12:44:32.609Z</time></trkpt><trkpt lat="42.70317" lon="12.22603"><ele>114.16666666666667</ele><time>2026-04-17T12:44:33.61Z</time></trkpt><trkpt lat="42.7032117" lon="12.2261233"><ele>115.0</ele><time>2026-04-17T12:44:34.609Z</time></trkpt><trkpt lat="42.7032167" lon="12.2262167"><ele>114.99999999999999</ele><time>2026-04-17T12:44:35.61Z</time></trkpt><trkpt lat="42.7031983" lon="12.2263217"><ele>115.0</ele><time>2026-04-17T12:44:36.61Z</time></trkpt><trkpt lat="42.70317" lon="12.2264233"><ele>114.99999999999999</ele><time>2026-04-17T12:44:37.609Z</time></trkpt><trkpt lat="42.703145" lon="12.2265167"><ele>114.99999999999999</ele><time>2026-04-17T12:44:38.609Z</time></trkpt><trkpt lat="42.70311" lon="12.2266"><ele>115.0</ele><time>2026-04-17T12:44:39.609Z</time></trkpt><trkpt lat="42.7030717" lon="12.226675"><ele>114.99999999999999</ele><time>2026-04-17T12:44:40.61Z</time></trkpt><trkpt lat="42.70305" lon="12.2267667"><ele>114.99999999999999</ele><time>2026-04-17T12:44:41.61Z</time></trkpt><trkpt lat="42.7030283" lon="12.2268767"><ele>114.4</ele><time>2026-04-17T12:44:42.61Z</time></trkpt><trkpt lat="42.70303" lon="12.2270033"><ele>113.8</ele><time>2026-04-17T12:44:43.609Z</time></trkpt><trkpt lat="42.703035" lon="12.2271367"><ele>113.19999999999999</ele><time>2026-04-17T12:44:44.61Z</time></trkpt><trkpt lat="42.7030617" lon="12.2272767"><ele>112.6</ele><time>2026-04-17T12:44:45.61Z</time></trkpt><trkpt lat="42.703095" lon="12.227425"><ele>112.0</ele><time>2026-04-17T12:44:46.61Z</time></trkpt><trkpt lat="42.7031483" lon="12.2275583"><ele>111.50000000000001</ele><time>2026-04-17T12:44:47.61Z</time></trkpt><trkpt lat="42.703205" lon="12.2276883"><ele>111.0</ele><time>2026-04-17T12:44:48.61Z</time></trkpt><trkpt lat="42.703255" lon="12.2277983"><ele>110.5</ele><time>2026-04-17T12:44:49.61Z</time></trkpt><trkpt lat="42.703295" lon="12.2279"><ele>110.0</ele><time>2026-04-17T12:44:50.609Z</time></trkpt><trkpt lat="42.7033167" lon="12.228"><ele>109.50000000000001</ele><time>2026-04-17T12:44:51.61Z</time></trkpt><trkpt lat="42.7033133" lon="12.2280883"><ele>109.0</ele><time>2026-04-17T12:44:52.61Z</time></trkpt><trkpt lat="42.7032333" lon="12.2281917"><ele>107.4</ele><time>2026-04-17T12:44:54.609Z</time></trkpt><trkpt lat="42.7031017" lon="12.2282167"><ele>105.80000000000001</ele><time>2026-04-17T12:44:56.61Z</time></trkpt><trkpt lat="42.7030133" lon="12.228205"><ele>104.19999999999999</ele><time>2026-04-17T12:44:57.61Z</time></trkpt><trkpt lat="42.7029233" lon="12.2281817"><ele>102.6</ele><time>2026-04-17T12:44:58.609Z</time></trkpt><trkpt lat="42.7028317" lon="12.22815"><ele>101.0</ele><time>2026-04-17T12:44:59.61Z</time></trkpt><trkpt lat="42.7027283" lon="12.2281433"><ele>100.19999999999999</ele><time>2026-04-17T12:45:01.61Z</time></trkpt><trkpt lat="42.7026617" lon="12.228125"><ele>99.39999999999999</ele><time>2026-04-17T12:45:03.609Z</time></trkpt><trkpt lat="42.70258" lon="12.2281067"><ele>98.6</ele><time>2026-04-17T12:45:05.609Z</time></trkpt><trkpt lat="42.7024433" lon="12.2280733"><ele>97.8</ele><time>2026-04-17T12:45:07.61Z</time></trkpt><trkpt lat="42.702355" lon="12.22805"><ele>97.0</ele><time>2026-04-17T12:45:08.61Z</time></trkpt><trkpt lat="42.7022633" lon="12.22802"><ele>97.0</ele><time>2026-04-17T12:45:09.609Z</time></trkpt><trkpt lat="42.7021783" lon="12.228015"><ele>97.0</ele><time>2026-04-17T12:45:10.61Z</time></trkpt><trkpt lat="42.7020867" lon="12.2280317"><ele>97.0</ele><time>2026-04-17T12:45:11.61Z</time></trkpt><trkpt lat="42.70199" lon="12.2280667"><ele>97.0</ele><time>2026-04-17T12:45:12.609Z</time></trkpt><trkpt lat="42.7018867" lon="12.2281283"><ele>97.0</ele><time>2026-04-17T12:45:13.61Z</time></trkpt><trkpt lat="42.701775" lon="12.2281933"><ele>99.0</ele><time>2026-04-17T12:45:14.61Z</time></trkpt><trkpt lat="42.70167" lon="12.2282533"><ele>101.0</ele><time>2026-04-17T12:45:15.61Z</time></trkpt><trkpt lat="42.7015667" lon="12.2283133"><ele>103.0</ele><time>2026-04-17T12:45:16.61Z</time></trkpt><trkpt lat="42.70146" lon="12.228375"><ele>105.0</ele><time>2026-04-17T12:45:17.61Z</time></trkpt><trkpt lat="42.701355" lon="12.2284317"><ele>105.0</ele><time>2026-04-17T12:45:18.61Z</time></trkpt><trkpt lat="42.701255" lon="12.2284833"><ele>105.0</ele><time>2026-04-17T12:45:19.61Z</time></trkpt><trkpt lat="42.701165" lon="12.22854"><ele>105.0</ele><time>2026-04-17T12:45:20.609Z</time></trkpt><trkpt lat="42.70107" lon="12.2286"><ele>105.0</ele><time>2026-04-17T12:45:21.609Z</time></trkpt><trkpt lat="42.700965" lon="12.2286517"><ele>105.0</ele><time>2026-04-17T12:45:22.61Z</time></trkpt><trkpt lat="42.7008517" lon="12.2286983"><ele>106.0</ele><time>2026-04-17T12:45:23.61Z</time></trkpt><trkpt lat="42.70072" lon="12.2287383"><ele>107.0</ele><time>2026-04-17T12:45:24.61Z</time></trkpt><trkpt lat="42.7005883" lon="12.2287733"><ele>108.0</ele><time>2026-04-17T12:45:25.61Z</time></trkpt><trkpt lat="42.7004567" lon="12.22881"><ele>109.0</ele><time>2026-04-17T12:45:26.61Z</time></trkpt><trkpt lat="42.7003283" lon="12.2288517"><ele>109.5</ele><time>2026-04-17T12:45:27.61Z</time></trkpt><trkpt lat="42.7002" lon="12.2288917"><ele>110.0</ele><time>2026-04-17T12:45:28.61Z</time></trkpt><trkpt lat="42.70007" lon="12.2289333"><ele>110.5</ele><time>2026-04-17T12:45:29.61Z</time></trkpt><trkpt lat="42.699945" lon="12.2289733"><ele>111.0</ele><time>2026-04-17T12:45:30.61Z</time></trkpt><trkpt lat="42.6998383" lon="12.2290117"><ele>111.5</ele><time>2026-04-17T12:45:31.61Z</time></trkpt><trkpt lat="42.69974" lon="12.2290567"><ele>112.0</ele><time>2026-04-17T12:45:32.61Z</time></trkpt><trkpt lat="42.699655" lon="12.2290917"><ele>112.5</ele><time>2026-04-17T12:45:33.61Z</time></trkpt><trkpt lat="42.6995867" lon="12.2291"><ele>113.0</ele><time>2026-04-17T12:45:34.61Z</time></trkpt><trkpt lat="42.6995217" lon="12.2290817"><ele>113.5</ele><time>2026-04-17T12:45:35.61Z</time></trkpt><trkpt lat="42.6994567" lon="12.229025"><ele>114.0</ele><time>2026-04-17T12:45:36.61Z</time></trkpt><trkpt lat="42.6994017" lon="12.22895"><ele>116.5</ele><time>2026-04-17T12:45:37.61Z</time></trkpt><trkpt lat="42.69936" lon="12.2288733"><ele>119.0</ele><time>2026-04-17T12:45:38.61Z</time></trkpt><trkpt lat="42.6993283" lon="12.228795"><ele>121.5</ele><time>2026-04-17T12:45:39.61Z</time></trkpt><trkpt lat="42.699265" lon="12.22864"><ele>124.0</ele><time>2026-04-17T12:45:41.61Z</time></trkpt><trkpt lat="42.69922" lon="12.22854"><ele>126.5</ele><time>2026-04-17T12:45:42.609Z</time></trkpt><trkpt lat="42.6991767" lon="12.22843"><ele>129.0</ele><time>2026-04-17T12:45:43.609Z</time></trkpt><trkpt lat="42.6991267" lon="12.2283083"><ele>129.0</ele><time>2026-04-17T12:45:44.609Z</time></trkpt><trkpt lat="42.6990833" lon="12.2281767"><ele>129.0</ele><time>2026-04-17T12:45:45.61Z</time></trkpt><trkpt lat="42.6990517" lon="12.228065"><ele>129.0</ele><time>2026-04-17T12:45:46.61Z</time></trkpt><trkpt lat="42.6990333" lon="12.22797"><ele>129.0</ele><time>2026-04-17T12:45:47.61Z</time></trkpt><trkpt lat="42.6990033" lon="12.2278483"><ele>129.0</ele><time>2026-04-17T12:45:49.61Z</time></trkpt><trkpt lat="42.698965" lon="12.2277783"><ele>129.0</ele><time>2026-04-17T12:45:51.61Z</time></trkpt><trkpt lat="42.6988883" lon="12.2277483"><ele>129.0</ele><time>2026-04-17T12:45:54.61Z</time></trkpt><trkpt lat="42.698835" lon="12.2278833"><ele>129.0</ele><time>2026-04-17T12:45:57.61Z</time></trkpt><trkpt lat="42.698835" lon="12.227995"><ele>129.0</ele><time>2026-04-17T12:45:58.61Z</time></trkpt><trkpt lat="42.69885" lon="12.2281483"><ele>129.0</ele><time>2026-04-17T12:45:59.61Z</time></trkpt><trkpt lat="42.6988883" lon="12.2283383"><ele>129.0</ele><time>2026-04-17T12:46:00.61Z</time></trkpt><trkpt lat="42.6989267" lon="12.2285383"><ele>129.0</ele><time>2026-04-17T12:46:01.61Z</time></trkpt><trkpt lat="42.6989433" lon="12.2287583"><ele>129.0</ele><time>2026-04-17T12:46:02.61Z</time></trkpt><trkpt lat="42.698955" lon="12.2290117"><ele>130.0</ele><time>2026-04-17T12:46:03.61Z</time></trkpt><trkpt lat="42.69895" lon="12.22924"><ele>131.0</ele><time>2026-04-17T12:46:04.609Z</time></trkpt><trkpt lat="42.6989433" lon="12.22944"><ele>132.0</ele><time>2026-04-17T12:46:05.61Z</time></trkpt><trkpt lat="42.698945" lon="12.2296133"><ele>133.0</ele><time>2026-04-17T12:46:06.609Z</time></trkpt><trkpt lat="42.69896" lon="12.22978"><ele>134.0</ele><time>2026-04-17T12:46:07.609Z</time></trkpt><trkpt lat="42.69899" lon="12.2299317"><ele>135.0</ele><time>2026-04-17T12:46:08.609Z</time></trkpt><trkpt lat="42.699045" lon="12.2300917"><ele>136.0</ele><time>2026-04-17T12:46:09.61Z</time></trkpt><trkpt lat="42.6990983" lon="12.230265"><ele>137.0</ele><time>2026-04-17T12:46:10.61Z</time></trkpt><trkpt lat="42.6991417" lon="12.2304533"><ele>139.33333333333331</ele><time>2026-04-17T12:46:11.609Z</time></trkpt><trkpt lat="42.6991833" lon="12.2306617"><ele>141.66666666666666</ele><time>2026-04-17T12:46:12.61Z</time></trkpt><trkpt lat="42.69921" lon="12.2308717"><ele>144.0</ele><time>2026-04-17T12:46:13.61Z</time></trkpt><trkpt lat="42.69922" lon="12.2310733"><ele>144.0</ele><time>2026-04-17T12:46:14.609Z</time></trkpt><trkpt lat="42.6992317" lon="12.2312567"><ele>144.0</ele><time>2026-04-17T12:46:15.61Z</time></trkpt><trkpt lat="42.6992433" lon="12.23142"><ele>144.0</ele><time>2026-04-17T12:46:16.61Z</time></trkpt><trkpt lat="42.6992367" lon="12.2315817"><ele>144.0</ele><time>2026-04-17T12:46:17.609Z</time></trkpt><trkpt lat="42.699215" lon="12.2317383"><ele>144.0</ele><time>2026-04-17T12:46:18.61Z</time></trkpt><trkpt lat="42.699165" lon="12.2319133"><ele>144.0</ele><time>2026-04-17T12:46:19.61Z</time></trkpt><trkpt lat="42.6990833" lon="12.2320917"><ele>144.0</ele><time>2026-04-17T12:46:20.61Z</time></trkpt><trkpt lat="42.6989767" lon="12.2322983"><ele>143.33333333333334</ele><time>2026-04-17T12:46:21.609Z</time></trkpt><trkpt lat="42.6988767" lon="12.2325283"><ele>142.66666666666669</ele><time>2026-04-17T12:46:22.61Z</time></trkpt><trkpt lat="42.6987667" lon="12.2327483"><ele>142.0</ele><time>2026-04-17T12:46:23.61Z</time></trkpt><trkpt lat="42.6986617" lon="12.2329517"><ele>145.33333333333334</ele><time>2026-04-17T12:46:24.609Z</time></trkpt><trkpt lat="42.6985583" lon="12.23313"><ele>148.66666666666666</ele><time>2026-04-17T12:46:25.61Z</time></trkpt><trkpt lat="42.6984583" lon="12.2332883"><ele>152.0</ele><time>2026-04-17T12:46:26.61Z</time></trkpt><trkpt lat="42.6983517" lon="12.2334233"><ele>152.0</ele><time>2026-04-17T12:46:27.61Z</time></trkpt><trkpt lat="42.6982683" lon="12.233565"><ele>152.0</ele><time>2026-04-17T12:46:28.61Z</time></trkpt><trkpt lat="42.6982033" lon="12.2337267"><ele>152.0</ele><time>2026-04-17T12:46:29.609Z</time></trkpt><trkpt lat="42.6981583" lon="12.2338983"><ele>152.0</ele><time>2026-04-17T12:46:30.61Z</time></trkpt><trkpt lat="42.698115" lon="12.234085"><ele>149.0</ele><time>2026-04-17T12:46:31.61Z</time></trkpt><trkpt lat="42.6980883" lon="12.2343017"><ele>146.0</ele><time>2026-04-17T12:46:32.61Z</time></trkpt><trkpt lat="42.6980617" lon="12.2345267"><ele>143.0</ele><time>2026-04-17T12:46:33.61Z</time></trkpt><trkpt lat="42.698035" lon="12.2347417"><ele>141.0</ele><time>2026-04-17T12:46:34.61Z</time></trkpt><trkpt lat="42.6980067" lon="12.2349433"><ele>139.0</ele><time>2026-04-17T12:46:35.61Z</time></trkpt><trkpt lat="42.6979833" lon="12.2351433"><ele>137.0</ele><time>2026-04-17T12:46:36.61Z</time></trkpt><trkpt lat="42.6979617" lon="12.2353383"><ele>135.0</ele><time>2026-04-17T12:46:37.609Z</time></trkpt><trkpt lat="42.6979267" lon="12.2355233"><ele>135.25</ele><time>2026-04-17T12:46:38.61Z</time></trkpt><trkpt lat="42.6979067" lon="12.2357167"><ele>135.5</ele><time>2026-04-17T12:46:39.61Z</time></trkpt><trkpt lat="42.697885" lon="12.2359017"><ele>135.75</ele><time>2026-04-17T12:46:40.61Z</time></trkpt><trkpt lat="42.6978733" lon="12.23608"><ele>136.0</ele><time>2026-04-17T12:46:41.61Z</time></trkpt><trkpt lat="42.6978633" lon="12.2362483"><ele>136.0</ele><time>2026-04-17T12:46:42.61Z</time></trkpt><trkpt lat="42.6978467" lon="12.2364233"><ele>136.0</ele><time>2026-04-17T12:46:43.61Z</time></trkpt><trkpt lat="42.6978517" lon="12.2366083"><ele>136.0</ele><time>2026-04-17T12:46:44.61Z</time></trkpt><trkpt lat="42.6978617" lon="12.2367917"><ele>136.0</ele><time>2026-04-17T12:46:45.61Z</time></trkpt><trkpt lat="42.6978717" lon="12.2369817"><ele>136.0</ele><time>2026-04-17T12:46:46.61Z</time></trkpt><trkpt lat="42.6978833" lon="12.237165"><ele>136.0</ele><time>2026-04-17T12:46:47.61Z</time></trkpt><trkpt lat="42.6978867" lon="12.2373383"><ele>136.0</ele><time>2026-04-17T12:46:48.609Z</time></trkpt><trkpt lat="42.69789" lon="12.2375117"><ele>136.0</ele><time>2026-04-17T12:46:49.61Z</time></trkpt><trkpt lat="42.6978933" lon="12.237685"><ele>136.0</ele><time>2026-04-17T12:46:50.609Z</time></trkpt><trkpt lat="42.6978983" lon="12.2378583"><ele>136.0</ele><time>2026-04-17T12:46:51.61Z</time></trkpt><trkpt lat="42.6979017" lon="12.2380233"><ele>136.0</ele><time>2026-04-17T12:46:52.61Z</time></trkpt><trkpt lat="42.6978917" lon="12.2381633"><ele>136.0</ele><time>2026-04-17T12:46:53.61Z</time></trkpt><trkpt lat="42.697875" lon="12.2382717"><ele>136.0</ele><time>2026-04-17T12:46:54.61Z</time></trkpt><trkpt lat="42.69784" lon="12.238415"><ele>136.2</ele><time>2026-04-17T12:46:56.609Z</time></trkpt><trkpt lat="42.6977767" lon="12.238545"><ele>136.39999999999998</ele><time>2026-04-17T12:46:58.609Z</time></trkpt><trkpt lat="42.69772" lon="12.23866"><ele>136.6</ele><time>2026-04-17T12:47:00.61Z</time></trkpt><trkpt lat="42.6976717" lon="12.2387767"><ele>136.79999999999998</ele><time>2026-04-17T12:47:02.61Z</time></trkpt><trkpt lat="42.6975683" lon="12.238855"><ele>137.0</ele><time>2026-04-17T12:47:04.609Z</time></trkpt><trkpt lat="42.6974933" lon="12.2388883"><ele>139.33333333333331</ele><time>2026-04-17T12:47:05.61Z</time></trkpt><trkpt lat="42.69742" lon="12.238905"><ele>141.66666666666666</ele><time>2026-04-17T12:47:06.61Z</time></trkpt><trkpt lat="42.6973433" lon="12.2388917"><ele>144.0</ele><time>2026-04-17T12:47:07.609Z</time></trkpt><trkpt lat="42.6972533" lon="12.23887"><ele>146.33333333333334</ele><time>2026-04-17T12:47:08.61Z</time></trkpt><trkpt lat="42.697165" lon="12.238855"><ele>148.66666666666669</ele><time>2026-04-17T12:47:09.609Z</time></trkpt><trkpt lat="42.6970867" lon="12.2388467"><ele>151.0</ele><time>2026-04-17T12:47:10.61Z</time></trkpt><trkpt lat="42.6970117" lon="12.238855"><ele>151.0</ele><time>2026-04-17T12:47:11.609Z</time></trkpt><trkpt lat="42.6969467" lon="12.2388833"><ele>151.0</ele><time>2026-04-17T12:47:12.61Z</time></trkpt><trkpt lat="42.6968467" lon="12.23898"><ele>151.0</ele><time>2026-04-17T12:47:14.609Z</time></trkpt><trkpt lat="42.6967933" lon="12.23904"><ele>151.0</ele><time>2026-04-17T12:47:15.61Z</time></trkpt><trkpt lat="42.6966717" lon="12.239095"><ele>151.0</ele><time>2026-04-17T12:47:17.61Z</time></trkpt><trkpt lat="42.6966067" lon="12.2390833"><ele>151.4</ele><time>2026-04-17T12:47:18.61Z</time></trkpt><trkpt lat="42.6965317" lon="12.2390467"><ele>151.8</ele><time>2026-04-17T12:47:19.61Z</time></trkpt><trkpt lat="42.6964533" lon="12.2389983"><ele>152.20000000000002</ele><time>2026-04-17T12:47:20.609Z</time></trkpt><trkpt lat="42.6963633" lon="12.238935"><ele>152.6</ele><time>2026-04-17T12:47:21.61Z</time></trkpt><trkpt lat="42.69626" lon="12.23887"><ele>153.0</ele><time>2026-04-17T12:47:22.61Z</time></trkpt><trkpt lat="42.696165" lon="12.2388233"><ele>153.0</ele><time>2026-04-17T12:47:23.609Z</time></trkpt><trkpt lat="42.6960733" lon="12.23877"><ele>153.0</ele><time>2026-04-17T12:47:24.61Z</time></trkpt><trkpt lat="42.6959917" lon="12.2387367"><ele>153.0</ele><time>2026-04-17T12:47:25.61Z</time></trkpt><trkpt lat="42.69592" lon="12.2387"><ele>153.0</ele><time>2026-04-17T12:47:26.61Z</time></trkpt><trkpt lat="42.6958617" lon="12.2386483"><ele>153.0</ele><time>2026-04-17T12:47:27.609Z</time></trkpt><trkpt lat="42.69581" lon="12.2385817"><ele>153.0</ele><time>2026-04-17T12:47:28.609Z</time></trkpt><trkpt lat="42.6957583" lon="12.2384983"><ele>153.0</ele><time>2026-04-17T12:47:29.61Z</time></trkpt><trkpt lat="42.6957117" lon="12.238405"><ele>153.0</ele><time>2026-04-17T12:47:30.61Z</time></trkpt><trkpt lat="42.6956767" lon="12.2382967"><ele>153.0</ele><time>2026-04-17T12:47:31.61Z</time></trkpt><trkpt lat="42.695645" lon="12.2381867"><ele>153.0</ele><time>2026-04-17T12:47:32.61Z</time></trkpt><trkpt lat="42.6956133" lon="12.2380817"><ele>153.0</ele><time>2026-04-17T12:47:33.61Z</time></trkpt><trkpt lat="42.69557" lon="12.2379783"><ele>153.0</ele><time>2026-04-17T12:47:34.61Z</time></trkpt><trkpt lat="42.6955267" lon="12.2378917"><ele>155.0</ele><time>2026-04-17T12:47:35.61Z</time></trkpt><trkpt lat="42.69548" lon="12.2378183"><ele>157.0</ele><time>2026-04-17T12:47:36.61Z</time></trkpt><trkpt lat="42.69543" lon="12.2377617"><ele>159.0</ele><time>2026-04-17T12:47:37.609Z</time></trkpt><trkpt lat="42.6953717" lon="12.2377283"><ele>161.0</ele><time>2026-04-17T12:47:38.609Z</time></trkpt><trkpt lat="42.695275" lon="12.2377467"><ele>163.0</ele><time>2026-04-17T12:47:40.61Z</time></trkpt><trkpt lat="42.6951983" lon="12.2378267"><ele>165.0</ele><time>2026-04-17T12:47:42.61Z</time></trkpt><trkpt lat="42.6951817" lon="12.2379767"><ele>165.0</ele><time>2026-04-17T12:47:44.609Z</time></trkpt><trkpt lat="42.6951717" lon="12.2381283"><ele>165.0</ele><time>2026-04-17T12:47:46.609Z</time></trkpt><trkpt lat="42.695065" lon="12.2382183"><ele>165.0</ele><time>2026-04-17T12:47:48.61Z</time></trkpt><trkpt lat="42.6949883" lon="12.2382417"><ele>165.0</ele><time>2026-04-17T12:47:49.609Z</time></trkpt><trkpt lat="42.6949033" lon="12.2382567"><ele>165.0</ele><time>2026-04-17T12:47:50.61Z</time></trkpt><trkpt lat="42.6948283" lon="12.238265"><ele>165.0</ele><time>2026-04-17T12:47:51.61Z</time></trkpt><trkpt lat="42.6947567" lon="12.2382617"><ele>165.0</ele><time>2026-04-17T12:47:52.609Z</time></trkpt><trkpt lat="42.69469" lon="12.2382483"><ele>165.0</ele><time>2026-04-17T12:47:53.61Z</time></trkpt><trkpt lat="42.6946233" lon="12.2382317"><ele>165.0</ele><time>2026-04-17T12:47:54.61Z</time></trkpt><trkpt lat="42.6945217" lon="12.23815"><ele>165.0</ele><time>2026-04-17T12:47:56.61Z</time></trkpt><trkpt lat="42.6944767" lon="12.2380767"><ele>165.0</ele><time>2026-04-17T12:47:57.61Z</time></trkpt><trkpt lat="42.69444" lon="12.2380067"><ele>164.5</ele><time>2026-04-17T12:47:58.61Z</time></trkpt><trkpt lat="42.69438" lon="12.2379183"><ele>164.0</ele><time>2026-04-17T12:48:00.61Z</time></trkpt><trkpt lat="42.69431" lon="12.2379317"><ele>163.5</ele><time>2026-04-17T12:48:02.61Z</time></trkpt><trkpt lat="42.6942567" lon="12.238075"><ele>163.0</ele><time>2026-04-17T12:48:04.61Z</time></trkpt><trkpt lat="42.6942433" lon="12.2381767"><ele>162.5</ele><time>2026-04-17T12:48:05.61Z</time></trkpt><trkpt lat="42.6942433" lon="12.2382817"><ele>162.0</ele><time>2026-04-17T12:48:06.61Z</time></trkpt><trkpt lat="42.6942517" lon="12.2384033"><ele>160.66666666666666</ele><time>2026-04-17T12:48:07.609Z</time></trkpt><trkpt lat="42.6942383" lon="12.2385283"><ele>159.33333333333334</ele><time>2026-04-17T12:48:08.609Z</time></trkpt><trkpt lat="42.694235" lon="12.2386517"><ele>158.0</ele><time>2026-04-17T12:48:09.61Z</time></trkpt><trkpt lat="42.6942267" lon="12.2387567"><ele>156.66666666666669</ele><time>2026-04-17T12:48:10.609Z</time></trkpt><trkpt lat="42.6941933" lon="12.2388817"><ele>155.33333333333334</ele><time>2026-04-17T12:48:12.609Z</time></trkpt><trkpt lat="42.6941533" lon="12.2389517"><ele>154.0</ele><time>2026-04-17T12:48:13.609Z</time></trkpt><trkpt lat="42.6940967" lon="12.2390033"><ele>153.6</ele><time>2026-04-17T12:48:14.609Z</time></trkpt><trkpt lat="42.69402" lon="12.23904"><ele>153.2</ele><time>2026-04-17T12:48:15.61Z</time></trkpt><trkpt lat="42.693935" lon="12.2390733"><ele>152.79999999999998</ele><time>2026-04-17T12:48:16.61Z</time></trkpt><trkpt lat="42.693835" lon="12.2391117"><ele>152.4</ele><time>2026-04-17T12:48:17.61Z</time></trkpt><trkpt lat="42.6937367" lon="12.239145"><ele>152.0</ele><time>2026-04-17T12:48:18.61Z</time></trkpt><trkpt lat="42.69364" lon="12.2391883"><ele>153.8</ele><time>2026-04-17T12:48:19.609Z</time></trkpt><trkpt lat="42.69354" lon="12.2392267"><ele>155.6</ele><time>2026-04-17T12:48:20.61Z</time></trkpt><trkpt lat="42.6934367" lon="12.2392783"><ele>157.4</ele><time>2026-04-17T12:48:21.61Z</time></trkpt><trkpt lat="42.6933383" lon="12.239325"><ele>159.20000000000002</ele><time>2026-04-17T12:48:22.609Z</time></trkpt><trkpt lat="42.6932533" lon="12.2393667"><ele>161.0</ele><time>2026-04-17T12:48:23.61Z</time></trkpt><trkpt lat="42.6931867" lon="12.239395"><ele>161.0</ele><time>2026-04-17T12:48:24.61Z</time></trkpt><trkpt lat="42.6931017" lon="12.2394483"><ele>161.0</ele><time>2026-04-17T12:48:26.61Z</time></trkpt><trkpt lat="42.6930333" lon="12.2394817"><ele>161.0</ele><time>2026-04-17T12:48:28.61Z</time></trkpt><trkpt lat="42.69297" lon="12.23945"><ele>161.0</ele><time>2026-04-17T12:48:30.61Z</time></trkpt><trkpt lat="42.6929283" lon="12.2393483"><ele>161.0</ele><time>2026-04-17T12:48:32.61Z</time></trkpt><trkpt lat="42.692885" lon="12.2391917"><ele>161.0</ele><time>2026-04-17T12:48:34.61Z</time></trkpt><trkpt lat="42.692865" lon="12.2391"><ele>161.0</ele><time>2026-04-17T12:48:35.61Z</time></trkpt><trkpt lat="42.69284" lon="12.238995"><ele>161.0</ele><time>2026-04-17T12:48:36.61Z</time></trkpt><trkpt lat="42.6928133" lon="12.23889"><ele>161.0</ele><time>2026-04-17T12:48:37.609Z</time></trkpt><trkpt lat="42.6927833" lon="12.238775"><ele>161.0</ele><time>2026-04-17T12:48:38.61Z</time></trkpt><trkpt lat="42.69275" lon="12.2386483"><ele>161.0</ele><time>2026-04-17T12:48:39.61Z</time></trkpt><trkpt lat="42.6927217" lon="12.2385283"><ele>161.0</ele><time>2026-04-17T12:48:40.609Z</time></trkpt><trkpt lat="42.6926883" lon="12.2384033"><ele>162.8</ele><time>2026-04-17T12:48:41.61Z</time></trkpt><trkpt lat="42.6926567" lon="12.23828"><ele>164.60000000000002</ele><time>2026-04-17T12:48:42.61Z</time></trkpt><trkpt lat="42.6926217" lon="12.2381517"><ele>166.4</ele><time>2026-04-17T12:48:43.609Z</time></trkpt><trkpt lat="42.6925917" lon="12.2380267"><ele>168.2</ele><time>2026-04-17T12:48:44.608Z</time></trkpt><trkpt lat="42.692565" lon="12.2379033"><ele>170.0</ele><time>2026-04-17T12:48:45.609Z</time></trkpt><trkpt lat="42.6925383" lon="12.2377833"><ele>171.2</ele><time>2026-04-17T12:48:46.609Z</time></trkpt><trkpt lat="42.6925" lon="12.23767"><ele>172.4</ele><time>2026-04-17T12:48:47.609Z</time></trkpt><trkpt lat="42.6924517" lon="12.2375617"><ele>173.60000000000002</ele><time>2026-04-17T12:48:48.608Z</time></trkpt><trkpt lat="42.6924" lon="12.23746"><ele>174.8</ele><time>2026-04-17T12:48:49.609Z</time></trkpt><trkpt lat="42.6923433" lon="12.2373517"><ele>176.0</ele><time>2026-04-17T12:48:50.608Z</time></trkpt><trkpt lat="42.692285" lon="12.23725"><ele>180.0</ele><time>2026-04-17T12:48:51.609Z</time></trkpt><trkpt lat="42.6922267" lon="12.23715"><ele>184.0</ele><time>2026-04-17T12:48:52.609Z</time></trkpt><trkpt lat="42.6921683" lon="12.237045"><ele>188.0</ele><time>2026-04-17T12:48:53.609Z</time></trkpt><trkpt lat="42.6921167" lon="12.23695"><ele>192.0</ele><time>2026-04-17T12:48:54.609Z</time></trkpt><trkpt lat="42.6920533" lon="12.236865"><ele>196.0</ele><time>2026-04-17T12:48:55.608Z</time></trkpt><trkpt lat="42.6919883" lon="12.23679"><ele>196.33333333333331</ele><time>2026-04-17T12:48:56.608Z</time></trkpt><trkpt lat="42.6919183" lon="12.2367367"><ele>196.66666666666666</ele><time>2026-04-17T12:48:57.609Z</time></trkpt><trkpt lat="42.6918483" lon="12.2366983"><ele>197.0</ele><time>2026-04-17T12:48:58.609Z</time></trkpt><trkpt lat="42.6917783" lon="12.2366767"><ele>197.33333333333331</ele><time>2026-04-17T12:48:59.609Z</time></trkpt><trkpt lat="42.6916967" lon="12.2366583"><ele>197.66666666666666</ele><time>2026-04-17T12:49:00.609Z</time></trkpt><trkpt lat="42.6916083" lon="12.2366517"><ele>198.0</ele><time>2026-04-17T12:49:01.609Z</time></trkpt><trkpt lat="42.691535" lon="12.2366367"><ele>198.0</ele><time>2026-04-17T12:49:02.609Z</time></trkpt><trkpt lat="42.69144" lon="12.2365633"><ele>198.0</ele><time>2026-04-17T12:49:04.609Z</time></trkpt><trkpt lat="42.6913883" lon="12.2364517"><ele>198.0</ele><time>2026-04-17T12:49:06.609Z</time></trkpt><trkpt lat="42.69141" lon="12.2363417"><ele>198.0</ele><time>2026-04-17T12:49:09.609Z</time></trkpt><trkpt lat="42.6915033" lon="12.23633"><ele>198.0</ele><time>2026-04-17T12:49:12.609Z</time></trkpt><trkpt lat="42.6916033" lon="12.2363417"><ele>201.16666666666666</ele><time>2026-04-17T12:49:14.609Z</time></trkpt><trkpt lat="42.6916683" lon="12.236335"><ele>204.33333333333331</ele><time>2026-04-17T12:49:15.609Z</time></trkpt><trkpt lat="42.6917367" lon="12.2363183"><ele>207.5</ele><time>2026-04-17T12:49:16.609Z</time></trkpt><trkpt lat="42.69182" lon="12.2362933"><ele>210.66666666666666</ele><time>2026-04-17T12:49:17.609Z</time></trkpt><trkpt lat="42.6919117" lon="12.2362533"><ele>213.83333333333331</ele><time>2026-04-17T12:49:18.609Z</time></trkpt><trkpt lat="42.691995" lon="12.2362067"><ele>217.0</ele><time>2026-04-17T12:49:19.609Z</time></trkpt><trkpt lat="42.692075" lon="12.2361567"><ele>216.99999999999997</ele><time>2026-04-17T12:49:20.609Z</time></trkpt><trkpt lat="42.6921567" lon="12.2361133"><ele>217.0</ele><time>2026-04-17T12:49:21.608Z</time></trkpt><trkpt lat="42.6922367" lon="12.2361033"><ele>217.0</ele><time>2026-04-17T12:49:22.609Z</time></trkpt><trkpt lat="42.692325" lon="12.2360817"><ele>217.0</ele><time>2026-04-17T12:49:23.609Z</time></trkpt><trkpt lat="42.6923933" lon="12.2360683"><ele>216.99999999999997</ele><time>2026-04-17T12:49:24.609Z</time></trkpt><trkpt lat="42.6925017" lon="12.236045"><ele>217.0</ele><time>2026-04-17T12:49:26.609Z</time></trkpt><trkpt lat="42.692555" lon="12.2359867"><ele>216.99999999999997</ele><time>2026-04-17T12:49:28.609Z</time></trkpt><trkpt lat="42.69253" lon="12.2358583"><ele>217.0</ele><time>2026-04-17T12:49:31.608Z</time></trkpt><trkpt lat="42.6924383" lon="12.2358017"><ele>217.0</ele><time>2026-04-17T12:49:33.609Z</time></trkpt><trkpt lat="42.69237" lon="12.2357883"><ele>217.0</ele><time>2026-04-17T12:49:34.608Z</time></trkpt><trkpt lat="42.6923067" lon="12.2357833"><ele>216.99999999999997</ele><time>2026-04-17T12:49:35.609Z</time></trkpt><trkpt lat="42.6922317" lon="12.2357967"><ele>217.0</ele><time>2026-04-17T12:49:36.609Z</time></trkpt><trkpt lat="42.6921533" lon="12.2358017"><ele>216.99999999999997</ele><time>2026-04-17T12:49:37.609Z</time></trkpt><trkpt lat="42.6920883" lon="12.2358083"><ele>217.0</ele><time>2026-04-17T12:49:38.609Z</time></trkpt><trkpt lat="42.691985" lon="12.2358333"><ele>217.0</ele><time>2026-04-17T12:49:40.609Z</time></trkpt><trkpt lat="42.6919067" lon="12.235795"><ele>217.0</ele><time>2026-04-17T12:49:43.609Z</time></trkpt><trkpt lat="42.691925" lon="12.2356983"><ele>216.99999999999997</ele><time>2026-04-17T12:49:46.608Z</time></trkpt><trkpt lat="42.692005" lon="12.2356517"><ele>217.0</ele><time>2026-04-17T12:49:48.609Z</time></trkpt><trkpt lat="42.692105" lon="12.2356267"><ele>219.66666666666666</ele><time>2026-04-17T12:49:50.609Z</time></trkpt><trkpt lat="42.6921683" lon="12.2355617"><ele>222.33333333333331</ele><time>2026-04-17T12:49:52.609Z</time></trkpt><trkpt lat="42.6921733" lon="12.2354317"><ele>225.0</ele><time>2026-04-17T12:49:54.609Z</time></trkpt><trkpt lat="42.6921433" lon="12.2353533"><ele>227.66666666666669</ele><time>2026-04-17T12:49:55.609Z</time></trkpt><trkpt lat="42.692085" lon="12.2352667"><ele>230.33333333333334</ele><time>2026-04-17T12:49:56.609Z</time></trkpt><trkpt lat="42.6920167" lon="12.2351833"><ele>233.0</ele><time>2026-04-17T12:49:57.609Z</time></trkpt><trkpt lat="42.691945" lon="12.2351033"><ele>233.2</ele><time>2026-04-17T12:49:58.608Z</time></trkpt><trkpt lat="42.69187" lon="12.2350217"><ele>233.4</ele><time>2026-04-17T12:49:59.608Z</time></trkpt><trkpt lat="42.6917883" lon="12.2349333"><ele>233.59999999999997</ele><time>2026-04-17T12:50:00.608Z</time></trkpt><trkpt lat="42.6917017" lon="12.23484"><ele>233.79999999999998</ele><time>2026-04-17T12:50:01.608Z</time></trkpt><trkpt lat="42.6916083" lon="12.2347367"><ele>234.0</ele><time>2026-04-17T12:50:02.609Z</time></trkpt><trkpt lat="42.6915083" lon="12.234635"><ele>235.5</ele><time>2026-04-17T12:50:03.609Z</time></trkpt><trkpt lat="42.691405" lon="12.2345317"><ele>237.0</ele><time>2026-04-17T12:50:04.609Z</time></trkpt><trkpt lat="42.69131" lon="12.2344217"><ele>238.5</ele><time>2026-04-17T12:50:05.608Z</time></trkpt><trkpt lat="42.6912133" lon="12.2343117"><ele>240.0</ele><time>2026-04-17T12:50:06.609Z</time></trkpt><trkpt lat="42.691105" lon="12.2342033"><ele>242.0</ele><time>2026-04-17T12:50:07.609Z</time></trkpt><trkpt lat="42.6909917" lon="12.234085"><ele>244.0</ele><time>2026-04-17T12:50:08.608Z</time></trkpt><trkpt lat="42.6908833" lon="12.23398"><ele>246.0</ele><time>2026-04-17T12:50:09.609Z</time></trkpt><trkpt lat="42.6907783" lon="12.2338983"><ele>248.0</ele><time>2026-04-17T12:50:10.609Z</time></trkpt><trkpt lat="42.6906767" lon="12.2338133"><ele>249.25</ele><time>2026-04-17T12:50:11.609Z</time></trkpt><trkpt lat="42.690565" lon="12.2337267"><ele>250.5</ele><time>2026-04-17T12:50:12.609Z</time></trkpt><trkpt lat="42.6904683" lon="12.2336233"><ele>251.75</ele><time>2026-04-17T12:50:13.609Z</time></trkpt><trkpt lat="42.6903833" lon="12.23354"><ele>253.0</ele><time>2026-04-17T12:50:14.609Z</time></trkpt><trkpt lat="42.6903033" lon="12.2334667"><ele>254.0</ele><time>2026-04-17T12:50:15.608Z</time></trkpt><trkpt lat="42.69022" lon="12.233385"><ele>255.0</ele><time>2026-04-17T12:50:16.609Z</time></trkpt><trkpt lat="42.690135" lon="12.23332"><ele>256.0</ele><time>2026-04-17T12:50:17.608Z</time></trkpt><trkpt lat="42.6900383" lon="12.2332533"><ele>257.0</ele><time>2026-04-17T12:50:18.609Z</time></trkpt><trkpt lat="42.68994" lon="12.23318"><ele>258.0</ele><time>2026-04-17T12:50:19.609Z</time></trkpt><trkpt lat="42.6898467" lon="12.2330933"><ele>258.75</ele><time>2026-04-17T12:50:20.609Z</time></trkpt><trkpt lat="42.6897567" lon="12.2330067"><ele>259.5</ele><time>2026-04-17T12:50:21.609Z</time></trkpt><trkpt lat="42.6896617" lon="12.232905"><ele>260.25</ele><time>2026-04-17T12:50:22.608Z</time></trkpt><trkpt lat="42.6895633" lon="12.23281"><ele>261.0</ele><time>2026-04-17T12:50:23.609Z</time></trkpt><trkpt lat="42.689475" lon="12.2327067"><ele>262.75</ele><time>2026-04-17T12:50:24.609Z</time></trkpt><trkpt lat="42.6893833" lon="12.2326"><ele>264.5</ele><time>2026-04-17T12:50:25.609Z</time></trkpt><trkpt lat="42.6892983" lon="12.2324683"><ele>266.25</ele><time>2026-04-17T12:50:26.609Z</time></trkpt><trkpt lat="42.6892233" lon="12.2323317"><ele>268.0</ele><time>2026-04-17T12:50:27.609Z</time></trkpt><trkpt lat="42.68915" lon="12.2321867"><ele>269.0</ele><time>2026-04-17T12:50:28.609Z</time></trkpt><trkpt lat="42.6890883" lon="12.232055"><ele>270.0</ele><time>2026-04-17T12:50:29.609Z</time></trkpt><trkpt lat="42.6890317" lon="12.2319317"><ele>271.0</ele><time>2026-04-17T12:50:30.609Z</time></trkpt><trkpt lat="42.6889783" lon="12.2318133"><ele>272.0</ele><time>2026-04-17T12:50:31.608Z</time></trkpt><trkpt lat="42.68892" lon="12.2317033"><ele>273.0</ele><time>2026-04-17T12:50:32.609Z</time></trkpt><trkpt lat="42.6888517" lon="12.231605"><ele>273.0</ele><time>2026-04-17T12:50:33.608Z</time></trkpt><trkpt lat="42.688775" lon="12.2315167"><ele>273.0</ele><time>2026-04-17T12:50:34.608Z</time></trkpt><trkpt lat="42.6886967" lon="12.23143"><ele>273.0</ele><time>2026-04-17T12:50:35.608Z</time></trkpt><trkpt lat="42.688625" lon="12.2313467"><ele>273.0</ele><time>2026-04-17T12:50:36.609Z</time></trkpt><trkpt lat="42.6885633" lon="12.2312683"><ele>273.0</ele><time>2026-04-17T12:50:37.609Z</time></trkpt><trkpt lat="42.6885" lon="12.23118"><ele>273.6</ele><time>2026-04-17T12:50:38.608Z</time></trkpt><trkpt lat="42.68842" lon="12.231075"><ele>274.20000000000005</ele><time>2026-04-17T12:50:39.609Z</time></trkpt><trkpt lat="42.68834" lon="12.230975"><ele>274.8</ele><time>2026-04-17T12:50:40.609Z</time></trkpt><trkpt lat="42.688265" lon="12.2308883"><ele>275.40000000000003</ele><time>2026-04-17T12:50:41.609Z</time></trkpt><trkpt lat="42.6881933" lon="12.2308133"><ele>276.0</ele><time>2026-04-17T12:50:42.609Z</time></trkpt><trkpt lat="42.6881367" lon="12.2307417"><ele>276.0</ele><time>2026-04-17T12:50:43.609Z</time></trkpt><trkpt lat="42.6880883" lon="12.2306833"><ele>276.0</ele><time>2026-04-17T12:50:44.609Z</time></trkpt><trkpt lat="42.6880317" lon="12.2305783"><ele>276.0</ele><time>2026-04-17T12:50:46.608Z</time></trkpt><trkpt lat="42.6879867" lon="12.2304933"><ele>276.0</ele><time>2026-04-17T12:50:48.609Z</time></trkpt><trkpt lat="42.687915" lon="12.2304567"><ele>276.0</ele><time>2026-04-17T12:50:50.608Z</time></trkpt><trkpt lat="42.6877783" lon="12.2305133"><ele>275.5</ele><time>2026-04-17T12:50:52.608Z</time></trkpt><trkpt lat="42.68768" lon="12.23057"><ele>275.0</ele><time>2026-04-17T12:50:53.609Z</time></trkpt><trkpt lat="42.687565" lon="12.2306417"><ele>274.5</ele><time>2026-04-17T12:50:54.609Z</time></trkpt><trkpt lat="42.6874467" lon="12.2307183"><ele>274.0</ele><time>2026-04-17T12:50:55.609Z</time></trkpt><trkpt lat="42.6873217" lon="12.2308017"><ele>274.0</ele><time>2026-04-17T12:50:56.608Z</time></trkpt><trkpt lat="42.687185" lon="12.230875"><ele>274.0</ele><time>2026-04-17T12:50:57.608Z</time></trkpt><trkpt lat="42.6870583" lon="12.2309283"><ele>274.0</ele><time>2026-04-17T12:50:58.609Z</time></trkpt><trkpt lat="42.6869533" lon="12.2309633"><ele>274.0</ele><time>2026-04-17T12:50:59.609Z</time></trkpt><trkpt lat="42.686865" lon="12.2309817"><ele>273.8</ele><time>2026-04-17T12:51:00.609Z</time></trkpt><trkpt lat="42.6867833" lon="12.2310033"><ele>273.59999999999997</ele><time>2026-04-17T12:51:01.609Z</time></trkpt><trkpt lat="42.6867083" lon="12.2310433"><ele>273.4</ele><time>2026-04-17T12:51:02.609Z</time></trkpt><trkpt lat="42.6866283" lon="12.23111"><ele>273.2</ele><time>2026-04-17T12:51:03.608Z</time></trkpt><trkpt lat="42.6865283" lon="12.2311917"><ele>273.0</ele><time>2026-04-17T12:51:04.608Z</time></trkpt><trkpt lat="42.686415" lon="12.2312783"><ele>273.0</ele><time>2026-04-17T12:51:05.609Z</time></trkpt><trkpt lat="42.68629" lon="12.2313667"><ele>273.0</ele><time>2026-04-17T12:51:06.609Z</time></trkpt><trkpt lat="42.68616" lon="12.231455"><ele>273.0</ele><time>2026-04-17T12:51:07.608Z</time></trkpt><trkpt lat="42.6860433" lon="12.23153"><ele>273.0</ele><time>2026-04-17T12:51:08.609Z</time></trkpt><trkpt lat="42.6859417" lon="12.2315917"><ele>272.0</ele><time>2026-04-17T12:51:09.609Z</time></trkpt><trkpt lat="42.685845" lon="12.2316533"><ele>271.0</ele><time>2026-04-17T12:51:10.608Z</time></trkpt><trkpt lat="42.6857483" lon="12.231705"><ele>270.0</ele><time>2026-04-17T12:51:11.609Z</time></trkpt><trkpt lat="42.6856583" lon="12.23174"><ele>269.0</ele><time>2026-04-17T12:51:12.609Z</time></trkpt><trkpt lat="42.6855633" lon="12.2317767"><ele>268.0</ele><time>2026-04-17T12:51:13.609Z</time></trkpt><trkpt lat="42.685455" lon="12.2318"><ele>268.0</ele><time>2026-04-17T12:51:14.609Z</time></trkpt><trkpt lat="42.6853417" lon="12.2317917"><ele>268.0</ele><time>2026-04-17T12:51:15.608Z</time></trkpt><trkpt lat="42.68523" lon="12.2317817"><ele>268.0</ele><time>2026-04-17T12:51:16.609Z</time></trkpt><trkpt lat="42.685135" lon="12.23177"><ele>268.0</ele><time>2026-04-17T12:51:17.609Z</time></trkpt><trkpt lat="42.6850467" lon="12.231775"><ele>268.0</ele><time>2026-04-17T12:51:18.609Z</time></trkpt><trkpt lat="42.6849467" lon="12.2318017"><ele>269.75</ele><time>2026-04-17T12:51:19.609Z</time></trkpt><trkpt lat="42.684845" lon="12.231855"><ele>271.5</ele><time>2026-04-17T12:51:20.609Z</time></trkpt><trkpt lat="42.6847383" lon="12.2319317"><ele>273.25</ele><time>2026-04-17T12:51:21.608Z</time></trkpt><trkpt lat="42.6846233" lon="12.2320117"><ele>275.0</ele><time>2026-04-17T12:51:22.608Z</time></trkpt><trkpt lat="42.6845067" lon="12.2321"><ele>275.5</ele><time>2026-04-17T12:51:23.609Z</time></trkpt><trkpt lat="42.6844" lon="12.232185"><ele>276.0</ele><time>2026-04-17T12:51:24.609Z</time></trkpt><trkpt lat="42.6842983" lon="12.2322617"><ele>276.5</ele><time>2026-04-17T12:51:25.608Z</time></trkpt><trkpt lat="42.6842033" lon="12.232335"><ele>277.0</ele><time>2026-04-17T12:51:26.609Z</time></trkpt><trkpt lat="42.6841117" lon="12.2324283"><ele>277.0</ele><time>2026-04-17T12:51:27.609Z</time></trkpt><trkpt lat="42.6840267" lon="12.2325183"><ele>277.0</ele><time>2026-04-17T12:51:28.609Z</time></trkpt><trkpt lat="42.6839433" lon="12.2326017"><ele>277.0</ele><time>2026-04-17T12:51:29.609Z</time></trkpt><trkpt lat="42.6838617" lon="12.2326833"><ele>277.0</ele><time>2026-04-17T12:51:30.608Z</time></trkpt><trkpt lat="42.6837783" lon="12.2327567"><ele>277.0</ele><time>2026-04-17T12:51:31.609Z</time></trkpt><trkpt lat="42.683685" lon="12.2328133"><ele>277.4</ele><time>2026-04-17T12:51:32.609Z</time></trkpt><trkpt lat="42.683595" lon="12.2328567"><ele>277.79999999999995</ele><time>2026-04-17T12:51:33.609Z</time></trkpt><trkpt lat="42.6835033" lon="12.2329"><ele>278.2</ele><time>2026-04-17T12:51:34.608Z</time></trkpt><trkpt lat="42.6834083" lon="12.2329433"><ele>278.59999999999997</ele><time>2026-04-17T12:51:35.609Z</time></trkpt><trkpt lat="42.683325" lon="12.2329917"><ele>279.0</ele><time>2026-04-17T12:51:36.608Z</time></trkpt><trkpt lat="42.6832517" lon="12.233055"><ele>279.0</ele><time>2026-04-17T12:51:37.609Z</time></trkpt><trkpt lat="42.68319" lon="12.23312"><ele>279.0</ele><time>2026-04-17T12:51:38.609Z</time></trkpt><trkpt lat="42.683125" lon="12.2331933"><ele>279.0</ele><time>2026-04-17T12:51:39.609Z</time></trkpt><trkpt lat="42.6830817" lon="12.2332867"><ele>279.0</ele><time>2026-04-17T12:51:40.609Z</time></trkpt><trkpt lat="42.6830567" lon="12.2334033"><ele>279.0</ele><time>2026-04-17T12:51:41.609Z</time></trkpt><trkpt lat="42.6830317" lon="12.2335467"><ele>279.0</ele><time>2026-04-17T12:51:42.609Z</time></trkpt><trkpt lat="42.6830083" lon="12.2336917"><ele>278.0</ele><time>2026-04-17T12:51:43.609Z</time></trkpt><trkpt lat="42.6829767" lon="12.2338533"><ele>277.0</ele><time>2026-04-17T12:51:44.609Z</time></trkpt><trkpt lat="42.68295" lon="12.2340267"><ele>276.0</ele><time>2026-04-17T12:51:45.609Z</time></trkpt><trkpt lat="42.6829217" lon="12.2341967"><ele>275.0</ele><time>2026-04-17T12:51:46.608Z</time></trkpt><trkpt lat="42.6828833" lon="12.234375"><ele>275.0</ele><time>2026-04-17T12:51:47.609Z</time></trkpt><trkpt lat="42.682845" lon="12.2345333"><ele>275.0</ele><time>2026-04-17T12:51:48.609Z</time></trkpt><trkpt lat="42.6828167" lon="12.2346833"><ele>275.0</ele><time>2026-04-17T12:51:49.609Z</time></trkpt><trkpt lat="42.6827967" lon="12.2348183"><ele>275.0</ele><time>2026-04-17T12:51:50.608Z</time></trkpt><trkpt lat="42.6827767" lon="12.2349367"><ele>275.0</ele><time>2026-04-17T12:51:51.609Z</time></trkpt><trkpt lat="42.682755" lon="12.235055"><ele>276.2</ele><time>2026-04-17T12:51:52.609Z</time></trkpt><trkpt lat="42.68274" lon="12.2351833"><ele>277.4</ele><time>2026-04-17T12:51:53.609Z</time></trkpt><trkpt lat="42.682725" lon="12.2353233"><ele>278.6</ele><time>2026-04-17T12:51:54.609Z</time></trkpt><trkpt lat="42.6827133" lon="12.2354833"><ele>279.8</ele><time>2026-04-17T12:51:55.609Z</time></trkpt><trkpt lat="42.6827017" lon="12.2356583"><ele>281.0</ele><time>2026-04-17T12:51:56.609Z</time></trkpt><trkpt lat="42.68269" lon="12.2358383"><ele>281.0</ele><time>2026-04-17T12:51:57.608Z</time></trkpt><trkpt lat="42.68268" lon="12.2360117"><ele>281.0</ele><time>2026-04-17T12:51:58.609Z</time></trkpt><trkpt lat="42.6826733" lon="12.23617"><ele>281.0</ele><time>2026-04-17T12:51:59.609Z</time></trkpt><trkpt lat="42.6826717" lon="12.2363167"><ele>281.0</ele><time>2026-04-17T12:52:00.609Z</time></trkpt><trkpt lat="42.6826567" lon="12.23646"><ele>280.5</ele><time>2026-04-17T12:52:01.608Z</time></trkpt><trkpt lat="42.6826317" lon="12.2366133"><ele>280.0</ele><time>2026-04-17T12:52:02.609Z</time></trkpt><trkpt lat="42.682595" lon="12.2367717"><ele>279.5</ele><time>2026-04-17T12:52:03.609Z</time></trkpt><trkpt lat="42.68254" lon="12.2369267"><ele>279.0</ele><time>2026-04-17T12:52:04.609Z</time></trkpt><trkpt lat="42.6824667" lon="12.2370867"><ele>279.0</ele><time>2026-04-17T12:52:05.609Z</time></trkpt><trkpt lat="42.6823783" lon="12.2372433"><ele>279.0</ele><time>2026-04-17T12:52:06.608Z</time></trkpt><trkpt lat="42.682285" lon="12.2373967"><ele>279.0</ele><time>2026-04-17T12:52:07.609Z</time></trkpt><trkpt lat="42.6821967" lon="12.2375417"><ele>279.0</ele><time>2026-04-17T12:52:08.608Z</time></trkpt><trkpt lat="42.6821217" lon="12.2376683"><ele>279.5</ele><time>2026-04-17T12:52:09.608Z</time></trkpt><trkpt lat="42.682045" lon="12.23779"><ele>280.0</ele><time>2026-04-17T12:52:10.609Z</time></trkpt><trkpt lat="42.68197" lon="12.23793"><ele>280.5</ele><time>2026-04-17T12:52:11.609Z</time></trkpt><trkpt lat="42.6818867" lon="12.238075"><ele>281.0</ele><time>2026-04-17T12:52:12.608Z</time></trkpt><trkpt lat="42.6817983" lon="12.2382183"><ele>281.5</ele><time>2026-04-17T12:52:13.609Z</time></trkpt><trkpt lat="42.6817033" lon="12.238365"><ele>282.0</ele><time>2026-04-17T12:52:14.608Z</time></trkpt><trkpt lat="42.6816083" lon="12.2385083"><ele>282.5</ele><time>2026-04-17T12:52:15.608Z</time></trkpt><trkpt lat="42.6815183" lon="12.2386467"><ele>283.0</ele><time>2026-04-17T12:52:16.609Z</time></trkpt><trkpt lat="42.6814433" lon="12.2387817"><ele>283.0</ele><time>2026-04-17T12:52:17.609Z</time></trkpt><trkpt lat="42.68138" lon="12.2389233"><ele>283.0</ele><time>2026-04-17T12:52:18.608Z</time></trkpt><trkpt lat="42.6813283" lon="12.239075"><ele>283.0</ele><time>2026-04-17T12:52:19.609Z</time></trkpt><trkpt lat="42.6812933" lon="12.239235"><ele>283.0</ele><time>2026-04-17T12:52:20.608Z</time></trkpt><trkpt lat="42.681285" lon="12.23939"><ele>282.75</ele><time>2026-04-17T12:52:21.609Z</time></trkpt><trkpt lat="42.6812933" lon="12.2395567"><ele>282.5</ele><time>2026-04-17T12:52:22.609Z</time></trkpt><trkpt lat="42.6813167" lon="12.23972"><ele>282.25</ele><time>2026-04-17T12:52:23.609Z</time></trkpt><trkpt lat="42.6813317" lon="12.239885"><ele>282.0</ele><time>2026-04-17T12:52:24.608Z</time></trkpt><trkpt lat="42.6813333" lon="12.2400367"><ele>282.0</ele><time>2026-04-17T12:52:25.609Z</time></trkpt><trkpt lat="42.68132" lon="12.240175"><ele>282.0</ele><time>2026-04-17T12:52:26.609Z</time></trkpt><trkpt lat="42.6812983" lon="12.2403183"><ele>282.0</ele><time>2026-04-17T12:52:27.609Z</time></trkpt><trkpt lat="42.6812583" lon="12.2404633"><ele>282.0</ele><time>2026-04-17T12:52:28.609Z</time></trkpt><trkpt lat="42.6812117" lon="12.2406333"><ele>282.25</ele><time>2026-04-17T12:52:29.608Z</time></trkpt><trkpt lat="42.6811633" lon="12.2408033"><ele>282.5</ele><time>2026-04-17T12:52:30.608Z</time></trkpt><trkpt lat="42.68112" lon="12.2409783"><ele>282.75</ele><time>2026-04-17T12:52:31.609Z</time></trkpt><trkpt lat="42.681085" lon="12.2411517"><ele>283.0</ele><time>2026-04-17T12:52:32.608Z</time></trkpt><trkpt lat="42.681055" lon="12.2413183"><ele>283.4</ele><time>2026-04-17T12:52:33.608Z</time></trkpt><trkpt lat="42.6810367" lon="12.2414867"><ele>283.8</ele><time>2026-04-17T12:52:34.609Z</time></trkpt><trkpt lat="42.6810217" lon="12.241645"><ele>284.2</ele><time>2026-04-17T12:52:35.609Z</time></trkpt><trkpt lat="42.6810083" lon="12.2417883"><ele>284.6</ele><time>2026-04-17T12:52:36.608Z</time></trkpt><trkpt lat="42.6809883" lon="12.2419183"><ele>285.0</ele><time>2026-04-17T12:52:37.609Z</time></trkpt><trkpt lat="42.68096" lon="12.2420383"><ele>285.0</ele><time>2026-04-17T12:52:38.609Z</time></trkpt><trkpt lat="42.6809233" lon="12.2421567"><ele>285.0</ele><time>2026-04-17T12:52:39.609Z</time></trkpt><trkpt lat="42.6808783" lon="12.24227"><ele>285.0</ele><time>2026-04-17T12:52:40.609Z</time></trkpt><trkpt lat="42.6808317" lon="12.24237"><ele>285.0</ele><time>2026-04-17T12:52:41.609Z</time></trkpt><trkpt lat="42.68079" lon="12.2424567"><ele>285.0</ele><time>2026-04-17T12:52:42.609Z</time></trkpt><trkpt lat="42.6807533" lon="12.2425367"><ele>285.0</ele><time>2026-04-17T12:52:43.608Z</time></trkpt><trkpt lat="42.6807233" lon="12.242615"><ele>284.75</ele><time>2026-04-17T12:52:44.609Z</time></trkpt><trkpt lat="42.68068" lon="12.2427683"><ele>284.5</ele><time>2026-04-17T12:52:46.609Z</time></trkpt><trkpt lat="42.6806717" lon="12.24296"><ele>284.25</ele><time>2026-04-17T12:52:48.609Z</time></trkpt><trkpt lat="42.6806733" lon="12.2431"><ele>284.0</ele><time>2026-04-17T12:52:49.609Z</time></trkpt><trkpt lat="42.6806783" lon="12.24325"><ele>283.25</ele><time>2026-04-17T12:52:50.609Z</time></trkpt><trkpt lat="42.68068" lon="12.2433983"><ele>282.5</ele><time>2026-04-17T12:52:51.609Z</time></trkpt><trkpt lat="42.6806783" lon="12.2435633"><ele>281.75</ele><time>2026-04-17T12:52:52.609Z</time></trkpt><trkpt lat="42.6806783" lon="12.2437383"><ele>281.0</ele><time>2026-04-17T12:52:53.609Z</time></trkpt><trkpt lat="42.68067" lon="12.243905"><ele>280.25</ele><time>2026-04-17T12:52:54.608Z</time></trkpt><trkpt lat="42.6806467" lon="12.24405"><ele>279.5</ele><time>2026-04-17T12:52:55.609Z</time></trkpt><trkpt lat="42.680615" lon="12.2441983"><ele>278.75</ele><time>2026-04-17T12:52:56.609Z</time></trkpt><trkpt lat="42.6805667" lon="12.2443533"><ele>278.0</ele><time>2026-04-17T12:52:57.609Z</time></trkpt><trkpt lat="42.680505" lon="12.2445017"><ele>278.0</ele><time>2026-04-17T12:52:58.609Z</time></trkpt><trkpt lat="42.6804283" lon="12.2446417"><ele>278.0</ele><time>2026-04-17T12:52:59.609Z</time></trkpt><trkpt lat="42.6803467" lon="12.2447817"><ele>278.0</ele><time>2026-04-17T12:53:00.609Z</time></trkpt><trkpt lat="42.6802667" lon="12.2449167"><ele>278.0</ele><time>2026-04-17T12:53:01.609Z</time></trkpt><trkpt lat="42.680175" lon="12.2450533"><ele>276.5</ele><time>2026-04-17T12:53:02.609Z</time></trkpt><trkpt lat="42.68007" lon="12.2451733"><ele>275.0</ele><time>2026-04-17T12:53:03.609Z</time></trkpt><trkpt lat="42.6799567" lon="12.2452883"><ele>273.5</ele><time>2026-04-17T12:53:04.609Z</time></trkpt><trkpt lat="42.6798417" lon="12.245395"><ele>272.0</ele><time>2026-04-17T12:53:05.608Z</time></trkpt><trkpt lat="42.6797333" lon="12.2454917"><ele>272.0</ele><time>2026-04-17T12:53:06.608Z</time></trkpt><trkpt lat="42.6796267" lon="12.245595"><ele>272.0</ele><time>2026-04-17T12:53:07.609Z</time></trkpt><trkpt lat="42.6795317" lon="12.2457167"><ele>272.0</ele><time>2026-04-17T12:53:08.609Z</time></trkpt><trkpt lat="42.6794317" lon="12.2458417"><ele>272.0</ele><time>2026-04-17T12:53:09.609Z</time></trkpt><trkpt lat="42.6793367" lon="12.245975"><ele>273.0</ele><time>2026-04-17T12:53:10.609Z</time></trkpt><trkpt lat="42.6792417" lon="12.246105"><ele>274.0</ele><time>2026-04-17T12:53:11.608Z</time></trkpt><trkpt lat="42.6791467" lon="12.2462317"><ele>275.0</ele><time>2026-04-17T12:53:12.609Z</time></trkpt><trkpt lat="42.6790383" lon="12.2463467"><ele>276.0</ele><time>2026-04-17T12:53:13.609Z</time></trkpt><trkpt lat="42.6789283" lon="12.246445"><ele>274.75</ele><time>2026-04-17T12:53:14.609Z</time></trkpt><trkpt lat="42.6788" lon="12.2465367"><ele>273.5</ele><time>2026-04-17T12:53:15.609Z</time></trkpt><trkpt lat="42.6786667" lon="12.2466233"><ele>272.25</ele><time>2026-04-17T12:53:16.609Z</time></trkpt><trkpt lat="42.6785367" lon="12.246705"><ele>271.0</ele><time>2026-04-17T12:53:17.608Z</time></trkpt><trkpt lat="42.6784083" lon="12.246785"><ele>270.5</ele><time>2026-04-17T12:53:18.609Z</time></trkpt><trkpt lat="42.67829" lon="12.246885"><ele>270.0</ele><time>2026-04-17T12:53:19.608Z</time></trkpt><trkpt lat="42.6781783" lon="12.2470033"><ele>269.5</ele><time>2026-04-17T12:53:20.609Z</time></trkpt><trkpt lat="42.6780767" lon="12.2471283"><ele>269.0</ele><time>2026-04-17T12:53:21.609Z</time></trkpt><trkpt lat="42.6779683" lon="12.247265"><ele>267.75</ele><time>2026-04-17T12:53:22.609Z</time></trkpt><trkpt lat="42.677865" lon="12.2473817"><ele>266.5</ele><time>2026-04-17T12:53:23.609Z</time></trkpt><trkpt lat="42.6777717" lon="12.2475017"><ele>265.25</ele><time>2026-04-17T12:53:24.609Z</time></trkpt><trkpt lat="42.67769" lon="12.247635"><ele>264.0</ele><time>2026-04-17T12:53:25.609Z</time></trkpt><trkpt lat="42.6776233" lon="12.2477833"><ele>264.0</ele><time>2026-04-17T12:53:26.608Z</time></trkpt><trkpt lat="42.6775767" lon="12.2479517"><ele>264.0</ele><time>2026-04-17T12:53:27.609Z</time></trkpt><trkpt lat="42.6775317" lon="12.248145"><ele>264.0</ele><time>2026-04-17T12:53:28.609Z</time></trkpt><trkpt lat="42.67749" lon="12.2483633"><ele>264.0</ele><time>2026-04-17T12:53:29.609Z</time></trkpt><trkpt lat="42.677445" lon="12.2485917"><ele>264.0</ele><time>2026-04-17T12:53:30.609Z</time></trkpt><trkpt lat="42.6774017" lon="12.2488217"><ele>264.0</ele><time>2026-04-17T12:53:31.609Z</time></trkpt><trkpt lat="42.6773633" lon="12.249055"><ele>264.0</ele><time>2026-04-17T12:53:32.609Z</time></trkpt><trkpt lat="42.6773283" lon="12.249285"><ele>264.0</ele><time>2026-04-17T12:53:33.609Z</time></trkpt><trkpt lat="42.6772933" lon="12.2495183"><ele>264.0</ele><time>2026-04-17T12:53:34.609Z</time></trkpt><trkpt lat="42.6772617" lon="12.249745"><ele>264.0</ele><time>2026-04-17T12:53:35.608Z</time></trkpt><trkpt lat="42.6772317" lon="12.2499683"><ele>265.0</ele><time>2026-04-17T12:53:36.609Z</time></trkpt><trkpt lat="42.67721" lon="12.2501783"><ele>266.0</ele><time>2026-04-17T12:53:37.609Z</time></trkpt><trkpt lat="42.6771867" lon="12.2503833"><ele>267.0</ele><time>2026-04-17T12:53:38.609Z</time></trkpt><trkpt lat="42.6771667" lon="12.2505867"><ele>266.3333333333333</ele><time>2026-04-17T12:53:39.609Z</time></trkpt><trkpt lat="42.6771433" lon="12.2507917"><ele>265.66666666666663</ele><time>2026-04-17T12:53:40.609Z</time></trkpt><trkpt lat="42.67712" lon="12.2510117"><ele>265.0</ele><time>2026-04-17T12:53:41.609Z</time></trkpt><trkpt lat="42.677095" lon="12.2512367"><ele>265.0</ele><time>2026-04-17T12:53:42.609Z</time></trkpt><trkpt lat="42.6770767" lon="12.2514467"><ele>265.0</ele><time>2026-04-17T12:53:43.609Z</time></trkpt><trkpt lat="42.677065" lon="12.25165"><ele>265.0</ele><time>2026-04-17T12:53:44.608Z</time></trkpt><trkpt lat="42.6770633" lon="12.2518417"><ele>265.0</ele><time>2026-04-17T12:53:45.609Z</time></trkpt><trkpt lat="42.67707" lon="12.252015"><ele>265.5</ele><time>2026-04-17T12:53:46.609Z</time></trkpt><trkpt lat="42.6770817" lon="12.2521817"><ele>266.0</ele><time>2026-04-17T12:53:47.608Z</time></trkpt><trkpt lat="42.67709" lon="12.25235"><ele>266.5</ele><time>2026-04-17T12:53:48.609Z</time></trkpt><trkpt lat="42.6771" lon="12.2525067"><ele>267.0</ele><time>2026-04-17T12:53:49.609Z</time></trkpt><trkpt lat="42.677115" lon="12.2526333"><ele>268.1666666666667</ele><time>2026-04-17T12:53:50.608Z</time></trkpt><trkpt lat="42.677125" lon="12.25275"><ele>269.3333333333333</ele><time>2026-04-17T12:53:51.609Z</time></trkpt><trkpt lat="42.6771367" lon="12.2528583"><ele>270.5</ele><time>2026-04-17T12:53:52.608Z</time></trkpt><trkpt lat="42.677155" lon="12.2529717"><ele>271.66666666666663</ele><time>2026-04-17T12:53:53.609Z</time></trkpt><trkpt lat="42.6771767" lon="12.2530867"><ele>272.8333333333333</ele><time>2026-04-17T12:53:54.609Z</time></trkpt><trkpt lat="42.67721" lon="12.253195"><ele>274.0</ele><time>2026-04-17T12:53:55.609Z</time></trkpt><trkpt lat="42.67726" lon="12.2532967"><ele>275.0</ele><time>2026-04-17T12:53:56.609Z</time></trkpt><trkpt lat="42.6773317" lon="12.2533867"><ele>276.0</ele><time>2026-04-17T12:53:57.609Z</time></trkpt><trkpt lat="42.6774217" lon="12.2534633"><ele>277.0</ele><time>2026-04-17T12:53:58.609Z</time></trkpt><trkpt lat="42.6775233" lon="12.2535217"><ele>278.0</ele><time>2026-04-17T12:53:59.608Z</time></trkpt><trkpt lat="42.6776417" lon="12.2535817"><ele>279.0</ele><time>2026-04-17T12:54:00.609Z</time></trkpt><trkpt lat="42.67776" lon="12.2536367"><ele>277.75</ele><time>2026-04-17T12:54:01.609Z</time></trkpt><trkpt lat="42.67788" lon="12.2536817"><ele>276.5</ele><time>2026-04-17T12:54:02.609Z</time></trkpt><trkpt lat="42.6779917" lon="12.2537267"><ele>275.25</ele><time>2026-04-17T12:54:03.609Z</time></trkpt><trkpt lat="42.6780933" lon="12.2537683"><ele>274.0</ele><time>2026-04-17T12:54:04.609Z</time></trkpt><trkpt lat="42.6781917" lon="12.2538117"><ele>274.0</ele><time>2026-04-17T12:54:05.609Z</time></trkpt><trkpt lat="42.6782867" lon="12.25386"><ele>274.0</ele><time>2026-04-17T12:54:06.609Z</time></trkpt><trkpt lat="42.678375" lon="12.2539033"><ele>274.0</ele><time>2026-04-17T12:54:07.609Z</time></trkpt><trkpt lat="42.6784467" lon="12.2539583"><ele>274.0</ele><time>2026-04-17T12:54:08.609Z</time></trkpt><trkpt lat="42.678505" lon="12.2540167"><ele>274.0</ele><time>2026-04-17T12:54:09.609Z</time></trkpt><trkpt lat="42.67856" lon="12.2540817"><ele>274.0</ele><time>2026-04-17T12:54:10.609Z</time></trkpt><trkpt lat="42.678605" lon="12.2541517"><ele>274.8571428571429</ele><time>2026-04-17T12:54:11.609Z</time></trkpt><trkpt lat="42.6786433" lon="12.254225"><ele>275.7142857142857</ele><time>2026-04-17T12:54:12.609Z</time></trkpt><trkpt lat="42.67868" lon="12.2543"><ele>276.57142857142856</ele><time>2026-04-17T12:54:13.609Z</time></trkpt><trkpt lat="42.6787117" lon="12.254385"><ele>277.42857142857144</ele><time>2026-04-17T12:54:14.609Z</time></trkpt><trkpt lat="42.678735" lon="12.2544783"><ele>278.2857142857143</ele><time>2026-04-17T12:54:15.608Z</time></trkpt><trkpt lat="42.6787517" lon="12.25458"><ele>279.14285714285717</ele><time>2026-04-17T12:54:16.609Z</time></trkpt><trkpt lat="42.6787583" lon="12.2546783"><ele>280.0</ele><time>2026-04-17T12:54:17.609Z</time></trkpt><trkpt lat="42.678755" lon="12.2547783"><ele>279.3333333333333</ele><time>2026-04-17T12:54:18.608Z</time></trkpt><trkpt lat="42.678745" lon="12.2548783"><ele>278.66666666666663</ele><time>2026-04-17T12:54:19.608Z</time></trkpt><trkpt lat="42.6787267" lon="12.2549733"><ele>278.0</ele><time>2026-04-17T12:54:20.608Z</time></trkpt><trkpt lat="42.6786967" lon="12.255065"><ele>277.3333333333333</ele><time>2026-04-17T12:54:21.609Z</time></trkpt><trkpt lat="42.67866" lon="12.255155"><ele>276.6666666666667</ele><time>2026-04-17T12:54:22.609Z</time></trkpt><trkpt lat="42.6786133" lon="12.2552533"><ele>276.0</ele><time>2026-04-17T12:54:23.609Z</time></trkpt><trkpt lat="42.678555" lon="12.2553467"><ele>276.0</ele><time>2026-04-17T12:54:24.609Z</time></trkpt><trkpt lat="42.6784983" lon="12.255445"><ele>276.0</ele><time>2026-04-17T12:54:25.609Z</time></trkpt><trkpt lat="42.678435" lon="12.2555583"><ele>276.0</ele><time>2026-04-17T12:54:26.609Z</time></trkpt><trkpt lat="42.67837" lon="12.25567"><ele>276.0</ele><time>2026-04-17T12:54:27.608Z</time></trkpt><trkpt lat="42.6783067" lon="12.255775"><ele>276.0</ele><time>2026-04-17T12:54:28.609Z</time></trkpt><trkpt lat="42.6782417" lon="12.2558817"><ele>274.40000000000003</ele><time>2026-04-17T12:54:29.608Z</time></trkpt><trkpt lat="42.67818" lon="12.2559983"><ele>272.8</ele><time>2026-04-17T12:54:30.608Z</time></trkpt><trkpt lat="42.678115" lon="12.2561067"><ele>271.20000000000005</ele><time>2026-04-17T12:54:31.609Z</time></trkpt><trkpt lat="42.67805" lon="12.25622"><ele>269.6</ele><time>2026-04-17T12:54:32.609Z</time></trkpt><trkpt lat="42.67798" lon="12.2563333"><ele>268.0</ele><time>2026-04-17T12:54:33.609Z</time></trkpt><trkpt lat="42.6779117" lon="12.2564483"><ele>267.0</ele><time>2026-04-17T12:54:34.608Z</time></trkpt><trkpt lat="42.67785" lon="12.25655"><ele>266.0</ele><time>2026-04-17T12:54:35.608Z</time></trkpt><trkpt lat="42.6777883" lon="12.2566533"><ele>265.0</ele><time>2026-04-17T12:54:36.608Z</time></trkpt><trkpt lat="42.67773" lon="12.2567517"><ele>264.0</ele><time>2026-04-17T12:54:37.609Z</time></trkpt><trkpt lat="42.6776867" lon="12.2568517"><ele>263.0</ele><time>2026-04-17T12:54:38.609Z</time></trkpt><trkpt lat="42.6776533" lon="12.25696"><ele>263.0</ele><time>2026-04-17T12:54:39.608Z</time></trkpt><trkpt lat="42.67764" lon="12.257065"><ele>263.0</ele><time>2026-04-17T12:54:40.609Z</time></trkpt><trkpt lat="42.6776417" lon="12.25718"><ele>263.0</ele><time>2026-04-17T12:54:41.609Z</time></trkpt><trkpt lat="42.67766" lon="12.257305"><ele>263.0</ele><time>2026-04-17T12:54:42.608Z</time></trkpt><trkpt lat="42.67769" lon="12.2574417"><ele>263.0</ele><time>2026-04-17T12:54:43.609Z</time></trkpt><trkpt lat="42.677725" lon="12.2575867"><ele>261.0</ele><time>2026-04-17T12:54:44.609Z</time></trkpt><trkpt lat="42.677765" lon="12.25773"><ele>259.0</ele><time>2026-04-17T12:54:45.609Z</time></trkpt><trkpt lat="42.67781" lon="12.2578567"><ele>257.0</ele><time>2026-04-17T12:54:46.609Z</time></trkpt><trkpt lat="42.677855" lon="12.25798"><ele>255.0</ele><time>2026-04-17T12:54:47.608Z</time></trkpt><trkpt lat="42.6778933" lon="12.25809"><ele>253.0</ele><time>2026-04-17T12:54:48.608Z</time></trkpt><trkpt lat="42.677915" lon="12.2581967"><ele>252.99999999999997</ele><time>2026-04-17T12:54:49.609Z</time></trkpt><trkpt lat="42.6779217" lon="12.2583117"><ele>253.0</ele><time>2026-04-17T12:54:50.609Z</time></trkpt><trkpt lat="42.6779083" lon="12.2584183"><ele>253.0</ele><time>2026-04-17T12:54:51.608Z</time></trkpt><trkpt lat="42.6778783" lon="12.2585183"><ele>253.0</ele><time>2026-04-17T12:54:52.608Z</time></trkpt><trkpt lat="42.6778217" lon="12.25861"><ele>252.99999999999997</ele><time>2026-04-17T12:54:53.609Z</time></trkpt><trkpt lat="42.6777433" lon="12.2586983"><ele>253.0</ele><time>2026-04-17T12:54:54.609Z</time></trkpt><trkpt lat="42.6776467" lon="12.25878"><ele>252.5</ele><time>2026-04-17T12:54:55.608Z</time></trkpt><trkpt lat="42.6775367" lon="12.258835"><ele>252.0</ele><time>2026-04-17T12:54:56.609Z</time></trkpt><trkpt lat="42.6774183" lon="12.2588783"><ele>251.5</ele><time>2026-04-17T12:54:57.609Z</time></trkpt><trkpt lat="42.6773067" lon="12.2589083"><ele>251.0</ele><time>2026-04-17T12:54:58.609Z</time></trkpt><trkpt lat="42.6772083" lon="12.2589283"><ele>251.00000000000003</ele><time>2026-04-17T12:54:59.609Z</time></trkpt><trkpt lat="42.67712" lon="12.2589433"><ele>251.0</ele><time>2026-04-17T12:55:00.609Z</time></trkpt><trkpt lat="42.67704" lon="12.25895"><ele>251.0</ele><time>2026-04-17T12:55:01.608Z</time></trkpt><trkpt lat="42.6769683" lon="12.2589433"><ele>251.0</ele><time>2026-04-17T12:55:02.609Z</time></trkpt><trkpt lat="42.676895" lon="12.2589217"><ele>251.00000000000003</ele><time>2026-04-17T12:55:03.608Z</time></trkpt><trkpt lat="42.6768217" lon="12.2588967"><ele>251.0</ele><time>2026-04-17T12:55:04.609Z</time></trkpt><trkpt lat="42.6767033" lon="12.2588717"><ele>249.60000000000002</ele><time>2026-04-17T12:55:06.609Z</time></trkpt><trkpt lat="42.676615" lon="12.258905"><ele>248.20000000000002</ele><time>2026-04-17T12:55:08.608Z</time></trkpt><trkpt lat="42.676575" lon="12.2590167"><ele>246.79999999999998</ele><time>2026-04-17T12:55:10.609Z</time></trkpt><trkpt lat="42.6766183" lon="12.2591533"><ele>245.39999999999998</ele><time>2026-04-17T12:55:12.609Z</time></trkpt><trkpt lat="42.67667" lon="12.25923"><ele>244.0</ele><time>2026-04-17T12:55:13.609Z</time></trkpt><trkpt lat="42.67673" lon="12.2593133"><ele>243.99999999999997</ele><time>2026-04-17T12:55:14.608Z</time></trkpt><trkpt lat="42.67679" lon="12.2593933"><ele>244.0</ele><time>2026-04-17T12:55:15.609Z</time></trkpt><trkpt lat="42.6768483" lon="12.2594733"><ele>244.0</ele><time>2026-04-17T12:55:16.609Z</time></trkpt><trkpt lat="42.6769017" lon="12.2595583"><ele>244.0</ele><time>2026-04-17T12:55:17.608Z</time></trkpt><trkpt lat="42.6769533" lon="12.2596383"><ele>243.99999999999997</ele><time>2026-04-17T12:55:18.608Z</time></trkpt><trkpt lat="42.6770033" lon="12.2597233"><ele>244.0</ele><time>2026-04-17T12:55:19.608Z</time></trkpt><trkpt lat="42.677045" lon="12.2598067"><ele>243.49999999999997</ele><time>2026-04-17T12:55:20.609Z</time></trkpt><trkpt lat="42.6770783" lon="12.2599067"><ele>243.0</ele><time>2026-04-17T12:55:21.608Z</time></trkpt><trkpt lat="42.6770917" lon="12.26001"><ele>242.5</ele><time>2026-04-17T12:55:22.608Z</time></trkpt><trkpt lat="42.677085" lon="12.2601333"><ele>242.0</ele><time>2026-04-17T12:55:23.608Z</time></trkpt><trkpt lat="42.677075" lon="12.260265"><ele>241.49999999999997</ele><time>2026-04-17T12:55:24.609Z</time></trkpt><trkpt lat="42.6770533" lon="12.2604"><ele>241.0</ele><time>2026-04-17T12:55:25.608Z</time></trkpt><trkpt lat="42.67703" lon="12.2605217"><ele>240.16666666666666</ele><time>2026-04-17T12:55:26.608Z</time></trkpt><trkpt lat="42.677005" lon="12.2606283"><ele>239.33333333333331</ele><time>2026-04-17T12:55:27.609Z</time></trkpt><trkpt lat="42.67697" lon="12.2607183"><ele>238.5</ele><time>2026-04-17T12:55:28.608Z</time></trkpt><trkpt lat="42.67692" lon="12.2608033"><ele>237.66666666666669</ele><time>2026-04-17T12:55:29.608Z</time></trkpt><trkpt lat="42.67686" lon="12.2608733"><ele>236.83333333333334</ele><time>2026-04-17T12:55:30.608Z</time></trkpt><trkpt lat="42.6767917" lon="12.260915"><ele>236.0</ele><time>2026-04-17T12:55:31.609Z</time></trkpt><trkpt lat="42.6767183" lon="12.2609383"><ele>236.0</ele><time>2026-04-17T12:55:32.609Z</time></trkpt><trkpt lat="42.676635" lon="12.2609517"><ele>236.00000000000003</ele><time>2026-04-17T12:55:33.608Z</time></trkpt><trkpt lat="42.6765433" lon="12.260975"><ele>236.00000000000003</ele><time>2026-04-17T12:55:34.609Z</time></trkpt><trkpt lat="42.6764483" lon="12.2610117"><ele>236.0</ele><time>2026-04-17T12:55:35.609Z</time></trkpt><trkpt lat="42.6763517" lon="12.2610517"><ele>236.0</ele><time>2026-04-17T12:55:36.609Z</time></trkpt><trkpt lat="42.67626" lon="12.2610817"><ele>236.0</ele><time>2026-04-17T12:55:37.609Z</time></trkpt><trkpt lat="42.67616" lon="12.26109"><ele>236.00000000000003</ele><time>2026-04-17T12:55:38.609Z</time></trkpt><trkpt lat="42.676055" lon="12.2610733"><ele>236.00000000000003</ele><time>2026-04-17T12:55:39.609Z</time></trkpt><trkpt lat="42.675955" lon="12.2610383"><ele>236.0</ele><time>2026-04-17T12:55:40.609Z</time></trkpt><trkpt lat="42.6758583" lon="12.26101"><ele>236.0</ele><time>2026-04-17T12:55:41.608Z</time></trkpt><trkpt lat="42.6757683" lon="12.2609983"><ele>237.0</ele><time>2026-04-17T12:55:42.609Z</time></trkpt><trkpt lat="42.6756883" lon="12.26101"><ele>238.00000000000003</ele><time>2026-04-17T12:55:43.609Z</time></trkpt><trkpt lat="42.675605" lon="12.261045"><ele>239.00000000000003</ele><time>2026-04-17T12:55:44.608Z</time></trkpt><trkpt lat="42.67552" lon="12.2611"><ele>240.0</ele><time>2026-04-17T12:55:45.608Z</time></trkpt><trkpt lat="42.675425" lon="12.26116"><ele>241.0</ele><time>2026-04-17T12:55:46.609Z</time></trkpt><trkpt lat="42.675335" lon="12.2612267"><ele>240.16666666666666</ele><time>2026-04-17T12:55:47.609Z</time></trkpt><trkpt lat="42.6752533" lon="12.2612967"><ele>239.33333333333331</ele><time>2026-04-17T12:55:48.609Z</time></trkpt><trkpt lat="42.6751833" lon="12.2613633"><ele>238.5</ele><time>2026-04-17T12:55:49.609Z</time></trkpt><trkpt lat="42.6751217" lon="12.2614417"><ele>237.66666666666669</ele><time>2026-04-17T12:55:50.609Z</time></trkpt><trkpt lat="42.6750683" lon="12.2615267"><ele>236.83333333333334</ele><time>2026-04-17T12:55:51.609Z</time></trkpt><trkpt lat="42.675025" lon="12.2616283"><ele>236.0</ele><time>2026-04-17T12:55:52.609Z</time></trkpt><trkpt lat="42.675" lon="12.2617467"><ele>240.0</ele><time>2026-04-17T12:55:53.608Z</time></trkpt><trkpt lat="42.6749817" lon="12.2618833"><ele>244.0</ele><time>2026-04-17T12:55:54.609Z</time></trkpt><trkpt lat="42.674965" lon="12.26204"><ele>248.0</ele><time>2026-04-17T12:55:55.609Z</time></trkpt><trkpt lat="42.6749567" lon="12.26221"><ele>252.0</ele><time>2026-04-17T12:55:56.609Z</time></trkpt><trkpt lat="42.6749533" lon="12.2623833"><ele>254.2</ele><time>2026-04-17T12:55:57.608Z</time></trkpt><trkpt lat="42.6749517" lon="12.2625533"><ele>256.4</ele><time>2026-04-17T12:55:58.609Z</time></trkpt><trkpt lat="42.6749567" lon="12.262705"><ele>258.6</ele><time>2026-04-17T12:55:59.608Z</time></trkpt><trkpt lat="42.6749667" lon="12.2628483"><ele>260.8</ele><time>2026-04-17T12:56:00.609Z</time></trkpt><trkpt lat="42.674975" lon="12.2629717"><ele>263.0</ele><time>2026-04-17T12:56:01.609Z</time></trkpt><trkpt lat="42.6749917" lon="12.26309"><ele>263.5</ele><time>2026-04-17T12:56:02.609Z</time></trkpt><trkpt lat="42.6750183" lon="12.2631967"><ele>264.0</ele><time>2026-04-17T12:56:03.608Z</time></trkpt><trkpt lat="42.6750567" lon="12.26329"><ele>264.5</ele><time>2026-04-17T12:56:04.609Z</time></trkpt><trkpt lat="42.6751083" lon="12.263375"><ele>265.0</ele><time>2026-04-17T12:56:05.609Z</time></trkpt><trkpt lat="42.6751733" lon="12.2634533"><ele>265.5</ele><time>2026-04-17T12:56:06.608Z</time></trkpt><trkpt lat="42.6752467" lon="12.2635317"><ele>266.0</ele><time>2026-04-17T12:56:07.609Z</time></trkpt><trkpt lat="42.6753317" lon="12.2636183"><ele>266.0</ele><time>2026-04-17T12:56:08.609Z</time></trkpt><trkpt lat="42.67543" lon="12.2637083"><ele>266.0</ele><time>2026-04-17T12:56:09.609Z</time></trkpt><trkpt lat="42.6755317" lon="12.2638033"><ele>266.0</ele><time>2026-04-17T12:56:10.609Z</time></trkpt><trkpt lat="42.6756333" lon="12.2639017"><ele>266.0</ele><time>2026-04-17T12:56:11.608Z</time></trkpt><trkpt lat="42.6757317" lon="12.2639983"><ele>266.0</ele><time>2026-04-17T12:56:12.608Z</time></trkpt><trkpt lat="42.6758267" lon="12.26409"><ele>266.0</ele><time>2026-04-17T12:56:13.609Z</time></trkpt><trkpt lat="42.675915" lon="12.264185"><ele>266.0</ele><time>2026-04-17T12:56:14.609Z</time></trkpt><trkpt lat="42.6759983" lon="12.264265"><ele>266.0</ele><time>2026-04-17T12:56:15.609Z</time></trkpt><trkpt lat="42.676075" lon="12.26433"><ele>266.0</ele><time>2026-04-17T12:56:16.608Z</time></trkpt><trkpt lat="42.6761417" lon="12.26439"><ele>265.5</ele><time>2026-04-17T12:56:17.609Z</time></trkpt><trkpt lat="42.6762033" lon="12.26444"><ele>265.0</ele><time>2026-04-17T12:56:18.609Z</time></trkpt><trkpt lat="42.676255" lon="12.26449"><ele>264.5</ele><time>2026-04-17T12:56:19.609Z</time></trkpt><trkpt lat="42.6763367" lon="12.264585"><ele>264.0</ele><time>2026-04-17T12:56:21.609Z</time></trkpt><trkpt lat="42.676405" lon="12.2647283"><ele>263.5</ele><time>2026-04-17T12:56:23.608Z</time></trkpt><trkpt lat="42.6764183" lon="12.2648267"><ele>263.0</ele><time>2026-04-17T12:56:24.609Z</time></trkpt><trkpt lat="42.6764183" lon="12.26494"><ele>263.0</ele><time>2026-04-17T12:56:25.609Z</time></trkpt><trkpt lat="42.676405" lon="12.26507"><ele>263.0</ele><time>2026-04-17T12:56:26.609Z</time></trkpt><trkpt lat="42.6763783" lon="12.2652117"><ele>263.0</ele><time>2026-04-17T12:56:27.609Z</time></trkpt><trkpt lat="42.6763483" lon="12.2653417"><ele>263.0</ele><time>2026-04-17T12:56:28.609Z</time></trkpt><trkpt lat="42.6763183" lon="12.2654717"><ele>263.0</ele><time>2026-04-17T12:56:29.609Z</time></trkpt><trkpt lat="42.6762917" lon="12.2655833"><ele>264.0</ele><time>2026-04-17T12:56:30.609Z</time></trkpt><trkpt lat="42.67627" lon="12.2656817"><ele>265.0</ele><time>2026-04-17T12:56:31.609Z</time></trkpt><trkpt lat="42.6762467" lon="12.2657633"><ele>266.0</ele><time>2026-04-17T12:56:32.609Z</time></trkpt><trkpt lat="42.676205" lon="12.2658383"><ele>267.0</ele><time>2026-04-17T12:56:33.609Z</time></trkpt><trkpt lat="42.6761483" lon="12.2659117"><ele>268.0</ele><time>2026-04-17T12:56:34.608Z</time></trkpt><trkpt lat="42.6760767" lon="12.26598"><ele>269.0</ele><time>2026-04-17T12:56:35.609Z</time></trkpt><trkpt lat="42.675985" lon="12.2660267"><ele>265.5</ele><time>2026-04-17T12:56:36.609Z</time></trkpt><trkpt lat="42.67588" lon="12.266065"><ele>262.0</ele><time>2026-04-17T12:56:37.609Z</time></trkpt><trkpt lat="42.6757667" lon="12.266105"><ele>258.5</ele><time>2026-04-17T12:56:38.609Z</time></trkpt><trkpt lat="42.6756467" lon="12.2661483"><ele>255.0</ele><time>2026-04-17T12:56:39.608Z</time></trkpt><trkpt lat="42.6755233" lon="12.2661917"><ele>255.0</ele><time>2026-04-17T12:56:40.608Z</time></trkpt><trkpt lat="42.6753983" lon="12.2662333"><ele>255.0</ele><time>2026-04-17T12:56:41.608Z</time></trkpt><trkpt lat="42.675275" lon="12.2662933"><ele>255.0</ele><time>2026-04-17T12:56:42.608Z</time></trkpt><trkpt lat="42.6751467" lon="12.266345"><ele>255.0</ele><time>2026-04-17T12:56:43.609Z</time></trkpt><trkpt lat="42.6750283" lon="12.26641"><ele>252.25</ele><time>2026-04-17T12:56:44.609Z</time></trkpt><trkpt lat="42.6749183" lon="12.2664933"><ele>249.5</ele><time>2026-04-17T12:56:45.609Z</time></trkpt><trkpt lat="42.674815" lon="12.2665783"><ele>246.75</ele><time>2026-04-17T12:56:46.609Z</time></trkpt><trkpt lat="42.6747017" lon="12.266675"><ele>244.0</ele><time>2026-04-17T12:56:47.609Z</time></trkpt><trkpt lat="42.6745883" lon="12.2667767"><ele>244.0</ele><time>2026-04-17T12:56:48.609Z</time></trkpt><trkpt lat="42.6744783" lon="12.2668867"><ele>244.0</ele><time>2026-04-17T12:56:49.609Z</time></trkpt><trkpt lat="42.6743767" lon="12.267"><ele>244.0</ele><time>2026-04-17T12:56:50.609Z</time></trkpt><trkpt lat="42.674295" lon="12.2671133"><ele>244.0</ele><time>2026-04-17T12:56:51.608Z</time></trkpt><trkpt lat="42.6742233" lon="12.267225"><ele>243.39999999999998</ele><time>2026-04-17T12:56:52.609Z</time></trkpt><trkpt lat="42.67416" lon="12.267325"><ele>242.79999999999998</ele><time>2026-04-17T12:56:53.609Z</time></trkpt><trkpt lat="42.6741017" lon="12.267425"><ele>242.20000000000002</ele><time>2026-04-17T12:56:54.609Z</time></trkpt><trkpt lat="42.6740333" lon="12.26751"><ele>241.60000000000002</ele><time>2026-04-17T12:56:55.609Z</time></trkpt><trkpt lat="42.673955" lon="12.26759"><ele>241.0</ele><time>2026-04-17T12:56:56.609Z</time></trkpt><trkpt lat="42.673865" lon="12.2676567"><ele>241.0</ele><time>2026-04-17T12:56:57.608Z</time></trkpt><trkpt lat="42.673765" lon="12.2677067"><ele>241.0</ele><time>2026-04-17T12:56:58.607Z</time></trkpt><trkpt lat="42.6736467" lon="12.267745"><ele>241.0</ele><time>2026-04-17T12:56:59.608Z</time></trkpt><trkpt lat="42.673515" lon="12.2677917"><ele>241.0</ele><time>2026-04-17T12:57:00.607Z</time></trkpt><trkpt lat="42.6733733" lon="12.2678433"><ele>241.0</ele><time>2026-04-17T12:57:01.608Z</time></trkpt><trkpt lat="42.6732283" lon="12.2678917"><ele>241.0</ele><time>2026-04-17T12:57:02.608Z</time></trkpt><trkpt lat="42.6730917" lon="12.2679467"><ele>241.0</ele><time>2026-04-17T12:57:03.608Z</time></trkpt><trkpt lat="42.6729583" lon="12.26799"><ele>241.0</ele><time>2026-04-17T12:57:04.607Z</time></trkpt><trkpt lat="42.6728217" lon="12.2680433"><ele>237.66666666666666</ele><time>2026-04-17T12:57:05.608Z</time></trkpt><trkpt lat="42.67267" lon="12.2680967"><ele>234.33333333333331</ele><time>2026-04-17T12:57:06.608Z</time></trkpt><trkpt lat="42.67252" lon="12.268145"><ele>231.0</ele><time>2026-04-17T12:57:07.607Z</time></trkpt><trkpt lat="42.6723783" lon="12.2681933"><ele>230.0</ele><time>2026-04-17T12:57:08.607Z</time></trkpt><trkpt lat="42.672245" lon="12.2682383"><ele>229.0</ele><time>2026-04-17T12:57:09.608Z</time></trkpt><trkpt lat="42.6721233" lon="12.2682783"><ele>228.0</ele><time>2026-04-17T12:57:10.607Z</time></trkpt><trkpt lat="42.67201" lon="12.268315"><ele>227.0</ele><time>2026-04-17T12:57:11.608Z</time></trkpt><trkpt lat="42.6718983" lon="12.2683483"><ele>225.6</ele><time>2026-04-17T12:57:12.608Z</time></trkpt><trkpt lat="42.67179" lon="12.268375"><ele>224.2</ele><time>2026-04-17T12:57:13.608Z</time></trkpt><trkpt lat="42.6716867" lon="12.2683767"><ele>222.8</ele><time>2026-04-17T12:57:14.608Z</time></trkpt><trkpt lat="42.671585" lon="12.2683817"><ele>221.4</ele><time>2026-04-17T12:57:15.608Z</time></trkpt><trkpt lat="42.67148" lon="12.26837"><ele>220.0</ele><time>2026-04-17T12:57:16.608Z</time></trkpt><trkpt lat="42.671385" lon="12.2683517"><ele>219.99999999999997</ele><time>2026-04-17T12:57:17.607Z</time></trkpt><trkpt lat="42.6712983" lon="12.2683317"><ele>220.0</ele><time>2026-04-17T12:57:18.608Z</time></trkpt><trkpt lat="42.67122" lon="12.26831"><ele>220.0</ele><time>2026-04-17T12:57:19.607Z</time></trkpt><trkpt lat="42.67115" lon="12.2683"><ele>220.0</ele><time>2026-04-17T12:57:20.608Z</time></trkpt><trkpt lat="42.671085" lon="12.268305"><ele>219.99999999999997</ele><time>2026-04-17T12:57:21.607Z</time></trkpt><trkpt lat="42.6709817" lon="12.26838"><ele>220.0</ele><time>2026-04-17T12:57:23.608Z</time></trkpt><trkpt lat="42.6709383" lon="12.2684467"><ele>219.99999999999997</ele><time>2026-04-17T12:57:24.608Z</time></trkpt><trkpt lat="42.6709183" lon="12.2685967"><ele>220.0</ele><time>2026-04-17T12:57:26.608Z</time></trkpt><trkpt lat="42.6709467" lon="12.2686733"><ele>220.0</ele><time>2026-04-17T12:57:27.608Z</time></trkpt><trkpt lat="42.67099" lon="12.26875"><ele>220.0</ele><time>2026-04-17T12:57:28.608Z</time></trkpt><trkpt lat="42.67105" lon="12.268835"><ele>219.99999999999997</ele><time>2026-04-17T12:57:29.608Z</time></trkpt><trkpt lat="42.6711217" lon="12.2689183"><ele>220.0</ele><time>2026-04-17T12:57:30.608Z</time></trkpt><trkpt lat="42.67119" lon="12.269005"><ele>218.6</ele><time>2026-04-17T12:57:31.608Z</time></trkpt><trkpt lat="42.6712633" lon="12.26908"><ele>217.2</ele><time>2026-04-17T12:57:32.608Z</time></trkpt><trkpt lat="42.6713417" lon="12.269135"><ele>215.8</ele><time>2026-04-17T12:57:33.608Z</time></trkpt><trkpt lat="42.671425" lon="12.2691717"><ele>214.4</ele><time>2026-04-17T12:57:34.608Z</time></trkpt><trkpt lat="42.671525" lon="12.269195"><ele>213.0</ele><time>2026-04-17T12:57:35.608Z</time></trkpt><trkpt lat="42.67164" lon="12.2692167"><ele>213.0</ele><time>2026-04-17T12:57:36.608Z</time></trkpt><trkpt lat="42.671765" lon="12.2692367"><ele>213.0</ele><time>2026-04-17T12:57:37.607Z</time></trkpt><trkpt lat="42.6718833" lon="12.2692517"><ele>213.0</ele><time>2026-04-17T12:57:38.607Z</time></trkpt><trkpt lat="42.6719833" lon="12.2692633"><ele>213.0</ele><time>2026-04-17T12:57:39.608Z</time></trkpt><trkpt lat="42.6720683" lon="12.2692783"><ele>213.0</ele><time>2026-04-17T12:57:40.608Z</time></trkpt><trkpt lat="42.6721483" lon="12.26929"><ele>213.5</ele><time>2026-04-17T12:57:41.607Z</time></trkpt><trkpt lat="42.6722183" lon="12.2693"><ele>214.0</ele><time>2026-04-17T12:57:42.608Z</time></trkpt><trkpt lat="42.6722817" lon="12.2693167"><ele>214.5</ele><time>2026-04-17T12:57:43.608Z</time></trkpt><trkpt lat="42.6723617" lon="12.2694"><ele>215.0</ele><time>2026-04-17T12:57:45.608Z</time></trkpt><trkpt lat="42.6723983" lon="12.269515"><ele>215.5</ele><time>2026-04-17T12:57:47.608Z</time></trkpt><trkpt lat="42.6723733" lon="12.269645"><ele>216.0</ele><time>2026-04-17T12:57:49.608Z</time></trkpt><trkpt lat="42.6722767" lon="12.2697567"><ele>215.4</ele><time>2026-04-17T12:57:51.608Z</time></trkpt><trkpt lat="42.6722117" lon="12.2697767"><ele>214.8</ele><time>2026-04-17T12:57:52.608Z</time></trkpt><trkpt lat="42.6721217" lon="12.269785"><ele>214.20000000000002</ele><time>2026-04-17T12:57:53.608Z</time></trkpt><trkpt lat="42.6720067" lon="12.2697817"><ele>213.60000000000002</ele><time>2026-04-17T12:57:54.608Z</time></trkpt><trkpt lat="42.6718633" lon="12.2697733"><ele>213.0</ele><time>2026-04-17T12:57:55.607Z</time></trkpt><trkpt lat="42.6717" lon="12.2697667"><ele>213.0</ele><time>2026-04-17T12:57:56.608Z</time></trkpt><trkpt lat="42.6715267" lon="12.2697667"><ele>213.0</ele><time>2026-04-17T12:57:57.608Z</time></trkpt><trkpt lat="42.67136" lon="12.269765"><ele>213.0</ele><time>2026-04-17T12:57:58.608Z</time></trkpt><trkpt lat="42.6712133" lon="12.2697683"><ele>212.25</ele><time>2026-04-17T12:57:59.608Z</time></trkpt><trkpt lat="42.6710867" lon="12.269765"><ele>211.5</ele><time>2026-04-17T12:58:00.608Z</time></trkpt><trkpt lat="42.67097" lon="12.269765"><ele>210.75</ele><time>2026-04-17T12:58:01.608Z</time></trkpt><trkpt lat="42.6708617" lon="12.2697767"><ele>210.0</ele><time>2026-04-17T12:58:02.608Z</time></trkpt><trkpt lat="42.6707567" lon="12.2697967"><ele>207.66666666666666</ele><time>2026-04-17T12:58:03.607Z</time></trkpt><trkpt lat="42.6706633" lon="12.2698167"><ele>205.33333333333331</ele><time>2026-04-17T12:58:04.608Z</time></trkpt><trkpt lat="42.6705867" lon="12.2698483"><ele>203.0</ele><time>2026-04-17T12:58:05.608Z</time></trkpt><trkpt lat="42.670505" lon="12.2698817"><ele>200.66666666666666</ele><time>2026-04-17T12:58:06.607Z</time></trkpt><trkpt lat="42.670425" lon="12.26991"><ele>198.33333333333331</ele><time>2026-04-17T12:58:07.608Z</time></trkpt><trkpt lat="42.67035" lon="12.2699333"><ele>196.0</ele><time>2026-04-17T12:58:08.607Z</time></trkpt><trkpt lat="42.6702717" lon="12.269955"><ele>196.33333333333331</ele><time>2026-04-17T12:58:09.608Z</time></trkpt><trkpt lat="42.670195" lon="12.2699633"><ele>196.66666666666666</ele><time>2026-04-17T12:58:10.608Z</time></trkpt><trkpt lat="42.6701183" lon="12.2699617"><ele>197.0</ele><time>2026-04-17T12:58:11.607Z</time></trkpt><trkpt lat="42.6700483" lon="12.26993"><ele>197.33333333333331</ele><time>2026-04-17T12:58:12.608Z</time></trkpt><trkpt lat="42.66997" lon="12.2698683"><ele>197.66666666666666</ele><time>2026-04-17T12:58:13.608Z</time></trkpt><trkpt lat="42.6698883" lon="12.2697867"><ele>198.0</ele><time>2026-04-17T12:58:14.607Z</time></trkpt><trkpt lat="42.6697983" lon="12.2696883"><ele>198.0</ele><time>2026-04-17T12:58:15.608Z</time></trkpt><trkpt lat="42.6696967" lon="12.2695917"><ele>198.0</ele><time>2026-04-17T12:58:16.608Z</time></trkpt><trkpt lat="42.6696" lon="12.2694983"><ele>198.0</ele><time>2026-04-17T12:58:17.607Z</time></trkpt><trkpt lat="42.6695133" lon="12.2694083"><ele>198.0</ele><time>2026-04-17T12:58:18.608Z</time></trkpt><trkpt lat="42.6694367" lon="12.269325"><ele>194.8</ele><time>2026-04-17T12:58:19.608Z</time></trkpt><trkpt lat="42.669365" lon="12.2692317"><ele>191.60000000000002</ele><time>2026-04-17T12:58:20.608Z</time></trkpt><trkpt lat="42.6693067" lon="12.2691183"><ele>188.39999999999998</ele><time>2026-04-17T12:58:21.607Z</time></trkpt><trkpt lat="42.6692617" lon="12.2689817"><ele>185.2</ele><time>2026-04-17T12:58:22.608Z</time></trkpt><trkpt lat="42.6692167" lon="12.2688317"><ele>182.0</ele><time>2026-04-17T12:58:23.608Z</time></trkpt><trkpt lat="42.6691667" lon="12.2686767"><ele>181.8</ele><time>2026-04-17T12:58:24.607Z</time></trkpt><trkpt lat="42.66911" lon="12.2685317"><ele>181.6</ele><time>2026-04-17T12:58:25.608Z</time></trkpt><trkpt lat="42.6690583" lon="12.2684083"><ele>181.4</ele><time>2026-04-17T12:58:26.607Z</time></trkpt><trkpt lat="42.6690133" lon="12.2683167"><ele>181.20000000000002</ele><time>2026-04-17T12:58:27.608Z</time></trkpt><trkpt lat="42.6689533" lon="12.2682017"><ele>181.0</ele><time>2026-04-17T12:58:29.608Z</time></trkpt><trkpt lat="42.6689133" lon="12.2681033"><ele>181.0</ele><time>2026-04-17T12:58:31.607Z</time></trkpt><trkpt lat="42.6688667" lon="12.26801"><ele>181.0</ele><time>2026-04-17T12:58:33.608Z</time></trkpt><trkpt lat="42.6688133" lon="12.2679283"><ele>181.0</ele><time>2026-04-17T12:58:35.608Z</time></trkpt><trkpt lat="42.66876" lon="12.2678467"><ele>181.0</ele><time>2026-04-17T12:58:38.608Z</time></trkpt><trkpt lat="42.6686967" lon="12.2677433"><ele>181.0</ele><time>2026-04-17T12:59:43.608Z</time></trkpt><trkpt lat="42.6686133" lon="12.26766"><ele>181.0</ele><time>2026-04-17T12:59:45.608Z</time></trkpt><trkpt lat="42.6685583" lon="12.2676083"><ele>180.5</ele><time>2026-04-17T12:59:46.608Z</time></trkpt><trkpt lat="42.6685017" lon="12.2675467"><ele>180.0</ele><time>2026-04-17T12:59:47.608Z</time></trkpt><trkpt lat="42.6684433" lon="12.2674717"><ele>179.5</ele><time>2026-04-17T12:59:48.607Z</time></trkpt><trkpt lat="42.6683917" lon="12.267385"><ele>179.0</ele><time>2026-04-17T12:59:49.608Z</time></trkpt><trkpt lat="42.6683433" lon="12.2672917"><ele>178.5</ele><time>2026-04-17T12:59:50.608Z</time></trkpt><trkpt lat="42.668295" lon="12.2671983"><ele>178.0</ele><time>2026-04-17T12:59:51.608Z</time></trkpt><trkpt lat="42.6682467" lon="12.267115"><ele>178.0</ele><time>2026-04-17T12:59:52.608Z</time></trkpt><trkpt lat="42.6681933" lon="12.267045"><ele>178.0</ele><time>2026-04-17T12:59:53.607Z</time></trkpt><trkpt lat="42.6681233" lon="12.267"><ele>178.0</ele><time>2026-04-17T12:59:54.607Z</time></trkpt><trkpt lat="42.6680367" lon="12.2669667"><ele>178.0</ele><time>2026-04-17T12:59:55.608Z</time></trkpt><trkpt lat="42.667935" lon="12.2669367"><ele>178.0</ele><time>2026-04-17T12:59:56.608Z</time></trkpt><trkpt lat="42.66784" lon="12.2669"><ele>178.0</ele><time>2026-04-17T12:59:57.608Z</time></trkpt><trkpt lat="42.667745" lon="12.266855"><ele>176.2</ele><time>2026-04-17T12:59:58.608Z</time></trkpt><trkpt lat="42.66765" lon="12.26681"><ele>174.4</ele><time>2026-04-17T12:59:59.608Z</time></trkpt><trkpt lat="42.6675533" lon="12.2667583"><ele>172.6</ele><time>2026-04-17T13:00:00.608Z</time></trkpt><trkpt lat="42.6674517" lon="12.2667083"><ele>170.79999999999998</ele><time>2026-04-17T13:00:01.608Z</time></trkpt><trkpt lat="42.6673517" lon="12.2666517"><ele>169.0</ele><time>2026-04-17T13:00:02.608Z</time></trkpt><trkpt lat="42.6672567" lon="12.2666033"><ele>169.0</ele><time>2026-04-17T13:00:03.608Z</time></trkpt><trkpt lat="42.6671633" lon="12.2665483"><ele>169.0</ele><time>2026-04-17T13:00:04.608Z</time></trkpt><trkpt lat="42.667075" lon="12.2664967"><ele>169.0</ele><time>2026-04-17T13:00:05.608Z</time></trkpt><trkpt lat="42.666995" lon="12.266455"><ele>169.0</ele><time>2026-04-17T13:00:06.607Z</time></trkpt><trkpt lat="42.6669283" lon="12.26641"><ele>169.0</ele><time>2026-04-17T13:00:07.607Z</time></trkpt><trkpt lat="42.666865" lon="12.26636"><ele>169.0</ele><time>2026-04-17T13:00:08.608Z</time></trkpt><trkpt lat="42.6668067" lon="12.2662517"><ele>168.5</ele><time>2026-04-17T13:00:10.607Z</time></trkpt><trkpt lat="42.66682" lon="12.26614"><ele>168.0</ele><time>2026-04-17T13:00:12.608Z</time></trkpt><trkpt lat="42.6668517" lon="12.266015"><ele>167.5</ele><time>2026-04-17T13:00:14.608Z</time></trkpt><trkpt lat="42.66684" lon="12.265865"><ele>167.0</ele><time>2026-04-17T13:00:16.608Z</time></trkpt><trkpt lat="42.66682" lon="12.26578"><ele>166.5</ele><time>2026-04-17T13:00:17.607Z</time></trkpt><trkpt lat="42.6667917" lon="12.2656883"><ele>166.0</ele><time>2026-04-17T13:00:18.608Z</time></trkpt><trkpt lat="42.6667533" lon="12.2656133"><ele>166.20000000000002</ele><time>2026-04-17T13:00:19.608Z</time></trkpt><trkpt lat="42.6666933" lon="12.2655433"><ele>166.4</ele><time>2026-04-17T13:00:20.608Z</time></trkpt><trkpt lat="42.6666317" lon="12.2654667"><ele>166.6</ele><time>2026-04-17T13:00:21.608Z</time></trkpt><trkpt lat="42.6665583" lon="12.26539"><ele>166.8</ele><time>2026-04-17T13:00:22.608Z</time></trkpt><trkpt lat="42.6664717" lon="12.2653033"><ele>167.0</ele><time>2026-04-17T13:00:23.607Z</time></trkpt><trkpt lat="42.6663767" lon="12.2652217"><ele>167.0</ele><time>2026-04-17T13:00:24.608Z</time></trkpt><trkpt lat="42.6662833" lon="12.2651633"><ele>167.0</ele><time>2026-04-17T13:00:25.608Z</time></trkpt><trkpt lat="42.6661867" lon="12.26513"><ele>167.0</ele><time>2026-04-17T13:00:26.608Z</time></trkpt><trkpt lat="42.6661083" lon="12.265125"><ele>167.0</ele><time>2026-04-17T13:00:27.608Z</time></trkpt><trkpt lat="42.6660417" lon="12.2651317"><ele>167.0</ele><time>2026-04-17T13:00:28.607Z</time></trkpt><trkpt lat="42.6659683" lon="12.2651333"><ele>167.0</ele><time>2026-04-17T13:00:29.608Z</time></trkpt><trkpt lat="42.6658833" lon="12.2651133"><ele>166.5</ele><time>2026-04-17T13:00:30.608Z</time></trkpt><trkpt lat="42.6657867" lon="12.26508"><ele>166.0</ele><time>2026-04-17T13:00:31.608Z</time></trkpt><trkpt lat="42.665675" lon="12.2650267"><ele>165.5</ele><time>2026-04-17T13:00:32.607Z</time></trkpt><trkpt lat="42.6655467" lon="12.26496"><ele>165.0</ele><time>2026-04-17T13:00:33.608Z</time></trkpt><trkpt lat="42.6654083" lon="12.2648917"><ele>164.25</ele><time>2026-04-17T13:00:34.608Z</time></trkpt><trkpt lat="42.665265" lon="12.26482"><ele>163.5</ele><time>2026-04-17T13:00:35.608Z</time></trkpt><trkpt lat="42.665125" lon="12.2647483"><ele>162.75</ele><time>2026-04-17T13:00:36.608Z</time></trkpt><trkpt lat="42.6649883" lon="12.2646767"><ele>162.0</ele><time>2026-04-17T13:00:37.608Z</time></trkpt><trkpt lat="42.664845" lon="12.2646083"><ele>162.75</ele><time>2026-04-17T13:00:38.607Z</time></trkpt><trkpt lat="42.6647117" lon="12.264535"><ele>163.5</ele><time>2026-04-17T13:00:39.608Z</time></trkpt><trkpt lat="42.6645867" lon="12.2644717"><ele>164.25</ele><time>2026-04-17T13:00:40.608Z</time></trkpt><trkpt lat="42.6644667" lon="12.264405"><ele>165.0</ele><time>2026-04-17T13:00:41.607Z</time></trkpt><trkpt lat="42.6643467" lon="12.26434"><ele>165.0</ele><time>2026-04-17T13:00:42.608Z</time></trkpt><trkpt lat="42.6642417" lon="12.2642783"><ele>165.0</ele><time>2026-04-17T13:00:43.608Z</time></trkpt><trkpt lat="42.6641483" lon="12.264235"><ele>165.0</ele><time>2026-04-17T13:00:44.608Z</time></trkpt><trkpt lat="42.6640583" lon="12.2641933"><ele>165.0</ele><time>2026-04-17T13:00:45.608Z</time></trkpt><trkpt lat="42.6639817" lon="12.2641567"><ele>165.0</ele><time>2026-04-17T13:00:46.608Z</time></trkpt><trkpt lat="42.6639117" lon="12.2641317"><ele>165.0</ele><time>2026-04-17T13:00:47.608Z</time></trkpt><trkpt lat="42.6638083" lon="12.2640833"><ele>165.0</ele><time>2026-04-17T13:00:49.608Z</time></trkpt><trkpt lat="42.6637267" lon="12.26405"><ele>165.0</ele><time>2026-04-17T13:00:51.607Z</time></trkpt><trkpt lat="42.6636533" lon="12.2640383"><ele>165.0</ele><time>2026-04-17T13:00:53.607Z</time></trkpt><trkpt lat="42.6635733" lon="12.2640483"><ele>165.0</ele><time>2026-04-17T13:00:55.608Z</time></trkpt><trkpt lat="42.6634917" lon="12.2640683"><ele>165.0</ele><time>2026-04-17T13:00:57.608Z</time></trkpt><trkpt lat="42.66342" lon="12.2641117"><ele>163.8</ele><time>2026-04-17T13:00:59.608Z</time></trkpt><trkpt lat="42.6633633" lon="12.2641933"><ele>162.6</ele><time>2026-04-17T13:01:01.608Z</time></trkpt><trkpt lat="42.66333" lon="12.2643067"><ele>161.4</ele><time>2026-04-17T13:01:03.608Z</time></trkpt><trkpt lat="42.6633183" lon="12.2644783"><ele>160.2</ele><time>2026-04-17T13:01:05.608Z</time></trkpt><trkpt lat="42.66331" lon="12.264585"><ele>159.0</ele><time>2026-04-17T13:01:06.607Z</time></trkpt><trkpt lat="42.6633033" lon="12.264715"><ele>159.8</ele><time>2026-04-17T13:01:07.608Z</time></trkpt><trkpt lat="42.663285" lon="12.2648533"><ele>160.60000000000002</ele><time>2026-04-17T13:01:08.608Z</time></trkpt><trkpt lat="42.6632667" lon="12.2649883"><ele>161.4</ele><time>2026-04-17T13:01:09.608Z</time></trkpt><trkpt lat="42.6632467" lon="12.2651317"><ele>162.20000000000002</ele><time>2026-04-17T13:01:10.608Z</time></trkpt><trkpt lat="42.66322" lon="12.2652567"><ele>163.0</ele><time>2026-04-17T13:01:11.608Z</time></trkpt><trkpt lat="42.6632017" lon="12.2653667"><ele>163.0</ele><time>2026-04-17T13:01:12.607Z</time></trkpt><trkpt lat="42.6631717" lon="12.2654833"><ele>163.0</ele><time>2026-04-17T13:01:13.608Z</time></trkpt><trkpt lat="42.6631617" lon="12.2656067"><ele>163.0</ele><time>2026-04-17T13:01:14.608Z</time></trkpt><trkpt lat="42.6631467" lon="12.2657267"><ele>163.0</ele><time>2026-04-17T13:01:15.607Z</time></trkpt><trkpt lat="42.6631317" lon="12.2658267"><ele>163.0</ele><time>2026-04-17T13:01:16.608Z</time></trkpt><trkpt lat="42.66312" lon="12.265915"><ele>163.0</ele><time>2026-04-17T13:01:17.608Z</time></trkpt><trkpt lat="42.6630967" lon="12.2659967"><ele>164.5</ele><time>2026-04-17T13:01:18.608Z</time></trkpt><trkpt lat="42.6630633" lon="12.2660833"><ele>166.0</ele><time>2026-04-17T13:01:19.608Z</time></trkpt><trkpt lat="42.6630133" lon="12.26617"><ele>167.5</ele><time>2026-04-17T13:01:20.608Z</time></trkpt><trkpt lat="42.66295" lon="12.266245"><ele>169.0</ele><time>2026-04-17T13:01:21.608Z</time></trkpt><trkpt lat="42.662875" lon="12.2663367"><ele>170.5</ele><time>2026-04-17T13:01:22.608Z</time></trkpt><trkpt lat="42.6628017" lon="12.2664283"><ele>172.0</ele><time>2026-04-17T13:01:23.608Z</time></trkpt><trkpt lat="42.6627333" lon="12.2665283"><ele>173.0</ele><time>2026-04-17T13:01:24.608Z</time></trkpt><trkpt lat="42.6626817" lon="12.26662"><ele>174.0</ele><time>2026-04-17T13:01:25.608Z</time></trkpt><trkpt lat="42.6626333" lon="12.26672"><ele>175.0</ele><time>2026-04-17T13:01:26.608Z</time></trkpt><trkpt lat="42.6625967" lon="12.2668233"><ele>176.0</ele><time>2026-04-17T13:01:27.608Z</time></trkpt><trkpt lat="42.66256" lon="12.266935"><ele>177.0</ele><time>2026-04-17T13:01:28.608Z</time></trkpt><trkpt lat="42.6625217" lon="12.2670417"><ele>178.0</ele><time>2026-04-17T13:01:29.608Z</time></trkpt><trkpt lat="42.66247" lon="12.2671683"><ele>179.0</ele><time>2026-04-17T13:01:30.607Z</time></trkpt><trkpt lat="42.662415" lon="12.2672983"><ele>180.0</ele><time>2026-04-17T13:01:31.607Z</time></trkpt><trkpt lat="42.6623633" lon="12.2673917"><ele>181.0</ele><time>2026-04-17T13:01:32.608Z</time></trkpt><trkpt lat="42.6623183" lon="12.26748"><ele>182.0</ele><time>2026-04-17T13:01:33.608Z</time></trkpt><trkpt lat="42.6622833" lon="12.2675683"><ele>183.0</ele><time>2026-04-17T13:01:34.607Z</time></trkpt><trkpt lat="42.6622417" lon="12.2676617"><ele>184.0</ele><time>2026-04-17T13:01:35.608Z</time></trkpt><trkpt lat="42.6621933" lon="12.2677583"><ele>184.0</ele><time>2026-04-17T13:01:36.607Z</time></trkpt><trkpt lat="42.662145" lon="12.2678633"><ele>184.0</ele><time>2026-04-17T13:01:37.608Z</time></trkpt><trkpt lat="42.6620967" lon="12.2679683"><ele>184.0</ele><time>2026-04-17T13:01:38.608Z</time></trkpt><trkpt lat="42.662055" lon="12.26808"><ele>184.0</ele><time>2026-04-17T13:01:39.608Z</time></trkpt><trkpt lat="42.6620217" lon="12.268195"><ele>184.0</ele><time>2026-04-17T13:01:40.608Z</time></trkpt><trkpt lat="42.6619817" lon="12.2683017"><ele>185.16666666666669</ele><time>2026-04-17T13:01:41.607Z</time></trkpt><trkpt lat="42.6619517" lon="12.2684117"><ele>186.33333333333334</ele><time>2026-04-17T13:01:42.608Z</time></trkpt><trkpt lat="42.661915" lon="12.2685"><ele>187.5</ele><time>2026-04-17T13:01:43.608Z</time></trkpt><trkpt lat="42.66187" lon="12.2685917"><ele>188.66666666666666</ele><time>2026-04-17T13:01:44.608Z</time></trkpt><trkpt lat="42.661815" lon="12.2686817"><ele>189.83333333333331</ele><time>2026-04-17T13:01:45.608Z</time></trkpt><trkpt lat="42.661755" lon="12.2687833"><ele>191.0</ele><time>2026-04-17T13:01:46.608Z</time></trkpt><trkpt lat="42.66169" lon="12.26891"><ele>193.20000000000002</ele><time>2026-04-17T13:01:47.608Z</time></trkpt><trkpt lat="42.66162" lon="12.2690133"><ele>195.4</ele><time>2026-04-17T13:01:48.608Z</time></trkpt><trkpt lat="42.661555" lon="12.2691183"><ele>197.6</ele><time>2026-04-17T13:01:49.608Z</time></trkpt><trkpt lat="42.6614967" lon="12.2692167"><ele>199.8</ele><time>2026-04-17T13:01:50.608Z</time></trkpt><trkpt lat="42.6614367" lon="12.2693133"><ele>202.0</ele><time>2026-04-17T13:01:51.607Z</time></trkpt><trkpt lat="42.6613767" lon="12.26941"><ele>202.0</ele><time>2026-04-17T13:01:52.607Z</time></trkpt><trkpt lat="42.66131" lon="12.2695083"><ele>202.0</ele><time>2026-04-17T13:01:53.608Z</time></trkpt><trkpt lat="42.6612433" lon="12.269605"><ele>202.0</ele><time>2026-04-17T13:01:54.607Z</time></trkpt><trkpt lat="42.66119" lon="12.2697067"><ele>202.0</ele><time>2026-04-17T13:01:55.608Z</time></trkpt><trkpt lat="42.6611333" lon="12.2698233"><ele>202.0</ele><time>2026-04-17T13:01:56.607Z</time></trkpt><trkpt lat="42.66108" lon="12.2699333"><ele>203.49999999999997</ele><time>2026-04-17T13:01:57.608Z</time></trkpt><trkpt lat="42.66103" lon="12.2700283"><ele>205.0</ele><time>2026-04-17T13:01:58.608Z</time></trkpt><trkpt lat="42.6609867" lon="12.2701217"><ele>206.5</ele><time>2026-04-17T13:01:59.608Z</time></trkpt><trkpt lat="42.6609317" lon="12.2702083"><ele>208.0</ele><time>2026-04-17T13:02:00.608Z</time></trkpt><trkpt lat="42.6608833" lon="12.270295"><ele>209.49999999999997</ele><time>2026-04-17T13:02:01.607Z</time></trkpt><trkpt lat="42.6608283" lon="12.2703933"><ele>211.0</ele><time>2026-04-17T13:02:02.608Z</time></trkpt><trkpt lat="42.6607717" lon="12.27049"><ele>211.0</ele><time>2026-04-17T13:02:03.608Z</time></trkpt><trkpt lat="42.6607183" lon="12.2705833"><ele>211.0</ele><time>2026-04-17T13:02:04.608Z</time></trkpt><trkpt lat="42.66068" lon="12.270665"><ele>211.0</ele><time>2026-04-17T13:02:05.608Z</time></trkpt><trkpt lat="42.66066" lon="12.27075"><ele>211.0</ele><time>2026-04-17T13:02:06.607Z</time></trkpt><trkpt lat="42.6606633" lon="12.2709167"><ele>211.0</ele><time>2026-04-17T13:02:08.608Z</time></trkpt><trkpt lat="42.6607167" lon="12.2710733"><ele>212.16666666666666</ele><time>2026-04-17T13:02:10.607Z</time></trkpt><trkpt lat="42.6607583" lon="12.27116"><ele>213.33333333333331</ele><time>2026-04-17T13:02:11.607Z</time></trkpt><trkpt lat="42.6608033" lon="12.2712533"><ele>214.5</ele><time>2026-04-17T13:02:12.608Z</time></trkpt><trkpt lat="42.66085" lon="12.2713483"><ele>215.66666666666669</ele><time>2026-04-17T13:02:13.607Z</time></trkpt><trkpt lat="42.6608933" lon="12.27145"><ele>216.83333333333334</ele><time>2026-04-17T13:02:14.608Z</time></trkpt><trkpt lat="42.6609433" lon="12.2715533"><ele>218.0</ele><time>2026-04-17T13:02:15.608Z</time></trkpt><trkpt lat="42.6609883" lon="12.27166"><ele>218.2</ele><time>2026-04-17T13:02:16.608Z</time></trkpt><trkpt lat="42.66103" lon="12.271765"><ele>218.4</ele><time>2026-04-17T13:02:17.607Z</time></trkpt><trkpt lat="42.6610783" lon="12.2718667"><ele>218.59999999999997</ele><time>2026-04-17T13:02:18.607Z</time></trkpt><trkpt lat="42.6611333" lon="12.2719683"><ele>218.79999999999998</ele><time>2026-04-17T13:02:19.608Z</time></trkpt><trkpt lat="42.6612" lon="12.2720667"><ele>219.0</ele><time>2026-04-17T13:02:20.608Z</time></trkpt><trkpt lat="42.6612667" lon="12.27216"><ele>220.0</ele><time>2026-04-17T13:02:21.608Z</time></trkpt><trkpt lat="42.6613283" lon="12.2722333"><ele>221.0</ele><time>2026-04-17T13:02:22.608Z</time></trkpt><trkpt lat="42.6613833" lon="12.2723017"><ele>222.0</ele><time>2026-04-17T13:02:23.608Z</time></trkpt><trkpt lat="42.6614317" lon="12.2723617"><ele>223.0</ele><time>2026-04-17T13:02:24.608Z</time></trkpt><trkpt lat="42.6614967" lon="12.272475"><ele>224.0</ele><time>2026-04-17T13:02:26.608Z</time></trkpt><trkpt lat="42.661505" lon="12.2725867"><ele>225.0</ele><time>2026-04-17T13:02:28.608Z</time></trkpt><trkpt lat="42.6614683" lon="12.2727067"><ele>225.0</ele><time>2026-04-17T13:02:30.608Z</time></trkpt><trkpt lat="42.661445" lon="12.272795"><ele>225.0</ele><time>2026-04-17T13:02:31.608Z</time></trkpt><trkpt lat="42.6614167" lon="12.272885"><ele>225.0</ele><time>2026-04-17T13:02:32.608Z</time></trkpt><trkpt lat="42.661395" lon="12.2729783"><ele>225.0</ele><time>2026-04-17T13:02:33.608Z</time></trkpt><trkpt lat="42.66137" lon="12.27308"><ele>225.0</ele><time>2026-04-17T13:02:34.608Z</time></trkpt><trkpt lat="42.6613483" lon="12.2731917"><ele>225.0</ele><time>2026-04-17T13:02:35.608Z</time></trkpt><trkpt lat="42.6613317" lon="12.27331"><ele>226.0</ele><time>2026-04-17T13:02:36.607Z</time></trkpt><trkpt lat="42.6613217" lon="12.273435"><ele>227.0</ele><time>2026-04-17T13:02:37.608Z</time></trkpt><trkpt lat="42.66131" lon="12.2735633"><ele>228.0</ele><time>2026-04-17T13:02:38.608Z</time></trkpt><trkpt lat="42.6613033" lon="12.2737067"><ele>229.0</ele><time>2026-04-17T13:02:39.607Z</time></trkpt><trkpt lat="42.6612983" lon="12.2738483"><ele>230.0</ele><time>2026-04-17T13:02:40.608Z</time></trkpt><trkpt lat="42.6613" lon="12.274"><ele>231.2</ele><time>2026-04-17T13:02:41.607Z</time></trkpt><trkpt lat="42.6612967" lon="12.2741383"><ele>232.4</ele><time>2026-04-17T13:02:42.608Z</time></trkpt><trkpt lat="42.6613083" lon="12.27426"><ele>233.60000000000002</ele><time>2026-04-17T13:02:43.608Z</time></trkpt><trkpt lat="42.6613333" lon="12.2743967"><ele>234.8</ele><time>2026-04-17T13:02:44.608Z</time></trkpt><trkpt lat="42.6613583" lon="12.2745217"><ele>236.0</ele><time>2026-04-17T13:02:45.608Z</time></trkpt><trkpt lat="42.6613717" lon="12.2746383"><ele>236.00000000000003</ele><time>2026-04-17T13:02:46.608Z</time></trkpt><trkpt lat="42.6613817" lon="12.27476"><ele>236.0</ele><time>2026-04-17T13:02:47.607Z</time></trkpt><trkpt lat="42.6613833" lon="12.2748683"><ele>236.0</ele><time>2026-04-17T13:02:48.608Z</time></trkpt><trkpt lat="42.6613783" lon="12.2749717"><ele>236.0</ele><time>2026-04-17T13:02:49.607Z</time></trkpt><trkpt lat="42.6613567" lon="12.2750667"><ele>236.00000000000003</ele><time>2026-04-17T13:02:50.607Z</time></trkpt><trkpt lat="42.6613117" lon="12.2751367"><ele>236.0</ele><time>2026-04-17T13:02:51.608Z</time></trkpt><trkpt lat="42.6612467" lon="12.2751733"><ele>237.83333333333334</ele><time>2026-04-17T13:02:52.607Z</time></trkpt><trkpt lat="42.6611617" lon="12.27521"><ele>239.66666666666669</ele><time>2026-04-17T13:02:53.607Z</time></trkpt><trkpt lat="42.661065" lon="12.2752317"><ele>241.5</ele><time>2026-04-17T13:02:54.607Z</time></trkpt><trkpt lat="42.6609767" lon="12.275245"><ele>243.33333333333331</ele><time>2026-04-17T13:02:55.608Z</time></trkpt><trkpt lat="42.66091" lon="12.27528"><ele>245.16666666666666</ele><time>2026-04-17T13:02:56.608Z</time></trkpt><trkpt lat="42.66086" lon="12.2753433"><ele>247.0</ele><time>2026-04-17T13:02:57.608Z</time></trkpt><trkpt lat="42.66084" lon="12.2755"><ele>250.0</ele><time>2026-04-17T13:02:59.607Z</time></trkpt><trkpt lat="42.6608733" lon="12.275615"><ele>253.0</ele><time>2026-04-17T13:03:00.608Z</time></trkpt><trkpt lat="42.660915" lon="12.2757633"><ele>256.0</ele><time>2026-04-17T13:03:01.608Z</time></trkpt><trkpt lat="42.6609617" lon="12.27592"><ele>259.0</ele><time>2026-04-17T13:03:02.607Z</time></trkpt><trkpt lat="42.6610017" lon="12.27607"><ele>262.0</ele><time>2026-04-17T13:03:03.608Z</time></trkpt><trkpt lat="42.6610383" lon="12.2762183"><ele>262.0</ele><time>2026-04-17T13:03:04.607Z</time></trkpt><trkpt lat="42.6610633" lon="12.276365"><ele>262.0</ele><time>2026-04-17T13:03:05.608Z</time></trkpt><trkpt lat="42.6610867" lon="12.276495"><ele>262.0</ele><time>2026-04-17T13:03:06.608Z</time></trkpt><trkpt lat="42.6611117" lon="12.27662"><ele>262.0</ele><time>2026-04-17T13:03:07.608Z</time></trkpt><trkpt lat="42.6611317" lon="12.276725"><ele>262.0</ele><time>2026-04-17T13:03:08.608Z</time></trkpt><trkpt lat="42.661165" lon="12.276825"><ele>263.8</ele><time>2026-04-17T13:03:09.608Z</time></trkpt><trkpt lat="42.661205" lon="12.27692"><ele>265.6</ele><time>2026-04-17T13:03:10.608Z</time></trkpt><trkpt lat="42.6612617" lon="12.27702"><ele>267.40000000000003</ele><time>2026-04-17T13:03:11.608Z</time></trkpt><trkpt lat="42.6613267" lon="12.2771283"><ele>269.2</ele><time>2026-04-17T13:03:12.608Z</time></trkpt><trkpt lat="42.66139" lon="12.2772367"><ele>271.0</ele><time>2026-04-17T13:03:13.608Z</time></trkpt><trkpt lat="42.6614533" lon="12.2773517"><ele>273.5</ele><time>2026-04-17T13:03:14.608Z</time></trkpt><trkpt lat="42.6615133" lon="12.2774667"><ele>276.0</ele><time>2026-04-17T13:03:15.608Z</time></trkpt><trkpt lat="42.6615783" lon="12.2776033"><ele>278.5</ele><time>2026-04-17T13:03:16.608Z</time></trkpt><trkpt lat="42.6616417" lon="12.277745"><ele>281.0</ele><time>2026-04-17T13:03:17.607Z</time></trkpt><trkpt lat="42.6617083" lon="12.2778917"><ele>281.0</ele><time>2026-04-17T13:03:18.607Z</time></trkpt><trkpt lat="42.66178" lon="12.2780383"><ele>281.0</ele><time>2026-04-17T13:03:19.608Z</time></trkpt><trkpt lat="42.6618517" lon="12.2781733"><ele>281.0</ele><time>2026-04-17T13:03:20.608Z</time></trkpt><trkpt lat="42.661925" lon="12.278305"><ele>281.0</ele><time>2026-04-17T13:03:21.608Z</time></trkpt><trkpt lat="42.662" lon="12.27845"><ele>282.25</ele><time>2026-04-17T13:03:22.608Z</time></trkpt><trkpt lat="42.6620833" lon="12.2785967"><ele>283.5</ele><time>2026-04-17T13:03:23.607Z</time></trkpt><trkpt lat="42.6621733" lon="12.2787267"><ele>284.75</ele><time>2026-04-17T13:03:24.607Z</time></trkpt><trkpt lat="42.662255" lon="12.2788433"><ele>286.0</ele><time>2026-04-17T13:03:25.608Z</time></trkpt><trkpt lat="42.6623333" lon="12.2789433"><ele>287.40000000000003</ele><time>2026-04-17T13:03:26.608Z</time></trkpt><trkpt lat="42.6624033" lon="12.2790367"><ele>288.8</ele><time>2026-04-17T13:03:27.608Z</time></trkpt><trkpt lat="42.6624683" lon="12.2791267"><ele>290.20000000000005</ele><time>2026-04-17T13:03:28.608Z</time></trkpt><trkpt lat="42.6625433" lon="12.27921"><ele>291.6</ele><time>2026-04-17T13:03:29.608Z</time></trkpt><trkpt lat="42.6626167" lon="12.27928"><ele>293.0</ele><time>2026-04-17T13:03:30.607Z</time></trkpt><trkpt lat="42.6627083" lon="12.2793333"><ele>292.8</ele><time>2026-04-17T13:03:31.608Z</time></trkpt><trkpt lat="42.6628083" lon="12.2793733"><ele>292.6</ele><time>2026-04-17T13:03:32.607Z</time></trkpt><trkpt lat="42.6629133" lon="12.2794083"><ele>292.4</ele><time>2026-04-17T13:03:33.608Z</time></trkpt><trkpt lat="42.66302" lon="12.2794483"><ele>292.2</ele><time>2026-04-17T13:03:34.608Z</time></trkpt><trkpt lat="42.6631133" lon="12.279495"><ele>292.0</ele><time>2026-04-17T13:03:35.608Z</time></trkpt><trkpt lat="42.663195" lon="12.2795617"><ele>292.0</ele><time>2026-04-17T13:03:36.608Z</time></trkpt><trkpt lat="42.6632567" lon="12.2796317"><ele>292.0</ele><time>2026-04-17T13:03:37.608Z</time></trkpt><trkpt lat="42.6633217" lon="12.2797067"><ele>292.0</ele><time>2026-04-17T13:03:38.608Z</time></trkpt><trkpt lat="42.6633717" lon="12.2798033"><ele>292.0</ele><time>2026-04-17T13:03:39.608Z</time></trkpt><trkpt lat="42.663415" lon="12.2799217"><ele>292.0</ele><time>2026-04-17T13:03:40.608Z</time></trkpt><trkpt lat="42.6634567" lon="12.2800417"><ele>292.0</ele><time>2026-04-17T13:03:41.608Z</time></trkpt><trkpt lat="42.6634983" lon="12.2801583"><ele>293.6</ele><time>2026-04-17T13:03:42.608Z</time></trkpt><trkpt lat="42.6635483" lon="12.2802817"><ele>295.2</ele><time>2026-04-17T13:03:43.608Z</time></trkpt><trkpt lat="42.663605" lon="12.2804083"><ele>296.8</ele><time>2026-04-17T13:03:44.608Z</time></trkpt><trkpt lat="42.6636617" lon="12.2805267"><ele>298.4</ele><time>2026-04-17T13:03:45.608Z</time></trkpt><trkpt lat="42.663695" lon="12.2806367"><ele>300.0</ele><time>2026-04-17T13:03:46.608Z</time></trkpt><trkpt lat="42.6637217" lon="12.2807383"><ele>301.2</ele><time>2026-04-17T13:03:47.607Z</time></trkpt><trkpt lat="42.6637367" lon="12.280835"><ele>302.4</ele><time>2026-04-17T13:03:48.607Z</time></trkpt><trkpt lat="42.6637567" lon="12.2810017"><ele>303.6</ele><time>2026-04-17T13:03:50.608Z</time></trkpt><trkpt lat="42.6637583" lon="12.28113"><ele>304.8</ele><time>2026-04-17T13:03:52.608Z</time></trkpt><trkpt lat="42.6637533" lon="12.2812467"><ele>306.0</ele><time>2026-04-17T13:03:54.608Z</time></trkpt><trkpt lat="42.6637333" lon="12.2813433"><ele>306.0</ele><time>2026-04-17T13:03:56.608Z</time></trkpt><trkpt lat="42.6636867" lon="12.281415"><ele>306.0</ele><time>2026-04-17T13:03:59.608Z</time></trkpt><trkpt lat="42.6636133" lon="12.28144"><ele>306.0</ele><time>2026-04-17T13:04:23.608Z</time></trkpt><trkpt lat="42.6635433" lon="12.2814483"><ele>306.0</ele><time>2026-04-17T13:04:24.608Z</time></trkpt><trkpt lat="42.6634733" lon="12.2814583"><ele>306.0</ele><time>2026-04-17T13:04:25.608Z</time></trkpt><trkpt lat="42.6633983" lon="12.2814767"><ele>306.0</ele><time>2026-04-17T13:04:26.608Z</time></trkpt><trkpt lat="42.6633183" lon="12.2815083"><ele>306.0</ele><time>2026-04-17T13:04:27.607Z</time></trkpt><trkpt lat="42.6632433" lon="12.281555"><ele>306.5</ele><time>2026-04-17T13:04:28.608Z</time></trkpt><trkpt lat="42.6631717" lon="12.2816383"><ele>307.0</ele><time>2026-04-17T13:04:29.607Z</time></trkpt><trkpt lat="42.66309" lon="12.2817483"><ele>307.5</ele><time>2026-04-17T13:04:30.607Z</time></trkpt><trkpt lat="42.6630067" lon="12.2818717"><ele>308.0</ele><time>2026-04-17T13:04:31.607Z</time></trkpt><trkpt lat="42.6629217" lon="12.2819883"><ele>308.0</ele><time>2026-04-17T13:04:32.607Z</time></trkpt><trkpt lat="42.6628367" lon="12.282105"><ele>308.0</ele><time>2026-04-17T13:04:33.607Z</time></trkpt><trkpt lat="42.6627467" lon="12.2822267"><ele>308.0</ele><time>2026-04-17T13:04:34.607Z</time></trkpt><trkpt lat="42.66266" lon="12.282355"><ele>308.0</ele><time>2026-04-17T13:04:35.606Z</time></trkpt><trkpt lat="42.6625667" lon="12.2824783"><ele>308.25</ele><time>2026-04-17T13:04:36.607Z</time></trkpt><trkpt lat="42.6624783" lon="12.282605"><ele>308.5</ele><time>2026-04-17T13:04:37.607Z</time></trkpt><trkpt lat="42.662395" lon="12.2827217"><ele>308.75</ele><time>2026-04-17T13:04:38.606Z</time></trkpt><trkpt lat="42.6623183" lon="12.2828333"><ele>309.0</ele><time>2026-04-17T13:04:39.606Z</time></trkpt><trkpt lat="42.6622417" lon="12.282935"><ele>309.0</ele><time>2026-04-17T13:04:40.607Z</time></trkpt><trkpt lat="42.6621633" lon="12.2830217"><ele>309.0</ele><time>2026-04-17T13:04:41.607Z</time></trkpt><trkpt lat="42.6620733" lon="12.2830783"><ele>309.0</ele><time>2026-04-17T13:04:42.607Z</time></trkpt><trkpt lat="42.6619817" lon="12.28311"><ele>309.0</ele><time>2026-04-17T13:04:43.607Z</time></trkpt><trkpt lat="42.66189" lon="12.2831183"><ele>309.0</ele><time>2026-04-17T13:04:44.606Z</time></trkpt><trkpt lat="42.6618017" lon="12.2831217"><ele>309.5</ele><time>2026-04-17T13:04:45.606Z</time></trkpt><trkpt lat="42.6617267" lon="12.283115"><ele>310.0</ele><time>2026-04-17T13:04:46.607Z</time></trkpt><trkpt lat="42.66166" lon="12.2831067"><ele>310.5</ele><time>2026-04-17T13:04:47.606Z</time></trkpt><trkpt lat="42.6615567" lon="12.2831"><ele>311.0</ele><time>2026-04-17T13:04:49.607Z</time></trkpt><trkpt lat="42.6614767" lon="12.28309"><ele>311.5</ele><time>2026-04-17T13:04:51.607Z</time></trkpt><trkpt lat="42.661415" lon="12.28316"><ele>312.0</ele><time>2026-04-17T13:04:54.606Z</time></trkpt><trkpt lat="42.661415" lon="12.2832483"><ele>312.0</ele><time>2026-04-17T13:04:56.607Z</time></trkpt><trkpt lat="42.6614933" lon="12.2833683"><ele>312.0</ele><time>2026-04-17T13:04:58.607Z</time></trkpt><trkpt lat="42.6615533" lon="12.2834467"><ele>312.0</ele><time>2026-04-17T13:04:59.607Z</time></trkpt><trkpt lat="42.6616167" lon="12.283525"><ele>312.0</ele><time>2026-04-17T13:05:00.606Z</time></trkpt><trkpt lat="42.661685" lon="12.2836"><ele>312.0</ele><time>2026-04-17T13:05:01.607Z</time></trkpt><trkpt lat="42.661755" lon="12.283675"><ele>312.0</ele><time>2026-04-17T13:05:02.607Z</time></trkpt><trkpt lat="42.6618267" lon="12.28373"><ele>312.0</ele><time>2026-04-17T13:05:03.607Z</time></trkpt><trkpt lat="42.661905" lon="12.2837683"><ele>312.0</ele><time>2026-04-17T13:05:04.607Z</time></trkpt><trkpt lat="42.661995" lon="12.283785"><ele>312.0</ele><time>2026-04-17T13:05:05.607Z</time></trkpt><trkpt lat="42.6620933" lon="12.2837683"><ele>312.0</ele><time>2026-04-17T13:05:06.607Z</time></trkpt><trkpt lat="42.6622067" lon="12.2837183"><ele>314.75</ele><time>2026-04-17T13:05:07.607Z</time></trkpt><trkpt lat="42.6623233" lon="12.2836683"><ele>317.5</ele><time>2026-04-17T13:05:08.607Z</time></trkpt><trkpt lat="42.662445" lon="12.283615"><ele>320.25</ele><time>2026-04-17T13:05:09.607Z</time></trkpt><trkpt lat="42.6625617" lon="12.2835467"><ele>323.0</ele><time>2026-04-17T13:05:10.607Z</time></trkpt><trkpt lat="42.66267" lon="12.28347"><ele>325.25</ele><time>2026-04-17T13:05:11.607Z</time></trkpt><trkpt lat="42.6627917" lon="12.2834033"><ele>327.5</ele><time>2026-04-17T13:05:12.607Z</time></trkpt><trkpt lat="42.6629133" lon="12.2833383"><ele>329.75</ele><time>2026-04-17T13:05:13.607Z</time></trkpt><trkpt lat="42.6630267" lon="12.28328"><ele>332.0</ele><time>2026-04-17T13:05:14.607Z</time></trkpt><trkpt lat="42.6631333" lon="12.2832167"><ele>332.0</ele><time>2026-04-17T13:05:15.607Z</time></trkpt><trkpt lat="42.663225" lon="12.2831567"><ele>332.0</ele><time>2026-04-17T13:05:16.607Z</time></trkpt><trkpt lat="42.6633067" lon="12.2831083"><ele>332.0</ele><time>2026-04-17T13:05:17.606Z</time></trkpt><trkpt lat="42.66339" lon="12.2830717"><ele>332.0</ele><time>2026-04-17T13:05:18.607Z</time></trkpt><trkpt lat="42.663465" lon="12.2830733"><ele>332.0</ele><time>2026-04-17T13:05:19.607Z</time></trkpt><trkpt lat="42.6635267" lon="12.2831217"><ele>332.0</ele><time>2026-04-17T13:05:20.607Z</time></trkpt><trkpt lat="42.66358" lon="12.283205"><ele>332.0</ele><time>2026-04-17T13:05:21.607Z</time></trkpt><trkpt lat="42.6635967" lon="12.2832933"><ele>332.0</ele><time>2026-04-17T13:05:22.607Z</time></trkpt><trkpt lat="42.66358" lon="12.2833867"><ele>332.0</ele><time>2026-04-17T13:05:23.607Z</time></trkpt><trkpt lat="42.663545" lon="12.2834667"><ele>332.0</ele><time>2026-04-17T13:05:24.607Z</time></trkpt><trkpt lat="42.6634617" lon="12.2835533"><ele>332.0</ele><time>2026-04-17T13:05:26.606Z</time></trkpt><trkpt lat="42.6633933" lon="12.28363"><ele>332.0</ele><time>2026-04-17T13:05:39.607Z</time></trkpt><trkpt lat="42.66336" lon="12.2837083"><ele>332.0</ele><time>2026-04-17T13:05:41.607Z</time></trkpt><trkpt lat="42.6634317" lon="12.2836933"><ele>332.0</ele><time>2026-04-17T13:05:47.606Z</time></trkpt><trkpt lat="42.6634867" lon="12.2835767"><ele>332.0</ele><time>2026-04-17T13:05:49.607Z</time></trkpt><trkpt lat="42.6635517" lon="12.2835617"><ele>332.0</ele><time>2026-04-17T13:05:51.606Z</time></trkpt><trkpt lat="42.66361" lon="12.28367"><ele>332.0</ele><time>2026-04-17T13:05:53.607Z</time></trkpt><trkpt lat="42.6636283" lon="12.2837733"><ele>332.0</ele><time>2026-04-17T13:05:54.607Z</time></trkpt><trkpt lat="42.6636517" lon="12.2838967"><ele>331.25</ele><time>2026-04-17T13:05:55.607Z</time></trkpt><trkpt lat="42.6636867" lon="12.28404"><ele>330.5</ele><time>2026-04-17T13:05:56.606Z</time></trkpt><trkpt lat="42.663735" lon="12.2841883"><ele>329.75</ele><time>2026-04-17T13:05:57.607Z</time></trkpt><trkpt lat="42.6638033" lon="12.2843533"><ele>329.0</ele><time>2026-04-17T13:05:58.606Z</time></trkpt><trkpt lat="42.6638833" lon="12.2845333"><ele>329.0</ele><time>2026-04-17T13:05:59.607Z</time></trkpt><trkpt lat="42.6639533" lon="12.2847"><ele>329.0</ele><time>2026-04-17T13:06:00.607Z</time></trkpt><trkpt lat="42.6640033" lon="12.2848683"><ele>329.0</ele><time>2026-04-17T13:06:01.607Z</time></trkpt><trkpt lat="42.6640283" lon="12.2850433"><ele>329.0</ele><time>2026-04-17T13:06:02.606Z</time></trkpt><trkpt lat="42.66404" lon="12.2852133"><ele>331.5</ele><time>2026-04-17T13:06:03.607Z</time></trkpt><trkpt lat="42.6640467" lon="12.2853967"><ele>334.0</ele><time>2026-04-17T13:06:04.607Z</time></trkpt><trkpt lat="42.6640367" lon="12.2855817"><ele>336.5</ele><time>2026-04-17T13:06:05.607Z</time></trkpt><trkpt lat="42.66401" lon="12.2857683"><ele>339.0</ele><time>2026-04-17T13:06:06.607Z</time></trkpt><trkpt lat="42.6640033" lon="12.2859617"><ele>340.0</ele><time>2026-04-17T13:06:07.606Z</time></trkpt><trkpt lat="42.664" lon="12.286155"><ele>341.0</ele><time>2026-04-17T13:06:08.607Z</time></trkpt><trkpt lat="42.663995" lon="12.28635"><ele>342.0</ele><time>2026-04-17T13:06:09.606Z</time></trkpt><trkpt lat="42.6639833" lon="12.28654"><ele>343.0</ele><time>2026-04-17T13:06:10.607Z</time></trkpt><trkpt lat="42.66397" lon="12.2867233"><ele>344.25</ele><time>2026-04-17T13:06:11.606Z</time></trkpt><trkpt lat="42.6639617" lon="12.286895"><ele>345.5</ele><time>2026-04-17T13:06:12.607Z</time></trkpt><trkpt lat="42.6639517" lon="12.2870617"><ele>346.75</ele><time>2026-04-17T13:06:13.606Z</time></trkpt><trkpt lat="42.6639517" lon="12.28722"><ele>348.0</ele><time>2026-04-17T13:06:14.607Z</time></trkpt><trkpt lat="42.6639617" lon="12.2873667"><ele>349.5</ele><time>2026-04-17T13:06:15.607Z</time></trkpt><trkpt lat="42.66399" lon="12.2875133"><ele>351.0</ele><time>2026-04-17T13:06:16.607Z</time></trkpt><trkpt lat="42.66403" lon="12.287655"><ele>352.5</ele><time>2026-04-17T13:06:17.607Z</time></trkpt><trkpt lat="42.6640867" lon="12.28779"><ele>354.0</ele><time>2026-04-17T13:06:18.607Z</time></trkpt><trkpt lat="42.6641683" lon="12.2879133"><ele>354.0</ele><time>2026-04-17T13:06:19.607Z</time></trkpt><trkpt lat="42.6642417" lon="12.2880317"><ele>354.0</ele><time>2026-04-17T13:06:20.607Z</time></trkpt><trkpt lat="42.6643233" lon="12.288145"><ele>354.0</ele><time>2026-04-17T13:06:21.607Z</time></trkpt><trkpt lat="42.6643933" lon="12.28825"><ele>354.0</ele><time>2026-04-17T13:06:22.606Z</time></trkpt><trkpt lat="42.664455" lon="12.2883517"><ele>354.0</ele><time>2026-04-17T13:06:23.607Z</time></trkpt><trkpt lat="42.66451" lon="12.2884483"><ele>353.6</ele><time>2026-04-17T13:06:24.606Z</time></trkpt><trkpt lat="42.6645717" lon="12.2885483"><ele>353.2</ele><time>2026-04-17T13:06:25.606Z</time></trkpt><trkpt lat="42.6646267" lon="12.2886567"><ele>352.8</ele><time>2026-04-17T13:06:26.607Z</time></trkpt><trkpt lat="42.6646933" lon="12.2887683"><ele>352.40000000000003</ele><time>2026-04-17T13:06:27.607Z</time></trkpt><trkpt lat="42.6647617" lon="12.2888817"><ele>352.0</ele><time>2026-04-17T13:06:28.607Z</time></trkpt><trkpt lat="42.6648417" lon="12.289005"><ele>356.0</ele><time>2026-04-17T13:06:29.606Z</time></trkpt><trkpt lat="42.6649183" lon="12.2891383"><ele>360.0</ele><time>2026-04-17T13:06:30.607Z</time></trkpt><trkpt lat="42.6649933" lon="12.289275"><ele>364.0</ele><time>2026-04-17T13:06:31.607Z</time></trkpt><trkpt lat="42.6650617" lon="12.289395"><ele>368.0</ele><time>2026-04-17T13:06:32.607Z</time></trkpt><trkpt lat="42.6651317" lon="12.28951"><ele>368.0</ele><time>2026-04-17T13:06:33.607Z</time></trkpt><trkpt lat="42.6652067" lon="12.289625"><ele>368.0</ele><time>2026-04-17T13:06:34.607Z</time></trkpt><trkpt lat="42.665265" lon="12.2897267"><ele>368.0</ele><time>2026-04-17T13:06:35.607Z</time></trkpt><trkpt lat="42.6653217" lon="12.2898233"><ele>368.0</ele><time>2026-04-17T13:06:36.606Z</time></trkpt><trkpt lat="42.66537" lon="12.28993"><ele>368.0</ele><time>2026-04-17T13:06:37.607Z</time></trkpt><trkpt lat="42.6654133" lon="12.29004"><ele>367.4</ele><time>2026-04-17T13:06:38.607Z</time></trkpt><trkpt lat="42.6654517" lon="12.2901567"><ele>366.79999999999995</ele><time>2026-04-17T13:06:39.606Z</time></trkpt><trkpt lat="42.6654917" lon="12.290275"><ele>366.2</ele><time>2026-04-17T13:06:40.607Z</time></trkpt><trkpt lat="42.66553" lon="12.2904083"><ele>365.6</ele><time>2026-04-17T13:06:41.607Z</time></trkpt><trkpt lat="42.6655567" lon="12.2905483"><ele>365.0</ele><time>2026-04-17T13:06:42.606Z</time></trkpt><trkpt lat="42.6655667" lon="12.2906983"><ele>366.75</ele><time>2026-04-17T13:06:43.607Z</time></trkpt><trkpt lat="42.6655667" lon="12.2908667"><ele>368.5</ele><time>2026-04-17T13:06:44.606Z</time></trkpt><trkpt lat="42.6655617" lon="12.2910533"><ele>370.25</ele><time>2026-04-17T13:06:45.607Z</time></trkpt><trkpt lat="42.6655483" lon="12.2912483"><ele>372.0</ele><time>2026-04-17T13:06:46.607Z</time></trkpt><trkpt lat="42.6655333" lon="12.2914383"><ele>373.6</ele><time>2026-04-17T13:06:47.607Z</time></trkpt><trkpt lat="42.665525" lon="12.2916083"><ele>375.20000000000005</ele><time>2026-04-17T13:06:48.607Z</time></trkpt><trkpt lat="42.66552" lon="12.2917683"><ele>376.8</ele><time>2026-04-17T13:06:49.607Z</time></trkpt><trkpt lat="42.6655317" lon="12.2919067"><ele>378.4</ele><time>2026-04-17T13:06:50.607Z</time></trkpt><trkpt lat="42.6655667" lon="12.29202"><ele>380.0</ele><time>2026-04-17T13:06:51.607Z</time></trkpt><trkpt lat="42.6656317" lon="12.292115"><ele>380.0</ele><time>2026-04-17T13:06:52.607Z</time></trkpt><trkpt lat="42.6657183" lon="12.292185"><ele>380.0</ele><time>2026-04-17T13:06:53.607Z</time></trkpt><trkpt lat="42.665825" lon="12.292215"><ele>380.0</ele><time>2026-04-17T13:06:54.607Z</time></trkpt><trkpt lat="42.6659367" lon="12.2922267"><ele>380.0</ele><time>2026-04-17T13:06:55.607Z</time></trkpt><trkpt lat="42.6660433" lon="12.2921983"><ele>380.0</ele><time>2026-04-17T13:06:56.606Z</time></trkpt><trkpt lat="42.6661383" lon="12.2921267"><ele>382.0</ele><time>2026-04-17T13:06:57.607Z</time></trkpt><trkpt lat="42.6662167" lon="12.2920183"><ele>384.0</ele><time>2026-04-17T13:06:58.607Z</time></trkpt><trkpt lat="42.6662833" lon="12.2918833"><ele>386.0</ele><time>2026-04-17T13:06:59.607Z</time></trkpt><trkpt lat="42.6663567" lon="12.2917167"><ele>388.0</ele><time>2026-04-17T13:07:00.607Z</time></trkpt><trkpt lat="42.6664233" lon="12.2915617"><ele>388.0</ele><time>2026-04-17T13:07:01.607Z</time></trkpt><trkpt lat="42.666475" lon="12.29144"><ele>388.0</ele><time>2026-04-17T13:07:02.606Z</time></trkpt><trkpt lat="42.6665417" lon="12.29134"><ele>388.0</ele><time>2026-04-17T13:07:03.606Z</time></trkpt><trkpt lat="42.6666267" lon="12.2912633"><ele>388.0</ele><time>2026-04-17T13:07:04.606Z</time></trkpt><trkpt lat="42.6667283" lon="12.2912167"><ele>388.0</ele><time>2026-04-17T13:07:05.607Z</time></trkpt><trkpt lat="42.6668283" lon="12.2912033"><ele>388.5</ele><time>2026-04-17T13:07:06.607Z</time></trkpt><trkpt lat="42.666935" lon="12.29123"><ele>389.0</ele><time>2026-04-17T13:07:07.607Z</time></trkpt><trkpt lat="42.6670383" lon="12.2912783"><ele>389.5</ele><time>2026-04-17T13:07:08.607Z</time></trkpt><trkpt lat="42.66714" lon="12.2913667"><ele>390.0</ele><time>2026-04-17T13:07:09.607Z</time></trkpt><trkpt lat="42.667245" lon="12.291475"><ele>390.0</ele><time>2026-04-17T13:07:10.607Z</time></trkpt><trkpt lat="42.6673483" lon="12.291595"><ele>390.0</ele><time>2026-04-17T13:07:11.607Z</time></trkpt><trkpt lat="42.6674617" lon="12.2917133"><ele>390.0</ele><time>2026-04-17T13:07:12.607Z</time></trkpt><trkpt lat="42.6675733" lon="12.291825"><ele>390.0</ele><time>2026-04-17T13:07:13.607Z</time></trkpt><trkpt lat="42.6676867" lon="12.2919317"><ele>388.25</ele><time>2026-04-17T13:07:14.607Z</time></trkpt><trkpt lat="42.6678017" lon="12.2920267"><ele>386.5</ele><time>2026-04-17T13:07:15.607Z</time></trkpt><trkpt lat="42.6679267" lon="12.2921067"><ele>384.75</ele><time>2026-04-17T13:07:16.606Z</time></trkpt><trkpt lat="42.668055" lon="12.2921767"><ele>383.0</ele><time>2026-04-17T13:07:17.607Z</time></trkpt><trkpt lat="42.6681917" lon="12.292225"><ele>386.5</ele><time>2026-04-17T13:07:18.606Z</time></trkpt><trkpt lat="42.6683267" lon="12.29227"><ele>390.0</ele><time>2026-04-17T13:07:19.607Z</time></trkpt><trkpt lat="42.6684583" lon="12.292315"><ele>393.5</ele><time>2026-04-17T13:07:20.607Z</time></trkpt><trkpt lat="42.6685867" lon="12.2923567"><ele>397.0</ele><time>2026-04-17T13:07:21.607Z</time></trkpt><trkpt lat="42.6687167" lon="12.292405"><ele>397.0</ele><time>2026-04-17T13:07:22.607Z</time></trkpt><trkpt lat="42.668845" lon="12.292455"><ele>397.0</ele><time>2026-04-17T13:07:23.607Z</time></trkpt><trkpt lat="42.668975" lon="12.29251"><ele>397.0</ele><time>2026-04-17T13:07:24.606Z</time></trkpt><trkpt lat="42.6691067" lon="12.29257"><ele>397.0</ele><time>2026-04-17T13:07:25.606Z</time></trkpt><trkpt lat="42.6692433" lon="12.2926233"><ele>397.0</ele><time>2026-04-17T13:07:26.606Z</time></trkpt><trkpt lat="42.6693767" lon="12.292675"><ele>397.0</ele><time>2026-04-17T13:07:27.606Z</time></trkpt><trkpt lat="42.66951" lon="12.2927217"><ele>397.0</ele><time>2026-04-17T13:07:28.607Z</time></trkpt><trkpt lat="42.66965" lon="12.2927583"><ele>397.0</ele><time>2026-04-17T13:07:29.607Z</time></trkpt><trkpt lat="42.66979" lon="12.2927933"><ele>397.25</ele><time>2026-04-17T13:07:30.607Z</time></trkpt><trkpt lat="42.669935" lon="12.2928183"><ele>397.5</ele><time>2026-04-17T13:07:31.607Z</time></trkpt><trkpt lat="42.67008" lon="12.2928283"><ele>397.75</ele><time>2026-04-17T13:07:32.607Z</time></trkpt><trkpt lat="42.6702317" lon="12.2928333"><ele>398.0</ele><time>2026-04-17T13:07:33.607Z</time></trkpt><trkpt lat="42.6703783" lon="12.2928267"><ele>400.0</ele><time>2026-04-17T13:07:34.607Z</time></trkpt><trkpt lat="42.6705083" lon="12.2928017"><ele>402.0</ele><time>2026-04-17T13:07:35.607Z</time></trkpt><trkpt lat="42.670645" lon="12.2927783"><ele>404.0</ele><time>2026-04-17T13:07:36.606Z</time></trkpt><trkpt lat="42.670775" lon="12.292745"><ele>406.0</ele><time>2026-04-17T13:07:37.607Z</time></trkpt><trkpt lat="42.6709033" lon="12.292715"><ele>406.0</ele><time>2026-04-17T13:07:38.607Z</time></trkpt><trkpt lat="42.67103" lon="12.2926833"><ele>406.0</ele><time>2026-04-17T13:07:39.606Z</time></trkpt><trkpt lat="42.671165" lon="12.2926417"><ele>406.0</ele><time>2026-04-17T13:07:40.607Z</time></trkpt><trkpt lat="42.6713" lon="12.2926033"><ele>406.0</ele><time>2026-04-17T13:07:41.607Z</time></trkpt><trkpt lat="42.6714383" lon="12.2925583"><ele>409.5</ele><time>2026-04-17T13:07:42.607Z</time></trkpt><trkpt lat="42.6715767" lon="12.2925067"><ele>413.0</ele><time>2026-04-17T13:07:43.606Z</time></trkpt><trkpt lat="42.67171" lon="12.292465"><ele>416.5</ele><time>2026-04-17T13:07:44.607Z</time></trkpt><trkpt lat="42.67183" lon="12.29243"><ele>420.0</ele><time>2026-04-17T13:07:45.607Z</time></trkpt><trkpt lat="42.67194" lon="12.2923967"><ele>420.8</ele><time>2026-04-17T13:07:46.607Z</time></trkpt><trkpt lat="42.6720483" lon="12.29237"><ele>421.6</ele><time>2026-04-17T13:07:47.606Z</time></trkpt><trkpt lat="42.6721633" lon="12.292365"><ele>422.4</ele><time>2026-04-17T13:07:48.606Z</time></trkpt><trkpt lat="42.6722667" lon="12.2923783"><ele>423.2</ele><time>2026-04-17T13:07:49.607Z</time></trkpt><trkpt lat="42.6723633" lon="12.2924233"><ele>424.0</ele><time>2026-04-17T13:07:50.607Z</time></trkpt><trkpt lat="42.6724417" lon="12.292495"><ele>424.0</ele><time>2026-04-17T13:07:51.607Z</time></trkpt><trkpt lat="42.67251" lon="12.2925767"><ele>424.0</ele><time>2026-04-17T13:07:52.607Z</time></trkpt><trkpt lat="42.6725633" lon="12.29267"><ele>424.0</ele><time>2026-04-17T13:07:53.607Z</time></trkpt><trkpt lat="42.67261" lon="12.29278"><ele>424.0</ele><time>2026-04-17T13:07:54.607Z</time></trkpt><trkpt lat="42.6726417" lon="12.2929017"><ele>424.0</ele><time>2026-04-17T13:07:55.607Z</time></trkpt><trkpt lat="42.67265" lon="12.293025"><ele>425.79999999999995</ele><time>2026-04-17T13:07:56.607Z</time></trkpt><trkpt lat="42.6726433" lon="12.2931533"><ele>427.59999999999997</ele><time>2026-04-17T13:07:57.607Z</time></trkpt><trkpt lat="42.6726167" lon="12.2932817"><ele>429.4</ele><time>2026-04-17T13:07:58.607Z</time></trkpt><trkpt lat="42.6725767" lon="12.2934117"><ele>431.2</ele><time>2026-04-17T13:07:59.607Z</time></trkpt><trkpt lat="42.6725283" lon="12.2935367"><ele>433.0</ele><time>2026-04-17T13:08:00.607Z</time></trkpt><trkpt lat="42.6724767" lon="12.2936667"><ele>433.0</ele><time>2026-04-17T13:08:01.606Z</time></trkpt><trkpt lat="42.6724183" lon="12.2937983"><ele>433.0</ele><time>2026-04-17T13:08:02.607Z</time></trkpt><trkpt lat="42.6723567" lon="12.293925"><ele>433.0</ele><time>2026-04-17T13:08:03.607Z</time></trkpt><trkpt lat="42.6722833" lon="12.294045"><ele>433.0</ele><time>2026-04-17T13:08:04.607Z</time></trkpt><trkpt lat="42.6721967" lon="12.294145"><ele>433.25</ele><time>2026-04-17T13:08:05.606Z</time></trkpt><trkpt lat="42.6720867" lon="12.2942333"><ele>433.5</ele><time>2026-04-17T13:08:06.607Z</time></trkpt><trkpt lat="42.6719667" lon="12.2943033"><ele>433.75</ele><time>2026-04-17T13:08:07.607Z</time></trkpt><trkpt lat="42.6718533" lon="12.294355"><ele>434.0</ele><time>2026-04-17T13:08:08.606Z</time></trkpt><trkpt lat="42.671755" lon="12.2944217"><ele>433.99999999999994</ele><time>2026-04-17T13:08:09.607Z</time></trkpt><trkpt lat="42.6716833" lon="12.2945067"><ele>434.0</ele><time>2026-04-17T13:08:10.607Z</time></trkpt><trkpt lat="42.67164" lon="12.2946017"><ele>434.0</ele><time>2026-04-17T13:08:11.607Z</time></trkpt><trkpt lat="42.6716267" lon="12.294705"><ele>434.0</ele><time>2026-04-17T13:08:12.606Z</time></trkpt><trkpt lat="42.67163" lon="12.2948067"><ele>433.99999999999994</ele><time>2026-04-17T13:08:13.606Z</time></trkpt><trkpt lat="42.67166" lon="12.294895"><ele>434.0</ele><time>2026-04-17T13:08:14.607Z</time></trkpt><trkpt lat="42.6717233" lon="12.29497"><ele>436.4</ele><time>2026-04-17T13:08:15.607Z</time></trkpt><trkpt lat="42.67181" lon="12.29501"><ele>438.79999999999995</ele><time>2026-04-17T13:08:16.606Z</time></trkpt><trkpt lat="42.6719083" lon="12.295005"><ele>441.20000000000005</ele><time>2026-04-17T13:08:17.607Z</time></trkpt><trkpt lat="42.6720167" lon="12.29496"><ele>443.6</ele><time>2026-04-17T13:08:18.607Z</time></trkpt><trkpt lat="42.67212" lon="12.2948933"><ele>446.0</ele><time>2026-04-17T13:08:19.607Z</time></trkpt><trkpt lat="42.6722183" lon="12.2948267"><ele>445.20000000000005</ele><time>2026-04-17T13:08:20.606Z</time></trkpt><trkpt lat="42.6723183" lon="12.2947833"><ele>444.40000000000003</ele><time>2026-04-17T13:08:21.606Z</time></trkpt><trkpt lat="42.6724217" lon="12.2947483"><ele>443.6</ele><time>2026-04-17T13:08:22.606Z</time></trkpt><trkpt lat="42.6725283" lon="12.294745"><ele>442.8</ele><time>2026-04-17T13:08:23.606Z</time></trkpt><trkpt lat="42.6726483" lon="12.29476"><ele>442.0</ele><time>2026-04-17T13:08:24.607Z</time></trkpt><trkpt lat="42.67278" lon="12.29479"><ele>447.75</ele><time>2026-04-17T13:08:25.607Z</time></trkpt><trkpt lat="42.6729083" lon="12.29482"><ele>453.5</ele><time>2026-04-17T13:08:26.606Z</time></trkpt><trkpt lat="42.6730317" lon="12.2948483"><ele>459.25</ele><time>2026-04-17T13:08:27.607Z</time></trkpt><trkpt lat="42.6731483" lon="12.2948717"><ele>465.0</ele><time>2026-04-17T13:08:28.607Z</time></trkpt><trkpt lat="42.6732633" lon="12.2948983"><ele>465.0</ele><time>2026-04-17T13:08:29.607Z</time></trkpt><trkpt lat="42.6733833" lon="12.2949233"><ele>465.0</ele><time>2026-04-17T13:08:30.607Z</time></trkpt><trkpt lat="42.6735083" lon="12.2949383"><ele>465.0</ele><time>2026-04-17T13:08:31.607Z</time></trkpt><trkpt lat="42.6736383" lon="12.2949633"><ele>465.0</ele><time>2026-04-17T13:08:32.607Z</time></trkpt><trkpt lat="42.67377" lon="12.29499"><ele>465.25</ele><time>2026-04-17T13:08:33.606Z</time></trkpt><trkpt lat="42.6738967" lon="12.2950133"><ele>465.5</ele><time>2026-04-17T13:08:34.606Z</time></trkpt><trkpt lat="42.67403" lon="12.2950483"><ele>465.75</ele><time>2026-04-17T13:08:35.607Z</time></trkpt><trkpt lat="42.6741667" lon="12.2950883"><ele>466.0</ele><time>2026-04-17T13:08:36.607Z</time></trkpt><trkpt lat="42.6743017" lon="12.29513"><ele>466.0</ele><time>2026-04-17T13:08:37.607Z</time></trkpt><trkpt lat="42.6744233" lon="12.2951667"><ele>466.0</ele><time>2026-04-17T13:08:38.607Z</time></trkpt><trkpt lat="42.674555" lon="12.2952033"><ele>466.0</ele><time>2026-04-17T13:08:39.606Z</time></trkpt><trkpt lat="42.674695" lon="12.29522"><ele>466.0</ele><time>2026-04-17T13:08:40.607Z</time></trkpt><trkpt lat="42.67484" lon="12.295225"><ele>466.0</ele><time>2026-04-17T13:08:41.607Z</time></trkpt><trkpt lat="42.6749783" lon="12.295235"><ele>466.0</ele><time>2026-04-17T13:08:42.606Z</time></trkpt><trkpt lat="42.6751133" lon="12.2952433"><ele>466.0</ele><time>2026-04-17T13:08:43.607Z</time></trkpt><trkpt lat="42.67525" lon="12.2952633"><ele>466.0</ele><time>2026-04-17T13:08:44.607Z</time></trkpt><trkpt lat="42.6753883" lon="12.2952867"><ele>466.0</ele><time>2026-04-17T13:08:45.607Z</time></trkpt><trkpt lat="42.6755317" lon="12.2953233"><ele>466.0</ele><time>2026-04-17T13:08:46.607Z</time></trkpt><trkpt lat="42.675665" lon="12.29537"><ele>466.0</ele><time>2026-04-17T13:08:47.607Z</time></trkpt><trkpt lat="42.6757983" lon="12.2954283"><ele>466.0</ele><time>2026-04-17T13:08:48.607Z</time></trkpt><trkpt lat="42.6759333" lon="12.2954933"><ele>466.0</ele><time>2026-04-17T13:08:49.607Z</time></trkpt><trkpt lat="42.6760733" lon="12.2955733"><ele>466.0</ele><time>2026-04-17T13:08:50.606Z</time></trkpt><trkpt lat="42.6762067" lon="12.2956467"><ele>466.0</ele><time>2026-04-17T13:08:51.606Z</time></trkpt><trkpt lat="42.6763383" lon="12.2957267"><ele>466.0</ele><time>2026-04-17T13:08:52.606Z</time></trkpt><trkpt lat="42.6764633" lon="12.295795"><ele>470.5</ele><time>2026-04-17T13:08:53.607Z</time></trkpt><trkpt lat="42.67659" lon="12.2958517"><ele>475.0</ele><time>2026-04-17T13:08:54.607Z</time></trkpt><trkpt lat="42.6767167" lon="12.2958917"><ele>479.5</ele><time>2026-04-17T13:08:55.607Z</time></trkpt><trkpt lat="42.676845" lon="12.295925"><ele>484.0</ele><time>2026-04-17T13:08:56.607Z</time></trkpt><trkpt lat="42.676975" lon="12.295955"><ele>484.0</ele><time>2026-04-17T13:08:57.607Z</time></trkpt><trkpt lat="42.6771017" lon="12.2959867"><ele>484.0</ele><time>2026-04-17T13:08:58.607Z</time></trkpt><trkpt lat="42.677225" lon="12.296035"><ele>484.0</ele><time>2026-04-17T13:08:59.607Z</time></trkpt><trkpt lat="42.67735" lon="12.2961167"><ele>484.0</ele><time>2026-04-17T13:09:00.606Z</time></trkpt><trkpt lat="42.6774733" lon="12.2962133"><ele>484.0</ele><time>2026-04-17T13:09:01.607Z</time></trkpt><trkpt lat="42.6776017" lon="12.2963183"><ele>484.0</ele><time>2026-04-17T13:09:02.607Z</time></trkpt><trkpt lat="42.6777267" lon="12.29643"><ele>484.0</ele><time>2026-04-17T13:09:03.606Z</time></trkpt><trkpt lat="42.6778417" lon="12.2965333"><ele>484.0</ele><time>2026-04-17T13:09:04.607Z</time></trkpt><trkpt lat="42.67794" lon="12.29662"><ele>485.6666666666667</ele><time>2026-04-17T13:09:05.607Z</time></trkpt><trkpt lat="42.6780233" lon="12.2966883"><ele>487.33333333333337</ele><time>2026-04-17T13:09:06.606Z</time></trkpt><trkpt lat="42.6780983" lon="12.296745"><ele>489.0</ele><time>2026-04-17T13:09:07.607Z</time></trkpt><trkpt lat="42.6781617" lon="12.29679"><ele>490.66666666666663</ele><time>2026-04-17T13:09:08.607Z</time></trkpt><trkpt lat="42.6782283" lon="12.296875"><ele>492.3333333333333</ele><time>2026-04-17T13:09:10.606Z</time></trkpt><trkpt lat="42.67824" lon="12.2969617"><ele>494.0</ele><time>2026-04-17T13:09:12.607Z</time></trkpt><trkpt lat="42.6782133" lon="12.2970433"><ele>494.0</ele><time>2026-04-17T13:09:14.607Z</time></trkpt><trkpt lat="42.67811" lon="12.2970567"><ele>494.0</ele><time>2026-04-17T13:10:42.607Z</time></trkpt><trkpt lat="42.6780467" lon="12.2970433"><ele>494.0</ele><time>2026-04-17T13:10:43.606Z</time></trkpt><trkpt lat="42.677935" lon="12.2969933"><ele>494.0</ele><time>2026-04-17T13:10:45.607Z</time></trkpt><trkpt lat="42.6778" lon="12.2969867"><ele>494.0</ele><time>2026-04-17T13:10:47.607Z</time></trkpt><trkpt lat="42.677725" lon="12.29698"><ele>495.3333333333333</ele><time>2026-04-17T13:10:48.606Z</time></trkpt><trkpt lat="42.6776417" lon="12.2969717"><ele>496.66666666666663</ele><time>2026-04-17T13:10:49.607Z</time></trkpt><trkpt lat="42.6775567" lon="12.2969617"><ele>498.0</ele><time>2026-04-17T13:10:50.606Z</time></trkpt><trkpt lat="42.6774733" lon="12.29696"><ele>499.33333333333337</ele><time>2026-04-17T13:10:51.607Z</time></trkpt><trkpt lat="42.677395" lon="12.2969683"><ele>500.6666666666667</ele><time>2026-04-17T13:10:52.606Z</time></trkpt><trkpt lat="42.6773183" lon="12.2969933"><ele>502.0</ele><time>2026-04-17T13:10:53.607Z</time></trkpt><trkpt lat="42.6772533" lon="12.2970283"><ele>502.00000000000006</ele><time>2026-04-17T13:10:54.607Z</time></trkpt><trkpt lat="42.6771833" lon="12.2970667"><ele>502.0</ele><time>2026-04-17T13:10:55.607Z</time></trkpt><trkpt lat="42.6771117" lon="12.2971183"><ele>502.0</ele><time>2026-04-17T13:10:56.606Z</time></trkpt><trkpt lat="42.6770467" lon="12.2971533"><ele>502.0</ele><time>2026-04-17T13:10:57.607Z</time></trkpt><trkpt lat="42.676975" lon="12.29717"><ele>502.00000000000006</ele><time>2026-04-17T13:10:58.607Z</time></trkpt><trkpt lat="42.6769117" lon="12.2971717"><ele>502.0</ele><time>2026-04-17T13:10:59.607Z</time></trkpt><trkpt lat="42.676785" lon="12.2971317"><ele>502.6666666666667</ele><time>2026-04-17T13:11:01.607Z</time></trkpt><trkpt lat="42.6767117" lon="12.297105"><ele>503.33333333333337</ele><time>2026-04-17T13:11:02.607Z</time></trkpt><trkpt lat="42.67663" lon="12.29707"><ele>504.0</ele><time>2026-04-17T13:11:03.607Z</time></trkpt><trkpt lat="42.676555" lon="12.29704"><ele>504.66666666666663</ele><time>2026-04-17T13:11:04.607Z</time></trkpt><trkpt lat="42.6764767" lon="12.2970083"><ele>505.3333333333333</ele><time>2026-04-17T13:11:05.607Z</time></trkpt><trkpt lat="42.6763933" lon="12.2969767"><ele>506.0</ele><time>2026-04-17T13:11:06.607Z</time></trkpt><trkpt lat="42.6763167" lon="12.29695"><ele>505.99999999999994</ele><time>2026-04-17T13:11:07.606Z</time></trkpt><trkpt lat="42.676245" lon="12.2969217"><ele>506.0</ele><time>2026-04-17T13:11:08.607Z</time></trkpt><trkpt lat="42.6761717" lon="12.29689"><ele>506.0</ele><time>2026-04-17T13:11:09.607Z</time></trkpt><trkpt lat="42.6761" lon="12.29686"><ele>506.0</ele><time>2026-04-17T13:11:10.606Z</time></trkpt><trkpt lat="42.6760167" lon="12.296835"><ele>505.99999999999994</ele><time>2026-04-17T13:11:11.606Z</time></trkpt><trkpt lat="42.6759283" lon="12.2968133"><ele>506.0</ele><time>2026-04-17T13:11:12.607Z</time></trkpt><trkpt lat="42.6758467" lon="12.296815"><ele>507.66666666666663</ele><time>2026-04-17T13:11:13.606Z</time></trkpt><trkpt lat="42.6757567" lon="12.2968117"><ele>509.3333333333333</ele><time>2026-04-17T13:11:14.607Z</time></trkpt><trkpt lat="42.67567" lon="12.2968217"><ele>511.0</ele><time>2026-04-17T13:11:15.606Z</time></trkpt><trkpt lat="42.6755817" lon="12.2968317"><ele>512.6666666666666</ele><time>2026-04-17T13:11:16.607Z</time></trkpt><trkpt lat="42.6755117" lon="12.2968433"><ele>514.3333333333334</ele><time>2026-04-17T13:11:17.607Z</time></trkpt><trkpt lat="42.67544" lon="12.2968533"><ele>516.0</ele><time>2026-04-17T13:11:18.606Z</time></trkpt><trkpt lat="42.6753583" lon="12.29686"><ele>516.0</ele><time>2026-04-17T13:11:19.607Z</time></trkpt><trkpt lat="42.6752733" lon="12.29687"><ele>516.0</ele><time>2026-04-17T13:11:20.607Z</time></trkpt><trkpt lat="42.67518" lon="12.29688"><ele>516.0</ele><time>2026-04-17T13:11:21.606Z</time></trkpt><trkpt lat="42.6750933" lon="12.2968917"><ele>516.0</ele><time>2026-04-17T13:11:22.607Z</time></trkpt><trkpt lat="42.675005" lon="12.296905"><ele>516.0</ele><time>2026-04-17T13:11:23.606Z</time></trkpt><trkpt lat="42.67492" lon="12.296915"><ele>516.0</ele><time>2026-04-17T13:11:24.607Z</time></trkpt><trkpt lat="42.67484" lon="12.2969333"><ele>516.5</ele><time>2026-04-17T13:11:25.607Z</time></trkpt><trkpt lat="42.6747583" lon="12.2969517"><ele>517.0</ele><time>2026-04-17T13:11:26.607Z</time></trkpt><trkpt lat="42.6746783" lon="12.2969667"><ele>517.5</ele><time>2026-04-17T13:11:27.607Z</time></trkpt><trkpt lat="42.6746" lon="12.296985"><ele>518.0</ele><time>2026-04-17T13:11:28.607Z</time></trkpt><trkpt lat="42.6745067" lon="12.2970133"><ele>518.5</ele><time>2026-04-17T13:11:29.607Z</time></trkpt><trkpt lat="42.6744167" lon="12.2970383"><ele>519.0</ele><time>2026-04-17T13:11:30.607Z</time></trkpt><trkpt lat="42.67432" lon="12.297065"><ele>519.0</ele><time>2026-04-17T13:11:31.606Z</time></trkpt><trkpt lat="42.674225" lon="12.2970967"><ele>519.0</ele><time>2026-04-17T13:11:32.607Z</time></trkpt><trkpt lat="42.674125" lon="12.297135"><ele>519.0</ele><time>2026-04-17T13:11:33.607Z</time></trkpt><trkpt lat="42.6740283" lon="12.297175"><ele>519.0</ele><time>2026-04-17T13:11:34.607Z</time></trkpt><trkpt lat="42.6739383" lon="12.2972267"><ele>519.0</ele><time>2026-04-17T13:11:35.606Z</time></trkpt><trkpt lat="42.673855" lon="12.297285"><ele>523.0</ele><time>2026-04-17T13:11:36.607Z</time></trkpt><trkpt lat="42.673765" lon="12.29735"><ele>527.0</ele><time>2026-04-17T13:11:37.607Z</time></trkpt><trkpt lat="42.6736733" lon="12.297415"><ele>531.0</ele><time>2026-04-17T13:11:38.607Z</time></trkpt><trkpt lat="42.6735783" lon="12.29748"><ele>535.0</ele><time>2026-04-17T13:11:39.607Z</time></trkpt><trkpt lat="42.67348" lon="12.297545"><ele>539.0</ele><time>2026-04-17T13:11:40.607Z</time></trkpt><trkpt lat="42.6733867" lon="12.29761"><ele>539.0</ele><time>2026-04-17T13:11:41.607Z</time></trkpt><trkpt lat="42.6732983" lon="12.2976767"><ele>539.0</ele><time>2026-04-17T13:11:42.607Z</time></trkpt><trkpt lat="42.6732067" lon="12.297745"><ele>539.0</ele><time>2026-04-17T13:11:43.607Z</time></trkpt><trkpt lat="42.6731217" lon="12.2978117"><ele>539.0</ele><time>2026-04-17T13:11:44.607Z</time></trkpt><trkpt lat="42.673035" lon="12.2978783"><ele>539.0</ele><time>2026-04-17T13:11:45.606Z</time></trkpt><trkpt lat="42.6729467" lon="12.2979417"><ele>539.0</ele><time>2026-04-17T13:11:46.607Z</time></trkpt><trkpt lat="42.6728533" lon="12.298005"><ele>539.0</ele><time>2026-04-17T13:11:47.607Z</time></trkpt><trkpt lat="42.672765" lon="12.2980683"><ele>539.0</ele><time>2026-04-17T13:11:48.607Z</time></trkpt><trkpt lat="42.6726767" lon="12.2981333"><ele>539.0</ele><time>2026-04-17T13:11:49.607Z</time></trkpt><trkpt lat="42.672585" lon="12.2982"><ele>539.0</ele><time>2026-04-17T13:11:50.607Z</time></trkpt><trkpt lat="42.6724933" lon="12.2982633"><ele>541.8</ele><time>2026-04-17T13:11:51.606Z</time></trkpt><trkpt lat="42.672405" lon="12.2983283"><ele>544.5999999999999</ele><time>2026-04-17T13:11:52.607Z</time></trkpt><trkpt lat="42.6723233" lon="12.2983983"><ele>547.4</ele><time>2026-04-17T13:11:53.607Z</time></trkpt><trkpt lat="42.6722467" lon="12.2984683"><ele>550.1999999999999</ele><time>2026-04-17T13:11:54.607Z</time></trkpt><trkpt lat="42.672175" lon="12.298535"><ele>553.0</ele><time>2026-04-17T13:11:55.607Z</time></trkpt><trkpt lat="42.6721" lon="12.2986017"><ele>553.0</ele><time>2026-04-17T13:11:56.607Z</time></trkpt><trkpt lat="42.6720433" lon="12.2986717"><ele>553.0</ele><time>2026-04-17T13:11:57.607Z</time></trkpt><trkpt lat="42.6719883" lon="12.2987333"><ele>553.0</ele><time>2026-04-17T13:11:58.607Z</time></trkpt><trkpt lat="42.67194" lon="12.2987917"><ele>553.0</ele><time>2026-04-17T13:11:59.606Z</time></trkpt><trkpt lat="42.6719" lon="12.2988583"><ele>553.0</ele><time>2026-04-17T13:12:00.606Z</time></trkpt><trkpt lat="42.6718183" lon="12.2989967"><ele>553.0</ele><time>2026-04-17T13:12:02.607Z</time></trkpt><trkpt lat="42.67178" lon="12.299085"><ele>553.5714285714286</ele><time>2026-04-17T13:12:03.607Z</time></trkpt><trkpt lat="42.67174" lon="12.2991683"><ele>554.1428571428571</ele><time>2026-04-17T13:12:04.607Z</time></trkpt><trkpt lat="42.671695" lon="12.2992633"><ele>554.7142857142858</ele><time>2026-04-17T13:12:05.606Z</time></trkpt><trkpt lat="42.6716633" lon="12.2993533"><ele>555.2857142857142</ele><time>2026-04-17T13:12:06.606Z</time></trkpt><trkpt lat="42.6716317" lon="12.2994433"><ele>555.8571428571429</ele><time>2026-04-17T13:12:07.606Z</time></trkpt><trkpt lat="42.6716117" lon="12.2995283"><ele>556.4285714285714</ele><time>2026-04-17T13:12:08.606Z</time></trkpt><trkpt lat="42.671595" lon="12.2996167"><ele>557.0</ele><time>2026-04-17T13:12:09.606Z</time></trkpt><trkpt lat="42.671585" lon="12.299715"><ele>560.0</ele><time>2026-04-17T13:12:10.605Z</time></trkpt><trkpt lat="42.6715817" lon="12.2998133"><ele>563.0</ele><time>2026-04-17T13:12:11.606Z</time></trkpt><trkpt lat="42.6715717" lon="12.2999217"><ele>566.0</ele><time>2026-04-17T13:12:12.606Z</time></trkpt><trkpt lat="42.671555" lon="12.300025"><ele>569.0</ele><time>2026-04-17T13:12:13.606Z</time></trkpt><trkpt lat="42.6715367" lon="12.30013"><ele>572.0</ele><time>2026-04-17T13:12:14.606Z</time></trkpt><trkpt lat="42.6715217" lon="12.300235"><ele>575.0</ele><time>2026-04-17T13:12:15.606Z</time></trkpt><trkpt lat="42.6715" lon="12.3003283"><ele>575.0</ele><time>2026-04-17T13:12:16.606Z</time></trkpt><trkpt lat="42.6714433" lon="12.3004867"><ele>575.0</ele><time>2026-04-17T13:12:18.606Z</time></trkpt><trkpt lat="42.67139" lon="12.300545"><ele>575.0</ele><time>2026-04-17T13:12:19.605Z</time></trkpt><trkpt lat="42.6713233" lon="12.3005933"><ele>575.0</ele><time>2026-04-17T13:12:20.606Z</time></trkpt><trkpt lat="42.671245" lon="12.3006333"><ele>575.0</ele><time>2026-04-17T13:12:21.606Z</time></trkpt><trkpt lat="42.67117" lon="12.3006733"><ele>575.0</ele><time>2026-04-17T13:12:22.606Z</time></trkpt><trkpt lat="42.6711117" lon="12.3007233"><ele>574.0</ele><time>2026-04-17T13:12:23.606Z</time></trkpt><trkpt lat="42.67103" lon="12.3008533"><ele>573.0</ele><time>2026-04-17T13:12:25.606Z</time></trkpt><trkpt lat="42.670995" lon="12.300925"><ele>572.0</ele><time>2026-04-17T13:12:26.606Z</time></trkpt><trkpt lat="42.670945" lon="12.3010567"><ele>571.0</ele><time>2026-04-17T13:12:28.606Z</time></trkpt><trkpt lat="42.6708933" lon="12.301225"><ele>570.0</ele><time>2026-04-17T13:12:30.606Z</time></trkpt><trkpt lat="42.6708633" lon="12.3013233"><ele>572.6666666666666</ele><time>2026-04-17T13:12:31.606Z</time></trkpt><trkpt lat="42.670835" lon="12.3014267"><ele>575.3333333333334</ele><time>2026-04-17T13:12:32.606Z</time></trkpt><trkpt lat="42.670805" lon="12.3015217"><ele>578.0</ele><time>2026-04-17T13:12:33.606Z</time></trkpt><trkpt lat="42.6707817" lon="12.30162"><ele>580.6666666666667</ele><time>2026-04-17T13:12:34.606Z</time></trkpt><trkpt lat="42.6707633" lon="12.3017067"><ele>583.3333333333334</ele><time>2026-04-17T13:12:35.605Z</time></trkpt><trkpt lat="42.6707467" lon="12.3017917"><ele>586.0</ele><time>2026-04-17T13:12:36.606Z</time></trkpt><trkpt lat="42.6707317" lon="12.3019667"><ele>586.0</ele><time>2026-04-17T13:12:38.606Z</time></trkpt><trkpt lat="42.67073" lon="12.302055"><ele>586.0</ele><time>2026-04-17T13:12:39.606Z</time></trkpt><trkpt lat="42.6707283" lon="12.3021567"><ele>586.0</ele><time>2026-04-17T13:12:40.606Z</time></trkpt><trkpt lat="42.67073" lon="12.3022683"><ele>586.0</ele><time>2026-04-17T13:12:41.606Z</time></trkpt><trkpt lat="42.6707317" lon="12.30238"><ele>586.0</ele><time>2026-04-17T13:12:42.606Z</time></trkpt><trkpt lat="42.6707383" lon="12.3024883"><ele>586.0</ele><time>2026-04-17T13:12:43.605Z</time></trkpt><trkpt lat="42.6707433" lon="12.302605"><ele>587.3333333333334</ele><time>2026-04-17T13:12:44.606Z</time></trkpt><trkpt lat="42.6707483" lon="12.3027133"><ele>588.6666666666667</ele><time>2026-04-17T13:12:45.606Z</time></trkpt><trkpt lat="42.670745" lon="12.3028167"><ele>590.0</ele><time>2026-04-17T13:12:46.606Z</time></trkpt><trkpt lat="42.6707417" lon="12.3029233"><ele>591.3333333333334</ele><time>2026-04-17T13:12:47.606Z</time></trkpt><trkpt lat="42.670745" lon="12.3030317"><ele>592.6666666666666</ele><time>2026-04-17T13:12:48.606Z</time></trkpt><trkpt lat="42.6707533" lon="12.30314"><ele>594.0</ele><time>2026-04-17T13:12:49.606Z</time></trkpt><trkpt lat="42.6707633" lon="12.30325"><ele>595.0</ele><time>2026-04-17T13:12:50.606Z</time></trkpt><trkpt lat="42.670775" lon="12.3033683"><ele>596.0</ele><time>2026-04-17T13:12:51.605Z</time></trkpt><trkpt lat="42.6707883" lon="12.3034783"><ele>597.0</ele><time>2026-04-17T13:12:52.605Z</time></trkpt><trkpt lat="42.6707917" lon="12.303605"><ele>598.0</ele><time>2026-04-17T13:12:53.606Z</time></trkpt><trkpt lat="42.670805" lon="12.303725"><ele>599.0</ele><time>2026-04-17T13:12:54.605Z</time></trkpt><trkpt lat="42.6708217" lon="12.30384"><ele>600.0</ele><time>2026-04-17T13:12:55.605Z</time></trkpt><trkpt lat="42.6708333" lon="12.30394"><ele>600.8333333333334</ele><time>2026-04-17T13:12:56.606Z</time></trkpt><trkpt lat="42.670845" lon="12.3040433"><ele>601.6666666666666</ele><time>2026-04-17T13:12:57.605Z</time></trkpt><trkpt lat="42.670845" lon="12.3041467"><ele>602.5</ele><time>2026-04-17T13:12:58.606Z</time></trkpt><trkpt lat="42.670845" lon="12.30425"><ele>603.3333333333333</ele><time>2026-04-17T13:12:59.606Z</time></trkpt><trkpt lat="42.6708417" lon="12.3043533"><ele>604.1666666666666</ele><time>2026-04-17T13:13:00.606Z</time></trkpt><trkpt lat="42.670845" lon="12.3044633"><ele>605.0</ele><time>2026-04-17T13:13:01.605Z</time></trkpt><trkpt lat="42.6708567" lon="12.304565"><ele>605.0</ele><time>2026-04-17T13:13:02.605Z</time></trkpt><trkpt lat="42.6708667" lon="12.3046717"><ele>605.0</ele><time>2026-04-17T13:13:03.605Z</time></trkpt><trkpt lat="42.6708733" lon="12.3047767"><ele>605.0</ele><time>2026-04-17T13:13:04.605Z</time></trkpt><trkpt lat="42.67088" lon="12.30489"><ele>605.0</ele><time>2026-04-17T13:13:05.606Z</time></trkpt><trkpt lat="42.67089" lon="12.3050017"><ele>605.0</ele><time>2026-04-17T13:13:06.606Z</time></trkpt><trkpt lat="42.6708967" lon="12.3051083"><ele>605.0</ele><time>2026-04-17T13:13:07.605Z</time></trkpt><trkpt lat="42.6708883" lon="12.3051983"><ele>607.0</ele><time>2026-04-17T13:13:08.606Z</time></trkpt><trkpt lat="42.6708617" lon="12.3053417"><ele>609.0</ele><time>2026-04-17T13:13:10.606Z</time></trkpt><trkpt lat="42.670815" lon="12.3054517"><ele>611.0</ele><time>2026-04-17T13:13:12.606Z</time></trkpt><trkpt lat="42.670735" lon="12.3055183"><ele>613.0</ele><time>2026-04-17T13:13:14.606Z</time></trkpt><trkpt lat="42.6706633" lon="12.3055283"><ele>615.0</ele><time>2026-04-17T13:13:15.605Z</time></trkpt><trkpt lat="42.6705817" lon="12.305525"><ele>615.0</ele><time>2026-04-17T13:13:16.606Z</time></trkpt><trkpt lat="42.6704967" lon="12.305505"><ele>615.0</ele><time>2026-04-17T13:13:17.606Z</time></trkpt><trkpt lat="42.6704083" lon="12.3054817"><ele>615.0</ele><time>2026-04-17T13:13:18.606Z</time></trkpt><trkpt lat="42.6703033" lon="12.3054567"><ele>615.0</ele><time>2026-04-17T13:13:19.605Z</time></trkpt><trkpt lat="42.6701983" lon="12.3054283"><ele>615.0</ele><time>2026-04-17T13:13:20.606Z</time></trkpt><trkpt lat="42.670105" lon="12.3054017"><ele>613.4</ele><time>2026-04-17T13:13:21.606Z</time></trkpt><trkpt lat="42.6699967" lon="12.30537"><ele>611.8</ele><time>2026-04-17T13:13:22.606Z</time></trkpt><trkpt lat="42.6698933" lon="12.3053433"><ele>610.2</ele><time>2026-04-17T13:13:23.606Z</time></trkpt><trkpt lat="42.6697933" lon="12.305315"><ele>608.6</ele><time>2026-04-17T13:13:24.606Z</time></trkpt><trkpt lat="42.6696917" lon="12.3052917"><ele>607.0</ele><time>2026-04-17T13:13:25.605Z</time></trkpt><trkpt lat="42.6695817" lon="12.3052617"><ele>607.0</ele><time>2026-04-17T13:13:26.605Z</time></trkpt><trkpt lat="42.6694683" lon="12.3052333"><ele>607.0</ele><time>2026-04-17T13:13:27.606Z</time></trkpt><trkpt lat="42.6693633" lon="12.305205"><ele>607.0</ele><time>2026-04-17T13:13:28.606Z</time></trkpt><trkpt lat="42.669265" lon="12.3051917"><ele>607.0</ele><time>2026-04-17T13:13:29.606Z</time></trkpt><trkpt lat="42.6691717" lon="12.3051817"><ele>607.0</ele><time>2026-04-17T13:13:30.605Z</time></trkpt><trkpt lat="42.669075" lon="12.3051783"><ele>607.8000000000001</ele><time>2026-04-17T13:13:31.606Z</time></trkpt><trkpt lat="42.6689883" lon="12.305185"><ele>608.6</ele><time>2026-04-17T13:13:32.606Z</time></trkpt><trkpt lat="42.6689067" lon="12.305195"><ele>609.4000000000001</ele><time>2026-04-17T13:13:33.605Z</time></trkpt><trkpt lat="42.6687817" lon="12.3052317"><ele>610.2</ele><time>2026-04-17T13:13:35.606Z</time></trkpt><trkpt lat="42.668665" lon="12.3052933"><ele>611.0</ele><time>2026-04-17T13:13:37.605Z</time></trkpt><trkpt lat="42.6686067" lon="12.3053417"><ele>611.0</ele><time>2026-04-17T13:13:38.606Z</time></trkpt><trkpt lat="42.66855" lon="12.3053917"><ele>611.0</ele><time>2026-04-17T13:13:39.606Z</time></trkpt><trkpt lat="42.6684983" lon="12.3054467"><ele>611.0</ele><time>2026-04-17T13:13:40.606Z</time></trkpt><trkpt lat="42.6684217" lon="12.3055567"><ele>611.0</ele><time>2026-04-17T13:13:42.606Z</time></trkpt><trkpt lat="42.668395" lon="12.3056483"><ele>611.0</ele><time>2026-04-17T13:13:44.605Z</time></trkpt><trkpt lat="42.6683867" lon="12.3057567"><ele>611.0</ele><time>2026-04-17T13:23:08.605Z</time></trkpt><trkpt lat="42.6684083" lon="12.305845"><ele>614.4</ele><time>2026-04-17T13:23:11.605Z</time></trkpt><trkpt lat="42.6684867" lon="12.30591"><ele>617.8</ele><time>2026-04-17T13:23:14.604Z</time></trkpt><trkpt lat="42.6685833" lon="12.3059367"><ele>621.1999999999999</ele><time>2026-04-17T13:23:17.605Z</time></trkpt><trkpt lat="42.6686533" lon="12.305895"><ele>624.6</ele><time>2026-04-17T13:23:19.605Z</time></trkpt><trkpt lat="42.6687233" lon="12.3058083"><ele>628.0</ele><time>2026-04-17T13:23:21.605Z</time></trkpt><trkpt lat="42.6688133" lon="12.3057383"><ele>630.4</ele><time>2026-04-17T13:23:23.605Z</time></trkpt><trkpt lat="42.668915" lon="12.3056933"><ele>632.8</ele><time>2026-04-17T13:23:25.605Z</time></trkpt><trkpt lat="42.6690133" lon="12.3056933"><ele>635.2</ele><time>2026-04-17T13:23:27.605Z</time></trkpt><trkpt lat="42.6690767" lon="12.3057117"><ele>637.6</ele><time>2026-04-17T13:23:28.605Z</time></trkpt><trkpt lat="42.6691883" lon="12.3057617"><ele>640.0</ele><time>2026-04-17T13:23:30.605Z</time></trkpt><trkpt lat="42.6692967" lon="12.3058233"><ele>640.0</ele><time>2026-04-17T13:23:32.605Z</time></trkpt><trkpt lat="42.6693883" lon="12.3059017"><ele>640.0</ele><time>2026-04-17T13:23:34.605Z</time></trkpt><trkpt lat="42.6694433" lon="12.3059517"><ele>640.0</ele><time>2026-04-17T13:23:35.605Z</time></trkpt><trkpt lat="42.6694983" lon="12.3059983"><ele>640.0</ele><time>2026-04-17T13:23:36.605Z</time></trkpt><trkpt lat="42.66961" lon="12.3060917"><ele>640.0</ele><time>2026-04-17T13:23:38.605Z</time></trkpt><trkpt lat="42.6697183" lon="12.3061883"><ele>639.0</ele><time>2026-04-17T13:23:40.605Z</time></trkpt><trkpt lat="42.6697783" lon="12.3062367"><ele>638.0</ele><time>2026-04-17T13:23:41.605Z</time></trkpt><trkpt lat="42.6698417" lon="12.3062867"><ele>637.0</ele><time>2026-04-17T13:23:42.605Z</time></trkpt><trkpt lat="42.669905" lon="12.3063433"><ele>636.0</ele><time>2026-04-17T13:23:43.605Z</time></trkpt><trkpt lat="42.6699633" lon="12.3064"><ele>635.0</ele><time>2026-04-17T13:23:44.605Z</time></trkpt><trkpt lat="42.6700217" lon="12.3064417"><ele>634.0</ele><time>2026-04-17T13:23:45.605Z</time></trkpt><trkpt lat="42.6700767" lon="12.3064867"><ele>633.0</ele><time>2026-04-17T13:23:46.604Z</time></trkpt><trkpt lat="42.6701333" lon="12.306535"><ele>637.0</ele><time>2026-04-17T13:23:47.604Z</time></trkpt><trkpt lat="42.6701933" lon="12.3065767"><ele>641.0</ele><time>2026-04-17T13:23:48.605Z</time></trkpt><trkpt lat="42.6702583" lon="12.3066117"><ele>645.0</ele><time>2026-04-17T13:23:49.605Z</time></trkpt><trkpt lat="42.67032" lon="12.3066417"><ele>649.0</ele><time>2026-04-17T13:23:50.604Z</time></trkpt><trkpt lat="42.6704433" lon="12.3067033"><ele>653.0</ele><time>2026-04-17T13:23:52.604Z</time></trkpt><trkpt lat="42.67052" lon="12.306735"><ele>657.0</ele><time>2026-04-17T13:23:53.605Z</time></trkpt><trkpt lat="42.6706" lon="12.3067617"><ele>657.0</ele><time>2026-04-17T13:23:54.604Z</time></trkpt><trkpt lat="42.670685" lon="12.30679"><ele>657.0</ele><time>2026-04-17T13:23:55.605Z</time></trkpt><trkpt lat="42.6707667" lon="12.3068133"><ele>657.0</ele><time>2026-04-17T13:23:56.605Z</time></trkpt><trkpt lat="42.67084" lon="12.3068483"><ele>657.0</ele><time>2026-04-17T13:23:57.605Z</time></trkpt><trkpt lat="42.6709133" lon="12.3068767"><ele>657.0</ele><time>2026-04-17T13:23:58.605Z</time></trkpt><trkpt lat="42.6709817" lon="12.3069"><ele>657.0</ele><time>2026-04-17T13:23:59.605Z</time></trkpt><trkpt lat="42.6710467" lon="12.3069217"><ele>659.5</ele><time>2026-04-17T13:24:00.605Z</time></trkpt><trkpt lat="42.67112" lon="12.3069417"><ele>662.0</ele><time>2026-04-17T13:24:01.604Z</time></trkpt><trkpt lat="42.67119" lon="12.3069433"><ele>664.5</ele><time>2026-04-17T13:24:02.605Z</time></trkpt><trkpt lat="42.67126" lon="12.306935"><ele>667.0</ele><time>2026-04-17T13:24:03.605Z</time></trkpt><trkpt lat="42.67137" lon="12.3069017"><ele>669.5</ele><time>2026-04-17T13:24:05.605Z</time></trkpt><trkpt lat="42.6714317" lon="12.3068767"><ele>672.0</ele><time>2026-04-17T13:24:06.605Z</time></trkpt><trkpt lat="42.6715" lon="12.306845"><ele>672.0</ele><time>2026-04-17T13:24:07.605Z</time></trkpt><trkpt lat="42.6715683" lon="12.30679"><ele>672.0</ele><time>2026-04-17T13:24:08.605Z</time></trkpt><trkpt lat="42.6716267" lon="12.30673"><ele>672.0</ele><time>2026-04-17T13:24:09.605Z</time></trkpt><trkpt lat="42.671675" lon="12.3066683"><ele>672.0</ele><time>2026-04-17T13:24:10.605Z</time></trkpt><trkpt lat="42.671735" lon="12.3065967"><ele>672.0</ele><time>2026-04-17T13:24:11.605Z</time></trkpt><trkpt lat="42.6717917" lon="12.3065183"><ele>672.0</ele><time>2026-04-17T13:24:12.605Z</time></trkpt><trkpt lat="42.6718567" lon="12.3064333"><ele>669.0</ele><time>2026-04-17T13:24:13.605Z</time></trkpt><trkpt lat="42.6719233" lon="12.3063533"><ele>666.0</ele><time>2026-04-17T13:24:14.605Z</time></trkpt><trkpt lat="42.6719783" lon="12.306265"><ele>663.0</ele><time>2026-04-17T13:24:15.605Z</time></trkpt><trkpt lat="42.6720317" lon="12.306155"><ele>660.0</ele><time>2026-04-17T13:24:16.605Z</time></trkpt><trkpt lat="42.6720833" lon="12.3060483"><ele>657.0</ele><time>2026-04-17T13:24:17.605Z</time></trkpt><trkpt lat="42.6721233" lon="12.305935"><ele>662.6666666666666</ele><time>2026-04-17T13:24:18.605Z</time></trkpt><trkpt lat="42.672165" lon="12.3058233"><ele>668.3333333333334</ele><time>2026-04-17T13:24:19.604Z</time></trkpt><trkpt lat="42.6721983" lon="12.305715"><ele>674.0</ele><time>2026-04-17T13:24:20.605Z</time></trkpt><trkpt lat="42.67223" lon="12.305605"><ele>679.6666666666667</ele><time>2026-04-17T13:24:21.604Z</time></trkpt><trkpt lat="42.6722567" lon="12.30549"><ele>685.3333333333334</ele><time>2026-04-17T13:24:22.605Z</time></trkpt><trkpt lat="42.6722883" lon="12.3053733"><ele>691.0</ele><time>2026-04-17T13:24:23.604Z</time></trkpt><trkpt lat="42.6723133" lon="12.305255"><ele>691.0</ele><time>2026-04-17T13:24:24.605Z</time></trkpt><trkpt lat="42.6723333" lon="12.30514"><ele>691.0</ele><time>2026-04-17T13:24:25.605Z</time></trkpt><trkpt lat="42.6723467" lon="12.305035"><ele>691.0</ele><time>2026-04-17T13:24:26.605Z</time></trkpt><trkpt lat="42.6723583" lon="12.304935"><ele>691.0</ele><time>2026-04-17T13:24:27.604Z</time></trkpt><trkpt lat="42.67237" lon="12.3048417"><ele>691.0</ele><time>2026-04-17T13:24:28.605Z</time></trkpt><trkpt lat="42.672385" lon="12.3047583"><ele>691.0</ele><time>2026-04-17T13:24:29.605Z</time></trkpt><trkpt lat="42.6724183" lon="12.3046117"><ele>690.4285714285713</ele><time>2026-04-17T13:24:31.605Z</time></trkpt><trkpt lat="42.6724667" lon="12.3044633"><ele>689.8571428571429</ele><time>2026-04-17T13:24:33.605Z</time></trkpt><trkpt lat="42.6724883" lon="12.30438"><ele>689.2857142857142</ele><time>2026-04-17T13:24:34.605Z</time></trkpt><trkpt lat="42.672515" lon="12.3042967"><ele>688.7142857142857</ele><time>2026-04-17T13:24:35.605Z</time></trkpt><trkpt lat="42.6725417" lon="12.3042117"><ele>688.1428571428571</ele><time>2026-04-17T13:24:36.605Z</time></trkpt><trkpt lat="42.6725667" lon="12.3041317"><ele>687.5714285714286</ele><time>2026-04-17T13:24:37.605Z</time></trkpt><trkpt lat="42.6725933" lon="12.30405"><ele>687.0</ele><time>2026-04-17T13:24:38.605Z</time></trkpt><trkpt lat="42.6726117" lon="12.3039667"><ele>685.8571428571429</ele><time>2026-04-17T13:24:39.604Z</time></trkpt><trkpt lat="42.6726267" lon="12.3038767"><ele>684.7142857142857</ele><time>2026-04-17T13:24:40.605Z</time></trkpt><trkpt lat="42.672645" lon="12.3037867"><ele>683.5714285714286</ele><time>2026-04-17T13:24:41.604Z</time></trkpt><trkpt lat="42.6726667" lon="12.3036867"><ele>682.4285714285714</ele><time>2026-04-17T13:24:42.605Z</time></trkpt><trkpt lat="42.6726917" lon="12.303595"><ele>681.2857142857142</ele><time>2026-04-17T13:24:43.605Z</time></trkpt><trkpt lat="42.6727217" lon="12.3035033"><ele>680.1428571428571</ele><time>2026-04-17T13:24:44.605Z</time></trkpt><trkpt lat="42.6727517" lon="12.3034233"><ele>679.0</ele><time>2026-04-17T13:24:45.605Z</time></trkpt><trkpt lat="42.6728117" lon="12.3032783"><ele>682.6</ele><time>2026-04-17T13:24:47.605Z</time></trkpt><trkpt lat="42.6728817" lon="12.3031583"><ele>686.2</ele><time>2026-04-17T13:24:49.605Z</time></trkpt><trkpt lat="42.6729467" lon="12.30305"><ele>689.8000000000001</ele><time>2026-04-17T13:24:51.605Z</time></trkpt><trkpt lat="42.673015" lon="12.3029533"><ele>693.4000000000001</ele><time>2026-04-17T13:24:53.605Z</time></trkpt><trkpt lat="42.6730933" lon="12.3028833"><ele>697.0</ele><time>2026-04-17T13:24:55.605Z</time></trkpt><trkpt lat="42.6731717" lon="12.3028167"><ele>697.0</ele><time>2026-04-17T13:24:57.605Z</time></trkpt><trkpt lat="42.6732633" lon="12.3027183"><ele>697.0</ele><time>2026-04-17T13:24:59.605Z</time></trkpt><trkpt lat="42.6733483" lon="12.3026267"><ele>697.0</ele><time>2026-04-17T13:25:01.604Z</time></trkpt><trkpt lat="42.673425" lon="12.302535"><ele>697.0</ele><time>2026-04-17T13:25:03.605Z</time></trkpt><trkpt lat="42.6734967" lon="12.3024417"><ele>697.0</ele><time>2026-04-17T13:25:05.604Z</time></trkpt><trkpt lat="42.6735783" lon="12.3023683"><ele>701.0</ele><time>2026-04-17T13:25:07.605Z</time></trkpt><trkpt lat="42.673655" lon="12.3023167"><ele>705.0</ele><time>2026-04-17T13:25:09.605Z</time></trkpt><trkpt lat="42.6737617" lon="12.3022817"><ele>709.0</ele><time>2026-04-17T13:25:11.605Z</time></trkpt><trkpt lat="42.673885" lon="12.302265"><ele>713.0</ele><time>2026-04-17T13:25:13.604Z</time></trkpt><trkpt lat="42.6740017" lon="12.302265"><ele>717.0</ele><time>2026-04-17T13:25:15.605Z</time></trkpt><trkpt lat="42.6741433" lon="12.3022767"><ele>717.0</ele><time>2026-04-17T13:25:17.605Z</time></trkpt><trkpt lat="42.6742333" lon="12.30227"><ele>717.0</ele><time>2026-04-17T13:25:18.605Z</time></trkpt><trkpt lat="42.674305" lon="12.3022567"><ele>717.0</ele><time>2026-04-17T13:25:19.604Z</time></trkpt><trkpt lat="42.6743783" lon="12.3022267"><ele>717.0</ele><time>2026-04-17T13:25:20.605Z</time></trkpt><trkpt lat="42.6744433" lon="12.3021967"><ele>717.0</ele><time>2026-04-17T13:25:21.605Z</time></trkpt><trkpt lat="42.67455" lon="12.30213"><ele>717.0</ele><time>2026-04-17T13:25:23.605Z</time></trkpt><trkpt lat="42.6746517" lon="12.3020833"><ele>715.4000000000001</ele><time>2026-04-17T13:25:25.605Z</time></trkpt><trkpt lat="42.67473" lon="12.3020633"><ele>713.8000000000001</ele><time>2026-04-17T13:25:27.605Z</time></trkpt><trkpt lat="42.6747967" lon="12.30211"><ele>712.2</ele><time>2026-04-17T13:25:29.605Z</time></trkpt><trkpt lat="42.674855" lon="12.30221"><ele>710.6</ele><time>2026-04-17T13:25:31.605Z</time></trkpt><trkpt lat="42.674905" lon="12.302345"><ele>709.0</ele><time>2026-04-17T13:25:33.605Z</time></trkpt><trkpt lat="42.67493" lon="12.3025017"><ele>709.0</ele><time>2026-04-17T13:25:35.605Z</time></trkpt><trkpt lat="42.6749383" lon="12.3025933"><ele>709.0</ele><time>2026-04-17T13:25:36.604Z</time></trkpt><trkpt lat="42.67495" lon="12.3026933"><ele>709.0</ele><time>2026-04-17T13:25:37.604Z</time></trkpt><trkpt lat="42.6749617" lon="12.3027967"><ele>709.0</ele><time>2026-04-17T13:25:38.605Z</time></trkpt><trkpt lat="42.67497" lon="12.3029017"><ele>709.0</ele><time>2026-04-17T13:25:39.605Z</time></trkpt><trkpt lat="42.6749617" lon="12.3030017"><ele>709.0</ele><time>2026-04-17T13:25:40.605Z</time></trkpt><trkpt lat="42.6749467" lon="12.3031117"><ele>710.6</ele><time>2026-04-17T13:25:41.605Z</time></trkpt><trkpt lat="42.6749283" lon="12.303225"><ele>712.2</ele><time>2026-04-17T13:25:42.605Z</time></trkpt><trkpt lat="42.6748983" lon="12.303345"><ele>713.8000000000001</ele><time>2026-04-17T13:25:43.605Z</time></trkpt><trkpt lat="42.6748733" lon="12.3034733"><ele>715.4000000000001</ele><time>2026-04-17T13:25:44.605Z</time></trkpt><trkpt lat="42.6748483" lon="12.30362"><ele>717.0</ele><time>2026-04-17T13:25:45.604Z</time></trkpt><trkpt lat="42.67483" lon="12.30377"><ele>717.5</ele><time>2026-04-17T13:25:46.605Z</time></trkpt><trkpt lat="42.674815" lon="12.3039233"><ele>718.0</ele><time>2026-04-17T13:25:47.605Z</time></trkpt><trkpt lat="42.6748033" lon="12.3040867"><ele>718.5</ele><time>2026-04-17T13:25:48.605Z</time></trkpt><trkpt lat="42.6748" lon="12.3042467"><ele>719.0</ele><time>2026-04-17T13:25:49.605Z</time></trkpt><trkpt lat="42.6748017" lon="12.304405"><ele>719.0</ele><time>2026-04-17T13:25:50.605Z</time></trkpt><trkpt lat="42.6747933" lon="12.3045583"><ele>719.0</ele><time>2026-04-17T13:25:51.605Z</time></trkpt><trkpt lat="42.6747883" lon="12.3046917"><ele>719.0</ele><time>2026-04-17T13:25:52.604Z</time></trkpt><trkpt lat="42.6747933" lon="12.3048067"><ele>719.0</ele><time>2026-04-17T13:25:53.605Z</time></trkpt><trkpt lat="42.6748017" lon="12.304925"><ele>719.0</ele><time>2026-04-17T13:25:54.604Z</time></trkpt><trkpt lat="42.6748067" lon="12.3050367"><ele>718.8333333333333</ele><time>2026-04-17T13:25:55.604Z</time></trkpt><trkpt lat="42.6748067" lon="12.30516"><ele>718.6666666666666</ele><time>2026-04-17T13:25:56.605Z</time></trkpt><trkpt lat="42.6748017" lon="12.305275"><ele>718.5</ele><time>2026-04-17T13:25:57.605Z</time></trkpt><trkpt lat="42.6747983" lon="12.30538"><ele>718.3333333333334</ele><time>2026-04-17T13:25:58.605Z</time></trkpt><trkpt lat="42.674795" lon="12.3054817"><ele>718.1666666666667</ele><time>2026-04-17T13:25:59.605Z</time></trkpt><trkpt lat="42.674775" lon="12.3056433"><ele>718.0</ele><time>2026-04-17T13:26:01.605Z</time></trkpt><trkpt lat="42.6747333" lon="12.3058133"><ele>718.0</ele><time>2026-04-17T13:26:03.604Z</time></trkpt><trkpt lat="42.674705" lon="12.3058983"><ele>718.0</ele><time>2026-04-17T13:26:04.605Z</time></trkpt><trkpt lat="42.6746767" lon="12.3059933"><ele>718.0</ele><time>2026-04-17T13:26:05.605Z</time></trkpt><trkpt lat="42.6746433" lon="12.30609"><ele>718.0</ele><time>2026-04-17T13:26:06.604Z</time></trkpt><trkpt lat="42.67462" lon="12.3061783"><ele>718.0</ele><time>2026-04-17T13:26:07.604Z</time></trkpt><trkpt lat="42.674595" lon="12.3062617"><ele>718.0</ele><time>2026-04-17T13:26:08.605Z</time></trkpt><trkpt lat="42.6745333" lon="12.3063967"><ele>716.5999999999999</ele><time>2026-04-17T13:26:10.605Z</time></trkpt><trkpt lat="42.6744883" lon="12.306485"><ele>715.1999999999999</ele><time>2026-04-17T13:26:11.605Z</time></trkpt><trkpt lat="42.6744333" lon="12.3065883"><ele>713.8</ele><time>2026-04-17T13:26:12.605Z</time></trkpt><trkpt lat="42.6743717" lon="12.30669"><ele>712.4</ele><time>2026-04-17T13:26:13.604Z</time></trkpt><trkpt lat="42.6743067" lon="12.3067983"><ele>711.0</ele><time>2026-04-17T13:26:14.604Z</time></trkpt><trkpt lat="42.67425" lon="12.3068983"><ele>715.0</ele><time>2026-04-17T13:26:15.605Z</time></trkpt><trkpt lat="42.674195" lon="12.3070067"><ele>719.0</ele><time>2026-04-17T13:26:16.605Z</time></trkpt><trkpt lat="42.6741417" lon="12.307105"><ele>723.0</ele><time>2026-04-17T13:26:17.605Z</time></trkpt><trkpt lat="42.6740933" lon="12.3072033"><ele>727.0</ele><time>2026-04-17T13:26:18.605Z</time></trkpt><trkpt lat="42.6740383" lon="12.3073"><ele>731.0</ele><time>2026-04-17T13:26:19.605Z</time></trkpt><trkpt lat="42.6739717" lon="12.307405"><ele>731.0</ele><time>2026-04-17T13:26:20.605Z</time></trkpt><trkpt lat="42.6738983" lon="12.3075083"><ele>731.0</ele><time>2026-04-17T13:26:21.605Z</time></trkpt><trkpt lat="42.67382" lon="12.307605"><ele>731.0</ele><time>2026-04-17T13:26:22.605Z</time></trkpt><trkpt lat="42.6737383" lon="12.30769"><ele>731.0</ele><time>2026-04-17T13:26:23.604Z</time></trkpt><trkpt lat="42.673655" lon="12.3077667"><ele>731.0</ele><time>2026-04-17T13:26:24.605Z</time></trkpt><trkpt lat="42.6735767" lon="12.3078317"><ele>732.6666666666666</ele><time>2026-04-17T13:26:25.605Z</time></trkpt><trkpt lat="42.6734917" lon="12.3078917"><ele>734.3333333333333</ele><time>2026-04-17T13:26:26.605Z</time></trkpt><trkpt lat="42.6734233" lon="12.3079467"><ele>736.0</ele><time>2026-04-17T13:26:27.604Z</time></trkpt><trkpt lat="42.6733567" lon="12.308"><ele>737.6666666666666</ele><time>2026-04-17T13:26:28.603Z</time></trkpt><trkpt lat="42.6733017" lon="12.3080483"><ele>739.3333333333334</ele><time>2026-04-17T13:26:29.604Z</time></trkpt><trkpt lat="42.6732383" lon="12.3081767"><ele>741.0</ele><time>2026-04-17T13:26:31.604Z</time></trkpt><trkpt lat="42.673215" lon="12.308355"><ele>741.5</ele><time>2026-04-17T13:26:33.604Z</time></trkpt><trkpt lat="42.6732167" lon="12.308455"><ele>742.0</ele><time>2026-04-17T13:26:34.603Z</time></trkpt><trkpt lat="42.6732233" lon="12.3085683"><ele>742.5</ele><time>2026-04-17T13:26:35.604Z</time></trkpt><trkpt lat="42.6732267" lon="12.30869"><ele>743.0</ele><time>2026-04-17T13:26:36.604Z</time></trkpt><trkpt lat="42.6732283" lon="12.3088283"><ele>743.5</ele><time>2026-04-17T13:26:37.604Z</time></trkpt><trkpt lat="42.6732283" lon="12.30896"><ele>744.0</ele><time>2026-04-17T13:26:38.603Z</time></trkpt><trkpt lat="42.6732333" lon="12.3090933"><ele>745.2</ele><time>2026-04-17T13:26:39.604Z</time></trkpt><trkpt lat="42.6732433" lon="12.3092333"><ele>746.4000000000001</ele><time>2026-04-17T13:26:40.604Z</time></trkpt><trkpt lat="42.673265" lon="12.309385"><ele>747.6</ele><time>2026-04-17T13:26:41.604Z</time></trkpt><trkpt lat="42.673285" lon="12.30954"><ele>748.8</ele><time>2026-04-17T13:26:42.604Z</time></trkpt><trkpt lat="42.6733167" lon="12.3096817"><ele>750.0</ele><time>2026-04-17T13:26:43.604Z</time></trkpt><trkpt lat="42.6733417" lon="12.3097983"><ele>750.5</ele><time>2026-04-17T13:26:44.604Z</time></trkpt><trkpt lat="42.6733633" lon="12.3099083"><ele>751.0</ele><time>2026-04-17T13:26:45.604Z</time></trkpt><trkpt lat="42.6733767" lon="12.3100133"><ele>751.5</ele><time>2026-04-17T13:26:46.604Z</time></trkpt><trkpt lat="42.6733833" lon="12.3101217"><ele>752.0</ele><time>2026-04-17T13:26:47.604Z</time></trkpt><trkpt lat="42.6733817" lon="12.310245"><ele>752.5</ele><time>2026-04-17T13:26:48.604Z</time></trkpt><trkpt lat="42.6733683" lon="12.3103767"><ele>753.0</ele><time>2026-04-17T13:26:49.604Z</time></trkpt><trkpt lat="42.6733483" lon="12.3105267"><ele>753.5999999999999</ele><time>2026-04-17T13:26:50.604Z</time></trkpt><trkpt lat="42.67332" lon="12.3106667"><ele>754.1999999999999</ele><time>2026-04-17T13:26:51.604Z</time></trkpt><trkpt lat="42.6732917" lon="12.3108033"><ele>754.8</ele><time>2026-04-17T13:26:52.603Z</time></trkpt><trkpt lat="42.673265" lon="12.310945"><ele>755.4</ele><time>2026-04-17T13:26:53.604Z</time></trkpt><trkpt lat="42.673245" lon="12.31109"><ele>756.0</ele><time>2026-04-17T13:26:54.604Z</time></trkpt><trkpt lat="42.6732283" lon="12.3112283"><ele>756.0</ele><time>2026-04-17T13:26:55.603Z</time></trkpt><trkpt lat="42.67322" lon="12.31136"><ele>756.0</ele><time>2026-04-17T13:26:56.604Z</time></trkpt><trkpt lat="42.673215" lon="12.3114917"><ele>756.0</ele><time>2026-04-17T13:26:57.604Z</time></trkpt><trkpt lat="42.6732033" lon="12.3116167"><ele>756.0</ele><time>2026-04-17T13:26:58.603Z</time></trkpt><trkpt lat="42.673195" lon="12.3117483"><ele>756.0</ele><time>2026-04-17T13:26:59.604Z</time></trkpt><trkpt lat="42.67319" lon="12.3118833"><ele>756.6666666666666</ele><time>2026-04-17T13:27:00.604Z</time></trkpt><trkpt lat="42.6731817" lon="12.3120183"><ele>757.3333333333334</ele><time>2026-04-17T13:27:01.604Z</time></trkpt><trkpt lat="42.6731733" lon="12.312145"><ele>758.0</ele><time>2026-04-17T13:27:02.604Z</time></trkpt><trkpt lat="42.6731683" lon="12.3122583"><ele>758.6666666666667</ele><time>2026-04-17T13:27:03.604Z</time></trkpt><trkpt lat="42.6731633" lon="12.3123583"><ele>759.3333333333334</ele><time>2026-04-17T13:27:04.604Z</time></trkpt><trkpt lat="42.6731467" lon="12.3124433"><ele>760.0</ele><time>2026-04-17T13:27:05.604Z</time></trkpt><trkpt lat="42.673105" lon="12.3125733"><ele>761.0</ele><time>2026-04-17T13:27:07.604Z</time></trkpt><trkpt lat="42.6730667" lon="12.31268"><ele>762.0</ele><time>2026-04-17T13:27:09.604Z</time></trkpt><trkpt lat="42.672985" lon="12.31277"><ele>763.0</ele><time>2026-04-17T13:27:11.604Z</time></trkpt><trkpt lat="42.6729333" lon="12.3128883"><ele>764.0</ele><time>2026-04-17T13:27:13.604Z</time></trkpt><trkpt lat="42.6729267" lon="12.3130267"><ele>765.0</ele><time>2026-04-17T13:27:15.604Z</time></trkpt><trkpt lat="42.672995" lon="12.31316"><ele>766.0</ele><time>2026-04-17T13:27:17.604Z</time></trkpt><trkpt lat="42.673045" lon="12.3132267"><ele>767.0</ele><time>2026-04-17T13:27:18.604Z</time></trkpt><trkpt lat="42.6731017" lon="12.3133067"><ele>768.0</ele><time>2026-04-17T13:27:19.604Z</time></trkpt><trkpt lat="42.67315" lon="12.313405"><ele>769.0</ele><time>2026-04-17T13:27:20.604Z</time></trkpt><trkpt lat="42.67319" lon="12.31351"><ele>770.0</ele><time>2026-04-17T13:27:21.604Z</time></trkpt><trkpt lat="42.6732217" lon="12.31361"><ele>771.0</ele><time>2026-04-17T13:27:22.604Z</time></trkpt><trkpt lat="42.67325" lon="12.313705"><ele>771.0</ele><time>2026-04-17T13:27:23.603Z</time></trkpt><trkpt lat="42.6732767" lon="12.3137833"><ele>771.0</ele><time>2026-04-17T13:27:24.603Z</time></trkpt><trkpt lat="42.6733317" lon="12.3139083"><ele>771.0</ele><time>2026-04-17T13:27:26.604Z</time></trkpt><trkpt lat="42.67339" lon="12.31401"><ele>771.0</ele><time>2026-04-17T13:27:28.603Z</time></trkpt><trkpt lat="42.6734517" lon="12.3140783"><ele>771.0</ele><time>2026-04-17T13:27:30.604Z</time></trkpt><trkpt lat="42.6735133" lon="12.314165"><ele>771.0</ele><time>2026-04-17T13:35:46.602Z</time></trkpt><trkpt lat="42.673555" lon="12.314255"><ele>771.0</ele><time>2026-04-17T13:35:48.603Z</time></trkpt><trkpt lat="42.6735767" lon="12.3143833"><ele>771.0</ele><time>2026-04-17T13:35:50.603Z</time></trkpt><trkpt lat="42.67359" lon="12.3145183"><ele>771.0</ele><time>2026-04-17T13:35:52.602Z</time></trkpt><trkpt lat="42.6736" lon="12.314645"><ele>771.0</ele><time>2026-04-17T13:35:54.603Z</time></trkpt><trkpt lat="42.6736083" lon="12.3147733"><ele>771.0</ele><time>2026-04-17T13:35:56.603Z</time></trkpt><trkpt lat="42.6735867" lon="12.3148983"><ele>771.0</ele><time>2026-04-17T13:35:58.602Z</time></trkpt><trkpt lat="42.67356" lon="12.3150433"><ele>771.0</ele><time>2026-04-17T13:36:00.603Z</time></trkpt><trkpt lat="42.6735483" lon="12.3151817"><ele>771.0</ele><time>2026-04-17T13:36:02.602Z</time></trkpt><trkpt lat="42.6735283" lon="12.31534"><ele>771.0</ele><time>2026-04-17T13:36:04.602Z</time></trkpt><trkpt lat="42.673505" lon="12.3154917"><ele>771.0</ele><time>2026-04-17T13:36:06.602Z</time></trkpt><trkpt lat="42.67348" lon="12.3156467"><ele>769.0</ele><time>2026-04-17T13:36:08.602Z</time></trkpt><trkpt lat="42.6734567" lon="12.3157317"><ele>767.0</ele><time>2026-04-17T13:36:09.602Z</time></trkpt><trkpt lat="42.6734383" lon="12.31582"><ele>765.0</ele><time>2026-04-17T13:36:10.603Z</time></trkpt><trkpt lat="42.6734083" lon="12.3159717"><ele>763.0</ele><time>2026-04-17T13:36:12.602Z</time></trkpt><trkpt lat="42.673375" lon="12.3161033"><ele>761.0</ele><time>2026-04-17T13:36:14.602Z</time></trkpt><trkpt lat="42.6733233" lon="12.3162383"><ele>761.0</ele><time>2026-04-17T13:36:16.603Z</time></trkpt><trkpt lat="42.673275" lon="12.3163533"><ele>761.0</ele><time>2026-04-17T13:36:18.603Z</time></trkpt><trkpt lat="42.67324" lon="12.3164967"><ele>761.0</ele><time>2026-04-17T13:36:20.603Z</time></trkpt><trkpt lat="42.6731867" lon="12.3166117"><ele>761.0</ele><time>2026-04-17T13:36:22.603Z</time></trkpt><trkpt lat="42.673145" lon="12.3167283"><ele>761.0</ele><time>2026-04-17T13:36:24.603Z</time></trkpt><trkpt lat="42.6730967" lon="12.31686"><ele>757.0</ele><time>2026-04-17T13:36:26.602Z</time></trkpt><trkpt lat="42.6730333" lon="12.31699"><ele>753.0</ele><time>2026-04-17T13:36:28.603Z</time></trkpt><trkpt lat="42.67295" lon="12.3171133"><ele>749.0</ele><time>2026-04-17T13:36:30.603Z</time></trkpt><trkpt lat="42.67289" lon="12.3172467"><ele>745.0</ele><time>2026-04-17T13:36:32.603Z</time></trkpt><trkpt lat="42.6728533" lon="12.3174183"><ele>746.1666666666667</ele><time>2026-04-17T13:36:34.603Z</time></trkpt><trkpt lat="42.67284" lon="12.3175167"><ele>747.3333333333334</ele><time>2026-04-17T13:36:35.603Z</time></trkpt><trkpt lat="42.6728317" lon="12.3176133"><ele>748.5</ele><time>2026-04-17T13:36:36.603Z</time></trkpt><trkpt lat="42.672815" lon="12.3177017"><ele>749.6666666666666</ele><time>2026-04-17T13:36:37.603Z</time></trkpt><trkpt lat="42.6727833" lon="12.317875"><ele>750.8333333333333</ele><time>2026-04-17T13:36:39.603Z</time></trkpt><trkpt lat="42.67276" lon="12.3179583"><ele>752.0</ele><time>2026-04-17T13:36:40.603Z</time></trkpt><trkpt lat="42.67272" lon="12.3181083"><ele>748.0</ele><time>2026-04-17T13:36:42.602Z</time></trkpt><trkpt lat="42.6726683" lon="12.31823"><ele>744.0</ele><time>2026-04-17T13:36:44.603Z</time></trkpt><trkpt lat="42.6726133" lon="12.3183183"><ele>740.0</ele><time>2026-04-17T13:36:46.603Z</time></trkpt><trkpt lat="42.672535" lon="12.3184067"><ele>736.0</ele><time>2026-04-17T13:36:48.603Z</time></trkpt><trkpt lat="42.6724267" lon="12.3184683"><ele>732.0</ele><time>2026-04-17T13:36:50.603Z</time></trkpt><trkpt lat="42.672365" lon="12.3185"><ele>732.0</ele><time>2026-04-17T13:36:51.602Z</time></trkpt><trkpt lat="42.67229" lon="12.3185267"><ele>732.0</ele><time>2026-04-17T13:36:52.603Z</time></trkpt><trkpt lat="42.6722233" lon="12.318555"><ele>732.0</ele><time>2026-04-17T13:36:53.602Z</time></trkpt><trkpt lat="42.67212" lon="12.3186067"><ele>732.0</ele><time>2026-04-17T13:36:55.603Z</time></trkpt><trkpt lat="42.6720183" lon="12.3186567"><ele>732.0</ele><time>2026-04-17T13:36:57.602Z</time></trkpt><trkpt lat="42.6719167" lon="12.318705"><ele>733.4000000000001</ele><time>2026-04-17T13:36:59.603Z</time></trkpt><trkpt lat="42.6718133" lon="12.31878"><ele>734.8000000000001</ele><time>2026-04-17T13:37:01.603Z</time></trkpt><trkpt lat="42.67174" lon="12.3188567"><ele>736.2</ele><time>2026-04-17T13:37:03.602Z</time></trkpt><trkpt lat="42.67173" lon="12.3189867"><ele>737.6</ele><time>2026-04-17T13:37:05.603Z</time></trkpt><trkpt lat="42.671795" lon="12.319115"><ele>739.0</ele><time>2026-04-17T13:37:07.603Z</time></trkpt><trkpt lat="42.6718583" lon="12.3191617"><ele>739.0</ele><time>2026-04-17T13:37:08.603Z</time></trkpt><trkpt lat="42.67193" lon="12.3192"><ele>739.0</ele><time>2026-04-17T13:37:09.603Z</time></trkpt><trkpt lat="42.672005" lon="12.3192283"><ele>739.0</ele><time>2026-04-17T13:37:10.603Z</time></trkpt><trkpt lat="42.6720733" lon="12.3192567"><ele>739.0</ele><time>2026-04-17T13:37:11.603Z</time></trkpt><trkpt lat="42.6721783" lon="12.3193267"><ele>739.0</ele><time>2026-04-17T13:37:13.603Z</time></trkpt><trkpt lat="42.6722833" lon="12.31941"><ele>735.6666666666667</ele><time>2026-04-17T13:37:15.603Z</time></trkpt><trkpt lat="42.6723517" lon="12.31945"><ele>732.3333333333334</ele><time>2026-04-17T13:37:16.603Z</time></trkpt><trkpt lat="42.6724333" lon="12.319495"><ele>729.0</ele><time>2026-04-17T13:37:17.603Z</time></trkpt><trkpt lat="42.6725217" lon="12.3195417"><ele>725.6666666666666</ele><time>2026-04-17T13:37:18.603Z</time></trkpt><trkpt lat="42.67261" lon="12.3195933"><ele>722.3333333333333</ele><time>2026-04-17T13:37:19.603Z</time></trkpt><trkpt lat="42.6726933" lon="12.3196383"><ele>719.0</ele><time>2026-04-17T13:37:20.603Z</time></trkpt><trkpt lat="42.6727717" lon="12.319675"><ele>717.0</ele><time>2026-04-17T13:37:21.603Z</time></trkpt><trkpt lat="42.67285" lon="12.3197117"><ele>715.0</ele><time>2026-04-17T13:37:22.603Z</time></trkpt><trkpt lat="42.6729267" lon="12.3197483"><ele>713.0</ele><time>2026-04-17T13:37:23.602Z</time></trkpt><trkpt lat="42.6729983" lon="12.3197867"><ele>711.0</ele><time>2026-04-17T13:37:24.602Z</time></trkpt><trkpt lat="42.6730683" lon="12.3198233"><ele>709.0</ele><time>2026-04-17T13:37:25.603Z</time></trkpt><trkpt lat="42.6731367" lon="12.3198583"><ele>707.0</ele><time>2026-04-17T13:37:26.603Z</time></trkpt><trkpt lat="42.6732" lon="12.3199"><ele>707.0</ele><time>2026-04-17T13:37:27.603Z</time></trkpt><trkpt lat="42.6732617" lon="12.31994"><ele>707.0</ele><time>2026-04-17T13:37:28.603Z</time></trkpt><trkpt lat="42.673325" lon="12.31998"><ele>707.0</ele><time>2026-04-17T13:37:29.603Z</time></trkpt><trkpt lat="42.6733917" lon="12.32002"><ele>707.0</ele><time>2026-04-17T13:37:30.603Z</time></trkpt><trkpt lat="42.6734483" lon="12.3200667"><ele>707.0</ele><time>2026-04-17T13:37:31.602Z</time></trkpt><trkpt lat="42.67353" lon="12.3201833"><ele>707.0</ele><time>2026-04-17T13:37:33.603Z</time></trkpt><trkpt lat="42.6735683" lon="12.32033"><ele>707.0</ele><time>2026-04-17T13:37:35.603Z</time></trkpt><trkpt lat="42.673575" lon="12.320425"><ele>707.0</ele><time>2026-04-17T13:37:36.603Z</time></trkpt><trkpt lat="42.6735683" lon="12.3205167"><ele>707.0</ele><time>2026-04-17T13:37:37.602Z</time></trkpt><trkpt lat="42.67355" lon="12.320605"><ele>707.0</ele><time>2026-04-17T13:37:38.603Z</time></trkpt><trkpt lat="42.6735267" lon="12.32069"><ele>707.0</ele><time>2026-04-17T13:37:39.602Z</time></trkpt><trkpt lat="42.67351" lon="12.320775"><ele>707.0</ele><time>2026-04-17T13:37:40.603Z</time></trkpt><trkpt lat="42.6734767" lon="12.3209333"><ele>708.2</ele><time>2026-04-17T13:37:42.603Z</time></trkpt><trkpt lat="42.6734517" lon="12.3210917"><ele>709.4000000000001</ele><time>2026-04-17T13:37:44.603Z</time></trkpt><trkpt lat="42.673475" lon="12.3212283"><ele>710.5999999999999</ele><time>2026-04-17T13:37:46.603Z</time></trkpt><trkpt lat="42.67355" lon="12.3212983"><ele>711.8</ele><time>2026-04-17T13:37:48.603Z</time></trkpt><trkpt lat="42.67365" lon="12.3212733"><ele>713.0</ele><time>2026-04-17T13:37:50.603Z</time></trkpt><trkpt lat="42.6737617" lon="12.3211833"><ele>710.5</ele><time>2026-04-17T13:37:52.603Z</time></trkpt><trkpt lat="42.6738133" lon="12.32112"><ele>708.0</ele><time>2026-04-17T13:37:53.603Z</time></trkpt><trkpt lat="42.6738683" lon="12.3210583"><ele>705.5</ele><time>2026-04-17T13:37:54.603Z</time></trkpt><trkpt lat="42.67396" lon="12.320965"><ele>703.0</ele><time>2026-04-17T13:37:56.602Z</time></trkpt><trkpt lat="42.674065" lon="12.3208733"><ele>700.5</ele><time>2026-04-17T13:37:58.603Z</time></trkpt><trkpt lat="42.674115" lon="12.3208183"><ele>698.0</ele><time>2026-04-17T13:37:59.603Z</time></trkpt><trkpt lat="42.67417" lon="12.3207667"><ele>698.0</ele><time>2026-04-17T13:38:00.602Z</time></trkpt><trkpt lat="42.6742467" lon="12.3207183"><ele>698.0</ele><time>2026-04-17T13:38:01.602Z</time></trkpt><trkpt lat="42.674325" lon="12.3206833"><ele>698.0</ele><time>2026-04-17T13:38:02.603Z</time></trkpt><trkpt lat="42.6744" lon="12.3206417"><ele>698.0</ele><time>2026-04-17T13:38:03.603Z</time></trkpt><trkpt lat="42.6744767" lon="12.3206017"><ele>698.0</ele><time>2026-04-17T13:38:04.603Z</time></trkpt><trkpt lat="42.674555" lon="12.3205633"><ele>698.0</ele><time>2026-04-17T13:38:05.603Z</time></trkpt><trkpt lat="42.6746233" lon="12.3205417"><ele>695.0</ele><time>2026-04-17T13:38:06.602Z</time></trkpt><trkpt lat="42.6746983" lon="12.320535"><ele>692.0</ele><time>2026-04-17T13:38:07.603Z</time></trkpt><trkpt lat="42.6747667" lon="12.3205433"><ele>689.0</ele><time>2026-04-17T13:38:08.603Z</time></trkpt><trkpt lat="42.6748433" lon="12.3205467"><ele>686.0</ele><time>2026-04-17T13:38:09.603Z</time></trkpt><trkpt lat="42.6749283" lon="12.32055"><ele>683.0</ele><time>2026-04-17T13:38:10.603Z</time></trkpt><trkpt lat="42.675015" lon="12.3205467"><ele>680.0</ele><time>2026-04-17T13:38:11.602Z</time></trkpt><trkpt lat="42.67511" lon="12.3205417"><ele>680.0</ele><time>2026-04-17T13:38:12.602Z</time></trkpt><trkpt lat="42.6752" lon="12.320535"><ele>680.0</ele><time>2026-04-17T13:38:13.602Z</time></trkpt><trkpt lat="42.6752767" lon="12.3205217"><ele>680.0</ele><time>2026-04-17T13:38:14.603Z</time></trkpt><trkpt lat="42.6753533" lon="12.3205117"><ele>680.0</ele><time>2026-04-17T13:38:15.603Z</time></trkpt><trkpt lat="42.6754267" lon="12.3204983"><ele>680.0</ele><time>2026-04-17T13:38:16.603Z</time></trkpt><trkpt lat="42.6754917" lon="12.32049"><ele>680.0</ele><time>2026-04-17T13:38:17.603Z</time></trkpt><trkpt lat="42.6755567" lon="12.3204967"><ele>680.0</ele><time>2026-04-17T13:38:18.603Z</time></trkpt><trkpt lat="42.67562" lon="12.32051"><ele>681.0</ele><time>2026-04-17T13:38:19.602Z</time></trkpt><trkpt lat="42.6757333" lon="12.3205633"><ele>682.0</ele><time>2026-04-17T13:38:21.603Z</time></trkpt><trkpt lat="42.675785" lon="12.3206167"><ele>683.0</ele><time>2026-04-17T13:38:22.603Z</time></trkpt><trkpt lat="42.6758767" lon="12.3207233"><ele>684.0</ele><time>2026-04-17T13:38:24.602Z</time></trkpt><trkpt lat="42.67599" lon="12.320765"><ele>685.0</ele><time>2026-04-17T13:38:26.603Z</time></trkpt><trkpt lat="42.676055" lon="12.3207583"><ele>681.1666666666667</ele><time>2026-04-17T13:38:27.602Z</time></trkpt><trkpt lat="42.676125" lon="12.3207517"><ele>677.3333333333334</ele><time>2026-04-17T13:38:28.603Z</time></trkpt><trkpt lat="42.6761883" lon="12.32074"><ele>673.5</ele><time>2026-04-17T13:38:29.603Z</time></trkpt><trkpt lat="42.6762533" lon="12.3207333"><ele>669.6666666666666</ele><time>2026-04-17T13:38:30.603Z</time></trkpt><trkpt lat="42.67637" lon="12.3207567"><ele>665.8333333333333</ele><time>2026-04-17T13:38:32.603Z</time></trkpt><trkpt lat="42.6764883" lon="12.3208317"><ele>662.0</ele><time>2026-04-17T13:38:34.603Z</time></trkpt><trkpt lat="42.6765533" lon="12.3208883"><ele>662.0</ele><time>2026-04-17T13:38:35.603Z</time></trkpt><trkpt lat="42.6766117" lon="12.32094"><ele>662.0</ele><time>2026-04-17T13:38:36.602Z</time></trkpt><trkpt lat="42.676695" lon="12.321045"><ele>662.0</ele><time>2026-04-17T13:38:38.603Z</time></trkpt><trkpt lat="42.6767567" lon="12.321175"><ele>662.0</ele><time>2026-04-17T13:38:40.602Z</time></trkpt><trkpt lat="42.676795" lon="12.32131"><ele>662.0</ele><time>2026-04-17T13:38:42.603Z</time></trkpt><trkpt lat="42.67681" lon="12.3214683"><ele>664.1666666666666</ele><time>2026-04-17T13:38:44.603Z</time></trkpt><trkpt lat="42.6768283" lon="12.3215567"><ele>666.3333333333333</ele><time>2026-04-17T13:38:45.603Z</time></trkpt><trkpt lat="42.676855" lon="12.3216433"><ele>668.5</ele><time>2026-04-17T13:38:46.603Z</time></trkpt><trkpt lat="42.6768867" lon="12.3217317"><ele>670.6666666666666</ele><time>2026-04-17T13:38:47.602Z</time></trkpt><trkpt lat="42.6769217" lon="12.3218033"><ele>672.8333333333334</ele><time>2026-04-17T13:38:48.603Z</time></trkpt><trkpt lat="42.6770133" lon="12.321895"><ele>675.0</ele><time>2026-04-17T13:38:50.602Z</time></trkpt><trkpt lat="42.677135" lon="12.3219433"><ele>670.5</ele><time>2026-04-17T13:38:52.602Z</time></trkpt><trkpt lat="42.67721" lon="12.3219683"><ele>666.0</ele><time>2026-04-17T13:38:53.603Z</time></trkpt><trkpt lat="42.6772783" lon="12.3219983"><ele>661.5</ele><time>2026-04-17T13:38:54.603Z</time></trkpt><trkpt lat="42.6773383" lon="12.322035"><ele>657.0</ele><time>2026-04-17T13:38:55.603Z</time></trkpt><trkpt lat="42.6774017" lon="12.3220833"><ele>652.5</ele><time>2026-04-17T13:38:56.603Z</time></trkpt><trkpt lat="42.6774633" lon="12.3221433"><ele>648.0</ele><time>2026-04-17T13:38:57.603Z</time></trkpt><trkpt lat="42.6775217" lon="12.32223"><ele>649.3333333333334</ele><time>2026-04-17T13:38:58.603Z</time></trkpt><trkpt lat="42.67756" lon="12.3223083"><ele>650.6666666666666</ele><time>2026-04-17T13:38:59.603Z</time></trkpt><trkpt lat="42.67758" lon="12.322395"><ele>652.0</ele><time>2026-04-17T13:39:00.603Z</time></trkpt><trkpt lat="42.67758" lon="12.3225"><ele>653.3333333333333</ele><time>2026-04-17T13:39:01.603Z</time></trkpt><trkpt lat="42.677575" lon="12.322625"><ele>654.6666666666666</ele><time>2026-04-17T13:39:02.603Z</time></trkpt><trkpt lat="42.6775567" lon="12.3227383"><ele>656.0</ele><time>2026-04-17T13:39:03.603Z</time></trkpt><trkpt lat="42.6775417" lon="12.3228383"><ele>656.0</ele><time>2026-04-17T13:39:04.603Z</time></trkpt><trkpt lat="42.6775283" lon="12.3229267"><ele>656.0</ele><time>2026-04-17T13:39:05.603Z</time></trkpt><trkpt lat="42.6775217" lon="12.3230833"><ele>656.0</ele><time>2026-04-17T13:39:07.603Z</time></trkpt><trkpt lat="42.677565" lon="12.3232467"><ele>656.0</ele><time>2026-04-17T13:39:09.603Z</time></trkpt><trkpt lat="42.6775783" lon="12.3233383"><ele>656.0</ele><time>2026-04-17T13:39:10.603Z</time></trkpt><trkpt lat="42.67759" lon="12.3234467"><ele>655.8333333333333</ele><time>2026-04-17T13:39:11.602Z</time></trkpt><trkpt lat="42.6775833" lon="12.3235567"><ele>655.6666666666666</ele><time>2026-04-17T13:39:12.603Z</time></trkpt><trkpt lat="42.6775733" lon="12.3236633"><ele>655.5</ele><time>2026-04-17T13:39:13.602Z</time></trkpt><trkpt lat="42.677565" lon="12.3237617"><ele>655.3333333333334</ele><time>2026-04-17T13:39:14.603Z</time></trkpt><trkpt lat="42.6775433" lon="12.3238567"><ele>655.1666666666667</ele><time>2026-04-17T13:39:15.602Z</time></trkpt><trkpt lat="42.6775167" lon="12.32395"><ele>655.0</ele><time>2026-04-17T13:39:16.603Z</time></trkpt><trkpt lat="42.6774933" lon="12.3240467"><ele>653.5</ele><time>2026-04-17T13:39:17.602Z</time></trkpt><trkpt lat="42.6774483" lon="12.3241417"><ele>652.0</ele><time>2026-04-17T13:39:18.603Z</time></trkpt><trkpt lat="42.677405" lon="12.32424"><ele>650.5</ele><time>2026-04-17T13:39:19.602Z</time></trkpt><trkpt lat="42.67735" lon="12.32433"><ele>649.0</ele><time>2026-04-17T13:39:20.603Z</time></trkpt><trkpt lat="42.6773" lon="12.324425"><ele>647.5</ele><time>2026-04-17T13:39:21.602Z</time></trkpt><trkpt lat="42.6772617" lon="12.324535"><ele>646.0</ele><time>2026-04-17T13:39:22.603Z</time></trkpt><trkpt lat="42.67723" lon="12.3246467"><ele>643.8</ele><time>2026-04-17T13:39:23.603Z</time></trkpt><trkpt lat="42.6771933" lon="12.32476"><ele>641.5999999999999</ele><time>2026-04-17T13:39:24.603Z</time></trkpt><trkpt lat="42.6771583" lon="12.3248867"><ele>639.4</ele><time>2026-04-17T13:39:25.603Z</time></trkpt><trkpt lat="42.67713" lon="12.3250133"><ele>637.2</ele><time>2026-04-17T13:39:26.603Z</time></trkpt><trkpt lat="42.6771133" lon="12.3251333"><ele>635.0</ele><time>2026-04-17T13:39:27.603Z</time></trkpt><trkpt lat="42.6771217" lon="12.3252517"><ele>635.0</ele><time>2026-04-17T13:39:28.603Z</time></trkpt><trkpt lat="42.6771483" lon="12.3253667"><ele>635.0</ele><time>2026-04-17T13:39:29.603Z</time></trkpt><trkpt lat="42.6771833" lon="12.3254717"><ele>635.0</ele><time>2026-04-17T13:39:30.603Z</time></trkpt><trkpt lat="42.6772083" lon="12.3255733"><ele>635.0</ele><time>2026-04-17T13:39:31.603Z</time></trkpt><trkpt lat="42.67721" lon="12.3256633"><ele>635.0</ele><time>2026-04-17T13:39:32.603Z</time></trkpt><trkpt lat="42.6772" lon="12.3257583"><ele>635.0</ele><time>2026-04-17T13:39:33.603Z</time></trkpt><trkpt lat="42.6771683" lon="12.3258583"><ele>633.4</ele><time>2026-04-17T13:39:34.603Z</time></trkpt><trkpt lat="42.677115" lon="12.3259567"><ele>631.8</ele><time>2026-04-17T13:39:35.602Z</time></trkpt><trkpt lat="42.6770567" lon="12.3260617"><ele>630.2</ele><time>2026-04-17T13:39:36.603Z</time></trkpt><trkpt lat="42.676985" lon="12.3261617"><ele>628.6</ele><time>2026-04-17T13:39:37.602Z</time></trkpt><trkpt lat="42.6768967" lon="12.3262683"><ele>627.0</ele><time>2026-04-17T13:39:38.603Z</time></trkpt><trkpt lat="42.6768217" lon="12.3263833"><ele>629.1666666666666</ele><time>2026-04-17T13:39:39.603Z</time></trkpt><trkpt lat="42.676765" lon="12.3264967"><ele>631.3333333333334</ele><time>2026-04-17T13:39:40.603Z</time></trkpt><trkpt lat="42.6767233" lon="12.3265933"><ele>633.5</ele><time>2026-04-17T13:39:41.602Z</time></trkpt><trkpt lat="42.6766833" lon="12.3266833"><ele>635.6666666666667</ele><time>2026-04-17T13:39:42.602Z</time></trkpt><trkpt lat="42.6766533" lon="12.3267733"><ele>637.8333333333334</ele><time>2026-04-17T13:39:43.603Z</time></trkpt><trkpt lat="42.6766217" lon="12.3268683"><ele>640.0</ele><time>2026-04-17T13:39:44.603Z</time></trkpt><trkpt lat="42.676585" lon="12.3269783"><ele>640.0</ele><time>2026-04-17T13:39:45.603Z</time></trkpt><trkpt lat="42.6765333" lon="12.3270933"><ele>640.0</ele><time>2026-04-17T13:39:46.603Z</time></trkpt><trkpt lat="42.6764917" lon="12.3271983"><ele>640.0</ele><time>2026-04-17T13:39:47.603Z</time></trkpt><trkpt lat="42.67643" lon="12.3272733"><ele>640.0</ele><time>2026-04-17T13:39:48.602Z</time></trkpt><trkpt lat="42.6763667" lon="12.327335"><ele>640.0</ele><time>2026-04-17T13:39:49.603Z</time></trkpt><trkpt lat="42.6762917" lon="12.3273817"><ele>640.0</ele><time>2026-04-17T13:39:50.602Z</time></trkpt><trkpt lat="42.6761983" lon="12.3274183"><ele>640.5</ele><time>2026-04-17T13:39:51.602Z</time></trkpt><trkpt lat="42.6761" lon="12.3274483"><ele>641.0</ele><time>2026-04-17T13:39:52.603Z</time></trkpt><trkpt lat="42.6760067" lon="12.3274783"><ele>641.5</ele><time>2026-04-17T13:39:53.602Z</time></trkpt><trkpt lat="42.675925" lon="12.327515"><ele>642.0</ele><time>2026-04-17T13:39:54.602Z</time></trkpt><trkpt lat="42.675855" lon="12.327565"><ele>642.5</ele><time>2026-04-17T13:39:55.602Z</time></trkpt><trkpt lat="42.6758017" lon="12.327635"><ele>643.0</ele><time>2026-04-17T13:39:56.603Z</time></trkpt><trkpt lat="42.6757783" lon="12.32772"><ele>643.0</ele><time>2026-04-17T13:39:57.603Z</time></trkpt><trkpt lat="42.67578" lon="12.32782"><ele>643.0</ele><time>2026-04-17T13:39:58.602Z</time></trkpt><trkpt lat="42.6757983" lon="12.3279267"><ele>643.0</ele><time>2026-04-17T13:39:59.602Z</time></trkpt><trkpt lat="42.67583" lon="12.3280367"><ele>643.0</ele><time>2026-04-17T13:40:00.603Z</time></trkpt><trkpt lat="42.6758483" lon="12.3281433"><ele>643.0</ele><time>2026-04-17T13:40:01.602Z</time></trkpt><trkpt lat="42.675855" lon="12.3282417"><ele>643.0</ele><time>2026-04-17T13:40:02.603Z</time></trkpt><trkpt lat="42.67584" lon="12.3283433"><ele>641.6666666666667</ele><time>2026-04-17T13:40:03.603Z</time></trkpt><trkpt lat="42.6758083" lon="12.3284533"><ele>640.3333333333334</ele><time>2026-04-17T13:40:04.602Z</time></trkpt><trkpt lat="42.675765" lon="12.3285683"><ele>639.0</ele><time>2026-04-17T13:40:05.603Z</time></trkpt><trkpt lat="42.6757083" lon="12.3286717"><ele>637.6666666666666</ele><time>2026-04-17T13:40:06.602Z</time></trkpt><trkpt lat="42.6756517" lon="12.3287633"><ele>636.3333333333333</ele><time>2026-04-17T13:40:07.603Z</time></trkpt><trkpt lat="42.67559" lon="12.328835"><ele>635.0</ele><time>2026-04-17T13:40:08.603Z</time></trkpt><trkpt lat="42.6755233" lon="12.3289033"><ele>635.6</ele><time>2026-04-17T13:40:09.602Z</time></trkpt><trkpt lat="42.675435" lon="12.3289717"><ele>636.2</ele><time>2026-04-17T13:40:10.603Z</time></trkpt><trkpt lat="42.6753367" lon="12.3290333"><ele>636.8</ele><time>2026-04-17T13:40:11.602Z</time></trkpt><trkpt lat="42.6752383" lon="12.3291"><ele>637.4</ele><time>2026-04-17T13:40:12.602Z</time></trkpt><trkpt lat="42.6751617" lon="12.3291667"><ele>638.0</ele><time>2026-04-17T13:40:13.603Z</time></trkpt><trkpt lat="42.6751033" lon="12.3292417"><ele>638.0</ele><time>2026-04-17T13:40:14.603Z</time></trkpt><trkpt lat="42.6750567" lon="12.32933"><ele>638.0</ele><time>2026-04-17T13:40:15.603Z</time></trkpt><trkpt lat="42.67503" lon="12.3294283"><ele>638.0</ele><time>2026-04-17T13:40:16.603Z</time></trkpt><trkpt lat="42.675015" lon="12.3295383"><ele>638.0</ele><time>2026-04-17T13:40:17.602Z</time></trkpt><trkpt lat="42.6749983" lon="12.3296583"><ele>638.0</ele><time>2026-04-17T13:40:18.603Z</time></trkpt><trkpt lat="42.6749867" lon="12.329785"><ele>638.0</ele><time>2026-04-17T13:40:19.603Z</time></trkpt><trkpt lat="42.6749567" lon="12.329925"><ele>636.4</ele><time>2026-04-17T13:40:20.603Z</time></trkpt><trkpt lat="42.674915" lon="12.330065"><ele>634.8</ele><time>2026-04-17T13:40:21.603Z</time></trkpt><trkpt lat="42.6748533" lon="12.3302033"><ele>633.2</ele><time>2026-04-17T13:40:22.602Z</time></trkpt><trkpt lat="42.674795" lon="12.3303167"><ele>631.6</ele><time>2026-04-17T13:40:23.603Z</time></trkpt><trkpt lat="42.6747367" lon="12.330415"><ele>630.0</ele><time>2026-04-17T13:40:24.603Z</time></trkpt><trkpt lat="42.67467" lon="12.3304867"><ele>630.0</ele><time>2026-04-17T13:40:25.603Z</time></trkpt><trkpt lat="42.6745833" lon="12.3305467"><ele>630.0</ele><time>2026-04-17T13:40:26.603Z</time></trkpt><trkpt lat="42.6744767" lon="12.3306017"><ele>630.0</ele><time>2026-04-17T13:40:27.602Z</time></trkpt><trkpt lat="42.674365" lon="12.33065"><ele>630.0</ele><time>2026-04-17T13:40:28.603Z</time></trkpt><trkpt lat="42.6742717" lon="12.3307033"><ele>630.0</ele><time>2026-04-17T13:40:29.602Z</time></trkpt><trkpt lat="42.6742033" lon="12.3307767"><ele>631.2</ele><time>2026-04-17T13:40:30.603Z</time></trkpt><trkpt lat="42.6741517" lon="12.330875"><ele>632.4</ele><time>2026-04-17T13:40:31.602Z</time></trkpt><trkpt lat="42.6741117" lon="12.330995"><ele>633.6</ele><time>2026-04-17T13:40:32.602Z</time></trkpt><trkpt lat="42.674075" lon="12.331125"><ele>634.8</ele><time>2026-04-17T13:40:33.603Z</time></trkpt><trkpt lat="42.6740433" lon="12.33126"><ele>636.0</ele><time>2026-04-17T13:40:34.602Z</time></trkpt><trkpt lat="42.6740117" lon="12.3313883"><ele>634.8</ele><time>2026-04-17T13:40:35.603Z</time></trkpt><trkpt lat="42.673965" lon="12.3315017"><ele>633.6</ele><time>2026-04-17T13:40:36.603Z</time></trkpt><trkpt lat="42.6739033" lon="12.331605"><ele>632.4</ele><time>2026-04-17T13:40:37.603Z</time></trkpt><trkpt lat="42.6738233" lon="12.3316967"><ele>631.2</ele><time>2026-04-17T13:40:38.603Z</time></trkpt><trkpt lat="42.6737217" lon="12.3317867"><ele>630.0</ele><time>2026-04-17T13:40:39.603Z</time></trkpt><trkpt lat="42.6736183" lon="12.3318783"><ele>631.5</ele><time>2026-04-17T13:40:40.602Z</time></trkpt><trkpt lat="42.6735067" lon="12.3319783"><ele>633.0</ele><time>2026-04-17T13:40:41.602Z</time></trkpt><trkpt lat="42.6733967" lon="12.3320767"><ele>634.5</ele><time>2026-04-17T13:40:42.603Z</time></trkpt><trkpt lat="42.6732917" lon="12.3321617"><ele>636.0</ele><time>2026-04-17T13:40:43.602Z</time></trkpt><trkpt lat="42.6731967" lon="12.3322333"><ele>636.0</ele><time>2026-04-17T13:40:44.603Z</time></trkpt><trkpt lat="42.6730933" lon="12.3323"><ele>636.0</ele><time>2026-04-17T13:40:45.603Z</time></trkpt><trkpt lat="42.6729833" lon="12.3323567"><ele>636.0</ele><time>2026-04-17T13:40:46.603Z</time></trkpt><trkpt lat="42.6728667" lon="12.3324117"><ele>636.0</ele><time>2026-04-17T13:40:47.603Z</time></trkpt><trkpt lat="42.672755" lon="12.3324667"><ele>635.8</ele><time>2026-04-17T13:40:48.603Z</time></trkpt><trkpt lat="42.6726567" lon="12.33253"><ele>635.6</ele><time>2026-04-17T13:40:49.603Z</time></trkpt><trkpt lat="42.672565" lon="12.3326"><ele>635.4</ele><time>2026-04-17T13:40:50.603Z</time></trkpt><trkpt lat="42.67247" lon="12.3326617"><ele>635.2</ele><time>2026-04-17T13:40:51.602Z</time></trkpt><trkpt lat="42.672385" lon="12.3327233"><ele>635.0</ele><time>2026-04-17T13:40:52.603Z</time></trkpt><trkpt lat="42.672295" lon="12.332795"><ele>635.0</ele><time>2026-04-17T13:40:53.603Z</time></trkpt><trkpt lat="42.672195" lon="12.3328717"><ele>635.0</ele><time>2026-04-17T13:40:54.603Z</time></trkpt><trkpt lat="42.6721" lon="12.3329633"><ele>635.0</ele><time>2026-04-17T13:40:55.603Z</time></trkpt><trkpt lat="42.6720167" lon="12.3330783"><ele>635.0</ele><time>2026-04-17T13:40:56.603Z</time></trkpt><trkpt lat="42.671925" lon="12.33321"><ele>633.75</ele><time>2026-04-17T13:40:57.603Z</time></trkpt><trkpt lat="42.6718367" lon="12.33335"><ele>632.5</ele><time>2026-04-17T13:40:58.603Z</time></trkpt><trkpt lat="42.67175" lon="12.3334917"><ele>631.25</ele><time>2026-04-17T13:40:59.603Z</time></trkpt><trkpt lat="42.6716583" lon="12.3336317"><ele>630.0</ele><time>2026-04-17T13:41:00.603Z</time></trkpt><trkpt lat="42.6715767" lon="12.3337717"><ele>630.5</ele><time>2026-04-17T13:41:01.603Z</time></trkpt><trkpt lat="42.6715" lon="12.33391"><ele>631.0</ele><time>2026-04-17T13:41:02.602Z</time></trkpt><trkpt lat="42.671415" lon="12.3340367"><ele>631.5</ele><time>2026-04-17T13:41:03.603Z</time></trkpt><trkpt lat="42.6713333" lon="12.33416"><ele>632.0</ele><time>2026-04-17T13:41:04.603Z</time></trkpt><trkpt lat="42.67126" lon="12.3342883"><ele>632.0</ele><time>2026-04-17T13:41:05.603Z</time></trkpt><trkpt lat="42.6711833" lon="12.3344067"><ele>632.0</ele><time>2026-04-17T13:41:06.603Z</time></trkpt><trkpt lat="42.6711117" lon="12.33452"><ele>632.0</ele><time>2026-04-17T13:41:07.603Z</time></trkpt><trkpt lat="42.6710333" lon="12.3346417"><ele>632.0</ele><time>2026-04-17T13:41:08.603Z</time></trkpt><trkpt lat="42.6709433" lon="12.334755"><ele>627.75</ele><time>2026-04-17T13:41:09.603Z</time></trkpt><trkpt lat="42.6708517" lon="12.3348567"><ele>623.5</ele><time>2026-04-17T13:41:10.603Z</time></trkpt><trkpt lat="42.6707517" lon="12.33494"><ele>619.25</ele><time>2026-04-17T13:41:11.603Z</time></trkpt><trkpt lat="42.6706583" lon="12.3350233"><ele>615.0</ele><time>2026-04-17T13:41:12.603Z</time></trkpt><trkpt lat="42.67057" lon="12.3351067"><ele>615.0</ele><time>2026-04-17T13:41:13.603Z</time></trkpt><trkpt lat="42.67049" lon="12.3351967"><ele>615.0</ele><time>2026-04-17T13:41:14.603Z</time></trkpt><trkpt lat="42.6704117" lon="12.3352883"><ele>615.0</ele><time>2026-04-17T13:41:15.603Z</time></trkpt><trkpt lat="42.6703383" lon="12.335375"><ele>615.0</ele><time>2026-04-17T13:41:16.603Z</time></trkpt><trkpt lat="42.6702717" lon="12.33546"><ele>615.0</ele><time>2026-04-17T13:41:17.603Z</time></trkpt><trkpt lat="42.6702167" lon="12.3355417"><ele>612.4</ele><time>2026-04-17T13:41:18.603Z</time></trkpt><trkpt lat="42.67015" lon="12.335625"><ele>609.8</ele><time>2026-04-17T13:41:19.603Z</time></trkpt><trkpt lat="42.670085" lon="12.3357117"><ele>607.2</ele><time>2026-04-17T13:41:20.603Z</time></trkpt><trkpt lat="42.670015" lon="12.335795"><ele>604.6</ele><time>2026-04-17T13:41:21.603Z</time></trkpt><trkpt lat="42.66995" lon="12.3358783"><ele>602.0</ele><time>2026-04-17T13:41:22.603Z</time></trkpt><trkpt lat="42.669885" lon="12.33596"><ele>602.0</ele><time>2026-04-17T13:41:23.603Z</time></trkpt><trkpt lat="42.669825" lon="12.3360417"><ele>602.0</ele><time>2026-04-17T13:41:24.602Z</time></trkpt><trkpt lat="42.66976" lon="12.3361267"><ele>602.0</ele><time>2026-04-17T13:41:25.603Z</time></trkpt><trkpt lat="42.6696967" lon="12.33621"><ele>602.0</ele><time>2026-04-17T13:41:26.603Z</time></trkpt><trkpt lat="42.6696383" lon="12.3362867"><ele>602.0</ele><time>2026-04-17T13:41:27.603Z</time></trkpt><trkpt lat="42.6695817" lon="12.3363517"><ele>602.0</ele><time>2026-04-17T13:41:28.603Z</time></trkpt><trkpt lat="42.6695283" lon="12.3364283"><ele>601.5</ele><time>2026-04-17T13:41:29.602Z</time></trkpt><trkpt lat="42.6694767" lon="12.3364967"><ele>601.0</ele><time>2026-04-17T13:41:30.602Z</time></trkpt><trkpt lat="42.6694067" lon="12.3366283"><ele>600.5</ele><time>2026-04-17T13:41:32.603Z</time></trkpt><trkpt lat="42.6693883" lon="12.3367583"><ele>600.0</ele><time>2026-04-17T13:41:34.603Z</time></trkpt><trkpt lat="42.6694233" lon="12.3368333"><ele>599.5</ele><time>2026-04-17T13:41:36.602Z</time></trkpt><trkpt lat="42.6694867" lon="12.3368933"><ele>599.0</ele><time>2026-04-17T13:41:38.603Z</time></trkpt><trkpt lat="42.669525" lon="12.336965"><ele>599.0</ele><time>2026-04-17T13:41:41.603Z</time></trkpt><trkpt lat="42.6694683" lon="12.3370117"><ele>599.0</ele><time>2026-04-17T13:41:45.603Z</time></trkpt><trkpt lat="42.6693867" lon="12.3369583"><ele>599.0</ele><time>2026-04-17T13:41:48.603Z</time></trkpt><trkpt lat="42.66933" lon="12.33691"><ele>599.0</ele><time>2026-04-17T13:41:50.602Z</time></trkpt><trkpt lat="42.66927" lon="12.3368083"><ele>599.0</ele><time>2026-04-17T13:41:52.603Z</time></trkpt><trkpt lat="42.6692217" lon="12.336675"><ele>599.0</ele><time>2026-04-17T13:41:54.603Z</time></trkpt><trkpt lat="42.6691883" lon="12.3365983"><ele>597.0</ele><time>2026-04-17T13:41:55.602Z</time></trkpt><trkpt lat="42.669155" lon="12.3365"><ele>595.0</ele><time>2026-04-17T13:41:56.603Z</time></trkpt><trkpt lat="42.669115" lon="12.3363933"><ele>593.0</ele><time>2026-04-17T13:41:57.603Z</time></trkpt><trkpt lat="42.6690667" lon="12.3362733"><ele>591.0</ele><time>2026-04-17T13:41:58.603Z</time></trkpt><trkpt lat="42.6690117" lon="12.3361583"><ele>589.0</ele><time>2026-04-17T13:41:59.602Z</time></trkpt><trkpt lat="42.6689467" lon="12.3360517"><ele>588.8</ele><time>2026-04-17T13:42:00.603Z</time></trkpt><trkpt lat="42.668875" lon="12.3359467"><ele>588.5999999999999</ele><time>2026-04-17T13:42:01.602Z</time></trkpt><trkpt lat="42.6687983" lon="12.335865"><ele>588.4</ele><time>2026-04-17T13:42:02.603Z</time></trkpt><trkpt lat="42.6687167" lon="12.3357983"><ele>588.1999999999999</ele><time>2026-04-17T13:42:03.603Z</time></trkpt><trkpt lat="42.66863" lon="12.3357567"><ele>588.0</ele><time>2026-04-17T13:42:04.603Z</time></trkpt><trkpt lat="42.6685417" lon="12.3357317"><ele>587.0</ele><time>2026-04-17T13:42:05.603Z</time></trkpt><trkpt lat="42.66845" lon="12.3357183"><ele>586.0</ele><time>2026-04-17T13:42:06.603Z</time></trkpt><trkpt lat="42.6683567" lon="12.3357133"><ele>585.0</ele><time>2026-04-17T13:42:07.603Z</time></trkpt><trkpt lat="42.6682517" lon="12.3357067"><ele>584.0</ele><time>2026-04-17T13:42:08.603Z</time></trkpt><trkpt lat="42.668135" lon="12.335705"><ele>583.0</ele><time>2026-04-17T13:42:09.602Z</time></trkpt><trkpt lat="42.667995" lon="12.3357017"><ele>583.0</ele><time>2026-04-17T13:42:10.603Z</time></trkpt><trkpt lat="42.6678533" lon="12.3356983"><ele>583.0</ele><time>2026-04-17T13:42:11.603Z</time></trkpt><trkpt lat="42.6677183" lon="12.3357"><ele>583.0</ele><time>2026-04-17T13:42:12.603Z</time></trkpt><trkpt lat="42.6675833" lon="12.3356983"><ele>583.0</ele><time>2026-04-17T13:42:13.603Z</time></trkpt><trkpt lat="42.6674417" lon="12.3356833"><ele>583.0</ele><time>2026-04-17T13:42:14.602Z</time></trkpt><trkpt lat="42.6672967" lon="12.3356683"><ele>583.0</ele><time>2026-04-17T13:42:15.603Z</time></trkpt><trkpt lat="42.6671633" lon="12.3356667"><ele>583.0</ele><time>2026-04-17T13:42:16.602Z</time></trkpt><trkpt lat="42.6670317" lon="12.33567"><ele>583.0</ele><time>2026-04-17T13:42:17.603Z</time></trkpt><trkpt lat="42.6668933" lon="12.3356667"><ele>583.0</ele><time>2026-04-17T13:42:18.603Z</time></trkpt><trkpt lat="42.6667533" lon="12.335665"><ele>583.0</ele><time>2026-04-17T13:42:19.603Z</time></trkpt><trkpt lat="42.6666067" lon="12.3356633"><ele>583.0</ele><time>2026-04-17T13:42:20.603Z</time></trkpt><trkpt lat="42.6664583" lon="12.3356483"><ele>583.0</ele><time>2026-04-17T13:42:21.603Z</time></trkpt><trkpt lat="42.6663033" lon="12.3356233"><ele>583.0</ele><time>2026-04-17T13:42:22.603Z</time></trkpt><trkpt lat="42.6661567" lon="12.3355867"><ele>583.0</ele><time>2026-04-17T13:42:23.603Z</time></trkpt><trkpt lat="42.666015" lon="12.33555"><ele>583.0</ele><time>2026-04-17T13:42:24.602Z</time></trkpt><trkpt lat="42.6658833" lon="12.3355167"><ele>583.0</ele><time>2026-04-17T13:42:25.603Z</time></trkpt><trkpt lat="42.6657683" lon="12.3355017"><ele>582.5</ele><time>2026-04-17T13:42:26.602Z</time></trkpt><trkpt lat="42.66566" lon="12.3355033"><ele>582.0</ele><time>2026-04-17T13:42:27.603Z</time></trkpt><trkpt lat="42.6655533" lon="12.3355233"><ele>581.5</ele><time>2026-04-17T13:42:28.602Z</time></trkpt><trkpt lat="42.6654483" lon="12.3355867"><ele>581.0</ele><time>2026-04-17T13:42:29.602Z</time></trkpt><trkpt lat="42.6653483" lon="12.3356833"><ele>581.75</ele><time>2026-04-17T13:42:30.603Z</time></trkpt><trkpt lat="42.665245" lon="12.3357867"><ele>582.5</ele><time>2026-04-17T13:42:31.603Z</time></trkpt><trkpt lat="42.6651267" lon="12.335895"><ele>583.25</ele><time>2026-04-17T13:42:32.603Z</time></trkpt><trkpt lat="42.6649983" lon="12.3359867"><ele>584.0</ele><time>2026-04-17T13:42:33.603Z</time></trkpt><trkpt lat="42.6648567" lon="12.3360667"><ele>584.0</ele><time>2026-04-17T13:42:34.603Z</time></trkpt><trkpt lat="42.6647083" lon="12.3361133"><ele>584.0</ele><time>2026-04-17T13:42:35.602Z</time></trkpt><trkpt lat="42.6645517" lon="12.3361433"><ele>584.0</ele><time>2026-04-17T13:42:36.603Z</time></trkpt><trkpt lat="42.6643767" lon="12.3361633"><ele>586.3333333333333</ele><time>2026-04-17T13:42:37.603Z</time></trkpt><trkpt lat="42.6642" lon="12.33618"><ele>588.6666666666666</ele><time>2026-04-17T13:42:38.602Z</time></trkpt><trkpt lat="42.6640383" lon="12.336205"><ele>591.0</ele><time>2026-04-17T13:42:39.602Z</time></trkpt><trkpt lat="42.6638683" lon="12.336235"><ele>591.0</ele><time>2026-04-17T13:42:40.603Z</time></trkpt><trkpt lat="42.6637083" lon="12.3362483"><ele>591.0</ele><time>2026-04-17T13:42:41.603Z</time></trkpt><trkpt lat="42.6635733" lon="12.3362817"><ele>591.0</ele><time>2026-04-17T13:42:42.603Z</time></trkpt><trkpt lat="42.66344" lon="12.33629"><ele>591.0</ele><time>2026-04-17T13:42:43.603Z</time></trkpt><trkpt lat="42.6633083" lon="12.3363117"><ele>592.75</ele><time>2026-04-17T13:42:44.603Z</time></trkpt><trkpt lat="42.6631867" lon="12.3363333"><ele>594.5</ele><time>2026-04-17T13:42:45.603Z</time></trkpt><trkpt lat="42.663065" lon="12.3363683"><ele>596.25</ele><time>2026-04-17T13:42:46.603Z</time></trkpt><trkpt lat="42.66295" lon="12.3364217"><ele>598.0</ele><time>2026-04-17T13:42:47.603Z</time></trkpt><trkpt lat="42.6628383" lon="12.3364683"><ele>593.0</ele><time>2026-04-17T13:42:48.603Z</time></trkpt><trkpt lat="42.662735" lon="12.3365567"><ele>588.0</ele><time>2026-04-17T13:42:49.602Z</time></trkpt><trkpt lat="42.6626483" lon="12.3366633"><ele>583.0</ele><time>2026-04-17T13:42:50.603Z</time></trkpt><trkpt lat="42.6625767" lon="12.3368083"><ele>578.0</ele><time>2026-04-17T13:42:51.603Z</time></trkpt><trkpt lat="42.66252" lon="12.3369833"><ele>578.0</ele><time>2026-04-17T13:42:52.603Z</time></trkpt><trkpt lat="42.6624783" lon="12.3371617"><ele>578.0</ele><time>2026-04-17T13:42:53.602Z</time></trkpt><trkpt lat="42.662435" lon="12.337345"><ele>578.0</ele><time>2026-04-17T13:42:54.603Z</time></trkpt><trkpt lat="42.6624" lon="12.3375317"><ele>578.0</ele><time>2026-04-17T13:42:55.603Z</time></trkpt><trkpt lat="42.6623783" lon="12.3377183"><ele>574.5</ele><time>2026-04-17T13:42:56.602Z</time></trkpt><trkpt lat="42.662345" lon="12.3378783"><ele>571.0</ele><time>2026-04-17T13:42:57.602Z</time></trkpt><trkpt lat="42.66228" lon="12.33801"><ele>567.5</ele><time>2026-04-17T13:42:58.602Z</time></trkpt><trkpt lat="42.6622" lon="12.33813"><ele>564.0</ele><time>2026-04-17T13:42:59.603Z</time></trkpt><trkpt lat="42.6621133" lon="12.33819"><ele>564.2</ele><time>2026-04-17T13:43:00.603Z</time></trkpt><trkpt lat="42.6620183" lon="12.3382167"><ele>564.4</ele><time>2026-04-17T13:43:01.603Z</time></trkpt><trkpt lat="42.66191" lon="12.3382117"><ele>564.6</ele><time>2026-04-17T13:43:02.603Z</time></trkpt><trkpt lat="42.6617983" lon="12.3381717"><ele>564.8</ele><time>2026-04-17T13:43:03.602Z</time></trkpt><trkpt lat="42.66169" lon="12.338085"><ele>565.0</ele><time>2026-04-17T13:43:04.603Z</time></trkpt><trkpt lat="42.6615933" lon="12.3379783"><ele>565.0</ele><time>2026-04-17T13:43:05.602Z</time></trkpt><trkpt lat="42.66151" lon="12.3378967"><ele>565.0</ele><time>2026-04-17T13:43:06.603Z</time></trkpt><trkpt lat="42.6614183" lon="12.3378133"><ele>565.0</ele><time>2026-04-17T13:43:07.603Z</time></trkpt><trkpt lat="42.6613233" lon="12.3377583"><ele>565.0</ele><time>2026-04-17T13:43:08.603Z</time></trkpt><trkpt lat="42.6612217" lon="12.33774"><ele>565.0</ele><time>2026-04-17T13:43:09.603Z</time></trkpt><trkpt lat="42.661105" lon="12.3377567"><ele>564.5</ele><time>2026-04-17T13:43:10.603Z</time></trkpt><trkpt lat="42.661" lon="12.3378167"><ele>564.0</ele><time>2026-04-17T13:43:11.603Z</time></trkpt><trkpt lat="42.6608983" lon="12.3379117"><ele>563.5</ele><time>2026-04-17T13:43:12.602Z</time></trkpt><trkpt lat="42.6608167" lon="12.3380283"><ele>563.0</ele><time>2026-04-17T13:43:13.603Z</time></trkpt><trkpt lat="42.6607433" lon="12.3381783"><ele>562.25</ele><time>2026-04-17T13:43:14.603Z</time></trkpt><trkpt lat="42.6606717" lon="12.3383433"><ele>561.5</ele><time>2026-04-17T13:43:15.603Z</time></trkpt><trkpt lat="42.6606033" lon="12.3385017"><ele>560.75</ele><time>2026-04-17T13:43:16.603Z</time></trkpt><trkpt lat="42.660545" lon="12.33865"><ele>560.0</ele><time>2026-04-17T13:43:17.603Z</time></trkpt><trkpt lat="42.6604717" lon="12.338775"><ele>558.75</ele><time>2026-04-17T13:43:18.603Z</time></trkpt><trkpt lat="42.66038" lon="12.3388867"><ele>557.5</ele><time>2026-04-17T13:43:19.603Z</time></trkpt><trkpt lat="42.6602733" lon="12.3390083"><ele>556.25</ele><time>2026-04-17T13:43:20.603Z</time></trkpt><trkpt lat="42.66014" lon="12.3391067"><ele>555.0</ele><time>2026-04-17T13:43:21.603Z</time></trkpt><trkpt lat="42.6600083" lon="12.3392133"><ele>558.3333333333334</ele><time>2026-04-17T13:43:22.603Z</time></trkpt><trkpt lat="42.659855" lon="12.3393117"><ele>561.6666666666667</ele><time>2026-04-17T13:43:23.603Z</time></trkpt><trkpt lat="42.6596983" lon="12.3394117"><ele>565.0</ele><time>2026-04-17T13:43:24.603Z</time></trkpt><trkpt lat="42.6595633" lon="12.339525"><ele>563.6666666666667</ele><time>2026-04-17T13:43:25.603Z</time></trkpt><trkpt lat="42.65942" lon="12.33962"><ele>562.3333333333334</ele><time>2026-04-17T13:43:26.602Z</time></trkpt><trkpt lat="42.6592783" lon="12.339715"><ele>561.0</ele><time>2026-04-17T13:43:27.603Z</time></trkpt><trkpt lat="42.6591317" lon="12.33982"><ele>561.0</ele><time>2026-04-17T13:43:28.602Z</time></trkpt><trkpt lat="42.6589683" lon="12.3399217"><ele>561.0</ele><time>2026-04-17T13:43:29.603Z</time></trkpt><trkpt lat="42.65881" lon="12.3400267"><ele>561.0</ele><time>2026-04-17T13:43:30.602Z</time></trkpt><trkpt lat="42.658655" lon="12.3401333"><ele>567.0</ele><time>2026-04-17T13:43:31.603Z</time></trkpt><trkpt lat="42.6585017" lon="12.3402483"><ele>573.0</ele><time>2026-04-17T13:43:32.603Z</time></trkpt><trkpt lat="42.65835" lon="12.340365"><ele>579.0</ele><time>2026-04-17T13:43:33.603Z</time></trkpt><trkpt lat="42.6581883" lon="12.3404767"><ele>577.0</ele><time>2026-04-17T13:43:34.603Z</time></trkpt><trkpt lat="42.658025" lon="12.340585"><ele>575.0</ele><time>2026-04-17T13:43:35.602Z</time></trkpt><trkpt lat="42.6578617" lon="12.34069"><ele>573.0</ele><time>2026-04-17T13:43:36.603Z</time></trkpt><trkpt lat="42.6577067" lon="12.3407983"><ele>573.0</ele><time>2026-04-17T13:43:37.602Z</time></trkpt><trkpt lat="42.65755" lon="12.3409"><ele>573.0</ele><time>2026-04-17T13:43:38.603Z</time></trkpt><trkpt lat="42.6574" lon="12.3410017"><ele>573.0</ele><time>2026-04-17T13:43:39.603Z</time></trkpt><trkpt lat="42.6572533" lon="12.3411067"><ele>573.0</ele><time>2026-04-17T13:43:40.603Z</time></trkpt><trkpt lat="42.657105" lon="12.34121"><ele>573.0</ele><time>2026-04-17T13:43:41.603Z</time></trkpt><trkpt lat="42.6569633" lon="12.3413183"><ele>573.0</ele><time>2026-04-17T13:43:42.603Z</time></trkpt><trkpt lat="42.656835" lon="12.341435"><ele>571.5</ele><time>2026-04-17T13:43:43.602Z</time></trkpt><trkpt lat="42.6567083" lon="12.3415367"><ele>570.0</ele><time>2026-04-17T13:43:44.602Z</time></trkpt><trkpt lat="42.6565817" lon="12.34162"><ele>568.5</ele><time>2026-04-17T13:43:45.602Z</time></trkpt><trkpt lat="42.65646" lon="12.3417017"><ele>567.0</ele><time>2026-04-17T13:43:46.603Z</time></trkpt><trkpt lat="42.6563383" lon="12.3417933"><ele>567.0</ele><time>2026-04-17T13:43:47.603Z</time></trkpt><trkpt lat="42.6562217" lon="12.3419067"><ele>567.0</ele><time>2026-04-17T13:43:48.602Z</time></trkpt><trkpt lat="42.6561083" lon="12.3420333"><ele>567.0</ele><time>2026-04-17T13:43:49.603Z</time></trkpt><trkpt lat="42.65601" lon="12.342185"><ele>567.0</ele><time>2026-04-17T13:43:50.602Z</time></trkpt><trkpt lat="42.65591" lon="12.342355"><ele>570.0</ele><time>2026-04-17T13:43:51.602Z</time></trkpt><trkpt lat="42.655805" lon="12.3425283"><ele>573.0</ele><time>2026-04-17T13:43:52.603Z</time></trkpt><trkpt lat="42.6556933" lon="12.34269"><ele>576.0</ele><time>2026-04-17T13:43:53.603Z</time></trkpt><trkpt lat="42.6555933" lon="12.3428333"><ele>576.0</ele><time>2026-04-17T13:43:54.603Z</time></trkpt><trkpt lat="42.6554967" lon="12.3429733"><ele>576.0</ele><time>2026-04-17T13:43:55.602Z</time></trkpt><trkpt lat="42.655395" lon="12.3430983"><ele>576.0</ele><time>2026-04-17T13:43:56.603Z</time></trkpt><trkpt lat="42.6553267" lon="12.3432283"><ele>576.0</ele><time>2026-04-17T13:43:57.603Z</time></trkpt><trkpt lat="42.6552617" lon="12.34337"><ele>577.75</ele><time>2026-04-17T13:43:58.602Z</time></trkpt><trkpt lat="42.6552183" lon="12.3435267"><ele>579.5</ele><time>2026-04-17T13:43:59.603Z</time></trkpt><trkpt lat="42.65518" lon="12.343695"><ele>581.25</ele><time>2026-04-17T13:44:00.603Z</time></trkpt><trkpt lat="42.6551767" lon="12.34391"><ele>583.0</ele><time>2026-04-17T13:44:01.603Z</time></trkpt><trkpt lat="42.6551817" lon="12.3441367"><ele>583.0</ele><time>2026-04-17T13:44:02.602Z</time></trkpt><trkpt lat="42.6551867" lon="12.344375"><ele>583.0</ele><time>2026-04-17T13:44:03.603Z</time></trkpt><trkpt lat="42.65519" lon="12.3445983"><ele>583.0</ele><time>2026-04-17T13:44:04.603Z</time></trkpt><trkpt lat="42.655195" lon="12.344795"><ele>584.25</ele><time>2026-04-17T13:44:05.603Z</time></trkpt><trkpt lat="42.6552017" lon="12.34498"><ele>585.5</ele><time>2026-04-17T13:44:06.602Z</time></trkpt><trkpt lat="42.6552067" lon="12.3451467"><ele>586.75</ele><time>2026-04-17T13:44:07.603Z</time></trkpt><trkpt lat="42.655225" lon="12.34531"><ele>588.0</ele><time>2026-04-17T13:44:08.603Z</time></trkpt><trkpt lat="42.6552683" lon="12.3454583"><ele>581.75</ele><time>2026-04-17T13:44:09.603Z</time></trkpt><trkpt lat="42.6553283" lon="12.3456067"><ele>575.5</ele><time>2026-04-17T13:44:10.603Z</time></trkpt><trkpt lat="42.6554183" lon="12.34575"><ele>569.25</ele><time>2026-04-17T13:44:11.603Z</time></trkpt><trkpt lat="42.65552" lon="12.34589"><ele>563.0</ele><time>2026-04-17T13:44:12.603Z</time></trkpt><trkpt lat="42.655625" lon="12.34604"><ele>563.0</ele><time>2026-04-17T13:44:13.603Z</time></trkpt><trkpt lat="42.6557267" lon="12.3461933"><ele>563.0</ele><time>2026-04-17T13:44:14.603Z</time></trkpt><trkpt lat="42.6558183" lon="12.3463383"><ele>563.0</ele><time>2026-04-17T13:44:15.603Z</time></trkpt><trkpt lat="42.6559" lon="12.346485"><ele>563.0</ele><time>2026-04-17T13:44:16.603Z</time></trkpt><trkpt lat="42.6559567" lon="12.3466483"><ele>564.0</ele><time>2026-04-17T13:44:17.603Z</time></trkpt><trkpt lat="42.6560033" lon="12.346825"><ele>565.0</ele><time>2026-04-17T13:44:18.602Z</time></trkpt><trkpt lat="42.656035" lon="12.3470083"><ele>566.0</ele><time>2026-04-17T13:44:19.603Z</time></trkpt><trkpt lat="42.656065" lon="12.3471933"><ele>567.0</ele><time>2026-04-17T13:44:20.603Z</time></trkpt><trkpt lat="42.6560683" lon="12.347355"><ele>567.0</ele><time>2026-04-17T13:44:21.603Z</time></trkpt><trkpt lat="42.656055" lon="12.347495"><ele>567.0</ele><time>2026-04-17T13:44:22.602Z</time></trkpt><trkpt lat="42.65606" lon="12.3476183"><ele>567.0</ele><time>2026-04-17T13:44:23.603Z</time></trkpt><trkpt lat="42.6560633" lon="12.3477183"><ele>567.0</ele><time>2026-04-17T13:44:24.603Z</time></trkpt><trkpt lat="42.6560533" lon="12.347845"><ele>567.0</ele><time>2026-04-17T13:44:26.603Z</time></trkpt><trkpt lat="42.6560133" lon="12.347955"><ele>564.6</ele><time>2026-04-17T13:44:29.602Z</time></trkpt><trkpt lat="42.6559333" lon="12.34806"><ele>562.2</ele><time>2026-04-17T13:44:32.603Z</time></trkpt><trkpt lat="42.65587" lon="12.34813"><ele>559.8</ele><time>2026-04-17T13:44:34.603Z</time></trkpt><trkpt lat="42.6557983" lon="12.3481667"><ele>557.4</ele><time>2026-04-17T13:44:36.602Z</time></trkpt><trkpt lat="42.6556883" lon="12.3481567"><ele>555.0</ele><time>2026-04-17T13:44:38.602Z</time></trkpt><trkpt lat="42.6556117" lon="12.3481483"><ele>555.0</ele><time>2026-04-17T13:44:39.603Z</time></trkpt><trkpt lat="42.65554" lon="12.3481567"><ele>555.0</ele><time>2026-04-17T13:44:40.603Z</time></trkpt><trkpt lat="42.655445" lon="12.3481667"><ele>555.0</ele><time>2026-04-17T13:44:41.603Z</time></trkpt><trkpt lat="42.6553467" lon="12.3482"><ele>555.0</ele><time>2026-04-17T13:44:42.603Z</time></trkpt><trkpt lat="42.6552517" lon="12.34824"><ele>555.0</ele><time>2026-04-17T13:44:43.603Z</time></trkpt><trkpt lat="42.6551383" lon="12.3482883"><ele>557.5</ele><time>2026-04-17T13:44:44.603Z</time></trkpt><trkpt lat="42.6550417" lon="12.3483333"><ele>560.0</ele><time>2026-04-17T13:44:45.603Z</time></trkpt><trkpt lat="42.6549517" lon="12.3483717"><ele>562.5</ele><time>2026-04-17T13:44:46.603Z</time></trkpt><trkpt lat="42.6548717" lon="12.3484117"><ele>565.0</ele><time>2026-04-17T13:44:47.603Z</time></trkpt><trkpt lat="42.6548083" lon="12.3484567"><ele>567.5</ele><time>2026-04-17T13:44:48.603Z</time></trkpt><trkpt lat="42.6547483" lon="12.3485033"><ele>570.0</ele><time>2026-04-17T13:44:49.602Z</time></trkpt><trkpt lat="42.6546567" lon="12.3485933"><ele>570.0</ele><time>2026-04-17T13:44:51.603Z</time></trkpt><trkpt lat="42.654585" lon="12.3486867"><ele>570.0</ele><time>2026-04-17T13:44:53.603Z</time></trkpt><trkpt lat="42.6545133" lon="12.34878"><ele>570.0</ele><time>2026-04-17T13:44:55.603Z</time></trkpt><trkpt lat="42.6544283" lon="12.348865"><ele>570.0</ele><time>2026-04-17T13:44:57.603Z</time></trkpt><trkpt lat="42.6543283" lon="12.3489767"><ele>570.0</ele><time>2026-04-17T13:44:59.602Z</time></trkpt><trkpt lat="42.6542867" lon="12.3490417"><ele>570.6666666666666</ele><time>2026-04-17T13:45:00.603Z</time></trkpt><trkpt lat="42.6542333" lon="12.3490883"><ele>571.3333333333334</ele><time>2026-04-17T13:45:01.603Z</time></trkpt><trkpt lat="42.654145" lon="12.3491717"><ele>572.0</ele><time>2026-04-17T13:45:03.603Z</time></trkpt><trkpt lat="42.654065" lon="12.3491783"><ele>572.6666666666667</ele><time>2026-04-17T13:45:05.602Z</time></trkpt><trkpt lat="42.6539833" lon="12.3491367"><ele>573.3333333333334</ele><time>2026-04-17T13:45:07.603Z</time></trkpt><trkpt lat="42.653915" lon="12.3490217"><ele>574.0</ele><time>2026-04-17T13:45:09.603Z</time></trkpt><trkpt lat="42.6538767" lon="12.3489467"><ele>574.0</ele><time>2026-04-17T13:45:10.602Z</time></trkpt><trkpt lat="42.6538367" lon="12.3488767"><ele>574.0</ele><time>2026-04-17T13:45:11.603Z</time></trkpt><trkpt lat="42.653785" lon="12.3488183"><ele>574.0</ele><time>2026-04-17T13:45:12.602Z</time></trkpt><trkpt lat="42.6537217" lon="12.3487783"><ele>574.0</ele><time>2026-04-17T13:45:13.602Z</time></trkpt><trkpt lat="42.653655" lon="12.3487533"><ele>574.0</ele><time>2026-04-17T13:45:14.602Z</time></trkpt><trkpt lat="42.6535733" lon="12.348725"><ele>574.0</ele><time>2026-04-17T13:45:15.603Z</time></trkpt><trkpt lat="42.6535067" lon="12.3486983"><ele>574.0</ele><time>2026-04-17T13:45:16.603Z</time></trkpt><trkpt lat="42.6534417" lon="12.34866"><ele>575.1666666666667</ele><time>2026-04-17T13:45:17.603Z</time></trkpt><trkpt lat="42.6533767" lon="12.3486133"><ele>576.3333333333334</ele><time>2026-04-17T13:45:18.602Z</time></trkpt><trkpt lat="42.65331" lon="12.3485567"><ele>577.5</ele><time>2026-04-17T13:45:19.602Z</time></trkpt><trkpt lat="42.6532283" lon="12.3485017"><ele>578.6666666666666</ele><time>2026-04-17T13:45:20.602Z</time></trkpt><trkpt lat="42.6531533" lon="12.3484517"><ele>579.8333333333333</ele><time>2026-04-17T13:45:21.603Z</time></trkpt><trkpt lat="42.653085" lon="12.3484083"><ele>581.0</ele><time>2026-04-17T13:45:22.603Z</time></trkpt><trkpt lat="42.6530117" lon="12.348355"><ele>581.0</ele><time>2026-04-17T13:45:23.602Z</time></trkpt><trkpt lat="42.6529383" lon="12.348295"><ele>581.0</ele><time>2026-04-17T13:45:24.602Z</time></trkpt><trkpt lat="42.652875" lon="12.348235"><ele>581.0</ele><time>2026-04-17T13:45:25.602Z</time></trkpt><trkpt lat="42.6528033" lon="12.3481817"><ele>581.0</ele><time>2026-04-17T13:45:26.603Z</time></trkpt><trkpt lat="42.6527333" lon="12.3481233"><ele>581.0</ele><time>2026-04-17T13:45:27.603Z</time></trkpt><trkpt lat="42.6526683" lon="12.3480633"><ele>581.0</ele><time>2026-04-17T13:45:28.603Z</time></trkpt><trkpt lat="42.652605" lon="12.3480117"><ele>579.0</ele><time>2026-04-17T13:45:29.602Z</time></trkpt><trkpt lat="42.6524967" lon="12.3479633"><ele>577.0</ele><time>2026-04-17T13:45:31.603Z</time></trkpt><trkpt lat="42.6524167" lon="12.347975"><ele>575.0</ele><time>2026-04-17T13:45:33.602Z</time></trkpt><trkpt lat="42.652335" lon="12.34803"><ele>573.0</ele><time>2026-04-17T13:45:35.603Z</time></trkpt><trkpt lat="42.65226" lon="12.3480967"><ele>571.0</ele><time>2026-04-17T13:45:37.603Z</time></trkpt><trkpt lat="42.6521633" lon="12.34819"><ele>571.0</ele><time>2026-04-17T13:45:39.603Z</time></trkpt><trkpt lat="42.6521017" lon="12.3482483"><ele>571.0</ele><time>2026-04-17T13:45:40.603Z</time></trkpt><trkpt lat="42.6520467" lon="12.348305"><ele>571.0</ele><time>2026-04-17T13:45:41.603Z</time></trkpt><trkpt lat="42.65199" lon="12.3483683"><ele>571.0</ele><time>2026-04-17T13:45:42.603Z</time></trkpt><trkpt lat="42.651935" lon="12.34843"><ele>571.0</ele><time>2026-04-17T13:45:43.603Z</time></trkpt><trkpt lat="42.65184" lon="12.3485267"><ele>571.0</ele><time>2026-04-17T13:45:45.603Z</time></trkpt><trkpt lat="42.6517267" lon="12.3486017"><ele>571.8333333333334</ele><time>2026-04-17T13:45:47.602Z</time></trkpt><trkpt lat="42.6516617" lon="12.34866"><ele>572.6666666666667</ele><time>2026-04-17T13:45:48.603Z</time></trkpt><trkpt lat="42.6515883" lon="12.3487267"><ele>573.5</ele><time>2026-04-17T13:45:49.603Z</time></trkpt><trkpt lat="42.6515117" lon="12.3487967"><ele>574.3333333333334</ele><time>2026-04-17T13:45:50.603Z</time></trkpt><trkpt lat="42.6514367" lon="12.3488717"><ele>575.1666666666666</ele><time>2026-04-17T13:45:51.603Z</time></trkpt><trkpt lat="42.651365" lon="12.3489517"><ele>576.0</ele><time>2026-04-17T13:45:52.603Z</time></trkpt><trkpt lat="42.6513033" lon="12.3490117"><ele>576.0</ele><time>2026-04-17T13:45:53.602Z</time></trkpt><trkpt lat="42.6512433" lon="12.34906"><ele>576.0</ele><time>2026-04-17T13:45:54.603Z</time></trkpt><trkpt lat="42.6511817" lon="12.3490967"><ele>576.0</ele><time>2026-04-17T13:45:55.603Z</time></trkpt><trkpt lat="42.6511133" lon="12.3491283"><ele>576.0</ele><time>2026-04-17T13:45:56.603Z</time></trkpt><trkpt lat="42.6510283" lon="12.349145"><ele>576.0</ele><time>2026-04-17T13:45:57.602Z</time></trkpt><trkpt lat="42.650925" lon="12.3491433"><ele>576.0</ele><time>2026-04-17T13:45:58.603Z</time></trkpt><trkpt lat="42.65081" lon="12.3491433"><ele>578.2</ele><time>2026-04-17T13:45:59.603Z</time></trkpt><trkpt lat="42.6507" lon="12.3491417"><ele>580.4000000000001</ele><time>2026-04-17T13:46:00.603Z</time></trkpt><trkpt lat="42.6506033" lon="12.34914"><ele>582.6</ele><time>2026-04-17T13:46:01.603Z</time></trkpt><trkpt lat="42.6505083" lon="12.3491417"><ele>584.8000000000001</ele><time>2026-04-17T13:46:02.603Z</time></trkpt><trkpt lat="42.6504167" lon="12.34914"><ele>587.0</ele><time>2026-04-17T13:46:03.602Z</time></trkpt><trkpt lat="42.6503267" lon="12.3491267"><ele>585.6666666666666</ele><time>2026-04-17T13:46:04.602Z</time></trkpt><trkpt lat="42.650235" lon="12.34911"><ele>584.3333333333333</ele><time>2026-04-17T13:46:05.603Z</time></trkpt><trkpt lat="42.650145" lon="12.3490967"><ele>583.0</ele><time>2026-04-17T13:46:06.602Z</time></trkpt><trkpt lat="42.6500567" lon="12.3490867"><ele>581.6666666666666</ele><time>2026-04-17T13:46:07.602Z</time></trkpt><trkpt lat="42.6499767" lon="12.3490767"><ele>580.3333333333334</ele><time>2026-04-17T13:46:08.602Z</time></trkpt><trkpt lat="42.649885" lon="12.3490717"><ele>579.0</ele><time>2026-04-17T13:46:09.602Z</time></trkpt><trkpt lat="42.6497967" lon="12.34906"><ele>579.0</ele><time>2026-04-17T13:46:10.602Z</time></trkpt><trkpt lat="42.6497133" lon="12.3490533"><ele>579.0</ele><time>2026-04-17T13:46:11.601Z</time></trkpt><trkpt lat="42.6496417" lon="12.3490417"><ele>579.0</ele><time>2026-04-17T13:46:12.602Z</time></trkpt><trkpt lat="42.64956" lon="12.3490333"><ele>579.0</ele><time>2026-04-17T13:46:13.602Z</time></trkpt><trkpt lat="42.6494817" lon="12.34902"><ele>579.0</ele><time>2026-04-17T13:46:14.601Z</time></trkpt><trkpt lat="42.6494017" lon="12.3489983"><ele>579.0</ele><time>2026-04-17T13:46:15.602Z</time></trkpt><trkpt lat="42.649315" lon="12.34897"><ele>576.25</ele><time>2026-04-17T13:46:16.601Z</time></trkpt><trkpt lat="42.6492217" lon="12.348935"><ele>573.5</ele><time>2026-04-17T13:46:17.601Z</time></trkpt><trkpt lat="42.6491383" lon="12.3488733"><ele>570.75</ele><time>2026-04-17T13:46:18.602Z</time></trkpt><trkpt lat="42.6489083" lon="12.348805"><ele>568.0</ele><time>2026-04-17T13:46:20.601Z</time></trkpt><trkpt lat="42.6488067" lon="12.348765"><ele>572.0</ele><time>2026-04-17T13:46:21.602Z</time></trkpt><trkpt lat="42.6487083" lon="12.3487167"><ele>576.0</ele><time>2026-04-17T13:46:22.602Z</time></trkpt><trkpt lat="42.648605" lon="12.348675"><ele>580.0</ele><time>2026-04-17T13:46:23.601Z</time></trkpt><trkpt lat="42.6484933" lon="12.348635"><ele>584.0</ele><time>2026-04-17T13:46:24.601Z</time></trkpt><trkpt lat="42.648395" lon="12.3485967"><ele>588.0</ele><time>2026-04-17T13:46:25.602Z</time></trkpt><trkpt lat="42.6482933" lon="12.34856"><ele>588.0</ele><time>2026-04-17T13:46:26.602Z</time></trkpt><trkpt lat="42.6481867" lon="12.3485283"><ele>588.0</ele><time>2026-04-17T13:46:27.602Z</time></trkpt><trkpt lat="42.6480767" lon="12.3484917"><ele>588.0</ele><time>2026-04-17T13:46:28.601Z</time></trkpt><trkpt lat="42.6479717" lon="12.34845"><ele>588.0</ele><time>2026-04-17T13:46:29.602Z</time></trkpt><trkpt lat="42.6478817" lon="12.3484033"><ele>588.0</ele><time>2026-04-17T13:46:30.602Z</time></trkpt><trkpt lat="42.647795" lon="12.34836"><ele>584.4</ele><time>2026-04-17T13:46:31.602Z</time></trkpt><trkpt lat="42.64772" lon="12.34831"><ele>580.8</ele><time>2026-04-17T13:46:32.602Z</time></trkpt><trkpt lat="42.64764" lon="12.348245"><ele>577.2</ele><time>2026-04-17T13:46:33.602Z</time></trkpt><trkpt lat="42.6475583" lon="12.3481817"><ele>573.6</ele><time>2026-04-17T13:46:34.601Z</time></trkpt><trkpt lat="42.6474783" lon="12.348115"><ele>570.0</ele><time>2026-04-17T13:46:35.602Z</time></trkpt><trkpt lat="42.6473933" lon="12.348045"><ele>575.8</ele><time>2026-04-17T13:46:36.602Z</time></trkpt><trkpt lat="42.647305" lon="12.347975"><ele>581.6</ele><time>2026-04-17T13:46:37.602Z</time></trkpt><trkpt lat="42.6472233" lon="12.3478983"><ele>587.4</ele><time>2026-04-17T13:46:38.602Z</time></trkpt><trkpt lat="42.647135" lon="12.3478267"><ele>593.2</ele><time>2026-04-17T13:46:39.602Z</time></trkpt><trkpt lat="42.6470533" lon="12.34776"><ele>599.0</ele><time>2026-04-17T13:46:40.602Z</time></trkpt><trkpt lat="42.6469717" lon="12.3476933"><ele>594.6666666666666</ele><time>2026-04-17T13:46:41.602Z</time></trkpt><trkpt lat="42.646895" lon="12.3476233"><ele>590.3333333333333</ele><time>2026-04-17T13:46:42.602Z</time></trkpt><trkpt lat="42.6468217" lon="12.3475583"><ele>586.0</ele><time>2026-04-17T13:46:43.602Z</time></trkpt><trkpt lat="42.646755" lon="12.34751"><ele>581.6666666666666</ele><time>2026-04-17T13:46:44.602Z</time></trkpt><trkpt lat="42.6466867" lon="12.3474483"><ele>577.3333333333334</ele><time>2026-04-17T13:46:45.602Z</time></trkpt><trkpt lat="42.6466233" lon="12.3473983"><ele>573.0</ele><time>2026-04-17T13:46:46.602Z</time></trkpt><trkpt lat="42.6465633" lon="12.347345"><ele>573.0</ele><time>2026-04-17T13:46:47.602Z</time></trkpt><trkpt lat="42.646505" lon="12.347295"><ele>573.0</ele><time>2026-04-17T13:46:48.602Z</time></trkpt><trkpt lat="42.6464567" lon="12.34723"><ele>573.0</ele><time>2026-04-17T13:46:49.602Z</time></trkpt><trkpt lat="42.6464017" lon="12.3471667"><ele>573.0</ele><time>2026-04-17T13:46:50.602Z</time></trkpt><trkpt lat="42.64635" lon="12.3471017"><ele>573.0</ele><time>2026-04-17T13:46:51.602Z</time></trkpt><trkpt lat="42.646305" lon="12.3470267"><ele>573.0</ele><time>2026-04-17T13:46:52.601Z</time></trkpt><trkpt lat="42.646275" lon="12.34694"><ele>573.0</ele><time>2026-04-17T13:46:53.601Z</time></trkpt><trkpt lat="42.646255" lon="12.346845"><ele>578.5</ele><time>2026-04-17T13:46:54.602Z</time></trkpt><trkpt lat="42.6462483" lon="12.34672"><ele>584.0</ele><time>2026-04-17T13:46:55.602Z</time></trkpt><trkpt lat="42.6462417" lon="12.3465683"><ele>589.5</ele><time>2026-04-17T13:46:56.602Z</time></trkpt><trkpt lat="42.64623" lon="12.346405"><ele>595.0</ele><time>2026-04-17T13:46:57.602Z</time></trkpt><trkpt lat="42.646215" lon="12.3462317"><ele>598.5</ele><time>2026-04-17T13:46:58.602Z</time></trkpt><trkpt lat="42.6462083" lon="12.3460583"><ele>602.0</ele><time>2026-04-17T13:46:59.602Z</time></trkpt><trkpt lat="42.64618" lon="12.3459033"><ele>605.5</ele><time>2026-04-17T13:47:00.602Z</time></trkpt><trkpt lat="42.6461567" lon="12.3457583"><ele>609.0</ele><time>2026-04-17T13:47:01.602Z</time></trkpt><trkpt lat="42.6461333" lon="12.3456217"><ele>602.8</ele><time>2026-04-17T13:47:02.602Z</time></trkpt><trkpt lat="42.6461183" lon="12.3454667"><ele>596.5999999999999</ele><time>2026-04-17T13:47:03.602Z</time></trkpt><trkpt lat="42.646115" lon="12.3453"><ele>590.4</ele><time>2026-04-17T13:47:04.602Z</time></trkpt><trkpt lat="42.6461183" lon="12.34515"><ele>584.1999999999999</ele><time>2026-04-17T13:47:05.602Z</time></trkpt><trkpt lat="42.646125" lon="12.3450183"><ele>578.0</ele><time>2026-04-17T13:47:06.601Z</time></trkpt><trkpt lat="42.64612" lon="12.3448933"><ele>578.0</ele><time>2026-04-17T13:47:07.602Z</time></trkpt><trkpt lat="42.6461267" lon="12.3447817"><ele>578.0</ele><time>2026-04-17T13:47:08.602Z</time></trkpt><trkpt lat="42.6461417" lon="12.3446667"><ele>578.0</ele><time>2026-04-17T13:47:09.602Z</time></trkpt><trkpt lat="42.6461617" lon="12.3445583"><ele>578.0</ele><time>2026-04-17T13:47:10.602Z</time></trkpt><trkpt lat="42.6461767" lon="12.34447"><ele>578.0</ele><time>2026-04-17T13:47:11.602Z</time></trkpt><trkpt lat="42.6461817" lon="12.34431"><ele>578.0</ele><time>2026-04-17T13:47:13.601Z</time></trkpt><trkpt lat="42.6461333" lon="12.3442033"><ele>580.5</ele><time>2026-04-17T13:47:15.602Z</time></trkpt><trkpt lat="42.646055" lon="12.3441683"><ele>583.0</ele><time>2026-04-17T13:47:17.602Z</time></trkpt><trkpt lat="42.6459533" lon="12.3442"><ele>585.5</ele><time>2026-04-17T13:47:19.602Z</time></trkpt><trkpt lat="42.6458883" lon="12.3442117"><ele>588.0</ele><time>2026-04-17T13:47:20.601Z</time></trkpt><trkpt lat="42.6458167" lon="12.344215"><ele>590.5</ele><time>2026-04-17T13:47:21.602Z</time></trkpt><trkpt lat="42.6457433" lon="12.34421"><ele>593.0</ele><time>2026-04-17T13:47:22.602Z</time></trkpt><trkpt lat="42.6456817" lon="12.3441833"><ele>593.0</ele><time>2026-04-17T13:47:23.602Z</time></trkpt><trkpt lat="42.6455783" lon="12.3440767"><ele>593.0</ele><time>2026-04-17T13:47:25.602Z</time></trkpt><trkpt lat="42.645525" lon="12.3440033"><ele>593.0</ele><time>2026-04-17T13:47:26.601Z</time></trkpt><trkpt lat="42.6454683" lon="12.343945"><ele>593.0</ele><time>2026-04-17T13:47:27.601Z</time></trkpt><trkpt lat="42.6454083" lon="12.3439117"><ele>593.0</ele><time>2026-04-17T13:47:28.602Z</time></trkpt><trkpt lat="42.6452867" lon="12.3438933"><ele>593.2857142857142</ele><time>2026-04-17T13:47:30.601Z</time></trkpt><trkpt lat="42.64522" lon="12.3439033"><ele>593.5714285714286</ele><time>2026-04-17T13:47:31.602Z</time></trkpt><trkpt lat="42.645155" lon="12.3439333"><ele>593.8571428571429</ele><time>2026-04-17T13:47:32.602Z</time></trkpt><trkpt lat="42.645085" lon="12.34398"><ele>594.1428571428571</ele><time>2026-04-17T13:47:33.602Z</time></trkpt><trkpt lat="42.6450167" lon="12.3440433"><ele>594.4285714285714</ele><time>2026-04-17T13:47:34.602Z</time></trkpt><trkpt lat="42.6449667" lon="12.3441183"><ele>594.7142857142857</ele><time>2026-04-17T13:47:35.602Z</time></trkpt><trkpt lat="42.6449333" lon="12.3441967"><ele>595.0</ele><time>2026-04-17T13:47:36.601Z</time></trkpt><trkpt lat="42.6449117" lon="12.3442833"><ele>595.0</ele><time>2026-04-17T13:47:37.601Z</time></trkpt><trkpt lat="42.644895" lon="12.344375"><ele>595.0</ele><time>2026-04-17T13:47:38.601Z</time></trkpt><trkpt lat="42.6448967" lon="12.3445083"><ele>595.0</ele><time>2026-04-17T13:47:40.601Z</time></trkpt><trkpt lat="42.6449267" lon="12.3446583"><ele>595.0</ele><time>2026-04-17T13:47:42.601Z</time></trkpt><trkpt lat="42.6449483" lon="12.3447433"><ele>595.0</ele><time>2026-04-17T13:47:43.602Z</time></trkpt><trkpt lat="42.6449617" lon="12.3449017"><ele>592.5</ele><time>2026-04-17T13:47:45.602Z</time></trkpt><trkpt lat="42.6449233" lon="12.34504"><ele>590.0</ele><time>2026-04-17T13:47:47.601Z</time></trkpt><trkpt lat="42.6448767" lon="12.34511"><ele>587.5</ele><time>2026-04-17T13:47:48.602Z</time></trkpt><trkpt lat="42.6448183" lon="12.3451683"><ele>585.0</ele><time>2026-04-17T13:47:49.601Z</time></trkpt><trkpt lat="42.6447567" lon="12.3452017"><ele>582.5</ele><time>2026-04-17T13:47:50.602Z</time></trkpt><trkpt lat="42.6446933" lon="12.3452117"><ele>580.0</ele><time>2026-04-17T13:47:51.601Z</time></trkpt><trkpt lat="42.6446" lon="12.345225"><ele>580.0</ele><time>2026-04-17T13:47:53.602Z</time></trkpt><trkpt lat="42.6445367" lon="12.345195"><ele>580.0</ele><time>2026-04-17T13:47:55.601Z</time></trkpt><trkpt lat="42.64446" lon="12.34515"><ele>580.0</ele><time>2026-04-17T13:47:57.602Z</time></trkpt><trkpt lat="42.6443517" lon="12.345095"><ele>580.0</ele><time>2026-04-17T13:47:59.602Z</time></trkpt><trkpt lat="42.64429" lon="12.345035"><ele>580.0</ele><time>2026-04-17T13:48:00.602Z</time></trkpt><trkpt lat="42.644225" lon="12.3449633"><ele>580.0</ele><time>2026-04-17T13:48:01.602Z</time></trkpt><trkpt lat="42.644145" lon="12.3449"><ele>580.4</ele><time>2026-04-17T13:48:02.602Z</time></trkpt><trkpt lat="42.6440533" lon="12.3448367"><ele>580.8</ele><time>2026-04-17T13:48:03.602Z</time></trkpt><trkpt lat="42.6439617" lon="12.3447733"><ele>581.2</ele><time>2026-04-17T13:48:04.602Z</time></trkpt><trkpt lat="42.6438667" lon="12.3447233"><ele>581.6</ele><time>2026-04-17T13:48:05.602Z</time></trkpt><trkpt lat="42.6437667" lon="12.3446867"><ele>582.0</ele><time>2026-04-17T13:48:06.601Z</time></trkpt><trkpt lat="42.64368" lon="12.3446567"><ele>582.1428571428571</ele><time>2026-04-17T13:48:07.602Z</time></trkpt><trkpt lat="42.6436083" lon="12.3446367"><ele>582.2857142857142</ele><time>2026-04-17T13:48:08.601Z</time></trkpt><trkpt lat="42.643545" lon="12.34464"><ele>582.4285714285714</ele><time>2026-04-17T13:48:09.602Z</time></trkpt><trkpt lat="42.6434833" lon="12.3446717"><ele>582.5714285714286</ele><time>2026-04-17T13:48:10.601Z</time></trkpt><trkpt lat="42.643435" lon="12.3447317"><ele>582.7142857142858</ele><time>2026-04-17T13:48:11.601Z</time></trkpt><trkpt lat="42.6434133" lon="12.3448167"><ele>582.8571428571429</ele><time>2026-04-17T13:48:12.602Z</time></trkpt><trkpt lat="42.64341" lon="12.3449167"><ele>583.0</ele><time>2026-04-17T13:48:13.601Z</time></trkpt><trkpt lat="42.6434317" lon="12.3450383"><ele>583.0</ele><time>2026-04-17T13:48:14.601Z</time></trkpt><trkpt lat="42.643465" lon="12.34514"><ele>583.0</ele><time>2026-04-17T13:48:15.601Z</time></trkpt><trkpt lat="42.6435" lon="12.345215"><ele>583.0</ele><time>2026-04-17T13:48:16.601Z</time></trkpt><trkpt lat="42.64352" lon="12.3453283"><ele>583.0</ele><time>2026-04-17T13:48:19.602Z</time></trkpt><trkpt lat="42.6434733" lon="12.3454067"><ele>583.0</ele><time>2026-04-17T13:48:21.601Z</time></trkpt><trkpt lat="42.6433833" lon="12.345465"><ele>583.0</ele><time>2026-04-17T13:48:23.602Z</time></trkpt><trkpt lat="42.64331" lon="12.3454667"><ele>583.0</ele><time>2026-04-17T13:48:24.601Z</time></trkpt><trkpt lat="42.6432233" lon="12.3454567"><ele>583.0</ele><time>2026-04-17T13:48:25.602Z</time></trkpt><trkpt lat="42.6431217" lon="12.3454517"><ele>583.0</ele><time>2026-04-17T13:48:26.602Z</time></trkpt><trkpt lat="42.64301" lon="12.34545"><ele>583.0</ele><time>2026-04-17T13:48:27.602Z</time></trkpt><trkpt lat="42.6428883" lon="12.345465"><ele>583.0</ele><time>2026-04-17T13:48:28.602Z</time></trkpt><trkpt lat="42.6427683" lon="12.3455017"><ele>586.4</ele><time>2026-04-17T13:48:29.601Z</time></trkpt><trkpt lat="42.6426367" lon="12.3455517"><ele>589.8</ele><time>2026-04-17T13:48:30.602Z</time></trkpt><trkpt lat="42.6425283" lon="12.3456083"><ele>593.2</ele><time>2026-04-17T13:48:31.602Z</time></trkpt><trkpt lat="42.6424333" lon="12.3456833"><ele>596.6</ele><time>2026-04-17T13:48:32.601Z</time></trkpt><trkpt lat="42.64236" lon="12.3457383"><ele>600.0</ele><time>2026-04-17T13:48:33.601Z</time></trkpt><trkpt lat="42.6423017" lon="12.345785"><ele>600.0</ele><time>2026-04-17T13:48:34.602Z</time></trkpt><trkpt lat="42.6422117" lon="12.3458517"><ele>600.0</ele><time>2026-04-17T13:48:36.602Z</time></trkpt><trkpt lat="42.642135" lon="12.345825"><ele>600.0</ele><time>2026-04-17T13:48:38.601Z</time></trkpt><trkpt lat="42.6421283" lon="12.3457"><ele>600.0</ele><time>2026-04-17T13:48:40.602Z</time></trkpt><trkpt lat="42.6421633" lon="12.345625"><ele>600.0</ele><time>2026-04-17T13:48:41.601Z</time></trkpt><trkpt lat="42.6422167" lon="12.3455183"><ele>600.0</ele><time>2026-04-17T13:48:42.602Z</time></trkpt><trkpt lat="42.6422817" lon="12.3453917"><ele>600.4</ele><time>2026-04-17T13:48:43.601Z</time></trkpt><trkpt lat="42.6423517" lon="12.3452583"><ele>600.8</ele><time>2026-04-17T13:48:44.602Z</time></trkpt><trkpt lat="42.6424167" lon="12.34513"><ele>601.2</ele><time>2026-04-17T13:48:45.602Z</time></trkpt><trkpt lat="42.6424733" lon="12.345015"><ele>601.6</ele><time>2026-04-17T13:48:46.602Z</time></trkpt><trkpt lat="42.6425333" lon="12.34491"><ele>602.0</ele><time>2026-04-17T13:48:47.601Z</time></trkpt><trkpt lat="42.642595" lon="12.3448217"><ele>602.0</ele><time>2026-04-17T13:48:48.602Z</time></trkpt><trkpt lat="42.6426467" lon="12.3447567"><ele>602.0</ele><time>2026-04-17T13:48:49.602Z</time></trkpt><trkpt lat="42.6427083" lon="12.3446517"><ele>602.0</ele><time>2026-04-17T13:48:51.602Z</time></trkpt><trkpt lat="42.6426883" lon="12.34454"><ele>602.0</ele><time>2026-04-17T13:48:53.601Z</time></trkpt><trkpt lat="42.64257" lon="12.3444467"><ele>602.0</ele><time>2026-04-17T13:48:55.602Z</time></trkpt><trkpt lat="42.6424783" lon="12.344415"><ele>603.6</ele><time>2026-04-17T13:48:56.602Z</time></trkpt><trkpt lat="42.6423983" lon="12.344405"><ele>605.2</ele><time>2026-04-17T13:48:57.601Z</time></trkpt><trkpt lat="42.6422867" lon="12.3443567"><ele>606.8</ele><time>2026-04-17T13:48:59.601Z</time></trkpt><trkpt lat="42.6422617" lon="12.34421"><ele>608.4</ele><time>2026-04-17T13:49:01.602Z</time></trkpt><trkpt lat="42.6422917" lon="12.3440883"><ele>610.0</ele><time>2026-04-17T13:49:02.602Z</time></trkpt><trkpt lat="42.642345" lon="12.3439317"><ele>615.25</ele><time>2026-04-17T13:49:03.602Z</time></trkpt><trkpt lat="42.6424133" lon="12.34378"><ele>620.5</ele><time>2026-04-17T13:49:04.601Z</time></trkpt><trkpt lat="42.642495" lon="12.3436517"><ele>625.75</ele><time>2026-04-17T13:49:05.602Z</time></trkpt><trkpt lat="42.64259" lon="12.3435633"><ele>631.0</ele><time>2026-04-17T13:49:06.601Z</time></trkpt><trkpt lat="42.6426933" lon="12.34351"><ele>629.5</ele><time>2026-04-17T13:49:07.601Z</time></trkpt><trkpt lat="42.64282" lon="12.34347"><ele>628.0</ele><time>2026-04-17T13:49:08.602Z</time></trkpt><trkpt lat="42.6429583" lon="12.3434433"><ele>626.5</ele><time>2026-04-17T13:49:09.602Z</time></trkpt><trkpt lat="42.6430933" lon="12.34342"><ele>625.0</ele><time>2026-04-17T13:49:10.602Z</time></trkpt><trkpt lat="42.6432067" lon="12.3434017"><ele>625.0</ele><time>2026-04-17T13:49:11.602Z</time></trkpt><trkpt lat="42.6433017" lon="12.3433733"><ele>625.0</ele><time>2026-04-17T13:49:12.602Z</time></trkpt><trkpt lat="42.643385" lon="12.343335"><ele>625.0</ele><time>2026-04-17T13:49:13.602Z</time></trkpt><trkpt lat="42.6434667" lon="12.3432867"><ele>625.0</ele><time>2026-04-17T13:49:14.601Z</time></trkpt><trkpt lat="42.6435483" lon="12.3432267"><ele>625.0</ele><time>2026-04-17T13:49:15.602Z</time></trkpt><trkpt lat="42.6436333" lon="12.3431717"><ele>624.3333333333334</ele><time>2026-04-17T13:49:16.602Z</time></trkpt><trkpt lat="42.6437233" lon="12.343135"><ele>623.6666666666667</ele><time>2026-04-17T13:49:17.602Z</time></trkpt><trkpt lat="42.64381" lon="12.3431133"><ele>623.0</ele><time>2026-04-17T13:49:18.601Z</time></trkpt><trkpt lat="42.64389" lon="12.34311"><ele>622.3333333333334</ele><time>2026-04-17T13:49:19.602Z</time></trkpt><trkpt lat="42.64398" lon="12.34312"><ele>621.6666666666666</ele><time>2026-04-17T13:49:21.602Z</time></trkpt><trkpt lat="42.64406" lon="12.3431417"><ele>621.0</ele><time>2026-04-17T13:49:24.602Z</time></trkpt><trkpt lat="42.6440933" lon="12.343065"><ele>626.6</ele><time>2026-04-17T13:49:28.601Z</time></trkpt><trkpt lat="42.6440433" lon="12.3430117"><ele>632.2</ele><time>2026-04-17T13:49:31.601Z</time></trkpt><trkpt lat="42.6439567" lon="12.3429883"><ele>637.8000000000001</ele><time>2026-04-17T13:49:33.601Z</time></trkpt><trkpt lat="42.643865" lon="12.3429667"><ele>643.4000000000001</ele><time>2026-04-17T13:49:35.602Z</time></trkpt><trkpt lat="42.6437517" lon="12.3429167"><ele>649.0</ele><time>2026-04-17T13:49:37.602Z</time></trkpt><trkpt lat="42.6436383" lon="12.34284"><ele>650.5</ele><time>2026-04-17T13:49:39.602Z</time></trkpt><trkpt lat="42.6435733" lon="12.342815"><ele>652.0</ele><time>2026-04-17T13:49:40.601Z</time></trkpt><trkpt lat="42.643505" lon="12.3427967"><ele>653.5</ele><time>2026-04-17T13:49:41.602Z</time></trkpt><trkpt lat="42.6434317" lon="12.34279"><ele>655.0</ele><time>2026-04-17T13:49:42.601Z</time></trkpt><trkpt lat="42.6433533" lon="12.3427717"><ele>656.5</ele><time>2026-04-17T13:49:43.602Z</time></trkpt><trkpt lat="42.6432833" lon="12.3427617"><ele>658.0</ele><time>2026-04-17T13:49:44.602Z</time></trkpt><trkpt lat="42.6431667" lon="12.342765"><ele>658.0</ele><time>2026-04-17T13:49:46.601Z</time></trkpt><trkpt lat="42.6431033" lon="12.3427583"><ele>658.0</ele><time>2026-04-17T13:49:47.601Z</time></trkpt><trkpt lat="42.64304" lon="12.342745"><ele>658.0</ele><time>2026-04-17T13:49:48.602Z</time></trkpt><trkpt lat="42.6429717" lon="12.342725"><ele>658.0</ele><time>2026-04-17T13:49:49.602Z</time></trkpt><trkpt lat="42.642905" lon="12.3426967"><ele>658.0</ele><time>2026-04-17T13:49:50.602Z</time></trkpt><trkpt lat="42.6428383" lon="12.3426717"><ele>658.0</ele><time>2026-04-17T13:49:51.601Z</time></trkpt><trkpt lat="42.64277" lon="12.3426467"><ele>658.0</ele><time>2026-04-17T13:49:52.602Z</time></trkpt><trkpt lat="42.6426983" lon="12.3426233"><ele>658.3333333333334</ele><time>2026-04-17T13:49:53.602Z</time></trkpt><trkpt lat="42.6426183" lon="12.3426017"><ele>658.6666666666667</ele><time>2026-04-17T13:49:54.601Z</time></trkpt><trkpt lat="42.642545" lon="12.3425767"><ele>659.0</ele><time>2026-04-17T13:49:55.602Z</time></trkpt><trkpt lat="42.6424817" lon="12.3425317"><ele>659.3333333333334</ele><time>2026-04-17T13:49:56.602Z</time></trkpt><trkpt lat="42.6424133" lon="12.3424733"><ele>659.6666666666666</ele><time>2026-04-17T13:49:57.602Z</time></trkpt><trkpt lat="42.642345" lon="12.3424117"><ele>660.0</ele><time>2026-04-17T13:49:58.602Z</time></trkpt><trkpt lat="42.642275" lon="12.3423467"><ele>660.0</ele><time>2026-04-17T13:49:59.601Z</time></trkpt><trkpt lat="42.6421983" lon="12.3422933"><ele>660.0</ele><time>2026-04-17T13:50:00.602Z</time></trkpt><trkpt lat="42.6421167" lon="12.342245"><ele>660.0</ele><time>2026-04-17T13:50:01.601Z</time></trkpt><trkpt lat="42.6420383" lon="12.3421983"><ele>660.0</ele><time>2026-04-17T13:50:02.602Z</time></trkpt><trkpt lat="42.6419633" lon="12.3421533"><ele>660.0</ele><time>2026-04-17T13:50:03.602Z</time></trkpt><trkpt lat="42.64189" lon="12.342115"><ele>660.0</ele><time>2026-04-17T13:50:04.602Z</time></trkpt><trkpt lat="42.641815" lon="12.3420733"><ele>665.5</ele><time>2026-04-17T13:50:05.601Z</time></trkpt><trkpt lat="42.64175" lon="12.342035"><ele>671.0</ele><time>2026-04-17T13:50:06.601Z</time></trkpt><trkpt lat="42.6416867" lon="12.342005"><ele>676.5</ele><time>2026-04-17T13:50:07.601Z</time></trkpt><trkpt lat="42.641615" lon="12.3419817"><ele>682.0</ele><time>2026-04-17T13:50:08.602Z</time></trkpt><trkpt lat="42.6415483" lon="12.3419783"><ele>687.5</ele><time>2026-04-17T13:50:09.602Z</time></trkpt><trkpt lat="42.6414367" lon="12.3420433"><ele>693.0</ele><time>2026-04-17T13:50:11.602Z</time></trkpt><trkpt lat="42.6413967" lon="12.34211"><ele>693.0</ele><time>2026-04-17T13:50:12.602Z</time></trkpt><trkpt lat="42.6413633" lon="12.3421867"><ele>693.0</ele><time>2026-04-17T13:50:13.602Z</time></trkpt><trkpt lat="42.6413283" lon="12.3423383"><ele>693.0</ele><time>2026-04-17T13:50:15.602Z</time></trkpt><trkpt lat="42.6412783" lon="12.3424733"><ele>693.0</ele><time>2026-04-17T13:50:17.602Z</time></trkpt><trkpt lat="42.6412067" lon="12.3425483"><ele>693.0</ele><time>2026-04-17T13:50:19.602Z</time></trkpt><trkpt lat="42.641085" lon="12.3425633"><ele>693.5</ele><time>2026-04-17T13:50:21.602Z</time></trkpt><trkpt lat="42.641005" lon="12.3425533"><ele>694.0</ele><time>2026-04-17T13:50:22.602Z</time></trkpt><trkpt lat="42.6409217" lon="12.3425333"><ele>694.5</ele><time>2026-04-17T13:50:23.602Z</time></trkpt><trkpt lat="42.6408483" lon="12.342525"><ele>695.0</ele><time>2026-04-17T13:50:24.601Z</time></trkpt><trkpt lat="42.6407467" lon="12.3425517"><ele>695.5</ele><time>2026-04-17T13:50:26.601Z</time></trkpt><trkpt lat="42.640675" lon="12.342625"><ele>696.0</ele><time>2026-04-17T13:50:28.602Z</time></trkpt><trkpt lat="42.64062" lon="12.3427767"><ele>696.0</ele><time>2026-04-17T13:50:30.601Z</time></trkpt><trkpt lat="42.6405967" lon="12.3428683"><ele>696.0</ele><time>2026-04-17T13:50:31.602Z</time></trkpt><trkpt lat="42.6405683" lon="12.3429667"><ele>696.0</ele><time>2026-04-17T13:50:32.601Z</time></trkpt><trkpt lat="42.6405383" lon="12.343075"><ele>696.0</ele><time>2026-04-17T13:50:33.602Z</time></trkpt><trkpt lat="42.6405083" lon="12.3431783"><ele>696.0</ele><time>2026-04-17T13:50:34.601Z</time></trkpt><trkpt lat="42.6404767" lon="12.34326"><ele>696.0</ele><time>2026-04-17T13:50:35.602Z</time></trkpt><trkpt lat="42.6404033" lon="12.3433867"><ele>697.8333333333334</ele><time>2026-04-17T13:50:37.602Z</time></trkpt><trkpt lat="42.6403517" lon="12.3434367"><ele>699.6666666666666</ele><time>2026-04-17T13:50:38.602Z</time></trkpt><trkpt lat="42.64029" lon="12.3434817"><ele>701.5</ele><time>2026-04-17T13:50:39.602Z</time></trkpt><trkpt lat="42.6402133" lon="12.3435167"><ele>703.3333333333333</ele><time>2026-04-17T13:50:40.602Z</time></trkpt><trkpt lat="42.6401267" lon="12.3435483"><ele>705.1666666666666</ele><time>2026-04-17T13:50:41.602Z</time></trkpt><trkpt lat="42.64003" lon="12.3435767"><ele>707.0</ele><time>2026-04-17T13:50:42.602Z</time></trkpt><trkpt lat="42.6399233" lon="12.3436067"><ele>707.0</ele><time>2026-04-17T13:50:43.602Z</time></trkpt><trkpt lat="42.6398267" lon="12.343635"><ele>707.0</ele><time>2026-04-17T13:50:44.601Z</time></trkpt><trkpt lat="42.63974" lon="12.3436617"><ele>707.0</ele><time>2026-04-17T13:50:45.601Z</time></trkpt><trkpt lat="42.63966" lon="12.343685"><ele>707.0</ele><time>2026-04-17T13:50:46.601Z</time></trkpt><trkpt lat="42.63959" lon="12.34371"><ele>707.0</ele><time>2026-04-17T13:50:47.602Z</time></trkpt><trkpt lat="42.639525" lon="12.3437367"><ele>707.0</ele><time>2026-04-17T13:50:48.602Z</time></trkpt><trkpt lat="42.639465" lon="12.34378"><ele>708.8</ele><time>2026-04-17T13:50:49.602Z</time></trkpt><trkpt lat="42.6394017" lon="12.3438333"><ele>710.6</ele><time>2026-04-17T13:50:50.601Z</time></trkpt><trkpt lat="42.6393533" lon="12.3438933"><ele>712.4</ele><time>2026-04-17T13:50:51.601Z</time></trkpt><trkpt lat="42.6393083" lon="12.3440267"><ele>714.1999999999999</ele><time>2026-04-17T13:50:53.601Z</time></trkpt><trkpt lat="42.6393" lon="12.3442033"><ele>716.0</ele><time>2026-04-17T13:50:55.602Z</time></trkpt><trkpt lat="42.639315" lon="12.3443033"><ele>716.0</ele><time>2026-04-17T13:50:56.602Z</time></trkpt><trkpt lat="42.6393267" lon="12.3444067"><ele>716.0</ele><time>2026-04-17T13:50:57.601Z</time></trkpt><trkpt lat="42.6393333" lon="12.3445167"><ele>716.0</ele><time>2026-04-17T13:50:58.602Z</time></trkpt><trkpt lat="42.6393317" lon="12.3446183"><ele>716.0</ele><time>2026-04-17T13:50:59.602Z</time></trkpt><trkpt lat="42.6393367" lon="12.3447317"><ele>716.0</ele><time>2026-04-17T13:51:00.601Z</time></trkpt><trkpt lat="42.6393333" lon="12.3448417"><ele>716.0</ele><time>2026-04-17T13:51:01.602Z</time></trkpt><trkpt lat="42.6393383" lon="12.3449483"><ele>715.1666666666666</ele><time>2026-04-17T13:51:02.602Z</time></trkpt><trkpt lat="42.639345" lon="12.3450417"><ele>714.3333333333333</ele><time>2026-04-17T13:51:03.602Z</time></trkpt><trkpt lat="42.6393433" lon="12.3451367"><ele>713.5</ele><time>2026-04-17T13:51:04.602Z</time></trkpt><trkpt lat="42.63934" lon="12.3452267"><ele>712.6666666666666</ele><time>2026-04-17T13:51:05.601Z</time></trkpt><trkpt lat="42.6393233" lon="12.3453317"><ele>711.8333333333334</ele><time>2026-04-17T13:51:06.602Z</time></trkpt><trkpt lat="42.6392817" lon="12.3454367"><ele>711.0</ele><time>2026-04-17T13:51:07.602Z</time></trkpt><trkpt lat="42.6392283" lon="12.3455467"><ele>708.5999999999999</ele><time>2026-04-17T13:51:08.602Z</time></trkpt><trkpt lat="42.6391667" lon="12.345645"><ele>706.2</ele><time>2026-04-17T13:51:09.602Z</time></trkpt><trkpt lat="42.6391033" lon="12.34574"><ele>703.8</ele><time>2026-04-17T13:51:10.602Z</time></trkpt><trkpt lat="42.63904" lon="12.345855"><ele>701.4000000000001</ele><time>2026-04-17T13:51:11.602Z</time></trkpt><trkpt lat="42.6389867" lon="12.3459783"><ele>699.0</ele><time>2026-04-17T13:51:12.602Z</time></trkpt><trkpt lat="42.63894" lon="12.3461017"><ele>699.0</ele><time>2026-04-17T13:51:13.602Z</time></trkpt><trkpt lat="42.6389183" lon="12.3462283"><ele>699.0</ele><time>2026-04-17T13:51:14.602Z</time></trkpt><trkpt lat="42.6388883" lon="12.3463917"><ele>699.0</ele><time>2026-04-17T13:51:15.602Z</time></trkpt><trkpt lat="42.638855" lon="12.346555"><ele>699.0</ele><time>2026-04-17T13:51:16.602Z</time></trkpt><trkpt lat="42.6388367" lon="12.3467133"><ele>697.0</ele><time>2026-04-17T13:51:17.602Z</time></trkpt><trkpt lat="42.6388217" lon="12.3468467"><ele>695.0</ele><time>2026-04-17T13:51:18.601Z</time></trkpt><trkpt lat="42.638815" lon="12.3469533"><ele>693.0</ele><time>2026-04-17T13:51:19.601Z</time></trkpt><trkpt lat="42.6388117" lon="12.3470433"><ele>691.0</ele><time>2026-04-17T13:51:20.602Z</time></trkpt><trkpt lat="42.6388083" lon="12.3471933"><ele>689.0</ele><time>2026-04-17T13:51:22.601Z</time></trkpt><trkpt lat="42.6387733" lon="12.347315"><ele>688.8333333333333</ele><time>2026-04-17T13:51:24.601Z</time></trkpt><trkpt lat="42.63872" lon="12.3473817"><ele>688.6666666666666</ele><time>2026-04-17T13:51:26.602Z</time></trkpt><trkpt lat="42.6386367" lon="12.3474067"><ele>688.5</ele><time>2026-04-17T13:51:28.602Z</time></trkpt><trkpt lat="42.63857" lon="12.3474117"><ele>688.3333333333334</ele><time>2026-04-17T13:51:29.602Z</time></trkpt><trkpt lat="42.6384967" lon="12.3474117"><ele>688.1666666666667</ele><time>2026-04-17T13:51:30.602Z</time></trkpt><trkpt lat="42.6384233" lon="12.347425"><ele>688.0</ele><time>2026-04-17T13:51:31.602Z</time></trkpt><trkpt lat="42.63834" lon="12.3474417"><ele>688.6666666666667</ele><time>2026-04-17T13:51:32.602Z</time></trkpt><trkpt lat="42.63826" lon="12.3474617"><ele>689.3333333333334</ele><time>2026-04-17T13:51:33.601Z</time></trkpt><trkpt lat="42.63818" lon="12.3475033"><ele>690.0</ele><time>2026-04-17T13:51:34.601Z</time></trkpt><trkpt lat="42.6381083" lon="12.347555"><ele>690.6666666666666</ele><time>2026-04-17T13:51:35.602Z</time></trkpt><trkpt lat="42.63804" lon="12.3476117"><ele>691.3333333333333</ele><time>2026-04-17T13:51:36.602Z</time></trkpt><trkpt lat="42.637985" lon="12.3476833"><ele>692.0</ele><time>2026-04-17T13:51:37.602Z</time></trkpt><trkpt lat="42.637935" lon="12.3477617"><ele>692.0</ele><time>2026-04-17T13:51:38.601Z</time></trkpt><trkpt lat="42.63789" lon="12.3478367"><ele>692.0</ele><time>2026-04-17T13:51:39.602Z</time></trkpt><trkpt lat="42.6378433" lon="12.347915"><ele>692.0</ele><time>2026-04-17T13:51:40.602Z</time></trkpt><trkpt lat="42.6377967" lon="12.34798"><ele>692.0</ele><time>2026-04-17T13:51:41.601Z</time></trkpt><trkpt lat="42.6377333" lon="12.3480267"><ele>692.0</ele><time>2026-04-17T13:51:42.602Z</time></trkpt><trkpt lat="42.6376567" lon="12.3480617"><ele>692.0</ele><time>2026-04-17T13:51:43.602Z</time></trkpt><trkpt lat="42.6375683" lon="12.3480867"><ele>689.6666666666666</ele><time>2026-04-17T13:51:44.602Z</time></trkpt><trkpt lat="42.6374733" lon="12.3481033"><ele>687.3333333333333</ele><time>2026-04-17T13:51:45.601Z</time></trkpt><trkpt lat="42.6373783" lon="12.348115"><ele>685.0</ele><time>2026-04-17T13:51:46.601Z</time></trkpt><trkpt lat="42.6372917" lon="12.3481333"><ele>682.6666666666666</ele><time>2026-04-17T13:51:47.602Z</time></trkpt><trkpt lat="42.6372083" lon="12.34816"><ele>680.3333333333334</ele><time>2026-04-17T13:51:48.602Z</time></trkpt><trkpt lat="42.637135" lon="12.34819"><ele>678.0</ele><time>2026-04-17T13:51:49.602Z</time></trkpt><trkpt lat="42.6370767" lon="12.3482267"><ele>678.0</ele><time>2026-04-17T13:51:50.602Z</time></trkpt><trkpt lat="42.637025" lon="12.34828"><ele>678.0</ele><time>2026-04-17T13:51:51.602Z</time></trkpt><trkpt lat="42.636985" lon="12.3483483"><ele>678.0</ele><time>2026-04-17T13:51:52.602Z</time></trkpt><trkpt lat="42.6369183" lon="12.3485067"><ele>678.0</ele><time>2026-04-17T13:51:54.602Z</time></trkpt><trkpt lat="42.63688" lon="12.3485883"><ele>678.0</ele><time>2026-04-17T13:51:55.602Z</time></trkpt><trkpt lat="42.63682" lon="12.348725"><ele>675.8</ele><time>2026-04-17T13:51:57.602Z</time></trkpt><trkpt lat="42.6367633" lon="12.3488417"><ele>673.5999999999999</ele><time>2026-04-17T13:51:59.601Z</time></trkpt><trkpt lat="42.6366933" lon="12.3489183"><ele>671.4000000000001</ele><time>2026-04-17T13:52:01.602Z</time></trkpt><trkpt lat="42.6366033" lon="12.3489483"><ele>669.2</ele><time>2026-04-17T13:52:03.601Z</time></trkpt><trkpt lat="42.636485" lon="12.3489483"><ele>667.0</ele><time>2026-04-17T13:52:05.602Z</time></trkpt><trkpt lat="42.6364067" lon="12.3489367"><ele>667.0</ele><time>2026-04-17T13:52:06.601Z</time></trkpt><trkpt lat="42.6363167" lon="12.34892"><ele>667.0</ele><time>2026-04-17T13:52:07.601Z</time></trkpt><trkpt lat="42.6362117" lon="12.3489017"><ele>667.0</ele><time>2026-04-17T13:52:08.602Z</time></trkpt><trkpt lat="42.6360983" lon="12.3488883"><ele>667.0</ele><time>2026-04-17T13:52:09.602Z</time></trkpt><trkpt lat="42.63599" lon="12.348885"><ele>667.0</ele><time>2026-04-17T13:52:10.601Z</time></trkpt><trkpt lat="42.635885" lon="12.3488783"><ele>671.0</ele><time>2026-04-17T13:52:11.602Z</time></trkpt><trkpt lat="42.6357867" lon="12.3488633"><ele>675.0</ele><time>2026-04-17T13:52:12.602Z</time></trkpt><trkpt lat="42.63569" lon="12.34885"><ele>679.0</ele><time>2026-04-17T13:52:13.601Z</time></trkpt><trkpt lat="42.6355933" lon="12.34883"><ele>683.0</ele><time>2026-04-17T13:52:14.602Z</time></trkpt><trkpt lat="42.6354883" lon="12.3487933"><ele>687.0</ele><time>2026-04-17T13:52:15.601Z</time></trkpt><trkpt lat="42.6353883" lon="12.3487567"><ele>684.4000000000001</ele><time>2026-04-17T13:52:16.602Z</time></trkpt><trkpt lat="42.6352933" lon="12.3487083"><ele>681.8000000000001</ele><time>2026-04-17T13:52:17.601Z</time></trkpt><trkpt lat="42.6352033" lon="12.34866"><ele>679.2</ele><time>2026-04-17T13:52:18.602Z</time></trkpt><trkpt lat="42.6351133" lon="12.3486167"><ele>676.6</ele><time>2026-04-17T13:52:19.602Z</time></trkpt><trkpt lat="42.635025" lon="12.348575"><ele>674.0</ele><time>2026-04-17T13:52:20.602Z</time></trkpt><trkpt lat="42.6349483" lon="12.348545"><ele>674.0</ele><time>2026-04-17T13:52:21.601Z</time></trkpt><trkpt lat="42.6348683" lon="12.3485133"><ele>674.0</ele><time>2026-04-17T13:52:22.602Z</time></trkpt><trkpt lat="42.63479" lon="12.3484817"><ele>674.0</ele><time>2026-04-17T13:52:23.602Z</time></trkpt><trkpt lat="42.6347133" lon="12.3484583"><ele>674.0</ele><time>2026-04-17T13:52:24.602Z</time></trkpt><trkpt lat="42.6346317" lon="12.34845"><ele>674.0</ele><time>2026-04-17T13:52:25.602Z</time></trkpt><trkpt lat="42.6345533" lon="12.34846"><ele>674.0</ele><time>2026-04-17T13:52:26.602Z</time></trkpt><trkpt lat="42.634475" lon="12.3484783"><ele>671.8333333333333</ele><time>2026-04-17T13:52:27.602Z</time></trkpt><trkpt lat="42.6344" lon="12.348485"><ele>669.6666666666666</ele><time>2026-04-17T13:52:28.602Z</time></trkpt><trkpt lat="42.6343217" lon="12.348485"><ele>667.5</ele><time>2026-04-17T13:52:29.602Z</time></trkpt><trkpt lat="42.6342483" lon="12.3484883"><ele>665.3333333333334</ele><time>2026-04-17T13:52:30.602Z</time></trkpt><trkpt lat="42.634185" lon="12.34848"><ele>663.1666666666667</ele><time>2026-04-17T13:52:31.601Z</time></trkpt><trkpt lat="42.634065" lon="12.3484067"><ele>661.0</ele><time>2026-04-17T13:52:33.602Z</time></trkpt><trkpt lat="42.634" lon="12.3483517"><ele>661.0</ele><time>2026-04-17T13:52:34.602Z</time></trkpt><trkpt lat="42.6339433" lon="12.348305"><ele>661.0</ele><time>2026-04-17T13:52:35.602Z</time></trkpt><trkpt lat="42.6338367" lon="12.3482367"><ele>661.0</ele><time>2026-04-17T13:52:37.602Z</time></trkpt><trkpt lat="42.63377" lon="12.3482367"><ele>661.0</ele><time>2026-04-17T13:52:38.602Z</time></trkpt><trkpt lat="42.6336983" lon="12.3482583"><ele>661.0</ele><time>2026-04-17T13:52:39.602Z</time></trkpt><trkpt lat="42.63361" lon="12.348295"><ele>661.0</ele><time>2026-04-17T13:52:40.602Z</time></trkpt><trkpt lat="42.633515" lon="12.3483383"><ele>660.0</ele><time>2026-04-17T13:52:41.602Z</time></trkpt><trkpt lat="42.63342" lon="12.348365"><ele>659.0</ele><time>2026-04-17T13:52:42.601Z</time></trkpt><trkpt lat="42.633325" lon="12.3483817"><ele>658.0</ele><time>2026-04-17T13:52:43.602Z</time></trkpt><trkpt lat="42.6332283" lon="12.3483783"><ele>657.0</ele><time>2026-04-17T13:52:44.602Z</time></trkpt><trkpt lat="42.6331383" lon="12.3483567"><ele>656.0</ele><time>2026-04-17T13:52:45.602Z</time></trkpt><trkpt lat="42.633055" lon="12.3483167"><ele>656.0</ele><time>2026-04-17T13:52:46.601Z</time></trkpt><trkpt lat="42.6329717" lon="12.3482833"><ele>656.0</ele><time>2026-04-17T13:52:47.602Z</time></trkpt><trkpt lat="42.6328967" lon="12.3482367"><ele>656.0</ele><time>2026-04-17T13:52:48.602Z</time></trkpt><trkpt lat="42.6328267" lon="12.3481833"><ele>656.0</ele><time>2026-04-17T13:52:49.602Z</time></trkpt><trkpt lat="42.6327533" lon="12.3481317"><ele>656.0</ele><time>2026-04-17T13:52:50.602Z</time></trkpt><trkpt lat="42.6326733" lon="12.348065"><ele>656.0</ele><time>2026-04-17T13:52:51.602Z</time></trkpt><trkpt lat="42.632605" lon="12.3479783"><ele>658.1666666666666</ele><time>2026-04-17T13:52:52.602Z</time></trkpt><trkpt lat="42.6325433" lon="12.3478983"><ele>660.3333333333333</ele><time>2026-04-17T13:52:53.602Z</time></trkpt><trkpt lat="42.6324833" lon="12.3478233"><ele>662.5</ele><time>2026-04-17T13:52:54.601Z</time></trkpt><trkpt lat="42.6324233" lon="12.347775"><ele>664.6666666666666</ele><time>2026-04-17T13:52:55.601Z</time></trkpt><trkpt lat="42.63235" lon="12.3477367"><ele>666.8333333333334</ele><time>2026-04-17T13:52:56.602Z</time></trkpt><trkpt lat="42.6322717" lon="12.347715"><ele>669.0</ele><time>2026-04-17T13:52:57.602Z</time></trkpt><trkpt lat="42.6321967" lon="12.347705"><ele>669.0</ele><time>2026-04-17T13:52:58.602Z</time></trkpt><trkpt lat="42.6321167" lon="12.3476867"><ele>669.0</ele><time>2026-04-17T13:52:59.601Z</time></trkpt><trkpt lat="42.6320317" lon="12.347645"><ele>669.0</ele><time>2026-04-17T13:53:00.601Z</time></trkpt><trkpt lat="42.6319517" lon="12.3475833"><ele>669.0</ele><time>2026-04-17T13:53:01.602Z</time></trkpt><trkpt lat="42.63188" lon="12.347525"><ele>669.0</ele><time>2026-04-17T13:53:02.601Z</time></trkpt><trkpt lat="42.6317983" lon="12.3474733"><ele>669.0</ele><time>2026-04-17T13:53:03.602Z</time></trkpt><trkpt lat="42.6317167" lon="12.347435"><ele>667.6666666666666</ele><time>2026-04-17T13:53:04.601Z</time></trkpt><trkpt lat="42.6316367" lon="12.34741"><ele>666.3333333333334</ele><time>2026-04-17T13:53:05.602Z</time></trkpt><trkpt lat="42.6315683" lon="12.3473867"><ele>665.0</ele><time>2026-04-17T13:53:06.602Z</time></trkpt><trkpt lat="42.6315017" lon="12.347395"><ele>663.6666666666667</ele><time>2026-04-17T13:53:07.602Z</time></trkpt><trkpt lat="42.6314317" lon="12.3474333"><ele>662.3333333333334</ele><time>2026-04-17T13:53:08.601Z</time></trkpt><trkpt lat="42.6313567" lon="12.34748"><ele>661.0</ele><time>2026-04-17T13:53:09.602Z</time></trkpt><trkpt lat="42.6312683" lon="12.3475183"><ele>661.0</ele><time>2026-04-17T13:53:10.602Z</time></trkpt><trkpt lat="42.6311717" lon="12.3475633"><ele>661.0</ele><time>2026-04-17T13:53:11.602Z</time></trkpt><trkpt lat="42.6310717" lon="12.34761"><ele>661.0</ele><time>2026-04-17T13:53:12.602Z</time></trkpt><trkpt lat="42.6309533" lon="12.3476517"><ele>661.0</ele><time>2026-04-17T13:53:13.602Z</time></trkpt><trkpt lat="42.6308483" lon="12.34769"><ele>661.0</ele><time>2026-04-17T13:53:14.602Z</time></trkpt><trkpt lat="42.6307617" lon="12.3477333"><ele>659.0</ele><time>2026-04-17T13:53:15.602Z</time></trkpt><trkpt lat="42.6306967" lon="12.3477683"><ele>657.0</ele><time>2026-04-17T13:53:16.601Z</time></trkpt><trkpt lat="42.6306267" lon="12.3478167"><ele>655.0</ele><time>2026-04-17T13:53:17.602Z</time></trkpt><trkpt lat="42.630545" lon="12.3478867"><ele>653.0</ele><time>2026-04-17T13:53:18.601Z</time></trkpt><trkpt lat="42.6304533" lon="12.3479683"><ele>651.0</ele><time>2026-04-17T13:53:19.602Z</time></trkpt><trkpt lat="42.6303633" lon="12.3480433"><ele>655.5999999999999</ele><time>2026-04-17T13:53:20.602Z</time></trkpt><trkpt lat="42.6302733" lon="12.34812"><ele>660.2</ele><time>2026-04-17T13:53:21.602Z</time></trkpt><trkpt lat="42.6301817" lon="12.3482017"><ele>664.8</ele><time>2026-04-17T13:53:22.602Z</time></trkpt><trkpt lat="42.630085" lon="12.3482733"><ele>669.4000000000001</ele><time>2026-04-17T13:53:23.601Z</time></trkpt><trkpt lat="42.6299917" lon="12.3483267"><ele>674.0</ele><time>2026-04-17T13:53:24.602Z</time></trkpt><trkpt lat="42.6298933" lon="12.3483817"><ele>674.0</ele><time>2026-04-17T13:53:25.602Z</time></trkpt><trkpt lat="42.6297933" lon="12.3484467"><ele>674.0</ele><time>2026-04-17T13:53:26.602Z</time></trkpt><trkpt lat="42.62971" lon="12.3485"><ele>674.0</ele><time>2026-04-17T13:53:27.602Z</time></trkpt><trkpt lat="42.6296433" lon="12.3485517"><ele>674.0</ele><time>2026-04-17T13:53:28.601Z</time></trkpt><trkpt lat="42.6295767" lon="12.3486183"><ele>674.0</ele><time>2026-04-17T13:53:29.602Z</time></trkpt><trkpt lat="42.6295117" lon="12.3487033"><ele>674.8333333333333</ele><time>2026-04-17T13:53:30.602Z</time></trkpt><trkpt lat="42.6294583" lon="12.3487967"><ele>675.6666666666666</ele><time>2026-04-17T13:53:31.602Z</time></trkpt><trkpt lat="42.6294217" lon="12.3489017"><ele>676.5</ele><time>2026-04-17T13:53:32.602Z</time></trkpt><trkpt lat="42.62937" lon="12.3490017"><ele>677.3333333333334</ele><time>2026-04-17T13:53:33.601Z</time></trkpt><trkpt lat="42.6293283" lon="12.3490983"><ele>678.1666666666667</ele><time>2026-04-17T13:53:34.602Z</time></trkpt><trkpt lat="42.62928" lon="12.34919"><ele>679.0</ele><time>2026-04-17T13:53:35.602Z</time></trkpt><trkpt lat="42.62922" lon="12.349275"><ele>679.0</ele><time>2026-04-17T13:53:36.602Z</time></trkpt><trkpt lat="42.629145" lon="12.3493383"><ele>679.0</ele><time>2026-04-17T13:53:37.601Z</time></trkpt><trkpt lat="42.6290633" lon="12.3493917"><ele>679.0</ele><time>2026-04-17T13:53:38.601Z</time></trkpt><trkpt lat="42.6289817" lon="12.3494317"><ele>679.0</ele><time>2026-04-17T13:53:39.601Z</time></trkpt><trkpt lat="42.6288967" lon="12.349485"><ele>679.0</ele><time>2026-04-17T13:53:40.602Z</time></trkpt><trkpt lat="42.62882" lon="12.3495333"><ele>679.0</ele><time>2026-04-17T13:53:41.602Z</time></trkpt><trkpt lat="42.6287333" lon="12.34957"><ele>679.0</ele><time>2026-04-17T13:53:42.602Z</time></trkpt><trkpt lat="42.6286433" lon="12.349605"><ele>679.0</ele><time>2026-04-17T13:53:43.601Z</time></trkpt><trkpt lat="42.6285633" lon="12.349635"><ele>679.0</ele><time>2026-04-17T13:53:44.601Z</time></trkpt><trkpt lat="42.6284933" lon="12.349655"><ele>679.0</ele><time>2026-04-17T13:53:45.602Z</time></trkpt><trkpt lat="42.6284217" lon="12.3496667"><ele>679.0</ele><time>2026-04-17T13:53:46.602Z</time></trkpt><trkpt lat="42.6283417" lon="12.349665"><ele>679.0</ele><time>2026-04-17T13:53:47.602Z</time></trkpt><trkpt lat="42.628265" lon="12.3496683"><ele>681.0</ele><time>2026-04-17T13:53:48.601Z</time></trkpt><trkpt lat="42.628195" lon="12.3496617"><ele>683.0</ele><time>2026-04-17T13:53:49.602Z</time></trkpt><trkpt lat="42.6281283" lon="12.34965"><ele>685.0</ele><time>2026-04-17T13:53:50.601Z</time></trkpt><trkpt lat="42.6280183" lon="12.3496017"><ele>687.0</ele><time>2026-04-17T13:53:52.601Z</time></trkpt><trkpt lat="42.6279033" lon="12.3495483"><ele>689.0</ele><time>2026-04-17T13:53:54.601Z</time></trkpt><trkpt lat="42.6278133" lon="12.3494817"><ele>690.4000000000001</ele><time>2026-04-17T13:53:56.601Z</time></trkpt><trkpt lat="42.627735" lon="12.3493967"><ele>691.8</ele><time>2026-04-17T13:53:58.602Z</time></trkpt><trkpt lat="42.627665" lon="12.3493133"><ele>693.2</ele><time>2026-04-17T13:54:00.602Z</time></trkpt><trkpt lat="42.6275783" lon="12.349235"><ele>694.5999999999999</ele><time>2026-04-17T13:54:02.602Z</time></trkpt><trkpt lat="42.6274933" lon="12.3491817"><ele>696.0</ele><time>2026-04-17T13:54:04.601Z</time></trkpt><trkpt lat="42.6274283" lon="12.349145"><ele>696.0</ele><time>2026-04-17T13:54:06.601Z</time></trkpt><trkpt lat="42.62736" lon="12.3490633"><ele>696.0</ele><time>2026-04-17T13:54:09.601Z</time></trkpt><trkpt lat="42.6273367" lon="12.3489467"><ele>696.0</ele><time>2026-04-17T13:54:12.602Z</time></trkpt><trkpt lat="42.6273717" lon="12.3488567"><ele>696.0</ele><time>2026-04-17T13:54:14.602Z</time></trkpt><trkpt lat="42.627455" lon="12.348785"><ele>696.0</ele><time>2026-04-17T13:54:17.602Z</time></trkpt><trkpt lat="42.6275667" lon="12.3487533"><ele>698.0</ele><time>2026-04-17T13:54:19.601Z</time></trkpt><trkpt lat="42.6276283" lon="12.34873"><ele>700.0</ele><time>2026-04-17T13:54:20.601Z</time></trkpt><trkpt lat="42.6277267" lon="12.34866"><ele>702.0</ele><time>2026-04-17T13:54:22.602Z</time></trkpt><trkpt lat="42.6277883" lon="12.3485617"><ele>704.0</ele><time>2026-04-17T13:54:24.601Z</time></trkpt><trkpt lat="42.6277967" lon="12.34844"><ele>706.0</ele><time>2026-04-17T13:54:26.602Z</time></trkpt><trkpt lat="42.6277483" lon="12.3483383"><ele>708.0</ele><time>2026-04-17T13:54:28.602Z</time></trkpt><trkpt lat="42.627655" lon="12.3482433"><ele>708.0</ele><time>2026-04-17T13:54:30.601Z</time></trkpt><trkpt lat="42.6275833" lon="12.3482033"><ele>708.0</ele><time>2026-04-17T13:54:31.602Z</time></trkpt><trkpt lat="42.6275167" lon="12.34816"><ele>708.0</ele><time>2026-04-17T13:54:32.602Z</time></trkpt><trkpt lat="42.627455" lon="12.3481167"><ele>708.0</ele><time>2026-04-17T13:54:33.602Z</time></trkpt><trkpt lat="42.6273633" lon="12.3480417"><ele>708.0</ele><time>2026-04-17T13:54:35.601Z</time></trkpt><trkpt lat="42.62729" lon="12.34798"><ele>708.0</ele><time>2026-04-17T13:54:37.602Z</time></trkpt><trkpt lat="42.6272183" lon="12.34792"><ele>710.0</ele><time>2026-04-17T13:54:39.602Z</time></trkpt><trkpt lat="42.6271533" lon="12.3478417"><ele>712.0</ele><time>2026-04-17T13:54:41.602Z</time></trkpt><trkpt lat="42.6270733" lon="12.34772"><ele>714.0</ele><time>2026-04-17T13:54:43.602Z</time></trkpt><trkpt lat="42.626995" lon="12.3476183"><ele>716.0</ele><time>2026-04-17T13:54:45.602Z</time></trkpt><trkpt lat="42.6269117" lon="12.347475"><ele>716.3333333333333</ele><time>2026-04-17T13:54:47.602Z</time></trkpt><trkpt lat="42.6268567" lon="12.34738"><ele>716.6666666666666</ele><time>2026-04-17T13:54:48.601Z</time></trkpt><trkpt lat="42.6268033" lon="12.3472967"><ele>717.0</ele><time>2026-04-17T13:54:49.601Z</time></trkpt><trkpt lat="42.6267567" lon="12.347215"><ele>717.3333333333334</ele><time>2026-04-17T13:54:50.602Z</time></trkpt><trkpt lat="42.62672" lon="12.3471367"><ele>717.6666666666667</ele><time>2026-04-17T13:54:51.602Z</time></trkpt><trkpt lat="42.626695" lon="12.3470433"><ele>718.0</ele><time>2026-04-17T13:54:52.602Z</time></trkpt><trkpt lat="42.6266883" lon="12.3469417"><ele>719.2857142857143</ele><time>2026-04-17T13:54:53.601Z</time></trkpt><trkpt lat="42.6266933" lon="12.34685"><ele>720.5714285714287</ele><time>2026-04-17T13:54:54.601Z</time></trkpt><trkpt lat="42.6267133" lon="12.3467683"><ele>721.8571428571429</ele><time>2026-04-17T13:54:55.602Z</time></trkpt><trkpt lat="42.62675" lon="12.3466783"><ele>723.1428571428571</ele><time>2026-04-17T13:54:56.602Z</time></trkpt><trkpt lat="42.6267933" lon="12.3465767"><ele>724.4285714285714</ele><time>2026-04-17T13:54:57.602Z</time></trkpt><trkpt lat="42.626825" lon="12.3464833"><ele>725.7142857142857</ele><time>2026-04-17T13:54:58.601Z</time></trkpt><trkpt lat="42.6268517" lon="12.346395"><ele>727.0</ele><time>2026-04-17T13:54:59.601Z</time></trkpt><trkpt lat="42.62687" lon="12.3462983"><ele>727.5714285714286</ele><time>2026-04-17T13:55:00.602Z</time></trkpt><trkpt lat="42.62688" lon="12.3461983"><ele>728.1428571428572</ele><time>2026-04-17T13:55:01.602Z</time></trkpt><trkpt lat="42.6268733" lon="12.346105"><ele>728.7142857142858</ele><time>2026-04-17T13:55:02.601Z</time></trkpt><trkpt lat="42.6268667" lon="12.3460133"><ele>729.2857142857142</ele><time>2026-04-17T13:55:03.601Z</time></trkpt><trkpt lat="42.6268533" lon="12.345925"><ele>729.8571428571429</ele><time>2026-04-17T13:55:04.601Z</time></trkpt><trkpt lat="42.626825" lon="12.3458467"><ele>730.4285714285714</ele><time>2026-04-17T13:55:05.601Z</time></trkpt><trkpt lat="42.62679" lon="12.3457733"><ele>731.0</ele><time>2026-04-17T13:55:06.602Z</time></trkpt><trkpt lat="42.6267517" lon="12.345695"><ele>731.0</ele><time>2026-04-17T13:55:07.602Z</time></trkpt><trkpt lat="42.626705" lon="12.3456183"><ele>731.0</ele><time>2026-04-17T13:55:08.601Z</time></trkpt><trkpt lat="42.6266583" lon="12.345555"><ele>731.0</ele><time>2026-04-17T13:55:09.601Z</time></trkpt><trkpt lat="42.62657" lon="12.3454417"><ele>731.0</ele><time>2026-04-17T13:55:11.602Z</time></trkpt><trkpt lat="42.6265167" lon="12.34538"><ele>731.0</ele><time>2026-04-17T13:55:12.602Z</time></trkpt><trkpt lat="42.62646" lon="12.3453083"><ele>731.0</ele><time>2026-04-17T13:55:13.601Z</time></trkpt><trkpt lat="42.6263983" lon="12.3452367"><ele>730.1666666666666</ele><time>2026-04-17T13:55:14.602Z</time></trkpt><trkpt lat="42.62634" lon="12.3451783"><ele>729.3333333333333</ele><time>2026-04-17T13:55:15.602Z</time></trkpt><trkpt lat="42.6262817" lon="12.3451217"><ele>728.5</ele><time>2026-04-17T13:55:16.601Z</time></trkpt><trkpt lat="42.6262233" lon="12.3450683"><ele>727.6666666666666</ele><time>2026-04-17T13:55:17.602Z</time></trkpt><trkpt lat="42.62611" lon="12.3449883"><ele>726.8333333333334</ele><time>2026-04-17T13:55:19.602Z</time></trkpt><trkpt lat="42.626045" lon="12.3449567"><ele>726.0</ele><time>2026-04-17T13:55:20.602Z</time></trkpt><trkpt lat="42.6259717" lon="12.3449183"><ele>726.0</ele><time>2026-04-17T13:55:21.602Z</time></trkpt><trkpt lat="42.625895" lon="12.34488"><ele>726.0</ele><time>2026-04-17T13:55:22.602Z</time></trkpt><trkpt lat="42.6258183" lon="12.3448433"><ele>726.0</ele><time>2026-04-17T13:55:23.601Z</time></trkpt><trkpt lat="42.625745" lon="12.3448167"><ele>726.0</ele><time>2026-04-17T13:55:24.602Z</time></trkpt><trkpt lat="42.6256667" lon="12.3447933"><ele>726.0</ele><time>2026-04-17T13:55:25.602Z</time></trkpt><trkpt lat="42.6255933" lon="12.3447767"><ele>726.0</ele><time>2026-04-17T13:55:26.602Z</time></trkpt><trkpt lat="42.6255233" lon="12.3447683"><ele>726.0</ele><time>2026-04-17T13:55:27.601Z</time></trkpt><trkpt lat="42.6254483" lon="12.3447667"><ele>726.0</ele><time>2026-04-17T13:55:28.602Z</time></trkpt><trkpt lat="42.6253717" lon="12.3447767"><ele>726.0</ele><time>2026-04-17T13:55:29.602Z</time></trkpt><trkpt lat="42.62529" lon="12.344795"><ele>726.0</ele><time>2026-04-17T13:55:30.601Z</time></trkpt><trkpt lat="42.6252033" lon="12.3448167"><ele>726.0</ele><time>2026-04-17T13:55:31.602Z</time></trkpt><trkpt lat="42.6251117" lon="12.3448467"><ele>726.0</ele><time>2026-04-17T13:55:32.601Z</time></trkpt><trkpt lat="42.6250233" lon="12.34489"><ele>724.8333333333334</ele><time>2026-04-17T13:55:33.602Z</time></trkpt><trkpt lat="42.624935" lon="12.3449333"><ele>723.6666666666666</ele><time>2026-04-17T13:55:34.602Z</time></trkpt><trkpt lat="42.62485" lon="12.3449683"><ele>722.5</ele><time>2026-04-17T13:55:35.601Z</time></trkpt><trkpt lat="42.624775" lon="12.3450133"><ele>721.3333333333333</ele><time>2026-04-17T13:55:36.602Z</time></trkpt><trkpt lat="42.6247033" lon="12.3450483"><ele>720.1666666666666</ele><time>2026-04-17T13:55:37.602Z</time></trkpt><trkpt lat="42.62464" lon="12.3450783"><ele>719.0</ele><time>2026-04-17T13:55:38.602Z</time></trkpt><trkpt lat="42.624575" lon="12.3451067"><ele>718.9999999999999</ele><time>2026-04-17T13:55:39.602Z</time></trkpt><trkpt lat="42.6245117" lon="12.3451317"><ele>719.0</ele><time>2026-04-17T13:55:40.602Z</time></trkpt><trkpt lat="42.6244483" lon="12.345155"><ele>719.0</ele><time>2026-04-17T13:55:41.601Z</time></trkpt><trkpt lat="42.6243783" lon="12.3451783"><ele>719.0</ele><time>2026-04-17T13:55:42.602Z</time></trkpt><trkpt lat="42.624305" lon="12.3452067"><ele>719.0</ele><time>2026-04-17T13:55:43.601Z</time></trkpt><trkpt lat="42.624235" lon="12.34523"><ele>718.9999999999999</ele><time>2026-04-17T13:55:44.602Z</time></trkpt><trkpt lat="42.6241617" lon="12.3452533"><ele>719.0</ele><time>2026-04-17T13:55:45.602Z</time></trkpt><trkpt lat="42.6240883" lon="12.3452667"><ele>717.2857142857142</ele><time>2026-04-17T13:55:46.602Z</time></trkpt><trkpt lat="42.624015" lon="12.3452683"><ele>715.5714285714286</ele><time>2026-04-17T13:55:47.602Z</time></trkpt><trkpt lat="42.6239383" lon="12.3452617"><ele>713.8571428571429</ele><time>2026-04-17T13:55:48.602Z</time></trkpt><trkpt lat="42.62387" lon="12.3452583"><ele>712.1428571428571</ele><time>2026-04-17T13:55:49.602Z</time></trkpt><trkpt lat="42.623805" lon="12.3452367"><ele>710.4285714285714</ele><time>2026-04-17T13:55:50.602Z</time></trkpt><trkpt lat="42.6237417" lon="12.3452167"><ele>708.7142857142857</ele><time>2026-04-17T13:55:51.602Z</time></trkpt><trkpt lat="42.6236733" lon="12.3451983"><ele>707.0</ele><time>2026-04-17T13:55:52.601Z</time></trkpt><trkpt lat="42.6235533" lon="12.3451883"><ele>707.0</ele><time>2026-04-17T13:55:54.602Z</time></trkpt><trkpt lat="42.6234317" lon="12.3451817"><ele>707.0</ele><time>2026-04-17T13:55:56.602Z</time></trkpt><trkpt lat="42.6233117" lon="12.345145"><ele>707.0</ele><time>2026-04-17T13:55:58.602Z</time></trkpt><trkpt lat="42.6232433" lon="12.3450867"><ele>707.0</ele><time>2026-04-17T13:56:00.602Z</time></trkpt><trkpt lat="42.62323" lon="12.344995"><ele>707.0</ele><time>2026-04-17T13:56:02.601Z</time></trkpt><trkpt lat="42.6232317" lon="12.3448483"><ele>707.0</ele><time>2026-04-17T13:56:04.602Z</time></trkpt><trkpt lat="42.623235" lon="12.344735"><ele>707.0</ele><time>2026-04-17T13:56:06.602Z</time></trkpt><trkpt lat="42.6232417" lon="12.3446167"><ele>707.0</ele><time>2026-04-17T13:56:08.601Z</time></trkpt><trkpt lat="42.6232517" lon="12.3444817"><ele>707.0</ele><time>2026-04-17T13:56:10.601Z</time></trkpt><trkpt lat="42.6232517" lon="12.3443333"><ele>707.0</ele><time>2026-04-17T13:56:12.602Z</time></trkpt><trkpt lat="42.6232383" lon="12.3441633"><ele>704.8333333333333</ele><time>2026-04-17T13:56:14.602Z</time></trkpt><trkpt lat="42.62323" lon="12.3440633"><ele>702.6666666666666</ele><time>2026-04-17T13:56:15.602Z</time></trkpt><trkpt lat="42.62323" lon="12.3439533"><ele>700.5</ele><time>2026-04-17T13:56:16.602Z</time></trkpt><trkpt lat="42.6232267" lon="12.34385"><ele>698.3333333333334</ele><time>2026-04-17T13:56:17.602Z</time></trkpt><trkpt lat="42.6232217" lon="12.3437383"><ele>696.1666666666667</ele><time>2026-04-17T13:56:18.602Z</time></trkpt><trkpt lat="42.62322" lon="12.34362"><ele>694.0</ele><time>2026-04-17T13:56:19.602Z</time></trkpt><trkpt lat="42.623215" lon="12.3435033"><ele>692.4000000000001</ele><time>2026-04-17T13:56:20.602Z</time></trkpt><trkpt lat="42.6232133" lon="12.34338"><ele>690.8</ele><time>2026-04-17T13:56:21.602Z</time></trkpt><trkpt lat="42.6232233" lon="12.34325"><ele>689.2</ele><time>2026-04-17T13:56:22.602Z</time></trkpt><trkpt lat="42.623235" lon="12.3431117"><ele>687.5999999999999</ele><time>2026-04-17T13:56:23.601Z</time></trkpt><trkpt lat="42.623245" lon="12.34298"><ele>686.0</ele><time>2026-04-17T13:56:24.601Z</time></trkpt><trkpt lat="42.62326" lon="12.3428667"><ele>685.6666666666666</ele><time>2026-04-17T13:56:25.602Z</time></trkpt><trkpt lat="42.623275" lon="12.3427583"><ele>685.3333333333333</ele><time>2026-04-17T13:56:26.602Z</time></trkpt><trkpt lat="42.62329" lon="12.3426583"><ele>685.0</ele><time>2026-04-17T13:56:27.602Z</time></trkpt><trkpt lat="42.6233033" lon="12.3425717"><ele>684.6666666666666</ele><time>2026-04-17T13:56:28.602Z</time></trkpt><trkpt lat="42.6233067" lon="12.3424033"><ele>684.3333333333334</ele><time>2026-04-17T13:56:30.602Z</time></trkpt><trkpt lat="42.623305" lon="12.3423117"><ele>684.0</ele><time>2026-04-17T13:56:31.601Z</time></trkpt><trkpt lat="42.6232983" lon="12.342215"><ele>683.3333333333334</ele><time>2026-04-17T13:56:32.602Z</time></trkpt><trkpt lat="42.6232967" lon="12.342105"><ele>682.6666666666666</ele><time>2026-04-17T13:56:33.602Z</time></trkpt><trkpt lat="42.62329" lon="12.34197"><ele>682.0</ele><time>2026-04-17T13:56:34.602Z</time></trkpt><trkpt lat="42.6232817" lon="12.341845"><ele>681.3333333333333</ele><time>2026-04-17T13:56:35.602Z</time></trkpt><trkpt lat="42.6232817" lon="12.341715"><ele>680.6666666666666</ele><time>2026-04-17T13:56:36.601Z</time></trkpt><trkpt lat="42.62328" lon="12.341605"><ele>680.0</ele><time>2026-04-17T13:56:37.602Z</time></trkpt><trkpt lat="42.6232867" lon="12.3415017"><ele>680.0</ele><time>2026-04-17T13:56:38.601Z</time></trkpt><trkpt lat="42.6232967" lon="12.3414133"><ele>680.0</ele><time>2026-04-17T13:56:39.602Z</time></trkpt><trkpt lat="42.6233067" lon="12.341325"><ele>680.0</ele><time>2026-04-17T13:56:40.602Z</time></trkpt><trkpt lat="42.6233283" lon="12.34117"><ele>680.0</ele><time>2026-04-17T13:56:42.602Z</time></trkpt><trkpt lat="42.6233517" lon="12.3410033"><ele>680.0</ele><time>2026-04-17T13:56:44.602Z</time></trkpt><trkpt lat="42.62336" lon="12.3409183"><ele>680.0</ele><time>2026-04-17T13:56:45.602Z</time></trkpt><trkpt lat="42.623385" lon="12.34078"><ele>678.0</ele><time>2026-04-17T13:56:47.602Z</time></trkpt><trkpt lat="42.623395" lon="12.3406517"><ele>676.0</ele><time>2026-04-17T13:56:49.602Z</time></trkpt><trkpt lat="42.623375" lon="12.3405317"><ele>674.0</ele><time>2026-04-17T13:56:51.601Z</time></trkpt><trkpt lat="42.6233417" lon="12.340425"><ele>672.0</ele><time>2026-04-17T13:56:53.602Z</time></trkpt><trkpt lat="42.6232867" lon="12.3403283"><ele>670.0</ele><time>2026-04-17T13:56:55.602Z</time></trkpt><trkpt lat="42.6232067" lon="12.3402117"><ele>668.8</ele><time>2026-04-17T13:56:57.602Z</time></trkpt><trkpt lat="42.6231583" lon="12.3401533"><ele>667.6</ele><time>2026-04-17T13:56:58.602Z</time></trkpt><trkpt lat="42.623055" lon="12.3400633"><ele>666.4000000000001</ele><time>2026-04-17T13:57:00.602Z</time></trkpt><trkpt lat="42.6229517" lon="12.33999"><ele>665.2</ele><time>2026-04-17T13:57:02.602Z</time></trkpt><trkpt lat="42.6228517" lon="12.3399083"><ele>664.0</ele><time>2026-04-17T13:57:04.602Z</time></trkpt><trkpt lat="42.6227717" lon="12.3398417"><ele>664.0</ele><time>2026-04-17T13:57:06.601Z</time></trkpt><trkpt lat="42.6227017" lon="12.339785"><ele>664.0</ele><time>2026-04-17T13:57:08.602Z</time></trkpt><trkpt lat="42.6226317" lon="12.3397667"><ele>664.0</ele><time>2026-04-17T13:57:10.602Z</time></trkpt><trkpt lat="42.6225233" lon="12.3397283"><ele>664.0</ele><time>2026-04-17T13:57:12.602Z</time></trkpt><trkpt lat="42.6224567" lon="12.3396883"><ele>664.0</ele><time>2026-04-17T13:57:13.601Z</time></trkpt><trkpt lat="42.622395" lon="12.33966"><ele>664.0</ele><time>2026-04-17T13:57:14.602Z</time></trkpt><trkpt lat="42.6222867" lon="12.3396117"><ele>660.2</ele><time>2026-04-17T13:57:16.602Z</time></trkpt><trkpt lat="42.6221883" lon="12.3395633"><ele>656.4000000000001</ele><time>2026-04-17T13:57:18.601Z</time></trkpt><trkpt lat="42.6220733" lon="12.3394917"><ele>652.6</ele><time>2026-04-17T13:57:20.601Z</time></trkpt><trkpt lat="42.6219983" lon="12.339445"><ele>648.8</ele><time>2026-04-17T13:57:21.602Z</time></trkpt><trkpt lat="42.6219283" lon="12.3394167"><ele>645.0</ele><time>2026-04-17T13:57:22.601Z</time></trkpt><trkpt lat="42.621855" lon="12.3393833"><ele>645.0</ele><time>2026-04-17T13:57:23.602Z</time></trkpt><trkpt lat="42.62178" lon="12.339345"><ele>645.0</ele><time>2026-04-17T13:57:24.602Z</time></trkpt><trkpt lat="42.621705" lon="12.3393033"><ele>645.0</ele><time>2026-04-17T13:57:25.602Z</time></trkpt><trkpt lat="42.6216417" lon="12.3392567"><ele>645.0</ele><time>2026-04-17T13:57:26.601Z</time></trkpt><trkpt lat="42.621525" lon="12.3391967"><ele>645.0</ele><time>2026-04-17T13:57:28.601Z</time></trkpt><trkpt lat="42.62142" lon="12.3391483"><ele>645.0</ele><time>2026-04-17T13:57:30.602Z</time></trkpt><trkpt lat="42.6213383" lon="12.3390883"><ele>645.0</ele><time>2026-04-17T13:57:32.602Z</time></trkpt><trkpt lat="42.6212617" lon="12.33901"><ele>645.0</ele><time>2026-04-17T13:57:34.602Z</time></trkpt><trkpt lat="42.621205" lon="12.3389633"><ele>645.0</ele><time>2026-04-17T13:57:35.602Z</time></trkpt><trkpt lat="42.6211067" lon="12.3388983"><ele>645.0</ele><time>2026-04-17T13:57:37.602Z</time></trkpt><trkpt lat="42.6210367" lon="12.3388667"><ele>645.0</ele><time>2026-04-17T13:57:39.602Z</time></trkpt><trkpt lat="42.6209567" lon="12.3388433"><ele>645.0</ele><time>2026-04-17T13:57:41.602Z</time></trkpt><trkpt lat="42.620865" lon="12.3388217"><ele>645.0</ele><time>2026-04-17T13:57:43.602Z</time></trkpt><trkpt lat="42.6207667" lon="12.3388183"><ele>645.0</ele><time>2026-04-17T13:57:45.601Z</time></trkpt><trkpt lat="42.6206467" lon="12.3388783"><ele>645.0</ele><time>2026-04-17T13:57:47.602Z</time></trkpt><trkpt lat="42.6205717" lon="12.3389217"><ele>645.0</ele><time>2026-04-17T13:57:48.602Z</time></trkpt><trkpt lat="42.6204883" lon="12.3389717"><ele>645.0</ele><time>2026-04-17T13:57:49.602Z</time></trkpt><trkpt lat="42.6204017" lon="12.3390117"><ele>645.0</ele><time>2026-04-17T13:57:50.602Z</time></trkpt><trkpt lat="42.62033" lon="12.3390483"><ele>645.0</ele><time>2026-04-17T13:57:51.601Z</time></trkpt><trkpt lat="42.6202667" lon="12.33908"><ele>645.0</ele><time>2026-04-17T13:57:52.601Z</time></trkpt><trkpt lat="42.6201983" lon="12.3391167"><ele>645.0</ele><time>2026-04-17T13:57:53.602Z</time></trkpt><trkpt lat="42.6201267" lon="12.3391583"><ele>645.0</ele><time>2026-04-17T13:57:54.602Z</time></trkpt><trkpt lat="42.620045" lon="12.3392067"><ele>642.1666666666666</ele><time>2026-04-17T13:57:55.601Z</time></trkpt><trkpt lat="42.61996" lon="12.339255"><ele>639.3333333333334</ele><time>2026-04-17T13:57:56.602Z</time></trkpt><trkpt lat="42.6198833" lon="12.3392983"><ele>636.5</ele><time>2026-04-17T13:57:57.602Z</time></trkpt><trkpt lat="42.619815" lon="12.339335"><ele>633.6666666666667</ele><time>2026-04-17T13:57:58.602Z</time></trkpt><trkpt lat="42.619755" lon="12.3393783"><ele>630.8333333333334</ele><time>2026-04-17T13:57:59.602Z</time></trkpt><trkpt lat="42.61969" lon="12.339415"><ele>628.0</ele><time>2026-04-17T13:58:00.602Z</time></trkpt><trkpt lat="42.6196217" lon="12.3394533"><ele>628.0</ele><time>2026-04-17T13:58:01.601Z</time></trkpt><trkpt lat="42.6195433" lon="12.339485"><ele>628.0</ele><time>2026-04-17T13:58:02.601Z</time></trkpt><trkpt lat="42.6194633" lon="12.33951"><ele>628.0</ele><time>2026-04-17T13:58:03.602Z</time></trkpt><trkpt lat="42.6193783" lon="12.3395267"><ele>628.0</ele><time>2026-04-17T13:58:04.602Z</time></trkpt><trkpt lat="42.6192933" lon="12.3395383"><ele>628.0</ele><time>2026-04-17T13:58:05.602Z</time></trkpt><trkpt lat="42.61921" lon="12.3395517"><ele>628.0</ele><time>2026-04-17T13:58:06.602Z</time></trkpt><trkpt lat="42.6191233" lon="12.3395483"><ele>626.6666666666667</ele><time>2026-04-17T13:58:07.601Z</time></trkpt><trkpt lat="42.6190367" lon="12.33953"><ele>625.3333333333334</ele><time>2026-04-17T13:58:08.602Z</time></trkpt><trkpt lat="42.618955" lon="12.3395017"><ele>624.0</ele><time>2026-04-17T13:58:09.602Z</time></trkpt><trkpt lat="42.61887" lon="12.3394667"><ele>622.6666666666666</ele><time>2026-04-17T13:58:10.602Z</time></trkpt><trkpt lat="42.6187917" lon="12.3394383"><ele>621.3333333333333</ele><time>2026-04-17T13:58:11.602Z</time></trkpt><trkpt lat="42.6187067" lon="12.3394117"><ele>620.0</ele><time>2026-04-17T13:58:12.601Z</time></trkpt><trkpt lat="42.61863" lon="12.3393983"><ele>619.0</ele><time>2026-04-17T13:58:13.602Z</time></trkpt><trkpt lat="42.618555" lon="12.339385"><ele>618.0</ele><time>2026-04-17T13:58:14.602Z</time></trkpt><trkpt lat="42.6184817" lon="12.33937"><ele>617.0</ele><time>2026-04-17T13:58:15.602Z</time></trkpt><trkpt lat="42.6184117" lon="12.3393717"><ele>616.0</ele><time>2026-04-17T13:58:16.602Z</time></trkpt><trkpt lat="42.6183367" lon="12.3393633"><ele>615.0</ele><time>2026-04-17T13:58:17.601Z</time></trkpt><trkpt lat="42.6182667" lon="12.3393667"><ele>614.0</ele><time>2026-04-17T13:58:18.602Z</time></trkpt><trkpt lat="42.6181983" lon="12.3393833"><ele>613.0</ele><time>2026-04-17T13:58:19.602Z</time></trkpt><trkpt lat="42.6181317" lon="12.3394133"><ele>613.0</ele><time>2026-04-17T13:58:20.601Z</time></trkpt><trkpt lat="42.6180583" lon="12.33945"><ele>613.0</ele><time>2026-04-17T13:58:21.601Z</time></trkpt><trkpt lat="42.61798" lon="12.3394933"><ele>613.0</ele><time>2026-04-17T13:58:22.602Z</time></trkpt><trkpt lat="42.6179017" lon="12.3395317"><ele>613.0</ele><time>2026-04-17T13:58:23.602Z</time></trkpt><trkpt lat="42.61783" lon="12.339565"><ele>613.0</ele><time>2026-04-17T13:58:24.601Z</time></trkpt><trkpt lat="42.6177667" lon="12.3395867"><ele>613.0</ele><time>2026-04-17T13:58:25.602Z</time></trkpt><trkpt lat="42.6177033" lon="12.339605"><ele>612.1666666666667</ele><time>2026-04-17T13:58:26.602Z</time></trkpt><trkpt lat="42.6176333" lon="12.339615"><ele>611.3333333333334</ele><time>2026-04-17T13:58:27.602Z</time></trkpt><trkpt lat="42.6175617" lon="12.3396217"><ele>610.5</ele><time>2026-04-17T13:58:28.602Z</time></trkpt><trkpt lat="42.6174867" lon="12.3396433"><ele>609.6666666666666</ele><time>2026-04-17T13:58:29.602Z</time></trkpt><trkpt lat="42.6174183" lon="12.33967"><ele>608.8333333333333</ele><time>2026-04-17T13:58:30.602Z</time></trkpt><trkpt lat="42.617355" lon="12.3397033"><ele>608.0</ele><time>2026-04-17T13:58:31.602Z</time></trkpt><trkpt lat="42.6172533" lon="12.33975"><ele>611.0</ele><time>2026-04-17T13:58:33.602Z</time></trkpt><trkpt lat="42.61715" lon="12.3397783"><ele>614.0</ele><time>2026-04-17T13:58:35.602Z</time></trkpt><trkpt lat="42.617055" lon="12.33976"><ele>617.0</ele><time>2026-04-17T13:58:37.602Z</time></trkpt><trkpt lat="42.6169817" lon="12.33969"><ele>620.0</ele><time>2026-04-17T13:58:39.602Z</time></trkpt><trkpt lat="42.6169417" lon="12.3395483"><ele>623.0</ele><time>2026-04-17T13:58:41.602Z</time></trkpt><trkpt lat="42.6169383" lon="12.3394417"><ele>623.0</ele><time>2026-04-17T13:58:42.602Z</time></trkpt><trkpt lat="42.6169333" lon="12.339315"><ele>623.0</ele><time>2026-04-17T13:58:43.601Z</time></trkpt><trkpt lat="42.616925" lon="12.3391983"><ele>623.0</ele><time>2026-04-17T13:58:44.602Z</time></trkpt><trkpt lat="42.6169117" lon="12.3390767"><ele>623.0</ele><time>2026-04-17T13:58:45.602Z</time></trkpt><trkpt lat="42.6168717" lon="12.3389217"><ele>623.0</ele><time>2026-04-17T13:58:46.602Z</time></trkpt><trkpt lat="42.6168283" lon="12.33877"><ele>621.5</ele><time>2026-04-17T13:58:47.602Z</time></trkpt><trkpt lat="42.6167817" lon="12.338625"><ele>620.0</ele><time>2026-04-17T13:58:48.602Z</time></trkpt><trkpt lat="42.616745" lon="12.3384883"><ele>618.5</ele><time>2026-04-17T13:58:49.602Z</time></trkpt><trkpt lat="42.61672" lon="12.3383317"><ele>617.0</ele><time>2026-04-17T13:58:50.602Z</time></trkpt><trkpt lat="42.6167017" lon="12.3381533"><ele>616.4</ele><time>2026-04-17T13:58:51.602Z</time></trkpt><trkpt lat="42.6166917" lon="12.3379867"><ele>615.8000000000001</ele><time>2026-04-17T13:58:52.602Z</time></trkpt><trkpt lat="42.6166783" lon="12.3378417"><ele>615.2</ele><time>2026-04-17T13:58:53.601Z</time></trkpt><trkpt lat="42.61667" lon="12.3377267"><ele>614.6</ele><time>2026-04-17T13:58:54.602Z</time></trkpt><trkpt lat="42.616665" lon="12.3375617"><ele>614.0</ele><time>2026-04-17T13:58:56.602Z</time></trkpt><trkpt lat="42.61664" lon="12.3374267"><ele>614.0</ele><time>2026-04-17T13:58:58.601Z</time></trkpt><trkpt lat="42.616635" lon="12.33733"><ele>614.0</ele><time>2026-04-17T13:59:00.601Z</time></trkpt><trkpt lat="42.6166717" lon="12.337235"><ele>614.0</ele><time>2026-04-17T13:59:03.601Z</time></trkpt><trkpt lat="42.6167533" lon="12.3372183"><ele>614.0</ele><time>2026-04-17T13:59:06.601Z</time></trkpt><trkpt lat="42.61681" lon="12.3372583"><ele>614.0</ele><time>2026-04-17T13:59:08.602Z</time></trkpt><trkpt lat="42.6168583" lon="12.3373367"><ele>614.0</ele><time>2026-04-17T13:59:10.602Z</time></trkpt><trkpt lat="42.6168867" lon="12.3374533"><ele>614.0</ele><time>2026-04-17T13:59:13.601Z</time></trkpt><trkpt lat="42.61691" lon="12.3375483"><ele>614.0</ele><time>2026-04-17T13:59:15.601Z</time></trkpt><trkpt lat="42.6169317" lon="12.3376617"><ele>614.0</ele><time>2026-04-17T13:59:17.602Z</time></trkpt><trkpt lat="42.61696" lon="12.33779"><ele>614.0</ele><time>2026-04-17T13:59:19.602Z</time></trkpt><trkpt lat="42.6169767" lon="12.3378817"><ele>614.0</ele><time>2026-04-17T13:59:20.602Z</time></trkpt><trkpt lat="42.6169933" lon="12.33797"><ele>614.0</ele><time>2026-04-17T13:59:21.602Z</time></trkpt><trkpt lat="42.61701" lon="12.3380567"><ele>611.0</ele><time>2026-04-17T13:59:22.602Z</time></trkpt><trkpt lat="42.617025" lon="12.3381433"><ele>608.0</ele><time>2026-04-17T13:59:23.602Z</time></trkpt><trkpt lat="42.617045" lon="12.3382383"><ele>605.0</ele><time>2026-04-17T13:59:24.602Z</time></trkpt><trkpt lat="42.6170717" lon="12.3383383"><ele>602.0</ele><time>2026-04-17T13:59:25.602Z</time></trkpt><trkpt lat="42.6171117" lon="12.3384417"><ele>599.0</ele><time>2026-04-17T13:59:26.601Z</time></trkpt><trkpt lat="42.6171517" lon="12.3385417"><ele>596.0</ele><time>2026-04-17T13:59:27.602Z</time></trkpt><trkpt lat="42.6171933" lon="12.3386267"><ele>596.0</ele><time>2026-04-17T13:59:28.602Z</time></trkpt><trkpt lat="42.61724" lon="12.3386883"><ele>596.0</ele><time>2026-04-17T13:59:29.601Z</time></trkpt><trkpt lat="42.6173333" lon="12.338785"><ele>596.0</ele><time>2026-04-17T13:59:31.601Z</time></trkpt><trkpt lat="42.617435" lon="12.3388033"><ele>596.0</ele><time>2026-04-17T13:59:33.601Z</time></trkpt><trkpt lat="42.61754" lon="12.3387817"><ele>596.0</ele><time>2026-04-17T13:59:35.601Z</time></trkpt><trkpt lat="42.6176033" lon="12.3387467"><ele>596.0</ele><time>2026-04-17T13:59:36.602Z</time></trkpt><trkpt lat="42.6176767" lon="12.3386983"><ele>596.0</ele><time>2026-04-17T13:59:37.602Z</time></trkpt><trkpt lat="42.6177433" lon="12.3386433"><ele>596.0</ele><time>2026-04-17T13:59:38.602Z</time></trkpt><trkpt lat="42.6178233" lon="12.3385817"><ele>596.0</ele><time>2026-04-17T13:59:39.601Z</time></trkpt><trkpt lat="42.61789" lon="12.3385383"><ele>596.0</ele><time>2026-04-17T13:59:40.602Z</time></trkpt><trkpt lat="42.6179517" lon="12.338515"><ele>596.0</ele><time>2026-04-17T13:59:41.601Z</time></trkpt><trkpt lat="42.6180833" lon="12.3384667"><ele>594.8</ele><time>2026-04-17T13:59:43.602Z</time></trkpt><trkpt lat="42.6181633" lon="12.338445"><ele>593.6</ele><time>2026-04-17T13:59:44.601Z</time></trkpt><trkpt lat="42.6182567" lon="12.3384167"><ele>592.4</ele><time>2026-04-17T13:59:45.602Z</time></trkpt><trkpt lat="42.6183533" lon="12.338395"><ele>591.2</ele><time>2026-04-17T13:59:46.602Z</time></trkpt><trkpt lat="42.618445" lon="12.33838"><ele>590.0</ele><time>2026-04-17T13:59:47.602Z</time></trkpt><trkpt lat="42.618535" lon="12.338355"><ele>590.0</ele><time>2026-04-17T13:59:48.602Z</time></trkpt><trkpt lat="42.618615" lon="12.3383383"><ele>590.0</ele><time>2026-04-17T13:59:49.602Z</time></trkpt><trkpt lat="42.6186917" lon="12.3383267"><ele>590.0</ele><time>2026-04-17T13:59:50.602Z</time></trkpt><trkpt lat="42.6187583" lon="12.33831"><ele>590.0</ele><time>2026-04-17T13:59:51.601Z</time></trkpt><trkpt lat="42.6188283" lon="12.3383017"><ele>590.0</ele><time>2026-04-17T13:59:52.602Z</time></trkpt><trkpt lat="42.6188917" lon="12.3382883"><ele>590.0</ele><time>2026-04-17T13:59:53.602Z</time></trkpt><trkpt lat="42.619005" lon="12.33826"><ele>590.4</ele><time>2026-04-17T13:59:55.602Z</time></trkpt><trkpt lat="42.61908" lon="12.3382183"><ele>590.8</ele><time>2026-04-17T13:59:57.601Z</time></trkpt><trkpt lat="42.6190983" lon="12.3381017"><ele>591.2</ele><time>2026-04-17T14:00:00.602Z</time></trkpt><trkpt lat="42.619055" lon="12.3380067"><ele>591.6</ele><time>2026-04-17T14:00:02.602Z</time></trkpt><trkpt lat="42.618965" lon="12.3379767"><ele>592.0</ele><time>2026-04-17T14:00:04.601Z</time></trkpt><trkpt lat="42.6188467" lon="12.3379683"><ele>589.1666666666667</ele><time>2026-04-17T14:00:06.601Z</time></trkpt><trkpt lat="42.618735" lon="12.3379533"><ele>586.3333333333334</ele><time>2026-04-17T14:00:08.602Z</time></trkpt><trkpt lat="42.6186733" lon="12.3379267"><ele>583.5</ele><time>2026-04-17T14:00:09.601Z</time></trkpt><trkpt lat="42.618555" lon="12.337865"><ele>580.6666666666666</ele><time>2026-04-17T14:00:11.602Z</time></trkpt><trkpt lat="42.618495" lon="12.337835"><ele>577.8333333333333</ele><time>2026-04-17T14:00:12.602Z</time></trkpt><trkpt lat="42.6184333" lon="12.337805"><ele>575.0</ele><time>2026-04-17T14:00:13.602Z</time></trkpt><trkpt lat="42.61837" lon="12.3377767"><ele>575.0</ele><time>2026-04-17T14:00:14.602Z</time></trkpt><trkpt lat="42.6183067" lon="12.3377467"><ele>575.0</ele><time>2026-04-17T14:00:15.602Z</time></trkpt><trkpt lat="42.61819" lon="12.3377133"><ele>575.0</ele><time>2026-04-17T14:00:17.602Z</time></trkpt><trkpt lat="42.61811" lon="12.3376683"><ele>575.0</ele><time>2026-04-17T14:00:19.602Z</time></trkpt><trkpt lat="42.618055" lon="12.3375883"><ele>575.0</ele><time>2026-04-17T14:00:21.602Z</time></trkpt><trkpt lat="42.618055" lon="12.3374817"><ele>575.0</ele><time>2026-04-17T14:00:23.601Z</time></trkpt><trkpt lat="42.6180883" lon="12.337375"><ele>575.0</ele><time>2026-04-17T14:00:25.602Z</time></trkpt><trkpt lat="42.6181717" lon="12.33728"><ele>575.0</ele><time>2026-04-17T14:00:27.601Z</time></trkpt><trkpt lat="42.6182817" lon="12.3372017"><ele>575.0</ele><time>2026-04-17T14:00:29.602Z</time></trkpt><trkpt lat="42.6183867" lon="12.337115"><ele>575.0</ele><time>2026-04-17T14:00:31.602Z</time></trkpt><trkpt lat="42.6184583" lon="12.3370083"><ele>574.6666666666666</ele><time>2026-04-17T14:00:33.602Z</time></trkpt><trkpt lat="42.6185117" lon="12.33692"><ele>574.3333333333333</ele><time>2026-04-17T14:00:35.601Z</time></trkpt><trkpt lat="42.6185833" lon="12.3368083"><ele>574.0</ele><time>2026-04-17T14:00:37.602Z</time></trkpt><trkpt lat="42.6186267" lon="12.3367333"><ele>573.6666666666666</ele><time>2026-04-17T14:00:38.6Z</time></trkpt><trkpt lat="42.6186717" lon="12.3366517"><ele>573.3333333333334</ele><time>2026-04-17T14:00:39.601Z</time></trkpt><trkpt lat="42.6187233" lon="12.3365783"><ele>573.0</ele><time>2026-04-17T14:00:40.601Z</time></trkpt><trkpt lat="42.6187767" lon="12.3364933"><ele>571.1666666666666</ele><time>2026-04-17T14:00:41.601Z</time></trkpt><trkpt lat="42.6188283" lon="12.3364033"><ele>569.3333333333334</ele><time>2026-04-17T14:00:42.601Z</time></trkpt><trkpt lat="42.6188817" lon="12.3363117"><ele>567.5</ele><time>2026-04-17T14:00:43.601Z</time></trkpt><trkpt lat="42.6189417" lon="12.3362233"><ele>565.6666666666667</ele><time>2026-04-17T14:00:44.601Z</time></trkpt><trkpt lat="42.6190067" lon="12.3361433"><ele>563.8333333333334</ele><time>2026-04-17T14:00:45.601Z</time></trkpt><trkpt lat="42.6190767" lon="12.336065"><ele>562.0</ele><time>2026-04-17T14:00:46.601Z</time></trkpt><trkpt lat="42.6191433" lon="12.3359833"><ele>561.6</ele><time>2026-04-17T14:00:47.6Z</time></trkpt><trkpt lat="42.6192167" lon="12.3358933"><ele>561.2</ele><time>2026-04-17T14:00:48.601Z</time></trkpt><trkpt lat="42.6193017" lon="12.3357933"><ele>560.8</ele><time>2026-04-17T14:00:49.601Z</time></trkpt><trkpt lat="42.619375" lon="12.3357"><ele>560.4</ele><time>2026-04-17T14:00:50.601Z</time></trkpt><trkpt lat="42.6194333" lon="12.335605"><ele>560.0</ele><time>2026-04-17T14:00:51.601Z</time></trkpt><trkpt lat="42.61948" lon="12.3355117"><ele>557.6666666666666</ele><time>2026-04-17T14:00:52.601Z</time></trkpt><trkpt lat="42.61953" lon="12.33543"><ele>555.3333333333333</ele><time>2026-04-17T14:00:53.601Z</time></trkpt><trkpt lat="42.61958" lon="12.335365"><ele>553.0</ele><time>2026-04-17T14:00:54.601Z</time></trkpt><trkpt lat="42.6196433" lon="12.3353133"><ele>550.6666666666666</ele><time>2026-04-17T14:00:55.6Z</time></trkpt><trkpt lat="42.6197183" lon="12.3352517"><ele>548.3333333333334</ele><time>2026-04-17T14:00:56.6Z</time></trkpt><trkpt lat="42.6197917" lon="12.335175"><ele>546.0</ele><time>2026-04-17T14:00:57.601Z</time></trkpt><trkpt lat="42.619865" lon="12.3350767"><ele>546.0</ele><time>2026-04-17T14:00:58.601Z</time></trkpt><trkpt lat="42.61994" lon="12.3349567"><ele>546.0</ele><time>2026-04-17T14:00:59.601Z</time></trkpt><trkpt lat="42.6200083" lon="12.33484"><ele>546.0</ele><time>2026-04-17T14:01:00.6Z</time></trkpt><trkpt lat="42.62006" lon="12.3347483"><ele>546.0</ele><time>2026-04-17T14:01:01.6Z</time></trkpt><trkpt lat="42.6201183" lon="12.33467"><ele>546.0</ele><time>2026-04-17T14:01:02.601Z</time></trkpt><trkpt lat="42.6201917" lon="12.3345967"><ele>547.6666666666666</ele><time>2026-04-17T14:01:03.601Z</time></trkpt><trkpt lat="42.620275" lon="12.334525"><ele>549.3333333333334</ele><time>2026-04-17T14:01:04.6Z</time></trkpt><trkpt lat="42.6203467" lon="12.33445"><ele>551.0</ele><time>2026-04-17T14:01:05.6Z</time></trkpt><trkpt lat="42.6204117" lon="12.3343767"><ele>552.6666666666667</ele><time>2026-04-17T14:01:06.601Z</time></trkpt><trkpt lat="42.62047" lon="12.3342983"><ele>554.3333333333334</ele><time>2026-04-17T14:01:07.601Z</time></trkpt><trkpt lat="42.6205233" lon="12.334225"><ele>556.0</ele><time>2026-04-17T14:01:08.601Z</time></trkpt><trkpt lat="42.6205717" lon="12.334155"><ele>552.0</ele><time>2026-04-17T14:01:09.6Z</time></trkpt><trkpt lat="42.6206683" lon="12.3340433"><ele>548.0</ele><time>2026-04-17T14:01:11.601Z</time></trkpt><trkpt lat="42.6207567" lon="12.3339583"><ele>544.0</ele><time>2026-04-17T14:01:13.601Z</time></trkpt><trkpt lat="42.6208283" lon="12.33389"><ele>540.0</ele><time>2026-04-17T14:01:15.6Z</time></trkpt><trkpt lat="42.6209067" lon="12.3338317"><ele>536.0</ele><time>2026-04-17T14:01:17.6Z</time></trkpt><trkpt lat="42.6209983" lon="12.3337667"><ele>536.0</ele><time>2026-04-17T14:01:19.601Z</time></trkpt><trkpt lat="42.62108" lon="12.333685"><ele>536.0</ele><time>2026-04-17T14:01:21.601Z</time></trkpt><trkpt lat="42.6211733" lon="12.3336283"><ele>536.0</ele><time>2026-04-17T14:01:23.601Z</time></trkpt><trkpt lat="42.6212783" lon="12.3335867"><ele>536.0</ele><time>2026-04-17T14:01:25.601Z</time></trkpt><trkpt lat="42.6213717" lon="12.3335733"><ele>536.0</ele><time>2026-04-17T14:01:27.601Z</time></trkpt><trkpt lat="42.6214833" lon="12.33356"><ele>531.2</ele><time>2026-04-17T14:01:29.601Z</time></trkpt><trkpt lat="42.6215967" lon="12.3335283"><ele>526.4000000000001</ele><time>2026-04-17T14:01:31.6Z</time></trkpt><trkpt lat="42.621685" lon="12.3334633"><ele>521.6</ele><time>2026-04-17T14:01:33.601Z</time></trkpt><trkpt lat="42.62179" lon="12.3333583"><ele>516.8000000000001</ele><time>2026-04-17T14:01:35.6Z</time></trkpt><trkpt lat="42.6218483" lon="12.33329"><ele>512.0</ele><time>2026-04-17T14:01:36.6Z</time></trkpt><trkpt lat="42.6219083" lon="12.3332033"><ele>512.0</ele><time>2026-04-17T14:01:37.601Z</time></trkpt><trkpt lat="42.62196" lon="12.333135"><ele>512.0</ele><time>2026-04-17T14:01:38.6Z</time></trkpt><trkpt lat="42.62203" lon="12.3330117"><ele>512.0</ele><time>2026-04-17T14:01:40.6Z</time></trkpt><trkpt lat="42.622075" lon="12.332895"><ele>512.0</ele><time>2026-04-17T14:01:42.601Z</time></trkpt><trkpt lat="42.62213" lon="12.3327867"><ele>512.0</ele><time>2026-04-17T14:01:44.601Z</time></trkpt><trkpt lat="42.6222017" lon="12.332705"><ele>511.0</ele><time>2026-04-17T14:01:46.6Z</time></trkpt><trkpt lat="42.6222917" lon="12.3325817"><ele>510.00000000000006</ele><time>2026-04-17T14:01:48.601Z</time></trkpt><trkpt lat="42.6223333" lon="12.33249"><ele>509.00000000000006</ele><time>2026-04-17T14:01:49.6Z</time></trkpt><trkpt lat="42.6223783" lon="12.3323933"><ele>508.0</ele><time>2026-04-17T14:01:50.601Z</time></trkpt><trkpt lat="42.6224367" lon="12.3322917"><ele>507.0</ele><time>2026-04-17T14:01:51.6Z</time></trkpt><trkpt lat="42.6225033" lon="12.3321967"><ele>506.5</ele><time>2026-04-17T14:01:52.6Z</time></trkpt><trkpt lat="42.6225667" lon="12.3320967"><ele>506.0</ele><time>2026-04-17T14:01:53.601Z</time></trkpt><trkpt lat="42.6226233" lon="12.3320133"><ele>505.5</ele><time>2026-04-17T14:01:54.6Z</time></trkpt><trkpt lat="42.6226783" lon="12.3319333"><ele>505.0</ele><time>2026-04-17T14:01:55.6Z</time></trkpt><trkpt lat="42.622735" lon="12.3318617"><ele>504.5</ele><time>2026-04-17T14:01:56.601Z</time></trkpt><trkpt lat="42.6227833" lon="12.3317833"><ele>504.0</ele><time>2026-04-17T14:01:57.601Z</time></trkpt><trkpt lat="42.62282" lon="12.331705"><ele>505.1666666666667</ele><time>2026-04-17T14:01:58.601Z</time></trkpt><trkpt lat="42.6228533" lon="12.3316217"><ele>506.33333333333337</ele><time>2026-04-17T14:01:59.6Z</time></trkpt><trkpt lat="42.6229117" lon="12.3314683"><ele>507.5</ele><time>2026-04-17T14:02:01.6Z</time></trkpt><trkpt lat="42.6229383" lon="12.331385"><ele>508.6666666666667</ele><time>2026-04-17T14:02:02.601Z</time></trkpt><trkpt lat="42.6229667" lon="12.3312917"><ele>509.83333333333337</ele><time>2026-04-17T14:02:03.601Z</time></trkpt><trkpt lat="42.6229867" lon="12.3311833"><ele>511.0</ele><time>2026-04-17T14:02:04.601Z</time></trkpt><trkpt lat="42.6229983" lon="12.3310783"><ele>511.00000000000006</ele><time>2026-04-17T14:02:05.601Z</time></trkpt><trkpt lat="42.6230117" lon="12.3309633"><ele>511.0</ele><time>2026-04-17T14:02:06.601Z</time></trkpt><trkpt lat="42.6230167" lon="12.330845"><ele>511.0</ele><time>2026-04-17T14:02:07.601Z</time></trkpt><trkpt lat="42.6230233" lon="12.3307433"><ele>511.0</ele><time>2026-04-17T14:02:08.601Z</time></trkpt><trkpt lat="42.6230367" lon="12.3306517"><ele>511.00000000000006</ele><time>2026-04-17T14:02:09.601Z</time></trkpt><trkpt lat="42.62306" lon="12.3304933"><ele>511.0</ele><time>2026-04-17T14:02:11.6Z</time></trkpt><trkpt lat="42.6230617" lon="12.3303867"><ele>511.33333333333337</ele><time>2026-04-17T14:02:13.601Z</time></trkpt><trkpt lat="42.623005" lon="12.33028"><ele>511.6666666666667</ele><time>2026-04-17T14:02:15.601Z</time></trkpt><trkpt lat="42.62295" lon="12.33022"><ele>512.0</ele><time>2026-04-17T14:02:16.601Z</time></trkpt><trkpt lat="42.6229067" lon="12.3301517"><ele>512.3333333333334</ele><time>2026-04-17T14:02:17.601Z</time></trkpt><trkpt lat="42.62286" lon="12.3300567"><ele>512.6666666666666</ele><time>2026-04-17T14:02:18.6Z</time></trkpt><trkpt lat="42.62281" lon="12.3299683"><ele>513.0</ele><time>2026-04-17T14:02:19.601Z</time></trkpt><trkpt lat="42.6227667" lon="12.329885"><ele>510.0</ele><time>2026-04-17T14:02:20.601Z</time></trkpt><trkpt lat="42.62271" lon="12.3297333"><ele>507.0</ele><time>2026-04-17T14:02:22.601Z</time></trkpt><trkpt lat="42.6226817" lon="12.3296467"><ele>504.0</ele><time>2026-04-17T14:02:23.6Z</time></trkpt><trkpt lat="42.6226617" lon="12.3295517"><ele>501.0</ele><time>2026-04-17T14:02:24.601Z</time></trkpt><trkpt lat="42.6226417" lon="12.329455"><ele>498.0</ele><time>2026-04-17T14:02:25.601Z</time></trkpt><trkpt lat="42.622625" lon="12.3293583"><ele>495.0</ele><time>2026-04-17T14:02:26.601Z</time></trkpt><trkpt lat="42.6226067" lon="12.3292667"><ele>494.8333333333333</ele><time>2026-04-17T14:02:27.601Z</time></trkpt><trkpt lat="42.6225633" lon="12.3291017"><ele>494.66666666666663</ele><time>2026-04-17T14:02:29.601Z</time></trkpt><trkpt lat="42.622535" lon="12.3290117"><ele>494.5</ele><time>2026-04-17T14:02:30.6Z</time></trkpt><trkpt lat="42.62249" lon="12.32892"><ele>494.3333333333333</ele><time>2026-04-17T14:02:31.601Z</time></trkpt><trkpt lat="42.6224483" lon="12.32884"><ele>494.16666666666663</ele><time>2026-04-17T14:02:32.601Z</time></trkpt><trkpt lat="42.622405" lon="12.3287667"><ele>494.0</ele><time>2026-04-17T14:02:33.6Z</time></trkpt><trkpt lat="42.6223733" lon="12.3286817"><ele>493.8333333333333</ele><time>2026-04-17T14:02:34.601Z</time></trkpt><trkpt lat="42.622355" lon="12.328585"><ele>493.66666666666663</ele><time>2026-04-17T14:02:35.6Z</time></trkpt><trkpt lat="42.6223283" lon="12.328475"><ele>493.5</ele><time>2026-04-17T14:02:36.6Z</time></trkpt><trkpt lat="42.6223017" lon="12.3283717"><ele>493.33333333333337</ele><time>2026-04-17T14:02:37.601Z</time></trkpt><trkpt lat="42.6222833" lon="12.32828"><ele>493.1666666666667</ele><time>2026-04-17T14:02:38.601Z</time></trkpt><trkpt lat="42.6222583" lon="12.3281917"><ele>493.0</ele><time>2026-04-17T14:02:39.601Z</time></trkpt><trkpt lat="42.62223" lon="12.3280983"><ele>492.6666666666667</ele><time>2026-04-17T14:02:40.601Z</time></trkpt><trkpt lat="42.622195" lon="12.3280033"><ele>492.33333333333337</ele><time>2026-04-17T14:02:41.601Z</time></trkpt><trkpt lat="42.622175" lon="12.3279217"><ele>492.0</ele><time>2026-04-17T14:02:42.601Z</time></trkpt><trkpt lat="42.6221667" lon="12.3277717"><ele>491.66666666666663</ele><time>2026-04-17T14:02:44.601Z</time></trkpt><trkpt lat="42.622175" lon="12.3276833"><ele>491.3333333333333</ele><time>2026-04-17T14:02:45.601Z</time></trkpt><trkpt lat="42.6221933" lon="12.3275867"><ele>491.0</ele><time>2026-04-17T14:02:46.601Z</time></trkpt><trkpt lat="42.622215" lon="12.3274867"><ele>490.99999999999994</ele><time>2026-04-17T14:02:47.601Z</time></trkpt><trkpt lat="42.6222467" lon="12.3273817"><ele>491.0</ele><time>2026-04-17T14:02:48.601Z</time></trkpt><trkpt lat="42.6222667" lon="12.32728"><ele>491.0</ele><time>2026-04-17T14:02:49.601Z</time></trkpt><trkpt lat="42.6222767" lon="12.32718"><ele>491.0</ele><time>2026-04-17T14:02:50.6Z</time></trkpt><trkpt lat="42.6222867" lon="12.3270633"><ele>490.99999999999994</ele><time>2026-04-17T14:02:51.6Z</time></trkpt><trkpt lat="42.6223017" lon="12.326955"><ele>491.0</ele><time>2026-04-17T14:02:52.6Z</time></trkpt><trkpt lat="42.6223183" lon="12.326855"><ele>489.0</ele><time>2026-04-17T14:02:53.601Z</time></trkpt><trkpt lat="42.622345" lon="12.32676"><ele>487.0</ele><time>2026-04-17T14:02:54.6Z</time></trkpt><trkpt lat="42.6223833" lon="12.326645"><ele>485.0</ele><time>2026-04-17T14:02:55.6Z</time></trkpt><trkpt lat="42.6224283" lon="12.326515"><ele>483.0</ele><time>2026-04-17T14:02:56.601Z</time></trkpt><trkpt lat="42.6224767" lon="12.32638"><ele>481.0</ele><time>2026-04-17T14:02:57.601Z</time></trkpt><trkpt lat="42.622525" lon="12.3262367"><ele>479.83333333333337</ele><time>2026-04-17T14:02:58.601Z</time></trkpt><trkpt lat="42.6225733" lon="12.326115"><ele>478.6666666666667</ele><time>2026-04-17T14:02:59.6Z</time></trkpt><trkpt lat="42.6226133" lon="12.3260067"><ele>477.5</ele><time>2026-04-17T14:03:00.6Z</time></trkpt><trkpt lat="42.6226533" lon="12.3259233"><ele>476.33333333333337</ele><time>2026-04-17T14:03:01.601Z</time></trkpt><trkpt lat="42.6226933" lon="12.3258533"><ele>475.1666666666667</ele><time>2026-04-17T14:03:02.601Z</time></trkpt><trkpt lat="42.6227367" lon="12.3257833"><ele>474.0</ele><time>2026-04-17T14:03:03.6Z</time></trkpt><trkpt lat="42.622785" lon="12.32572"><ele>473.2857142857142</ele><time>2026-04-17T14:03:04.601Z</time></trkpt><trkpt lat="42.6228367" lon="12.325655"><ele>472.57142857142856</ele><time>2026-04-17T14:03:05.6Z</time></trkpt><trkpt lat="42.6228867" lon="12.32559"><ele>471.85714285714283</ele><time>2026-04-17T14:03:06.601Z</time></trkpt><trkpt lat="42.6229283" lon="12.325525"><ele>471.1428571428571</ele><time>2026-04-17T14:03:07.601Z</time></trkpt><trkpt lat="42.62297" lon="12.3254533"><ele>470.42857142857144</ele><time>2026-04-17T14:03:08.6Z</time></trkpt><trkpt lat="42.6230133" lon="12.325365"><ele>469.7142857142857</ele><time>2026-04-17T14:03:09.6Z</time></trkpt><trkpt lat="42.6230583" lon="12.325275"><ele>469.0</ele><time>2026-04-17T14:03:10.601Z</time></trkpt><trkpt lat="42.6230933" lon="12.325175"><ele>469.00000000000006</ele><time>2026-04-17T14:03:11.601Z</time></trkpt><trkpt lat="42.62313" lon="12.325085"><ele>469.0</ele><time>2026-04-17T14:03:12.6Z</time></trkpt><trkpt lat="42.6231733" lon="12.3250083"><ele>469.0</ele><time>2026-04-17T14:03:13.601Z</time></trkpt><trkpt lat="42.6232267" lon="12.3249233"><ele>469.0</ele><time>2026-04-17T14:03:14.601Z</time></trkpt><trkpt lat="42.62329" lon="12.3248333"><ele>469.00000000000006</ele><time>2026-04-17T14:03:15.601Z</time></trkpt><trkpt lat="42.62336" lon="12.3247383"><ele>469.0</ele><time>2026-04-17T14:03:16.601Z</time></trkpt><trkpt lat="42.623435" lon="12.324655"><ele>468.0</ele><time>2026-04-17T14:03:17.601Z</time></trkpt><trkpt lat="42.6234983" lon="12.3245683"><ele>467.0</ele><time>2026-04-17T14:03:18.601Z</time></trkpt><trkpt lat="42.6235617" lon="12.32447"><ele>466.0</ele><time>2026-04-17T14:03:19.6Z</time></trkpt><trkpt lat="42.623625" lon="12.32437"><ele>465.0</ele><time>2026-04-17T14:03:20.601Z</time></trkpt><trkpt lat="42.6236867" lon="12.324285"><ele>464.0</ele><time>2026-04-17T14:03:21.601Z</time></trkpt><trkpt lat="42.6237467" lon="12.324215"><ele>463.99999999999994</ele><time>2026-04-17T14:03:22.6Z</time></trkpt><trkpt lat="42.6237983" lon="12.3241517"><ele>464.0</ele><time>2026-04-17T14:03:23.601Z</time></trkpt><trkpt lat="42.6239083" lon="12.32406"><ele>464.0</ele><time>2026-04-17T14:03:25.601Z</time></trkpt><trkpt lat="42.623975" lon="12.324005"><ele>464.0</ele><time>2026-04-17T14:03:26.6Z</time></trkpt><trkpt lat="42.6240367" lon="12.323935"><ele>463.99999999999994</ele><time>2026-04-17T14:03:27.6Z</time></trkpt><trkpt lat="42.6241017" lon="12.3238567"><ele>464.0</ele><time>2026-04-17T14:03:28.6Z</time></trkpt><trkpt lat="42.6241683" lon="12.3237683"><ele>461.6</ele><time>2026-04-17T14:03:29.601Z</time></trkpt><trkpt lat="42.6242383" lon="12.32369"><ele>459.2</ele><time>2026-04-17T14:03:30.601Z</time></trkpt><trkpt lat="42.6243033" lon="12.3236017"><ele>456.80000000000007</ele><time>2026-04-17T14:03:31.601Z</time></trkpt><trkpt lat="42.62437" lon="12.3235183"><ele>454.40000000000003</ele><time>2026-04-17T14:03:32.601Z</time></trkpt><trkpt lat="42.6244383" lon="12.3234317"><ele>452.0</ele><time>2026-04-17T14:03:33.601Z</time></trkpt><trkpt lat="42.62451" lon="12.32335"><ele>452.0</ele><time>2026-04-17T14:03:34.601Z</time></trkpt><trkpt lat="42.62459" lon="12.323265"><ele>452.00000000000006</ele><time>2026-04-17T14:03:35.601Z</time></trkpt><trkpt lat="42.6246717" lon="12.3231783"><ele>452.00000000000006</ele><time>2026-04-17T14:03:36.6Z</time></trkpt><trkpt lat="42.6247533" lon="12.3231067"><ele>452.0</ele><time>2026-04-17T14:03:37.601Z</time></trkpt><trkpt lat="42.6248183" lon="12.32303"><ele>452.0</ele><time>2026-04-17T14:03:38.601Z</time></trkpt><trkpt lat="42.624875" lon="12.3229383"><ele>450.49999999999994</ele><time>2026-04-17T14:03:39.6Z</time></trkpt><trkpt lat="42.6249267" lon="12.3228433"><ele>449.0</ele><time>2026-04-17T14:03:40.6Z</time></trkpt><trkpt lat="42.6249717" lon="12.32274"><ele>447.5</ele><time>2026-04-17T14:03:41.601Z</time></trkpt><trkpt lat="42.6250133" lon="12.322645"><ele>446.0</ele><time>2026-04-17T14:03:42.601Z</time></trkpt><trkpt lat="42.6250533" lon="12.3225583"><ele>444.49999999999994</ele><time>2026-04-17T14:03:43.601Z</time></trkpt><trkpt lat="42.6250983" lon="12.32249"><ele>443.0</ele><time>2026-04-17T14:03:44.6Z</time></trkpt><trkpt lat="42.62517" lon="12.322395"><ele>442.99999999999994</ele><time>2026-04-17T14:03:46.601Z</time></trkpt><trkpt lat="42.6252267" lon="12.3223117"><ele>443.0</ele><time>2026-04-17T14:03:49.6Z</time></trkpt><trkpt lat="42.6252833" lon="12.32227"><ele>443.0</ele><time>2026-04-17T14:03:51.601Z</time></trkpt><trkpt lat="42.625375" lon="12.322225"><ele>443.0</ele><time>2026-04-17T14:03:53.601Z</time></trkpt><trkpt lat="42.62544" lon="12.32219"><ele>442.99999999999994</ele><time>2026-04-17T14:03:54.601Z</time></trkpt><trkpt lat="42.6255033" lon="12.3221483"><ele>443.0</ele><time>2026-04-17T14:03:55.601Z</time></trkpt><trkpt lat="42.62557" lon="12.3221"><ele>442.49999999999994</ele><time>2026-04-17T14:03:56.601Z</time></trkpt><trkpt lat="42.6256367" lon="12.3220467"><ele>442.0</ele><time>2026-04-17T14:03:57.601Z</time></trkpt><trkpt lat="42.6256933" lon="12.3219933"><ele>441.5</ele><time>2026-04-17T14:03:58.601Z</time></trkpt><trkpt lat="42.6257467" lon="12.3219383"><ele>441.0</ele><time>2026-04-17T14:03:59.601Z</time></trkpt><trkpt lat="42.6258017" lon="12.3218683"><ele>440.49999999999994</ele><time>2026-04-17T14:04:00.6Z</time></trkpt><trkpt lat="42.625855" lon="12.3217833"><ele>440.0</ele><time>2026-04-17T14:04:01.601Z</time></trkpt><trkpt lat="42.6259133" lon="12.321685"><ele>440.0</ele><time>2026-04-17T14:04:02.601Z</time></trkpt><trkpt lat="42.625965" lon="12.321585"><ele>440.0</ele><time>2026-04-17T14:04:03.601Z</time></trkpt><trkpt lat="42.62603" lon="12.3214667"><ele>440.0</ele><time>2026-04-17T14:04:04.601Z</time></trkpt><trkpt lat="42.626095" lon="12.321355"><ele>440.0</ele><time>2026-04-17T14:04:05.6Z</time></trkpt><trkpt lat="42.626145" lon="12.321245"><ele>440.0</ele><time>2026-04-17T14:04:06.6Z</time></trkpt><trkpt lat="42.62619" lon="12.3211417"><ele>440.2</ele><time>2026-04-17T14:04:07.6Z</time></trkpt><trkpt lat="42.6262383" lon="12.3210467"><ele>440.4</ele><time>2026-04-17T14:04:08.6Z</time></trkpt><trkpt lat="42.6262967" lon="12.3209467"><ele>440.6</ele><time>2026-04-17T14:04:09.601Z</time></trkpt><trkpt lat="42.62636" lon="12.3208333"><ele>440.8</ele><time>2026-04-17T14:04:10.6Z</time></trkpt><trkpt lat="42.62642" lon="12.3207367"><ele>441.0</ele><time>2026-04-17T14:04:11.6Z</time></trkpt><trkpt lat="42.62648" lon="12.32065"><ele>441.0</ele><time>2026-04-17T14:04:12.6Z</time></trkpt><trkpt lat="42.6265433" lon="12.3205767"><ele>441.0</ele><time>2026-04-17T14:04:13.601Z</time></trkpt><trkpt lat="42.626615" lon="12.3204983"><ele>441.0</ele><time>2026-04-17T14:04:14.601Z</time></trkpt><trkpt lat="42.626695" lon="12.320425"><ele>441.0</ele><time>2026-04-17T14:04:15.601Z</time></trkpt><trkpt lat="42.626765" lon="12.3203617"><ele>441.0</ele><time>2026-04-17T14:04:16.601Z</time></trkpt><trkpt lat="42.6268383" lon="12.320305"><ele>441.0</ele><time>2026-04-17T14:04:17.601Z</time></trkpt><trkpt lat="42.626915" lon="12.3202367"><ele>441.0</ele><time>2026-04-17T14:04:18.6Z</time></trkpt><trkpt lat="42.62698" lon="12.3201767"><ele>441.0</ele><time>2026-04-17T14:04:19.601Z</time></trkpt><trkpt lat="42.6270467" lon="12.3201117"><ele>441.0</ele><time>2026-04-17T14:04:20.601Z</time></trkpt><trkpt lat="42.627115" lon="12.3200467"><ele>441.0</ele><time>2026-04-17T14:04:21.601Z</time></trkpt><trkpt lat="42.62719" lon="12.3199817"><ele>441.0</ele><time>2026-04-17T14:04:22.6Z</time></trkpt><trkpt lat="42.6272633" lon="12.31993"><ele>441.0</ele><time>2026-04-17T14:04:23.601Z</time></trkpt><trkpt lat="42.62733" lon="12.3198867"><ele>441.0</ele><time>2026-04-17T14:04:24.6Z</time></trkpt><trkpt lat="42.62744" lon="12.319815"><ele>441.0</ele><time>2026-04-17T14:04:26.601Z</time></trkpt><trkpt lat="42.627565" lon="12.31977"><ele>441.0</ele><time>2026-04-17T14:04:28.601Z</time></trkpt><trkpt lat="42.6276467" lon="12.3197333"><ele>441.0</ele><time>2026-04-17T14:04:29.601Z</time></trkpt><trkpt lat="42.62773" lon="12.3196983"><ele>441.0</ele><time>2026-04-17T14:04:30.601Z</time></trkpt><trkpt lat="42.6278033" lon="12.3196567"><ele>439.5</ele><time>2026-04-17T14:04:31.6Z</time></trkpt><trkpt lat="42.627865" lon="12.3196217"><ele>438.0</ele><time>2026-04-17T14:04:32.6Z</time></trkpt><trkpt lat="42.6279267" lon="12.3195717"><ele>436.5</ele><time>2026-04-17T14:04:33.6Z</time></trkpt><trkpt lat="42.6279883" lon="12.3195033"><ele>435.0</ele><time>2026-04-17T14:04:34.601Z</time></trkpt><trkpt lat="42.6280633" lon="12.3194283"><ele>433.5</ele><time>2026-04-17T14:04:35.601Z</time></trkpt><trkpt lat="42.6281467" lon="12.3193483"><ele>432.0</ele><time>2026-04-17T14:04:36.601Z</time></trkpt><trkpt lat="42.6282283" lon="12.319255"><ele>432.0</ele><time>2026-04-17T14:04:37.601Z</time></trkpt><trkpt lat="42.6283133" lon="12.3191583"><ele>432.0</ele><time>2026-04-17T14:04:38.601Z</time></trkpt><trkpt lat="42.6284083" lon="12.3190583"><ele>432.0</ele><time>2026-04-17T14:04:39.601Z</time></trkpt><trkpt lat="42.62851" lon="12.3189533"><ele>432.0</ele><time>2026-04-17T14:04:40.6Z</time></trkpt><trkpt lat="42.62862" lon="12.318835"><ele>430.25</ele><time>2026-04-17T14:04:41.601Z</time></trkpt><trkpt lat="42.6287267" lon="12.3187183"><ele>428.5</ele><time>2026-04-17T14:04:42.6Z</time></trkpt><trkpt lat="42.6288283" lon="12.3185983"><ele>426.75</ele><time>2026-04-17T14:04:43.601Z</time></trkpt><trkpt lat="42.6289233" lon="12.318475"><ele>425.0</ele><time>2026-04-17T14:04:44.6Z</time></trkpt><trkpt lat="42.62902" lon="12.3183483"><ele>425.0</ele><time>2026-04-17T14:04:45.601Z</time></trkpt><trkpt lat="42.6291083" lon="12.3182217"><ele>425.0</ele><time>2026-04-17T14:04:46.601Z</time></trkpt><trkpt lat="42.62919" lon="12.3181033"><ele>425.0</ele><time>2026-04-17T14:04:47.601Z</time></trkpt><trkpt lat="42.6292583" lon="12.3179833"><ele>425.0</ele><time>2026-04-17T14:04:48.6Z</time></trkpt><trkpt lat="42.6293133" lon="12.31787"><ele>425.3333333333333</ele><time>2026-04-17T14:04:49.601Z</time></trkpt><trkpt lat="42.629365" lon="12.317775"><ele>425.66666666666663</ele><time>2026-04-17T14:04:50.601Z</time></trkpt><trkpt lat="42.62941" lon="12.3176967"><ele>426.0</ele><time>2026-04-17T14:04:51.6Z</time></trkpt><trkpt lat="42.6294717" lon="12.3176017"><ele>426.33333333333337</ele><time>2026-04-17T14:04:53.601Z</time></trkpt><trkpt lat="42.6295317" lon="12.3175417"><ele>426.6666666666667</ele><time>2026-04-17T14:04:55.601Z</time></trkpt><trkpt lat="42.6295917" lon="12.3175033"><ele>427.0</ele><time>2026-04-17T14:04:57.601Z</time></trkpt><trkpt lat="42.6296583" lon="12.3174233"><ele>427.0</ele><time>2026-04-17T14:05:00.601Z</time></trkpt><trkpt lat="42.6296517" lon="12.317325"><ele>427.00000000000006</ele><time>2026-04-17T14:05:02.6Z</time></trkpt><trkpt lat="42.62959" lon="12.3172067"><ele>427.00000000000006</ele><time>2026-04-17T14:05:04.6Z</time></trkpt><trkpt lat="42.629565" lon="12.3170733"><ele>427.0</ele><time>2026-04-17T14:05:06.6Z</time></trkpt><trkpt lat="42.6296033" lon="12.3169067"><ele>427.0</ele><time>2026-04-17T14:05:08.6Z</time></trkpt><trkpt lat="42.6296383" lon="12.3167833"><ele>426.25</ele><time>2026-04-17T14:05:09.6Z</time></trkpt><trkpt lat="42.629665" lon="12.3166433"><ele>425.5</ele><time>2026-04-17T14:05:10.601Z</time></trkpt><trkpt lat="42.6296867" lon="12.316485"><ele>424.75</ele><time>2026-04-17T14:05:11.601Z</time></trkpt><trkpt lat="42.6296983" lon="12.31631"><ele>424.0</ele><time>2026-04-17T14:05:12.601Z</time></trkpt><trkpt lat="42.6297167" lon="12.3161467"><ele>423.0</ele><time>2026-04-17T14:05:13.601Z</time></trkpt><trkpt lat="42.6297367" lon="12.3159817"><ele>422.0</ele><time>2026-04-17T14:05:14.601Z</time></trkpt><trkpt lat="42.6297683" lon="12.3158133"><ele>421.0</ele><time>2026-04-17T14:05:15.6Z</time></trkpt><trkpt lat="42.62982" lon="12.3156467"><ele>420.0</ele><time>2026-04-17T14:05:16.601Z</time></trkpt><trkpt lat="42.6298867" lon="12.3154867"><ele>419.25</ele><time>2026-04-17T14:05:17.601Z</time></trkpt><trkpt lat="42.62997" lon="12.3153267"><ele>418.5</ele><time>2026-04-17T14:05:18.601Z</time></trkpt><trkpt lat="42.6300567" lon="12.315165"><ele>417.75</ele><time>2026-04-17T14:05:19.6Z</time></trkpt><trkpt lat="42.63014" lon="12.315015"><ele>417.0</ele><time>2026-04-17T14:05:20.6Z</time></trkpt><trkpt lat="42.630225" lon="12.3148667"><ele>416.40000000000003</ele><time>2026-04-17T14:05:21.601Z</time></trkpt><trkpt lat="42.6303067" lon="12.3147283"><ele>415.8</ele><time>2026-04-17T14:05:22.601Z</time></trkpt><trkpt lat="42.63038" lon="12.3146083"><ele>415.2</ele><time>2026-04-17T14:05:23.6Z</time></trkpt><trkpt lat="42.6304417" lon="12.3145033"><ele>414.6</ele><time>2026-04-17T14:05:24.601Z</time></trkpt><trkpt lat="42.6304967" lon="12.3144067"><ele>414.0</ele><time>2026-04-17T14:05:25.601Z</time></trkpt><trkpt lat="42.6305567" lon="12.3143167"><ele>414.4</ele><time>2026-04-17T14:05:26.6Z</time></trkpt><trkpt lat="42.6306133" lon="12.314225"><ele>414.79999999999995</ele><time>2026-04-17T14:05:27.601Z</time></trkpt><trkpt lat="42.6306733" lon="12.3141317"><ele>415.20000000000005</ele><time>2026-04-17T14:05:28.6Z</time></trkpt><trkpt lat="42.630735" lon="12.31403"><ele>415.6</ele><time>2026-04-17T14:05:29.601Z</time></trkpt><trkpt lat="42.630795" lon="12.3139117"><ele>416.0</ele><time>2026-04-17T14:05:30.6Z</time></trkpt><trkpt lat="42.6308517" lon="12.31378"><ele>416.0</ele><time>2026-04-17T14:05:31.6Z</time></trkpt><trkpt lat="42.6309067" lon="12.3136333"><ele>416.0</ele><time>2026-04-17T14:05:32.601Z</time></trkpt><trkpt lat="42.6309617" lon="12.3134783"><ele>416.0</ele><time>2026-04-17T14:05:33.601Z</time></trkpt><trkpt lat="42.6310233" lon="12.3133117"><ele>416.0</ele><time>2026-04-17T14:05:34.6Z</time></trkpt><trkpt lat="42.63108" lon="12.3131317"><ele>416.0</ele><time>2026-04-17T14:05:35.601Z</time></trkpt><trkpt lat="42.6311367" lon="12.3129467"><ele>416.0</ele><time>2026-04-17T14:05:36.601Z</time></trkpt><trkpt lat="42.6311933" lon="12.3127633"><ele>416.0</ele><time>2026-04-17T14:05:37.6Z</time></trkpt><trkpt lat="42.6312533" lon="12.3125833"><ele>416.0</ele><time>2026-04-17T14:05:38.601Z</time></trkpt><trkpt lat="42.6313083" lon="12.312405"><ele>416.6</ele><time>2026-04-17T14:05:39.601Z</time></trkpt><trkpt lat="42.63135" lon="12.3122383"><ele>417.20000000000005</ele><time>2026-04-17T14:05:40.601Z</time></trkpt><trkpt lat="42.63138" lon="12.3120917"><ele>417.79999999999995</ele><time>2026-04-17T14:05:41.601Z</time></trkpt><trkpt lat="42.63141" lon="12.3119783"><ele>418.4</ele><time>2026-04-17T14:05:42.6Z</time></trkpt><trkpt lat="42.6314433" lon="12.3118833"><ele>419.0</ele><time>2026-04-17T14:05:43.6Z</time></trkpt><trkpt lat="42.631495" lon="12.3118083"><ele>418.99999999999994</ele><time>2026-04-17T14:05:44.6Z</time></trkpt><trkpt lat="42.6315617" lon="12.3117717"><ele>419.0</ele><time>2026-04-17T14:05:45.601Z</time></trkpt><trkpt lat="42.631645" lon="12.311745"><ele>419.0</ele><time>2026-04-17T14:05:46.6Z</time></trkpt><trkpt lat="42.63173" lon="12.311715"><ele>419.0</ele><time>2026-04-17T14:05:47.601Z</time></trkpt><trkpt lat="42.6318233" lon="12.3116767"><ele>418.99999999999994</ele><time>2026-04-17T14:05:48.601Z</time></trkpt><trkpt lat="42.6319233" lon="12.3116317"><ele>419.0</ele><time>2026-04-17T14:05:49.601Z</time></trkpt><trkpt lat="42.63203" lon="12.3115817"><ele>419.0</ele><time>2026-04-17T14:05:50.6Z</time></trkpt><trkpt lat="42.632145" lon="12.3115333"><ele>419.0</ele><time>2026-04-17T14:05:51.601Z</time></trkpt><trkpt lat="42.6322617" lon="12.3114817"><ele>419.0</ele><time>2026-04-17T14:05:52.601Z</time></trkpt><trkpt lat="42.6323767" lon="12.3114283"><ele>419.0</ele><time>2026-04-17T14:05:53.601Z</time></trkpt><trkpt lat="42.632495" lon="12.311365"><ele>419.25</ele><time>2026-04-17T14:05:54.6Z</time></trkpt><trkpt lat="42.632625" lon="12.3112967"><ele>419.5</ele><time>2026-04-17T14:05:55.6Z</time></trkpt><trkpt lat="42.632755" lon="12.311225"><ele>419.75</ele><time>2026-04-17T14:05:56.601Z</time></trkpt><trkpt lat="42.6328833" lon="12.3111667"><ele>420.0</ele><time>2026-04-17T14:05:57.6Z</time></trkpt><trkpt lat="42.6330133" lon="12.3111"><ele>419.5</ele><time>2026-04-17T14:05:58.6Z</time></trkpt><trkpt lat="42.6331333" lon="12.3110333"><ele>419.0</ele><time>2026-04-17T14:05:59.601Z</time></trkpt><trkpt lat="42.633255" lon="12.310965"><ele>418.5</ele><time>2026-04-17T14:06:00.601Z</time></trkpt><trkpt lat="42.633375" lon="12.3108933"><ele>418.0</ele><time>2026-04-17T14:06:01.601Z</time></trkpt><trkpt lat="42.6334983" lon="12.310825"><ele>418.0</ele><time>2026-04-17T14:06:02.601Z</time></trkpt><trkpt lat="42.6336383" lon="12.31075"><ele>418.0</ele><time>2026-04-17T14:06:03.601Z</time></trkpt><trkpt lat="42.633785" lon="12.3106717"><ele>418.0</ele><time>2026-04-17T14:06:04.601Z</time></trkpt><trkpt lat="42.6339283" lon="12.3105933"><ele>418.5</ele><time>2026-04-17T14:06:05.601Z</time></trkpt><trkpt lat="42.6340733" lon="12.31052"><ele>419.0</ele><time>2026-04-17T14:06:06.601Z</time></trkpt><trkpt lat="42.63421" lon="12.3104517"><ele>419.5</ele><time>2026-04-17T14:06:07.601Z</time></trkpt><trkpt lat="42.6343433" lon="12.310395"><ele>420.0</ele><time>2026-04-17T14:06:08.6Z</time></trkpt><trkpt lat="42.6344667" lon="12.310345"><ele>420.25</ele><time>2026-04-17T14:06:09.601Z</time></trkpt><trkpt lat="42.634585" lon="12.310295"><ele>420.5</ele><time>2026-04-17T14:06:10.601Z</time></trkpt><trkpt lat="42.634705" lon="12.3102517"><ele>420.75</ele><time>2026-04-17T14:06:11.601Z</time></trkpt><trkpt lat="42.6348217" lon="12.310225"><ele>421.0</ele><time>2026-04-17T14:06:12.601Z</time></trkpt><trkpt lat="42.634945" lon="12.310205"><ele>421.0</ele><time>2026-04-17T14:06:13.601Z</time></trkpt><trkpt lat="42.6350783" lon="12.3101983"><ele>421.0</ele><time>2026-04-17T14:06:14.601Z</time></trkpt><trkpt lat="42.63522" lon="12.3101967"><ele>421.0</ele><time>2026-04-17T14:06:15.601Z</time></trkpt><trkpt lat="42.6353633" lon="12.310195"><ele>421.0</ele><time>2026-04-17T14:06:16.601Z</time></trkpt><trkpt lat="42.63551" lon="12.31019"><ele>420.6666666666667</ele><time>2026-04-17T14:06:17.601Z</time></trkpt><trkpt lat="42.6356633" lon="12.3101833"><ele>420.33333333333337</ele><time>2026-04-17T14:06:18.601Z</time></trkpt><trkpt lat="42.635825" lon="12.3101817"><ele>420.0</ele><time>2026-04-17T14:06:19.601Z</time></trkpt><trkpt lat="42.6359867" lon="12.31018"><ele>419.0</ele><time>2026-04-17T14:06:20.6Z</time></trkpt><trkpt lat="42.6361467" lon="12.31018"><ele>418.0</ele><time>2026-04-17T14:06:21.6Z</time></trkpt><trkpt lat="42.6363083" lon="12.3101717"><ele>417.0</ele><time>2026-04-17T14:06:22.601Z</time></trkpt><trkpt lat="42.6364617" lon="12.31017"><ele>417.0</ele><time>2026-04-17T14:06:23.6Z</time></trkpt><trkpt lat="42.6366217" lon="12.310165"><ele>417.0</ele><time>2026-04-17T14:06:24.601Z</time></trkpt><trkpt lat="42.636795" lon="12.31016"><ele>417.0</ele><time>2026-04-17T14:06:25.601Z</time></trkpt><trkpt lat="42.6369633" lon="12.3101517"><ele>416.25</ele><time>2026-04-17T14:06:26.601Z</time></trkpt><trkpt lat="42.6371267" lon="12.3101583"><ele>415.5</ele><time>2026-04-17T14:06:27.601Z</time></trkpt><trkpt lat="42.6372683" lon="12.310165"><ele>414.75</ele><time>2026-04-17T14:06:28.601Z</time></trkpt><trkpt lat="42.6373983" lon="12.31017"><ele>414.0</ele><time>2026-04-17T14:06:29.601Z</time></trkpt><trkpt lat="42.6375217" lon="12.3101867"><ele>414.0</ele><time>2026-04-17T14:06:30.601Z</time></trkpt><trkpt lat="42.6376367" lon="12.3101833"><ele>414.0</ele><time>2026-04-17T14:06:31.601Z</time></trkpt><trkpt lat="42.6377467" lon="12.310155"><ele>414.0</ele><time>2026-04-17T14:06:32.6Z</time></trkpt><trkpt lat="42.6378667" lon="12.3101067"><ele>414.0</ele><time>2026-04-17T14:06:33.601Z</time></trkpt><trkpt lat="42.63799" lon="12.3100433"><ele>413.25</ele><time>2026-04-17T14:06:34.601Z</time></trkpt><trkpt lat="42.63812" lon="12.3099633"><ele>412.5</ele><time>2026-04-17T14:06:35.601Z</time></trkpt><trkpt lat="42.6382567" lon="12.309875"><ele>411.75</ele><time>2026-04-17T14:06:36.601Z</time></trkpt><trkpt lat="42.6383867" lon="12.3097817"><ele>411.0</ele><time>2026-04-17T14:06:37.601Z</time></trkpt><trkpt lat="42.6385067" lon="12.30969"><ele>410.75</ele><time>2026-04-17T14:06:38.601Z</time></trkpt><trkpt lat="42.6386283" lon="12.3096033"><ele>410.5</ele><time>2026-04-17T14:06:39.601Z</time></trkpt><trkpt lat="42.638755" lon="12.3095133"><ele>410.25</ele><time>2026-04-17T14:06:40.601Z</time></trkpt><trkpt lat="42.6388767" lon="12.30942"><ele>410.0</ele><time>2026-04-17T14:06:41.601Z</time></trkpt><trkpt lat="42.6389883" lon="12.3093317"><ele>409.75</ele><time>2026-04-17T14:06:42.6Z</time></trkpt><trkpt lat="42.6390983" lon="12.30925"><ele>409.5</ele><time>2026-04-17T14:06:43.601Z</time></trkpt><trkpt lat="42.6392117" lon="12.3091667"><ele>409.25</ele><time>2026-04-17T14:06:44.601Z</time></trkpt><trkpt lat="42.63933" lon="12.309085"><ele>409.0</ele><time>2026-04-17T14:06:45.601Z</time></trkpt><trkpt lat="42.639445" lon="12.309005"><ele>409.0</ele><time>2026-04-17T14:06:46.6Z</time></trkpt><trkpt lat="42.6395567" lon="12.3089333"><ele>409.0</ele><time>2026-04-17T14:06:47.601Z</time></trkpt><trkpt lat="42.63966" lon="12.308875"><ele>409.0</ele><time>2026-04-17T14:06:48.601Z</time></trkpt><trkpt lat="42.6397617" lon="12.3088233"><ele>409.0</ele><time>2026-04-17T14:06:49.601Z</time></trkpt><trkpt lat="42.639845" lon="12.3087817"><ele>409.0</ele><time>2026-04-17T14:06:50.601Z</time></trkpt><trkpt lat="42.6399117" lon="12.30872"><ele>408.83333333333337</ele><time>2026-04-17T14:06:51.601Z</time></trkpt><trkpt lat="42.6399633" lon="12.3086533"><ele>408.6666666666667</ele><time>2026-04-17T14:06:52.601Z</time></trkpt><trkpt lat="42.6400017" lon="12.3085633"><ele>408.5</ele><time>2026-04-17T14:06:53.601Z</time></trkpt><trkpt lat="42.6400267" lon="12.3084533"><ele>408.33333333333337</ele><time>2026-04-17T14:06:54.6Z</time></trkpt><trkpt lat="42.640045" lon="12.3083283"><ele>408.1666666666667</ele><time>2026-04-17T14:06:55.601Z</time></trkpt><trkpt lat="42.6400867" lon="12.30821"><ele>408.0</ele><time>2026-04-17T14:06:56.601Z</time></trkpt><trkpt lat="42.64015" lon="12.3080967"><ele>408.0</ele><time>2026-04-17T14:06:57.601Z</time></trkpt><trkpt lat="42.6402217" lon="12.3079933"><ele>408.0</ele><time>2026-04-17T14:06:58.601Z</time></trkpt><trkpt lat="42.6403067" lon="12.3078933"><ele>408.0</ele><time>2026-04-17T14:06:59.601Z</time></trkpt><trkpt lat="42.64039" lon="12.3077883"><ele>408.0</ele><time>2026-04-17T14:07:00.6Z</time></trkpt><trkpt lat="42.64047" lon="12.3076833"><ele>408.0</ele><time>2026-04-17T14:07:01.601Z</time></trkpt><trkpt lat="42.6405517" lon="12.30758"><ele>408.25</ele><time>2026-04-17T14:07:02.6Z</time></trkpt><trkpt lat="42.64064" lon="12.30747"><ele>408.5</ele><time>2026-04-17T14:07:03.601Z</time></trkpt><trkpt lat="42.64073" lon="12.3073567"><ele>408.75</ele><time>2026-04-17T14:07:04.601Z</time></trkpt><trkpt lat="42.6408133" lon="12.307245"><ele>409.0</ele><time>2026-04-17T14:07:05.6Z</time></trkpt><trkpt lat="42.6409" lon="12.3071283"><ele>408.75</ele><time>2026-04-17T14:07:06.6Z</time></trkpt><trkpt lat="42.6409883" lon="12.3070067"><ele>408.5</ele><time>2026-04-17T14:07:07.601Z</time></trkpt><trkpt lat="42.6410867" lon="12.3068767"><ele>408.25</ele><time>2026-04-17T14:07:08.6Z</time></trkpt><trkpt lat="42.6411783" lon="12.3067433"><ele>408.0</ele><time>2026-04-17T14:07:09.601Z</time></trkpt><trkpt lat="42.641275" lon="12.306605"><ele>408.0</ele><time>2026-04-17T14:07:10.601Z</time></trkpt><trkpt lat="42.6413717" lon="12.30646"><ele>408.0</ele><time>2026-04-17T14:07:11.601Z</time></trkpt><trkpt lat="42.6414717" lon="12.3063167"><ele>408.0</ele><time>2026-04-17T14:07:12.6Z</time></trkpt><trkpt lat="42.6415833" lon="12.3061617"><ele>408.0</ele><time>2026-04-17T14:07:13.6Z</time></trkpt><trkpt lat="42.64169" lon="12.30601"><ele>408.0</ele><time>2026-04-17T14:07:14.601Z</time></trkpt><trkpt lat="42.6417933" lon="12.3058733"><ele>408.0</ele><time>2026-04-17T14:07:15.601Z</time></trkpt><trkpt lat="42.64189" lon="12.3057517"><ele>408.0</ele><time>2026-04-17T14:07:16.601Z</time></trkpt><trkpt lat="42.64199" lon="12.30562"><ele>408.0</ele><time>2026-04-17T14:07:17.6Z</time></trkpt><trkpt lat="42.642085" lon="12.3054917"><ele>408.25</ele><time>2026-04-17T14:07:18.601Z</time></trkpt><trkpt lat="42.642175" lon="12.305365"><ele>408.5</ele><time>2026-04-17T14:07:19.601Z</time></trkpt><trkpt lat="42.6422683" lon="12.305245"><ele>408.75</ele><time>2026-04-17T14:07:20.6Z</time></trkpt><trkpt lat="42.64236" lon="12.30513"><ele>409.0</ele><time>2026-04-17T14:07:21.6Z</time></trkpt><trkpt lat="42.6424433" lon="12.30501"><ele>409.0</ele><time>2026-04-17T14:07:22.601Z</time></trkpt><trkpt lat="42.6425333" lon="12.304885"><ele>409.0</ele><time>2026-04-17T14:07:23.6Z</time></trkpt><trkpt lat="42.6426233" lon="12.304765"><ele>409.0</ele><time>2026-04-17T14:07:24.6Z</time></trkpt><trkpt lat="42.6427133" lon="12.3046483"><ele>409.0</ele><time>2026-04-17T14:07:25.601Z</time></trkpt><trkpt lat="42.6428" lon="12.304535"><ele>408.75</ele><time>2026-04-17T14:07:26.601Z</time></trkpt><trkpt lat="42.642885" lon="12.3044183"><ele>408.5</ele><time>2026-04-17T14:07:27.601Z</time></trkpt><trkpt lat="42.6429683" lon="12.304295"><ele>408.25</ele><time>2026-04-17T14:07:28.6Z</time></trkpt><trkpt lat="42.6430567" lon="12.304175"><ele>408.0</ele><time>2026-04-17T14:07:29.601Z</time></trkpt><trkpt lat="42.643155" lon="12.3040567"><ele>408.0</ele><time>2026-04-17T14:07:30.6Z</time></trkpt><trkpt lat="42.6432467" lon="12.3039383"><ele>408.0</ele><time>2026-04-17T14:07:31.601Z</time></trkpt><trkpt lat="42.6433417" lon="12.303815"><ele>408.0</ele><time>2026-04-17T14:07:32.601Z</time></trkpt><trkpt lat="42.6434333" lon="12.3037017"><ele>408.0</ele><time>2026-04-17T14:07:33.601Z</time></trkpt><trkpt lat="42.6435317" lon="12.3036017"><ele>408.0</ele><time>2026-04-17T14:07:34.601Z</time></trkpt><trkpt lat="42.6436383" lon="12.3035167"><ele>408.0</ele><time>2026-04-17T14:07:35.601Z</time></trkpt><trkpt lat="42.643745" lon="12.3034533"><ele>408.0</ele><time>2026-04-17T14:07:36.601Z</time></trkpt><trkpt lat="42.6438633" lon="12.303395"><ele>408.0</ele><time>2026-04-17T14:07:37.601Z</time></trkpt><trkpt lat="42.6439733" lon="12.3033283"><ele>408.0</ele><time>2026-04-17T14:07:38.601Z</time></trkpt><trkpt lat="42.6440683" lon="12.3032567"><ele>408.0</ele><time>2026-04-17T14:07:39.601Z</time></trkpt><trkpt lat="42.64415" lon="12.30318"><ele>408.0</ele><time>2026-04-17T14:07:40.6Z</time></trkpt><trkpt lat="42.6442133" lon="12.3030817"><ele>408.0</ele><time>2026-04-17T14:07:41.601Z</time></trkpt><trkpt lat="42.6442833" lon="12.3029683"><ele>408.0</ele><time>2026-04-17T14:07:42.6Z</time></trkpt><trkpt lat="42.64436" lon="12.3028617"><ele>408.0</ele><time>2026-04-17T14:07:43.601Z</time></trkpt><trkpt lat="42.64445" lon="12.3027883"><ele>408.0</ele><time>2026-04-17T14:07:44.601Z</time></trkpt><trkpt lat="42.644555" lon="12.3027317"><ele>408.0</ele><time>2026-04-17T14:07:45.6Z</time></trkpt><trkpt lat="42.644665" lon="12.3026883"><ele>408.0</ele><time>2026-04-17T14:07:46.601Z</time></trkpt><trkpt lat="42.644775" lon="12.30264"><ele>408.0</ele><time>2026-04-17T14:07:47.6Z</time></trkpt><trkpt lat="42.6449" lon="12.30259"><ele>407.5</ele><time>2026-04-17T14:07:48.601Z</time></trkpt><trkpt lat="42.6450417" lon="12.3025433"><ele>407.0</ele><time>2026-04-17T14:07:49.601Z</time></trkpt><trkpt lat="42.645185" lon="12.3025017"><ele>406.5</ele><time>2026-04-17T14:07:50.601Z</time></trkpt><trkpt lat="42.6453233" lon="12.3024617"><ele>406.0</ele><time>2026-04-17T14:07:51.601Z</time></trkpt><trkpt lat="42.645475" lon="12.3024217"><ele>406.0</ele><time>2026-04-17T14:07:52.601Z</time></trkpt><trkpt lat="42.64562" lon="12.302385"><ele>406.0</ele><time>2026-04-17T14:07:53.601Z</time></trkpt><trkpt lat="42.64576" lon="12.3023433"><ele>406.0</ele><time>2026-04-17T14:07:54.601Z</time></trkpt><trkpt lat="42.64589" lon="12.3023017"><ele>406.0</ele><time>2026-04-17T14:07:55.601Z</time></trkpt><trkpt lat="42.646" lon="12.3022617"><ele>405.20000000000005</ele><time>2026-04-17T14:07:56.601Z</time></trkpt><trkpt lat="42.6461067" lon="12.30224"><ele>404.40000000000003</ele><time>2026-04-17T14:07:57.601Z</time></trkpt><trkpt lat="42.6462033" lon="12.30221"><ele>403.6</ele><time>2026-04-17T14:07:58.601Z</time></trkpt><trkpt lat="42.6462983" lon="12.30217"><ele>402.8</ele><time>2026-04-17T14:07:59.601Z</time></trkpt><trkpt lat="42.6463983" lon="12.30212"><ele>402.0</ele><time>2026-04-17T14:08:00.601Z</time></trkpt><trkpt lat="42.6465033" lon="12.3020783"><ele>401.0</ele><time>2026-04-17T14:08:01.601Z</time></trkpt><trkpt lat="42.6466117" lon="12.30205"><ele>401.0</ele><time>2026-04-17T14:08:02.601Z</time></trkpt><trkpt lat="42.6467283" lon="12.30204"><ele>401.0</ele><time>2026-04-17T14:08:03.601Z</time></trkpt><trkpt lat="42.6468583" lon="12.30204"><ele>401.0</ele><time>2026-04-17T14:08:04.601Z</time></trkpt></trkseg></trk></gpx>